<?xml version="1.0" encoding="UTF-8"?>
<gpx version="1.1" creator="https://www.youtrack.es" xsi:schemaLocation="http://www.topografix.com/GPX/1/1 http://www.topografix.com/GPX/1/1/gpx.xsd http://www.garmin.com/xmlschemas/GpxExtensions/v3 http://www.garmin.com/xmlschemas/GpxExtensionsv3.xsd http://www.garmin.com/xmlschemas/TrackPointExtension/v1 http://www.garmin.com/xmlschemas/TrackPointExtensionv1.xsd" xmlns:gpxtpx="http://www.garmin.com/xmlschemas/TrackPointExtension/v1" xmlns:gpxx="http://www.garmin.com/xmlschemas/GpxExtensions/v3" xmlns:xsi="http://www.w3.org/2001/XMLSchema-instance">
  <metadata>
    <link href="https://www.youtrack.es">
      <text>YouTrack.es</text>
    </link>
    <time>2026-05-08T12:10:25Z</time>
  </metadata>
  <trk>
    <src>https://www.youtrack.es</src>
    <link href="https://www.youtrack.es/ruta/8105-toscane-2019">
      <text>YouTrack.es</text>
    </link>
    <trkseg>
      <trkpt lat="44.111160" lon="9.813510">
        <ele>15</ele>
        <time>2019-09-05T12:19:09Z</time>
      </trkpt>
      <trkpt lat="44.111390" lon="9.812820">
        <ele>14</ele>
        <time>2019-09-05T12:19:19Z</time>
      </trkpt>
      <trkpt lat="44.111300" lon="9.812760">
        <ele>14</ele>
        <time>2019-09-05T12:19:20Z</time>
      </trkpt>
      <trkpt lat="44.111040" lon="9.813400">
        <ele>14</ele>
        <time>2019-09-05T12:19:30Z</time>
      </trkpt>
      <trkpt lat="44.110910" lon="9.813850">
        <ele>14</ele>
        <time>2019-09-05T12:19:36Z</time>
      </trkpt>
      <trkpt lat="44.111000" lon="9.813960">
        <ele>14</ele>
        <time>2019-09-05T12:19:38Z</time>
      </trkpt>
      <trkpt lat="44.110710" lon="9.815020">
        <ele>15</ele>
        <time>2019-09-05T12:19:53Z</time>
      </trkpt>
      <trkpt lat="44.110440" lon="9.815500">
        <ele>15</ele>
        <time>2019-09-05T12:20:00Z</time>
      </trkpt>
      <trkpt lat="44.110200" lon="9.815670">
        <ele>15</ele>
        <time>2019-09-05T12:20:05Z</time>
      </trkpt>
      <trkpt lat="44.110060" lon="9.815820">
        <ele>15</ele>
        <time>2019-09-05T12:20:08Z</time>
      </trkpt>
      <trkpt lat="44.109980" lon="9.815750">
        <ele>15</ele>
        <time>2019-09-05T12:20:10Z</time>
      </trkpt>
      <trkpt lat="44.109930" lon="9.815770">
        <ele>15</ele>
        <time>2019-09-05T12:20:11Z</time>
      </trkpt>
      <trkpt lat="44.109890" lon="9.815880">
        <ele>15</ele>
        <time>2019-09-05T12:20:13Z</time>
      </trkpt>
      <trkpt lat="44.109730" lon="9.815830">
        <ele>14</ele>
        <time>2019-09-05T12:20:16Z</time>
      </trkpt>
      <trkpt lat="44.108010" lon="9.813860">
        <ele>10</ele>
        <time>2019-09-05T12:20:55Z</time>
      </trkpt>
      <trkpt lat="44.106540" lon="9.816150">
        <ele>9</ele>
        <time>2019-09-05T12:21:34Z</time>
      </trkpt>
      <trkpt lat="44.106020" lon="9.815570">
        <ele>8</ele>
        <time>2019-09-05T12:21:46Z</time>
      </trkpt>
      <trkpt lat="44.104450" lon="9.818220">
        <ele>11</ele>
        <time>2019-09-05T12:22:30Z</time>
      </trkpt>
      <trkpt lat="44.103400" lon="9.820220">
        <ele>11</ele>
        <time>2019-09-05T12:23:02Z</time>
      </trkpt>
      <trkpt lat="44.102560" lon="9.821480">
        <ele>11</ele>
        <time>2019-09-05T12:23:24Z</time>
      </trkpt>
      <trkpt lat="44.101680" lon="9.822920">
        <ele>5</ele>
        <time>2019-09-05T12:23:48Z</time>
      </trkpt>
      <trkpt lat="44.101720" lon="9.822980">
        <ele>5</ele>
        <time>2019-09-05T12:23:49Z</time>
      </trkpt>
      <trkpt lat="44.101690" lon="9.823020">
        <ele>5</ele>
        <time>2019-09-05T12:23:50Z</time>
      </trkpt>
      <trkpt lat="44.102490" lon="9.824050">
        <ele>1</ele>
        <time>2019-09-05T12:24:09Z</time>
      </trkpt>
      <trkpt lat="44.105280" lon="9.827490">
        <ele>2</ele>
        <time>2019-09-05T12:25:15Z</time>
      </trkpt>
      <trkpt lat="44.105500" lon="9.827670">
        <ele>3</ele>
        <time>2019-09-05T12:25:20Z</time>
      </trkpt>
      <trkpt lat="44.106290" lon="9.828710">
        <ele>3</ele>
        <time>2019-09-05T12:25:39Z</time>
      </trkpt>
      <trkpt lat="44.106410" lon="9.828640">
        <ele>5</ele>
        <time>2019-09-05T12:25:42Z</time>
      </trkpt>
      <trkpt lat="44.106730" lon="9.828740">
        <ele>5</ele>
        <time>2019-09-05T12:25:47Z</time>
      </trkpt>
      <trkpt lat="44.106890" lon="9.828840">
        <ele>5</ele>
        <time>2019-09-05T12:25:51Z</time>
      </trkpt>
      <trkpt lat="44.106910" lon="9.829010">
        <ele>4</ele>
        <time>2019-09-05T12:25:53Z</time>
      </trkpt>
      <trkpt lat="44.106770" lon="9.829190">
        <ele>2</ele>
        <time>2019-09-05T12:25:56Z</time>
      </trkpt>
      <trkpt lat="44.106760" lon="9.829310">
        <ele>2</ele>
        <time>2019-09-05T12:25:58Z</time>
      </trkpt>
      <trkpt lat="44.109460" lon="9.832540">
        <ele>6</ele>
        <time>2019-09-05T12:27:01Z</time>
      </trkpt>
      <trkpt lat="44.110600" lon="9.833990">
        <ele>8</ele>
        <time>2019-09-05T12:27:28Z</time>
      </trkpt>
      <trkpt lat="44.110500" lon="9.834140">
        <ele>7</ele>
        <time>2019-09-05T12:27:31Z</time>
      </trkpt>
      <trkpt lat="44.110460" lon="9.834340">
        <ele>6</ele>
        <time>2019-09-05T12:27:34Z</time>
      </trkpt>
      <trkpt lat="44.110600" lon="9.834650">
        <ele>6</ele>
        <time>2019-09-05T12:27:38Z</time>
      </trkpt>
      <trkpt lat="44.110880" lon="9.835430">
        <ele>6</ele>
        <time>2019-09-05T12:27:50Z</time>
      </trkpt>
      <trkpt lat="44.111130" lon="9.836290">
        <ele>4</ele>
        <time>2019-09-05T12:28:01Z</time>
      </trkpt>
      <trkpt lat="44.111210" lon="9.836760">
        <ele>2</ele>
        <time>2019-09-05T12:28:08Z</time>
      </trkpt>
      <trkpt lat="44.111280" lon="9.838030">
        <ele>2</ele>
        <time>2019-09-05T12:28:24Z</time>
      </trkpt>
      <trkpt lat="44.111290" lon="9.841620">
        <ele>5</ele>
        <time>2019-09-05T12:29:10Z</time>
      </trkpt>
      <trkpt lat="44.111330" lon="9.845110">
        <ele>2</ele>
        <time>2019-09-05T12:29:54Z</time>
      </trkpt>
      <trkpt lat="44.111230" lon="9.845610">
        <ele>2</ele>
        <time>2019-09-05T12:30:01Z</time>
      </trkpt>
      <trkpt lat="44.111290" lon="9.850930">
        <ele>3</ele>
        <time>2019-09-05T12:31:09Z</time>
      </trkpt>
      <trkpt lat="44.111190" lon="9.851840">
        <ele>2</ele>
        <time>2019-09-05T12:31:21Z</time>
      </trkpt>
      <trkpt lat="44.111230" lon="9.851850">
        <ele>2</ele>
        <time>2019-09-05T12:31:21Z</time>
      </trkpt>
      <trkpt lat="44.111110" lon="9.852420">
        <ele>2</ele>
        <time>2019-09-05T12:31:29Z</time>
      </trkpt>
      <trkpt lat="44.111000" lon="9.852780">
        <ele>2</ele>
        <time>2019-09-05T12:31:34Z</time>
      </trkpt>
      <trkpt lat="44.110830" lon="9.853220">
        <ele>1</ele>
        <time>2019-09-05T12:31:40Z</time>
      </trkpt>
      <trkpt lat="44.110420" lon="9.854070">
        <ele>1</ele>
        <time>2019-09-05T12:31:53Z</time>
      </trkpt>
      <trkpt lat="44.110070" lon="9.854610">
        <ele>2</ele>
        <time>2019-09-05T12:32:03Z</time>
      </trkpt>
      <trkpt lat="44.109620" lon="9.855120">
        <ele>1</ele>
        <time>2019-09-05T12:32:13Z</time>
      </trkpt>
      <trkpt lat="44.109190" lon="9.855510">
        <ele>1</ele>
        <time>2019-09-05T12:32:22Z</time>
      </trkpt>
      <trkpt lat="44.108740" lon="9.855770">
        <ele>2.9</ele>
        <time>2019-09-05T12:32:31Z</time>
      </trkpt>
      <trkpt lat="44.108250" lon="9.855980">
        <ele>2</ele>
        <time>2019-09-05T12:32:40Z</time>
      </trkpt>
      <trkpt lat="44.106200" lon="9.856680">
        <ele>1</ele>
        <time>2019-09-05T12:33:18Z</time>
      </trkpt>
      <trkpt lat="44.105220" lon="9.856980">
        <ele>1</ele>
        <time>2019-09-05T12:33:35Z</time>
      </trkpt>
      <trkpt lat="44.104870" lon="9.857100">
        <ele>2</ele>
        <time>2019-09-05T12:33:42Z</time>
      </trkpt>
      <trkpt lat="44.104530" lon="9.857250">
        <ele>2</ele>
        <time>2019-09-05T12:33:48Z</time>
      </trkpt>
      <trkpt lat="44.104280" lon="9.857380">
        <ele>2</ele>
        <time>2019-09-05T12:33:53Z</time>
      </trkpt>
      <trkpt lat="44.103550" lon="9.857940">
        <ele>1</ele>
        <time>2019-09-05T12:34:08Z</time>
      </trkpt>
      <trkpt lat="44.103350" lon="9.858170">
        <ele>2</ele>
        <time>2019-09-05T12:34:12Z</time>
      </trkpt>
      <trkpt lat="44.102760" lon="9.858710">
        <ele>3</ele>
        <time>2019-09-05T12:34:25Z</time>
      </trkpt>
      <trkpt lat="44.102750" lon="9.858970">
        <ele>2</ele>
        <time>2019-09-05T12:34:28Z</time>
      </trkpt>
      <trkpt lat="44.102600" lon="9.860090">
        <ele>9</ele>
        <time>2019-09-05T12:34:43Z</time>
      </trkpt>
      <trkpt lat="44.101640" lon="9.862980">
        <ele>10</ele>
        <time>2019-09-05T12:35:23Z</time>
      </trkpt>
      <trkpt lat="44.101520" lon="9.863710">
        <ele>12</ele>
        <time>2019-09-05T12:35:33Z</time>
      </trkpt>
      <trkpt lat="44.101220" lon="9.864610">
        <ele>13</ele>
        <time>2019-09-05T12:35:46Z</time>
      </trkpt>
      <trkpt lat="44.101090" lon="9.864870">
        <ele>24</ele>
        <time>2019-09-05T12:35:50Z</time>
      </trkpt>
      <trkpt lat="44.100550" lon="9.865780">
        <ele>32</ele>
        <time>2019-09-05T12:36:05Z</time>
      </trkpt>
      <trkpt lat="44.100190" lon="9.866830">
        <ele>32</ele>
        <time>2019-09-05T12:36:20Z</time>
      </trkpt>
      <trkpt lat="44.099880" lon="9.867940">
        <ele>33</ele>
        <time>2019-09-05T12:36:35Z</time>
      </trkpt>
      <trkpt lat="44.099840" lon="9.867960">
        <ele>34</ele>
        <time>2019-09-05T12:36:36Z</time>
      </trkpt>
      <trkpt lat="44.099820" lon="9.867940">
        <ele>34</ele>
        <time>2019-09-05T12:36:36Z</time>
      </trkpt>
      <trkpt lat="44.099810" lon="9.867860">
        <ele>36</ele>
        <time>2019-09-05T12:36:37Z</time>
      </trkpt>
      <trkpt lat="44.100050" lon="9.866550">
        <ele>37</ele>
        <time>2019-09-05T12:36:54Z</time>
      </trkpt>
      <trkpt lat="44.100030" lon="9.866480">
        <ele>38</ele>
        <time>2019-09-05T12:36:55Z</time>
      </trkpt>
      <trkpt lat="44.099970" lon="9.866500">
        <ele>38</ele>
        <time>2019-09-05T12:36:57Z</time>
      </trkpt>
      <trkpt lat="44.099950" lon="9.866540">
        <ele>37</ele>
        <time>2019-09-05T12:36:57Z</time>
      </trkpt>
      <trkpt lat="44.099820" lon="9.867090">
        <ele>41</ele>
        <time>2019-09-05T12:37:05Z</time>
      </trkpt>
      <trkpt lat="44.099490" lon="9.868020">
        <ele>41</ele>
        <time>2019-09-05T12:37:18Z</time>
      </trkpt>
      <trkpt lat="44.099300" lon="9.868380">
        <ele>41</ele>
        <time>2019-09-05T12:37:24Z</time>
      </trkpt>
      <trkpt lat="44.098850" lon="9.869020">
        <ele>55</ele>
        <time>2019-09-05T12:37:35Z</time>
      </trkpt>
      <trkpt lat="44.098240" lon="9.870210">
        <ele>59</ele>
        <time>2019-09-05T12:37:54Z</time>
      </trkpt>
      <trkpt lat="44.098250" lon="9.870540">
        <ele>68</ele>
        <time>2019-09-05T12:37:58Z</time>
      </trkpt>
      <trkpt lat="44.098560" lon="9.871600">
        <ele>69</ele>
        <time>2019-09-05T12:38:12Z</time>
      </trkpt>
      <trkpt lat="44.098540" lon="9.871710">
        <ele>70</ele>
        <time>2019-09-05T12:38:14Z</time>
      </trkpt>
      <trkpt lat="44.098490" lon="9.871720">
        <ele>70</ele>
        <time>2019-09-05T12:38:15Z</time>
      </trkpt>
      <trkpt lat="44.098460" lon="9.871670">
        <ele>66</ele>
        <time>2019-09-05T12:38:16Z</time>
      </trkpt>
      <trkpt lat="44.098310" lon="9.871230">
        <ele>66</ele>
        <time>2019-09-05T12:38:22Z</time>
      </trkpt>
      <trkpt lat="44.098090" lon="9.870910">
        <ele>66</ele>
        <time>2019-09-05T12:38:28Z</time>
      </trkpt>
      <trkpt lat="44.098000" lon="9.870850">
        <ele>68</ele>
        <time>2019-09-05T12:38:29Z</time>
      </trkpt>
      <trkpt lat="44.097900" lon="9.870890">
        <ele>70</ele>
        <time>2019-09-05T12:38:31Z</time>
      </trkpt>
      <trkpt lat="44.097930" lon="9.871000">
        <ele>70</ele>
        <time>2019-09-05T12:38:33Z</time>
      </trkpt>
      <trkpt lat="44.098120" lon="9.871250">
        <ele>71</ele>
        <time>2019-09-05T12:38:37Z</time>
      </trkpt>
      <trkpt lat="44.098240" lon="9.871480">
        <ele>75</ele>
        <time>2019-09-05T12:38:41Z</time>
      </trkpt>
      <trkpt lat="44.098470" lon="9.872230">
        <ele>76</ele>
        <time>2019-09-05T12:38:51Z</time>
      </trkpt>
      <trkpt lat="44.098440" lon="9.872260">
        <ele>76</ele>
        <time>2019-09-05T12:38:52Z</time>
      </trkpt>
      <trkpt lat="44.098380" lon="9.872230">
        <ele>74</ele>
        <time>2019-09-05T12:38:53Z</time>
      </trkpt>
      <trkpt lat="44.098090" lon="9.871490">
        <ele>75</ele>
        <time>2019-09-05T12:39:04Z</time>
      </trkpt>
      <trkpt lat="44.097950" lon="9.871340">
        <ele>77</ele>
        <time>2019-09-05T12:39:07Z</time>
      </trkpt>
      <trkpt lat="44.097810" lon="9.871260">
        <ele>78</ele>
        <time>2019-09-05T12:39:10Z</time>
      </trkpt>
      <trkpt lat="44.097730" lon="9.871250">
        <ele>85</ele>
        <time>2019-09-05T12:39:11Z</time>
      </trkpt>
      <trkpt lat="44.097180" lon="9.871320">
        <ele>85</ele>
        <time>2019-09-05T12:39:21Z</time>
      </trkpt>
      <trkpt lat="44.097130" lon="9.871340">
        <ele>86</ele>
        <time>2019-09-05T12:39:22Z</time>
      </trkpt>
      <trkpt lat="44.097090" lon="9.871400">
        <ele>87</ele>
        <time>2019-09-05T12:39:23Z</time>
      </trkpt>
      <trkpt lat="44.097090" lon="9.871480">
        <ele>88</ele>
        <time>2019-09-05T12:39:24Z</time>
      </trkpt>
      <trkpt lat="44.097150" lon="9.871520">
        <ele>84</ele>
        <time>2019-09-05T12:39:25Z</time>
      </trkpt>
      <trkpt lat="44.097680" lon="9.871510">
        <ele>83</ele>
        <time>2019-09-05T12:39:35Z</time>
      </trkpt>
      <trkpt lat="44.097780" lon="9.871550">
        <ele>82</ele>
        <time>2019-09-05T12:39:36Z</time>
      </trkpt>
      <trkpt lat="44.097870" lon="9.871630">
        <ele>81</ele>
        <time>2019-09-05T12:39:38Z</time>
      </trkpt>
      <trkpt lat="44.097960" lon="9.871760">
        <ele>82</ele>
        <time>2019-09-05T12:39:41Z</time>
      </trkpt>
      <trkpt lat="44.098100" lon="9.872150">
        <ele>84</ele>
        <time>2019-09-05T12:39:46Z</time>
      </trkpt>
      <trkpt lat="44.098160" lon="9.872680">
        <ele>85</ele>
        <time>2019-09-05T12:39:53Z</time>
      </trkpt>
      <trkpt lat="44.098130" lon="9.872830">
        <ele>89</ele>
        <time>2019-09-05T12:39:55Z</time>
      </trkpt>
      <trkpt lat="44.097970" lon="9.873260">
        <ele>92</ele>
        <time>2019-09-05T12:40:01Z</time>
      </trkpt>
      <trkpt lat="44.097850" lon="9.873480">
        <ele>95</ele>
        <time>2019-09-05T12:40:05Z</time>
      </trkpt>
      <trkpt lat="44.097640" lon="9.873770">
        <ele>95</ele>
        <time>2019-09-05T12:40:10Z</time>
      </trkpt>
      <trkpt lat="44.097600" lon="9.873890">
        <ele>97</ele>
        <time>2019-09-05T12:40:12Z</time>
      </trkpt>
      <trkpt lat="44.097460" lon="9.875250">
        <ele>101</ele>
        <time>2019-09-05T12:40:29Z</time>
      </trkpt>
      <trkpt lat="44.097520" lon="9.875950">
        <ele>102</ele>
        <time>2019-09-05T12:40:38Z</time>
      </trkpt>
      <trkpt lat="44.097500" lon="9.876140">
        <ele>102</ele>
        <time>2019-09-05T12:40:41Z</time>
      </trkpt>
      <trkpt lat="44.097380" lon="9.876320">
        <ele>97</ele>
        <time>2019-09-05T12:40:44Z</time>
      </trkpt>
      <trkpt lat="44.096960" lon="9.876470">
        <ele>97</ele>
        <time>2019-09-05T12:40:52Z</time>
      </trkpt>
      <trkpt lat="44.096930" lon="9.876500">
        <ele>104</ele>
        <time>2019-09-05T12:40:52Z</time>
      </trkpt>
      <trkpt lat="44.096720" lon="9.877070">
        <ele>114</ele>
        <time>2019-09-05T12:41:01Z</time>
      </trkpt>
      <trkpt lat="44.096610" lon="9.877570">
        <ele>119</ele>
        <time>2019-09-05T12:41:07Z</time>
      </trkpt>
      <trkpt lat="44.096630" lon="9.877870">
        <ele>126</ele>
        <time>2019-09-05T12:41:11Z</time>
      </trkpt>
      <trkpt lat="44.096710" lon="9.878290">
        <ele>127</ele>
        <time>2019-09-05T12:41:17Z</time>
      </trkpt>
      <trkpt lat="44.096820" lon="9.878410">
        <ele>128</ele>
        <time>2019-09-05T12:41:19Z</time>
      </trkpt>
      <trkpt lat="44.097460" lon="9.878790">
        <ele>122</ele>
        <time>2019-09-05T12:41:31Z</time>
      </trkpt>
      <trkpt lat="44.097860" lon="9.878890">
        <ele>120</ele>
        <time>2019-09-05T12:41:39Z</time>
      </trkpt>
      <trkpt lat="44.097970" lon="9.878940">
        <ele>121</ele>
        <time>2019-09-05T12:41:41Z</time>
      </trkpt>
      <trkpt lat="44.098010" lon="9.879020">
        <ele>125</ele>
        <time>2019-09-05T12:41:42Z</time>
      </trkpt>
      <trkpt lat="44.098000" lon="9.879140">
        <ele>128</ele>
        <time>2019-09-05T12:41:44Z</time>
      </trkpt>
      <trkpt lat="44.097760" lon="9.879550">
        <ele>124</ele>
        <time>2019-09-05T12:41:50Z</time>
      </trkpt>
      <trkpt lat="44.097720" lon="9.880100">
        <ele>123</ele>
        <time>2019-09-05T12:41:57Z</time>
      </trkpt>
      <trkpt lat="44.097670" lon="9.880190">
        <ele>126</ele>
        <time>2019-09-05T12:41:59Z</time>
      </trkpt>
      <trkpt lat="44.097500" lon="9.880270">
        <ele>133</ele>
        <time>2019-09-05T12:42:02Z</time>
      </trkpt>
      <trkpt lat="44.096820" lon="9.880480">
        <ele>135</ele>
        <time>2019-09-05T12:42:14Z</time>
      </trkpt>
      <trkpt lat="44.096550" lon="9.880650">
        <ele>137</ele>
        <time>2019-09-05T12:42:20Z</time>
      </trkpt>
      <trkpt lat="44.096400" lon="9.880830">
        <ele>136</ele>
        <time>2019-09-05T12:42:23Z</time>
      </trkpt>
      <trkpt lat="44.096310" lon="9.881050">
        <ele>133</ele>
        <time>2019-09-05T12:42:26Z</time>
      </trkpt>
      <trkpt lat="44.096240" lon="9.881380">
        <ele>126</ele>
        <time>2019-09-05T12:42:31Z</time>
      </trkpt>
      <trkpt lat="44.096240" lon="9.881880">
        <ele>116</ele>
        <time>2019-09-05T12:42:37Z</time>
      </trkpt>
      <trkpt lat="44.096290" lon="9.882560">
        <ele>115</ele>
        <time>2019-09-05T12:42:46Z</time>
      </trkpt>
      <trkpt lat="44.096270" lon="9.882650">
        <ele>116</ele>
        <time>2019-09-05T12:42:47Z</time>
      </trkpt>
      <trkpt lat="44.095960" lon="9.883270">
        <ele>116</ele>
        <time>2019-09-05T12:42:57Z</time>
      </trkpt>
      <trkpt lat="44.095920" lon="9.883420">
        <ele>119</ele>
        <time>2019-09-05T12:42:59Z</time>
      </trkpt>
      <trkpt lat="44.095830" lon="9.883390">
        <ele>119</ele>
        <time>2019-09-05T12:43:00Z</time>
      </trkpt>
      <trkpt lat="44.095090" lon="9.883550">
        <ele>119</ele>
        <time>2019-09-05T12:43:14Z</time>
      </trkpt>
      <trkpt lat="44.094850" lon="9.883660">
        <ele>114</ele>
        <time>2019-09-05T12:43:18Z</time>
      </trkpt>
      <trkpt lat="44.094570" lon="9.884100">
        <ele>112</ele>
        <time>2019-09-05T12:43:26Z</time>
      </trkpt>
      <trkpt lat="44.094270" lon="9.884460">
        <ele>111</ele>
        <time>2019-09-05T12:43:33Z</time>
      </trkpt>
      <trkpt lat="44.094150" lon="9.884660">
        <ele>110</ele>
        <time>2019-09-05T12:43:36Z</time>
      </trkpt>
      <trkpt lat="44.094080" lon="9.884930">
        <ele>109</ele>
        <time>2019-09-05T12:43:40Z</time>
      </trkpt>
      <trkpt lat="44.094080" lon="9.885110">
        <ele>109</ele>
        <time>2019-09-05T12:43:42Z</time>
      </trkpt>
      <trkpt lat="44.094120" lon="9.885320">
        <ele>110</ele>
        <time>2019-09-05T12:43:45Z</time>
      </trkpt>
      <trkpt lat="44.094280" lon="9.885630">
        <ele>111</ele>
        <time>2019-09-05T12:43:50Z</time>
      </trkpt>
      <trkpt lat="44.094540" lon="9.886030">
        <ele>110</ele>
        <time>2019-09-05T12:43:57Z</time>
      </trkpt>
      <trkpt lat="44.094770" lon="9.886770">
        <ele>112</ele>
        <time>2019-09-05T12:44:07Z</time>
      </trkpt>
      <trkpt lat="44.094810" lon="9.887450">
        <ele>115</ele>
        <time>2019-09-05T12:44:16Z</time>
      </trkpt>
      <trkpt lat="44.094790" lon="9.887880">
        <ele>114</ele>
        <time>2019-09-05T12:44:21Z</time>
      </trkpt>
      <trkpt lat="44.094300" lon="9.888350">
        <ele>114</ele>
        <time>2019-09-05T12:44:32Z</time>
      </trkpt>
      <trkpt lat="44.094230" lon="9.888380">
        <ele>113</ele>
        <time>2019-09-05T12:44:33Z</time>
      </trkpt>
      <trkpt lat="44.094150" lon="9.888370">
        <ele>109</ele>
        <time>2019-09-05T12:44:35Z</time>
      </trkpt>
      <trkpt lat="44.093830" lon="9.888150">
        <ele>107</ele>
        <time>2019-09-05T12:44:41Z</time>
      </trkpt>
      <trkpt lat="44.093630" lon="9.888050">
        <ele>103</ele>
        <time>2019-09-05T12:44:45Z</time>
      </trkpt>
      <trkpt lat="44.093140" lon="9.887870">
        <ele>99</ele>
        <time>2019-09-05T12:44:54Z</time>
      </trkpt>
      <trkpt lat="44.092850" lon="9.887840">
        <ele>99</ele>
        <time>2019-09-05T12:44:59Z</time>
      </trkpt>
      <trkpt lat="44.092770" lon="9.887870">
        <ele>95</ele>
        <time>2019-09-05T12:45:00Z</time>
      </trkpt>
      <trkpt lat="44.092210" lon="9.888330">
        <ele>93</ele>
        <time>2019-09-05T12:45:12Z</time>
      </trkpt>
      <trkpt lat="44.092160" lon="9.888450">
        <ele>93</ele>
        <time>2019-09-05T12:45:14Z</time>
      </trkpt>
      <trkpt lat="44.092180" lon="9.888580">
        <ele>106</ele>
        <time>2019-09-05T12:45:15Z</time>
      </trkpt>
      <trkpt lat="44.092690" lon="9.888690">
        <ele>107</ele>
        <time>2019-09-05T12:45:25Z</time>
      </trkpt>
      <trkpt lat="44.092740" lon="9.888750">
        <ele>108</ele>
        <time>2019-09-05T12:45:26Z</time>
      </trkpt>
      <trkpt lat="44.092760" lon="9.888870">
        <ele>108</ele>
        <time>2019-09-05T12:45:27Z</time>
      </trkpt>
      <trkpt lat="44.092740" lon="9.888960">
        <ele>93</ele>
        <time>2019-09-05T12:45:29Z</time>
      </trkpt>
      <trkpt lat="44.092330" lon="9.889650">
        <ele>92</ele>
        <time>2019-09-05T12:45:40Z</time>
      </trkpt>
      <trkpt lat="44.092300" lon="9.889750">
        <ele>91</ele>
        <time>2019-09-05T12:45:41Z</time>
      </trkpt>
      <trkpt lat="44.092310" lon="9.889960">
        <ele>91</ele>
        <time>2019-09-05T12:45:44Z</time>
      </trkpt>
      <trkpt lat="44.092360" lon="9.890040">
        <ele>92</ele>
        <time>2019-09-05T12:45:45Z</time>
      </trkpt>
      <trkpt lat="44.092420" lon="9.890070">
        <ele>94</ele>
        <time>2019-09-05T12:45:47Z</time>
      </trkpt>
      <trkpt lat="44.092490" lon="9.890070">
        <ele>103</ele>
        <time>2019-09-05T12:45:48Z</time>
      </trkpt>
      <trkpt lat="44.092820" lon="9.889910">
        <ele>108</ele>
        <time>2019-09-05T12:45:54Z</time>
      </trkpt>
      <trkpt lat="44.093000" lon="9.889870">
        <ele>109</ele>
        <time>2019-09-05T12:45:57Z</time>
      </trkpt>
      <trkpt lat="44.093140" lon="9.889970">
        <ele>100</ele>
        <time>2019-09-05T12:46:00Z</time>
      </trkpt>
      <trkpt lat="44.093320" lon="9.890640">
        <ele>99</ele>
        <time>2019-09-05T12:46:09Z</time>
      </trkpt>
      <trkpt lat="44.093390" lon="9.890860">
        <ele>102</ele>
        <time>2019-09-05T12:46:12Z</time>
      </trkpt>
      <trkpt lat="44.093470" lon="9.891020">
        <ele>106</ele>
        <time>2019-09-05T12:46:15Z</time>
      </trkpt>
      <trkpt lat="44.093580" lon="9.891170">
        <ele>114</ele>
        <time>2019-09-05T12:46:18Z</time>
      </trkpt>
      <trkpt lat="44.093890" lon="9.891470">
        <ele>115</ele>
        <time>2019-09-05T12:46:24Z</time>
      </trkpt>
      <trkpt lat="44.093980" lon="9.891590">
        <ele>116</ele>
        <time>2019-09-05T12:46:26Z</time>
      </trkpt>
      <trkpt lat="44.094020" lon="9.891720">
        <ele>118</ele>
        <time>2019-09-05T12:46:28Z</time>
      </trkpt>
      <trkpt lat="44.093970" lon="9.891870">
        <ele>118</ele>
        <time>2019-09-05T12:46:30Z</time>
      </trkpt>
      <trkpt lat="44.093850" lon="9.891980">
        <ele>116</ele>
        <time>2019-09-05T12:46:33Z</time>
      </trkpt>
      <trkpt lat="44.093650" lon="9.892020">
        <ele>91</ele>
        <time>2019-09-05T12:46:37Z</time>
      </trkpt>
      <trkpt lat="44.092710" lon="9.891830">
        <ele>89</ele>
        <time>2019-09-05T12:46:53Z</time>
      </trkpt>
      <trkpt lat="44.092570" lon="9.891840">
        <ele>89</ele>
        <time>2019-09-05T12:46:56Z</time>
      </trkpt>
      <trkpt lat="44.092490" lon="9.891890">
        <ele>89</ele>
        <time>2019-09-05T12:46:57Z</time>
      </trkpt>
      <trkpt lat="44.092430" lon="9.891950">
        <ele>92</ele>
        <time>2019-09-05T12:46:59Z</time>
      </trkpt>
      <trkpt lat="44.092330" lon="9.892130">
        <ele>98</ele>
        <time>2019-09-05T12:47:02Z</time>
      </trkpt>
      <trkpt lat="44.092150" lon="9.892620">
        <ele>95</ele>
        <time>2019-09-05T12:47:09Z</time>
      </trkpt>
      <trkpt lat="44.091920" lon="9.892910">
        <ele>92</ele>
        <time>2019-09-05T12:47:14Z</time>
      </trkpt>
      <trkpt lat="44.091800" lon="9.892930">
        <ele>87</ele>
        <time>2019-09-05T12:47:16Z</time>
      </trkpt>
      <trkpt lat="44.091420" lon="9.892740">
        <ele>84</ele>
        <time>2019-09-05T12:47:24Z</time>
      </trkpt>
      <trkpt lat="44.091180" lon="9.893670">
        <ele>83</ele>
        <time>2019-09-05T12:47:36Z</time>
      </trkpt>
      <trkpt lat="44.091160" lon="9.893820">
        <ele>82</ele>
        <time>2019-09-05T12:47:38Z</time>
      </trkpt>
      <trkpt lat="44.091180" lon="9.893910">
        <ele>82</ele>
        <time>2019-09-05T12:47:39Z</time>
      </trkpt>
      <trkpt lat="44.091240" lon="9.894090">
        <ele>83</ele>
        <time>2019-09-05T12:47:42Z</time>
      </trkpt>
      <trkpt lat="44.091330" lon="9.894170">
        <ele>91</ele>
        <time>2019-09-05T12:47:44Z</time>
      </trkpt>
      <trkpt lat="44.092070" lon="9.894420">
        <ele>97</ele>
        <time>2019-09-05T12:47:57Z</time>
      </trkpt>
      <trkpt lat="44.092590" lon="9.894540">
        <ele>98</ele>
        <time>2019-09-05T12:48:07Z</time>
      </trkpt>
      <trkpt lat="44.092930" lon="9.894750">
        <ele>97</ele>
        <time>2019-09-05T12:48:13Z</time>
      </trkpt>
      <trkpt lat="44.093050" lon="9.894880">
        <ele>95</ele>
        <time>2019-09-05T12:48:16Z</time>
      </trkpt>
      <trkpt lat="44.093110" lon="9.895000">
        <ele>97</ele>
        <time>2019-09-05T12:48:18Z</time>
      </trkpt>
      <trkpt lat="44.093100" lon="9.895140">
        <ele>96</ele>
        <time>2019-09-05T12:48:20Z</time>
      </trkpt>
      <trkpt lat="44.092950" lon="9.895260">
        <ele>94</ele>
        <time>2019-09-05T12:48:23Z</time>
      </trkpt>
      <trkpt lat="44.092820" lon="9.895300">
        <ele>88</ele>
        <time>2019-09-05T12:48:25Z</time>
      </trkpt>
      <trkpt lat="44.092550" lon="9.895260">
        <ele>85</ele>
        <time>2019-09-05T12:48:30Z</time>
      </trkpt>
      <trkpt lat="44.092330" lon="9.895320">
        <ele>83</ele>
        <time>2019-09-05T12:48:34Z</time>
      </trkpt>
      <trkpt lat="44.092130" lon="9.895450">
        <ele>82</ele>
        <time>2019-09-05T12:48:38Z</time>
      </trkpt>
      <trkpt lat="44.092060" lon="9.895590">
        <ele>83</ele>
        <time>2019-09-05T12:48:40Z</time>
      </trkpt>
      <trkpt lat="44.092050" lon="9.895690">
        <ele>94</ele>
        <time>2019-09-05T12:48:41Z</time>
      </trkpt>
      <trkpt lat="44.092150" lon="9.896180">
        <ele>98</ele>
        <time>2019-09-05T12:48:48Z</time>
      </trkpt>
      <trkpt lat="44.092130" lon="9.896400">
        <ele>99</ele>
        <time>2019-09-05T12:48:51Z</time>
      </trkpt>
      <trkpt lat="44.092080" lon="9.896500">
        <ele>98</ele>
        <time>2019-09-05T12:48:52Z</time>
      </trkpt>
      <trkpt lat="44.091990" lon="9.896580">
        <ele>89</ele>
        <time>2019-09-05T12:48:54Z</time>
      </trkpt>
      <trkpt lat="44.091580" lon="9.896640">
        <ele>92</ele>
        <time>2019-09-05T12:49:02Z</time>
      </trkpt>
      <trkpt lat="44.091190" lon="9.897180">
        <ele>89</ele>
        <time>2019-09-05T12:49:11Z</time>
      </trkpt>
      <trkpt lat="44.090850" lon="9.897380">
        <ele>85</ele>
        <time>2019-09-05T12:49:18Z</time>
      </trkpt>
      <trkpt lat="44.090590" lon="9.897660">
        <ele>85</ele>
        <time>2019-09-05T12:49:24Z</time>
      </trkpt>
      <trkpt lat="44.090560" lon="9.897740">
        <ele>85</ele>
        <time>2019-09-05T12:49:25Z</time>
      </trkpt>
      <trkpt lat="44.090560" lon="9.897840">
        <ele>86</ele>
        <time>2019-09-05T12:49:26Z</time>
      </trkpt>
      <trkpt lat="44.090600" lon="9.897940">
        <ele>93</ele>
        <time>2019-09-05T12:49:28Z</time>
      </trkpt>
      <trkpt lat="44.090830" lon="9.898190">
        <ele>96</ele>
        <time>2019-09-05T12:49:33Z</time>
      </trkpt>
      <trkpt lat="44.090890" lon="9.898330">
        <ele>96</ele>
        <time>2019-09-05T12:49:35Z</time>
      </trkpt>
      <trkpt lat="44.090910" lon="9.898530">
        <ele>92</ele>
        <time>2019-09-05T12:49:37Z</time>
      </trkpt>
      <trkpt lat="44.090820" lon="9.898830">
        <ele>80</ele>
        <time>2019-09-05T12:49:42Z</time>
      </trkpt>
      <trkpt lat="44.090490" lon="9.899200">
        <ele>78</ele>
        <time>2019-09-05T12:49:49Z</time>
      </trkpt>
      <trkpt lat="44.090460" lon="9.899260">
        <ele>77</ele>
        <time>2019-09-05T12:49:50Z</time>
      </trkpt>
      <trkpt lat="44.090470" lon="9.899380">
        <ele>79</ele>
        <time>2019-09-05T12:49:52Z</time>
      </trkpt>
      <trkpt lat="44.090630" lon="9.899590">
        <ele>83</ele>
        <time>2019-09-05T12:49:56Z</time>
      </trkpt>
      <trkpt lat="44.090890" lon="9.899820">
        <ele>83</ele>
        <time>2019-09-05T12:50:01Z</time>
      </trkpt>
      <trkpt lat="44.091020" lon="9.899920">
        <ele>84</ele>
        <time>2019-09-05T12:50:04Z</time>
      </trkpt>
      <trkpt lat="44.091190" lon="9.900000">
        <ele>85</ele>
        <time>2019-09-05T12:50:07Z</time>
      </trkpt>
      <trkpt lat="44.091270" lon="9.900000">
        <ele>97</ele>
        <time>2019-09-05T12:50:08Z</time>
      </trkpt>
      <trkpt lat="44.091700" lon="9.899750">
        <ele>99</ele>
        <time>2019-09-05T12:50:17Z</time>
      </trkpt>
      <trkpt lat="44.091790" lon="9.899730">
        <ele>100</ele>
        <time>2019-09-05T12:50:18Z</time>
      </trkpt>
      <trkpt lat="44.091870" lon="9.899760">
        <ele>99</ele>
        <time>2019-09-05T12:50:20Z</time>
      </trkpt>
      <trkpt lat="44.091920" lon="9.899860">
        <ele>97</ele>
        <time>2019-09-05T12:50:21Z</time>
      </trkpt>
      <trkpt lat="44.091900" lon="9.899950">
        <ele>80</ele>
        <time>2019-09-05T12:50:22Z</time>
      </trkpt>
      <trkpt lat="44.091650" lon="9.900560">
        <ele>79</ele>
        <time>2019-09-05T12:50:31Z</time>
      </trkpt>
      <trkpt lat="44.091660" lon="9.900650">
        <ele>79</ele>
        <time>2019-09-05T12:50:33Z</time>
      </trkpt>
      <trkpt lat="44.091690" lon="9.900700">
        <ele>86</ele>
        <time>2019-09-05T12:50:33Z</time>
      </trkpt>
      <trkpt lat="44.091910" lon="9.900930">
        <ele>89</ele>
        <time>2019-09-05T12:50:38Z</time>
      </trkpt>
      <trkpt lat="44.091920" lon="9.901100">
        <ele>91</ele>
        <time>2019-09-05T12:50:40Z</time>
      </trkpt>
      <trkpt lat="44.091890" lon="9.901200">
        <ele>90</ele>
        <time>2019-09-05T12:50:42Z</time>
      </trkpt>
      <trkpt lat="44.091740" lon="9.901350">
        <ele>85</ele>
        <time>2019-09-05T12:50:45Z</time>
      </trkpt>
      <trkpt lat="44.091150" lon="9.901470">
        <ele>79</ele>
        <time>2019-09-05T12:50:56Z</time>
      </trkpt>
      <trkpt lat="44.090680" lon="9.901510">
        <ele>78</ele>
        <time>2019-09-05T12:51:04Z</time>
      </trkpt>
      <trkpt lat="44.090590" lon="9.901550">
        <ele>78</ele>
        <time>2019-09-05T12:51:06Z</time>
      </trkpt>
      <trkpt lat="44.090510" lon="9.901620">
        <ele>80</ele>
        <time>2019-09-05T12:51:08Z</time>
      </trkpt>
      <trkpt lat="44.090380" lon="9.901890">
        <ele>83</ele>
        <time>2019-09-05T12:51:12Z</time>
      </trkpt>
      <trkpt lat="44.090310" lon="9.902250">
        <ele>87</ele>
        <time>2019-09-05T12:51:16Z</time>
      </trkpt>
      <trkpt lat="44.090320" lon="9.902460">
        <ele>95</ele>
        <time>2019-09-05T12:51:19Z</time>
      </trkpt>
      <trkpt lat="44.090470" lon="9.902810">
        <ele>96</ele>
        <time>2019-09-05T12:51:24Z</time>
      </trkpt>
      <trkpt lat="44.090480" lon="9.902920">
        <ele>96</ele>
        <time>2019-09-05T12:51:26Z</time>
      </trkpt>
      <trkpt lat="44.090440" lon="9.903010">
        <ele>94</ele>
        <time>2019-09-05T12:51:27Z</time>
      </trkpt>
      <trkpt lat="44.090350" lon="9.903070">
        <ele>90</ele>
        <time>2019-09-05T12:51:29Z</time>
      </trkpt>
      <trkpt lat="44.090200" lon="9.903110">
        <ele>87</ele>
        <time>2019-09-05T12:51:32Z</time>
      </trkpt>
      <trkpt lat="44.089990" lon="9.903260">
        <ele>91</ele>
        <time>2019-09-05T12:51:36Z</time>
      </trkpt>
      <trkpt lat="44.089550" lon="9.904000">
        <ele>91</ele>
        <time>2019-09-05T12:51:48Z</time>
      </trkpt>
      <trkpt lat="44.089240" lon="9.904430">
        <ele>94</ele>
        <time>2019-09-05T12:51:56Z</time>
      </trkpt>
      <trkpt lat="44.089180" lon="9.904680">
        <ele>97</ele>
        <time>2019-09-05T12:51:59Z</time>
      </trkpt>
      <trkpt lat="44.089060" lon="9.904860">
        <ele>96</ele>
        <time>2019-09-05T12:52:02Z</time>
      </trkpt>
      <trkpt lat="44.089000" lon="9.904880">
        <ele>92</ele>
        <time>2019-09-05T12:52:03Z</time>
      </trkpt>
      <trkpt lat="44.088690" lon="9.904840">
        <ele>90</ele>
        <time>2019-09-05T12:52:09Z</time>
      </trkpt>
      <trkpt lat="44.088510" lon="9.904890">
        <ele>90</ele>
        <time>2019-09-05T12:52:12Z</time>
      </trkpt>
      <trkpt lat="44.088440" lon="9.904920">
        <ele>88</ele>
        <time>2019-09-05T12:52:14Z</time>
      </trkpt>
      <trkpt lat="44.088240" lon="9.905090">
        <ele>88</ele>
        <time>2019-09-05T12:52:18Z</time>
      </trkpt>
      <trkpt lat="44.088090" lon="9.905440">
        <ele>90</ele>
        <time>2019-09-05T12:52:23Z</time>
      </trkpt>
      <trkpt lat="44.088030" lon="9.905760">
        <ele>90</ele>
        <time>2019-09-05T12:52:27Z</time>
      </trkpt>
      <trkpt lat="44.088020" lon="9.905990">
        <ele>93</ele>
        <time>2019-09-05T12:52:30Z</time>
      </trkpt>
      <trkpt lat="44.088070" lon="9.906480">
        <ele>94</ele>
        <time>2019-09-05T12:52:36Z</time>
      </trkpt>
      <trkpt lat="44.088010" lon="9.906840">
        <ele>90</ele>
        <time>2019-09-05T12:52:41Z</time>
      </trkpt>
      <trkpt lat="44.087670" lon="9.907400">
        <ele>93</ele>
        <time>2019-09-05T12:52:51Z</time>
      </trkpt>
      <trkpt lat="44.087410" lon="9.908060">
        <ele>93</ele>
        <time>2019-09-05T12:53:00Z</time>
      </trkpt>
      <trkpt lat="44.087300" lon="9.908150">
        <ele>91</ele>
        <time>2019-09-05T12:53:02Z</time>
      </trkpt>
      <trkpt lat="44.087040" lon="9.908250">
        <ele>91</ele>
        <time>2019-09-05T12:53:07Z</time>
      </trkpt>
      <trkpt lat="44.086880" lon="9.908410">
        <ele>95</ele>
        <time>2019-09-05T12:53:11Z</time>
      </trkpt>
      <trkpt lat="44.086520" lon="9.909250">
        <ele>95</ele>
        <time>2019-09-05T12:53:23Z</time>
      </trkpt>
      <trkpt lat="44.086360" lon="9.909740">
        <ele>97</ele>
        <time>2019-09-05T12:53:30Z</time>
      </trkpt>
      <trkpt lat="44.086320" lon="9.909990">
        <ele>98</ele>
        <time>2019-09-05T12:53:33Z</time>
      </trkpt>
      <trkpt lat="44.086350" lon="9.910230">
        <ele>99</ele>
        <time>2019-09-05T12:53:36Z</time>
      </trkpt>
      <trkpt lat="44.086350" lon="9.910510">
        <ele>98</ele>
        <time>2019-09-05T12:53:40Z</time>
      </trkpt>
      <trkpt lat="44.086260" lon="9.910740">
        <ele>98</ele>
        <time>2019-09-05T12:53:43Z</time>
      </trkpt>
      <trkpt lat="44.086240" lon="9.910860">
        <ele>98</ele>
        <time>2019-09-05T12:53:45Z</time>
      </trkpt>
      <trkpt lat="44.086290" lon="9.911290">
        <ele>96</ele>
        <time>2019-09-05T12:53:51Z</time>
      </trkpt>
      <trkpt lat="44.086510" lon="9.911760">
        <ele>94</ele>
        <time>2019-09-05T12:53:58Z</time>
      </trkpt>
      <trkpt lat="44.086530" lon="9.911990">
        <ele>88</ele>
        <time>2019-09-05T12:54:01Z</time>
      </trkpt>
      <trkpt lat="44.086660" lon="9.912510">
        <ele>84</ele>
        <time>2019-09-05T12:54:08Z</time>
      </trkpt>
      <trkpt lat="44.086700" lon="9.912820">
        <ele>78</ele>
        <time>2019-09-05T12:54:12Z</time>
      </trkpt>
      <trkpt lat="44.086800" lon="9.913280">
        <ele>73</ele>
        <time>2019-09-05T12:54:18Z</time>
      </trkpt>
      <trkpt lat="44.087060" lon="9.913820">
        <ele>71</ele>
        <time>2019-09-05T12:54:26Z</time>
      </trkpt>
      <trkpt lat="44.087220" lon="9.914060">
        <ele>70</ele>
        <time>2019-09-05T12:54:30Z</time>
      </trkpt>
      <trkpt lat="44.087200" lon="9.914120">
        <ele>70</ele>
        <time>2019-09-05T12:54:31Z</time>
      </trkpt>
      <trkpt lat="44.087120" lon="9.914140">
        <ele>69</ele>
        <time>2019-09-05T12:54:33Z</time>
      </trkpt>
      <trkpt lat="44.086970" lon="9.914230">
        <ele>67</ele>
        <time>2019-09-05T12:54:36Z</time>
      </trkpt>
      <trkpt lat="44.087360" lon="9.914570">
        <ele>64</ele>
        <time>2019-09-05T12:54:44Z</time>
      </trkpt>
      <trkpt lat="44.087860" lon="9.915120">
        <ele>65</ele>
        <time>2019-09-05T12:54:55Z</time>
      </trkpt>
      <trkpt lat="44.088810" lon="9.916300">
        <ele>61</ele>
        <time>2019-09-05T12:55:18Z</time>
      </trkpt>
      <trkpt lat="44.089330" lon="9.916920">
        <ele>62</ele>
        <time>2019-09-05T12:55:30Z</time>
      </trkpt>
      <trkpt lat="44.089470" lon="9.917050">
        <ele>62</ele>
        <time>2019-09-05T12:55:33Z</time>
      </trkpt>
      <trkpt lat="44.089530" lon="9.917090">
        <ele>63</ele>
        <time>2019-09-05T12:55:34Z</time>
      </trkpt>
      <trkpt lat="44.089720" lon="9.917120">
        <ele>62</ele>
        <time>2019-09-05T12:55:38Z</time>
      </trkpt>
      <trkpt lat="44.089950" lon="9.917220">
        <ele>61</ele>
        <time>2019-09-05T12:55:42Z</time>
      </trkpt>
      <trkpt lat="44.090090" lon="9.917330">
        <ele>60</ele>
        <time>2019-09-05T12:55:45Z</time>
      </trkpt>
      <trkpt lat="44.090510" lon="9.917750">
        <ele>61</ele>
        <time>2019-09-05T12:55:54Z</time>
      </trkpt>
      <trkpt lat="44.090700" lon="9.917800">
        <ele>62</ele>
        <time>2019-09-05T12:55:57Z</time>
      </trkpt>
      <trkpt lat="44.091100" lon="9.917800">
        <ele>61</ele>
        <time>2019-09-05T12:56:04Z</time>
      </trkpt>
      <trkpt lat="44.091260" lon="9.917880">
        <ele>54</ele>
        <time>2019-09-05T12:56:07Z</time>
      </trkpt>
      <trkpt lat="44.091790" lon="9.918610">
        <ele>55</ele>
        <time>2019-09-05T12:56:21Z</time>
      </trkpt>
      <trkpt lat="44.091920" lon="9.918740">
        <ele>54</ele>
        <time>2019-09-05T12:56:24Z</time>
      </trkpt>
      <trkpt lat="44.092060" lon="9.918790">
        <ele>49</ele>
        <time>2019-09-05T12:56:26Z</time>
      </trkpt>
      <trkpt lat="44.092450" lon="9.918800">
        <ele>48</ele>
        <time>2019-09-05T12:56:33Z</time>
      </trkpt>
      <trkpt lat="44.092590" lon="9.918850">
        <ele>47</ele>
        <time>2019-09-05T12:56:36Z</time>
      </trkpt>
      <trkpt lat="44.092670" lon="9.918930">
        <ele>44</ele>
        <time>2019-09-05T12:56:37Z</time>
      </trkpt>
      <trkpt lat="44.092760" lon="9.919230">
        <ele>45</ele>
        <time>2019-09-05T12:56:42Z</time>
      </trkpt>
      <trkpt lat="44.092860" lon="9.919410">
        <ele>44</ele>
        <time>2019-09-05T12:56:44Z</time>
      </trkpt>
      <trkpt lat="44.092980" lon="9.919450">
        <ele>42</ele>
        <time>2019-09-05T12:56:47Z</time>
      </trkpt>
      <trkpt lat="44.093170" lon="9.919460">
        <ele>42</ele>
        <time>2019-09-05T12:56:50Z</time>
      </trkpt>
      <trkpt lat="44.093410" lon="9.919560">
        <ele>41</ele>
        <time>2019-09-05T12:56:55Z</time>
      </trkpt>
      <trkpt lat="44.094110" lon="9.920040">
        <ele>42</ele>
        <time>2019-09-05T12:57:08Z</time>
      </trkpt>
      <trkpt lat="44.094250" lon="9.920290">
        <ele>38</ele>
        <time>2019-09-05T12:57:12Z</time>
      </trkpt>
      <trkpt lat="44.094550" lon="9.921010">
        <ele>29</ele>
        <time>2019-09-05T12:57:23Z</time>
      </trkpt>
      <trkpt lat="44.095260" lon="9.922130">
        <ele>28</ele>
        <time>2019-09-05T12:57:42Z</time>
      </trkpt>
      <trkpt lat="44.095390" lon="9.922300">
        <ele>22</ele>
        <time>2019-09-05T12:57:45Z</time>
      </trkpt>
      <trkpt lat="44.096360" lon="9.923290">
        <ele>22</ele>
        <time>2019-09-05T12:58:07Z</time>
      </trkpt>
      <trkpt lat="44.096600" lon="9.923610">
        <ele>20</ele>
        <time>2019-09-05T12:58:13Z</time>
      </trkpt>
      <trkpt lat="44.096830" lon="9.924040">
        <ele>22</ele>
        <time>2019-09-05T12:58:19Z</time>
      </trkpt>
      <trkpt lat="44.097130" lon="9.924840">
        <ele>22</ele>
        <time>2019-09-05T12:58:31Z</time>
      </trkpt>
      <trkpt lat="44.097300" lon="9.925200">
        <ele>19</ele>
        <time>2019-09-05T12:58:37Z</time>
      </trkpt>
      <trkpt lat="44.097580" lon="9.925660">
        <ele>19</ele>
        <time>2019-09-05T12:58:44Z</time>
      </trkpt>
      <trkpt lat="44.097890" lon="9.926240">
        <ele>18</ele>
        <time>2019-09-05T12:58:53Z</time>
      </trkpt>
      <trkpt lat="44.098110" lon="9.926570">
        <ele>17</ele>
        <time>2019-09-05T12:58:59Z</time>
      </trkpt>
      <trkpt lat="44.098280" lon="9.926930">
        <ele>17</ele>
        <time>2019-09-05T12:59:05Z</time>
      </trkpt>
      <trkpt lat="44.098380" lon="9.927290">
        <ele>17</ele>
        <time>2019-09-05T12:59:10Z</time>
      </trkpt>
      <trkpt lat="44.098390" lon="9.927600">
        <ele>16</ele>
        <time>2019-09-05T12:59:14Z</time>
      </trkpt>
      <trkpt lat="44.098380" lon="9.928240">
        <ele>13</ele>
        <time>2019-09-05T12:59:22Z</time>
      </trkpt>
      <trkpt lat="44.098300" lon="9.929210">
        <ele>11</ele>
        <time>2019-09-05T12:59:34Z</time>
      </trkpt>
      <trkpt lat="44.098320" lon="9.930130">
        <ele>11</ele>
        <time>2019-09-05T12:59:46Z</time>
      </trkpt>
      <trkpt lat="44.098400" lon="9.931150">
        <ele>10</ele>
        <time>2019-09-05T12:59:59Z</time>
      </trkpt>
      <trkpt lat="44.098570" lon="9.932200">
        <ele>9</ele>
        <time>2019-09-05T13:00:13Z</time>
      </trkpt>
      <trkpt lat="44.098860" lon="9.933300">
        <ele>8</ele>
        <time>2019-09-05T13:00:28Z</time>
      </trkpt>
      <trkpt lat="44.098820" lon="9.933390">
        <ele>8</ele>
        <time>2019-09-05T13:00:29Z</time>
      </trkpt>
      <trkpt lat="44.098750" lon="9.933440">
        <ele>8</ele>
        <time>2019-09-05T13:00:31Z</time>
      </trkpt>
      <trkpt lat="44.098680" lon="9.933610">
        <ele>7</ele>
        <time>2019-09-05T13:00:33Z</time>
      </trkpt>
      <trkpt lat="44.098210" lon="9.935270">
        <ele>7</ele>
        <time>2019-09-05T13:00:56Z</time>
      </trkpt>
      <trkpt lat="44.098140" lon="9.935440">
        <ele>7</ele>
        <time>2019-09-05T13:00:58Z</time>
      </trkpt>
      <trkpt lat="44.097870" lon="9.935880">
        <ele>7</ele>
        <time>2019-09-05T13:01:06Z</time>
      </trkpt>
      <trkpt lat="44.097460" lon="9.936720">
        <ele>7</ele>
        <time>2019-09-05T13:01:19Z</time>
      </trkpt>
      <trkpt lat="44.097150" lon="9.937470">
        <ele>5</ele>
        <time>2019-09-05T13:01:30Z</time>
      </trkpt>
      <trkpt lat="44.096320" lon="9.937920">
        <ele>5</ele>
        <time>2019-09-05T13:01:46Z</time>
      </trkpt>
      <trkpt lat="44.096170" lon="9.938050">
        <ele>6</ele>
        <time>2019-09-05T13:01:49Z</time>
      </trkpt>
      <trkpt lat="44.095850" lon="9.938460">
        <ele>6</ele>
        <time>2019-09-05T13:01:57Z</time>
      </trkpt>
      <trkpt lat="44.095310" lon="9.939280">
        <ele>7</ele>
        <time>2019-09-05T13:02:11Z</time>
      </trkpt>
      <trkpt lat="44.094510" lon="9.940280">
        <ele>10</ele>
        <time>2019-09-05T13:02:30Z</time>
      </trkpt>
      <trkpt lat="44.093580" lon="9.941290">
        <ele>9</ele>
        <time>2019-09-05T13:02:51Z</time>
      </trkpt>
      <trkpt lat="44.093360" lon="9.941730">
        <ele>14</ele>
        <time>2019-09-05T13:02:58Z</time>
      </trkpt>
      <trkpt lat="44.092670" lon="9.943950">
        <ele>13</ele>
        <time>2019-09-05T13:03:29Z</time>
      </trkpt>
      <trkpt lat="44.092550" lon="9.944270">
        <ele>18</ele>
        <time>2019-09-05T13:03:33Z</time>
      </trkpt>
      <trkpt lat="44.092260" lon="9.944900">
        <ele>21</ele>
        <time>2019-09-05T13:03:43Z</time>
      </trkpt>
      <trkpt lat="44.092000" lon="9.945390">
        <ele>16</ele>
        <time>2019-09-05T13:03:51Z</time>
      </trkpt>
      <trkpt lat="44.091690" lon="9.945870">
        <ele>17</ele>
        <time>2019-09-05T13:03:59Z</time>
      </trkpt>
      <trkpt lat="44.090550" lon="9.947130">
        <ele>12</ele>
        <time>2019-09-05T13:04:25Z</time>
      </trkpt>
      <trkpt lat="44.089940" lon="9.947990">
        <ele>19</ele>
        <time>2019-09-05T13:04:40Z</time>
      </trkpt>
      <trkpt lat="44.089770" lon="9.948270">
        <ele>22</ele>
        <time>2019-09-05T13:04:45Z</time>
      </trkpt>
      <trkpt lat="44.089650" lon="9.948530">
        <ele>22</ele>
        <time>2019-09-05T13:04:49Z</time>
      </trkpt>
      <trkpt lat="44.089340" lon="9.949430">
        <ele>21</ele>
        <time>2019-09-05T13:05:02Z</time>
      </trkpt>
      <trkpt lat="44.088870" lon="9.950660">
        <ele>22</ele>
        <time>2019-09-05T13:05:19Z</time>
      </trkpt>
      <trkpt lat="44.088680" lon="9.951050">
        <ele>19</ele>
        <time>2019-09-05T13:05:25Z</time>
      </trkpt>
      <trkpt lat="44.087550" lon="9.952570">
        <ele>19</ele>
        <time>2019-09-05T13:05:53Z</time>
      </trkpt>
      <trkpt lat="44.087110" lon="9.953280">
        <ele>20</ele>
        <time>2019-09-05T13:06:05Z</time>
      </trkpt>
      <trkpt lat="44.087020" lon="9.953360">
        <ele>18</ele>
        <time>2019-09-05T13:06:07Z</time>
      </trkpt>
      <trkpt lat="44.086670" lon="9.953860">
        <ele>15</ele>
        <time>2019-09-05T13:06:16Z</time>
      </trkpt>
      <trkpt lat="44.086310" lon="9.954320">
        <ele>11</ele>
        <time>2019-09-05T13:06:25Z</time>
      </trkpt>
      <trkpt lat="44.085850" lon="9.954860">
        <ele>17</ele>
        <time>2019-09-05T13:06:36Z</time>
      </trkpt>
      <trkpt lat="44.084950" lon="9.955460">
        <ele>10</ele>
        <time>2019-09-05T13:06:53Z</time>
      </trkpt>
      <trkpt lat="44.083920" lon="9.956190">
        <ele>9</ele>
        <time>2019-09-05T13:07:14Z</time>
      </trkpt>
      <trkpt lat="44.083510" lon="9.956450">
        <ele>15</ele>
        <time>2019-09-05T13:07:22Z</time>
      </trkpt>
      <trkpt lat="44.082520" lon="9.957150">
        <ele>17</ele>
        <time>2019-09-05T13:07:42Z</time>
      </trkpt>
      <trkpt lat="44.082330" lon="9.957400">
        <ele>16</ele>
        <time>2019-09-05T13:07:46Z</time>
      </trkpt>
      <trkpt lat="44.081690" lon="9.958470">
        <ele>15</ele>
        <time>2019-09-05T13:08:04Z</time>
      </trkpt>
      <trkpt lat="44.081400" lon="9.958820">
        <ele>10</ele>
        <time>2019-09-05T13:08:11Z</time>
      </trkpt>
      <trkpt lat="44.080740" lon="9.959510">
        <ele>6</ele>
        <time>2019-09-05T13:08:26Z</time>
      </trkpt>
      <trkpt lat="44.080390" lon="9.959930">
        <ele>5</ele>
        <time>2019-09-05T13:08:34Z</time>
      </trkpt>
      <trkpt lat="44.080050" lon="9.960400">
        <ele>5</ele>
        <time>2019-09-05T13:08:42Z</time>
      </trkpt>
      <trkpt lat="44.079700" lon="9.960960">
        <ele>4</ele>
        <time>2019-09-05T13:08:52Z</time>
      </trkpt>
      <trkpt lat="44.079310" lon="9.961500">
        <ele>4</ele>
        <time>2019-09-05T13:09:02Z</time>
      </trkpt>
      <trkpt lat="44.078620" lon="9.962350">
        <ele>5</ele>
        <time>2019-09-05T13:09:18Z</time>
      </trkpt>
      <trkpt lat="44.078100" lon="9.962710">
        <ele>6</ele>
        <time>2019-09-05T13:09:28Z</time>
      </trkpt>
      <trkpt lat="44.077500" lon="9.962960">
        <ele>5</ele>
        <time>2019-09-05T13:09:40Z</time>
      </trkpt>
      <trkpt lat="44.076590" lon="9.963190">
        <ele>5</ele>
        <time>2019-09-05T13:09:56Z</time>
      </trkpt>
      <trkpt lat="44.076600" lon="9.963380">
        <ele>4</ele>
        <time>2019-09-05T13:09:58Z</time>
      </trkpt>
      <trkpt lat="44.076530" lon="9.963980">
        <ele>4</ele>
        <time>2019-09-05T13:10:06Z</time>
      </trkpt>
      <trkpt lat="44.076570" lon="9.964310">
        <ele>4</ele>
        <time>2019-09-05T13:10:11Z</time>
      </trkpt>
      <trkpt lat="44.076380" lon="9.964600">
        <ele>3</ele>
        <time>2019-09-05T13:10:16Z</time>
      </trkpt>
      <trkpt lat="44.075710" lon="9.965010">
        <ele>2</ele>
        <time>2019-09-05T13:10:29Z</time>
      </trkpt>
      <trkpt lat="44.074940" lon="9.965560">
        <ele>3</ele>
        <time>2019-09-05T13:10:44Z</time>
      </trkpt>
      <trkpt lat="44.074580" lon="9.965780">
        <ele>3</ele>
        <time>2019-09-05T13:10:51Z</time>
      </trkpt>
      <trkpt lat="44.074370" lon="9.966020">
        <ele>4</ele>
        <time>2019-09-05T13:10:56Z</time>
      </trkpt>
      <trkpt lat="44.073320" lon="9.966990">
        <ele>4</ele>
        <time>2019-09-05T13:11:18Z</time>
      </trkpt>
      <trkpt lat="44.073220" lon="9.967060">
        <ele>4</ele>
        <time>2019-09-05T13:11:20Z</time>
      </trkpt>
      <trkpt lat="44.070700" lon="9.969450">
        <ele>4</ele>
        <time>2019-09-05T13:12:14Z</time>
      </trkpt>
      <trkpt lat="44.070300" lon="9.969780">
        <ele>4</ele>
        <time>2019-09-05T13:12:23Z</time>
      </trkpt>
      <trkpt lat="44.070200" lon="9.969820">
        <ele>4</ele>
        <time>2019-09-05T13:12:25Z</time>
      </trkpt>
      <trkpt lat="44.070120" lon="9.969940">
        <ele>2</ele>
        <time>2019-09-05T13:12:27Z</time>
      </trkpt>
      <trkpt lat="44.069260" lon="9.970140">
        <ele>2</ele>
        <time>2019-09-05T13:12:42Z</time>
      </trkpt>
      <trkpt lat="44.069210" lon="9.970260">
        <ele>2</ele>
        <time>2019-09-05T13:12:44Z</time>
      </trkpt>
      <trkpt lat="44.069100" lon="9.970420">
        <ele>2</ele>
        <time>2019-09-05T13:12:47Z</time>
      </trkpt>
      <trkpt lat="44.068220" lon="9.970780">
        <ele>2</ele>
        <time>2019-09-05T13:13:03Z</time>
      </trkpt>
      <trkpt lat="44.068110" lon="9.970860">
        <ele>2</ele>
        <time>2019-09-05T13:13:05Z</time>
      </trkpt>
      <trkpt lat="44.068080" lon="9.970950">
        <ele>2</ele>
        <time>2019-09-05T13:13:07Z</time>
      </trkpt>
      <trkpt lat="44.068110" lon="9.971240">
        <ele>2</ele>
        <time>2019-09-05T13:13:10Z</time>
      </trkpt>
      <trkpt lat="44.068160" lon="9.971440">
        <ele>2</ele>
        <time>2019-09-05T13:13:13Z</time>
      </trkpt>
      <trkpt lat="44.068280" lon="9.972300">
        <ele>2</ele>
        <time>2019-09-05T13:13:24Z</time>
      </trkpt>
      <trkpt lat="44.067370" lon="9.972150">
        <ele>2</ele>
        <time>2019-09-05T13:13:41Z</time>
      </trkpt>
      <trkpt lat="44.067310" lon="9.972210">
        <ele>2</ele>
        <time>2019-09-05T13:13:42Z</time>
      </trkpt>
      <trkpt lat="44.067170" lon="9.972810">
        <ele>3</ele>
        <time>2019-09-05T13:13:50Z</time>
      </trkpt>
      <trkpt lat="44.066820" lon="9.972380">
        <ele>2</ele>
        <time>2019-09-05T13:13:58Z</time>
      </trkpt>
      <trkpt lat="44.066220" lon="9.971810">
        <ele>2</ele>
        <time>2019-09-05T13:14:11Z</time>
      </trkpt>
      <trkpt lat="44.064870" lon="9.970820">
        <ele>2</ele>
        <time>2019-09-05T13:14:38Z</time>
      </trkpt>
      <trkpt lat="44.064750" lon="9.970800">
        <ele>2</ele>
        <time>2019-09-05T13:14:40Z</time>
      </trkpt>
      <trkpt lat="44.062950" lon="9.974330">
        <ele>2</ele>
        <time>2019-09-05T13:15:36Z</time>
      </trkpt>
      <trkpt lat="44.062310" lon="9.975490">
        <ele>3</ele>
        <time>2019-09-05T13:15:55Z</time>
      </trkpt>
      <trkpt lat="44.061420" lon="9.976740">
        <ele>3</ele>
        <time>2019-09-05T13:16:17Z</time>
      </trkpt>
      <trkpt lat="44.061140" lon="9.977030">
        <ele>2</ele>
        <time>2019-09-05T13:16:23Z</time>
      </trkpt>
      <trkpt lat="44.059560" lon="9.978360">
        <ele>2</ele>
        <time>2019-09-05T13:16:56Z</time>
      </trkpt>
      <trkpt lat="44.059050" lon="9.978960">
        <ele>2</ele>
        <time>2019-09-05T13:17:08Z</time>
      </trkpt>
      <trkpt lat="44.057610" lon="9.981480">
        <ele>1.5</ele>
        <time>2019-09-05T13:17:49Z</time>
      </trkpt>
      <trkpt lat="44.056970" lon="9.982510">
        <ele>2</ele>
        <time>2019-09-05T13:18:07Z</time>
      </trkpt>
      <trkpt lat="44.055830" lon="9.984470">
        <ele>1</ele>
        <time>2019-09-05T13:18:39Z</time>
      </trkpt>
      <trkpt lat="44.054790" lon="9.986440">
        <ele>1</ele>
        <time>2019-09-05T13:19:10Z</time>
      </trkpt>
      <trkpt lat="44.054830" lon="9.986570">
        <ele>1</ele>
        <time>2019-09-05T13:19:12Z</time>
      </trkpt>
      <trkpt lat="44.055210" lon="9.987050">
        <ele>1</ele>
        <time>2019-09-05T13:19:21Z</time>
      </trkpt>
      <trkpt lat="44.055680" lon="9.987590">
        <ele>1</ele>
        <time>2019-09-05T13:19:32Z</time>
      </trkpt>
      <trkpt lat="44.055990" lon="9.987920">
        <ele>1</ele>
        <time>2019-09-05T13:19:39Z</time>
      </trkpt>
      <trkpt lat="44.056520" lon="9.988370">
        <ele>1</ele>
        <time>2019-09-05T13:19:50Z</time>
      </trkpt>
      <trkpt lat="44.056690" lon="9.988630">
        <ele>1</ele>
        <time>2019-09-05T13:19:54Z</time>
      </trkpt>
      <trkpt lat="44.056990" lon="9.988880">
        <ele>1</ele>
        <time>2019-09-05T13:20:01Z</time>
      </trkpt>
      <trkpt lat="44.057160" lon="9.989170">
        <ele>1</ele>
        <time>2019-09-05T13:20:05Z</time>
      </trkpt>
      <trkpt lat="44.057310" lon="9.989590">
        <ele>1</ele>
        <time>2019-09-05T13:20:11Z</time>
      </trkpt>
      <trkpt lat="44.057490" lon="9.989970">
        <ele>1</ele>
        <time>2019-09-05T13:20:17Z</time>
      </trkpt>
      <trkpt lat="44.057800" lon="9.990760">
        <ele>1</ele>
        <time>2019-09-05T13:20:29Z</time>
      </trkpt>
      <trkpt lat="44.058030" lon="9.991210">
        <ele>1</ele>
        <time>2019-09-05T13:20:36Z</time>
      </trkpt>
      <trkpt lat="44.058270" lon="9.991600">
        <ele>1</ele>
        <time>2019-09-05T13:20:42Z</time>
      </trkpt>
      <trkpt lat="44.058630" lon="9.992070">
        <ele>1</ele>
        <time>2019-09-05T13:20:51Z</time>
      </trkpt>
      <trkpt lat="44.058880" lon="9.992570">
        <ele>1.4</ele>
        <time>2019-09-05T13:20:59Z</time>
      </trkpt>
      <trkpt lat="44.058910" lon="9.992580">
        <ele>1</ele>
        <time>2019-09-05T13:20:59Z</time>
      </trkpt>
      <trkpt lat="44.058620" lon="9.992780">
        <ele>1</ele>
        <time>2019-09-05T13:21:05Z</time>
      </trkpt>
      <trkpt lat="44.058080" lon="9.993360">
        <ele>1</ele>
        <time>2019-09-05T13:21:17Z</time>
      </trkpt>
      <trkpt lat="44.056200" lon="9.996120">
        <ele>1</ele>
        <time>2019-09-05T13:22:06Z</time>
      </trkpt>
      <trkpt lat="44.056170" lon="9.996230">
        <ele>1</ele>
        <time>2019-09-05T13:22:07Z</time>
      </trkpt>
      <trkpt lat="44.056180" lon="9.996330">
        <ele>1</ele>
        <time>2019-09-05T13:22:09Z</time>
      </trkpt>
      <trkpt lat="44.056220" lon="9.996410">
        <ele>1</ele>
        <time>2019-09-05T13:22:10Z</time>
      </trkpt>
      <trkpt lat="44.057330" lon="9.997890">
        <ele>1</ele>
        <time>2019-09-05T13:22:37Z</time>
      </trkpt>
      <trkpt lat="44.057580" lon="9.998440">
        <ele>1</ele>
        <time>2019-09-05T13:22:46Z</time>
      </trkpt>
      <trkpt lat="44.057650" lon="9.998660">
        <ele>1</ele>
        <time>2019-09-05T13:22:49Z</time>
      </trkpt>
      <trkpt lat="44.057690" lon="9.998910">
        <ele>1</ele>
        <time>2019-09-05T13:22:52Z</time>
      </trkpt>
      <trkpt lat="44.057620" lon="9.999040">
        <ele>1</ele>
        <time>2019-09-05T13:22:54Z</time>
      </trkpt>
      <trkpt lat="44.057640" lon="9.999180">
        <ele>1</ele>
        <time>2019-09-05T13:22:56Z</time>
      </trkpt>
      <trkpt lat="44.057470" lon="9.999260">
        <ele>1</ele>
        <time>2019-09-05T13:22:59Z</time>
      </trkpt>
      <trkpt lat="44.057400" lon="9.999330">
        <ele>2</ele>
        <time>2019-09-05T13:23:01Z</time>
      </trkpt>
      <trkpt lat="44.052600" lon="10.002480">
        <ele>1</ele>
        <time>2019-09-05T13:24:35Z</time>
      </trkpt>
      <trkpt lat="44.052110" lon="10.002830">
        <ele>1</ele>
        <time>2019-09-05T13:24:45Z</time>
      </trkpt>
      <trkpt lat="44.052070" lon="10.002780">
        <ele>1</ele>
        <time>2019-09-05T13:24:46Z</time>
      </trkpt>
      <trkpt lat="44.051930" lon="10.002870">
        <ele>1</ele>
        <time>2019-09-05T13:24:49Z</time>
      </trkpt>
      <trkpt lat="44.051730" lon="10.002830">
        <ele>1</ele>
        <time>2019-09-05T13:24:52Z</time>
      </trkpt>
      <trkpt lat="44.051700" lon="10.002770">
        <ele>1</ele>
        <time>2019-09-05T13:24:53Z</time>
      </trkpt>
      <trkpt lat="44.051610" lon="10.002720">
        <ele>1</ele>
        <time>2019-09-05T13:24:55Z</time>
      </trkpt>
      <trkpt lat="44.051530" lon="10.002740">
        <ele>2</ele>
        <time>2019-09-05T13:24:56Z</time>
      </trkpt>
      <trkpt lat="44.051460" lon="10.002810">
        <ele>3</ele>
        <time>2019-09-05T13:24:58Z</time>
      </trkpt>
      <trkpt lat="44.051430" lon="10.002940">
        <ele>3</ele>
        <time>2019-09-05T13:25:00Z</time>
      </trkpt>
      <trkpt lat="44.051490" lon="10.003110">
        <ele>4</ele>
        <time>2019-09-05T13:25:02Z</time>
      </trkpt>
      <trkpt lat="44.051400" lon="10.003450">
        <ele>3</ele>
        <time>2019-09-05T13:25:07Z</time>
      </trkpt>
      <trkpt lat="44.051290" lon="10.003430">
        <ele>4</ele>
        <time>2019-09-05T13:25:09Z</time>
      </trkpt>
      <trkpt lat="44.051250" lon="10.003370">
        <ele>3</ele>
        <time>2019-09-05T13:25:10Z</time>
      </trkpt>
      <trkpt lat="44.051250" lon="10.003310">
        <ele>4</ele>
        <time>2019-09-05T13:25:10Z</time>
      </trkpt>
      <trkpt lat="44.050840" lon="10.003420">
        <ele>4</ele>
        <time>2019-09-05T13:25:18Z</time>
      </trkpt>
      <trkpt lat="44.050760" lon="10.003470">
        <ele>4</ele>
        <time>2019-09-05T13:25:19Z</time>
      </trkpt>
      <trkpt lat="44.050720" lon="10.003550">
        <ele>4</ele>
        <time>2019-09-05T13:25:21Z</time>
      </trkpt>
      <trkpt lat="44.050340" lon="10.005450">
        <ele>4</ele>
        <time>2019-09-05T13:25:46Z</time>
      </trkpt>
      <trkpt lat="44.050300" lon="10.005820">
        <ele>4</ele>
        <time>2019-09-05T13:25:51Z</time>
      </trkpt>
      <trkpt lat="44.050300" lon="10.006970">
        <ele>5</ele>
        <time>2019-09-05T13:26:05Z</time>
      </trkpt>
      <trkpt lat="44.050350" lon="10.007170">
        <ele>5</ele>
        <time>2019-09-05T13:26:08Z</time>
      </trkpt>
      <trkpt lat="44.050210" lon="10.007590">
        <ele>2</ele>
        <time>2019-09-05T13:26:14Z</time>
      </trkpt>
      <trkpt lat="44.050380" lon="10.007710">
        <ele>2</ele>
        <time>2019-09-05T13:26:17Z</time>
      </trkpt>
      <trkpt lat="44.050370" lon="10.007870">
        <ele>2</ele>
        <time>2019-09-05T13:26:19Z</time>
      </trkpt>
      <trkpt lat="44.050280" lon="10.008010">
        <ele>2</ele>
        <time>2019-09-05T13:26:22Z</time>
      </trkpt>
      <trkpt lat="44.050330" lon="10.013940">
        <ele>2</ele>
        <time>2019-09-05T13:27:38Z</time>
      </trkpt>
      <trkpt lat="44.050310" lon="10.014710">
        <ele>2</ele>
        <time>2019-09-05T13:27:47Z</time>
      </trkpt>
      <trkpt lat="44.050260" lon="10.014910">
        <ele>2</ele>
        <time>2019-09-05T13:27:50Z</time>
      </trkpt>
      <trkpt lat="44.050180" lon="10.016330">
        <ele>2</ele>
        <time>2019-09-05T13:28:08Z</time>
      </trkpt>
      <trkpt lat="44.049290" lon="10.016190">
        <ele>2</ele>
        <time>2019-09-05T13:28:24Z</time>
      </trkpt>
      <trkpt lat="44.048880" lon="10.016060">
        <ele>2</ele>
        <time>2019-09-05T13:28:32Z</time>
      </trkpt>
      <trkpt lat="44.048620" lon="10.017070">
        <ele>5</ele>
        <time>2019-09-05T13:28:46Z</time>
      </trkpt>
      <trkpt lat="44.048030" lon="10.019670">
        <ele>5</ele>
        <time>2019-09-05T13:29:20Z</time>
      </trkpt>
      <trkpt lat="44.047330" lon="10.019760">
        <ele>5</ele>
        <time>2019-09-05T13:29:33Z</time>
      </trkpt>
      <trkpt lat="44.047280" lon="10.019740">
        <ele>5</ele>
        <time>2019-09-05T13:29:34Z</time>
      </trkpt>
      <trkpt lat="44.047250" lon="10.019680">
        <ele>5</ele>
        <time>2019-09-05T13:29:35Z</time>
      </trkpt>
      <trkpt lat="44.047250" lon="10.019600">
        <ele>5</ele>
        <time>2019-09-05T13:29:36Z</time>
      </trkpt>
      <trkpt lat="44.047300" lon="10.019390">
        <ele>5</ele>
        <time>2019-09-05T13:29:39Z</time>
      </trkpt>
      <trkpt lat="44.047280" lon="10.019240">
        <ele>5</ele>
        <time>2019-09-05T13:29:41Z</time>
      </trkpt>
      <trkpt lat="44.047240" lon="10.019210">
        <ele>6</ele>
        <time>2019-09-05T13:29:41Z</time>
      </trkpt>
      <trkpt lat="44.046760" lon="10.021170">
        <ele>6</ele>
        <time>2019-09-05T13:30:08Z</time>
      </trkpt>
      <trkpt lat="44.046590" lon="10.021520">
        <ele>6</ele>
        <time>2019-09-05T13:30:13Z</time>
      </trkpt>
      <trkpt lat="44.046420" lon="10.021730">
        <ele>4</ele>
        <time>2019-09-05T13:30:17Z</time>
      </trkpt>
      <trkpt lat="44.046160" lon="10.021970">
        <ele>3</ele>
        <time>2019-09-05T13:30:23Z</time>
      </trkpt>
      <trkpt lat="44.045220" lon="10.022520">
        <ele>1</ele>
        <time>2019-09-05T13:30:41Z</time>
      </trkpt>
      <trkpt lat="44.045040" lon="10.022590">
        <ele>2</ele>
        <time>2019-09-05T13:30:44Z</time>
      </trkpt>
      <trkpt lat="44.044810" lon="10.022640">
        <ele>2</ele>
        <time>2019-09-05T13:30:48Z</time>
      </trkpt>
      <trkpt lat="44.044040" lon="10.022760">
        <ele>3</ele>
        <time>2019-09-05T13:31:02Z</time>
      </trkpt>
      <trkpt lat="44.043870" lon="10.022840">
        <ele>3</ele>
        <time>2019-09-05T13:31:05Z</time>
      </trkpt>
      <trkpt lat="44.043740" lon="10.023020">
        <ele>4</ele>
        <time>2019-09-05T13:31:09Z</time>
      </trkpt>
      <trkpt lat="44.041300" lon="10.029650">
        <ele>4</ele>
        <time>2019-09-05T13:32:44Z</time>
      </trkpt>
      <trkpt lat="44.040910" lon="10.030650">
        <ele>4</ele>
        <time>2019-09-05T13:32:59Z</time>
      </trkpt>
      <trkpt lat="44.041880" lon="10.031080">
        <ele>5</ele>
        <time>2019-09-05T13:33:17Z</time>
      </trkpt>
      <trkpt lat="44.041390" lon="10.032630">
        <ele>4</ele>
        <time>2019-09-05T13:33:38Z</time>
      </trkpt>
      <trkpt lat="44.041350" lon="10.032650">
        <ele>4</ele>
        <time>2019-09-05T13:33:39Z</time>
      </trkpt>
      <trkpt lat="44.039550" lon="10.038270">
        <ele>5</ele>
        <time>2019-09-05T13:34:58Z</time>
      </trkpt>
      <trkpt lat="44.039510" lon="10.038510">
        <ele>4</ele>
        <time>2019-09-05T13:35:01Z</time>
      </trkpt>
      <trkpt lat="44.039150" lon="10.039490">
        <ele>4</ele>
        <time>2019-09-05T13:35:15Z</time>
      </trkpt>
      <trkpt lat="44.038300" lon="10.042130">
        <ele>6</ele>
        <time>2019-09-05T13:35:52Z</time>
      </trkpt>
      <trkpt lat="44.038260" lon="10.042230">
        <ele>4</ele>
        <time>2019-09-05T13:35:53Z</time>
      </trkpt>
      <trkpt lat="44.037590" lon="10.041730">
        <ele>3</ele>
        <time>2019-09-05T13:36:07Z</time>
      </trkpt>
      <trkpt lat="44.036700" lon="10.044250">
        <ele>1</ele>
        <time>2019-09-05T13:36:43Z</time>
      </trkpt>
      <trkpt lat="44.035960" lon="10.046110">
        <ele>1</ele>
        <time>2019-09-05T13:37:10Z</time>
      </trkpt>
      <trkpt lat="44.035300" lon="10.045620">
        <ele>1</ele>
        <time>2019-09-05T13:37:23Z</time>
      </trkpt>
      <trkpt lat="44.032830" lon="10.052210">
        <ele>2</ele>
        <time>2019-09-05T13:38:58Z</time>
      </trkpt>
      <trkpt lat="44.032550" lon="10.053060">
        <ele>1</ele>
        <time>2019-09-05T13:39:10Z</time>
      </trkpt>
      <trkpt lat="44.032530" lon="10.053410">
        <ele>1</ele>
        <time>2019-09-05T13:39:15Z</time>
      </trkpt>
      <trkpt lat="44.032620" lon="10.053820">
        <ele>1</ele>
        <time>2019-09-05T13:39:20Z</time>
      </trkpt>
      <trkpt lat="44.032850" lon="10.054390">
        <ele>1</ele>
        <time>2019-09-05T13:39:29Z</time>
      </trkpt>
      <trkpt lat="44.032950" lon="10.054730">
        <ele>1</ele>
        <time>2019-09-05T13:39:33Z</time>
      </trkpt>
      <trkpt lat="44.032990" lon="10.054990">
        <ele>4</ele>
        <time>2019-09-05T13:39:37Z</time>
      </trkpt>
      <trkpt lat="44.032980" lon="10.055420">
        <ele>2</ele>
        <time>2019-09-05T13:39:42Z</time>
      </trkpt>
      <trkpt lat="44.031230" lon="10.059800">
        <ele>2</ele>
        <time>2019-09-05T13:40:46Z</time>
      </trkpt>
      <trkpt lat="44.031020" lon="10.060250">
        <ele>2</ele>
        <time>2019-09-05T13:40:53Z</time>
      </trkpt>
      <trkpt lat="44.029600" lon="10.063800">
        <ele>1</ele>
        <time>2019-09-05T13:41:45Z</time>
      </trkpt>
      <trkpt lat="44.027330" lon="10.068740">
        <ele>2</ele>
        <time>2019-09-05T13:43:00Z</time>
      </trkpt>
      <trkpt lat="44.025950" lon="10.071640">
        <ele>2</ele>
        <time>2019-09-05T13:43:45Z</time>
      </trkpt>
      <trkpt lat="44.023880" lon="10.076090">
        <ele>2</ele>
        <time>2019-09-05T13:44:53Z</time>
      </trkpt>
      <trkpt lat="44.017920" lon="10.087200">
        <ele>2</ele>
        <time>2019-09-05T13:47:50Z</time>
      </trkpt>
      <trkpt lat="44.016270" lon="10.085250">
        <ele>2</ele>
        <time>2019-09-05T13:48:28Z</time>
      </trkpt>
      <trkpt lat="44.012300" lon="10.092040">
        <ele>2</ele>
        <time>2019-09-05T13:50:20Z</time>
      </trkpt>
      <trkpt lat="44.012060" lon="10.092320">
        <ele>2</ele>
        <time>2019-09-05T13:50:26Z</time>
      </trkpt>
      <trkpt lat="44.009510" lon="10.096440">
        <ele>1</ele>
        <time>2019-09-05T13:51:36Z</time>
      </trkpt>
      <trkpt lat="44.008490" lon="10.097990">
        <ele>1</ele>
        <time>2019-09-05T13:52:02Z</time>
      </trkpt>
      <trkpt lat="44.007530" lon="10.099530">
        <ele>1</ele>
        <time>2019-09-05T13:52:29Z</time>
      </trkpt>
      <trkpt lat="44.007650" lon="10.099680">
        <ele>1</ele>
        <time>2019-09-05T13:52:31Z</time>
      </trkpt>
      <trkpt lat="44.004560" lon="10.104660">
        <ele>1</ele>
        <time>2019-09-05T13:53:56Z</time>
      </trkpt>
      <trkpt lat="44.004490" lon="10.104700">
        <ele>1</ele>
        <time>2019-09-05T13:53:57Z</time>
      </trkpt>
      <trkpt lat="44.004500" lon="10.104770">
        <ele>1</ele>
        <time>2019-09-05T13:53:58Z</time>
      </trkpt>
      <trkpt lat="44.005010" lon="10.105300">
        <ele>1</ele>
        <time>2019-09-05T13:54:09Z</time>
      </trkpt>
      <trkpt lat="44.004800" lon="10.105650">
        <ele>1</ele>
        <time>2019-09-05T13:54:15Z</time>
      </trkpt>
      <trkpt lat="44.004230" lon="10.105160">
        <ele>1</ele>
        <time>2019-09-05T13:54:27Z</time>
      </trkpt>
      <trkpt lat="44.002920" lon="10.107300">
        <ele>1</ele>
        <time>2019-09-05T13:55:03Z</time>
      </trkpt>
      <trkpt lat="44.002870" lon="10.107460">
        <ele>1</ele>
        <time>2019-09-05T13:55:05Z</time>
      </trkpt>
      <trkpt lat="44.002880" lon="10.107550">
        <ele>4</ele>
        <time>2019-09-05T13:55:06Z</time>
      </trkpt>
      <trkpt lat="44.002900" lon="10.107620">
        <ele>2</ele>
        <time>2019-09-05T13:55:07Z</time>
      </trkpt>
      <trkpt lat="44.003020" lon="10.107760">
        <ele>3</ele>
        <time>2019-09-05T13:55:10Z</time>
      </trkpt>
      <trkpt lat="44.002900" lon="10.108020">
        <ele>2</ele>
        <time>2019-09-05T13:55:14Z</time>
      </trkpt>
      <trkpt lat="44.002770" lon="10.107920">
        <ele>2</ele>
        <time>2019-09-05T13:55:17Z</time>
      </trkpt>
      <trkpt lat="44.002570" lon="10.107930">
        <ele>3</ele>
        <time>2019-09-05T13:55:20Z</time>
      </trkpt>
      <trkpt lat="44.002500" lon="10.107970">
        <ele>3</ele>
        <time>2019-09-05T13:55:22Z</time>
      </trkpt>
      <trkpt lat="43.999200" lon="10.113210">
        <ele>1</ele>
        <time>2019-09-05T13:56:51Z</time>
      </trkpt>
      <trkpt lat="43.998530" lon="10.114370">
        <ele>3</ele>
        <time>2019-09-05T13:57:10Z</time>
      </trkpt>
      <trkpt lat="43.998440" lon="10.114470">
        <ele>3</ele>
        <time>2019-09-05T13:57:12Z</time>
      </trkpt>
      <trkpt lat="43.998400" lon="10.114480">
        <ele>3</ele>
        <time>2019-09-05T13:57:13Z</time>
      </trkpt>
      <trkpt lat="43.998230" lon="10.114750">
        <ele>4</ele>
        <time>2019-09-05T13:57:17Z</time>
      </trkpt>
      <trkpt lat="43.998160" lon="10.114990">
        <ele>1</ele>
        <time>2019-09-05T13:57:20Z</time>
      </trkpt>
      <trkpt lat="43.998170" lon="10.115100">
        <ele>4</ele>
        <time>2019-09-05T13:57:22Z</time>
      </trkpt>
      <trkpt lat="43.998200" lon="10.115150">
        <ele>4</ele>
        <time>2019-09-05T13:57:23Z</time>
      </trkpt>
      <trkpt lat="43.998160" lon="10.115240">
        <ele>3</ele>
        <time>2019-09-05T13:57:24Z</time>
      </trkpt>
      <trkpt lat="43.998130" lon="10.115280">
        <ele>2</ele>
        <time>2019-09-05T13:57:25Z</time>
      </trkpt>
      <trkpt lat="43.998030" lon="10.115260">
        <ele>2</ele>
        <time>2019-09-05T13:57:27Z</time>
      </trkpt>
      <trkpt lat="43.997910" lon="10.115310">
        <ele>2</ele>
        <time>2019-09-05T13:57:29Z</time>
      </trkpt>
      <trkpt lat="43.994790" lon="10.120130">
        <ele>3</ele>
        <time>2019-09-05T13:58:52Z</time>
      </trkpt>
      <trkpt lat="43.993970" lon="10.121280">
        <ele>2</ele>
        <time>2019-09-05T13:59:13Z</time>
      </trkpt>
      <trkpt lat="43.992350" lon="10.123680">
        <ele>2</ele>
        <time>2019-09-05T13:59:55Z</time>
      </trkpt>
      <trkpt lat="43.992230" lon="10.123890">
        <ele>3</ele>
        <time>2019-09-05T13:59:58Z</time>
      </trkpt>
      <trkpt lat="43.991550" lon="10.124840">
        <ele>2</ele>
        <time>2019-09-05T14:00:15Z</time>
      </trkpt>
      <trkpt lat="43.990960" lon="10.125730">
        <ele>2</ele>
        <time>2019-09-05T14:00:31Z</time>
      </trkpt>
      <trkpt lat="43.990820" lon="10.125880">
        <ele>1</ele>
        <time>2019-09-05T14:00:34Z</time>
      </trkpt>
      <trkpt lat="43.990030" lon="10.127050">
        <ele>2</ele>
        <time>2019-09-05T14:00:54Z</time>
      </trkpt>
      <trkpt lat="43.989320" lon="10.128030">
        <ele>2</ele>
        <time>2019-09-05T14:01:12Z</time>
      </trkpt>
      <trkpt lat="43.989270" lon="10.128030">
        <ele>4</ele>
        <time>2019-09-05T14:01:13Z</time>
      </trkpt>
      <trkpt lat="43.989210" lon="10.128110">
        <ele>2</ele>
        <time>2019-09-05T14:01:15Z</time>
      </trkpt>
      <trkpt lat="43.989200" lon="10.128200">
        <ele>1</ele>
        <time>2019-09-05T14:01:16Z</time>
      </trkpt>
      <trkpt lat="43.986760" lon="10.131710">
        <ele>2</ele>
        <time>2019-09-05T14:02:18Z</time>
      </trkpt>
      <trkpt lat="43.985440" lon="10.133550">
        <ele>2</ele>
        <time>2019-09-05T14:02:51Z</time>
      </trkpt>
      <trkpt lat="43.985360" lon="10.133430">
        <ele>2</ele>
        <time>2019-09-05T14:02:54Z</time>
      </trkpt>
      <trkpt lat="43.984760" lon="10.134280">
        <ele>2</ele>
        <time>2019-09-05T14:03:09Z</time>
      </trkpt>
      <trkpt lat="43.984500" lon="10.133870">
        <ele>2</ele>
        <time>2019-09-05T14:03:16Z</time>
      </trkpt>
      <trkpt lat="43.984340" lon="10.133680">
        <ele>4</ele>
        <time>2019-09-05T14:03:20Z</time>
      </trkpt>
      <trkpt lat="43.984500" lon="10.133870">
        <ele>4</ele>
        <time>2019-09-05T14:03:23Z</time>
      </trkpt>
      <trkpt lat="43.984760" lon="10.134280">
        <ele>3</ele>
        <time>2019-09-05T14:03:30Z</time>
      </trkpt>
      <trkpt lat="43.984340" lon="10.134870">
        <ele>3</ele>
        <time>2019-09-05T14:03:41Z</time>
      </trkpt>
      <trkpt lat="43.984430" lon="10.134980">
        <ele>3</ele>
        <time>2019-09-05T14:03:43Z</time>
      </trkpt>
      <trkpt lat="43.983870" lon="10.135730">
        <ele>2</ele>
        <time>2019-09-05T14:03:57Z</time>
      </trkpt>
      <trkpt lat="43.982240" lon="10.138060">
        <ele>2</ele>
        <time>2019-09-05T14:04:39Z</time>
      </trkpt>
      <trkpt lat="43.982150" lon="10.137940">
        <ele>3</ele>
        <time>2019-09-05T14:04:41Z</time>
      </trkpt>
      <trkpt lat="43.981420" lon="10.139020">
        <ele>1</ele>
        <time>2019-09-05T14:05:00Z</time>
      </trkpt>
      <trkpt lat="43.978860" lon="10.142440">
        <ele>2</ele>
        <time>2019-09-05T14:06:03Z</time>
      </trkpt>
      <trkpt lat="43.977830" lon="10.143750">
        <ele>2</ele>
        <time>2019-09-05T14:06:28Z</time>
      </trkpt>
      <trkpt lat="43.976570" lon="10.145290">
        <ele>4</ele>
        <time>2019-09-05T14:06:58Z</time>
      </trkpt>
      <trkpt lat="43.970720" lon="10.152230">
        <ele>4</ele>
        <time>2019-09-05T14:09:14Z</time>
      </trkpt>
      <trkpt lat="43.963450" lon="10.160950">
        <ele>4</ele>
        <time>2019-09-05T14:12:05Z</time>
      </trkpt>
      <trkpt lat="43.962450" lon="10.162110">
        <ele>2</ele>
        <time>2019-09-05T14:12:29Z</time>
      </trkpt>
      <trkpt lat="43.961650" lon="10.163100">
        <ele>2</ele>
        <time>2019-09-05T14:12:48Z</time>
      </trkpt>
      <trkpt lat="43.959880" lon="10.165160">
        <ele>2</ele>
        <time>2019-09-05T14:13:29Z</time>
      </trkpt>
      <trkpt lat="43.958070" lon="10.167350">
        <ele>2</ele>
        <time>2019-09-05T14:14:11Z</time>
      </trkpt>
      <trkpt lat="43.957620" lon="10.167970">
        <ele>2</ele>
        <time>2019-09-05T14:14:23Z</time>
      </trkpt>
      <trkpt lat="43.951620" lon="10.174420">
        <ele>2</ele>
        <time>2019-09-05T14:16:38Z</time>
      </trkpt>
      <trkpt lat="43.951350" lon="10.174600">
        <ele>2</ele>
        <time>2019-09-05T14:16:43Z</time>
      </trkpt>
      <trkpt lat="43.950610" lon="10.175370">
        <ele>2</ele>
        <time>2019-09-05T14:16:59Z</time>
      </trkpt>
      <trkpt lat="43.948470" lon="10.177690">
        <ele>3</ele>
        <time>2019-09-05T14:17:48Z</time>
      </trkpt>
      <trkpt lat="43.946240" lon="10.180060">
        <ele>3</ele>
        <time>2019-09-05T14:18:38Z</time>
      </trkpt>
      <trkpt lat="43.943830" lon="10.182710">
        <ele>3</ele>
        <time>2019-09-05T14:19:32Z</time>
      </trkpt>
      <trkpt lat="43.943790" lon="10.182630">
        <ele>2</ele>
        <time>2019-09-05T14:19:34Z</time>
      </trkpt>
      <trkpt lat="43.938740" lon="10.188010">
        <ele>2</ele>
        <time>2019-09-05T14:21:27Z</time>
      </trkpt>
      <trkpt lat="43.937430" lon="10.189470">
        <ele>2</ele>
        <time>2019-09-05T14:21:57Z</time>
      </trkpt>
      <trkpt lat="43.932150" lon="10.194280">
        <ele>3</ele>
        <time>2019-09-05T14:23:49Z</time>
      </trkpt>
      <trkpt lat="43.931820" lon="10.194610">
        <ele>2</ele>
        <time>2019-09-05T14:23:56Z</time>
      </trkpt>
      <trkpt lat="43.928130" lon="10.197940">
        <ele>1</ele>
        <time>2019-09-05T14:25:15Z</time>
      </trkpt>
      <trkpt lat="43.928180" lon="10.198060">
        <ele>2</ele>
        <time>2019-09-05T14:25:16Z</time>
      </trkpt>
      <trkpt lat="43.928030" lon="10.198250">
        <ele>2</ele>
        <time>2019-09-05T14:25:20Z</time>
      </trkpt>
      <trkpt lat="43.926550" lon="10.199640">
        <ele>2</ele>
        <time>2019-09-05T14:25:52Z</time>
      </trkpt>
      <trkpt lat="43.926210" lon="10.199940">
        <ele>2</ele>
        <time>2019-09-05T14:25:59Z</time>
      </trkpt>
      <trkpt lat="43.926150" lon="10.199800">
        <ele>2</ele>
        <time>2019-09-05T14:26:01Z</time>
      </trkpt>
      <trkpt lat="43.925550" lon="10.200270">
        <ele>2</ele>
        <time>2019-09-05T14:26:13Z</time>
      </trkpt>
      <trkpt lat="43.924810" lon="10.200960">
        <ele>2</ele>
        <time>2019-09-05T14:26:29Z</time>
      </trkpt>
      <trkpt lat="43.923720" lon="10.201900">
        <ele>1</ele>
        <time>2019-09-05T14:26:52Z</time>
      </trkpt>
      <trkpt lat="43.923620" lon="10.201960">
        <ele>1</ele>
        <time>2019-09-05T14:26:54Z</time>
      </trkpt>
      <trkpt lat="43.919020" lon="10.205990">
        <ele>1</ele>
        <time>2019-09-05T14:28:31Z</time>
      </trkpt>
      <trkpt lat="43.916720" lon="10.208040">
        <ele>1</ele>
        <time>2019-09-05T14:29:19Z</time>
      </trkpt>
      <trkpt lat="43.916470" lon="10.208240">
        <ele>2</ele>
        <time>2019-09-05T14:29:25Z</time>
      </trkpt>
      <trkpt lat="43.916380" lon="10.208380">
        <ele>1</ele>
        <time>2019-09-05T14:29:27Z</time>
      </trkpt>
      <trkpt lat="43.915520" lon="10.209100">
        <ele>1</ele>
        <time>2019-09-05T14:29:45Z</time>
      </trkpt>
      <trkpt lat="43.915480" lon="10.209080">
        <ele>2</ele>
        <time>2019-09-05T14:29:46Z</time>
      </trkpt>
      <trkpt lat="43.914190" lon="10.210010">
        <ele>3</ele>
        <time>2019-09-05T14:30:11Z</time>
      </trkpt>
      <trkpt lat="43.912480" lon="10.211300">
        <ele>2</ele>
        <time>2019-09-05T14:30:46Z</time>
      </trkpt>
      <trkpt lat="43.911470" lon="10.211980">
        <ele>2</ele>
        <time>2019-09-05T14:31:06Z</time>
      </trkpt>
      <trkpt lat="43.911020" lon="10.212350">
        <ele>2</ele>
        <time>2019-09-05T14:31:15Z</time>
      </trkpt>
      <trkpt lat="43.908960" lon="10.213900">
        <ele>2</ele>
        <time>2019-09-05T14:31:57Z</time>
      </trkpt>
      <trkpt lat="43.902720" lon="10.218540">
        <ele>2</ele>
        <time>2019-09-05T14:34:03Z</time>
      </trkpt>
      <trkpt lat="43.901890" lon="10.218930">
        <ele>2</ele>
        <time>2019-09-05T14:34:19Z</time>
      </trkpt>
      <trkpt lat="43.893080" lon="10.225610">
        <ele>2</ele>
        <time>2019-09-05T14:37:17Z</time>
      </trkpt>
      <trkpt lat="43.889150" lon="10.228660">
        <ele>3</ele>
        <time>2019-09-05T14:38:37Z</time>
      </trkpt>
      <trkpt lat="43.888800" lon="10.228900">
        <ele>3</ele>
        <time>2019-09-05T14:38:44Z</time>
      </trkpt>
      <trkpt lat="43.888830" lon="10.229030">
        <ele>3</ele>
        <time>2019-09-05T14:38:46Z</time>
      </trkpt>
      <trkpt lat="43.888490" lon="10.229280">
        <ele>4</ele>
        <time>2019-09-05T14:38:53Z</time>
      </trkpt>
      <trkpt lat="43.888430" lon="10.229360">
        <ele>5</ele>
        <time>2019-09-05T14:38:54Z</time>
      </trkpt>
      <trkpt lat="43.888450" lon="10.229580">
        <ele>5</ele>
        <time>2019-09-05T14:38:57Z</time>
      </trkpt>
      <trkpt lat="43.888390" lon="10.229840">
        <ele>6</ele>
        <time>2019-09-05T14:39:01Z</time>
      </trkpt>
      <trkpt lat="43.887760" lon="10.230400">
        <ele>6</ele>
        <time>2019-09-05T14:39:14Z</time>
      </trkpt>
      <trkpt lat="43.885050" lon="10.232440">
        <ele>3</ele>
        <time>2019-09-05T14:40:09Z</time>
      </trkpt>
      <trkpt lat="43.884980" lon="10.232450">
        <ele>2</ele>
        <time>2019-09-05T14:40:10Z</time>
      </trkpt>
      <trkpt lat="43.884760" lon="10.232650">
        <ele>2</ele>
        <time>2019-09-05T14:40:15Z</time>
      </trkpt>
      <trkpt lat="43.884000" lon="10.233180">
        <ele>4</ele>
        <time>2019-09-05T14:40:30Z</time>
      </trkpt>
      <trkpt lat="43.883350" lon="10.233580">
        <ele>5</ele>
        <time>2019-09-05T14:40:43Z</time>
      </trkpt>
      <trkpt lat="43.883270" lon="10.233660">
        <ele>4</ele>
        <time>2019-09-05T14:40:44Z</time>
      </trkpt>
      <trkpt lat="43.882790" lon="10.233940">
        <ele>4</ele>
        <time>2019-09-05T14:40:54Z</time>
      </trkpt>
      <trkpt lat="43.882630" lon="10.234090">
        <ele>3</ele>
        <time>2019-09-05T14:40:57Z</time>
      </trkpt>
      <trkpt lat="43.882340" lon="10.234210">
        <ele>4</ele>
        <time>2019-09-05T14:41:02Z</time>
      </trkpt>
      <trkpt lat="43.882040" lon="10.234440">
        <ele>4</ele>
        <time>2019-09-05T14:41:09Z</time>
      </trkpt>
      <trkpt lat="43.881900" lon="10.234590">
        <ele>4</ele>
        <time>2019-09-05T14:41:12Z</time>
      </trkpt>
      <trkpt lat="43.881870" lon="10.234880">
        <ele>3</ele>
        <time>2019-09-05T14:41:15Z</time>
      </trkpt>
      <trkpt lat="43.880980" lon="10.235410">
        <ele>3</ele>
        <time>2019-09-05T14:41:33Z</time>
      </trkpt>
      <trkpt lat="43.880800" lon="10.235480">
        <ele>3</ele>
        <time>2019-09-05T14:41:36Z</time>
      </trkpt>
      <trkpt lat="43.879970" lon="10.235950">
        <ele>3</ele>
        <time>2019-09-05T14:41:52Z</time>
      </trkpt>
      <trkpt lat="43.876120" lon="10.238210">
        <ele>3</ele>
        <time>2019-09-05T14:43:06Z</time>
      </trkpt>
      <trkpt lat="43.876090" lon="10.238270">
        <ele>3</ele>
        <time>2019-09-05T14:43:07Z</time>
      </trkpt>
      <trkpt lat="43.875840" lon="10.238420">
        <ele>3</ele>
        <time>2019-09-05T14:43:12Z</time>
      </trkpt>
      <trkpt lat="43.875790" lon="10.238410">
        <ele>3</ele>
        <time>2019-09-05T14:43:13Z</time>
      </trkpt>
      <trkpt lat="43.871890" lon="10.240640">
        <ele>3</ele>
        <time>2019-09-05T14:44:28Z</time>
      </trkpt>
      <trkpt lat="43.869980" lon="10.241790">
        <ele>3</ele>
        <time>2019-09-05T14:45:05Z</time>
      </trkpt>
      <trkpt lat="43.869890" lon="10.241820">
        <ele>3</ele>
        <time>2019-09-05T14:45:07Z</time>
      </trkpt>
      <trkpt lat="43.868260" lon="10.242770">
        <ele>3</ele>
        <time>2019-09-05T14:45:38Z</time>
      </trkpt>
      <trkpt lat="43.867530" lon="10.243240">
        <ele>3</ele>
        <time>2019-09-05T14:45:53Z</time>
      </trkpt>
      <trkpt lat="43.867470" lon="10.243040">
        <ele>5</ele>
        <time>2019-09-05T14:45:55Z</time>
      </trkpt>
      <trkpt lat="43.867280" lon="10.243150">
        <ele>6</ele>
        <time>2019-09-05T14:45:59Z</time>
      </trkpt>
      <trkpt lat="43.867140" lon="10.242720">
        <ele>7</ele>
        <time>2019-09-05T14:46:05Z</time>
      </trkpt>
      <trkpt lat="43.867280" lon="10.243150">
        <ele>8</ele>
        <time>2019-09-05T14:46:11Z</time>
      </trkpt>
      <trkpt lat="43.867100" lon="10.243260">
        <ele>14</ele>
        <time>2019-09-05T14:46:15Z</time>
      </trkpt>
      <trkpt lat="43.867150" lon="10.243440">
        <ele>4</ele>
        <time>2019-09-05T14:46:17Z</time>
      </trkpt>
      <trkpt lat="43.865940" lon="10.244130">
        <ele>8</ele>
        <time>2019-09-05T14:46:40Z</time>
      </trkpt>
      <trkpt lat="43.865810" lon="10.244280">
        <ele>2</ele>
        <time>2019-09-05T14:46:43Z</time>
      </trkpt>
      <trkpt lat="43.865570" lon="10.244370">
        <ele>2</ele>
        <time>2019-09-05T14:46:48Z</time>
      </trkpt>
      <trkpt lat="43.865150" lon="10.244620">
        <ele>1</ele>
        <time>2019-09-05T14:46:56Z</time>
      </trkpt>
      <trkpt lat="43.865180" lon="10.244710">
        <ele>3</ele>
        <time>2019-09-05T14:46:57Z</time>
      </trkpt>
      <trkpt lat="43.865160" lon="10.244760">
        <ele>3</ele>
        <time>2019-09-05T14:46:58Z</time>
      </trkpt>
      <trkpt lat="43.865170" lon="10.244830">
        <ele>4</ele>
        <time>2019-09-05T14:46:59Z</time>
      </trkpt>
      <trkpt lat="43.865490" lon="10.246160">
        <ele>4</ele>
        <time>2019-09-05T14:47:17Z</time>
      </trkpt>
      <trkpt lat="43.865450" lon="10.247180">
        <ele>3</ele>
        <time>2019-09-05T14:47:30Z</time>
      </trkpt>
      <trkpt lat="43.865390" lon="10.247990">
        <ele>3</ele>
        <time>2019-09-05T14:47:40Z</time>
      </trkpt>
      <trkpt lat="43.865430" lon="10.248570">
        <ele>4</ele>
        <time>2019-09-05T14:47:48Z</time>
      </trkpt>
      <trkpt lat="43.865640" lon="10.249710">
        <ele>2</ele>
        <time>2019-09-05T14:48:03Z</time>
      </trkpt>
      <trkpt lat="43.865600" lon="10.249950">
        <ele>2</ele>
        <time>2019-09-05T14:48:06Z</time>
      </trkpt>
      <trkpt lat="43.863580" lon="10.251140">
        <ele>2</ele>
        <time>2019-09-05T14:48:45Z</time>
      </trkpt>
      <trkpt lat="43.863380" lon="10.251490">
        <ele>2</ele>
        <time>2019-09-05T14:48:51Z</time>
      </trkpt>
      <trkpt lat="43.863330" lon="10.251660">
        <ele>2</ele>
        <time>2019-09-05T14:48:53Z</time>
      </trkpt>
      <trkpt lat="43.863370" lon="10.251820">
        <ele>2</ele>
        <time>2019-09-05T14:48:55Z</time>
      </trkpt>
      <trkpt lat="43.860850" lon="10.253250">
        <ele>2</ele>
        <time>2019-09-05T14:49:44Z</time>
      </trkpt>
      <trkpt lat="43.850750" lon="10.258700">
        <ele>2</ele>
        <time>2019-09-05T14:52:57Z</time>
      </trkpt>
      <trkpt lat="43.828930" lon="10.270740">
        <ele>3</ele>
        <time>2019-09-05T14:59:54Z</time>
      </trkpt>
      <trkpt lat="43.829640" lon="10.273250">
        <ele>1</ele>
        <time>2019-09-05T15:00:29Z</time>
      </trkpt>
      <trkpt lat="43.830310" lon="10.275760">
        <ele>2</ele>
        <time>2019-09-05T15:01:03Z</time>
      </trkpt>
      <trkpt lat="43.827730" lon="10.277060">
        <ele>2</ele>
        <time>2019-09-05T15:01:52Z</time>
      </trkpt>
      <trkpt lat="43.828140" lon="10.279770">
        <ele>2</ele>
        <time>2019-09-05T15:02:28Z</time>
      </trkpt>
      <trkpt lat="43.827620" lon="10.280040">
        <ele>5</ele>
        <time>2019-09-05T15:02:38Z</time>
      </trkpt>
      <trkpt lat="43.827810" lon="10.281300">
        <ele>10</ele>
        <time>2019-09-05T15:02:54Z</time>
      </trkpt>
      <trkpt lat="43.826980" lon="10.281750">
        <ele>9</ele>
        <time>2019-09-05T15:03:10Z</time>
      </trkpt>
      <trkpt lat="43.827340" lon="10.283280">
        <ele>11</ele>
        <time>2019-09-05T15:03:31Z</time>
      </trkpt>
      <trkpt lat="43.825760" lon="10.284080">
        <ele>10</ele>
        <time>2019-09-05T15:04:01Z</time>
      </trkpt>
      <trkpt lat="43.826790" lon="10.287420">
        <ele>9</ele>
        <time>2019-09-05T15:04:47Z</time>
      </trkpt>
      <trkpt lat="43.827400" lon="10.289300">
        <ele>10</ele>
        <time>2019-09-05T15:05:14Z</time>
      </trkpt>
      <trkpt lat="43.827040" lon="10.289620">
        <ele>10</ele>
        <time>2019-09-05T15:05:21Z</time>
      </trkpt>
      <trkpt lat="43.827020" lon="10.289690">
        <ele>12</ele>
        <time>2019-09-05T15:05:22Z</time>
      </trkpt>
      <trkpt lat="43.827030" lon="10.289790">
        <ele>13</ele>
        <time>2019-09-05T15:05:24Z</time>
      </trkpt>
      <trkpt lat="43.827120" lon="10.290000">
        <ele>13</ele>
        <time>2019-09-05T15:05:27Z</time>
      </trkpt>
      <trkpt lat="43.827180" lon="10.290040">
        <ele>13</ele>
        <time>2019-09-05T15:05:28Z</time>
      </trkpt>
      <trkpt lat="43.827500" lon="10.289820">
        <ele>12</ele>
        <time>2019-09-05T15:05:34Z</time>
      </trkpt>
      <trkpt lat="43.827530" lon="10.289830">
        <ele>12</ele>
        <time>2019-09-05T15:05:35Z</time>
      </trkpt>
      <trkpt lat="43.827770" lon="10.290570">
        <ele>12</ele>
        <time>2019-09-05T15:05:45Z</time>
      </trkpt>
      <trkpt lat="43.825620" lon="10.291820">
        <ele>13</ele>
        <time>2019-09-05T15:06:27Z</time>
      </trkpt>
      <trkpt lat="43.825940" lon="10.292790">
        <ele>12</ele>
        <time>2019-09-05T15:06:40Z</time>
      </trkpt>
      <trkpt lat="43.825530" lon="10.293080">
        <ele>12</ele>
        <time>2019-09-05T15:06:49Z</time>
      </trkpt>
      <trkpt lat="43.825160" lon="10.293430">
        <ele>12</ele>
        <time>2019-09-05T15:06:57Z</time>
      </trkpt>
      <trkpt lat="43.823850" lon="10.295270">
        <ele>10</ele>
        <time>2019-09-05T15:07:30Z</time>
      </trkpt>
      <trkpt lat="43.821300" lon="10.297500">
        <ele>14</ele>
        <time>2019-09-05T15:08:23Z</time>
      </trkpt>
      <trkpt lat="43.820380" lon="10.298390">
        <ele>11</ele>
        <time>2019-09-05T15:08:43Z</time>
      </trkpt>
      <trkpt lat="43.820100" lon="10.298720">
        <ele>12</ele>
        <time>2019-09-05T15:08:50Z</time>
      </trkpt>
      <trkpt lat="43.819920" lon="10.299000">
        <ele>11</ele>
        <time>2019-09-05T15:08:55Z</time>
      </trkpt>
      <trkpt lat="43.819770" lon="10.299450">
        <ele>9</ele>
        <time>2019-09-05T15:09:01Z</time>
      </trkpt>
      <trkpt lat="43.819210" lon="10.303100">
        <ele>12</ele>
        <time>2019-09-05T15:09:49Z</time>
      </trkpt>
      <trkpt lat="43.819150" lon="10.303310">
        <ele>8</ele>
        <time>2019-09-05T15:09:52Z</time>
      </trkpt>
      <trkpt lat="43.818720" lon="10.304410">
        <ele>8</ele>
        <time>2019-09-05T15:10:08Z</time>
      </trkpt>
      <trkpt lat="43.818320" lon="10.305220">
        <ele>8</ele>
        <time>2019-09-05T15:10:21Z</time>
      </trkpt>
      <trkpt lat="43.818060" lon="10.305640">
        <ele>8</ele>
        <time>2019-09-05T15:10:28Z</time>
      </trkpt>
      <trkpt lat="43.818040" lon="10.305870">
        <ele>8</ele>
        <time>2019-09-05T15:10:31Z</time>
      </trkpt>
      <trkpt lat="43.818620" lon="10.305390">
        <ele>8</ele>
        <time>2019-09-05T15:10:43Z</time>
      </trkpt>
      <trkpt lat="43.818870" lon="10.305240">
        <ele>8</ele>
        <time>2019-09-05T15:10:48Z</time>
      </trkpt>
      <trkpt lat="43.818620" lon="10.305390">
        <ele>8</ele>
        <time>2019-09-05T15:10:52Z</time>
      </trkpt>
      <trkpt lat="43.818040" lon="10.305870">
        <ele>8</ele>
        <time>2019-09-05T15:11:04Z</time>
      </trkpt>
      <trkpt lat="43.817140" lon="10.306780">
        <ele>8</ele>
        <time>2019-09-05T15:11:24Z</time>
      </trkpt>
      <trkpt lat="43.816790" lon="10.307060">
        <ele>8</ele>
        <time>2019-09-05T15:11:31Z</time>
      </trkpt>
      <trkpt lat="43.816440" lon="10.307280">
        <ele>8</ele>
        <time>2019-09-05T15:11:38Z</time>
      </trkpt>
      <trkpt lat="43.816130" lon="10.307440">
        <ele>8</ele>
        <time>2019-09-05T15:11:44Z</time>
      </trkpt>
      <trkpt lat="43.810860" lon="10.309450">
        <ele>8</ele>
        <time>2019-09-05T15:13:21Z</time>
      </trkpt>
      <trkpt lat="43.809100" lon="10.310030">
        <ele>8</ele>
        <time>2019-09-05T15:13:54Z</time>
      </trkpt>
      <trkpt lat="43.807710" lon="10.310520">
        <ele>8</ele>
        <time>2019-09-05T15:14:19Z</time>
      </trkpt>
      <trkpt lat="43.802690" lon="10.312360">
        <ele>8</ele>
        <time>2019-09-05T15:15:52Z</time>
      </trkpt>
      <trkpt lat="43.802000" lon="10.312650">
        <ele>8</ele>
        <time>2019-09-05T15:16:04Z</time>
      </trkpt>
      <trkpt lat="43.802450" lon="10.314770">
        <ele>8</ele>
        <time>2019-09-05T15:16:33Z</time>
      </trkpt>
      <trkpt lat="43.802860" lon="10.316480">
        <ele>8</ele>
        <time>2019-09-05T15:16:56Z</time>
      </trkpt>
      <trkpt lat="43.803940" lon="10.319640">
        <ele>8</ele>
        <time>2019-09-05T15:17:41Z</time>
      </trkpt>
      <trkpt lat="43.804360" lon="10.320950">
        <ele>8</ele>
        <time>2019-09-05T15:17:59Z</time>
      </trkpt>
      <trkpt lat="43.805040" lon="10.327440">
        <ele>8</ele>
        <time>2019-09-05T15:19:23Z</time>
      </trkpt>
      <trkpt lat="43.805130" lon="10.327720">
        <ele>8</ele>
        <time>2019-09-05T15:19:27Z</time>
      </trkpt>
      <trkpt lat="43.805340" lon="10.328050">
        <ele>2</ele>
        <time>2019-09-05T15:19:33Z</time>
      </trkpt>
      <trkpt lat="43.807840" lon="10.331280">
        <ele>3</ele>
        <time>2019-09-05T15:20:34Z</time>
      </trkpt>
      <trkpt lat="43.809210" lon="10.333170">
        <ele>4</ele>
        <time>2019-09-05T15:21:08Z</time>
      </trkpt>
      <trkpt lat="43.810700" lon="10.335100">
        <ele>4</ele>
        <time>2019-09-05T15:21:44Z</time>
      </trkpt>
      <trkpt lat="43.811310" lon="10.335960">
        <ele>4</ele>
        <time>2019-09-05T15:22:00Z</time>
      </trkpt>
      <trkpt lat="43.817590" lon="10.344190">
        <ele>2</ele>
        <time>2019-09-05T15:24:34Z</time>
      </trkpt>
      <trkpt lat="43.817680" lon="10.344350">
        <ele>2</ele>
        <time>2019-09-05T15:24:36Z</time>
      </trkpt>
      <trkpt lat="43.817940" lon="10.345040">
        <ele>5</ele>
        <time>2019-09-05T15:24:46Z</time>
      </trkpt>
      <trkpt lat="43.818440" lon="10.345790">
        <ele>6</ele>
        <time>2019-09-05T15:24:59Z</time>
      </trkpt>
      <trkpt lat="43.818470" lon="10.345900">
        <ele>6</ele>
        <time>2019-09-05T15:25:01Z</time>
      </trkpt>
      <trkpt lat="43.819600" lon="10.347860">
        <ele>9</ele>
        <time>2019-09-05T15:25:33Z</time>
      </trkpt>
      <trkpt lat="43.820420" lon="10.352160">
        <ele>11</ele>
        <time>2019-09-05T15:26:30Z</time>
      </trkpt>
      <trkpt lat="43.821660" lon="10.358380">
        <ele>17</ele>
        <time>2019-09-05T15:27:53Z</time>
      </trkpt>
      <trkpt lat="43.822940" lon="10.365210">
        <ele>19</ele>
        <time>2019-09-05T15:29:24Z</time>
      </trkpt>
      <trkpt lat="43.823070" lon="10.365820">
        <ele>21</ele>
        <time>2019-09-05T15:29:32Z</time>
      </trkpt>
      <trkpt lat="43.823170" lon="10.366040">
        <ele>24</ele>
        <time>2019-09-05T15:29:35Z</time>
      </trkpt>
      <trkpt lat="43.823380" lon="10.366220">
        <ele>24</ele>
        <time>2019-09-05T15:29:40Z</time>
      </trkpt>
      <trkpt lat="43.824420" lon="10.366100">
        <ele>20</ele>
        <time>2019-09-05T15:29:58Z</time>
      </trkpt>
      <trkpt lat="43.824630" lon="10.366120">
        <ele>21</ele>
        <time>2019-09-05T15:30:02Z</time>
      </trkpt>
      <trkpt lat="43.824990" lon="10.367020">
        <ele>26</ele>
        <time>2019-09-05T15:30:15Z</time>
      </trkpt>
      <trkpt lat="43.825060" lon="10.367010">
        <ele>30</ele>
        <time>2019-09-05T15:30:16Z</time>
      </trkpt>
      <trkpt lat="43.825090" lon="10.367070">
        <ele>32</ele>
        <time>2019-09-05T15:30:17Z</time>
      </trkpt>
      <trkpt lat="43.825090" lon="10.367160">
        <ele>39</ele>
        <time>2019-09-05T15:30:18Z</time>
      </trkpt>
      <trkpt lat="43.825060" lon="10.367230">
        <ele>41</ele>
        <time>2019-09-05T15:30:20Z</time>
      </trkpt>
      <trkpt lat="43.824900" lon="10.367380">
        <ele>43</ele>
        <time>2019-09-05T15:30:23Z</time>
      </trkpt>
      <trkpt lat="43.824830" lon="10.367500">
        <ele>43</ele>
        <time>2019-09-05T15:30:25Z</time>
      </trkpt>
      <trkpt lat="43.824820" lon="10.367640">
        <ele>51</ele>
        <time>2019-09-05T15:30:27Z</time>
      </trkpt>
      <trkpt lat="43.824860" lon="10.367710">
        <ele>53</ele>
        <time>2019-09-05T15:30:28Z</time>
      </trkpt>
      <trkpt lat="43.824930" lon="10.367730">
        <ele>61</ele>
        <time>2019-09-05T15:30:29Z</time>
      </trkpt>
      <trkpt lat="43.825140" lon="10.367700">
        <ele>62</ele>
        <time>2019-09-05T15:30:33Z</time>
      </trkpt>
      <trkpt lat="43.825310" lon="10.367640">
        <ele>73</ele>
        <time>2019-09-05T15:30:36Z</time>
      </trkpt>
      <trkpt lat="43.826120" lon="10.367130">
        <ele>76</ele>
        <time>2019-09-05T15:30:52Z</time>
      </trkpt>
      <trkpt lat="43.826480" lon="10.366960">
        <ele>87</ele>
        <time>2019-09-05T15:30:59Z</time>
      </trkpt>
      <trkpt lat="43.826740" lon="10.366930">
        <ele>90</ele>
        <time>2019-09-05T15:31:03Z</time>
      </trkpt>
      <trkpt lat="43.827190" lon="10.366960">
        <ele>88</ele>
        <time>2019-09-05T15:31:11Z</time>
      </trkpt>
      <trkpt lat="43.827350" lon="10.366950">
        <ele>84</ele>
        <time>2019-09-05T15:31:14Z</time>
      </trkpt>
      <trkpt lat="43.827690" lon="10.366840">
        <ele>81</ele>
        <time>2019-09-05T15:31:20Z</time>
      </trkpt>
      <trkpt lat="43.827830" lon="10.366840">
        <ele>84</ele>
        <time>2019-09-05T15:31:23Z</time>
      </trkpt>
      <trkpt lat="43.828340" lon="10.367020">
        <ele>79</ele>
        <time>2019-09-05T15:31:32Z</time>
      </trkpt>
      <trkpt lat="43.828380" lon="10.367120">
        <ele>78</ele>
        <time>2019-09-05T15:31:34Z</time>
      </trkpt>
      <trkpt lat="43.828350" lon="10.367220">
        <ele>76</ele>
        <time>2019-09-05T15:31:35Z</time>
      </trkpt>
      <trkpt lat="43.828230" lon="10.367420">
        <ele>78</ele>
        <time>2019-09-05T15:31:38Z</time>
      </trkpt>
      <trkpt lat="43.828230" lon="10.367510">
        <ele>81</ele>
        <time>2019-09-05T15:31:40Z</time>
      </trkpt>
      <trkpt lat="43.828280" lon="10.367580">
        <ele>82</ele>
        <time>2019-09-05T15:31:41Z</time>
      </trkpt>
      <trkpt lat="43.828340" lon="10.367590">
        <ele>83</ele>
        <time>2019-09-05T15:31:42Z</time>
      </trkpt>
      <trkpt lat="43.828920" lon="10.367360">
        <ele>84</ele>
        <time>2019-09-05T15:31:53Z</time>
      </trkpt>
      <trkpt lat="43.829220" lon="10.367170">
        <ele>86</ele>
        <time>2019-09-05T15:31:58Z</time>
      </trkpt>
      <trkpt lat="43.829730" lon="10.366900">
        <ele>85</ele>
        <time>2019-09-05T15:32:08Z</time>
      </trkpt>
      <trkpt lat="43.830030" lon="10.366700">
        <ele>87</ele>
        <time>2019-09-05T15:32:14Z</time>
      </trkpt>
      <trkpt lat="43.830600" lon="10.366440">
        <ele>86</ele>
        <time>2019-09-05T15:32:25Z</time>
      </trkpt>
      <trkpt lat="43.830930" lon="10.366240">
        <ele>87</ele>
        <time>2019-09-05T15:32:31Z</time>
      </trkpt>
      <trkpt lat="43.832180" lon="10.365770">
        <ele>89</ele>
        <time>2019-09-05T15:32:54Z</time>
      </trkpt>
      <trkpt lat="43.832490" lon="10.365710">
        <ele>90</ele>
        <time>2019-09-05T15:33:00Z</time>
      </trkpt>
      <trkpt lat="43.832510" lon="10.365620">
        <ele>90</ele>
        <time>2019-09-05T15:33:01Z</time>
      </trkpt>
      <trkpt lat="43.832620" lon="10.365470">
        <ele>89</ele>
        <time>2019-09-05T15:33:04Z</time>
      </trkpt>
      <trkpt lat="43.832750" lon="10.365390">
        <ele>90</ele>
        <time>2019-09-05T15:33:06Z</time>
      </trkpt>
      <trkpt lat="43.833280" lon="10.365480">
        <ele>93</ele>
        <time>2019-09-05T15:33:16Z</time>
      </trkpt>
      <trkpt lat="43.833340" lon="10.365350">
        <ele>97</ele>
        <time>2019-09-05T15:33:18Z</time>
      </trkpt>
      <trkpt lat="43.833630" lon="10.365270">
        <ele>125</ele>
        <time>2019-09-05T15:33:23Z</time>
      </trkpt>
      <trkpt lat="43.834550" lon="10.364930">
        <ele>130</ele>
        <time>2019-09-05T15:33:40Z</time>
      </trkpt>
      <trkpt lat="43.834820" lon="10.364890">
        <ele>125</ele>
        <time>2019-09-05T15:33:45Z</time>
      </trkpt>
      <trkpt lat="43.835120" lon="10.364990">
        <ele>119</ele>
        <time>2019-09-05T15:33:50Z</time>
      </trkpt>
      <trkpt lat="43.835840" lon="10.365360">
        <ele>109</ele>
        <time>2019-09-05T15:34:04Z</time>
      </trkpt>
      <trkpt lat="43.835900" lon="10.365430">
        <ele>107</ele>
        <time>2019-09-05T15:34:05Z</time>
      </trkpt>
      <trkpt lat="43.835890" lon="10.365480">
        <ele>105</ele>
        <time>2019-09-05T15:34:06Z</time>
      </trkpt>
      <trkpt lat="43.835830" lon="10.365510">
        <ele>105</ele>
        <time>2019-09-05T15:34:07Z</time>
      </trkpt>
      <trkpt lat="43.835540" lon="10.365340">
        <ele>105</ele>
        <time>2019-09-05T15:34:13Z</time>
      </trkpt>
      <trkpt lat="43.834880" lon="10.365200">
        <ele>100</ele>
        <time>2019-09-05T15:34:25Z</time>
      </trkpt>
      <trkpt lat="43.834810" lon="10.365200">
        <ele>94</ele>
        <time>2019-09-05T15:34:26Z</time>
      </trkpt>
      <trkpt lat="43.834770" lon="10.365240">
        <ele>92</ele>
        <time>2019-09-05T15:34:27Z</time>
      </trkpt>
      <trkpt lat="43.834760" lon="10.365310">
        <ele>90</ele>
        <time>2019-09-05T15:34:28Z</time>
      </trkpt>
      <trkpt lat="43.834820" lon="10.365370">
        <ele>89</ele>
        <time>2019-09-05T15:34:29Z</time>
      </trkpt>
      <trkpt lat="43.835140" lon="10.365380">
        <ele>89</ele>
        <time>2019-09-05T15:34:35Z</time>
      </trkpt>
      <trkpt lat="43.835380" lon="10.365460">
        <ele>86</ele>
        <time>2019-09-05T15:34:39Z</time>
      </trkpt>
      <trkpt lat="43.835610" lon="10.365580">
        <ele>85</ele>
        <time>2019-09-05T15:34:43Z</time>
      </trkpt>
      <trkpt lat="43.835780" lon="10.365740">
        <ele>79</ele>
        <time>2019-09-05T15:34:47Z</time>
      </trkpt>
      <trkpt lat="43.835880" lon="10.365930">
        <ele>78</ele>
        <time>2019-09-05T15:34:50Z</time>
      </trkpt>
      <trkpt lat="43.836050" lon="10.367270">
        <ele>77</ele>
        <time>2019-09-05T15:35:08Z</time>
      </trkpt>
      <trkpt lat="43.836050" lon="10.367550">
        <ele>75</ele>
        <time>2019-09-05T15:35:11Z</time>
      </trkpt>
      <trkpt lat="43.835920" lon="10.368140">
        <ele>72</ele>
        <time>2019-09-05T15:35:19Z</time>
      </trkpt>
      <trkpt lat="43.835700" lon="10.368740">
        <ele>72</ele>
        <time>2019-09-05T15:35:28Z</time>
      </trkpt>
      <trkpt lat="43.835450" lon="10.369760">
        <ele>73</ele>
        <time>2019-09-05T15:35:42Z</time>
      </trkpt>
      <trkpt lat="43.835430" lon="10.369940">
        <ele>73</ele>
        <time>2019-09-05T15:35:44Z</time>
      </trkpt>
      <trkpt lat="43.835630" lon="10.370620">
        <ele>71</ele>
        <time>2019-09-05T15:35:53Z</time>
      </trkpt>
      <trkpt lat="43.835670" lon="10.370850">
        <ele>64</ele>
        <time>2019-09-05T15:35:56Z</time>
      </trkpt>
      <trkpt lat="43.835680" lon="10.371100">
        <ele>56</ele>
        <time>2019-09-05T15:36:00Z</time>
      </trkpt>
      <trkpt lat="43.835800" lon="10.372070">
        <ele>53</ele>
        <time>2019-09-05T15:36:12Z</time>
      </trkpt>
      <trkpt lat="43.835850" lon="10.373390">
        <ele>52</ele>
        <time>2019-09-05T15:36:29Z</time>
      </trkpt>
      <trkpt lat="43.835800" lon="10.373860">
        <ele>51</ele>
        <time>2019-09-05T15:36:35Z</time>
      </trkpt>
      <trkpt lat="43.835810" lon="10.374300">
        <ele>49</ele>
        <time>2019-09-05T15:36:41Z</time>
      </trkpt>
      <trkpt lat="43.835890" lon="10.374610">
        <ele>49</ele>
        <time>2019-09-05T15:36:45Z</time>
      </trkpt>
      <trkpt lat="43.836090" lon="10.375130">
        <ele>49</ele>
        <time>2019-09-05T15:36:53Z</time>
      </trkpt>
      <trkpt lat="43.836130" lon="10.375410">
        <ele>48</ele>
        <time>2019-09-05T15:36:56Z</time>
      </trkpt>
      <trkpt lat="43.836130" lon="10.375530">
        <ele>49</ele>
        <time>2019-09-05T15:36:58Z</time>
      </trkpt>
      <trkpt lat="43.836040" lon="10.376040">
        <ele>56</ele>
        <time>2019-09-05T15:37:05Z</time>
      </trkpt>
      <trkpt lat="43.836100" lon="10.376440">
        <ele>50</ele>
        <time>2019-09-05T15:37:10Z</time>
      </trkpt>
      <trkpt lat="43.836100" lon="10.376620">
        <ele>44</ele>
        <time>2019-09-05T15:37:12Z</time>
      </trkpt>
      <trkpt lat="43.836060" lon="10.376800">
        <ele>43</ele>
        <time>2019-09-05T15:37:15Z</time>
      </trkpt>
      <trkpt lat="43.835900" lon="10.377130">
        <ele>42</ele>
        <time>2019-09-05T15:37:20Z</time>
      </trkpt>
      <trkpt lat="43.835520" lon="10.378100">
        <ele>40</ele>
        <time>2019-09-05T15:37:34Z</time>
      </trkpt>
      <trkpt lat="43.835470" lon="10.378280">
        <ele>39</ele>
        <time>2019-09-05T15:37:36Z</time>
      </trkpt>
      <trkpt lat="43.835420" lon="10.378750">
        <ele>39</ele>
        <time>2019-09-05T15:37:42Z</time>
      </trkpt>
      <trkpt lat="43.835280" lon="10.379440">
        <ele>38</ele>
        <time>2019-09-05T15:37:52Z</time>
      </trkpt>
      <trkpt lat="43.835320" lon="10.380340">
        <ele>30</ele>
        <time>2019-09-05T15:38:03Z</time>
      </trkpt>
      <trkpt lat="43.835070" lon="10.381430">
        <ele>28</ele>
        <time>2019-09-05T15:38:18Z</time>
      </trkpt>
      <trkpt lat="43.834930" lon="10.381760">
        <ele>25</ele>
        <time>2019-09-05T15:38:23Z</time>
      </trkpt>
      <trkpt lat="43.834820" lon="10.381890">
        <ele>23</ele>
        <time>2019-09-05T15:38:25Z</time>
      </trkpt>
      <trkpt lat="43.834690" lon="10.382020">
        <ele>21</ele>
        <time>2019-09-05T15:38:28Z</time>
      </trkpt>
      <trkpt lat="43.834210" lon="10.382340">
        <ele>21</ele>
        <time>2019-09-05T15:38:38Z</time>
      </trkpt>
      <trkpt lat="43.834120" lon="10.382460">
        <ele>19</ele>
        <time>2019-09-05T15:38:40Z</time>
      </trkpt>
      <trkpt lat="43.834060" lon="10.382600">
        <ele>19</ele>
        <time>2019-09-05T15:38:42Z</time>
      </trkpt>
      <trkpt lat="43.834000" lon="10.382890">
        <ele>19</ele>
        <time>2019-09-05T15:38:46Z</time>
      </trkpt>
      <trkpt lat="43.833940" lon="10.383040">
        <ele>18</ele>
        <time>2019-09-05T15:38:48Z</time>
      </trkpt>
      <trkpt lat="43.833730" lon="10.383310">
        <ele>18</ele>
        <time>2019-09-05T15:38:53Z</time>
      </trkpt>
      <trkpt lat="43.833410" lon="10.384270">
        <ele>17</ele>
        <time>2019-09-05T15:39:07Z</time>
      </trkpt>
      <trkpt lat="43.833260" lon="10.384910">
        <ele>17</ele>
        <time>2019-09-05T15:39:15Z</time>
      </trkpt>
      <trkpt lat="43.833030" lon="10.385650">
        <ele>16</ele>
        <time>2019-09-05T15:39:26Z</time>
      </trkpt>
      <trkpt lat="43.833000" lon="10.385820">
        <ele>15</ele>
        <time>2019-09-05T15:39:28Z</time>
      </trkpt>
      <trkpt lat="43.833010" lon="10.386140">
        <ele>15</ele>
        <time>2019-09-05T15:39:32Z</time>
      </trkpt>
      <trkpt lat="43.832940" lon="10.386840">
        <ele>15</ele>
        <time>2019-09-05T15:39:41Z</time>
      </trkpt>
      <trkpt lat="43.832850" lon="10.387310">
        <ele>14</ele>
        <time>2019-09-05T15:39:47Z</time>
      </trkpt>
      <trkpt lat="43.832560" lon="10.388000">
        <ele>14</ele>
        <time>2019-09-05T15:39:58Z</time>
      </trkpt>
      <trkpt lat="43.832180" lon="10.389090">
        <ele>14</ele>
        <time>2019-09-05T15:40:13Z</time>
      </trkpt>
      <trkpt lat="43.832070" lon="10.389530">
        <ele>14</ele>
        <time>2019-09-05T15:40:19Z</time>
      </trkpt>
      <trkpt lat="43.831800" lon="10.389930">
        <ele>13</ele>
        <time>2019-09-05T15:40:26Z</time>
      </trkpt>
      <trkpt lat="43.831660" lon="10.390330">
        <ele>13</ele>
        <time>2019-09-05T15:40:32Z</time>
      </trkpt>
      <trkpt lat="43.831490" lon="10.390500">
        <ele>17</ele>
        <time>2019-09-05T15:40:36Z</time>
      </trkpt>
      <trkpt lat="43.831300" lon="10.390600">
        <ele>17</ele>
        <time>2019-09-05T15:40:39Z</time>
      </trkpt>
      <trkpt lat="43.831940" lon="10.391680">
        <ele>16</ele>
        <time>2019-09-05T15:40:57Z</time>
      </trkpt>
      <trkpt lat="43.831970" lon="10.391750">
        <ele>13</ele>
        <time>2019-09-05T15:40:58Z</time>
      </trkpt>
      <trkpt lat="43.831980" lon="10.391910">
        <ele>12</ele>
        <time>2019-09-05T15:41:00Z</time>
      </trkpt>
      <trkpt lat="43.831950" lon="10.392470">
        <ele>13</ele>
        <time>2019-09-05T15:41:08Z</time>
      </trkpt>
      <trkpt lat="43.831750" lon="10.393680">
        <ele>13</ele>
        <time>2019-09-05T15:41:23Z</time>
      </trkpt>
      <trkpt lat="43.831690" lon="10.393910">
        <ele>13</ele>
        <time>2019-09-05T15:41:27Z</time>
      </trkpt>
      <trkpt lat="43.831350" lon="10.394860">
        <ele>13</ele>
        <time>2019-09-05T15:41:40Z</time>
      </trkpt>
      <trkpt lat="43.831310" lon="10.395060">
        <ele>13</ele>
        <time>2019-09-05T15:41:43Z</time>
      </trkpt>
      <trkpt lat="43.831310" lon="10.395460">
        <ele>15</ele>
        <time>2019-09-05T15:41:48Z</time>
      </trkpt>
      <trkpt lat="43.831400" lon="10.396150">
        <ele>16</ele>
        <time>2019-09-05T15:41:57Z</time>
      </trkpt>
      <trkpt lat="43.831450" lon="10.396780">
        <ele>17</ele>
        <time>2019-09-05T15:42:05Z</time>
      </trkpt>
      <trkpt lat="43.831680" lon="10.397530">
        <ele>16</ele>
        <time>2019-09-05T15:42:16Z</time>
      </trkpt>
      <trkpt lat="43.831820" lon="10.398350">
        <ele>14</ele>
        <time>2019-09-05T15:42:26Z</time>
      </trkpt>
      <trkpt lat="43.831930" lon="10.398790">
        <ele>14</ele>
        <time>2019-09-05T15:42:32Z</time>
      </trkpt>
      <trkpt lat="43.832390" lon="10.400060">
        <ele>13</ele>
        <time>2019-09-05T15:42:51Z</time>
      </trkpt>
      <trkpt lat="43.832650" lon="10.400620">
        <ele>13</ele>
        <time>2019-09-05T15:42:59Z</time>
      </trkpt>
      <trkpt lat="43.832780" lon="10.400840">
        <ele>14</ele>
        <time>2019-09-05T15:43:03Z</time>
      </trkpt>
      <trkpt lat="43.833430" lon="10.401680">
        <ele>14</ele>
        <time>2019-09-05T15:43:19Z</time>
      </trkpt>
      <trkpt lat="43.833670" lon="10.402060">
        <ele>14</ele>
        <time>2019-09-05T15:43:25Z</time>
      </trkpt>
      <trkpt lat="43.833980" lon="10.403050">
        <ele>14</ele>
        <time>2019-09-05T15:43:39Z</time>
      </trkpt>
      <trkpt lat="43.834600" lon="10.404330">
        <ele>13</ele>
        <time>2019-09-05T15:43:59Z</time>
      </trkpt>
      <trkpt lat="43.835090" lon="10.405550">
        <ele>13</ele>
        <time>2019-09-05T15:44:17Z</time>
      </trkpt>
      <trkpt lat="43.835250" lon="10.405810">
        <ele>13</ele>
        <time>2019-09-05T15:44:21Z</time>
      </trkpt>
      <trkpt lat="43.835500" lon="10.406140">
        <ele>13</ele>
        <time>2019-09-05T15:44:27Z</time>
      </trkpt>
      <trkpt lat="43.835470" lon="10.406220">
        <ele>13</ele>
        <time>2019-09-05T15:44:28Z</time>
      </trkpt>
      <trkpt lat="43.835500" lon="10.406140">
        <ele>14</ele>
        <time>2019-09-05T15:44:30Z</time>
      </trkpt>
      <trkpt lat="43.835690" lon="10.406420">
        <ele>15</ele>
        <time>2019-09-05T15:44:35Z</time>
      </trkpt>
      <trkpt lat="43.836230" lon="10.406960">
        <ele>18</ele>
        <time>2019-09-05T15:44:46Z</time>
      </trkpt>
      <trkpt lat="43.836480" lon="10.407270">
        <ele>19</ele>
        <time>2019-09-05T15:44:52Z</time>
      </trkpt>
      <trkpt lat="43.836590" lon="10.407530">
        <ele>18</ele>
        <time>2019-09-05T15:44:56Z</time>
      </trkpt>
      <trkpt lat="43.836580" lon="10.407830">
        <ele>18</ele>
        <time>2019-09-05T15:45:00Z</time>
      </trkpt>
      <trkpt lat="43.836210" lon="10.409840">
        <ele>17</ele>
        <time>2019-09-05T15:45:27Z</time>
      </trkpt>
      <trkpt lat="43.836170" lon="10.410260">
        <ele>16</ele>
        <time>2019-09-05T15:45:32Z</time>
      </trkpt>
      <trkpt lat="43.836150" lon="10.410900">
        <ele>16</ele>
        <time>2019-09-05T15:45:40Z</time>
      </trkpt>
      <trkpt lat="43.836170" lon="10.412000">
        <ele>16</ele>
        <time>2019-09-05T15:45:54Z</time>
      </trkpt>
      <trkpt lat="43.836110" lon="10.412670">
        <ele>14</ele>
        <time>2019-09-05T15:46:03Z</time>
      </trkpt>
      <trkpt lat="43.836160" lon="10.413040">
        <ele>13</ele>
        <time>2019-09-05T15:46:08Z</time>
      </trkpt>
      <trkpt lat="43.836350" lon="10.413650">
        <ele>12</ele>
        <time>2019-09-05T15:46:16Z</time>
      </trkpt>
      <trkpt lat="43.836340" lon="10.413810">
        <ele>12</ele>
        <time>2019-09-05T15:46:19Z</time>
      </trkpt>
      <trkpt lat="43.836280" lon="10.413900">
        <ele>12</ele>
        <time>2019-09-05T15:46:20Z</time>
      </trkpt>
      <trkpt lat="43.836410" lon="10.413900">
        <ele>13</ele>
        <time>2019-09-05T15:46:22Z</time>
      </trkpt>
      <trkpt lat="43.837220" lon="10.414210">
        <ele>14</ele>
        <time>2019-09-05T15:46:37Z</time>
      </trkpt>
      <trkpt lat="43.837850" lon="10.414360">
        <ele>14</ele>
        <time>2019-09-05T15:46:49Z</time>
      </trkpt>
      <trkpt lat="43.839400" lon="10.414900">
        <ele>12</ele>
        <time>2019-09-05T15:47:17Z</time>
      </trkpt>
      <trkpt lat="43.839550" lon="10.414930">
        <ele>12</ele>
        <time>2019-09-05T15:47:20Z</time>
      </trkpt>
      <trkpt lat="43.839970" lon="10.414900">
        <ele>13</ele>
        <time>2019-09-05T15:47:27Z</time>
      </trkpt>
      <trkpt lat="43.840520" lon="10.414690">
        <ele>14</ele>
        <time>2019-09-05T15:47:38Z</time>
      </trkpt>
      <trkpt lat="43.840680" lon="10.414670">
        <ele>14</ele>
        <time>2019-09-05T15:47:40Z</time>
      </trkpt>
      <trkpt lat="43.840730" lon="10.414780">
        <ele>12</ele>
        <time>2019-09-05T15:47:42Z</time>
      </trkpt>
      <trkpt lat="43.840800" lon="10.415100">
        <ele>14</ele>
        <time>2019-09-05T15:47:46Z</time>
      </trkpt>
      <trkpt lat="43.841180" lon="10.416000">
        <ele>16</ele>
        <time>2019-09-05T15:48:00Z</time>
      </trkpt>
      <trkpt lat="43.841300" lon="10.416180">
        <ele>15</ele>
        <time>2019-09-05T15:48:03Z</time>
      </trkpt>
      <trkpt lat="43.841580" lon="10.416340">
        <ele>12</ele>
        <time>2019-09-05T15:48:08Z</time>
      </trkpt>
      <trkpt lat="43.841960" lon="10.416320">
        <ele>12</ele>
        <time>2019-09-05T15:48:15Z</time>
      </trkpt>
      <trkpt lat="43.842570" lon="10.416460">
        <ele>11</ele>
        <time>2019-09-05T15:48:26Z</time>
      </trkpt>
      <trkpt lat="43.842930" lon="10.416590">
        <ele>12</ele>
        <time>2019-09-05T15:48:33Z</time>
      </trkpt>
      <trkpt lat="43.843400" lon="10.416840">
        <ele>12</ele>
        <time>2019-09-05T15:48:42Z</time>
      </trkpt>
      <trkpt lat="43.843920" lon="10.417370">
        <ele>12</ele>
        <time>2019-09-05T15:48:53Z</time>
      </trkpt>
      <trkpt lat="43.843750" lon="10.418170">
        <ele>12</ele>
        <time>2019-09-05T15:49:04Z</time>
      </trkpt>
      <trkpt lat="43.843650" lon="10.418820">
        <ele>11</ele>
        <time>2019-09-05T15:49:12Z</time>
      </trkpt>
      <trkpt lat="43.843550" lon="10.419240">
        <ele>12</ele>
        <time>2019-09-05T15:49:18Z</time>
      </trkpt>
      <trkpt lat="43.843440" lon="10.419390">
        <ele>13</ele>
        <time>2019-09-05T15:49:21Z</time>
      </trkpt>
      <trkpt lat="43.842930" lon="10.419570">
        <ele>13</ele>
        <time>2019-09-05T15:49:30Z</time>
      </trkpt>
      <trkpt lat="43.842530" lon="10.420450">
        <ele>15</ele>
        <time>2019-09-05T15:49:43Z</time>
      </trkpt>
      <trkpt lat="43.842570" lon="10.421060">
        <ele>14</ele>
        <time>2019-09-05T15:49:51Z</time>
      </trkpt>
      <trkpt lat="43.842390" lon="10.422200">
        <ele>13</ele>
        <time>2019-09-05T15:50:06Z</time>
      </trkpt>
      <trkpt lat="43.842370" lon="10.422580">
        <ele>14</ele>
        <time>2019-09-05T15:50:11Z</time>
      </trkpt>
      <trkpt lat="43.842450" lon="10.423230">
        <ele>14</ele>
        <time>2019-09-05T15:50:20Z</time>
      </trkpt>
      <trkpt lat="43.842620" lon="10.423950">
        <ele>14</ele>
        <time>2019-09-05T15:50:29Z</time>
      </trkpt>
      <trkpt lat="43.842690" lon="10.424110">
        <ele>14</ele>
        <time>2019-09-05T15:50:32Z</time>
      </trkpt>
      <trkpt lat="43.842680" lon="10.424300">
        <ele>13</ele>
        <time>2019-09-05T15:50:34Z</time>
      </trkpt>
      <trkpt lat="43.842400" lon="10.424610">
        <ele>13</ele>
        <time>2019-09-05T15:50:41Z</time>
      </trkpt>
      <trkpt lat="43.842250" lon="10.424920">
        <ele>15</ele>
        <time>2019-09-05T15:50:45Z</time>
      </trkpt>
      <trkpt lat="43.842180" lon="10.426890">
        <ele>16</ele>
        <time>2019-09-05T15:51:11Z</time>
      </trkpt>
      <trkpt lat="43.842230" lon="10.431080">
        <ele>15</ele>
        <time>2019-09-05T15:52:04Z</time>
      </trkpt>
      <trkpt lat="43.842290" lon="10.432360">
        <ele>15</ele>
        <time>2019-09-05T15:52:21Z</time>
      </trkpt>
      <trkpt lat="43.842340" lon="10.432600">
        <ele>15</ele>
        <time>2019-09-05T15:52:24Z</time>
      </trkpt>
      <trkpt lat="43.842440" lon="10.432840">
        <ele>16</ele>
        <time>2019-09-05T15:52:28Z</time>
      </trkpt>
      <trkpt lat="43.842670" lon="10.433230">
        <ele>13</ele>
        <time>2019-09-05T15:52:34Z</time>
      </trkpt>
      <trkpt lat="43.843020" lon="10.433730">
        <ele>14</ele>
        <time>2019-09-05T15:52:43Z</time>
      </trkpt>
      <trkpt lat="43.843300" lon="10.434080">
        <ele>15</ele>
        <time>2019-09-05T15:52:50Z</time>
      </trkpt>
      <trkpt lat="43.843450" lon="10.434340">
        <ele>14</ele>
        <time>2019-09-05T15:52:54Z</time>
      </trkpt>
      <trkpt lat="43.844060" lon="10.436230">
        <ele>14</ele>
        <time>2019-09-05T15:53:21Z</time>
      </trkpt>
      <trkpt lat="43.844220" lon="10.437020">
        <ele>14</ele>
        <time>2019-09-05T15:53:31Z</time>
      </trkpt>
      <trkpt lat="43.844260" lon="10.437670">
        <ele>14</ele>
        <time>2019-09-05T15:53:40Z</time>
      </trkpt>
      <trkpt lat="43.844330" lon="10.438200">
        <ele>15</ele>
        <time>2019-09-05T15:53:46Z</time>
      </trkpt>
      <trkpt lat="43.844710" lon="10.439130">
        <ele>16</ele>
        <time>2019-09-05T15:54:00Z</time>
      </trkpt>
      <trkpt lat="43.844980" lon="10.439940">
        <ele>17</ele>
        <time>2019-09-05T15:54:12Z</time>
      </trkpt>
      <trkpt lat="43.845050" lon="10.440280">
        <ele>16</ele>
        <time>2019-09-05T15:54:16Z</time>
      </trkpt>
      <trkpt lat="43.845280" lon="10.442030">
        <ele>16</ele>
        <time>2019-09-05T15:54:39Z</time>
      </trkpt>
      <trkpt lat="43.845390" lon="10.442510">
        <ele>15</ele>
        <time>2019-09-05T15:54:45Z</time>
      </trkpt>
      <trkpt lat="43.845640" lon="10.442920">
        <ele>15</ele>
        <time>2019-09-05T15:54:52Z</time>
      </trkpt>
      <trkpt lat="43.845900" lon="10.443280">
        <ele>16</ele>
        <time>2019-09-05T15:54:59Z</time>
      </trkpt>
      <trkpt lat="43.846320" lon="10.443750">
        <ele>16</ele>
        <time>2019-09-05T15:55:08Z</time>
      </trkpt>
      <trkpt lat="43.846360" lon="10.443880">
        <ele>16</ele>
        <time>2019-09-05T15:55:10Z</time>
      </trkpt>
      <trkpt lat="43.846350" lon="10.444040">
        <ele>16</ele>
        <time>2019-09-05T15:55:12Z</time>
      </trkpt>
      <trkpt lat="43.846780" lon="10.444280">
        <ele>16</ele>
        <time>2019-09-05T15:55:21Z</time>
      </trkpt>
      <trkpt lat="43.849230" lon="10.445960">
        <ele>16</ele>
        <time>2019-09-05T15:56:09Z</time>
      </trkpt>
      <trkpt lat="43.849630" lon="10.446160">
        <ele>15</ele>
        <time>2019-09-05T15:56:17Z</time>
      </trkpt>
      <trkpt lat="43.851540" lon="10.446960">
        <ele>15</ele>
        <time>2019-09-05T15:56:52Z</time>
      </trkpt>
      <trkpt lat="43.851890" lon="10.447180">
        <ele>15</ele>
        <time>2019-09-05T15:56:59Z</time>
      </trkpt>
      <trkpt lat="43.852170" lon="10.447480">
        <ele>17</ele>
        <time>2019-09-05T15:57:05Z</time>
      </trkpt>
      <trkpt lat="43.852690" lon="10.448180">
        <ele>17</ele>
        <time>2019-09-05T15:57:18Z</time>
      </trkpt>
      <trkpt lat="43.852800" lon="10.448190">
        <ele>17</ele>
        <time>2019-09-05T15:57:20Z</time>
      </trkpt>
      <trkpt lat="43.853030" lon="10.448130">
        <ele>17</ele>
        <time>2019-09-05T15:57:24Z</time>
      </trkpt>
      <trkpt lat="43.853750" lon="10.448040">
        <ele>17</ele>
        <time>2019-09-05T15:57:37Z</time>
      </trkpt>
      <trkpt lat="43.854220" lon="10.448070">
        <ele>17</ele>
        <time>2019-09-05T15:57:46Z</time>
      </trkpt>
      <trkpt lat="43.854300" lon="10.448000">
        <ele>17</ele>
        <time>2019-09-05T15:57:47Z</time>
      </trkpt>
      <trkpt lat="43.854630" lon="10.447350">
        <ele>18</ele>
        <time>2019-09-05T15:57:58Z</time>
      </trkpt>
      <trkpt lat="43.855010" lon="10.447080">
        <ele>18</ele>
        <time>2019-09-05T15:58:05Z</time>
      </trkpt>
      <trkpt lat="43.855430" lon="10.446960">
        <ele>17</ele>
        <time>2019-09-05T15:58:13Z</time>
      </trkpt>
      <trkpt lat="43.855610" lon="10.446880">
        <ele>17</ele>
        <time>2019-09-05T15:58:16Z</time>
      </trkpt>
      <trkpt lat="43.855770" lon="10.446780">
        <ele>17</ele>
        <time>2019-09-05T15:58:19Z</time>
      </trkpt>
      <trkpt lat="43.856040" lon="10.446550">
        <ele>16</ele>
        <time>2019-09-05T15:58:25Z</time>
      </trkpt>
      <trkpt lat="43.855930" lon="10.446720">
        <ele>15</ele>
        <time>2019-09-05T15:58:28Z</time>
      </trkpt>
      <trkpt lat="43.855890" lon="10.446900">
        <ele>17</ele>
        <time>2019-09-05T15:58:30Z</time>
      </trkpt>
      <trkpt lat="43.855900" lon="10.446990">
        <ele>15</ele>
        <time>2019-09-05T15:58:31Z</time>
      </trkpt>
      <trkpt lat="43.856040" lon="10.447200">
        <ele>14</ele>
        <time>2019-09-05T15:58:35Z</time>
      </trkpt>
      <trkpt lat="43.856090" lon="10.447240">
        <ele>16</ele>
        <time>2019-09-05T15:58:36Z</time>
      </trkpt>
      <trkpt lat="43.855970" lon="10.447410">
        <ele>14</ele>
        <time>2019-09-05T15:58:39Z</time>
      </trkpt>
      <trkpt lat="43.854460" lon="10.448790">
        <ele>14</ele>
        <time>2019-09-05T15:59:11Z</time>
      </trkpt>
      <trkpt lat="43.854430" lon="10.448870">
        <ele>15</ele>
        <time>2019-09-05T15:59:13Z</time>
      </trkpt>
      <trkpt lat="43.854430" lon="10.449080">
        <ele>16</ele>
        <time>2019-09-05T15:59:15Z</time>
      </trkpt>
      <trkpt lat="43.854470" lon="10.449230">
        <ele>15</ele>
        <time>2019-09-05T15:59:17Z</time>
      </trkpt>
      <trkpt lat="43.854670" lon="10.449480">
        <ele>14</ele>
        <time>2019-09-05T15:59:22Z</time>
      </trkpt>
      <trkpt lat="43.854470" lon="10.449230">
        <ele>14</ele>
        <time>2019-09-05T15:59:27Z</time>
      </trkpt>
      <trkpt lat="43.854440" lon="10.449240">
        <ele>16</ele>
        <time>2019-09-05T15:59:27Z</time>
      </trkpt>
      <trkpt lat="43.854280" lon="10.449100">
        <ele>14</ele>
        <time>2019-09-05T15:59:31Z</time>
      </trkpt>
      <trkpt lat="43.854130" lon="10.449130">
        <ele>16</ele>
        <time>2019-09-05T15:59:33Z</time>
      </trkpt>
      <trkpt lat="43.854070" lon="10.449230">
        <ele>18</ele>
        <time>2019-09-05T15:59:35Z</time>
      </trkpt>
      <trkpt lat="43.854050" lon="10.449400">
        <ele>16</ele>
        <time>2019-09-05T15:59:37Z</time>
      </trkpt>
      <trkpt lat="43.854100" lon="10.449520">
        <ele>17</ele>
        <time>2019-09-05T15:59:39Z</time>
      </trkpt>
      <trkpt lat="43.854520" lon="10.450010">
        <ele>17</ele>
        <time>2019-09-05T15:59:49Z</time>
      </trkpt>
      <trkpt lat="43.855190" lon="10.450890">
        <ele>17</ele>
        <time>2019-09-05T16:00:05Z</time>
      </trkpt>
      <trkpt lat="43.855940" lon="10.452120">
        <ele>16</ele>
        <time>2019-09-05T16:00:26Z</time>
      </trkpt>
      <trkpt lat="43.856440" lon="10.453010">
        <ele>16</ele>
        <time>2019-09-05T16:00:40Z</time>
      </trkpt>
      <trkpt lat="43.856910" lon="10.454040">
        <ele>15</ele>
        <time>2019-09-05T16:00:56Z</time>
      </trkpt>
      <trkpt lat="43.857390" lon="10.455280">
        <ele>15</ele>
        <time>2019-09-05T16:01:14Z</time>
      </trkpt>
      <trkpt lat="43.857800" lon="10.456590">
        <ele>15</ele>
        <time>2019-09-05T16:01:32Z</time>
      </trkpt>
      <trkpt lat="43.857850" lon="10.456660">
        <ele>18</ele>
        <time>2019-09-05T16:01:34Z</time>
      </trkpt>
      <trkpt lat="43.857960" lon="10.456740">
        <ele>20</ele>
        <time>2019-09-05T16:01:36Z</time>
      </trkpt>
      <trkpt lat="43.858030" lon="10.457380">
        <ele>19</ele>
        <time>2019-09-05T16:01:44Z</time>
      </trkpt>
      <trkpt lat="43.858300" lon="10.458530">
        <ele>19</ele>
        <time>2019-09-05T16:02:00Z</time>
      </trkpt>
      <trkpt lat="43.858480" lon="10.459590">
        <ele>19</ele>
        <time>2019-09-05T16:02:14Z</time>
      </trkpt>
      <trkpt lat="43.858670" lon="10.461190">
        <ele>19</ele>
        <time>2019-09-05T16:02:35Z</time>
      </trkpt>
      <trkpt lat="43.858740" lon="10.462540">
        <ele>19</ele>
        <time>2019-09-05T16:02:52Z</time>
      </trkpt>
      <trkpt lat="43.858700" lon="10.464270">
        <ele>18</ele>
        <time>2019-09-05T16:03:14Z</time>
      </trkpt>
      <trkpt lat="43.858610" lon="10.465940">
        <ele>18</ele>
        <time>2019-09-05T16:03:36Z</time>
      </trkpt>
      <trkpt lat="43.858360" lon="10.467250">
        <ele>18</ele>
        <time>2019-09-05T16:03:53Z</time>
      </trkpt>
      <trkpt lat="43.858130" lon="10.468130">
        <ele>17</ele>
        <time>2019-09-05T16:04:05Z</time>
      </trkpt>
      <trkpt lat="43.857660" lon="10.469650">
        <ele>17</ele>
        <time>2019-09-05T16:04:26Z</time>
      </trkpt>
      <trkpt lat="43.857320" lon="10.470480">
        <ele>17</ele>
        <time>2019-09-05T16:04:38Z</time>
      </trkpt>
      <trkpt lat="43.857190" lon="10.470860">
        <ele>17</ele>
        <time>2019-09-05T16:04:44Z</time>
      </trkpt>
      <trkpt lat="43.856300" lon="10.472800">
        <ele>17</ele>
        <time>2019-09-05T16:05:13Z</time>
      </trkpt>
      <trkpt lat="43.855710" lon="10.474200">
        <ele>17</ele>
        <time>2019-09-05T16:05:34Z</time>
      </trkpt>
      <trkpt lat="43.855510" lon="10.474800">
        <ele>16</ele>
        <time>2019-09-05T16:05:43Z</time>
      </trkpt>
      <trkpt lat="43.854840" lon="10.477400">
        <ele>17</ele>
        <time>2019-09-05T16:06:18Z</time>
      </trkpt>
      <trkpt lat="43.854600" lon="10.479150">
        <ele>16</ele>
        <time>2019-09-05T16:06:41Z</time>
      </trkpt>
      <trkpt lat="43.854240" lon="10.485600">
        <ele>16</ele>
        <time>2019-09-05T16:08:04Z</time>
      </trkpt>
      <trkpt lat="43.854230" lon="10.486390">
        <ele>16</ele>
        <time>2019-09-05T16:08:14Z</time>
      </trkpt>
      <trkpt lat="43.854560" lon="10.486440">
        <ele>16</ele>
        <time>2019-09-05T16:08:20Z</time>
      </trkpt>
      <trkpt lat="43.854620" lon="10.486430">
        <ele>15</ele>
        <time>2019-09-05T16:08:21Z</time>
      </trkpt>
      <trkpt lat="43.854670" lon="10.486410">
        <ele>14</ele>
        <time>2019-09-05T16:08:22Z</time>
      </trkpt>
      <trkpt lat="43.854750" lon="10.486300">
        <ele>14</ele>
        <time>2019-09-05T16:08:24Z</time>
      </trkpt>
      <trkpt lat="43.854760" lon="10.486170">
        <ele>14</ele>
        <time>2019-09-05T16:08:26Z</time>
      </trkpt>
      <trkpt lat="43.852530" lon="10.485580">
        <ele>14</ele>
        <time>2019-09-05T16:09:06Z</time>
      </trkpt>
      <trkpt lat="43.852430" lon="10.485610">
        <ele>14</ele>
        <time>2019-09-05T16:09:08Z</time>
      </trkpt>
      <trkpt lat="43.852240" lon="10.486000">
        <ele>14</ele>
        <time>2019-09-05T16:09:14Z</time>
      </trkpt>
      <trkpt lat="43.851910" lon="10.486560">
        <ele>13</ele>
        <time>2019-09-05T16:09:23Z</time>
      </trkpt>
      <trkpt lat="43.851850" lon="10.486610">
        <ele>14</ele>
        <time>2019-09-05T16:09:24Z</time>
      </trkpt>
      <trkpt lat="43.851810" lon="10.486600">
        <ele>14</ele>
        <time>2019-09-05T16:09:25Z</time>
      </trkpt>
      <trkpt lat="43.851760" lon="10.486510">
        <ele>15</ele>
        <time>2019-09-05T16:09:27Z</time>
      </trkpt>
      <trkpt lat="43.851690" lon="10.485820">
        <ele>15</ele>
        <time>2019-09-05T16:09:36Z</time>
      </trkpt>
      <trkpt lat="43.851600" lon="10.485700">
        <ele>16</ele>
        <time>2019-09-05T16:09:38Z</time>
      </trkpt>
      <trkpt lat="43.848020" lon="10.486000">
        <ele>18</ele>
        <time>2019-09-05T16:10:42Z</time>
      </trkpt>
      <trkpt lat="43.847800" lon="10.486050">
        <ele>17</ele>
        <time>2019-09-05T16:10:46Z</time>
      </trkpt>
      <trkpt lat="43.847780" lon="10.486720">
        <ele>20</ele>
        <time>2019-09-05T16:10:54Z</time>
      </trkpt>
      <trkpt lat="43.847800" lon="10.487480">
        <ele>21</ele>
        <time>2019-09-05T16:11:04Z</time>
      </trkpt>
      <trkpt lat="43.847730" lon="10.487770">
        <ele>18</ele>
        <time>2019-09-05T16:11:08Z</time>
      </trkpt>
      <trkpt lat="43.847430" lon="10.488650">
        <ele>18</ele>
        <time>2019-09-05T16:11:20Z</time>
      </trkpt>
      <trkpt lat="43.847100" lon="10.489790">
        <ele>21</ele>
        <time>2019-09-05T16:11:36Z</time>
      </trkpt>
      <trkpt lat="43.847060" lon="10.490060">
        <ele>23</ele>
        <time>2019-09-05T16:11:40Z</time>
      </trkpt>
      <trkpt lat="43.847070" lon="10.490480">
        <ele>23</ele>
        <time>2019-09-05T16:11:45Z</time>
      </trkpt>
      <trkpt lat="43.847050" lon="10.490670">
        <ele>24</ele>
        <time>2019-09-05T16:11:47Z</time>
      </trkpt>
      <trkpt lat="43.846980" lon="10.490860">
        <ele>24</ele>
        <time>2019-09-05T16:11:50Z</time>
      </trkpt>
      <trkpt lat="43.846660" lon="10.491080">
        <ele>26</ele>
        <time>2019-09-05T16:11:57Z</time>
      </trkpt>
      <trkpt lat="43.846540" lon="10.491280">
        <ele>26</ele>
        <time>2019-09-05T16:12:00Z</time>
      </trkpt>
      <trkpt lat="43.846410" lon="10.491800">
        <ele>26</ele>
        <time>2019-09-05T16:12:07Z</time>
      </trkpt>
      <trkpt lat="43.846280" lon="10.492600">
        <ele>26</ele>
        <time>2019-09-05T16:12:17Z</time>
      </trkpt>
      <trkpt lat="43.846170" lon="10.492850">
        <ele>26</ele>
        <time>2019-09-05T16:12:21Z</time>
      </trkpt>
      <trkpt lat="43.846020" lon="10.493100">
        <ele>26</ele>
        <time>2019-09-05T16:12:25Z</time>
      </trkpt>
      <trkpt lat="43.845820" lon="10.493400">
        <ele>27</ele>
        <time>2019-09-05T16:12:31Z</time>
      </trkpt>
      <trkpt lat="43.845610" lon="10.493660">
        <ele>27</ele>
        <time>2019-09-05T16:12:36Z</time>
      </trkpt>
      <trkpt lat="43.845380" lon="10.494080">
        <ele>29</ele>
        <time>2019-09-05T16:12:42Z</time>
      </trkpt>
      <trkpt lat="43.844880" lon="10.495250">
        <ele>29</ele>
        <time>2019-09-05T16:13:00Z</time>
      </trkpt>
      <trkpt lat="43.844560" lon="10.496400">
        <ele>22</ele>
        <time>2019-09-05T16:13:16Z</time>
      </trkpt>
      <trkpt lat="43.844440" lon="10.496660">
        <ele>21</ele>
        <time>2019-09-05T16:13:20Z</time>
      </trkpt>
      <trkpt lat="43.844190" lon="10.497420">
        <ele>20</ele>
        <time>2019-09-05T16:13:30Z</time>
      </trkpt>
      <trkpt lat="43.843190" lon="10.497290">
        <ele>21</ele>
        <time>2019-09-05T16:13:48Z</time>
      </trkpt>
      <trkpt lat="43.843070" lon="10.498490">
        <ele>20</ele>
        <time>2019-09-05T16:14:04Z</time>
      </trkpt>
      <trkpt lat="43.843000" lon="10.499570">
        <ele>19</ele>
        <time>2019-09-05T16:14:18Z</time>
      </trkpt>
      <trkpt lat="43.842960" lon="10.499830">
        <ele>19</ele>
        <time>2019-09-05T16:14:21Z</time>
      </trkpt>
      <trkpt lat="43.842970" lon="10.500110">
        <ele>22</ele>
        <time>2019-09-05T16:14:25Z</time>
      </trkpt>
      <trkpt lat="43.842930" lon="10.500120">
        <ele>22</ele>
        <time>2019-09-05T16:14:25Z</time>
      </trkpt>
      <trkpt lat="43.842850" lon="10.501660">
        <ele>20</ele>
        <time>2019-09-05T16:14:45Z</time>
      </trkpt>
      <trkpt lat="43.842770" lon="10.501640">
        <ele>18</ele>
        <time>2019-09-05T16:14:47Z</time>
      </trkpt>
      <trkpt lat="43.842740" lon="10.501990">
        <ele>17</ele>
        <time>2019-09-05T16:14:51Z</time>
      </trkpt>
      <trkpt lat="43.842830" lon="10.502010">
        <ele>18</ele>
        <time>2019-09-05T16:14:53Z</time>
      </trkpt>
      <trkpt lat="43.842810" lon="10.502230">
        <ele>18</ele>
        <time>2019-09-05T16:14:56Z</time>
      </trkpt>
      <trkpt lat="43.842680" lon="10.502220">
        <ele>19</ele>
        <time>2019-09-05T16:14:58Z</time>
      </trkpt>
      <trkpt lat="43.842690" lon="10.502840">
        <ele>19</ele>
        <time>2019-09-05T16:15:06Z</time>
      </trkpt>
      <trkpt lat="43.842650" lon="10.503040">
        <ele>19</ele>
        <time>2019-09-05T16:15:09Z</time>
      </trkpt>
      <trkpt lat="43.842650" lon="10.503790">
        <ele>19</ele>
        <time>2019-09-05T16:15:18Z</time>
      </trkpt>
      <trkpt lat="43.842680" lon="10.504040">
        <ele>19</ele>
        <time>2019-09-05T16:15:22Z</time>
      </trkpt>
      <trkpt lat="43.842400" lon="10.507770">
        <ele>19</ele>
        <time>2019-09-05T16:16:10Z</time>
      </trkpt>
      <trkpt lat="43.842500" lon="10.508190">
        <ele>19</ele>
        <time>2019-09-05T16:16:15Z</time>
      </trkpt>
      <trkpt lat="43.842540" lon="10.508650">
        <ele>20</ele>
        <time>2019-09-05T16:16:21Z</time>
      </trkpt>
      <trkpt lat="43.842570" lon="10.508770">
        <ele>17</ele>
        <time>2019-09-05T16:16:23Z</time>
      </trkpt>
      <trkpt lat="43.842680" lon="10.509720">
        <ele>17</ele>
        <time>2019-09-05T16:16:35Z</time>
      </trkpt>
      <trkpt lat="43.842750" lon="10.510580">
        <ele>16</ele>
        <time>2019-09-05T16:16:46Z</time>
      </trkpt>
      <trkpt lat="43.843000" lon="10.512530">
        <ele>16</ele>
        <time>2019-09-05T16:17:12Z</time>
      </trkpt>
      <trkpt lat="43.843140" lon="10.513970">
        <ele>15</ele>
        <time>2019-09-05T16:17:30Z</time>
      </trkpt>
      <trkpt lat="43.843110" lon="10.514180">
        <ele>17</ele>
        <time>2019-09-05T16:17:33Z</time>
      </trkpt>
      <trkpt lat="43.842990" lon="10.514620">
        <ele>17</ele>
        <time>2019-09-05T16:17:39Z</time>
      </trkpt>
      <trkpt lat="43.842850" lon="10.514970">
        <ele>17</ele>
        <time>2019-09-05T16:17:44Z</time>
      </trkpt>
      <trkpt lat="43.842700" lon="10.515100">
        <ele>17</ele>
        <time>2019-09-05T16:17:47Z</time>
      </trkpt>
      <trkpt lat="43.842650" lon="10.515320">
        <ele>17</ele>
        <time>2019-09-05T16:17:50Z</time>
      </trkpt>
      <trkpt lat="43.842690" lon="10.515520">
        <ele>17</ele>
        <time>2019-09-05T16:17:53Z</time>
      </trkpt>
      <trkpt lat="43.842780" lon="10.515660">
        <ele>17</ele>
        <time>2019-09-05T16:17:56Z</time>
      </trkpt>
      <trkpt lat="43.842740" lon="10.516090">
        <ele>17</ele>
        <time>2019-09-05T16:18:01Z</time>
      </trkpt>
      <trkpt lat="43.842330" lon="10.518400">
        <ele>16</ele>
        <time>2019-09-05T16:18:32Z</time>
      </trkpt>
      <trkpt lat="43.842260" lon="10.518430">
        <ele>17</ele>
        <time>2019-09-05T16:18:33Z</time>
      </trkpt>
      <trkpt lat="43.842250" lon="10.518500">
        <ele>17</ele>
        <time>2019-09-05T16:18:34Z</time>
      </trkpt>
      <trkpt lat="43.842290" lon="10.518580">
        <ele>17</ele>
        <time>2019-09-05T16:18:35Z</time>
      </trkpt>
      <trkpt lat="43.842330" lon="10.518580">
        <ele>17</ele>
        <time>2019-09-05T16:18:36Z</time>
      </trkpt>
      <trkpt lat="43.842380" lon="10.518510">
        <ele>17</ele>
        <time>2019-09-05T16:18:37Z</time>
      </trkpt>
      <trkpt lat="43.843890" lon="10.518640">
        <ele>16</ele>
        <time>2019-09-05T16:19:04Z</time>
      </trkpt>
      <trkpt lat="43.844200" lon="10.520800">
        <ele>16</ele>
        <time>2019-09-05T16:19:32Z</time>
      </trkpt>
      <trkpt lat="43.844700" lon="10.524610">
        <ele>16</ele>
        <time>2019-09-05T16:20:22Z</time>
      </trkpt>
      <trkpt lat="43.844980" lon="10.527050">
        <ele>16</ele>
        <time>2019-09-05T16:20:54Z</time>
      </trkpt>
      <trkpt lat="43.845020" lon="10.527460">
        <ele>16</ele>
        <time>2019-09-05T16:20:59Z</time>
      </trkpt>
      <trkpt lat="43.844980" lon="10.528530">
        <ele>16</ele>
        <time>2019-09-05T16:21:13Z</time>
      </trkpt>
      <trkpt lat="43.844860" lon="10.528800">
        <ele>16</ele>
        <time>2019-09-05T16:21:17Z</time>
      </trkpt>
      <trkpt lat="43.844790" lon="10.528820">
        <ele>17</ele>
        <time>2019-09-05T16:21:18Z</time>
      </trkpt>
      <trkpt lat="43.844760" lon="10.528890">
        <ele>16</ele>
        <time>2019-09-05T16:21:19Z</time>
      </trkpt>
      <trkpt lat="43.844770" lon="10.528990">
        <ele>16</ele>
        <time>2019-09-05T16:21:20Z</time>
      </trkpt>
      <trkpt lat="43.844900" lon="10.529300">
        <ele>16</ele>
        <time>2019-09-05T16:21:25Z</time>
      </trkpt>
      <trkpt lat="43.844880" lon="10.529840">
        <ele>16</ele>
        <time>2019-09-05T16:21:32Z</time>
      </trkpt>
      <trkpt lat="43.844740" lon="10.531760">
        <ele>16</ele>
        <time>2019-09-05T16:21:57Z</time>
      </trkpt>
      <trkpt lat="43.844560" lon="10.534970">
        <ele>16</ele>
        <time>2019-09-05T16:22:38Z</time>
      </trkpt>
      <trkpt lat="43.844450" lon="10.536070">
        <ele>16</ele>
        <time>2019-09-05T16:22:52Z</time>
      </trkpt>
      <trkpt lat="43.844360" lon="10.536140">
        <ele>17</ele>
        <time>2019-09-05T16:22:54Z</time>
      </trkpt>
      <trkpt lat="43.844150" lon="10.536480">
        <ele>16</ele>
        <time>2019-09-05T16:23:00Z</time>
      </trkpt>
      <trkpt lat="43.844080" lon="10.536500">
        <ele>17</ele>
        <time>2019-09-05T16:23:01Z</time>
      </trkpt>
      <trkpt lat="43.843450" lon="10.536290">
        <ele>18</ele>
        <time>2019-09-05T16:23:13Z</time>
      </trkpt>
      <trkpt lat="43.843320" lon="10.536350">
        <ele>18</ele>
        <time>2019-09-05T16:23:15Z</time>
      </trkpt>
      <trkpt lat="43.843220" lon="10.536560">
        <ele>17</ele>
        <time>2019-09-05T16:23:18Z</time>
      </trkpt>
      <trkpt lat="43.843210" lon="10.536990">
        <ele>17</ele>
        <time>2019-09-05T16:23:24Z</time>
      </trkpt>
      <trkpt lat="43.843060" lon="10.537710">
        <ele>17</ele>
        <time>2019-09-05T16:23:33Z</time>
      </trkpt>
      <trkpt lat="43.842980" lon="10.538220">
        <ele>17</ele>
        <time>2019-09-05T16:23:40Z</time>
      </trkpt>
      <trkpt lat="43.842500" lon="10.540460">
        <ele>17</ele>
        <time>2019-09-05T16:24:10Z</time>
      </trkpt>
      <trkpt lat="43.842230" lon="10.541440">
        <ele>17</ele>
        <time>2019-09-05T16:24:24Z</time>
      </trkpt>
      <trkpt lat="43.842210" lon="10.541650">
        <ele>16</ele>
        <time>2019-09-05T16:24:26Z</time>
      </trkpt>
      <trkpt lat="43.842230" lon="10.542530">
        <ele>16</ele>
        <time>2019-09-05T16:24:38Z</time>
      </trkpt>
      <trkpt lat="43.842220" lon="10.543580">
        <ele>16</ele>
        <time>2019-09-05T16:24:51Z</time>
      </trkpt>
      <trkpt lat="43.842270" lon="10.543940">
        <ele>16</ele>
        <time>2019-09-05T16:24:56Z</time>
      </trkpt>
      <trkpt lat="43.842270" lon="10.544200">
        <ele>16</ele>
        <time>2019-09-05T16:24:59Z</time>
      </trkpt>
      <trkpt lat="43.842140" lon="10.544980">
        <ele>16</ele>
        <time>2019-09-05T16:25:09Z</time>
      </trkpt>
      <trkpt lat="43.841850" lon="10.546210">
        <ele>16</ele>
        <time>2019-09-05T16:25:26Z</time>
      </trkpt>
      <trkpt lat="43.841810" lon="10.547370">
        <ele>16</ele>
        <time>2019-09-05T16:25:41Z</time>
      </trkpt>
      <trkpt lat="43.841690" lon="10.548310">
        <ele>16</ele>
        <time>2019-09-05T16:25:53Z</time>
      </trkpt>
      <trkpt lat="43.841460" lon="10.549110">
        <ele>17</ele>
        <time>2019-09-05T16:26:04Z</time>
      </trkpt>
      <trkpt lat="43.841340" lon="10.551040">
        <ele>17</ele>
        <time>2019-09-05T16:26:29Z</time>
      </trkpt>
      <trkpt lat="43.841230" lon="10.551840">
        <ele>16</ele>
        <time>2019-09-05T16:26:40Z</time>
      </trkpt>
      <trkpt lat="43.841130" lon="10.552900">
        <ele>16</ele>
        <time>2019-09-05T16:26:53Z</time>
      </trkpt>
      <trkpt lat="43.840850" lon="10.554660">
        <ele>15</ele>
        <time>2019-09-05T16:27:16Z</time>
      </trkpt>
      <trkpt lat="43.840730" lon="10.554950">
        <ele>15</ele>
        <time>2019-09-05T16:27:21Z</time>
      </trkpt>
      <trkpt lat="43.840570" lon="10.555160">
        <ele>16</ele>
        <time>2019-09-05T16:27:25Z</time>
      </trkpt>
      <trkpt lat="43.840160" lon="10.555460">
        <ele>16</ele>
        <time>2019-09-05T16:27:33Z</time>
      </trkpt>
      <trkpt lat="43.840100" lon="10.555640">
        <ele>17</ele>
        <time>2019-09-05T16:27:35Z</time>
      </trkpt>
      <trkpt lat="43.840110" lon="10.555930">
        <ele>17</ele>
        <time>2019-09-05T16:27:39Z</time>
      </trkpt>
      <trkpt lat="43.840490" lon="10.557490">
        <ele>17</ele>
        <time>2019-09-05T16:28:00Z</time>
      </trkpt>
      <trkpt lat="43.840890" lon="10.558630">
        <ele>17</ele>
        <time>2019-09-05T16:28:16Z</time>
      </trkpt>
      <trkpt lat="43.840880" lon="10.558870">
        <ele>17</ele>
        <time>2019-09-05T16:28:20Z</time>
      </trkpt>
      <trkpt lat="43.840440" lon="10.559290">
        <ele>17</ele>
        <time>2019-09-05T16:28:29Z</time>
      </trkpt>
      <trkpt lat="43.840330" lon="10.559430">
        <ele>17</ele>
        <time>2019-09-05T16:28:32Z</time>
      </trkpt>
      <trkpt lat="43.840270" lon="10.559680">
        <ele>17</ele>
        <time>2019-09-05T16:28:35Z</time>
      </trkpt>
      <trkpt lat="43.840310" lon="10.559900">
        <ele>17</ele>
        <time>2019-09-05T16:28:38Z</time>
      </trkpt>
      <trkpt lat="43.840650" lon="10.560770">
        <ele>16</ele>
        <time>2019-09-05T16:28:51Z</time>
      </trkpt>
      <trkpt lat="43.841030" lon="10.561950">
        <ele>16</ele>
        <time>2019-09-05T16:29:07Z</time>
      </trkpt>
      <trkpt lat="43.841090" lon="10.562300">
        <ele>16</ele>
        <time>2019-09-05T16:29:12Z</time>
      </trkpt>
      <trkpt lat="43.841110" lon="10.562770">
        <ele>16</ele>
        <time>2019-09-05T16:29:18Z</time>
      </trkpt>
      <trkpt lat="43.841100" lon="10.563340">
        <ele>16</ele>
        <time>2019-09-05T16:29:25Z</time>
      </trkpt>
      <trkpt lat="43.841070" lon="10.563730">
        <ele>16</ele>
        <time>2019-09-05T16:29:30Z</time>
      </trkpt>
      <trkpt lat="43.840950" lon="10.564350">
        <ele>16</ele>
        <time>2019-09-05T16:29:39Z</time>
      </trkpt>
      <trkpt lat="43.841100" lon="10.564480">
        <ele>16</ele>
        <time>2019-09-05T16:29:42Z</time>
      </trkpt>
      <trkpt lat="43.841320" lon="10.564610">
        <ele>16</ele>
        <time>2019-09-05T16:29:46Z</time>
      </trkpt>
      <trkpt lat="43.841480" lon="10.564780">
        <ele>16</ele>
        <time>2019-09-05T16:29:50Z</time>
      </trkpt>
      <trkpt lat="43.841570" lon="10.565020">
        <ele>16</ele>
        <time>2019-09-05T16:29:53Z</time>
      </trkpt>
      <trkpt lat="43.841650" lon="10.565520">
        <ele>15</ele>
        <time>2019-09-05T16:30:00Z</time>
      </trkpt>
      <trkpt lat="43.841680" lon="10.565810">
        <ele>14</ele>
        <time>2019-09-05T16:30:03Z</time>
      </trkpt>
      <trkpt lat="43.841690" lon="10.567020">
        <ele>14</ele>
        <time>2019-09-05T16:30:19Z</time>
      </trkpt>
      <trkpt lat="43.841730" lon="10.567890">
        <ele>13</ele>
        <time>2019-09-05T16:30:30Z</time>
      </trkpt>
      <trkpt lat="43.841720" lon="10.568490">
        <ele>15</ele>
        <time>2019-09-05T16:30:38Z</time>
      </trkpt>
      <trkpt lat="43.841630" lon="10.570140">
        <ele>15</ele>
        <time>2019-09-05T16:30:59Z</time>
      </trkpt>
      <trkpt lat="43.841920" lon="10.570210">
        <ele>15</ele>
        <time>2019-09-05T16:31:04Z</time>
      </trkpt>
      <trkpt lat="43.842150" lon="10.570300">
        <ele>14</ele>
        <time>2019-09-05T16:31:09Z</time>
      </trkpt>
      <trkpt lat="43.842390" lon="10.570450">
        <ele>13</ele>
        <time>2019-09-05T16:31:13Z</time>
      </trkpt>
      <trkpt lat="43.842160" lon="10.570940">
        <ele>13</ele>
        <time>2019-09-05T16:31:21Z</time>
      </trkpt>
      <trkpt lat="43.842100" lon="10.571330">
        <ele>13</ele>
        <time>2019-09-05T16:31:26Z</time>
      </trkpt>
      <trkpt lat="43.842160" lon="10.572000">
        <ele>15</ele>
        <time>2019-09-05T16:31:34Z</time>
      </trkpt>
      <trkpt lat="43.842080" lon="10.573450">
        <ele>15</ele>
        <time>2019-09-05T16:31:53Z</time>
      </trkpt>
      <trkpt lat="43.843500" lon="10.573440">
        <ele>14</ele>
        <time>2019-09-05T16:32:18Z</time>
      </trkpt>
      <trkpt lat="43.844200" lon="10.573390">
        <ele>14</ele>
        <time>2019-09-05T16:32:31Z</time>
      </trkpt>
      <trkpt lat="43.845710" lon="10.573730">
        <ele>14</ele>
        <time>2019-09-05T16:32:58Z</time>
      </trkpt>
      <trkpt lat="43.846040" lon="10.573780">
        <ele>13</ele>
        <time>2019-09-05T16:33:04Z</time>
      </trkpt>
      <trkpt lat="43.846040" lon="10.574500">
        <ele>13</ele>
        <time>2019-09-05T16:33:13Z</time>
      </trkpt>
      <trkpt lat="43.846020" lon="10.574600">
        <ele>14</ele>
        <time>2019-09-05T16:33:15Z</time>
      </trkpt>
      <trkpt lat="43.846050" lon="10.575940">
        <ele>13</ele>
        <time>2019-09-05T16:33:32Z</time>
      </trkpt>
      <trkpt lat="43.846290" lon="10.577720">
        <ele>14</ele>
        <time>2019-09-05T16:33:55Z</time>
      </trkpt>
      <trkpt lat="43.846270" lon="10.578220">
        <ele>14</ele>
        <time>2019-09-05T16:34:01Z</time>
      </trkpt>
      <trkpt lat="43.845760" lon="10.580330">
        <ele>15</ele>
        <time>2019-09-05T16:34:30Z</time>
      </trkpt>
      <trkpt lat="43.848160" lon="10.580790">
        <ele>17</ele>
        <time>2019-09-05T16:35:13Z</time>
      </trkpt>
      <trkpt lat="43.848280" lon="10.580850">
        <ele>16</ele>
        <time>2019-09-05T16:35:15Z</time>
      </trkpt>
      <trkpt lat="43.848300" lon="10.580980">
        <ele>16</ele>
        <time>2019-09-05T16:35:17Z</time>
      </trkpt>
      <trkpt lat="43.848280" lon="10.581270">
        <ele>16</ele>
        <time>2019-09-05T16:35:21Z</time>
      </trkpt>
      <trkpt lat="43.848160" lon="10.581970">
        <ele>15</ele>
        <time>2019-09-05T16:35:30Z</time>
      </trkpt>
      <trkpt lat="43.848180" lon="10.582090">
        <ele>15</ele>
        <time>2019-09-05T16:35:32Z</time>
      </trkpt>
      <trkpt lat="43.848250" lon="10.582140">
        <ele>15</ele>
        <time>2019-09-05T16:35:33Z</time>
      </trkpt>
      <trkpt lat="43.850000" lon="10.582240">
        <ele>14</ele>
        <time>2019-09-05T16:36:04Z</time>
      </trkpt>
      <trkpt lat="43.850860" lon="10.582320">
        <ele>14</ele>
        <time>2019-09-05T16:36:20Z</time>
      </trkpt>
      <trkpt lat="43.851310" lon="10.584720">
        <ele>14</ele>
        <time>2019-09-05T16:36:51Z</time>
      </trkpt>
      <trkpt lat="43.851260" lon="10.586140">
        <ele>14</ele>
        <time>2019-09-05T16:37:10Z</time>
      </trkpt>
      <trkpt lat="43.851010" lon="10.586560">
        <ele>14</ele>
        <time>2019-09-05T16:37:17Z</time>
      </trkpt>
      <trkpt lat="43.850430" lon="10.587760">
        <ele>14</ele>
        <time>2019-09-05T16:37:35Z</time>
      </trkpt>
      <trkpt lat="43.850140" lon="10.588010">
        <ele>14</ele>
        <time>2019-09-05T16:37:41Z</time>
      </trkpt>
      <trkpt lat="43.849850" lon="10.588320">
        <ele>15</ele>
        <time>2019-09-05T16:37:48Z</time>
      </trkpt>
      <trkpt lat="43.849490" lon="10.589960">
        <ele>15</ele>
        <time>2019-09-05T16:38:10Z</time>
      </trkpt>
      <trkpt lat="43.849440" lon="10.590450">
        <ele>14</ele>
        <time>2019-09-05T16:38:16Z</time>
      </trkpt>
      <trkpt lat="43.849330" lon="10.590750">
        <ele>14</ele>
        <time>2019-09-05T16:38:20Z</time>
      </trkpt>
      <trkpt lat="43.849250" lon="10.591860">
        <ele>14</ele>
        <time>2019-09-05T16:38:35Z</time>
      </trkpt>
      <trkpt lat="43.849200" lon="10.592790">
        <ele>13</ele>
        <time>2019-09-05T16:38:47Z</time>
      </trkpt>
      <trkpt lat="43.849240" lon="10.593010">
        <ele>14</ele>
        <time>2019-09-05T16:38:50Z</time>
      </trkpt>
      <trkpt lat="43.849480" lon="10.592660">
        <ele>15</ele>
        <time>2019-09-05T16:38:56Z</time>
      </trkpt>
      <trkpt lat="43.849620" lon="10.592630">
        <ele>15</ele>
        <time>2019-09-05T16:38:58Z</time>
      </trkpt>
      <trkpt lat="43.849740" lon="10.592660">
        <ele>16</ele>
        <time>2019-09-05T16:39:00Z</time>
      </trkpt>
      <trkpt lat="43.849800" lon="10.592730">
        <ele>15</ele>
        <time>2019-09-05T16:39:02Z</time>
      </trkpt>
      <trkpt lat="43.849880" lon="10.592920">
        <ele>14</ele>
        <time>2019-09-05T16:39:05Z</time>
      </trkpt>
      <trkpt lat="43.849830" lon="10.594330">
        <ele>15</ele>
        <time>2019-09-05T16:39:23Z</time>
      </trkpt>
      <trkpt lat="43.849760" lon="10.598540">
        <ele>15</ele>
        <time>2019-09-05T16:40:17Z</time>
      </trkpt>
      <trkpt lat="43.849680" lon="10.599860">
        <ele>15</ele>
        <time>2019-09-05T16:40:34Z</time>
      </trkpt>
      <trkpt lat="43.849720" lon="10.600120">
        <ele>20</ele>
        <time>2019-09-05T16:40:37Z</time>
      </trkpt>
      <trkpt lat="43.849640" lon="10.600270">
        <ele>18</ele>
        <time>2019-09-05T16:40:40Z</time>
      </trkpt>
      <trkpt lat="43.849630" lon="10.600360">
        <ele>18</ele>
        <time>2019-09-05T16:40:41Z</time>
      </trkpt>
      <trkpt lat="43.849670" lon="10.600490">
        <ele>17</ele>
        <time>2019-09-05T16:40:43Z</time>
      </trkpt>
      <trkpt lat="43.849420" lon="10.600650">
        <ele>17</ele>
        <time>2019-09-05T16:40:47Z</time>
      </trkpt>
      <trkpt lat="43.849370" lon="10.600740">
        <ele>17</ele>
        <time>2019-09-05T16:40:49Z</time>
      </trkpt>
      <trkpt lat="43.849360" lon="10.600890">
        <ele>17</ele>
        <time>2019-09-05T16:40:51Z</time>
      </trkpt>
      <trkpt lat="43.849400" lon="10.601440">
        <ele>17</ele>
        <time>2019-09-05T16:40:58Z</time>
      </trkpt>
      <trkpt lat="43.849380" lon="10.602900">
        <ele>14</ele>
        <time>2019-09-05T16:41:17Z</time>
      </trkpt>
      <trkpt lat="43.849460" lon="10.604720">
        <ele>13</ele>
        <time>2019-09-05T16:41:40Z</time>
      </trkpt>
      <trkpt lat="43.849410" lon="10.605380">
        <ele>13</ele>
        <time>2019-09-05T16:41:49Z</time>
      </trkpt>
      <trkpt lat="43.849400" lon="10.607100">
        <ele>14</ele>
        <time>2019-09-05T16:42:11Z</time>
      </trkpt>
      <trkpt lat="43.849550" lon="10.613250">
        <ele>14</ele>
        <time>2019-09-05T16:43:30Z</time>
      </trkpt>
      <trkpt lat="43.847890" lon="10.613960">
        <ele>15</ele>
        <time>2019-09-05T16:44:01Z</time>
      </trkpt>
      <trkpt lat="43.846590" lon="10.614330">
        <ele>16</ele>
        <time>2019-09-05T16:44:24Z</time>
      </trkpt>
      <trkpt lat="43.845740" lon="10.614460">
        <ele>16</ele>
        <time>2019-09-05T16:44:39Z</time>
      </trkpt>
      <trkpt lat="43.844580" lon="10.614780">
        <ele>16</ele>
        <time>2019-09-05T16:45:00Z</time>
      </trkpt>
      <trkpt lat="43.843510" lon="10.615210">
        <ele>17</ele>
        <time>2019-09-05T16:45:20Z</time>
      </trkpt>
      <trkpt lat="43.841730" lon="10.615860">
        <ele>20</ele>
        <time>2019-09-05T16:45:53Z</time>
      </trkpt>
      <trkpt lat="43.841790" lon="10.617660">
        <ele>20</ele>
        <time>2019-09-05T16:46:16Z</time>
      </trkpt>
      <trkpt lat="43.840630" lon="10.617800">
        <ele>22</ele>
        <time>2019-09-05T16:46:37Z</time>
      </trkpt>
      <trkpt lat="43.840170" lon="10.618040">
        <ele>23</ele>
        <time>2019-09-05T16:46:46Z</time>
      </trkpt>
      <trkpt lat="43.839770" lon="10.618340">
        <ele>23</ele>
        <time>2019-09-05T16:46:54Z</time>
      </trkpt>
      <trkpt lat="43.839530" lon="10.618670">
        <ele>25</ele>
        <time>2019-09-05T16:47:00Z</time>
      </trkpt>
      <trkpt lat="43.839330" lon="10.619080">
        <ele>21</ele>
        <time>2019-09-05T16:47:06Z</time>
      </trkpt>
      <trkpt lat="43.839130" lon="10.619280">
        <ele>15</ele>
        <time>2019-09-05T16:47:10Z</time>
      </trkpt>
      <trkpt lat="43.838880" lon="10.619420">
        <ele>14</ele>
        <time>2019-09-05T16:47:15Z</time>
      </trkpt>
      <trkpt lat="43.837630" lon="10.619760">
        <ele>14</ele>
        <time>2019-09-05T16:47:38Z</time>
      </trkpt>
      <trkpt lat="43.837430" lon="10.619940">
        <ele>14</ele>
        <time>2019-09-05T16:47:42Z</time>
      </trkpt>
      <trkpt lat="43.837270" lon="10.620130">
        <ele>15</ele>
        <time>2019-09-05T16:47:46Z</time>
      </trkpt>
      <trkpt lat="43.836630" lon="10.621240">
        <ele>15</ele>
        <time>2019-09-05T16:48:04Z</time>
      </trkpt>
      <trkpt lat="43.835970" lon="10.622320">
        <ele>16</ele>
        <time>2019-09-05T16:48:22Z</time>
      </trkpt>
      <trkpt lat="43.835740" lon="10.622800">
        <ele>17</ele>
        <time>2019-09-05T16:48:30Z</time>
      </trkpt>
      <trkpt lat="43.835590" lon="10.623390">
        <ele>16</ele>
        <time>2019-09-05T16:48:38Z</time>
      </trkpt>
      <trkpt lat="43.835590" lon="10.625010">
        <ele>16</ele>
        <time>2019-09-05T16:48:59Z</time>
      </trkpt>
      <trkpt lat="43.835490" lon="10.625620">
        <ele>16</ele>
        <time>2019-09-05T16:49:07Z</time>
      </trkpt>
      <trkpt lat="43.835000" lon="10.627420">
        <ele>16</ele>
        <time>2019-09-05T16:49:31Z</time>
      </trkpt>
      <trkpt lat="43.834570" lon="10.628890">
        <ele>16</ele>
        <time>2019-09-05T16:49:52Z</time>
      </trkpt>
      <trkpt lat="43.834400" lon="10.629800">
        <ele>16</ele>
        <time>2019-09-05T16:50:04Z</time>
      </trkpt>
      <trkpt lat="43.834110" lon="10.631710">
        <ele>16</ele>
        <time>2019-09-05T16:50:29Z</time>
      </trkpt>
      <trkpt lat="43.833990" lon="10.632260">
        <ele>16</ele>
        <time>2019-09-05T16:50:36Z</time>
      </trkpt>
      <trkpt lat="43.833900" lon="10.632540">
        <ele>17</ele>
        <time>2019-09-05T16:50:40Z</time>
      </trkpt>
      <trkpt lat="43.833450" lon="10.633480">
        <ele>19</ele>
        <time>2019-09-05T16:50:55Z</time>
      </trkpt>
      <trkpt lat="43.833000" lon="10.634350">
        <ele>19</ele>
        <time>2019-09-05T16:51:08Z</time>
      </trkpt>
      <trkpt lat="43.831810" lon="10.635630">
        <ele>19</ele>
        <time>2019-09-05T16:51:35Z</time>
      </trkpt>
      <trkpt lat="43.831530" lon="10.635990">
        <ele>22</ele>
        <time>2019-09-05T16:51:42Z</time>
      </trkpt>
      <trkpt lat="43.831380" lon="10.636250">
        <ele>23</ele>
        <time>2019-09-05T16:51:46Z</time>
      </trkpt>
      <trkpt lat="43.831290" lon="10.636480">
        <ele>20</ele>
        <time>2019-09-05T16:51:49Z</time>
      </trkpt>
      <trkpt lat="43.831210" lon="10.636780">
        <ele>22</ele>
        <time>2019-09-05T16:51:54Z</time>
      </trkpt>
      <trkpt lat="43.831120" lon="10.636840">
        <ele>23</ele>
        <time>2019-09-05T16:51:55Z</time>
      </trkpt>
      <trkpt lat="43.830660" lon="10.637550">
        <ele>21</ele>
        <time>2019-09-05T16:52:08Z</time>
      </trkpt>
      <trkpt lat="43.830310" lon="10.638410">
        <ele>18</ele>
        <time>2019-09-05T16:52:20Z</time>
      </trkpt>
      <trkpt lat="43.830180" lon="10.638470">
        <ele>17</ele>
        <time>2019-09-05T16:52:23Z</time>
      </trkpt>
      <trkpt lat="43.830000" lon="10.638480">
        <ele>20</ele>
        <time>2019-09-05T16:52:26Z</time>
      </trkpt>
      <trkpt lat="43.829890" lon="10.638590">
        <ele>22</ele>
        <time>2019-09-05T16:52:28Z</time>
      </trkpt>
      <trkpt lat="43.829670" lon="10.639350">
        <ele>23</ele>
        <time>2019-09-05T16:52:39Z</time>
      </trkpt>
      <trkpt lat="43.829570" lon="10.639580">
        <ele>25</ele>
        <time>2019-09-05T16:52:42Z</time>
      </trkpt>
      <trkpt lat="43.829430" lon="10.639770">
        <ele>21</ele>
        <time>2019-09-05T16:52:46Z</time>
      </trkpt>
      <trkpt lat="43.829300" lon="10.639900">
        <ele>18</ele>
        <time>2019-09-05T16:52:49Z</time>
      </trkpt>
      <trkpt lat="43.829270" lon="10.640020">
        <ele>17</ele>
        <time>2019-09-05T16:52:50Z</time>
      </trkpt>
      <trkpt lat="43.828970" lon="10.640410">
        <ele>15</ele>
        <time>2019-09-05T16:52:58Z</time>
      </trkpt>
      <trkpt lat="43.828420" lon="10.640900">
        <ele>18</ele>
        <time>2019-09-05T16:53:09Z</time>
      </trkpt>
      <trkpt lat="43.828250" lon="10.641110">
        <ele>18</ele>
        <time>2019-09-05T16:53:13Z</time>
      </trkpt>
      <trkpt lat="43.827840" lon="10.641710">
        <ele>21</ele>
        <time>2019-09-05T16:53:24Z</time>
      </trkpt>
      <trkpt lat="43.827440" lon="10.642370">
        <ele>21</ele>
        <time>2019-09-05T16:53:35Z</time>
      </trkpt>
      <trkpt lat="43.827220" lon="10.642920">
        <ele>20</ele>
        <time>2019-09-05T16:53:43Z</time>
      </trkpt>
      <trkpt lat="43.823910" lon="10.642620">
        <ele>21</ele>
        <time>2019-09-05T16:54:42Z</time>
      </trkpt>
      <trkpt lat="43.823110" lon="10.642320">
        <ele>19</ele>
        <time>2019-09-05T16:54:57Z</time>
      </trkpt>
      <trkpt lat="43.822420" lon="10.642140">
        <ele>17</ele>
        <time>2019-09-05T16:55:09Z</time>
      </trkpt>
      <trkpt lat="43.822390" lon="10.643320">
        <ele>16</ele>
        <time>2019-09-05T16:55:24Z</time>
      </trkpt>
      <trkpt lat="43.821740" lon="10.643730">
        <ele>18</ele>
        <time>2019-09-05T16:55:37Z</time>
      </trkpt>
      <trkpt lat="43.821620" lon="10.644950">
        <ele>20</ele>
        <time>2019-09-05T16:55:53Z</time>
      </trkpt>
      <trkpt lat="43.821770" lon="10.645500">
        <ele>18</ele>
        <time>2019-09-05T16:56:00Z</time>
      </trkpt>
      <trkpt lat="43.821970" lon="10.646020">
        <ele>17</ele>
        <time>2019-09-05T16:56:08Z</time>
      </trkpt>
      <trkpt lat="43.821850" lon="10.647760">
        <ele>17</ele>
        <time>2019-09-05T16:56:30Z</time>
      </trkpt>
      <trkpt lat="43.821720" lon="10.648450">
        <ele>18</ele>
        <time>2019-09-05T16:56:40Z</time>
      </trkpt>
      <trkpt lat="43.821150" lon="10.649620">
        <ele>19</ele>
        <time>2019-09-05T16:56:58Z</time>
      </trkpt>
      <trkpt lat="43.820990" lon="10.650710">
        <ele>20</ele>
        <time>2019-09-05T16:57:12Z</time>
      </trkpt>
      <trkpt lat="43.820950" lon="10.650840">
        <ele>21</ele>
        <time>2019-09-05T16:57:14Z</time>
      </trkpt>
      <trkpt lat="43.820870" lon="10.651550">
        <ele>18</ele>
        <time>2019-09-05T16:57:23Z</time>
      </trkpt>
      <trkpt lat="43.820750" lon="10.652300">
        <ele>15</ele>
        <time>2019-09-05T16:57:33Z</time>
      </trkpt>
      <trkpt lat="43.820760" lon="10.652370">
        <ele>13</ele>
        <time>2019-09-05T16:57:34Z</time>
      </trkpt>
      <trkpt lat="43.820530" lon="10.653640">
        <ele>14</ele>
        <time>2019-09-05T16:57:51Z</time>
      </trkpt>
      <trkpt lat="43.820370" lon="10.654350">
        <ele>16</ele>
        <time>2019-09-05T16:58:00Z</time>
      </trkpt>
      <trkpt lat="43.820110" lon="10.655350">
        <ele>19</ele>
        <time>2019-09-05T16:58:14Z</time>
      </trkpt>
      <trkpt lat="43.819390" lon="10.657870">
        <ele>20</ele>
        <time>2019-09-05T16:58:49Z</time>
      </trkpt>
      <trkpt lat="43.818840" lon="10.659640">
        <ele>20</ele>
        <time>2019-09-05T16:59:13Z</time>
      </trkpt>
      <trkpt lat="43.818280" lon="10.661680">
        <ele>20</ele>
        <time>2019-09-05T16:59:41Z</time>
      </trkpt>
      <trkpt lat="43.817660" lon="10.663700">
        <ele>20</ele>
        <time>2019-09-05T17:00:10Z</time>
      </trkpt>
      <trkpt lat="43.817460" lon="10.664280">
        <ele>21</ele>
        <time>2019-09-05T17:00:18Z</time>
      </trkpt>
      <trkpt lat="43.817300" lon="10.664620">
        <ele>21</ele>
        <time>2019-09-05T17:00:23Z</time>
      </trkpt>
      <trkpt lat="43.816200" lon="10.667320">
        <ele>21</ele>
        <time>2019-09-05T17:01:03Z</time>
      </trkpt>
      <trkpt lat="43.816160" lon="10.667760">
        <ele>21</ele>
        <time>2019-09-05T17:01:09Z</time>
      </trkpt>
      <trkpt lat="43.816190" lon="10.668130">
        <ele>21</ele>
        <time>2019-09-05T17:01:13Z</time>
      </trkpt>
      <trkpt lat="43.816330" lon="10.668430">
        <ele>21</ele>
        <time>2019-09-05T17:01:18Z</time>
      </trkpt>
      <trkpt lat="43.816870" lon="10.669100">
        <ele>21</ele>
        <time>2019-09-05T17:01:31Z</time>
      </trkpt>
      <trkpt lat="43.817130" lon="10.669330">
        <ele>21</ele>
        <time>2019-09-05T17:01:36Z</time>
      </trkpt>
      <trkpt lat="43.817390" lon="10.669620">
        <ele>23</ele>
        <time>2019-09-05T17:01:42Z</time>
      </trkpt>
      <trkpt lat="43.816870" lon="10.670540">
        <ele>20</ele>
        <time>2019-09-05T17:01:57Z</time>
      </trkpt>
      <trkpt lat="43.816490" lon="10.671370">
        <ele>22</ele>
        <time>2019-09-05T17:02:10Z</time>
      </trkpt>
      <trkpt lat="43.816050" lon="10.672190">
        <ele>21</ele>
        <time>2019-09-05T17:02:23Z</time>
      </trkpt>
      <trkpt lat="43.815340" lon="10.673170">
        <ele>22</ele>
        <time>2019-09-05T17:02:41Z</time>
      </trkpt>
      <trkpt lat="43.815050" lon="10.673790">
        <ele>22</ele>
        <time>2019-09-05T17:02:50Z</time>
      </trkpt>
      <trkpt lat="43.814750" lon="10.674610">
        <ele>23</ele>
        <time>2019-09-05T17:03:02Z</time>
      </trkpt>
      <trkpt lat="43.814470" lon="10.675170">
        <ele>23</ele>
        <time>2019-09-05T17:03:11Z</time>
      </trkpt>
      <trkpt lat="43.813740" lon="10.676240">
        <ele>23</ele>
        <time>2019-09-05T17:03:30Z</time>
      </trkpt>
      <trkpt lat="43.813590" lon="10.676440">
        <ele>23</ele>
        <time>2019-09-05T17:03:33Z</time>
      </trkpt>
      <trkpt lat="43.813390" lon="10.676450">
        <ele>23</ele>
        <time>2019-09-05T17:03:37Z</time>
      </trkpt>
      <trkpt lat="43.812640" lon="10.676950">
        <ele>23</ele>
        <time>2019-09-05T17:03:52Z</time>
      </trkpt>
      <trkpt lat="43.812610" lon="10.676920">
        <ele>23</ele>
        <time>2019-09-05T17:03:53Z</time>
      </trkpt>
      <trkpt lat="43.812500" lon="10.676920">
        <ele>24</ele>
        <time>2019-09-05T17:03:54Z</time>
      </trkpt>
      <trkpt lat="43.812450" lon="10.677010">
        <ele>24</ele>
        <time>2019-09-05T17:03:56Z</time>
      </trkpt>
      <trkpt lat="43.812290" lon="10.677130">
        <ele>23</ele>
        <time>2019-09-05T17:03:59Z</time>
      </trkpt>
      <trkpt lat="43.812100" lon="10.677250">
        <ele>27</ele>
        <time>2019-09-05T17:04:03Z</time>
      </trkpt>
      <trkpt lat="43.811810" lon="10.677390">
        <ele>26</ele>
        <time>2019-09-05T17:04:08Z</time>
      </trkpt>
      <trkpt lat="43.811450" lon="10.677730">
        <ele>25</ele>
        <time>2019-09-05T17:04:16Z</time>
      </trkpt>
      <trkpt lat="43.810840" lon="10.678790">
        <ele>24</ele>
        <time>2019-09-05T17:04:34Z</time>
      </trkpt>
      <trkpt lat="43.809720" lon="10.681030">
        <ele>24</ele>
        <time>2019-09-05T17:05:09Z</time>
      </trkpt>
      <trkpt lat="43.808300" lon="10.683570">
        <ele>24</ele>
        <time>2019-09-05T17:05:50Z</time>
      </trkpt>
      <trkpt lat="43.806420" lon="10.686720">
        <ele>24</ele>
        <time>2019-09-05T17:06:42Z</time>
      </trkpt>
      <trkpt lat="43.805600" lon="10.687980">
        <ele>25</ele>
        <time>2019-09-05T17:07:04Z</time>
      </trkpt>
      <trkpt lat="43.805490" lon="10.687880">
        <ele>29</ele>
        <time>2019-09-05T17:07:06Z</time>
      </trkpt>
      <trkpt lat="43.805410" lon="10.687860">
        <ele>28</ele>
        <time>2019-09-05T17:07:08Z</time>
      </trkpt>
      <trkpt lat="43.805320" lon="10.687880">
        <ele>28</ele>
        <time>2019-09-05T17:07:09Z</time>
      </trkpt>
      <trkpt lat="43.805200" lon="10.687990">
        <ele>29</ele>
        <time>2019-09-05T17:07:12Z</time>
      </trkpt>
      <trkpt lat="43.805090" lon="10.688200">
        <ele>28</ele>
        <time>2019-09-05T17:07:15Z</time>
      </trkpt>
      <trkpt lat="43.804600" lon="10.687850">
        <ele>27</ele>
        <time>2019-09-05T17:07:25Z</time>
      </trkpt>
      <trkpt lat="43.804400" lon="10.687650">
        <ele>27</ele>
        <time>2019-09-05T17:07:30Z</time>
      </trkpt>
      <trkpt lat="43.804130" lon="10.687530">
        <ele>27</ele>
        <time>2019-09-05T17:07:35Z</time>
      </trkpt>
      <trkpt lat="43.803380" lon="10.687090">
        <ele>27</ele>
        <time>2019-09-05T17:07:49Z</time>
      </trkpt>
      <trkpt lat="43.802960" lon="10.686810">
        <ele>28</ele>
        <time>2019-09-05T17:07:57Z</time>
      </trkpt>
      <trkpt lat="43.802390" lon="10.686270">
        <ele>28</ele>
        <time>2019-09-05T17:08:10Z</time>
      </trkpt>
      <trkpt lat="43.801830" lon="10.685900">
        <ele>26</ele>
        <time>2019-09-05T17:08:21Z</time>
      </trkpt>
      <trkpt lat="43.801210" lon="10.685410">
        <ele>25</ele>
        <time>2019-09-05T17:08:33Z</time>
      </trkpt>
      <trkpt lat="43.800990" lon="10.685370">
        <ele>26</ele>
        <time>2019-09-05T17:08:37Z</time>
      </trkpt>
      <trkpt lat="43.800410" lon="10.685630">
        <ele>27</ele>
        <time>2019-09-05T17:08:48Z</time>
      </trkpt>
      <trkpt lat="43.799930" lon="10.685480">
        <ele>29</ele>
        <time>2019-09-05T17:08:57Z</time>
      </trkpt>
      <trkpt lat="43.799760" lon="10.685510">
        <ele>30</ele>
        <time>2019-09-05T17:09:00Z</time>
      </trkpt>
      <trkpt lat="43.799620" lon="10.685590">
        <ele>30</ele>
        <time>2019-09-05T17:09:03Z</time>
      </trkpt>
      <trkpt lat="43.799490" lon="10.685530">
        <ele>30</ele>
        <time>2019-09-05T17:09:05Z</time>
      </trkpt>
      <trkpt lat="43.799110" lon="10.684910">
        <ele>30</ele>
        <time>2019-09-05T17:09:16Z</time>
      </trkpt>
      <trkpt lat="43.798990" lon="10.684660">
        <ele>29</ele>
        <time>2019-09-05T17:09:19Z</time>
      </trkpt>
      <trkpt lat="43.798650" lon="10.684850">
        <ele>27</ele>
        <time>2019-09-05T17:09:26Z</time>
      </trkpt>
      <trkpt lat="43.797910" lon="10.685400">
        <ele>26</ele>
        <time>2019-09-05T17:09:41Z</time>
      </trkpt>
      <trkpt lat="43.797390" lon="10.685710">
        <ele>30</ele>
        <time>2019-09-05T17:09:51Z</time>
      </trkpt>
      <trkpt lat="43.797230" lon="10.685840">
        <ele>31</ele>
        <time>2019-09-05T17:09:54Z</time>
      </trkpt>
      <trkpt lat="43.797210" lon="10.686060">
        <ele>31</ele>
        <time>2019-09-05T17:09:57Z</time>
      </trkpt>
      <trkpt lat="43.797320" lon="10.686420">
        <ele>30</ele>
        <time>2019-09-05T17:10:02Z</time>
      </trkpt>
      <trkpt lat="43.797440" lon="10.686980">
        <ele>36</ele>
        <time>2019-09-05T17:10:10Z</time>
      </trkpt>
      <trkpt lat="43.797600" lon="10.687460">
        <ele>35</ele>
        <time>2019-09-05T17:10:16Z</time>
      </trkpt>
      <trkpt lat="43.797570" lon="10.687680">
        <ele>35</ele>
        <time>2019-09-05T17:10:19Z</time>
      </trkpt>
      <trkpt lat="43.796860" lon="10.687890">
        <ele>37</ele>
        <time>2019-09-05T17:10:32Z</time>
      </trkpt>
      <trkpt lat="43.795980" lon="10.688100">
        <ele>34</ele>
        <time>2019-09-05T17:10:48Z</time>
      </trkpt>
      <trkpt lat="43.794620" lon="10.688500">
        <ele>33</ele>
        <time>2019-09-05T17:11:13Z</time>
      </trkpt>
      <trkpt lat="43.794150" lon="10.688590">
        <ele>34</ele>
        <time>2019-09-05T17:11:21Z</time>
      </trkpt>
      <trkpt lat="43.793310" lon="10.688150">
        <ele>34</ele>
        <time>2019-09-05T17:11:37Z</time>
      </trkpt>
      <trkpt lat="43.793030" lon="10.688090">
        <ele>33</ele>
        <time>2019-09-05T17:11:42Z</time>
      </trkpt>
      <trkpt lat="43.792920" lon="10.688210">
        <ele>33</ele>
        <time>2019-09-05T17:11:45Z</time>
      </trkpt>
      <trkpt lat="43.792570" lon="10.688860">
        <ele>33</ele>
        <time>2019-09-05T17:11:55Z</time>
      </trkpt>
      <trkpt lat="43.792140" lon="10.688140">
        <ele>33</ele>
        <time>2019-09-05T17:12:07Z</time>
      </trkpt>
      <trkpt lat="43.791040" lon="10.689350">
        <ele>31</ele>
        <time>2019-09-05T17:12:32Z</time>
      </trkpt>
      <trkpt lat="43.790290" lon="10.690220">
        <ele>30</ele>
        <time>2019-09-05T17:12:50Z</time>
      </trkpt>
      <trkpt lat="43.790680" lon="10.690860">
        <ele>30</ele>
        <time>2019-09-05T17:13:00Z</time>
      </trkpt>
      <trkpt lat="43.788820" lon="10.692800">
        <ele>28</ele>
        <time>2019-09-05T17:13:42Z</time>
      </trkpt>
      <trkpt lat="43.787820" lon="10.693910">
        <ele>25</ele>
        <time>2019-09-05T17:14:05Z</time>
      </trkpt>
      <trkpt lat="43.787600" lon="10.693910">
        <ele>25</ele>
        <time>2019-09-05T17:14:09Z</time>
      </trkpt>
      <trkpt lat="43.787410" lon="10.694160">
        <ele>26</ele>
        <time>2019-09-05T17:14:13Z</time>
      </trkpt>
      <trkpt lat="43.785830" lon="10.696630">
        <ele>28</ele>
        <time>2019-09-05T17:14:56Z</time>
      </trkpt>
      <trkpt lat="43.785680" lon="10.696920">
        <ele>29</ele>
        <time>2019-09-05T17:15:00Z</time>
      </trkpt>
      <trkpt lat="43.784230" lon="10.698760">
        <ele>30</ele>
        <time>2019-09-05T17:15:35Z</time>
      </trkpt>
      <trkpt lat="43.782850" lon="10.700710">
        <ele>33</ele>
        <time>2019-09-05T17:16:10Z</time>
      </trkpt>
      <trkpt lat="43.781440" lon="10.702510">
        <ele>33</ele>
        <time>2019-09-05T17:16:44Z</time>
      </trkpt>
      <trkpt lat="43.781070" lon="10.702560">
        <ele>34</ele>
        <time>2019-09-05T17:16:51Z</time>
      </trkpt>
      <trkpt lat="43.780710" lon="10.702960">
        <ele>34</ele>
        <time>2019-09-05T17:16:59Z</time>
      </trkpt>
      <trkpt lat="43.780770" lon="10.702940">
        <ele>35</ele>
        <time>2019-09-05T17:17:00Z</time>
      </trkpt>
      <trkpt lat="43.781020" lon="10.703160">
        <ele>35</ele>
        <time>2019-09-05T17:17:06Z</time>
      </trkpt>
      <trkpt lat="43.781200" lon="10.703370">
        <ele>36</ele>
        <time>2019-09-05T17:17:10Z</time>
      </trkpt>
      <trkpt lat="43.781330" lon="10.703680">
        <ele>37</ele>
        <time>2019-09-05T17:17:14Z</time>
      </trkpt>
      <trkpt lat="43.781590" lon="10.704500">
        <ele>37</ele>
        <time>2019-09-05T17:17:26Z</time>
      </trkpt>
      <trkpt lat="43.781910" lon="10.705400">
        <ele>38</ele>
        <time>2019-09-05T17:17:39Z</time>
      </trkpt>
      <trkpt lat="43.781960" lon="10.705680">
        <ele>39</ele>
        <time>2019-09-05T17:17:42Z</time>
      </trkpt>
      <trkpt lat="43.781950" lon="10.705970">
        <ele>38</ele>
        <time>2019-09-05T17:17:46Z</time>
      </trkpt>
      <trkpt lat="43.782030" lon="10.706120">
        <ele>36</ele>
        <time>2019-09-05T17:17:49Z</time>
      </trkpt>
      <trkpt lat="43.782300" lon="10.706400">
        <ele>34</ele>
        <time>2019-09-05T17:17:55Z</time>
      </trkpt>
      <trkpt lat="43.782600" lon="10.706860">
        <ele>34</ele>
        <time>2019-09-05T17:18:02Z</time>
      </trkpt>
      <trkpt lat="43.782720" lon="10.706980">
        <ele>33</ele>
        <time>2019-09-05T17:18:05Z</time>
      </trkpt>
      <trkpt lat="43.782830" lon="10.707180">
        <ele>34</ele>
        <time>2019-09-05T17:18:08Z</time>
      </trkpt>
      <trkpt lat="43.782840" lon="10.707380">
        <ele>34</ele>
        <time>2019-09-05T17:18:11Z</time>
      </trkpt>
      <trkpt lat="43.782920" lon="10.707540">
        <ele>34</ele>
        <time>2019-09-05T17:18:13Z</time>
      </trkpt>
      <trkpt lat="43.783160" lon="10.707900">
        <ele>33</ele>
        <time>2019-09-05T17:18:20Z</time>
      </trkpt>
      <trkpt lat="43.783330" lon="10.708030">
        <ele>34</ele>
        <time>2019-09-05T17:18:23Z</time>
      </trkpt>
      <trkpt lat="43.783690" lon="10.708540">
        <ele>34</ele>
        <time>2019-09-05T17:18:32Z</time>
      </trkpt>
      <trkpt lat="43.783870" lon="10.708660">
        <ele>35</ele>
        <time>2019-09-05T17:18:36Z</time>
      </trkpt>
      <trkpt lat="43.784000" lon="10.708790">
        <ele>33</ele>
        <time>2019-09-05T17:18:39Z</time>
      </trkpt>
      <trkpt lat="43.784150" lon="10.709000">
        <ele>32</ele>
        <time>2019-09-05T17:18:43Z</time>
      </trkpt>
      <trkpt lat="43.784280" lon="10.709020">
        <ele>33</ele>
        <time>2019-09-05T17:18:45Z</time>
      </trkpt>
      <trkpt lat="43.784520" lon="10.708970">
        <ele>33</ele>
        <time>2019-09-05T17:18:49Z</time>
      </trkpt>
      <trkpt lat="43.784670" lon="10.708850">
        <ele>33</ele>
        <time>2019-09-05T17:18:52Z</time>
      </trkpt>
      <trkpt lat="43.784970" lon="10.708700">
        <ele>27</ele>
        <time>2019-09-05T17:18:58Z</time>
      </trkpt>
      <trkpt lat="43.785010" lon="10.708510">
        <ele>21</ele>
        <time>2019-09-05T17:19:00Z</time>
      </trkpt>
      <trkpt lat="43.785230" lon="10.708400">
        <ele>17</ele>
        <time>2019-09-05T17:19:05Z</time>
      </trkpt>
      <trkpt lat="43.785780" lon="10.709270">
        <ele>17</ele>
        <time>2019-09-05T17:19:20Z</time>
      </trkpt>
      <trkpt lat="43.786020" lon="10.709820">
        <ele>27</ele>
        <time>2019-09-05T17:19:28Z</time>
      </trkpt>
      <trkpt lat="43.786180" lon="10.710020">
        <ele>32</ele>
        <time>2019-09-05T17:19:32Z</time>
      </trkpt>
      <trkpt lat="43.786660" lon="10.710130">
        <ele>34</ele>
        <time>2019-09-05T17:19:40Z</time>
      </trkpt>
      <trkpt lat="43.786940" lon="10.710630">
        <ele>36</ele>
        <time>2019-09-05T17:19:48Z</time>
      </trkpt>
      <trkpt lat="43.785740" lon="10.711790">
        <ele>37</ele>
        <time>2019-09-05T17:20:14Z</time>
      </trkpt>
      <trkpt lat="43.785440" lon="10.711880">
        <ele>37</ele>
        <time>2019-09-05T17:20:20Z</time>
      </trkpt>
      <trkpt lat="43.784750" lon="10.712180">
        <ele>38</ele>
        <time>2019-09-05T17:20:33Z</time>
      </trkpt>
      <trkpt lat="43.784320" lon="10.712310">
        <ele>38</ele>
        <time>2019-09-05T17:20:41Z</time>
      </trkpt>
      <trkpt lat="43.783980" lon="10.712350">
        <ele>38</ele>
        <time>2019-09-05T17:20:47Z</time>
      </trkpt>
      <trkpt lat="43.783680" lon="10.712380">
        <ele>39</ele>
        <time>2019-09-05T17:20:52Z</time>
      </trkpt>
      <trkpt lat="43.782880" lon="10.712370">
        <ele>39</ele>
        <time>2019-09-05T17:21:06Z</time>
      </trkpt>
      <trkpt lat="43.782240" lon="10.712410">
        <ele>39</ele>
        <time>2019-09-05T17:21:18Z</time>
      </trkpt>
      <trkpt lat="43.781490" lon="10.712530">
        <ele>42</ele>
        <time>2019-09-05T17:21:31Z</time>
      </trkpt>
      <trkpt lat="43.781180" lon="10.712710">
        <ele>45</ele>
        <time>2019-09-05T17:21:37Z</time>
      </trkpt>
      <trkpt lat="43.780850" lon="10.712860">
        <ele>47</ele>
        <time>2019-09-05T17:21:43Z</time>
      </trkpt>
      <trkpt lat="43.780050" lon="10.713110">
        <ele>50</ele>
        <time>2019-09-05T17:21:58Z</time>
      </trkpt>
      <trkpt lat="43.779470" lon="10.713240">
        <ele>50</ele>
        <time>2019-09-05T17:22:08Z</time>
      </trkpt>
      <trkpt lat="43.779010" lon="10.713420">
        <ele>50</ele>
        <time>2019-09-05T17:22:17Z</time>
      </trkpt>
      <trkpt lat="43.778390" lon="10.714090">
        <ele>50</ele>
        <time>2019-09-05T17:22:31Z</time>
      </trkpt>
      <trkpt lat="43.777680" lon="10.714630">
        <ele>50</ele>
        <time>2019-09-05T17:22:45Z</time>
      </trkpt>
      <trkpt lat="43.777050" lon="10.715170">
        <ele>52</ele>
        <time>2019-09-05T17:22:58Z</time>
      </trkpt>
      <trkpt lat="43.776520" lon="10.715750">
        <ele>53</ele>
        <time>2019-09-05T17:23:10Z</time>
      </trkpt>
      <trkpt lat="43.775370" lon="10.717200">
        <ele>55</ele>
        <time>2019-09-05T17:23:38Z</time>
      </trkpt>
      <trkpt lat="43.774880" lon="10.717770">
        <ele>57</ele>
        <time>2019-09-05T17:23:49Z</time>
      </trkpt>
      <trkpt lat="43.775670" lon="10.719020">
        <ele>59</ele>
        <time>2019-09-05T17:24:11Z</time>
      </trkpt>
      <trkpt lat="43.776120" lon="10.719640">
        <ele>60</ele>
        <time>2019-09-05T17:24:22Z</time>
      </trkpt>
      <trkpt lat="43.776380" lon="10.720130">
        <ele>61</ele>
        <time>2019-09-05T17:24:30Z</time>
      </trkpt>
      <trkpt lat="43.776400" lon="10.720310">
        <ele>61</ele>
        <time>2019-09-05T17:24:32Z</time>
      </trkpt>
      <trkpt lat="43.776370" lon="10.720500">
        <ele>60</ele>
        <time>2019-09-05T17:24:35Z</time>
      </trkpt>
      <trkpt lat="43.775300" lon="10.721900">
        <ele>60</ele>
        <time>2019-09-05T17:25:01Z</time>
      </trkpt>
      <trkpt lat="43.775260" lon="10.722060">
        <ele>62</ele>
        <time>2019-09-05T17:25:03Z</time>
      </trkpt>
      <trkpt lat="43.775190" lon="10.724800">
        <ele>61</ele>
        <time>2019-09-05T17:25:38Z</time>
      </trkpt>
      <trkpt lat="43.775180" lon="10.726900">
        <ele>61</ele>
        <time>2019-09-05T17:26:05Z</time>
      </trkpt>
      <trkpt lat="43.775280" lon="10.728810">
        <ele>64</ele>
        <time>2019-09-05T17:26:30Z</time>
      </trkpt>
      <trkpt lat="43.774910" lon="10.731130">
        <ele>65</ele>
        <time>2019-09-05T17:27:00Z</time>
      </trkpt>
      <trkpt lat="43.774860" lon="10.731850">
        <ele>67</ele>
        <time>2019-09-05T17:27:10Z</time>
      </trkpt>
      <trkpt lat="43.775440" lon="10.732980">
        <ele>67</ele>
        <time>2019-09-05T17:27:28Z</time>
      </trkpt>
      <trkpt lat="43.777450" lon="10.736050">
        <ele>68</ele>
        <time>2019-09-05T17:28:21Z</time>
      </trkpt>
      <trkpt lat="43.777520" lon="10.736210">
        <ele>68</ele>
        <time>2019-09-05T17:28:23Z</time>
      </trkpt>
      <trkpt lat="43.777030" lon="10.736890">
        <ele>68</ele>
        <time>2019-09-05T17:28:36Z</time>
      </trkpt>
      <trkpt lat="43.776960" lon="10.737150">
        <ele>68</ele>
        <time>2019-09-05T17:28:39Z</time>
      </trkpt>
      <trkpt lat="43.777770" lon="10.738550">
        <ele>67</ele>
        <time>2019-09-05T17:29:02Z</time>
      </trkpt>
      <trkpt lat="43.779310" lon="10.741010">
        <ele>67</ele>
        <time>2019-09-05T17:29:44Z</time>
      </trkpt>
      <trkpt lat="43.779600" lon="10.741580">
        <ele>67</ele>
        <time>2019-09-05T17:29:53Z</time>
      </trkpt>
      <trkpt lat="43.779530" lon="10.744640">
        <ele>68</ele>
        <time>2019-09-05T17:30:32Z</time>
      </trkpt>
      <trkpt lat="43.779540" lon="10.745520">
        <ele>67</ele>
        <time>2019-09-05T17:30:44Z</time>
      </trkpt>
      <trkpt lat="43.780040" lon="10.746090">
        <ele>62</ele>
        <time>2019-09-05T17:30:55Z</time>
      </trkpt>
      <trkpt lat="43.780240" lon="10.746510">
        <ele>65</ele>
        <time>2019-09-05T17:31:02Z</time>
      </trkpt>
      <trkpt lat="43.780180" lon="10.748020">
        <ele>68</ele>
        <time>2019-09-05T17:31:21Z</time>
      </trkpt>
      <trkpt lat="43.780180" lon="10.749520">
        <ele>70</ele>
        <time>2019-09-05T17:31:40Z</time>
      </trkpt>
      <trkpt lat="43.780300" lon="10.750210">
        <ele>67</ele>
        <time>2019-09-05T17:31:49Z</time>
      </trkpt>
      <trkpt lat="43.780150" lon="10.750620">
        <ele>66</ele>
        <time>2019-09-05T17:31:55Z</time>
      </trkpt>
      <trkpt lat="43.779170" lon="10.751370">
        <ele>65</ele>
        <time>2019-09-05T17:32:15Z</time>
      </trkpt>
      <trkpt lat="43.778990" lon="10.751690">
        <ele>65</ele>
        <time>2019-09-05T17:32:20Z</time>
      </trkpt>
      <trkpt lat="43.778760" lon="10.753160">
        <ele>65</ele>
        <time>2019-09-05T17:32:40Z</time>
      </trkpt>
      <trkpt lat="43.777870" lon="10.755060">
        <ele>65</ele>
        <time>2019-09-05T17:33:09Z</time>
      </trkpt>
      <trkpt lat="43.777460" lon="10.755020">
        <ele>66</ele>
        <time>2019-09-05T17:33:16Z</time>
      </trkpt>
      <trkpt lat="43.777200" lon="10.755020">
        <ele>75</ele>
        <time>2019-09-05T17:33:21Z</time>
      </trkpt>
      <trkpt lat="43.777040" lon="10.755090">
        <ele>77</ele>
        <time>2019-09-05T17:33:24Z</time>
      </trkpt>
      <trkpt lat="43.776880" lon="10.755220">
        <ele>78</ele>
        <time>2019-09-05T17:33:27Z</time>
      </trkpt>
      <trkpt lat="43.776760" lon="10.755520">
        <ele>77</ele>
        <time>2019-09-05T17:33:31Z</time>
      </trkpt>
      <trkpt lat="43.776450" lon="10.756100">
        <ele>74</ele>
        <time>2019-09-05T17:33:41Z</time>
      </trkpt>
      <trkpt lat="43.776170" lon="10.756340">
        <ele>72</ele>
        <time>2019-09-05T17:33:47Z</time>
      </trkpt>
      <trkpt lat="43.775980" lon="10.756440">
        <ele>70</ele>
        <time>2019-09-05T17:33:50Z</time>
      </trkpt>
      <trkpt lat="43.774960" lon="10.756610">
        <ele>69</ele>
        <time>2019-09-05T17:34:08Z</time>
      </trkpt>
      <trkpt lat="43.773680" lon="10.757070">
        <ele>70</ele>
        <time>2019-09-05T17:34:32Z</time>
      </trkpt>
      <trkpt lat="43.772520" lon="10.757530">
        <ele>68</ele>
        <time>2019-09-05T17:34:53Z</time>
      </trkpt>
      <trkpt lat="43.772200" lon="10.757800">
        <ele>68</ele>
        <time>2019-09-05T17:35:00Z</time>
      </trkpt>
      <trkpt lat="43.771870" lon="10.758140">
        <ele>73</ele>
        <time>2019-09-05T17:35:07Z</time>
      </trkpt>
      <trkpt lat="43.771130" lon="10.758830">
        <ele>74</ele>
        <time>2019-09-05T17:35:23Z</time>
      </trkpt>
      <trkpt lat="43.770840" lon="10.759070">
        <ele>72</ele>
        <time>2019-09-05T17:35:29Z</time>
      </trkpt>
      <trkpt lat="43.770580" lon="10.759220">
        <ele>72</ele>
        <time>2019-09-05T17:35:34Z</time>
      </trkpt>
      <trkpt lat="43.770340" lon="10.759260">
        <ele>74</ele>
        <time>2019-09-05T17:35:39Z</time>
      </trkpt>
      <trkpt lat="43.770060" lon="10.759230">
        <ele>74</ele>
        <time>2019-09-05T17:35:44Z</time>
      </trkpt>
      <trkpt lat="43.769660" lon="10.759120">
        <ele>70</ele>
        <time>2019-09-05T17:35:51Z</time>
      </trkpt>
      <trkpt lat="43.769360" lon="10.758940">
        <ele>68</ele>
        <time>2019-09-05T17:35:57Z</time>
      </trkpt>
      <trkpt lat="43.768380" lon="10.758230">
        <ele>62</ele>
        <time>2019-09-05T17:36:16Z</time>
      </trkpt>
      <trkpt lat="43.767820" lon="10.757980">
        <ele>54</ele>
        <time>2019-09-05T17:36:27Z</time>
      </trkpt>
      <trkpt lat="43.767540" lon="10.757950">
        <ele>54</ele>
        <time>2019-09-05T17:36:32Z</time>
      </trkpt>
      <trkpt lat="43.767290" lon="10.758030">
        <ele>54</ele>
        <time>2019-09-05T17:36:36Z</time>
      </trkpt>
      <trkpt lat="43.766790" lon="10.758370">
        <ele>52</ele>
        <time>2019-09-05T17:36:46Z</time>
      </trkpt>
      <trkpt lat="43.766510" lon="10.758480">
        <ele>50</ele>
        <time>2019-09-05T17:36:52Z</time>
      </trkpt>
      <trkpt lat="43.765900" lon="10.758590">
        <ele>49</ele>
        <time>2019-09-05T17:37:02Z</time>
      </trkpt>
      <trkpt lat="43.765590" lon="10.758550">
        <ele>48</ele>
        <time>2019-09-05T17:37:08Z</time>
      </trkpt>
      <trkpt lat="43.764960" lon="10.759110">
        <ele>47</ele>
        <time>2019-09-05T17:37:21Z</time>
      </trkpt>
      <trkpt lat="43.764440" lon="10.759430">
        <ele>44</ele>
        <time>2019-09-05T17:37:31Z</time>
      </trkpt>
      <trkpt lat="43.764000" lon="10.759310">
        <ele>39</ele>
        <time>2019-09-05T17:37:39Z</time>
      </trkpt>
      <trkpt lat="43.763030" lon="10.758930">
        <ele>39</ele>
        <time>2019-09-05T17:37:57Z</time>
      </trkpt>
      <trkpt lat="43.762290" lon="10.758730">
        <ele>23</ele>
        <time>2019-09-05T17:38:11Z</time>
      </trkpt>
      <trkpt lat="43.762020" lon="10.758620">
        <ele>23</ele>
        <time>2019-09-05T17:38:16Z</time>
      </trkpt>
      <trkpt lat="43.762190" lon="10.759760">
        <ele>25</ele>
        <time>2019-09-05T17:38:31Z</time>
      </trkpt>
      <trkpt lat="43.762440" lon="10.760840">
        <ele>41</ele>
        <time>2019-09-05T17:38:45Z</time>
      </trkpt>
      <trkpt lat="43.762630" lon="10.761170">
        <ele>44</ele>
        <time>2019-09-05T17:38:51Z</time>
      </trkpt>
      <trkpt lat="43.762640" lon="10.762700">
        <ele>41</ele>
        <time>2019-09-05T17:39:10Z</time>
      </trkpt>
      <trkpt lat="43.762370" lon="10.763210">
        <ele>39</ele>
        <time>2019-09-05T17:39:19Z</time>
      </trkpt>
      <trkpt lat="43.762150" lon="10.763730">
        <ele>41</ele>
        <time>2019-09-05T17:39:26Z</time>
      </trkpt>
      <trkpt lat="43.762290" lon="10.765520">
        <ele>38</ele>
        <time>2019-09-05T17:39:49Z</time>
      </trkpt>
      <trkpt lat="43.762340" lon="10.765770">
        <ele>37</ele>
        <time>2019-09-05T17:39:53Z</time>
      </trkpt>
      <trkpt lat="43.762690" lon="10.766530">
        <ele>30</ele>
        <time>2019-09-05T17:40:04Z</time>
      </trkpt>
      <trkpt lat="43.762850" lon="10.766970">
        <ele>27</ele>
        <time>2019-09-05T17:40:11Z</time>
      </trkpt>
      <trkpt lat="43.762950" lon="10.767720">
        <ele>25</ele>
        <time>2019-09-05T17:40:20Z</time>
      </trkpt>
      <trkpt lat="43.762980" lon="10.768210">
        <ele>25</ele>
        <time>2019-09-05T17:40:27Z</time>
      </trkpt>
      <trkpt lat="43.762930" lon="10.768850">
        <ele>24</ele>
        <time>2019-09-05T17:40:35Z</time>
      </trkpt>
      <trkpt lat="43.762980" lon="10.769600">
        <ele>22</ele>
        <time>2019-09-05T17:40:45Z</time>
      </trkpt>
      <trkpt lat="43.763090" lon="10.770430">
        <ele>19</ele>
        <time>2019-09-05T17:40:56Z</time>
      </trkpt>
      <trkpt lat="43.762890" lon="10.771580">
        <ele>18</ele>
        <time>2019-09-05T17:41:11Z</time>
      </trkpt>
      <trkpt lat="43.762710" lon="10.772200">
        <ele>18</ele>
        <time>2019-09-05T17:41:19Z</time>
      </trkpt>
      <trkpt lat="43.760830" lon="10.771740">
        <ele>19</ele>
        <time>2019-09-05T17:41:53Z</time>
      </trkpt>
      <trkpt lat="43.759980" lon="10.771670">
        <ele>19</ele>
        <time>2019-09-05T17:42:08Z</time>
      </trkpt>
      <trkpt lat="43.758590" lon="10.771600">
        <ele>20</ele>
        <time>2019-09-05T17:42:33Z</time>
      </trkpt>
      <trkpt lat="43.756920" lon="10.771570">
        <ele>16</ele>
        <time>2019-09-05T17:43:03Z</time>
      </trkpt>
      <trkpt lat="43.756640" lon="10.771630">
        <ele>20</ele>
        <time>2019-09-05T17:43:08Z</time>
      </trkpt>
      <trkpt lat="43.756340" lon="10.771890">
        <ele>20</ele>
        <time>2019-09-05T17:43:14Z</time>
      </trkpt>
      <trkpt lat="43.755780" lon="10.772320">
        <ele>23</ele>
        <time>2019-09-05T17:43:26Z</time>
      </trkpt>
      <trkpt lat="43.754670" lon="10.773450">
        <ele>20</ele>
        <time>2019-09-05T17:43:50Z</time>
      </trkpt>
      <trkpt lat="43.754140" lon="10.774230">
        <ele>21</ele>
        <time>2019-09-05T17:44:04Z</time>
      </trkpt>
      <trkpt lat="43.753880" lon="10.774430">
        <ele>22</ele>
        <time>2019-09-05T17:44:09Z</time>
      </trkpt>
      <trkpt lat="43.753160" lon="10.774550">
        <ele>21</ele>
        <time>2019-09-05T17:44:22Z</time>
      </trkpt>
      <trkpt lat="43.752760" lon="10.774650">
        <ele>19</ele>
        <time>2019-09-05T17:44:29Z</time>
      </trkpt>
      <trkpt lat="43.752370" lon="10.774790">
        <ele>19</ele>
        <time>2019-09-05T17:44:37Z</time>
      </trkpt>
      <trkpt lat="43.752120" lon="10.774830">
        <ele>18</ele>
        <time>2019-09-05T17:44:41Z</time>
      </trkpt>
      <trkpt lat="43.751940" lon="10.774730">
        <ele>16</ele>
        <time>2019-09-05T17:44:44Z</time>
      </trkpt>
      <trkpt lat="43.751730" lon="10.774430">
        <ele>18</ele>
        <time>2019-09-05T17:44:50Z</time>
      </trkpt>
      <trkpt lat="43.751090" lon="10.773800">
        <ele>17</ele>
        <time>2019-09-05T17:45:04Z</time>
      </trkpt>
      <trkpt lat="43.750690" lon="10.773480">
        <ele>16</ele>
        <time>2019-09-05T17:45:12Z</time>
      </trkpt>
      <trkpt lat="43.750320" lon="10.773410">
        <ele>16</ele>
        <time>2019-09-05T17:45:19Z</time>
      </trkpt>
      <trkpt lat="43.749970" lon="10.773390">
        <ele>15</ele>
        <time>2019-09-05T17:45:25Z</time>
      </trkpt>
      <trkpt lat="43.749540" lon="10.773190">
        <ele>15</ele>
        <time>2019-09-05T17:45:33Z</time>
      </trkpt>
      <trkpt lat="43.749040" lon="10.772890">
        <ele>16</ele>
        <time>2019-09-05T17:45:43Z</time>
      </trkpt>
      <trkpt lat="43.748210" lon="10.772100">
        <ele>16</ele>
        <time>2019-09-05T17:46:01Z</time>
      </trkpt>
      <trkpt lat="43.747680" lon="10.771450">
        <ele>17</ele>
        <time>2019-09-05T17:46:13Z</time>
      </trkpt>
      <trkpt lat="43.747290" lon="10.771410">
        <ele>18</ele>
        <time>2019-09-05T17:46:20Z</time>
      </trkpt>
      <trkpt lat="43.746430" lon="10.770790">
        <ele>17</ele>
        <time>2019-09-05T17:46:37Z</time>
      </trkpt>
      <trkpt lat="43.745160" lon="10.769990">
        <ele>19</ele>
        <time>2019-09-05T17:47:02Z</time>
      </trkpt>
      <trkpt lat="43.745100" lon="10.769830">
        <ele>18</ele>
        <time>2019-09-05T17:47:05Z</time>
      </trkpt>
      <trkpt lat="43.745100" lon="10.769620">
        <ele>20</ele>
        <time>2019-09-05T17:47:07Z</time>
      </trkpt>
      <trkpt lat="43.744810" lon="10.769590">
        <ele>17</ele>
        <time>2019-09-05T17:47:12Z</time>
      </trkpt>
      <trkpt lat="43.744490" lon="10.769650">
        <ele>18</ele>
        <time>2019-09-05T17:47:18Z</time>
      </trkpt>
      <trkpt lat="43.744430" lon="10.769700">
        <ele>19</ele>
        <time>2019-09-05T17:47:19Z</time>
      </trkpt>
      <trkpt lat="43.744350" lon="10.769810">
        <ele>21</ele>
        <time>2019-09-05T17:47:21Z</time>
      </trkpt>
      <trkpt lat="43.744020" lon="10.770640">
        <ele>26</ele>
        <time>2019-09-05T17:47:34Z</time>
      </trkpt>
      <trkpt lat="43.741710" lon="10.777350">
        <ele>27</ele>
        <time>2019-09-05T17:49:09Z</time>
      </trkpt>
      <trkpt lat="43.740820" lon="10.779800">
        <ele>35</ele>
        <time>2019-09-05T17:49:44Z</time>
      </trkpt>
      <trkpt lat="43.740300" lon="10.780950">
        <ele>36</ele>
        <time>2019-09-05T17:50:02Z</time>
      </trkpt>
      <trkpt lat="43.740200" lon="10.780870">
        <ele>37</ele>
        <time>2019-09-05T17:50:04Z</time>
      </trkpt>
      <trkpt lat="43.740080" lon="10.780860">
        <ele>38</ele>
        <time>2019-09-05T17:50:06Z</time>
      </trkpt>
      <trkpt lat="43.739980" lon="10.780970">
        <ele>38</ele>
        <time>2019-09-05T17:50:08Z</time>
      </trkpt>
      <trkpt lat="43.739960" lon="10.781180">
        <ele>38</ele>
        <time>2019-09-05T17:50:11Z</time>
      </trkpt>
      <trkpt lat="43.739990" lon="10.781460">
        <ele>39</ele>
        <time>2019-09-05T17:50:15Z</time>
      </trkpt>
      <trkpt lat="43.740100" lon="10.781660">
        <ele>39</ele>
        <time>2019-09-05T17:50:18Z</time>
      </trkpt>
      <trkpt lat="43.739470" lon="10.783550">
        <ele>41</ele>
        <time>2019-09-05T17:50:45Z</time>
      </trkpt>
      <trkpt lat="43.737300" lon="10.789520">
        <ele>44</ele>
        <time>2019-09-05T17:52:11Z</time>
      </trkpt>
      <trkpt lat="43.736820" lon="10.790940">
        <ele>49</ele>
        <time>2019-09-05T17:52:31Z</time>
      </trkpt>
      <trkpt lat="43.736180" lon="10.792670">
        <ele>51</ele>
        <time>2019-09-05T17:52:56Z</time>
      </trkpt>
      <trkpt lat="43.735710" lon="10.794050">
        <ele>44</ele>
        <time>2019-09-05T17:53:15Z</time>
      </trkpt>
      <trkpt lat="43.735050" lon="10.795860">
        <ele>44</ele>
        <time>2019-09-05T17:53:41Z</time>
      </trkpt>
      <trkpt lat="43.734820" lon="10.796120">
        <ele>46</ele>
        <time>2019-09-05T17:53:47Z</time>
      </trkpt>
      <trkpt lat="43.734780" lon="10.796560">
        <ele>45</ele>
        <time>2019-09-05T17:53:52Z</time>
      </trkpt>
      <trkpt lat="43.732920" lon="10.801770">
        <ele>44</ele>
        <time>2019-09-05T17:55:07Z</time>
      </trkpt>
      <trkpt lat="43.732280" lon="10.803430">
        <ele>41</ele>
        <time>2019-09-05T17:55:31Z</time>
      </trkpt>
      <trkpt lat="43.732130" lon="10.803690">
        <ele>31</ele>
        <time>2019-09-05T17:55:36Z</time>
      </trkpt>
      <trkpt lat="43.731240" lon="10.804840">
        <ele>28</ele>
        <time>2019-09-05T17:55:57Z</time>
      </trkpt>
      <trkpt lat="43.731220" lon="10.804940">
        <ele>23</ele>
        <time>2019-09-05T17:55:59Z</time>
      </trkpt>
      <trkpt lat="43.731240" lon="10.805020">
        <ele>22</ele>
        <time>2019-09-05T17:56:00Z</time>
      </trkpt>
      <trkpt lat="43.731330" lon="10.805040">
        <ele>23</ele>
        <time>2019-09-05T17:56:01Z</time>
      </trkpt>
      <trkpt lat="43.731390" lon="10.805020">
        <ele>23</ele>
        <time>2019-09-05T17:56:02Z</time>
      </trkpt>
      <trkpt lat="43.731580" lon="10.804830">
        <ele>24</ele>
        <time>2019-09-05T17:56:07Z</time>
      </trkpt>
      <trkpt lat="43.731630" lon="10.804820">
        <ele>23</ele>
        <time>2019-09-05T17:56:07Z</time>
      </trkpt>
      <trkpt lat="43.731690" lon="10.804880">
        <ele>24</ele>
        <time>2019-09-05T17:56:09Z</time>
      </trkpt>
      <trkpt lat="43.731690" lon="10.805070">
        <ele>24</ele>
        <time>2019-09-05T17:56:11Z</time>
      </trkpt>
      <trkpt lat="43.731330" lon="10.805640">
        <ele>25</ele>
        <time>2019-09-05T17:56:21Z</time>
      </trkpt>
      <trkpt lat="43.730710" lon="10.806520">
        <ele>26</ele>
        <time>2019-09-05T17:56:37Z</time>
      </trkpt>
      <trkpt lat="43.730180" lon="10.807470">
        <ele>26</ele>
        <time>2019-09-05T17:56:52Z</time>
      </trkpt>
      <trkpt lat="43.729620" lon="10.807220">
        <ele>27</ele>
        <time>2019-09-05T17:57:03Z</time>
      </trkpt>
      <trkpt lat="43.729520" lon="10.807290">
        <ele>21</ele>
        <time>2019-09-05T17:57:05Z</time>
      </trkpt>
      <trkpt lat="43.729440" lon="10.807850">
        <ele>22</ele>
        <time>2019-09-05T17:57:12Z</time>
      </trkpt>
      <trkpt lat="43.729300" lon="10.808340">
        <ele>23</ele>
        <time>2019-09-05T17:57:19Z</time>
      </trkpt>
      <trkpt lat="43.729140" lon="10.808460">
        <ele>23</ele>
        <time>2019-09-05T17:57:22Z</time>
      </trkpt>
      <trkpt lat="43.728920" lon="10.808990">
        <ele>23</ele>
        <time>2019-09-05T17:57:30Z</time>
      </trkpt>
      <trkpt lat="43.727740" lon="10.808910">
        <ele>20</ele>
        <time>2019-09-05T17:57:51Z</time>
      </trkpt>
      <trkpt lat="43.727470" lon="10.809040">
        <ele>20</ele>
        <time>2019-09-05T17:57:56Z</time>
      </trkpt>
      <trkpt lat="43.725950" lon="10.810390">
        <ele>20</ele>
        <time>2019-09-05T17:58:28Z</time>
      </trkpt>
      <trkpt lat="43.725220" lon="10.810990">
        <ele>20</ele>
        <time>2019-09-05T17:58:43Z</time>
      </trkpt>
      <trkpt lat="43.724680" lon="10.811380">
        <ele>21</ele>
        <time>2019-09-05T17:58:54Z</time>
      </trkpt>
      <trkpt lat="43.724650" lon="10.811380">
        <ele>21</ele>
        <time>2019-09-05T17:58:55Z</time>
      </trkpt>
      <trkpt lat="43.724180" lon="10.811700">
        <ele>21</ele>
        <time>2019-09-05T17:59:04Z</time>
      </trkpt>
      <trkpt lat="43.723450" lon="10.812240">
        <ele>19</ele>
        <time>2019-09-05T17:59:19Z</time>
      </trkpt>
      <trkpt lat="43.722850" lon="10.812630">
        <ele>19</ele>
        <time>2019-09-05T17:59:30Z</time>
      </trkpt>
      <trkpt lat="43.722490" lon="10.812950">
        <ele>21</ele>
        <time>2019-09-05T17:59:38Z</time>
      </trkpt>
      <trkpt lat="43.722110" lon="10.813180">
        <ele>22</ele>
        <time>2019-09-05T17:59:45Z</time>
      </trkpt>
      <trkpt lat="43.721620" lon="10.813380">
        <ele>22</ele>
        <time>2019-09-05T17:59:54Z</time>
      </trkpt>
      <trkpt lat="43.721230" lon="10.813390">
        <ele>22</ele>
        <time>2019-09-05T18:00:01Z</time>
      </trkpt>
      <trkpt lat="43.720980" lon="10.813260">
        <ele>22</ele>
        <time>2019-09-05T18:00:06Z</time>
      </trkpt>
      <trkpt lat="43.718690" lon="10.811550">
        <ele>22</ele>
        <time>2019-09-05T18:00:52Z</time>
      </trkpt>
      <trkpt lat="43.718560" lon="10.811470">
        <ele>22</ele>
        <time>2019-09-05T18:00:55Z</time>
      </trkpt>
      <trkpt lat="43.718390" lon="10.811420">
        <ele>22</ele>
        <time>2019-09-05T18:00:58Z</time>
      </trkpt>
      <trkpt lat="43.718380" lon="10.811500">
        <ele>21</ele>
        <time>2019-09-05T18:00:59Z</time>
      </trkpt>
      <trkpt lat="43.718430" lon="10.811590">
        <ele>20</ele>
        <time>2019-09-05T18:01:01Z</time>
      </trkpt>
      <trkpt lat="43.718680" lon="10.811790">
        <ele>20</ele>
        <time>2019-09-05T18:01:06Z</time>
      </trkpt>
      <trkpt lat="43.718720" lon="10.811860">
        <ele>19</ele>
        <time>2019-09-05T18:01:07Z</time>
      </trkpt>
      <trkpt lat="43.718700" lon="10.811990">
        <ele>19</ele>
        <time>2019-09-05T18:01:09Z</time>
      </trkpt>
      <trkpt lat="43.718010" lon="10.813640">
        <ele>19</ele>
        <time>2019-09-05T18:01:33Z</time>
      </trkpt>
      <trkpt lat="43.717560" lon="10.814520">
        <ele>20</ele>
        <time>2019-09-05T18:01:47Z</time>
      </trkpt>
      <trkpt lat="43.717430" lon="10.814610">
        <ele>21</ele>
        <time>2019-09-05T18:01:50Z</time>
      </trkpt>
      <trkpt lat="43.717060" lon="10.814800">
        <ele>21</ele>
        <time>2019-09-05T18:01:57Z</time>
      </trkpt>
      <trkpt lat="43.716190" lon="10.816300">
        <ele>21</ele>
        <time>2019-09-05T18:02:21Z</time>
      </trkpt>
      <trkpt lat="43.716020" lon="10.816460">
        <ele>21</ele>
        <time>2019-09-05T18:02:25Z</time>
      </trkpt>
      <trkpt lat="43.714550" lon="10.817330">
        <ele>21</ele>
        <time>2019-09-05T18:02:53Z</time>
      </trkpt>
      <trkpt lat="43.713600" lon="10.817840">
        <ele>20</ele>
        <time>2019-09-05T18:03:12Z</time>
      </trkpt>
      <trkpt lat="43.713480" lon="10.817770">
        <ele>20</ele>
        <time>2019-09-05T18:03:14Z</time>
      </trkpt>
      <trkpt lat="43.713370" lon="10.817880">
        <ele>20</ele>
        <time>2019-09-05T18:03:16Z</time>
      </trkpt>
      <trkpt lat="43.712730" lon="10.818330">
        <ele>20</ele>
        <time>2019-09-05T18:03:29Z</time>
      </trkpt>
      <trkpt lat="43.712520" lon="10.818440">
        <ele>20</ele>
        <time>2019-09-05T18:03:33Z</time>
      </trkpt>
      <trkpt lat="43.712320" lon="10.818420">
        <ele>20</ele>
        <time>2019-09-05T18:03:37Z</time>
      </trkpt>
      <trkpt lat="43.712220" lon="10.818340">
        <ele>20</ele>
        <time>2019-09-05T18:03:39Z</time>
      </trkpt>
      <trkpt lat="43.711630" lon="10.817240">
        <ele>21</ele>
        <time>2019-09-05T18:03:56Z</time>
      </trkpt>
      <trkpt lat="43.711500" lon="10.817040">
        <ele>21</ele>
        <time>2019-09-05T18:04:00Z</time>
      </trkpt>
      <trkpt lat="43.711420" lon="10.817000">
        <ele>22</ele>
        <time>2019-09-05T18:04:01Z</time>
      </trkpt>
      <trkpt lat="43.710940" lon="10.817400">
        <ele>22</ele>
        <time>2019-09-05T18:04:11Z</time>
      </trkpt>
      <trkpt lat="43.710360" lon="10.817930">
        <ele>22</ele>
        <time>2019-09-05T18:04:24Z</time>
      </trkpt>
      <trkpt lat="43.710300" lon="10.818020">
        <ele>22</ele>
        <time>2019-09-05T18:04:25Z</time>
      </trkpt>
      <trkpt lat="43.710260" lon="10.818290">
        <ele>23</ele>
        <time>2019-09-05T18:04:29Z</time>
      </trkpt>
      <trkpt lat="43.710310" lon="10.818790">
        <ele>22</ele>
        <time>2019-09-05T18:04:35Z</time>
      </trkpt>
      <trkpt lat="43.710290" lon="10.818910">
        <ele>22</ele>
        <time>2019-09-05T18:04:37Z</time>
      </trkpt>
      <trkpt lat="43.710210" lon="10.819020">
        <ele>23</ele>
        <time>2019-09-05T18:04:39Z</time>
      </trkpt>
      <trkpt lat="43.710200" lon="10.819120">
        <ele>25</ele>
        <time>2019-09-05T18:04:40Z</time>
      </trkpt>
      <trkpt lat="43.710140" lon="10.819240">
        <ele>25</ele>
        <time>2019-09-05T18:04:42Z</time>
      </trkpt>
      <trkpt lat="43.709820" lon="10.819600">
        <ele>25</ele>
        <time>2019-09-05T18:04:49Z</time>
      </trkpt>
      <trkpt lat="43.709640" lon="10.819900">
        <ele>25</ele>
        <time>2019-09-05T18:04:54Z</time>
      </trkpt>
      <trkpt lat="43.708970" lon="10.820710">
        <ele>25</ele>
        <time>2019-09-05T18:05:10Z</time>
      </trkpt>
      <trkpt lat="43.707150" lon="10.824060">
        <ele>26</ele>
        <time>2019-09-05T18:06:04Z</time>
      </trkpt>
      <trkpt lat="43.706090" lon="10.825940">
        <ele>26</ele>
        <time>2019-09-05T18:06:35Z</time>
      </trkpt>
      <trkpt lat="43.705020" lon="10.827130">
        <ele>27</ele>
        <time>2019-09-05T18:06:59Z</time>
      </trkpt>
      <trkpt lat="43.704740" lon="10.827340">
        <ele>28</ele>
        <time>2019-09-05T18:07:05Z</time>
      </trkpt>
      <trkpt lat="43.704180" lon="10.827500">
        <ele>28</ele>
        <time>2019-09-05T18:07:15Z</time>
      </trkpt>
      <trkpt lat="43.704130" lon="10.827590">
        <ele>28</ele>
        <time>2019-09-05T18:07:16Z</time>
      </trkpt>
      <trkpt lat="43.704030" lon="10.827990">
        <ele>28</ele>
        <time>2019-09-05T18:07:22Z</time>
      </trkpt>
      <trkpt lat="43.703910" lon="10.828270">
        <ele>30</ele>
        <time>2019-09-05T18:07:26Z</time>
      </trkpt>
      <trkpt lat="43.702660" lon="10.829620">
        <ele>30</ele>
        <time>2019-09-05T18:07:54Z</time>
      </trkpt>
      <trkpt lat="43.701930" lon="10.830540">
        <ele>33</ele>
        <time>2019-09-05T18:08:12Z</time>
      </trkpt>
      <trkpt lat="43.701140" lon="10.831380">
        <ele>39</ele>
        <time>2019-09-05T18:08:30Z</time>
      </trkpt>
      <trkpt lat="43.700180" lon="10.832790">
        <ele>40</ele>
        <time>2019-09-05T18:08:55Z</time>
      </trkpt>
      <trkpt lat="43.699420" lon="10.833740">
        <ele>47</ele>
        <time>2019-09-05T18:09:13Z</time>
      </trkpt>
      <trkpt lat="43.698910" lon="10.834420">
        <ele>57</ele>
        <time>2019-09-05T18:09:25Z</time>
      </trkpt>
      <trkpt lat="43.698420" lon="10.835000">
        <ele>62</ele>
        <time>2019-09-05T18:09:37Z</time>
      </trkpt>
      <trkpt lat="43.695580" lon="10.838610">
        <ele>69</ele>
        <time>2019-09-05T18:10:45Z</time>
      </trkpt>
      <trkpt lat="43.695310" lon="10.838820">
        <ele>71</ele>
        <time>2019-09-05T18:10:51Z</time>
      </trkpt>
      <trkpt lat="43.695240" lon="10.838840">
        <ele>66</ele>
        <time>2019-09-05T18:10:52Z</time>
      </trkpt>
      <trkpt lat="43.695200" lon="10.838890">
        <ele>66</ele>
        <time>2019-09-05T18:10:53Z</time>
      </trkpt>
      <trkpt lat="43.695180" lon="10.839020">
        <ele>70</ele>
        <time>2019-09-05T18:10:55Z</time>
      </trkpt>
      <trkpt lat="43.695060" lon="10.839240">
        <ele>70</ele>
        <time>2019-09-05T18:10:58Z</time>
      </trkpt>
      <trkpt lat="43.694340" lon="10.840220">
        <ele>72</ele>
        <time>2019-09-05T18:11:16Z</time>
      </trkpt>
      <trkpt lat="43.693930" lon="10.840730">
        <ele>77</ele>
        <time>2019-09-05T18:11:26Z</time>
      </trkpt>
      <trkpt lat="43.693720" lon="10.840950">
        <ele>83</ele>
        <time>2019-09-05T18:11:31Z</time>
      </trkpt>
      <trkpt lat="43.693380" lon="10.841160">
        <ele>88</ele>
        <time>2019-09-05T18:11:38Z</time>
      </trkpt>
      <trkpt lat="43.693390" lon="10.841340">
        <ele>93</ele>
        <time>2019-09-05T18:11:40Z</time>
      </trkpt>
      <trkpt lat="43.692330" lon="10.842010">
        <ele>97</ele>
        <time>2019-09-05T18:12:01Z</time>
      </trkpt>
      <trkpt lat="43.690150" lon="10.843150">
        <ele>97</ele>
        <time>2019-09-05T18:12:42Z</time>
      </trkpt>
      <trkpt lat="43.689150" lon="10.843230">
        <ele>106</ele>
        <time>2019-09-05T18:13:00Z</time>
      </trkpt>
      <trkpt lat="43.688550" lon="10.843230">
        <ele>112</ele>
        <time>2019-09-05T18:13:11Z</time>
      </trkpt>
      <trkpt lat="43.688150" lon="10.842510">
        <ele>117</ele>
        <time>2019-09-05T18:13:22Z</time>
      </trkpt>
      <trkpt lat="43.687530" lon="10.842480">
        <ele>121</ele>
        <time>2019-09-05T18:13:33Z</time>
      </trkpt>
      <trkpt lat="43.686940" lon="10.842500">
        <ele>125</ele>
        <time>2019-09-05T18:13:44Z</time>
      </trkpt>
      <trkpt lat="43.686570" lon="10.842420">
        <ele>129</ele>
        <time>2019-09-05T18:13:50Z</time>
      </trkpt>
      <trkpt lat="43.686390" lon="10.842460">
        <ele>129</ele>
        <time>2019-09-05T18:13:54Z</time>
      </trkpt>
      <trkpt lat="43.686400" lon="10.842650">
        <ele>131</ele>
        <time>2019-09-05T18:13:56Z</time>
      </trkpt>
      <trkpt lat="43.686920" lon="10.843310">
        <ele>133</ele>
        <time>2019-09-05T18:14:09Z</time>
      </trkpt>
      <trkpt lat="43.686870" lon="10.843570">
        <ele>134</ele>
        <time>2019-09-05T18:14:12Z</time>
      </trkpt>
      <trkpt lat="43.686630" lon="10.843950">
        <ele>137</ele>
        <time>2019-09-05T18:14:19Z</time>
      </trkpt>
      <trkpt lat="43.686450" lon="10.844090">
        <ele>140</ele>
        <time>2019-09-05T18:14:22Z</time>
      </trkpt>
      <trkpt lat="43.686220" lon="10.844080">
        <ele>138</ele>
        <time>2019-09-05T18:14:26Z</time>
      </trkpt>
      <trkpt lat="43.685920" lon="10.843940">
        <ele>137</ele>
        <time>2019-09-05T18:14:32Z</time>
      </trkpt>
      <trkpt lat="43.685490" lon="10.843800">
        <ele>141</ele>
        <time>2019-09-05T18:14:40Z</time>
      </trkpt>
      <trkpt lat="43.685090" lon="10.843720">
        <ele>142</ele>
        <time>2019-09-05T18:14:47Z</time>
      </trkpt>
      <trkpt lat="43.684510" lon="10.843680">
        <ele>143</ele>
        <time>2019-09-05T18:14:57Z</time>
      </trkpt>
      <trkpt lat="43.684110" lon="10.843620">
        <ele>143</ele>
        <time>2019-09-05T18:15:05Z</time>
      </trkpt>
      <trkpt lat="43.683850" lon="10.843650">
        <ele>142</ele>
        <time>2019-09-05T18:15:09Z</time>
      </trkpt>
      <trkpt lat="43.682830" lon="10.844390">
        <ele>138</ele>
        <time>2019-09-05T18:15:30Z</time>
      </trkpt>
      <trkpt lat="43.682380" lon="10.844740">
        <ele>138</ele>
        <time>2019-09-05T18:15:39Z</time>
      </trkpt>
      <trkpt lat="43.682130" lon="10.844980">
        <ele>136</ele>
        <time>2019-09-05T18:15:44Z</time>
      </trkpt>
      <trkpt lat="43.682030" lon="10.845320">
        <ele>135</ele>
        <time>2019-09-05T18:15:49Z</time>
      </trkpt>
      <trkpt lat="43.682010" lon="10.845710">
        <ele>137</ele>
        <time>2019-09-05T18:15:54Z</time>
      </trkpt>
      <trkpt lat="43.682210" lon="10.846600">
        <ele>143</ele>
        <time>2019-09-05T18:16:06Z</time>
      </trkpt>
      <trkpt lat="43.682250" lon="10.846960">
        <ele>145</ele>
        <time>2019-09-05T18:16:11Z</time>
      </trkpt>
      <trkpt lat="43.682200" lon="10.847040">
        <ele>145</ele>
        <time>2019-09-05T18:16:12Z</time>
      </trkpt>
      <trkpt lat="43.682120" lon="10.847040">
        <ele>145</ele>
        <time>2019-09-05T18:16:14Z</time>
      </trkpt>
      <trkpt lat="43.682060" lon="10.846800">
        <ele>144</ele>
        <time>2019-09-05T18:16:17Z</time>
      </trkpt>
      <trkpt lat="43.681850" lon="10.846450">
        <ele>146</ele>
        <time>2019-09-05T18:16:23Z</time>
      </trkpt>
      <trkpt lat="43.681640" lon="10.846310">
        <ele>146</ele>
        <time>2019-09-05T18:16:27Z</time>
      </trkpt>
      <trkpt lat="43.681440" lon="10.846260">
        <ele>140</ele>
        <time>2019-09-05T18:16:30Z</time>
      </trkpt>
      <trkpt lat="43.681300" lon="10.846330">
        <ele>129</ele>
        <time>2019-09-05T18:16:33Z</time>
      </trkpt>
      <trkpt lat="43.681300" lon="10.846580">
        <ele>124</ele>
        <time>2019-09-05T18:16:36Z</time>
      </trkpt>
      <trkpt lat="43.681250" lon="10.846740">
        <ele>120</ele>
        <time>2019-09-05T18:16:39Z</time>
      </trkpt>
      <trkpt lat="43.680350" lon="10.847620">
        <ele>119</ele>
        <time>2019-09-05T18:16:58Z</time>
      </trkpt>
      <trkpt lat="43.679570" lon="10.848280">
        <ele>118</ele>
        <time>2019-09-05T18:17:14Z</time>
      </trkpt>
      <trkpt lat="43.679470" lon="10.848330">
        <ele>117</ele>
        <time>2019-09-05T18:17:16Z</time>
      </trkpt>
      <trkpt lat="43.679740" lon="10.849120">
        <ele>118</ele>
        <time>2019-09-05T18:17:28Z</time>
      </trkpt>
      <trkpt lat="43.679800" lon="10.849360">
        <ele>119</ele>
        <time>2019-09-05T18:17:31Z</time>
      </trkpt>
      <trkpt lat="43.679790" lon="10.849750">
        <ele>118</ele>
        <time>2019-09-05T18:17:36Z</time>
      </trkpt>
      <trkpt lat="43.679730" lon="10.850020">
        <ele>116</ele>
        <time>2019-09-05T18:17:40Z</time>
      </trkpt>
      <trkpt lat="43.679600" lon="10.850310">
        <ele>118</ele>
        <time>2019-09-05T18:17:44Z</time>
      </trkpt>
      <trkpt lat="43.679490" lon="10.850740">
        <ele>119</ele>
        <time>2019-09-05T18:17:50Z</time>
      </trkpt>
      <trkpt lat="43.679400" lon="10.850980">
        <ele>123</ele>
        <time>2019-09-05T18:17:53Z</time>
      </trkpt>
      <trkpt lat="43.679320" lon="10.851270">
        <ele>130</ele>
        <time>2019-09-05T18:17:57Z</time>
      </trkpt>
      <trkpt lat="43.679330" lon="10.851390">
        <ele>130</ele>
        <time>2019-09-05T18:17:59Z</time>
      </trkpt>
      <trkpt lat="43.679480" lon="10.852230">
        <ele>127</ele>
        <time>2019-09-05T18:18:10Z</time>
      </trkpt>
      <trkpt lat="43.679670" lon="10.852580">
        <ele>123</ele>
        <time>2019-09-05T18:18:16Z</time>
      </trkpt>
      <trkpt lat="43.679770" lon="10.852850">
        <ele>120</ele>
        <time>2019-09-05T18:18:19Z</time>
      </trkpt>
      <trkpt lat="43.679920" lon="10.853780">
        <ele>119</ele>
        <time>2019-09-05T18:18:32Z</time>
      </trkpt>
      <trkpt lat="43.680250" lon="10.854960">
        <ele>119</ele>
        <time>2019-09-05T18:18:48Z</time>
      </trkpt>
      <trkpt lat="43.680270" lon="10.855280">
        <ele>120</ele>
        <time>2019-09-05T18:18:52Z</time>
      </trkpt>
      <trkpt lat="43.680140" lon="10.855570">
        <ele>127</ele>
        <time>2019-09-05T18:18:57Z</time>
      </trkpt>
      <trkpt lat="43.680120" lon="10.855670">
        <ele>126</ele>
        <time>2019-09-05T18:18:58Z</time>
      </trkpt>
      <trkpt lat="43.680000" lon="10.855910">
        <ele>124</ele>
        <time>2019-09-05T18:19:02Z</time>
      </trkpt>
      <trkpt lat="43.679940" lon="10.856310">
        <ele>123</ele>
        <time>2019-09-05T18:19:07Z</time>
      </trkpt>
      <trkpt lat="43.679950" lon="10.856520">
        <ele>122</ele>
        <time>2019-09-05T18:19:10Z</time>
      </trkpt>
      <trkpt lat="43.679980" lon="10.856730">
        <ele>122</ele>
        <time>2019-09-05T18:19:12Z</time>
      </trkpt>
      <trkpt lat="43.680090" lon="10.857070">
        <ele>122</ele>
        <time>2019-09-05T18:19:17Z</time>
      </trkpt>
      <trkpt lat="43.680410" lon="10.857820">
        <ele>116</ele>
        <time>2019-09-05T18:19:28Z</time>
      </trkpt>
      <trkpt lat="43.680530" lon="10.858410">
        <ele>113</ele>
        <time>2019-09-05T18:19:36Z</time>
      </trkpt>
      <trkpt lat="43.680560" lon="10.859580">
        <ele>113</ele>
        <time>2019-09-05T18:19:51Z</time>
      </trkpt>
      <trkpt lat="43.680620" lon="10.860140">
        <ele>114</ele>
        <time>2019-09-05T18:19:59Z</time>
      </trkpt>
      <trkpt lat="43.680570" lon="10.861150">
        <ele>112</ele>
        <time>2019-09-05T18:20:12Z</time>
      </trkpt>
      <trkpt lat="43.680520" lon="10.861370">
        <ele>108</ele>
        <time>2019-09-05T18:20:15Z</time>
      </trkpt>
      <trkpt lat="43.680310" lon="10.861780">
        <ele>110</ele>
        <time>2019-09-05T18:20:21Z</time>
      </trkpt>
      <trkpt lat="43.680270" lon="10.861960">
        <ele>114</ele>
        <time>2019-09-05T18:20:23Z</time>
      </trkpt>
      <trkpt lat="43.680270" lon="10.862140">
        <ele>116</ele>
        <time>2019-09-05T18:20:26Z</time>
      </trkpt>
      <trkpt lat="43.680390" lon="10.862240">
        <ele>123</ele>
        <time>2019-09-05T18:20:28Z</time>
      </trkpt>
      <trkpt lat="43.680460" lon="10.862240">
        <ele>125</ele>
        <time>2019-09-05T18:20:30Z</time>
      </trkpt>
      <trkpt lat="43.680530" lon="10.862210">
        <ele>128</ele>
        <time>2019-09-05T18:20:31Z</time>
      </trkpt>
      <trkpt lat="43.681060" lon="10.861760">
        <ele>129</ele>
        <time>2019-09-05T18:20:42Z</time>
      </trkpt>
      <trkpt lat="43.681110" lon="10.861770">
        <ele>135</ele>
        <time>2019-09-05T18:20:43Z</time>
      </trkpt>
      <trkpt lat="43.681150" lon="10.861820">
        <ele>139</ele>
        <time>2019-09-05T18:20:44Z</time>
      </trkpt>
      <trkpt lat="43.681140" lon="10.861890">
        <ele>144</ele>
        <time>2019-09-05T18:20:45Z</time>
      </trkpt>
      <trkpt lat="43.681110" lon="10.861950">
        <ele>140</ele>
        <time>2019-09-05T18:20:46Z</time>
      </trkpt>
      <trkpt lat="43.681040" lon="10.862010">
        <ele>139</ele>
        <time>2019-09-05T18:20:47Z</time>
      </trkpt>
      <trkpt lat="43.680820" lon="10.862160">
        <ele>137</ele>
        <time>2019-09-05T18:20:51Z</time>
      </trkpt>
      <trkpt lat="43.680570" lon="10.862440">
        <ele>138</ele>
        <time>2019-09-05T18:20:57Z</time>
      </trkpt>
      <trkpt lat="43.680370" lon="10.862530">
        <ele>139</ele>
        <time>2019-09-05T18:21:01Z</time>
      </trkpt>
      <trkpt lat="43.680250" lon="10.862510">
        <ele>138</ele>
        <time>2019-09-05T18:21:03Z</time>
      </trkpt>
      <trkpt lat="43.679930" lon="10.862360">
        <ele>130</ele>
        <time>2019-09-05T18:21:09Z</time>
      </trkpt>
      <trkpt lat="43.679360" lon="10.861810">
        <ele>119</ele>
        <time>2019-09-05T18:21:21Z</time>
      </trkpt>
      <trkpt lat="43.679140" lon="10.861850">
        <ele>119</ele>
        <time>2019-09-05T18:21:25Z</time>
      </trkpt>
      <trkpt lat="43.679010" lon="10.861940">
        <ele>120</ele>
        <time>2019-09-05T18:21:28Z</time>
      </trkpt>
      <trkpt lat="43.678820" lon="10.862160">
        <ele>124</ele>
        <time>2019-09-05T18:21:32Z</time>
      </trkpt>
      <trkpt lat="43.678710" lon="10.862250">
        <ele>129</ele>
        <time>2019-09-05T18:21:35Z</time>
      </trkpt>
      <trkpt lat="43.678460" lon="10.862320">
        <ele>128</ele>
        <time>2019-09-05T18:21:39Z</time>
      </trkpt>
      <trkpt lat="43.678400" lon="10.862440">
        <ele>124</ele>
        <time>2019-09-05T18:21:41Z</time>
      </trkpt>
      <trkpt lat="43.678390" lon="10.863520">
        <ele>115</ele>
        <time>2019-09-05T18:21:55Z</time>
      </trkpt>
      <trkpt lat="43.678330" lon="10.863640">
        <ele>116</ele>
        <time>2019-09-05T18:21:57Z</time>
      </trkpt>
      <trkpt lat="43.678030" lon="10.863710">
        <ele>119</ele>
        <time>2019-09-05T18:22:02Z</time>
      </trkpt>
      <trkpt lat="43.677860" lon="10.863800">
        <ele>127</ele>
        <time>2019-09-05T18:22:06Z</time>
      </trkpt>
      <trkpt lat="43.677300" lon="10.864270">
        <ele>133</ele>
        <time>2019-09-05T18:22:17Z</time>
      </trkpt>
      <trkpt lat="43.677050" lon="10.864510">
        <ele>137</ele>
        <time>2019-09-05T18:22:23Z</time>
      </trkpt>
      <trkpt lat="43.676910" lon="10.864600">
        <ele>139</ele>
        <time>2019-09-05T18:22:25Z</time>
      </trkpt>
      <trkpt lat="43.676720" lon="10.864680">
        <ele>140</ele>
        <time>2019-09-05T18:22:29Z</time>
      </trkpt>
      <trkpt lat="43.675950" lon="10.864920">
        <ele>140</ele>
        <time>2019-09-05T18:22:43Z</time>
      </trkpt>
      <trkpt lat="43.675800" lon="10.864980">
        <ele>142</ele>
        <time>2019-09-05T18:22:46Z</time>
      </trkpt>
      <trkpt lat="43.675670" lon="10.865070">
        <ele>155</ele>
        <time>2019-09-05T18:22:48Z</time>
      </trkpt>
      <trkpt lat="43.675090" lon="10.866100">
        <ele>151</ele>
        <time>2019-09-05T18:23:05Z</time>
      </trkpt>
      <trkpt lat="43.674790" lon="10.866720">
        <ele>152</ele>
        <time>2019-09-05T18:23:15Z</time>
      </trkpt>
      <trkpt lat="43.674720" lon="10.866930">
        <ele>150</ele>
        <time>2019-09-05T18:23:18Z</time>
      </trkpt>
      <trkpt lat="43.674660" lon="10.867430">
        <ele>145</ele>
        <time>2019-09-05T18:23:24Z</time>
      </trkpt>
      <trkpt lat="43.674550" lon="10.867960">
        <ele>143</ele>
        <time>2019-09-05T18:23:31Z</time>
      </trkpt>
      <trkpt lat="43.674330" lon="10.868730">
        <ele>141</ele>
        <time>2019-09-05T18:23:42Z</time>
      </trkpt>
      <trkpt lat="43.674280" lon="10.869520">
        <ele>142</ele>
        <time>2019-09-05T18:23:52Z</time>
      </trkpt>
      <trkpt lat="43.674360" lon="10.870080">
        <ele>142</ele>
        <time>2019-09-05T18:23:59Z</time>
      </trkpt>
      <trkpt lat="43.674550" lon="10.870920">
        <ele>139</ele>
        <time>2019-09-05T18:24:11Z</time>
      </trkpt>
      <trkpt lat="43.674620" lon="10.871540">
        <ele>135</ele>
        <time>2019-09-05T18:24:19Z</time>
      </trkpt>
      <trkpt lat="43.674640" lon="10.871880">
        <ele>128</ele>
        <time>2019-09-05T18:24:23Z</time>
      </trkpt>
      <trkpt lat="43.674620" lon="10.872610">
        <ele>127</ele>
        <time>2019-09-05T18:24:33Z</time>
      </trkpt>
      <trkpt lat="43.674750" lon="10.873410">
        <ele>130</ele>
        <time>2019-09-05T18:24:43Z</time>
      </trkpt>
      <trkpt lat="43.674780" lon="10.874230">
        <ele>139</ele>
        <time>2019-09-05T18:24:54Z</time>
      </trkpt>
      <trkpt lat="43.674870" lon="10.875120">
        <ele>141</ele>
        <time>2019-09-05T18:25:05Z</time>
      </trkpt>
      <trkpt lat="43.674870" lon="10.875500">
        <ele>147</ele>
        <time>2019-09-05T18:25:10Z</time>
      </trkpt>
      <trkpt lat="43.674790" lon="10.875860">
        <ele>147</ele>
        <time>2019-09-05T18:25:15Z</time>
      </trkpt>
      <trkpt lat="43.674560" lon="10.876570">
        <ele>148</ele>
        <time>2019-09-05T18:25:25Z</time>
      </trkpt>
      <trkpt lat="43.674200" lon="10.878670">
        <ele>149</ele>
        <time>2019-09-05T18:25:53Z</time>
      </trkpt>
      <trkpt lat="43.673920" lon="10.879350">
        <ele>148</ele>
        <time>2019-09-05T18:26:03Z</time>
      </trkpt>
      <trkpt lat="43.673670" lon="10.880200">
        <ele>149</ele>
        <time>2019-09-05T18:26:15Z</time>
      </trkpt>
      <trkpt lat="43.673670" lon="10.880360">
        <ele>148</ele>
        <time>2019-09-05T18:26:17Z</time>
      </trkpt>
      <trkpt lat="43.673800" lon="10.880800">
        <ele>139</ele>
        <time>2019-09-05T18:26:23Z</time>
      </trkpt>
      <trkpt lat="43.673850" lon="10.881070">
        <ele>138</ele>
        <time>2019-09-05T18:26:27Z</time>
      </trkpt>
      <trkpt lat="43.673860" lon="10.881530">
        <ele>136</ele>
        <time>2019-09-05T18:26:32Z</time>
      </trkpt>
      <trkpt lat="43.673810" lon="10.882440">
        <ele>136</ele>
        <time>2019-09-05T18:26:44Z</time>
      </trkpt>
      <trkpt lat="43.673740" lon="10.882650">
        <ele>135</ele>
        <time>2019-09-05T18:26:47Z</time>
      </trkpt>
      <trkpt lat="43.673210" lon="10.883670">
        <ele>134</ele>
        <time>2019-09-05T18:27:03Z</time>
      </trkpt>
      <trkpt lat="43.673090" lon="10.884080">
        <ele>152</ele>
        <time>2019-09-05T18:27:09Z</time>
      </trkpt>
      <trkpt lat="43.673080" lon="10.885010">
        <ele>154</ele>
        <time>2019-09-05T18:27:21Z</time>
      </trkpt>
      <trkpt lat="43.673030" lon="10.885870">
        <ele>147</ele>
        <time>2019-09-05T18:27:32Z</time>
      </trkpt>
      <trkpt lat="43.672970" lon="10.886130">
        <ele>141</ele>
        <time>2019-09-05T18:27:36Z</time>
      </trkpt>
      <trkpt lat="43.672750" lon="10.886830">
        <ele>130</ele>
        <time>2019-09-05T18:27:45Z</time>
      </trkpt>
      <trkpt lat="43.672720" lon="10.887000">
        <ele>129</ele>
        <time>2019-09-05T18:27:48Z</time>
      </trkpt>
      <trkpt lat="43.672750" lon="10.887390">
        <ele>127</ele>
        <time>2019-09-05T18:27:53Z</time>
      </trkpt>
      <trkpt lat="43.672860" lon="10.887830">
        <ele>131</ele>
        <time>2019-09-05T18:27:59Z</time>
      </trkpt>
      <trkpt lat="43.672900" lon="10.888160">
        <ele>135</ele>
        <time>2019-09-05T18:28:03Z</time>
      </trkpt>
      <trkpt lat="43.672860" lon="10.888370">
        <ele>138</ele>
        <time>2019-09-05T18:28:06Z</time>
      </trkpt>
      <trkpt lat="43.672810" lon="10.888550">
        <ele>145</ele>
        <time>2019-09-05T18:28:08Z</time>
      </trkpt>
      <trkpt lat="43.672580" lon="10.889000">
        <ele>146</ele>
        <time>2019-09-05T18:28:15Z</time>
      </trkpt>
      <trkpt lat="43.672300" lon="10.889370">
        <ele>146</ele>
        <time>2019-09-05T18:28:22Z</time>
      </trkpt>
      <trkpt lat="43.671960" lon="10.889980">
        <ele>144</ele>
        <time>2019-09-05T18:28:32Z</time>
      </trkpt>
      <trkpt lat="43.671900" lon="10.890220">
        <ele>143</ele>
        <time>2019-09-05T18:28:35Z</time>
      </trkpt>
      <trkpt lat="43.671750" lon="10.891800">
        <ele>137</ele>
        <time>2019-09-05T18:28:56Z</time>
      </trkpt>
      <trkpt lat="43.671650" lon="10.892120">
        <ele>135</ele>
        <time>2019-09-05T18:29:00Z</time>
      </trkpt>
      <trkpt lat="43.671490" lon="10.892410">
        <ele>133</ele>
        <time>2019-09-05T18:29:05Z</time>
      </trkpt>
      <trkpt lat="43.671070" lon="10.893010">
        <ele>132</ele>
        <time>2019-09-05T18:29:16Z</time>
      </trkpt>
      <trkpt lat="43.669840" lon="10.895420">
        <ele>130</ele>
        <time>2019-09-05T18:29:54Z</time>
      </trkpt>
      <trkpt lat="43.669420" lon="10.895910">
        <ele>123</ele>
        <time>2019-09-05T18:30:04Z</time>
      </trkpt>
      <trkpt lat="43.668950" lon="10.896340">
        <ele>104</ele>
        <time>2019-09-05T18:30:14Z</time>
      </trkpt>
      <trkpt lat="43.668660" lon="10.896590">
        <ele>99</ele>
        <time>2019-09-05T18:30:20Z</time>
      </trkpt>
      <trkpt lat="43.667950" lon="10.897120">
        <ele>90</ele>
        <time>2019-09-05T18:30:34Z</time>
      </trkpt>
      <trkpt lat="43.667620" lon="10.897230">
        <ele>86</ele>
        <time>2019-09-05T18:30:40Z</time>
      </trkpt>
      <trkpt lat="43.666970" lon="10.897270">
        <ele>76</ele>
        <time>2019-09-05T18:30:52Z</time>
      </trkpt>
      <trkpt lat="43.666240" lon="10.897420">
        <ele>74</ele>
        <time>2019-09-05T18:31:05Z</time>
      </trkpt>
      <trkpt lat="43.665190" lon="10.897890">
        <ele>73</ele>
        <time>2019-09-05T18:31:24Z</time>
      </trkpt>
      <trkpt lat="43.664350" lon="10.898350">
        <ele>73</ele>
        <time>2019-09-05T18:31:41Z</time>
      </trkpt>
      <trkpt lat="43.663410" lon="10.898790">
        <ele>73</ele>
        <time>2019-09-05T18:31:58Z</time>
      </trkpt>
      <trkpt lat="43.663240" lon="10.898820">
        <ele>69</ele>
        <time>2019-09-05T18:32:01Z</time>
      </trkpt>
      <trkpt lat="43.662760" lon="10.898770">
        <ele>64</ele>
        <time>2019-09-05T18:32:10Z</time>
      </trkpt>
      <trkpt lat="43.661540" lon="10.898790">
        <ele>60</ele>
        <time>2019-09-05T18:32:32Z</time>
      </trkpt>
      <trkpt lat="43.661220" lon="10.898860">
        <ele>59</ele>
        <time>2019-09-05T18:32:37Z</time>
      </trkpt>
      <trkpt lat="43.660280" lon="10.899260">
        <ele>51</ele>
        <time>2019-09-05T18:32:55Z</time>
      </trkpt>
      <trkpt lat="43.660050" lon="10.899410">
        <ele>50</ele>
        <time>2019-09-05T18:32:59Z</time>
      </trkpt>
      <trkpt lat="43.659930" lon="10.899600">
        <ele>48</ele>
        <time>2019-09-05T18:33:03Z</time>
      </trkpt>
      <trkpt lat="43.659890" lon="10.899750">
        <ele>44</ele>
        <time>2019-09-05T18:33:05Z</time>
      </trkpt>
      <trkpt lat="43.659920" lon="10.900090">
        <ele>35</ele>
        <time>2019-09-05T18:33:09Z</time>
      </trkpt>
      <trkpt lat="43.660130" lon="10.900540">
        <ele>34</ele>
        <time>2019-09-05T18:33:16Z</time>
      </trkpt>
      <trkpt lat="43.660490" lon="10.902480">
        <ele>34</ele>
        <time>2019-09-05T18:33:42Z</time>
      </trkpt>
      <trkpt lat="43.660530" lon="10.902940">
        <ele>34</ele>
        <time>2019-09-05T18:33:48Z</time>
      </trkpt>
      <trkpt lat="43.660480" lon="10.903890">
        <ele>39</ele>
        <time>2019-09-05T18:34:00Z</time>
      </trkpt>
      <trkpt lat="43.660560" lon="10.904390">
        <ele>39</ele>
        <time>2019-09-05T18:34:07Z</time>
      </trkpt>
      <trkpt lat="43.661160" lon="10.906650">
        <ele>38</ele>
        <time>2019-09-05T18:34:38Z</time>
      </trkpt>
      <trkpt lat="43.661280" lon="10.906960">
        <ele>41</ele>
        <time>2019-09-05T18:34:42Z</time>
      </trkpt>
      <trkpt lat="43.661480" lon="10.907250">
        <ele>41</ele>
        <time>2019-09-05T18:34:47Z</time>
      </trkpt>
      <trkpt lat="43.662070" lon="10.907900">
        <ele>38</ele>
        <time>2019-09-05T18:35:01Z</time>
      </trkpt>
      <trkpt lat="43.662140" lon="10.908060">
        <ele>36</ele>
        <time>2019-09-05T18:35:03Z</time>
      </trkpt>
      <trkpt lat="43.662250" lon="10.908900">
        <ele>36</ele>
        <time>2019-09-05T18:35:14Z</time>
      </trkpt>
      <trkpt lat="43.662450" lon="10.909540">
        <ele>36</ele>
        <time>2019-09-05T18:35:23Z</time>
      </trkpt>
      <trkpt lat="43.662720" lon="10.910040">
        <ele>40</ele>
        <time>2019-09-05T18:35:31Z</time>
      </trkpt>
      <trkpt lat="43.662870" lon="10.910440">
        <ele>43</ele>
        <time>2019-09-05T18:35:37Z</time>
      </trkpt>
      <trkpt lat="43.663080" lon="10.911380">
        <ele>43</ele>
        <time>2019-09-05T18:35:49Z</time>
      </trkpt>
      <trkpt lat="43.663180" lon="10.911630">
        <ele>44</ele>
        <time>2019-09-05T18:35:53Z</time>
      </trkpt>
      <trkpt lat="43.663650" lon="10.912250">
        <ele>44</ele>
        <time>2019-09-05T18:36:05Z</time>
      </trkpt>
      <trkpt lat="43.663710" lon="10.912560">
        <ele>45</ele>
        <time>2019-09-05T18:36:09Z</time>
      </trkpt>
      <trkpt lat="43.663750" lon="10.913930">
        <ele>47</ele>
        <time>2019-09-05T18:36:26Z</time>
      </trkpt>
      <trkpt lat="43.663700" lon="10.914170">
        <ele>47</ele>
        <time>2019-09-05T18:36:30Z</time>
      </trkpt>
      <trkpt lat="43.663600" lon="10.914360">
        <ele>47</ele>
        <time>2019-09-05T18:36:33Z</time>
      </trkpt>
      <trkpt lat="43.663080" lon="10.914910">
        <ele>46</ele>
        <time>2019-09-05T18:36:44Z</time>
      </trkpt>
      <trkpt lat="43.662200" lon="10.915960">
        <ele>41</ele>
        <time>2019-09-05T18:37:05Z</time>
      </trkpt>
      <trkpt lat="43.661830" lon="10.916860">
        <ele>40</ele>
        <time>2019-09-05T18:37:18Z</time>
      </trkpt>
      <trkpt lat="43.661480" lon="10.917290">
        <ele>39</ele>
        <time>2019-09-05T18:37:27Z</time>
      </trkpt>
      <trkpt lat="43.660240" lon="10.917720">
        <ele>38</ele>
        <time>2019-09-05T18:37:49Z</time>
      </trkpt>
      <trkpt lat="43.659710" lon="10.918110">
        <ele>41</ele>
        <time>2019-09-05T18:38:00Z</time>
      </trkpt>
      <trkpt lat="43.659090" lon="10.918840">
        <ele>40</ele>
        <time>2019-09-05T18:38:15Z</time>
      </trkpt>
      <trkpt lat="43.658600" lon="10.919220">
        <ele>42</ele>
        <time>2019-09-05T18:38:25Z</time>
      </trkpt>
      <trkpt lat="43.657820" lon="10.919140">
        <ele>45</ele>
        <time>2019-09-05T18:38:39Z</time>
      </trkpt>
      <trkpt lat="43.657290" lon="10.919140">
        <ele>41</ele>
        <time>2019-09-05T18:38:48Z</time>
      </trkpt>
      <trkpt lat="43.656330" lon="10.919740">
        <ele>41</ele>
        <time>2019-09-05T18:39:07Z</time>
      </trkpt>
      <trkpt lat="43.656110" lon="10.920170">
        <ele>42</ele>
        <time>2019-09-05T18:39:14Z</time>
      </trkpt>
      <trkpt lat="43.656020" lon="10.920900">
        <ele>43</ele>
        <time>2019-09-05T18:39:23Z</time>
      </trkpt>
      <trkpt lat="43.655460" lon="10.921580">
        <ele>44</ele>
        <time>2019-09-05T18:39:36Z</time>
      </trkpt>
      <trkpt lat="43.654370" lon="10.922360">
        <ele>43</ele>
        <time>2019-09-05T18:39:58Z</time>
      </trkpt>
      <trkpt lat="43.653440" lon="10.922870">
        <ele>46</ele>
        <time>2019-09-05T18:40:16Z</time>
      </trkpt>
      <trkpt lat="43.652820" lon="10.923470">
        <ele>48</ele>
        <time>2019-09-05T18:40:29Z</time>
      </trkpt>
      <trkpt lat="43.652760" lon="10.923940">
        <ele>46</ele>
        <time>2019-09-05T18:40:36Z</time>
      </trkpt>
      <trkpt lat="43.652820" lon="10.924800">
        <ele>47</ele>
        <time>2019-09-05T18:40:47Z</time>
      </trkpt>
      <trkpt lat="43.652780" lon="10.925270">
        <ele>48</ele>
        <time>2019-09-05T18:40:53Z</time>
      </trkpt>
      <trkpt lat="43.652610" lon="10.925960">
        <ele>45</ele>
        <time>2019-09-05T18:41:02Z</time>
      </trkpt>
      <trkpt lat="43.652130" lon="10.927030">
        <ele>47</ele>
        <time>2019-09-05T18:41:18Z</time>
      </trkpt>
      <trkpt lat="43.651970" lon="10.927650">
        <ele>47</ele>
        <time>2019-09-05T18:41:27Z</time>
      </trkpt>
      <trkpt lat="43.651570" lon="10.928480">
        <ele>46</ele>
        <time>2019-09-05T18:41:40Z</time>
      </trkpt>
      <trkpt lat="43.650660" lon="10.930610">
        <ele>46</ele>
        <time>2019-09-05T18:42:12Z</time>
      </trkpt>
      <trkpt lat="43.650060" lon="10.931820">
        <ele>46</ele>
        <time>2019-09-05T18:42:30Z</time>
      </trkpt>
      <trkpt lat="43.649170" lon="10.932830">
        <ele>46</ele>
        <time>2019-09-05T18:42:51Z</time>
      </trkpt>
      <trkpt lat="43.646850" lon="10.934800">
        <ele>51</ele>
        <time>2019-09-05T18:43:39Z</time>
      </trkpt>
      <trkpt lat="43.645150" lon="10.936200">
        <ele>51</ele>
        <time>2019-09-05T18:44:15Z</time>
      </trkpt>
      <trkpt lat="43.643940" lon="10.937280">
        <ele>51</ele>
        <time>2019-09-05T18:44:40Z</time>
      </trkpt>
      <trkpt lat="43.642600" lon="10.938410">
        <ele>51</ele>
        <time>2019-09-05T18:45:08Z</time>
      </trkpt>
      <trkpt lat="43.640940" lon="10.939910">
        <ele>51</ele>
        <time>2019-09-05T18:45:43Z</time>
      </trkpt>
      <trkpt lat="43.639530" lon="10.941080">
        <ele>52</ele>
        <time>2019-09-05T18:46:13Z</time>
      </trkpt>
      <trkpt lat="43.638750" lon="10.941520">
        <ele>53</ele>
        <time>2019-09-05T18:46:28Z</time>
      </trkpt>
      <trkpt lat="43.633220" lon="10.944140">
        <ele>53</ele>
        <time>2019-09-05T18:48:12Z</time>
      </trkpt>
      <trkpt lat="43.632720" lon="10.944320">
        <ele>49</ele>
        <time>2019-09-05T18:48:21Z</time>
      </trkpt>
      <trkpt lat="43.630210" lon="10.945920">
        <ele>49</ele>
        <time>2019-09-05T18:49:10Z</time>
      </trkpt>
      <trkpt lat="43.629320" lon="10.946450">
        <ele>51</ele>
        <time>2019-09-05T18:49:27Z</time>
      </trkpt>
      <trkpt lat="43.628270" lon="10.946810">
        <ele>51</ele>
        <time>2019-09-05T18:49:47Z</time>
      </trkpt>
      <trkpt lat="43.624450" lon="10.948030">
        <ele>51</ele>
        <time>2019-09-05T18:50:56Z</time>
      </trkpt>
      <trkpt lat="43.619760" lon="10.949580">
        <ele>51</ele>
        <time>2019-09-05T18:52:22Z</time>
      </trkpt>
      <trkpt lat="43.619680" lon="10.949560">
        <ele>49</ele>
        <time>2019-09-05T18:52:24Z</time>
      </trkpt>
      <trkpt lat="43.618860" lon="10.948450">
        <ele>48</ele>
        <time>2019-09-05T18:52:44Z</time>
      </trkpt>
      <trkpt lat="43.618770" lon="10.948380">
        <ele>49</ele>
        <time>2019-09-05T18:52:46Z</time>
      </trkpt>
      <trkpt lat="43.618630" lon="10.948340">
        <ele>51</ele>
        <time>2019-09-05T18:52:48Z</time>
      </trkpt>
      <trkpt lat="43.618520" lon="10.948360">
        <ele>51</ele>
        <time>2019-09-05T18:52:50Z</time>
      </trkpt>
      <trkpt lat="43.617360" lon="10.949470">
        <ele>51</ele>
        <time>2019-09-05T18:53:15Z</time>
      </trkpt>
      <trkpt lat="43.616850" lon="10.950030">
        <ele>51</ele>
        <time>2019-09-05T18:53:27Z</time>
      </trkpt>
      <trkpt lat="43.616460" lon="10.950190">
        <ele>50</ele>
        <time>2019-09-05T18:53:34Z</time>
      </trkpt>
      <trkpt lat="43.616000" lon="10.950220">
        <ele>49</ele>
        <time>2019-09-05T18:53:42Z</time>
      </trkpt>
      <trkpt lat="43.615760" lon="10.950170">
        <ele>49</ele>
        <time>2019-09-05T18:53:47Z</time>
      </trkpt>
      <trkpt lat="43.615520" lon="10.950170">
        <ele>48</ele>
        <time>2019-09-05T18:53:51Z</time>
      </trkpt>
      <trkpt lat="43.615340" lon="10.950210">
        <ele>47</ele>
        <time>2019-09-05T18:53:54Z</time>
      </trkpt>
      <trkpt lat="43.614860" lon="10.950660">
        <ele>47</ele>
        <time>2019-09-05T18:54:05Z</time>
      </trkpt>
      <trkpt lat="43.613100" lon="10.952690">
        <ele>47</ele>
        <time>2019-09-05T18:54:45Z</time>
      </trkpt>
      <trkpt lat="43.612730" lon="10.953050">
        <ele>48</ele>
        <time>2019-09-05T18:54:53Z</time>
      </trkpt>
      <trkpt lat="43.612210" lon="10.953280">
        <ele>48</ele>
        <time>2019-09-05T18:55:03Z</time>
      </trkpt>
      <trkpt lat="43.612050" lon="10.953440">
        <ele>48</ele>
        <time>2019-09-05T18:55:07Z</time>
      </trkpt>
      <trkpt lat="43.611780" lon="10.953880">
        <ele>48</ele>
        <time>2019-09-05T18:55:14Z</time>
      </trkpt>
      <trkpt lat="43.611480" lon="10.954480">
        <ele>51</ele>
        <time>2019-09-05T18:55:24Z</time>
      </trkpt>
      <trkpt lat="43.611090" lon="10.955410">
        <ele>51</ele>
        <time>2019-09-05T18:55:37Z</time>
      </trkpt>
      <trkpt lat="43.610850" lon="10.955770">
        <ele>51</ele>
        <time>2019-09-05T18:55:44Z</time>
      </trkpt>
      <trkpt lat="43.610620" lon="10.955900">
        <ele>49</ele>
        <time>2019-09-05T18:55:48Z</time>
      </trkpt>
      <trkpt lat="43.609910" lon="10.955980">
        <ele>49</ele>
        <time>2019-09-05T18:56:01Z</time>
      </trkpt>
      <trkpt lat="43.609690" lon="10.956070">
        <ele>51</ele>
        <time>2019-09-05T18:56:05Z</time>
      </trkpt>
      <trkpt lat="43.608020" lon="10.957700">
        <ele>50</ele>
        <time>2019-09-05T18:56:41Z</time>
      </trkpt>
      <trkpt lat="43.607940" lon="10.957880">
        <ele>51</ele>
        <time>2019-09-05T18:56:44Z</time>
      </trkpt>
      <trkpt lat="43.607920" lon="10.958140">
        <ele>51</ele>
        <time>2019-09-05T18:56:47Z</time>
      </trkpt>
      <trkpt lat="43.608080" lon="10.959130">
        <ele>51</ele>
        <time>2019-09-05T18:57:00Z</time>
      </trkpt>
      <trkpt lat="43.608080" lon="10.959360">
        <ele>52</ele>
        <time>2019-09-05T18:57:03Z</time>
      </trkpt>
      <trkpt lat="43.608040" lon="10.959630">
        <ele>52</ele>
        <time>2019-09-05T18:57:07Z</time>
      </trkpt>
      <trkpt lat="43.607750" lon="10.960340">
        <ele>51</ele>
        <time>2019-09-05T18:57:17Z</time>
      </trkpt>
      <trkpt lat="43.607600" lon="10.960310">
        <ele>51</ele>
        <time>2019-09-05T18:57:20Z</time>
      </trkpt>
      <trkpt lat="43.607520" lon="10.960390">
        <ele>51</ele>
        <time>2019-09-05T18:57:22Z</time>
      </trkpt>
      <trkpt lat="43.607490" lon="10.960490">
        <ele>51</ele>
        <time>2019-09-05T18:57:23Z</time>
      </trkpt>
      <trkpt lat="43.607500" lon="10.960550">
        <ele>50</ele>
        <time>2019-09-05T18:57:24Z</time>
      </trkpt>
      <trkpt lat="43.607520" lon="10.960610">
        <ele>50</ele>
        <time>2019-09-05T18:57:25Z</time>
      </trkpt>
      <trkpt lat="43.607590" lon="10.960680">
        <ele>51</ele>
        <time>2019-09-05T18:57:26Z</time>
      </trkpt>
      <trkpt lat="43.605970" lon="10.964470">
        <ele>51</ele>
        <time>2019-09-05T18:58:23Z</time>
      </trkpt>
      <trkpt lat="43.604910" lon="10.965030">
        <ele>54</ele>
        <time>2019-09-05T18:58:43Z</time>
      </trkpt>
      <trkpt lat="43.603440" lon="10.965880">
        <ele>55</ele>
        <time>2019-09-05T18:59:12Z</time>
      </trkpt>
      <trkpt lat="43.602930" lon="10.964310">
        <ele>55</ele>
        <time>2019-09-05T18:59:34Z</time>
      </trkpt>
      <trkpt lat="43.602930" lon="10.964330">
        <ele>54</ele>
        <time>2019-09-05T18:59:34Z</time>
      </trkpt>
      <trkpt lat="43.602380" lon="10.964640">
        <ele>55</ele>
        <time>2019-09-05T18:59:45Z</time>
      </trkpt>
      <trkpt lat="43.601510" lon="10.965110">
        <ele>56</ele>
        <time>2019-09-05T19:00:01Z</time>
      </trkpt>
      <trkpt lat="43.600230" lon="10.965750">
        <ele>56</ele>
        <time>2019-09-05T19:00:26Z</time>
      </trkpt>
      <trkpt lat="43.600250" lon="10.966570">
        <ele>55</ele>
        <time>2019-09-05T19:00:36Z</time>
      </trkpt>
      <trkpt lat="43.599350" lon="10.966550">
        <ele>55</ele>
        <time>2019-09-05T19:00:52Z</time>
      </trkpt>
      <trkpt lat="43.598640" lon="10.966570">
        <ele>56</ele>
        <time>2019-09-05T19:01:05Z</time>
      </trkpt>
      <trkpt lat="43.594140" lon="10.966550">
        <ele>56</ele>
        <time>2019-09-05T19:02:25Z</time>
      </trkpt>
      <trkpt lat="43.594050" lon="10.966480">
        <ele>58</ele>
        <time>2019-09-05T19:02:27Z</time>
      </trkpt>
      <trkpt lat="43.593990" lon="10.966370">
        <ele>58</ele>
        <time>2019-09-05T19:02:28Z</time>
      </trkpt>
      <trkpt lat="43.593900" lon="10.966340">
        <ele>59</ele>
        <time>2019-09-05T19:02:30Z</time>
      </trkpt>
      <trkpt lat="43.593850" lon="10.966360">
        <ele>63</ele>
        <time>2019-09-05T19:02:31Z</time>
      </trkpt>
      <trkpt lat="43.593650" lon="10.966550">
        <ele>66</ele>
        <time>2019-09-05T19:02:35Z</time>
      </trkpt>
      <trkpt lat="43.592860" lon="10.966560">
        <ele>71</ele>
        <time>2019-09-05T19:02:49Z</time>
      </trkpt>
      <trkpt lat="43.592480" lon="10.966590">
        <ele>111</ele>
        <time>2019-09-05T19:02:56Z</time>
      </trkpt>
      <trkpt lat="43.592230" lon="10.966700">
        <ele>117</ele>
        <time>2019-09-05T19:03:01Z</time>
      </trkpt>
      <trkpt lat="43.590620" lon="10.967680">
        <ele>121</ele>
        <time>2019-09-05T19:03:32Z</time>
      </trkpt>
      <trkpt lat="43.589790" lon="10.968030">
        <ele>123</ele>
        <time>2019-09-05T19:03:48Z</time>
      </trkpt>
      <trkpt lat="43.589540" lon="10.968100">
        <ele>129</ele>
        <time>2019-09-05T19:03:52Z</time>
      </trkpt>
      <trkpt lat="43.588800" lon="10.968400">
        <ele>129</ele>
        <time>2019-09-05T19:04:06Z</time>
      </trkpt>
      <trkpt lat="43.588530" lon="10.968430">
        <ele>128</ele>
        <time>2019-09-05T19:04:11Z</time>
      </trkpt>
      <trkpt lat="43.588390" lon="10.968410">
        <ele>128</ele>
        <time>2019-09-05T19:04:13Z</time>
      </trkpt>
      <trkpt lat="43.588060" lon="10.968240">
        <ele>130</ele>
        <time>2019-09-05T19:04:19Z</time>
      </trkpt>
      <trkpt lat="43.586510" lon="10.967240">
        <ele>132</ele>
        <time>2019-09-05T19:04:50Z</time>
      </trkpt>
      <trkpt lat="43.586390" lon="10.967140">
        <ele>132</ele>
        <time>2019-09-05T19:04:52Z</time>
      </trkpt>
      <trkpt lat="43.586000" lon="10.966910">
        <ele>133</ele>
        <time>2019-09-05T19:05:00Z</time>
      </trkpt>
      <trkpt lat="43.585520" lon="10.966670">
        <ele>133</ele>
        <time>2019-09-05T19:05:09Z</time>
      </trkpt>
      <trkpt lat="43.584130" lon="10.966160">
        <ele>133</ele>
        <time>2019-09-05T19:05:35Z</time>
      </trkpt>
      <trkpt lat="43.583990" lon="10.966180">
        <ele>145</ele>
        <time>2019-09-05T19:05:37Z</time>
      </trkpt>
      <trkpt lat="43.583520" lon="10.965930">
        <ele>143</ele>
        <time>2019-09-05T19:05:46Z</time>
      </trkpt>
      <trkpt lat="43.578220" lon="10.963900">
        <ele>140</ele>
        <time>2019-09-05T19:07:24Z</time>
      </trkpt>
      <trkpt lat="43.577430" lon="10.963680">
        <ele>138</ele>
        <time>2019-09-05T19:07:38Z</time>
      </trkpt>
      <trkpt lat="43.576820" lon="10.963580">
        <ele>139</ele>
        <time>2019-09-05T19:07:49Z</time>
      </trkpt>
      <trkpt lat="43.572830" lon="10.962620">
        <ele>140</ele>
        <time>2019-09-05T19:09:01Z</time>
      </trkpt>
      <trkpt lat="43.572400" lon="10.962550">
        <ele>145</ele>
        <time>2019-09-05T19:09:09Z</time>
      </trkpt>
      <trkpt lat="43.571810" lon="10.962640">
        <ele>148</ele>
        <time>2019-09-05T19:09:20Z</time>
      </trkpt>
      <trkpt lat="43.571580" lon="10.962710">
        <ele>151</ele>
        <time>2019-09-05T19:09:24Z</time>
      </trkpt>
      <trkpt lat="43.570920" lon="10.963130">
        <ele>153</ele>
        <time>2019-09-05T19:09:37Z</time>
      </trkpt>
      <trkpt lat="43.570640" lon="10.963380">
        <ele>157</ele>
        <time>2019-09-05T19:09:43Z</time>
      </trkpt>
      <trkpt lat="43.570350" lon="10.963520">
        <ele>163</ele>
        <time>2019-09-05T19:09:48Z</time>
      </trkpt>
      <trkpt lat="43.570210" lon="10.963520">
        <ele>165</ele>
        <time>2019-09-05T19:09:51Z</time>
      </trkpt>
      <trkpt lat="43.570080" lon="10.963470">
        <ele>164</ele>
        <time>2019-09-05T19:09:53Z</time>
      </trkpt>
      <trkpt lat="43.569970" lon="10.963370">
        <ele>165</ele>
        <time>2019-09-05T19:09:55Z</time>
      </trkpt>
      <trkpt lat="43.569880" lon="10.963220">
        <ele>168</ele>
        <time>2019-09-05T19:09:58Z</time>
      </trkpt>
      <trkpt lat="43.569600" lon="10.962360">
        <ele>175</ele>
        <time>2019-09-05T19:10:10Z</time>
      </trkpt>
      <trkpt lat="43.569490" lon="10.962070">
        <ele>182</ele>
        <time>2019-09-05T19:10:14Z</time>
      </trkpt>
      <trkpt lat="43.569390" lon="10.961910">
        <ele>184</ele>
        <time>2019-09-05T19:10:17Z</time>
      </trkpt>
      <trkpt lat="43.568340" lon="10.960920">
        <ele>185</ele>
        <time>2019-09-05T19:10:40Z</time>
      </trkpt>
      <trkpt lat="43.568060" lon="10.960700">
        <ele>186</ele>
        <time>2019-09-05T19:10:45Z</time>
      </trkpt>
      <trkpt lat="43.567780" lon="10.960530">
        <ele>189</ele>
        <time>2019-09-05T19:10:51Z</time>
      </trkpt>
      <trkpt lat="43.567180" lon="10.960220">
        <ele>193</ele>
        <time>2019-09-05T19:11:02Z</time>
      </trkpt>
      <trkpt lat="43.567040" lon="10.960120">
        <ele>193</ele>
        <time>2019-09-05T19:11:05Z</time>
      </trkpt>
      <trkpt lat="43.566790" lon="10.959830">
        <ele>192</ele>
        <time>2019-09-05T19:11:11Z</time>
      </trkpt>
      <trkpt lat="43.566210" lon="10.958970">
        <ele>192</ele>
        <time>2019-09-05T19:11:26Z</time>
      </trkpt>
      <trkpt lat="43.565950" lon="10.958680">
        <ele>192</ele>
        <time>2019-09-05T19:11:32Z</time>
      </trkpt>
      <trkpt lat="43.565440" lon="10.958180">
        <ele>198</ele>
        <time>2019-09-05T19:11:43Z</time>
      </trkpt>
      <trkpt lat="43.565240" lon="10.957920">
        <ele>203</ele>
        <time>2019-09-05T19:11:48Z</time>
      </trkpt>
      <trkpt lat="43.565050" lon="10.957610">
        <ele>212</ele>
        <time>2019-09-05T19:11:53Z</time>
      </trkpt>
      <trkpt lat="43.564510" lon="10.956610">
        <ele>217</ele>
        <time>2019-09-05T19:12:09Z</time>
      </trkpt>
      <trkpt lat="43.563990" lon="10.955860">
        <ele>220</ele>
        <time>2019-09-05T19:12:23Z</time>
      </trkpt>
      <trkpt lat="43.563810" lon="10.955540">
        <ele>225</ele>
        <time>2019-09-05T19:12:28Z</time>
      </trkpt>
      <trkpt lat="43.563670" lon="10.955190">
        <ele>228</ele>
        <time>2019-09-05T19:12:33Z</time>
      </trkpt>
      <trkpt lat="43.562820" lon="10.952650">
        <ele>229</ele>
        <time>2019-09-05T19:13:09Z</time>
      </trkpt>
      <trkpt lat="43.562520" lon="10.952100">
        <ele>230</ele>
        <time>2019-09-05T19:13:18Z</time>
      </trkpt>
      <trkpt lat="43.561990" lon="10.951280">
        <ele>229</ele>
        <time>2019-09-05T19:13:32Z</time>
      </trkpt>
      <trkpt lat="43.561850" lon="10.951130">
        <ele>231</ele>
        <time>2019-09-05T19:13:35Z</time>
      </trkpt>
      <trkpt lat="43.561740" lon="10.951070">
        <ele>232</ele>
        <time>2019-09-05T19:13:37Z</time>
      </trkpt>
      <trkpt lat="43.561540" lon="10.951020">
        <ele>233</ele>
        <time>2019-09-05T19:13:41Z</time>
      </trkpt>
      <trkpt lat="43.560100" lon="10.951070">
        <ele>234</ele>
        <time>2019-09-05T19:14:07Z</time>
      </trkpt>
      <trkpt lat="43.558700" lon="10.950920">
        <ele>243</ele>
        <time>2019-09-05T19:14:32Z</time>
      </trkpt>
      <trkpt lat="43.558410" lon="10.950940">
        <ele>247</ele>
        <time>2019-09-05T19:14:37Z</time>
      </trkpt>
      <trkpt lat="43.558140" lon="10.951020">
        <ele>250</ele>
        <time>2019-09-05T19:14:42Z</time>
      </trkpt>
      <trkpt lat="43.557750" lon="10.951290">
        <ele>251</ele>
        <time>2019-09-05T19:14:49Z</time>
      </trkpt>
      <trkpt lat="43.557490" lon="10.951420">
        <ele>253</ele>
        <time>2019-09-05T19:14:54Z</time>
      </trkpt>
      <trkpt lat="43.556100" lon="10.951890">
        <ele>253</ele>
        <time>2019-09-05T19:15:20Z</time>
      </trkpt>
      <trkpt lat="43.555600" lon="10.952100">
        <ele>253</ele>
        <time>2019-09-05T19:15:29Z</time>
      </trkpt>
      <trkpt lat="43.555120" lon="10.952420">
        <ele>253</ele>
        <time>2019-09-05T19:15:39Z</time>
      </trkpt>
      <trkpt lat="43.554610" lon="10.952690">
        <ele>254</ele>
        <time>2019-09-05T19:15:48Z</time>
      </trkpt>
      <trkpt lat="43.553820" lon="10.952860">
        <ele>255</ele>
        <time>2019-09-05T19:16:02Z</time>
      </trkpt>
      <trkpt lat="43.552980" lon="10.953090">
        <ele>263</ele>
        <time>2019-09-05T19:16:18Z</time>
      </trkpt>
      <trkpt lat="43.552490" lon="10.953260">
        <ele>262</ele>
        <time>2019-09-05T19:16:27Z</time>
      </trkpt>
      <trkpt lat="43.552190" lon="10.953420">
        <ele>262</ele>
        <time>2019-09-05T19:16:32Z</time>
      </trkpt>
      <trkpt lat="43.551450" lon="10.954210">
        <ele>262</ele>
        <time>2019-09-05T19:16:49Z</time>
      </trkpt>
      <trkpt lat="43.551180" lon="10.954430">
        <ele>262</ele>
        <time>2019-09-05T19:16:55Z</time>
      </trkpt>
      <trkpt lat="43.550590" lon="10.954820">
        <ele>265</ele>
        <time>2019-09-05T19:17:06Z</time>
      </trkpt>
      <trkpt lat="43.550450" lon="10.954940">
        <ele>271</ele>
        <time>2019-09-05T19:17:09Z</time>
      </trkpt>
      <trkpt lat="43.550330" lon="10.955090">
        <ele>285</ele>
        <time>2019-09-05T19:17:12Z</time>
      </trkpt>
      <trkpt lat="43.550220" lon="10.955250">
        <ele>290</ele>
        <time>2019-09-05T19:17:15Z</time>
      </trkpt>
      <trkpt lat="43.549340" lon="10.957120">
        <ele>298</ele>
        <time>2019-09-05T19:17:44Z</time>
      </trkpt>
      <trkpt lat="43.549220" lon="10.957420">
        <ele>299</ele>
        <time>2019-09-05T19:17:48Z</time>
      </trkpt>
      <trkpt lat="43.549080" lon="10.957630">
        <ele>301</ele>
        <time>2019-09-05T19:17:52Z</time>
      </trkpt>
      <trkpt lat="43.549010" lon="10.957680">
        <ele>308</ele>
        <time>2019-09-05T19:17:53Z</time>
      </trkpt>
      <trkpt lat="43.548760" lon="10.957570">
        <ele>309</ele>
        <time>2019-09-05T19:17:58Z</time>
      </trkpt>
      <trkpt lat="43.548270" lon="10.957070">
        <ele>310</ele>
        <time>2019-09-05T19:18:09Z</time>
      </trkpt>
      <trkpt lat="43.548140" lon="10.956990">
        <ele>311</ele>
        <time>2019-09-05T19:18:11Z</time>
      </trkpt>
      <trkpt lat="43.548000" lon="10.956950">
        <ele>312</ele>
        <time>2019-09-05T19:18:14Z</time>
      </trkpt>
      <trkpt lat="43.547860" lon="10.956950">
        <ele>313</ele>
        <time>2019-09-05T19:18:16Z</time>
      </trkpt>
      <trkpt lat="43.547720" lon="10.957000">
        <ele>326</ele>
        <time>2019-09-05T19:18:19Z</time>
      </trkpt>
      <trkpt lat="43.546630" lon="10.957560">
        <ele>328</ele>
        <time>2019-09-05T19:18:40Z</time>
      </trkpt>
      <trkpt lat="43.546450" lon="10.957590">
        <ele>331</ele>
        <time>2019-09-05T19:18:43Z</time>
      </trkpt>
      <trkpt lat="43.546030" lon="10.957540">
        <ele>332</ele>
        <time>2019-09-05T19:18:50Z</time>
      </trkpt>
      <trkpt lat="43.545860" lon="10.957480">
        <ele>332</ele>
        <time>2019-09-05T19:18:53Z</time>
      </trkpt>
      <trkpt lat="43.545180" lon="10.957170">
        <ele>332</ele>
        <time>2019-09-05T19:19:06Z</time>
      </trkpt>
      <trkpt lat="43.544690" lon="10.956890">
        <ele>334</ele>
        <time>2019-09-05T19:19:16Z</time>
      </trkpt>
      <trkpt lat="43.544210" lon="10.956550">
        <ele>351</ele>
        <time>2019-09-05T19:19:25Z</time>
      </trkpt>
      <trkpt lat="43.543180" lon="10.955680">
        <ele>352</ele>
        <time>2019-09-05T19:19:47Z</time>
      </trkpt>
      <trkpt lat="43.542800" lon="10.955410">
        <ele>352</ele>
        <time>2019-09-05T19:19:54Z</time>
      </trkpt>
      <trkpt lat="43.542200" lon="10.955060">
        <ele>354</ele>
        <time>2019-09-05T19:20:06Z</time>
      </trkpt>
      <trkpt lat="43.541910" lon="10.955300">
        <ele>352</ele>
        <time>2019-09-05T19:20:12Z</time>
      </trkpt>
      <trkpt lat="43.541720" lon="10.955400">
        <ele>352</ele>
        <time>2019-09-05T19:20:15Z</time>
      </trkpt>
      <trkpt lat="43.541240" lon="10.955510">
        <ele>353</ele>
        <time>2019-09-05T19:20:24Z</time>
      </trkpt>
      <trkpt lat="43.541170" lon="10.955480">
        <ele>360</ele>
        <time>2019-09-05T19:20:25Z</time>
      </trkpt>
      <trkpt lat="43.541120" lon="10.955430">
        <ele>362</ele>
        <time>2019-09-05T19:20:27Z</time>
      </trkpt>
      <trkpt lat="43.541080" lon="10.955330">
        <ele>365</ele>
        <time>2019-09-05T19:20:28Z</time>
      </trkpt>
      <trkpt lat="43.540990" lon="10.954900">
        <ele>366</ele>
        <time>2019-09-05T19:20:34Z</time>
      </trkpt>
      <trkpt lat="43.540920" lon="10.954770">
        <ele>368</ele>
        <time>2019-09-05T19:20:36Z</time>
      </trkpt>
      <trkpt lat="43.539930" lon="10.954660">
        <ele>370</ele>
        <time>2019-09-05T19:20:54Z</time>
      </trkpt>
      <trkpt lat="43.539170" lon="10.953530">
        <ele>371</ele>
        <time>2019-09-05T19:21:13Z</time>
      </trkpt>
      <trkpt lat="43.538800" lon="10.952910">
        <ele>374</ele>
        <time>2019-09-05T19:21:24Z</time>
      </trkpt>
      <trkpt lat="43.538720" lon="10.952850">
        <ele>374</ele>
        <time>2019-09-05T19:21:25Z</time>
      </trkpt>
      <trkpt lat="43.538590" lon="10.952900">
        <ele>375</ele>
        <time>2019-09-05T19:21:28Z</time>
      </trkpt>
      <trkpt lat="43.538490" lon="10.953050">
        <ele>379</ele>
        <time>2019-09-05T19:21:30Z</time>
      </trkpt>
      <trkpt lat="43.538310" lon="10.952910">
        <ele>381</ele>
        <time>2019-09-05T19:21:34Z</time>
      </trkpt>
      <trkpt lat="43.536840" lon="10.951360">
        <ele>382</ele>
        <time>2019-09-05T19:22:07Z</time>
      </trkpt>
      <trkpt lat="43.536640" lon="10.951290">
        <ele>382</ele>
        <time>2019-09-05T19:22:11Z</time>
      </trkpt>
      <trkpt lat="43.536600" lon="10.951200">
        <ele>381</ele>
        <time>2019-09-05T19:22:12Z</time>
      </trkpt>
      <trkpt lat="43.536280" lon="10.951010">
        <ele>380</ele>
        <time>2019-09-05T19:22:18Z</time>
      </trkpt>
      <trkpt lat="43.536600" lon="10.951200">
        <ele>387</ele>
        <time>2019-09-05T19:22:24Z</time>
      </trkpt>
      <trkpt lat="43.536640" lon="10.951290">
        <ele>393</ele>
        <time>2019-09-05T19:22:26Z</time>
      </trkpt>
      <trkpt lat="43.536500" lon="10.951240">
        <ele>395</ele>
        <time>2019-09-05T19:22:28Z</time>
      </trkpt>
      <trkpt lat="43.535730" lon="10.951080">
        <ele>397</ele>
        <time>2019-09-05T19:22:42Z</time>
      </trkpt>
      <trkpt lat="43.535510" lon="10.951150">
        <ele>397</ele>
        <time>2019-09-05T19:22:46Z</time>
      </trkpt>
      <trkpt lat="43.535270" lon="10.951390">
        <ele>397</ele>
        <time>2019-09-05T19:22:52Z</time>
      </trkpt>
      <trkpt lat="43.535060" lon="10.951560">
        <ele>398</ele>
        <time>2019-09-05T19:22:56Z</time>
      </trkpt>
      <trkpt lat="43.534880" lon="10.951580">
        <ele>400</ele>
        <time>2019-09-05T19:22:59Z</time>
      </trkpt>
      <trkpt lat="43.534760" lon="10.951460">
        <ele>404</ele>
        <time>2019-09-05T19:23:02Z</time>
      </trkpt>
      <trkpt lat="43.534690" lon="10.951280">
        <ele>404</ele>
        <time>2019-09-05T19:23:04Z</time>
      </trkpt>
      <trkpt lat="43.534640" lon="10.950760">
        <ele>405</ele>
        <time>2019-09-05T19:23:11Z</time>
      </trkpt>
      <trkpt lat="43.534610" lon="10.950690">
        <ele>405</ele>
        <time>2019-09-05T19:23:12Z</time>
      </trkpt>
      <trkpt lat="43.534530" lon="10.950610">
        <ele>409</ele>
        <time>2019-09-05T19:23:14Z</time>
      </trkpt>
      <trkpt lat="43.534310" lon="10.950470">
        <ele>409</ele>
        <time>2019-09-05T19:23:18Z</time>
      </trkpt>
      <trkpt lat="43.534210" lon="10.950380">
        <ele>409</ele>
        <time>2019-09-05T19:23:20Z</time>
      </trkpt>
      <trkpt lat="43.534150" lon="10.950280">
        <ele>410</ele>
        <time>2019-09-05T19:23:22Z</time>
      </trkpt>
      <trkpt lat="43.534180" lon="10.950090">
        <ele>410</ele>
        <time>2019-09-05T19:23:25Z</time>
      </trkpt>
      <trkpt lat="43.534290" lon="10.949950">
        <ele>421</ele>
        <time>2019-09-05T19:23:27Z</time>
      </trkpt>
      <trkpt lat="43.534410" lon="10.949650">
        <ele>423</ele>
        <time>2019-09-05T19:23:32Z</time>
      </trkpt>
      <trkpt lat="43.534140" lon="10.949120">
        <ele>426</ele>
        <time>2019-09-05T19:23:40Z</time>
      </trkpt>
      <trkpt lat="43.533680" lon="10.948690">
        <ele>434</ele>
        <time>2019-09-05T19:23:50Z</time>
      </trkpt>
      <trkpt lat="43.533470" lon="10.948390">
        <ele>435</ele>
        <time>2019-09-05T19:23:55Z</time>
      </trkpt>
      <trkpt lat="43.533380" lon="10.948170">
        <ele>435</ele>
        <time>2019-09-05T19:23:59Z</time>
      </trkpt>
      <trkpt lat="43.533350" lon="10.947910">
        <ele>433</ele>
        <time>2019-09-05T19:24:02Z</time>
      </trkpt>
      <trkpt lat="43.533390" lon="10.947520">
        <ele>433</ele>
        <time>2019-09-05T19:24:07Z</time>
      </trkpt>
      <trkpt lat="43.533380" lon="10.947250">
        <ele>433</ele>
        <time>2019-09-05T19:24:11Z</time>
      </trkpt>
      <trkpt lat="43.533250" lon="10.946840">
        <ele>435</ele>
        <time>2019-09-05T19:24:16Z</time>
      </trkpt>
      <trkpt lat="43.532910" lon="10.945980">
        <ele>435</ele>
        <time>2019-09-05T19:24:29Z</time>
      </trkpt>
      <trkpt lat="43.532830" lon="10.945650">
        <ele>422</ele>
        <time>2019-09-05T19:24:33Z</time>
      </trkpt>
      <trkpt lat="43.532800" lon="10.944280">
        <ele>422</ele>
        <time>2019-09-05T19:24:51Z</time>
      </trkpt>
      <trkpt lat="43.532810" lon="10.942960">
        <ele>429</ele>
        <time>2019-09-05T19:25:08Z</time>
      </trkpt>
      <trkpt lat="43.532550" lon="10.939650">
        <ele>431</ele>
        <time>2019-09-05T19:25:51Z</time>
      </trkpt>
      <trkpt lat="43.532480" lon="10.939200">
        <ele>433</ele>
        <time>2019-09-05T19:25:57Z</time>
      </trkpt>
      <trkpt lat="43.532340" lon="10.938800">
        <ele>434</ele>
        <time>2019-09-05T19:26:03Z</time>
      </trkpt>
      <trkpt lat="43.531470" lon="10.936930">
        <ele>437</ele>
        <time>2019-09-05T19:26:31Z</time>
      </trkpt>
      <trkpt lat="43.531320" lon="10.936480">
        <ele>439</ele>
        <time>2019-09-05T19:26:38Z</time>
      </trkpt>
      <trkpt lat="43.530740" lon="10.932460">
        <ele>439</ele>
        <time>2019-09-05T19:27:31Z</time>
      </trkpt>
      <trkpt lat="43.530650" lon="10.931970">
        <ele>442</ele>
        <time>2019-09-05T19:27:37Z</time>
      </trkpt>
      <trkpt lat="43.530460" lon="10.931290">
        <ele>444</ele>
        <time>2019-09-05T19:27:47Z</time>
      </trkpt>
      <trkpt lat="43.529930" lon="10.929700">
        <ele>446</ele>
        <time>2019-09-05T19:28:09Z</time>
      </trkpt>
      <trkpt lat="43.529860" lon="10.929550">
        <ele>447</ele>
        <time>2019-09-05T19:28:11Z</time>
      </trkpt>
      <trkpt lat="43.529660" lon="10.929240">
        <ele>455</ele>
        <time>2019-09-05T19:28:17Z</time>
      </trkpt>
      <trkpt lat="43.529250" lon="10.928900">
        <ele>462</ele>
        <time>2019-09-05T19:28:25Z</time>
      </trkpt>
      <trkpt lat="43.528940" lon="10.928700">
        <ele>464</ele>
        <time>2019-09-05T19:28:31Z</time>
      </trkpt>
      <trkpt lat="43.528770" lon="10.928620">
        <ele>465</ele>
        <time>2019-09-05T19:28:35Z</time>
      </trkpt>
      <trkpt lat="43.528420" lon="10.928550">
        <ele>466</ele>
        <time>2019-09-05T19:28:41Z</time>
      </trkpt>
      <trkpt lat="43.527530" lon="10.928560">
        <ele>469</ele>
        <time>2019-09-05T19:28:57Z</time>
      </trkpt>
      <trkpt lat="43.525180" lon="10.928900">
        <ele>471</ele>
        <time>2019-09-05T19:29:39Z</time>
      </trkpt>
      <trkpt lat="43.524800" lon="10.928880">
        <ele>471</ele>
        <time>2019-09-05T19:29:46Z</time>
      </trkpt>
      <trkpt lat="43.523860" lon="10.928700">
        <ele>472</ele>
        <time>2019-09-05T19:30:02Z</time>
      </trkpt>
      <trkpt lat="43.523500" lon="10.928600">
        <ele>474</ele>
        <time>2019-09-05T19:30:09Z</time>
      </trkpt>
      <trkpt lat="43.523150" lon="10.928460">
        <ele>477</ele>
        <time>2019-09-05T19:30:15Z</time>
      </trkpt>
      <trkpt lat="43.522130" lon="10.927920">
        <ele>480</ele>
        <time>2019-09-05T19:30:35Z</time>
      </trkpt>
      <trkpt lat="43.520840" lon="10.927540">
        <ele>481</ele>
        <time>2019-09-05T19:30:58Z</time>
      </trkpt>
      <trkpt lat="43.519420" lon="10.927160">
        <ele>481</ele>
        <time>2019-09-05T19:31:24Z</time>
      </trkpt>
      <trkpt lat="43.517610" lon="10.926980">
        <ele>482</ele>
        <time>2019-09-05T19:31:56Z</time>
      </trkpt>
      <trkpt lat="43.516560" lon="10.926850">
        <ele>482</ele>
        <time>2019-09-05T19:32:15Z</time>
      </trkpt>
      <trkpt lat="43.516400" lon="10.926860">
        <ele>482</ele>
        <time>2019-09-05T19:32:18Z</time>
      </trkpt>
      <trkpt lat="43.516260" lon="10.926920">
        <ele>483</ele>
        <time>2019-09-05T19:32:21Z</time>
      </trkpt>
      <trkpt lat="43.516140" lon="10.927020">
        <ele>485</ele>
        <time>2019-09-05T19:32:23Z</time>
      </trkpt>
      <trkpt lat="43.515620" lon="10.927840">
        <ele>486</ele>
        <time>2019-09-05T19:32:37Z</time>
      </trkpt>
      <trkpt lat="43.515090" lon="10.928360">
        <ele>490</ele>
        <time>2019-09-05T19:32:49Z</time>
      </trkpt>
      <trkpt lat="43.514950" lon="10.928460">
        <ele>489</ele>
        <time>2019-09-05T19:32:52Z</time>
      </trkpt>
      <trkpt lat="43.514790" lon="10.928530">
        <ele>487</ele>
        <time>2019-09-05T19:32:55Z</time>
      </trkpt>
      <trkpt lat="43.514640" lon="10.928580">
        <ele>487</ele>
        <time>2019-09-05T19:32:57Z</time>
      </trkpt>
      <trkpt lat="43.514330" lon="10.928630">
        <ele>487</ele>
        <time>2019-09-05T19:33:03Z</time>
      </trkpt>
      <trkpt lat="43.514190" lon="10.928690">
        <ele>489</ele>
        <time>2019-09-05T19:33:05Z</time>
      </trkpt>
      <trkpt lat="43.514040" lon="10.928790">
        <ele>494</ele>
        <time>2019-09-05T19:33:08Z</time>
      </trkpt>
      <trkpt lat="43.513910" lon="10.928900">
        <ele>496</ele>
        <time>2019-09-05T19:33:11Z</time>
      </trkpt>
      <trkpt lat="43.513790" lon="10.929060">
        <ele>499</ele>
        <time>2019-09-05T19:33:14Z</time>
      </trkpt>
      <trkpt lat="43.513580" lon="10.929410">
        <ele>501</ele>
        <time>2019-09-05T19:33:20Z</time>
      </trkpt>
      <trkpt lat="43.513400" lon="10.929800">
        <ele>502</ele>
        <time>2019-09-05T19:33:26Z</time>
      </trkpt>
      <trkpt lat="43.513300" lon="10.929950">
        <ele>502</ele>
        <time>2019-09-05T19:33:29Z</time>
      </trkpt>
      <trkpt lat="43.513180" lon="10.930070">
        <ele>503</ele>
        <time>2019-09-05T19:33:31Z</time>
      </trkpt>
      <trkpt lat="43.513030" lon="10.930160">
        <ele>504</ele>
        <time>2019-09-05T19:33:34Z</time>
      </trkpt>
      <trkpt lat="43.512870" lon="10.930220">
        <ele>515</ele>
        <time>2019-09-05T19:33:37Z</time>
      </trkpt>
      <trkpt lat="43.512710" lon="10.930240">
        <ele>518</ele>
        <time>2019-09-05T19:33:40Z</time>
      </trkpt>
      <trkpt lat="43.512390" lon="10.930200">
        <ele>522</ele>
        <time>2019-09-05T19:33:46Z</time>
      </trkpt>
      <trkpt lat="43.511900" lon="10.930090">
        <ele>520</ele>
        <time>2019-09-05T19:33:54Z</time>
      </trkpt>
      <trkpt lat="43.511570" lon="10.929940">
        <ele>511</ele>
        <time>2019-09-05T19:34:01Z</time>
      </trkpt>
      <trkpt lat="43.510480" lon="10.929190">
        <ele>510</ele>
        <time>2019-09-05T19:34:22Z</time>
      </trkpt>
      <trkpt lat="43.510050" lon="10.928920">
        <ele>511</ele>
        <time>2019-09-05T19:34:31Z</time>
      </trkpt>
      <trkpt lat="43.509560" lon="10.928690">
        <ele>513</ele>
        <time>2019-09-05T19:34:40Z</time>
      </trkpt>
      <trkpt lat="43.509390" lon="10.928630">
        <ele>513</ele>
        <time>2019-09-05T19:34:43Z</time>
      </trkpt>
      <trkpt lat="43.509220" lon="10.928610">
        <ele>513</ele>
        <time>2019-09-05T19:34:46Z</time>
      </trkpt>
      <trkpt lat="43.508690" lon="10.928610">
        <ele>513</ele>
        <time>2019-09-05T19:34:55Z</time>
      </trkpt>
      <trkpt lat="43.507310" lon="10.928710">
        <ele>512</ele>
        <time>2019-09-05T19:35:20Z</time>
      </trkpt>
      <trkpt lat="43.507010" lon="10.928790">
        <ele>510</ele>
        <time>2019-09-05T19:35:26Z</time>
      </trkpt>
      <trkpt lat="43.506760" lon="10.928920">
        <ele>509</ele>
        <time>2019-09-05T19:35:30Z</time>
      </trkpt>
      <trkpt lat="43.506660" lon="10.929030">
        <ele>505</ele>
        <time>2019-09-05T19:35:33Z</time>
      </trkpt>
      <trkpt lat="43.506460" lon="10.929440">
        <ele>503</ele>
        <time>2019-09-05T19:35:39Z</time>
      </trkpt>
      <trkpt lat="43.506380" lon="10.929540">
        <ele>502</ele>
        <time>2019-09-05T19:35:41Z</time>
      </trkpt>
      <trkpt lat="43.506260" lon="10.929610">
        <ele>500</ele>
        <time>2019-09-05T19:35:43Z</time>
      </trkpt>
      <trkpt lat="43.506130" lon="10.929640">
        <ele>485</ele>
        <time>2019-09-05T19:35:46Z</time>
      </trkpt>
      <trkpt lat="43.505030" lon="10.929620">
        <ele>484</ele>
        <time>2019-09-05T19:36:05Z</time>
      </trkpt>
      <trkpt lat="43.504690" lon="10.929590">
        <ele>483</ele>
        <time>2019-09-05T19:36:11Z</time>
      </trkpt>
      <trkpt lat="43.504280" lon="10.929420">
        <ele>483</ele>
        <time>2019-09-05T19:36:19Z</time>
      </trkpt>
      <trkpt lat="43.503480" lon="10.929140">
        <ele>478</ele>
        <time>2019-09-05T19:36:33Z</time>
      </trkpt>
      <trkpt lat="43.501090" lon="10.928200">
        <ele>476</ele>
        <time>2019-09-05T19:37:18Z</time>
      </trkpt>
      <trkpt lat="43.500630" lon="10.927980">
        <ele>475</ele>
        <time>2019-09-05T19:37:26Z</time>
      </trkpt>
      <trkpt lat="43.500060" lon="10.927820">
        <ele>475</ele>
        <time>2019-09-05T19:37:37Z</time>
      </trkpt>
      <trkpt lat="43.499350" lon="10.927670">
        <ele>475</ele>
        <time>2019-09-05T19:37:49Z</time>
      </trkpt>
      <trkpt lat="43.498070" lon="10.927260">
        <ele>468</ele>
        <time>2019-09-05T19:38:13Z</time>
      </trkpt>
      <trkpt lat="43.497420" lon="10.927120">
        <ele>467</ele>
        <time>2019-09-05T19:38:25Z</time>
      </trkpt>
      <trkpt lat="43.496720" lon="10.927040">
        <ele>464</ele>
        <time>2019-09-05T19:38:37Z</time>
      </trkpt>
      <trkpt lat="43.496490" lon="10.926880">
        <ele>461</ele>
        <time>2019-09-05T19:38:42Z</time>
      </trkpt>
      <trkpt lat="43.496040" lon="10.926190">
        <ele>458</ele>
        <time>2019-09-05T19:38:54Z</time>
      </trkpt>
      <trkpt lat="43.495920" lon="10.926070">
        <ele>457</ele>
        <time>2019-09-05T19:38:56Z</time>
      </trkpt>
      <trkpt lat="43.495430" lon="10.926120">
        <ele>456</ele>
        <time>2019-09-05T19:39:05Z</time>
      </trkpt>
      <trkpt lat="43.494970" lon="10.925990">
        <ele>454</ele>
        <time>2019-09-05T19:39:13Z</time>
      </trkpt>
      <trkpt lat="43.494770" lon="10.926070">
        <ele>454</ele>
        <time>2019-09-05T19:39:17Z</time>
      </trkpt>
      <trkpt lat="43.493940" lon="10.926670">
        <ele>447</ele>
        <time>2019-09-05T19:39:34Z</time>
      </trkpt>
      <trkpt lat="43.492560" lon="10.928550">
        <ele>437</ele>
        <time>2019-09-05T19:40:08Z</time>
      </trkpt>
      <trkpt lat="43.492390" lon="10.928730">
        <ele>436</ele>
        <time>2019-09-05T19:40:12Z</time>
      </trkpt>
      <trkpt lat="43.492070" lon="10.928800">
        <ele>433</ele>
        <time>2019-09-05T19:40:18Z</time>
      </trkpt>
      <trkpt lat="43.491980" lon="10.928790">
        <ele>421</ele>
        <time>2019-09-05T19:40:19Z</time>
      </trkpt>
      <trkpt lat="43.491510" lon="10.928510">
        <ele>418</ele>
        <time>2019-09-05T19:40:29Z</time>
      </trkpt>
      <trkpt lat="43.491330" lon="10.928490">
        <ele>416</ele>
        <time>2019-09-05T19:40:32Z</time>
      </trkpt>
      <trkpt lat="43.491160" lon="10.928550">
        <ele>415</ele>
        <time>2019-09-05T19:40:35Z</time>
      </trkpt>
      <trkpt lat="43.491030" lon="10.928700">
        <ele>415</ele>
        <time>2019-09-05T19:40:38Z</time>
      </trkpt>
      <trkpt lat="43.490930" lon="10.928870">
        <ele>416</ele>
        <time>2019-09-05T19:40:41Z</time>
      </trkpt>
      <trkpt lat="43.490360" lon="10.930240">
        <ele>417</ele>
        <time>2019-09-05T19:41:01Z</time>
      </trkpt>
      <trkpt lat="43.490170" lon="10.930810">
        <ele>416</ele>
        <time>2019-09-05T19:41:09Z</time>
      </trkpt>
      <trkpt lat="43.490090" lon="10.931400">
        <ele>411</ele>
        <time>2019-09-05T19:41:17Z</time>
      </trkpt>
      <trkpt lat="43.490080" lon="10.932290">
        <ele>404</ele>
        <time>2019-09-05T19:41:28Z</time>
      </trkpt>
      <trkpt lat="43.490010" lon="10.932460">
        <ele>402</ele>
        <time>2019-09-05T19:41:31Z</time>
      </trkpt>
      <trkpt lat="43.489940" lon="10.932490">
        <ele>401</ele>
        <time>2019-09-05T19:41:32Z</time>
      </trkpt>
      <trkpt lat="43.489850" lon="10.932480">
        <ele>399</ele>
        <time>2019-09-05T19:41:34Z</time>
      </trkpt>
      <trkpt lat="43.489780" lon="10.932410">
        <ele>397</ele>
        <time>2019-09-05T19:41:35Z</time>
      </trkpt>
      <trkpt lat="43.489740" lon="10.932270">
        <ele>395</ele>
        <time>2019-09-05T19:41:37Z</time>
      </trkpt>
      <trkpt lat="43.489560" lon="10.930240">
        <ele>393</ele>
        <time>2019-09-05T19:42:04Z</time>
      </trkpt>
      <trkpt lat="43.489230" lon="10.928950">
        <ele>391</ele>
        <time>2019-09-05T19:42:21Z</time>
      </trkpt>
      <trkpt lat="43.489230" lon="10.928610">
        <ele>390</ele>
        <time>2019-09-05T19:42:26Z</time>
      </trkpt>
      <trkpt lat="43.489340" lon="10.927190">
        <ele>376</ele>
        <time>2019-09-05T19:42:44Z</time>
      </trkpt>
      <trkpt lat="43.489660" lon="10.924870">
        <ele>369</ele>
        <time>2019-09-05T19:43:15Z</time>
      </trkpt>
      <trkpt lat="43.489450" lon="10.924880">
        <ele>368</ele>
        <time>2019-09-05T19:43:18Z</time>
      </trkpt>
      <trkpt lat="43.489300" lon="10.924930">
        <ele>367</ele>
        <time>2019-09-05T19:43:21Z</time>
      </trkpt>
      <trkpt lat="43.489190" lon="10.925070">
        <ele>363</ele>
        <time>2019-09-05T19:43:24Z</time>
      </trkpt>
      <trkpt lat="43.489110" lon="10.925360">
        <ele>362</ele>
        <time>2019-09-05T19:43:28Z</time>
      </trkpt>
      <trkpt lat="43.489110" lon="10.925840">
        <ele>360</ele>
        <time>2019-09-05T19:43:34Z</time>
      </trkpt>
      <trkpt lat="43.489060" lon="10.926020">
        <ele>360</ele>
        <time>2019-09-05T19:43:37Z</time>
      </trkpt>
      <trkpt lat="43.488880" lon="10.926290">
        <ele>359</ele>
        <time>2019-09-05T19:43:41Z</time>
      </trkpt>
      <trkpt lat="43.488620" lon="10.926420">
        <ele>356</ele>
        <time>2019-09-05T19:43:46Z</time>
      </trkpt>
      <trkpt lat="43.488180" lon="10.926590">
        <ele>354</ele>
        <time>2019-09-05T19:43:54Z</time>
      </trkpt>
      <trkpt lat="43.488030" lon="10.926710">
        <ele>353</ele>
        <time>2019-09-05T19:43:57Z</time>
      </trkpt>
      <trkpt lat="43.487830" lon="10.927130">
        <ele>350</ele>
        <time>2019-09-05T19:44:04Z</time>
      </trkpt>
      <trkpt lat="43.487740" lon="10.927170">
        <ele>349</ele>
        <time>2019-09-05T19:44:06Z</time>
      </trkpt>
      <trkpt lat="43.487620" lon="10.927150">
        <ele>348</ele>
        <time>2019-09-05T19:44:08Z</time>
      </trkpt>
      <trkpt lat="43.487540" lon="10.927050">
        <ele>347</ele>
        <time>2019-09-05T19:44:10Z</time>
      </trkpt>
      <trkpt lat="43.487550" lon="10.926670">
        <ele>345</ele>
        <time>2019-09-05T19:44:15Z</time>
      </trkpt>
      <trkpt lat="43.487510" lon="10.926510">
        <ele>345</ele>
        <time>2019-09-05T19:44:17Z</time>
      </trkpt>
      <trkpt lat="43.487430" lon="10.926410">
        <ele>345</ele>
        <time>2019-09-05T19:44:19Z</time>
      </trkpt>
      <trkpt lat="43.486320" lon="10.926210">
        <ele>343</ele>
        <time>2019-09-05T19:44:39Z</time>
      </trkpt>
      <trkpt lat="43.485190" lon="10.926270">
        <ele>341</ele>
        <time>2019-09-05T19:44:59Z</time>
      </trkpt>
      <trkpt lat="43.485060" lon="10.926200">
        <ele>341</ele>
        <time>2019-09-05T19:45:01Z</time>
      </trkpt>
      <trkpt lat="43.484930" lon="10.926090">
        <ele>337</ele>
        <time>2019-09-05T19:45:04Z</time>
      </trkpt>
      <trkpt lat="43.484610" lon="10.925660">
        <ele>330</ele>
        <time>2019-09-05T19:45:12Z</time>
      </trkpt>
      <trkpt lat="43.484510" lon="10.925570">
        <ele>329</ele>
        <time>2019-09-05T19:45:14Z</time>
      </trkpt>
      <trkpt lat="43.484340" lon="10.925500">
        <ele>326</ele>
        <time>2019-09-05T19:45:17Z</time>
      </trkpt>
      <trkpt lat="43.484180" lon="10.925520">
        <ele>310</ele>
        <time>2019-09-05T19:45:20Z</time>
      </trkpt>
      <trkpt lat="43.483940" lon="10.925620">
        <ele>307</ele>
        <time>2019-09-05T19:45:24Z</time>
      </trkpt>
      <trkpt lat="43.483550" lon="10.926000">
        <ele>306</ele>
        <time>2019-09-05T19:45:33Z</time>
      </trkpt>
      <trkpt lat="43.483420" lon="10.926180">
        <ele>306</ele>
        <time>2019-09-05T19:45:36Z</time>
      </trkpt>
      <trkpt lat="43.483250" lon="10.926290">
        <ele>305</ele>
        <time>2019-09-05T19:45:40Z</time>
      </trkpt>
      <trkpt lat="43.482280" lon="10.926740">
        <ele>304</ele>
        <time>2019-09-05T19:45:58Z</time>
      </trkpt>
      <trkpt lat="43.482100" lon="10.926940">
        <ele>296</ele>
        <time>2019-09-05T19:46:02Z</time>
      </trkpt>
      <trkpt lat="43.481850" lon="10.927280">
        <ele>288</ele>
        <time>2019-09-05T19:46:08Z</time>
      </trkpt>
      <trkpt lat="43.481680" lon="10.927360">
        <ele>286</ele>
        <time>2019-09-05T19:46:11Z</time>
      </trkpt>
      <trkpt lat="43.481160" lon="10.927330">
        <ele>284</ele>
        <time>2019-09-05T19:46:21Z</time>
      </trkpt>
      <trkpt lat="43.480510" lon="10.927210">
        <ele>282</ele>
        <time>2019-09-05T19:46:32Z</time>
      </trkpt>
      <trkpt lat="43.480080" lon="10.927170">
        <ele>281</ele>
        <time>2019-09-05T19:46:40Z</time>
      </trkpt>
      <trkpt lat="43.479090" lon="10.927200">
        <ele>281</ele>
        <time>2019-09-05T19:46:58Z</time>
      </trkpt>
      <trkpt lat="43.478840" lon="10.927180">
        <ele>276</ele>
        <time>2019-09-05T19:47:02Z</time>
      </trkpt>
      <trkpt lat="43.478670" lon="10.927130">
        <ele>275</ele>
        <time>2019-09-05T19:47:05Z</time>
      </trkpt>
      <trkpt lat="43.477500" lon="10.926630">
        <ele>268</ele>
        <time>2019-09-05T19:47:27Z</time>
      </trkpt>
      <trkpt lat="43.476480" lon="10.925940">
        <ele>265</ele>
        <time>2019-09-05T19:47:47Z</time>
      </trkpt>
      <trkpt lat="43.476180" lon="10.925770">
        <ele>263</ele>
        <time>2019-09-05T19:47:53Z</time>
      </trkpt>
      <trkpt lat="43.475770" lon="10.925750">
        <ele>259</ele>
        <time>2019-09-05T19:48:00Z</time>
      </trkpt>
      <trkpt lat="43.474650" lon="10.926030">
        <ele>257</ele>
        <time>2019-09-05T19:48:20Z</time>
      </trkpt>
      <trkpt lat="43.474380" lon="10.925990">
        <ele>255</ele>
        <time>2019-09-05T19:48:25Z</time>
      </trkpt>
      <trkpt lat="43.474210" lon="10.925900">
        <ele>253</ele>
        <time>2019-09-05T19:48:29Z</time>
      </trkpt>
      <trkpt lat="43.474000" lon="10.925670">
        <ele>244</ele>
        <time>2019-09-05T19:48:33Z</time>
      </trkpt>
      <trkpt lat="43.473610" lon="10.925110">
        <ele>240</ele>
        <time>2019-09-05T19:48:43Z</time>
      </trkpt>
      <trkpt lat="43.473320" lon="10.924480">
        <ele>238</ele>
        <time>2019-09-05T19:48:53Z</time>
      </trkpt>
      <trkpt lat="43.472790" lon="10.923990">
        <ele>236</ele>
        <time>2019-09-05T19:49:04Z</time>
      </trkpt>
      <trkpt lat="43.472270" lon="10.923580">
        <ele>236</ele>
        <time>2019-09-05T19:49:15Z</time>
      </trkpt>
      <trkpt lat="43.472160" lon="10.923440">
        <ele>235</ele>
        <time>2019-09-05T19:49:18Z</time>
      </trkpt>
      <trkpt lat="43.472100" lon="10.923230">
        <ele>231</ele>
        <time>2019-09-05T19:49:21Z</time>
      </trkpt>
      <trkpt lat="43.472100" lon="10.923020">
        <ele>229</ele>
        <time>2019-09-05T19:49:23Z</time>
      </trkpt>
      <trkpt lat="43.472200" lon="10.922810">
        <ele>227</ele>
        <time>2019-09-05T19:49:27Z</time>
      </trkpt>
      <trkpt lat="43.472770" lon="10.922170">
        <ele>225</ele>
        <time>2019-09-05T19:49:40Z</time>
      </trkpt>
      <trkpt lat="43.473180" lon="10.921530">
        <ele>223</ele>
        <time>2019-09-05T19:49:51Z</time>
      </trkpt>
      <trkpt lat="43.473290" lon="10.921260">
        <ele>221</ele>
        <time>2019-09-05T19:49:55Z</time>
      </trkpt>
      <trkpt lat="43.473400" lon="10.920530">
        <ele>219</ele>
        <time>2019-09-05T19:50:04Z</time>
      </trkpt>
      <trkpt lat="43.473380" lon="10.920220">
        <ele>218</ele>
        <time>2019-09-05T19:50:08Z</time>
      </trkpt>
      <trkpt lat="43.473300" lon="10.920040">
        <ele>216</ele>
        <time>2019-09-05T19:50:11Z</time>
      </trkpt>
      <trkpt lat="43.472980" lon="10.919610">
        <ele>214</ele>
        <time>2019-09-05T19:50:19Z</time>
      </trkpt>
      <trkpt lat="43.472900" lon="10.919330">
        <ele>202</ele>
        <time>2019-09-05T19:50:23Z</time>
      </trkpt>
      <trkpt lat="43.472870" lon="10.918960">
        <ele>201</ele>
        <time>2019-09-05T19:50:28Z</time>
      </trkpt>
      <trkpt lat="43.472810" lon="10.918650">
        <ele>199</ele>
        <time>2019-09-05T19:50:32Z</time>
      </trkpt>
      <trkpt lat="43.472270" lon="10.917550">
        <ele>198</ele>
        <time>2019-09-05T19:50:49Z</time>
      </trkpt>
      <trkpt lat="43.472080" lon="10.917290">
        <ele>197</ele>
        <time>2019-09-05T19:50:54Z</time>
      </trkpt>
      <trkpt lat="43.471900" lon="10.917190">
        <ele>196</ele>
        <time>2019-09-05T19:50:57Z</time>
      </trkpt>
      <trkpt lat="43.471720" lon="10.917130">
        <ele>194</ele>
        <time>2019-09-05T19:51:00Z</time>
      </trkpt>
      <trkpt lat="43.471560" lon="10.917180">
        <ele>192</ele>
        <time>2019-09-05T19:51:03Z</time>
      </trkpt>
      <trkpt lat="43.471310" lon="10.917360">
        <ele>191</ele>
        <time>2019-09-05T19:51:08Z</time>
      </trkpt>
      <trkpt lat="43.470240" lon="10.918480">
        <ele>185</ele>
        <time>2019-09-05T19:51:32Z</time>
      </trkpt>
      <trkpt lat="43.470100" lon="10.918540">
        <ele>183</ele>
        <time>2019-09-05T19:51:35Z</time>
      </trkpt>
      <trkpt lat="43.470000" lon="10.918490">
        <ele>183</ele>
        <time>2019-09-05T19:51:37Z</time>
      </trkpt>
      <trkpt lat="43.469910" lon="10.918390">
        <ele>183</ele>
        <time>2019-09-05T19:51:39Z</time>
      </trkpt>
      <trkpt lat="43.469880" lon="10.918180">
        <ele>186</ele>
        <time>2019-09-05T19:51:42Z</time>
      </trkpt>
      <trkpt lat="43.469950" lon="10.917680">
        <ele>187</ele>
        <time>2019-09-05T19:51:48Z</time>
      </trkpt>
      <trkpt lat="43.469950" lon="10.917500">
        <ele>189</ele>
        <time>2019-09-05T19:51:51Z</time>
      </trkpt>
      <trkpt lat="43.469910" lon="10.917350">
        <ele>188</ele>
        <time>2019-09-05T19:51:53Z</time>
      </trkpt>
      <trkpt lat="43.469800" lon="10.917250">
        <ele>188</ele>
        <time>2019-09-05T19:51:55Z</time>
      </trkpt>
      <trkpt lat="43.469650" lon="10.917220">
        <ele>188</ele>
        <time>2019-09-05T19:51:58Z</time>
      </trkpt>
      <trkpt lat="43.468350" lon="10.917190">
        <ele>192</ele>
        <time>2019-09-05T19:52:21Z</time>
      </trkpt>
      <trkpt lat="43.468180" lon="10.917120">
        <ele>192</ele>
        <time>2019-09-05T19:52:24Z</time>
      </trkpt>
      <trkpt lat="43.467860" lon="10.916870">
        <ele>191</ele>
        <time>2019-09-05T19:52:30Z</time>
      </trkpt>
      <trkpt lat="43.467750" lon="10.916730">
        <ele>195</ele>
        <time>2019-09-05T19:52:33Z</time>
      </trkpt>
      <trkpt lat="43.467690" lon="10.916570">
        <ele>197</ele>
        <time>2019-09-05T19:52:35Z</time>
      </trkpt>
      <trkpt lat="43.467680" lon="10.916440">
        <ele>198</ele>
        <time>2019-09-05T19:52:37Z</time>
      </trkpt>
      <trkpt lat="43.467680" lon="10.916180">
        <ele>200</ele>
        <time>2019-09-05T19:52:40Z</time>
      </trkpt>
      <trkpt lat="43.467830" lon="10.915450">
        <ele>201</ele>
        <time>2019-09-05T19:52:50Z</time>
      </trkpt>
      <trkpt lat="43.467850" lon="10.915110">
        <ele>204</ele>
        <time>2019-09-05T19:52:55Z</time>
      </trkpt>
      <trkpt lat="43.467660" lon="10.913430">
        <ele>207</ele>
        <time>2019-09-05T19:53:17Z</time>
      </trkpt>
      <trkpt lat="43.467570" lon="10.913120">
        <ele>210</ele>
        <time>2019-09-05T19:53:21Z</time>
      </trkpt>
      <trkpt lat="43.467520" lon="10.913040">
        <ele>218</ele>
        <time>2019-09-05T19:53:22Z</time>
      </trkpt>
      <trkpt lat="43.467340" lon="10.913020">
        <ele>221</ele>
        <time>2019-09-05T19:53:26Z</time>
      </trkpt>
      <trkpt lat="43.466860" lon="10.913210">
        <ele>224</ele>
        <time>2019-09-05T19:53:34Z</time>
      </trkpt>
      <trkpt lat="43.466730" lon="10.913210">
        <ele>225</ele>
        <time>2019-09-05T19:53:37Z</time>
      </trkpt>
      <trkpt lat="43.465800" lon="10.913060">
        <ele>225</ele>
        <time>2019-09-05T19:53:53Z</time>
      </trkpt>
      <trkpt lat="43.465600" lon="10.913000">
        <ele>225</ele>
        <time>2019-09-05T19:53:57Z</time>
      </trkpt>
      <trkpt lat="43.465450" lon="10.913020">
        <ele>225</ele>
        <time>2019-09-05T19:54:00Z</time>
      </trkpt>
      <trkpt lat="43.465230" lon="10.913170">
        <ele>226</ele>
        <time>2019-09-05T19:54:04Z</time>
      </trkpt>
      <trkpt lat="43.464500" lon="10.913970">
        <ele>227</ele>
        <time>2019-09-05T19:54:21Z</time>
      </trkpt>
      <trkpt lat="43.464310" lon="10.914020">
        <ele>230</ele>
        <time>2019-09-05T19:54:24Z</time>
      </trkpt>
      <trkpt lat="43.464150" lon="10.913960">
        <ele>233</ele>
        <time>2019-09-05T19:54:27Z</time>
      </trkpt>
      <trkpt lat="43.463920" lon="10.913830">
        <ele>235</ele>
        <time>2019-09-05T19:54:31Z</time>
      </trkpt>
      <trkpt lat="43.463840" lon="10.913810">
        <ele>235</ele>
        <time>2019-09-05T19:54:33Z</time>
      </trkpt>
      <trkpt lat="43.463750" lon="10.913840">
        <ele>234</ele>
        <time>2019-09-05T19:54:35Z</time>
      </trkpt>
      <trkpt lat="43.463620" lon="10.914040">
        <ele>233</ele>
        <time>2019-09-05T19:54:38Z</time>
      </trkpt>
      <trkpt lat="43.463180" lon="10.914880">
        <ele>234</ele>
        <time>2019-09-05T19:54:51Z</time>
      </trkpt>
      <trkpt lat="43.462900" lon="10.915270">
        <ele>234</ele>
        <time>2019-09-05T19:54:59Z</time>
      </trkpt>
      <trkpt lat="43.462560" lon="10.915510">
        <ele>236</ele>
        <time>2019-09-05T19:55:05Z</time>
      </trkpt>
      <trkpt lat="43.462200" lon="10.915650">
        <ele>237</ele>
        <time>2019-09-05T19:55:12Z</time>
      </trkpt>
      <trkpt lat="43.461210" lon="10.915860">
        <ele>239</ele>
        <time>2019-09-05T19:55:30Z</time>
      </trkpt>
      <trkpt lat="43.460930" lon="10.915780">
        <ele>250</ele>
        <time>2019-09-05T19:55:35Z</time>
      </trkpt>
      <trkpt lat="43.460780" lon="10.915630">
        <ele>250</ele>
        <time>2019-09-05T19:55:38Z</time>
      </trkpt>
      <trkpt lat="43.460650" lon="10.915590">
        <ele>250</ele>
        <time>2019-09-05T19:55:41Z</time>
      </trkpt>
      <trkpt lat="43.460510" lon="10.915670">
        <ele>251</ele>
        <time>2019-09-05T19:55:43Z</time>
      </trkpt>
      <trkpt lat="43.460330" lon="10.915840">
        <ele>266</ele>
        <time>2019-09-05T19:55:47Z</time>
      </trkpt>
      <trkpt lat="43.460190" lon="10.915900">
        <ele>268</ele>
        <time>2019-09-05T19:55:50Z</time>
      </trkpt>
      <trkpt lat="43.460060" lon="10.915900">
        <ele>269</ele>
        <time>2019-09-05T19:55:52Z</time>
      </trkpt>
      <trkpt lat="43.459890" lon="10.915840">
        <ele>273</ele>
        <time>2019-09-05T19:55:55Z</time>
      </trkpt>
      <trkpt lat="43.459660" lon="10.915580">
        <ele>277</ele>
        <time>2019-09-05T19:56:00Z</time>
      </trkpt>
      <trkpt lat="43.459490" lon="10.915280">
        <ele>285</ele>
        <time>2019-09-05T19:56:05Z</time>
      </trkpt>
      <trkpt lat="43.459350" lon="10.915190">
        <ele>287</ele>
        <time>2019-09-05T19:56:08Z</time>
      </trkpt>
      <trkpt lat="43.459190" lon="10.915180">
        <ele>291</ele>
        <time>2019-09-05T19:56:11Z</time>
      </trkpt>
      <trkpt lat="43.459020" lon="10.915310">
        <ele>292</ele>
        <time>2019-09-05T19:56:14Z</time>
      </trkpt>
      <trkpt lat="43.458910" lon="10.915310">
        <ele>291</ele>
        <time>2019-09-05T19:56:16Z</time>
      </trkpt>
      <trkpt lat="43.458750" lon="10.915230">
        <ele>291</ele>
        <time>2019-09-05T19:56:19Z</time>
      </trkpt>
      <trkpt lat="43.458670" lon="10.915150">
        <ele>291</ele>
        <time>2019-09-05T19:56:21Z</time>
      </trkpt>
      <trkpt lat="43.458580" lon="10.914980">
        <ele>291</ele>
        <time>2019-09-05T19:56:24Z</time>
      </trkpt>
      <trkpt lat="43.458540" lon="10.914780">
        <ele>290</ele>
        <time>2019-09-05T19:56:27Z</time>
      </trkpt>
      <trkpt lat="43.458520" lon="10.914570">
        <ele>286</ele>
        <time>2019-09-05T19:56:29Z</time>
      </trkpt>
      <trkpt lat="43.458530" lon="10.913290">
        <ele>283</ele>
        <time>2019-09-05T19:56:46Z</time>
      </trkpt>
      <trkpt lat="43.458500" lon="10.913080">
        <ele>281</ele>
        <time>2019-09-05T19:56:49Z</time>
      </trkpt>
      <trkpt lat="43.458410" lon="10.912920">
        <ele>281</ele>
        <time>2019-09-05T19:56:51Z</time>
      </trkpt>
      <trkpt lat="43.458250" lon="10.912750">
        <ele>281</ele>
        <time>2019-09-05T19:56:55Z</time>
      </trkpt>
      <trkpt lat="43.456460" lon="10.911520">
        <ele>280</ele>
        <time>2019-09-05T19:57:30Z</time>
      </trkpt>
      <trkpt lat="43.456340" lon="10.911460">
        <ele>279</ele>
        <time>2019-09-05T19:57:33Z</time>
      </trkpt>
      <trkpt lat="43.456220" lon="10.911580">
        <ele>277</ele>
        <time>2019-09-05T19:57:35Z</time>
      </trkpt>
      <trkpt lat="43.455940" lon="10.911730">
        <ele>273</ele>
        <time>2019-09-05T19:57:41Z</time>
      </trkpt>
      <trkpt lat="43.455530" lon="10.911890">
        <ele>273</ele>
        <time>2019-09-05T19:57:48Z</time>
      </trkpt>
      <trkpt lat="43.454900" lon="10.912030">
        <ele>272</ele>
        <time>2019-09-05T19:58:00Z</time>
      </trkpt>
      <trkpt lat="43.454630" lon="10.912210">
        <ele>267</ele>
        <time>2019-09-05T19:58:05Z</time>
      </trkpt>
      <trkpt lat="43.454300" lon="10.912280">
        <ele>263</ele>
        <time>2019-09-05T19:58:11Z</time>
      </trkpt>
      <trkpt lat="43.454000" lon="10.912250">
        <ele>258</ele>
        <time>2019-09-05T19:58:16Z</time>
      </trkpt>
      <trkpt lat="43.453720" lon="10.912120">
        <ele>257</ele>
        <time>2019-09-05T19:58:21Z</time>
      </trkpt>
      <trkpt lat="43.453500" lon="10.912140">
        <ele>256</ele>
        <time>2019-09-05T19:58:25Z</time>
      </trkpt>
      <trkpt lat="43.453000" lon="10.912290">
        <ele>255</ele>
        <time>2019-09-05T19:58:35Z</time>
      </trkpt>
      <trkpt lat="43.452750" lon="10.912340">
        <ele>255</ele>
        <time>2019-09-05T19:58:39Z</time>
      </trkpt>
      <trkpt lat="43.452610" lon="10.912320">
        <ele>255</ele>
        <time>2019-09-05T19:58:42Z</time>
      </trkpt>
      <trkpt lat="43.452250" lon="10.912130">
        <ele>250</ele>
        <time>2019-09-05T19:58:48Z</time>
      </trkpt>
      <trkpt lat="43.451540" lon="10.912080">
        <ele>248</ele>
        <time>2019-09-05T19:59:01Z</time>
      </trkpt>
      <trkpt lat="43.451100" lon="10.911910">
        <ele>250</ele>
        <time>2019-09-05T19:59:09Z</time>
      </trkpt>
      <trkpt lat="43.450880" lon="10.911970">
        <ele>249</ele>
        <time>2019-09-05T19:59:13Z</time>
      </trkpt>
      <trkpt lat="43.450780" lon="10.911970">
        <ele>246</ele>
        <time>2019-09-05T19:59:15Z</time>
      </trkpt>
      <trkpt lat="43.450720" lon="10.911930">
        <ele>247</ele>
        <time>2019-09-05T19:59:16Z</time>
      </trkpt>
      <trkpt lat="43.450580" lon="10.911700">
        <ele>246</ele>
        <time>2019-09-05T19:59:20Z</time>
      </trkpt>
      <trkpt lat="43.450430" lon="10.911540">
        <ele>248</ele>
        <time>2019-09-05T19:59:23Z</time>
      </trkpt>
      <trkpt lat="43.449690" lon="10.911110">
        <ele>250</ele>
        <time>2019-09-05T19:59:38Z</time>
      </trkpt>
      <trkpt lat="43.449240" lon="10.910890">
        <ele>251</ele>
        <time>2019-09-05T19:59:46Z</time>
      </trkpt>
      <trkpt lat="43.448780" lon="10.910730">
        <ele>253</ele>
        <time>2019-09-05T19:59:55Z</time>
      </trkpt>
      <trkpt lat="43.448110" lon="10.910200">
        <ele>252</ele>
        <time>2019-09-05T20:00:08Z</time>
      </trkpt>
      <trkpt lat="43.447200" lon="10.909660">
        <ele>252</ele>
        <time>2019-09-05T20:00:26Z</time>
      </trkpt>
      <trkpt lat="43.446610" lon="10.909400">
        <ele>249</ele>
        <time>2019-09-05T20:00:37Z</time>
      </trkpt>
      <trkpt lat="43.446510" lon="10.909330">
        <ele>250</ele>
        <time>2019-09-05T20:00:39Z</time>
      </trkpt>
      <trkpt lat="43.446380" lon="10.909140">
        <ele>246</ele>
        <time>2019-09-05T20:00:42Z</time>
      </trkpt>
      <trkpt lat="43.446220" lon="10.908750">
        <ele>241</ele>
        <time>2019-09-05T20:00:48Z</time>
      </trkpt>
      <trkpt lat="43.445970" lon="10.907930">
        <ele>240</ele>
        <time>2019-09-05T20:01:00Z</time>
      </trkpt>
      <trkpt lat="43.445790" lon="10.907570">
        <ele>238</ele>
        <time>2019-09-05T20:01:05Z</time>
      </trkpt>
      <trkpt lat="43.445110" lon="10.906430">
        <ele>231</ele>
        <time>2019-09-05T20:01:24Z</time>
      </trkpt>
      <trkpt lat="43.444530" lon="10.905600">
        <ele>231</ele>
        <time>2019-09-05T20:01:39Z</time>
      </trkpt>
      <trkpt lat="43.444270" lon="10.905060">
        <ele>231</ele>
        <time>2019-09-05T20:01:48Z</time>
      </trkpt>
      <trkpt lat="43.444070" lon="10.904810">
        <ele>230</ele>
        <time>2019-09-05T20:01:52Z</time>
      </trkpt>
      <trkpt lat="43.442320" lon="10.903220">
        <ele>228</ele>
        <time>2019-09-05T20:02:30Z</time>
      </trkpt>
      <trkpt lat="43.441720" lon="10.902770">
        <ele>224</ele>
        <time>2019-09-05T20:02:42Z</time>
      </trkpt>
      <trkpt lat="43.441140" lon="10.902660">
        <ele>220</ele>
        <time>2019-09-05T20:02:52Z</time>
      </trkpt>
      <trkpt lat="43.440620" lon="10.902530">
        <ele>218</ele>
        <time>2019-09-05T20:03:02Z</time>
      </trkpt>
      <trkpt lat="43.440300" lon="10.902290">
        <ele>216</ele>
        <time>2019-09-05T20:03:08Z</time>
      </trkpt>
      <trkpt lat="43.439960" lon="10.901820">
        <ele>217</ele>
        <time>2019-09-05T20:03:17Z</time>
      </trkpt>
      <trkpt lat="43.439680" lon="10.901220">
        <ele>211</ele>
        <time>2019-09-05T20:03:26Z</time>
      </trkpt>
      <trkpt lat="43.439640" lon="10.900880">
        <ele>210</ele>
        <time>2019-09-05T20:03:30Z</time>
      </trkpt>
      <trkpt lat="43.439700" lon="10.900000">
        <ele>209</ele>
        <time>2019-09-05T20:03:42Z</time>
      </trkpt>
      <trkpt lat="43.439570" lon="10.899510">
        <ele>207</ele>
        <time>2019-09-05T20:03:49Z</time>
      </trkpt>
      <trkpt lat="43.439340" lon="10.899290">
        <ele>203</ele>
        <time>2019-09-05T20:03:54Z</time>
      </trkpt>
      <trkpt lat="43.438860" lon="10.898690">
        <ele>203</ele>
        <time>2019-09-05T20:04:05Z</time>
      </trkpt>
      <trkpt lat="43.438600" lon="10.897940">
        <ele>203</ele>
        <time>2019-09-05T20:04:16Z</time>
      </trkpt>
      <trkpt lat="43.438520" lon="10.897830">
        <ele>194</ele>
        <time>2019-09-05T20:04:18Z</time>
      </trkpt>
      <trkpt lat="43.438370" lon="10.897420">
        <ele>191</ele>
        <time>2019-09-05T20:04:24Z</time>
      </trkpt>
      <trkpt lat="43.438240" lon="10.896610">
        <ele>190</ele>
        <time>2019-09-05T20:04:34Z</time>
      </trkpt>
      <trkpt lat="43.438180" lon="10.896370">
        <ele>190</ele>
        <time>2019-09-05T20:04:38Z</time>
      </trkpt>
      <trkpt lat="43.438200" lon="10.895990">
        <ele>187</ele>
        <time>2019-09-05T20:04:43Z</time>
      </trkpt>
      <trkpt lat="43.438070" lon="10.895660">
        <ele>181</ele>
        <time>2019-09-05T20:04:48Z</time>
      </trkpt>
      <trkpt lat="43.437830" lon="10.895320">
        <ele>178</ele>
        <time>2019-09-05T20:04:54Z</time>
      </trkpt>
      <trkpt lat="43.437550" lon="10.894630">
        <ele>173</ele>
        <time>2019-09-05T20:05:04Z</time>
      </trkpt>
      <trkpt lat="43.437190" lon="10.894180">
        <ele>176</ele>
        <time>2019-09-05T20:05:13Z</time>
      </trkpt>
      <trkpt lat="43.436760" lon="10.893900">
        <ele>177</ele>
        <time>2019-09-05T20:05:21Z</time>
      </trkpt>
      <trkpt lat="43.436220" lon="10.893750">
        <ele>176</ele>
        <time>2019-09-05T20:05:31Z</time>
      </trkpt>
      <trkpt lat="43.435880" lon="10.893430">
        <ele>173</ele>
        <time>2019-09-05T20:05:38Z</time>
      </trkpt>
      <trkpt lat="43.434940" lon="10.892120">
        <ele>172</ele>
        <time>2019-09-05T20:06:02Z</time>
      </trkpt>
      <trkpt lat="43.434770" lon="10.891670">
        <ele>170</ele>
        <time>2019-09-05T20:06:08Z</time>
      </trkpt>
      <trkpt lat="43.434640" lon="10.891520">
        <ele>169</ele>
        <time>2019-09-05T20:06:11Z</time>
      </trkpt>
      <trkpt lat="43.434530" lon="10.891630">
        <ele>168</ele>
        <time>2019-09-05T20:06:14Z</time>
      </trkpt>
      <trkpt lat="43.434420" lon="10.892000">
        <ele>167</ele>
        <time>2019-09-05T20:06:19Z</time>
      </trkpt>
      <trkpt lat="43.434440" lon="10.892270">
        <ele>168</ele>
        <time>2019-09-05T20:06:23Z</time>
      </trkpt>
      <trkpt lat="43.434640" lon="10.892810">
        <ele>169</ele>
        <time>2019-09-05T20:06:30Z</time>
      </trkpt>
      <trkpt lat="43.434700" lon="10.893780">
        <ele>170</ele>
        <time>2019-09-05T20:06:43Z</time>
      </trkpt>
      <trkpt lat="43.434590" lon="10.893900">
        <ele>170</ele>
        <time>2019-09-05T20:06:45Z</time>
      </trkpt>
      <trkpt lat="43.434460" lon="10.893800">
        <ele>166</ele>
        <time>2019-09-05T20:06:48Z</time>
      </trkpt>
      <trkpt lat="43.434340" lon="10.893580">
        <ele>164</ele>
        <time>2019-09-05T20:06:52Z</time>
      </trkpt>
      <trkpt lat="43.433880" lon="10.893240">
        <ele>157</ele>
        <time>2019-09-05T20:07:01Z</time>
      </trkpt>
      <trkpt lat="43.433370" lon="10.892750">
        <ele>150</ele>
        <time>2019-09-05T20:07:12Z</time>
      </trkpt>
      <trkpt lat="43.433010" lon="10.892660">
        <ele>150</ele>
        <time>2019-09-05T20:07:19Z</time>
      </trkpt>
      <trkpt lat="43.432430" lon="10.892860">
        <ele>150</ele>
        <time>2019-09-05T20:07:29Z</time>
      </trkpt>
      <trkpt lat="43.431860" lon="10.892960">
        <ele>152</ele>
        <time>2019-09-05T20:07:39Z</time>
      </trkpt>
      <trkpt lat="43.431760" lon="10.892500">
        <ele>157</ele>
        <time>2019-09-05T20:07:46Z</time>
      </trkpt>
      <trkpt lat="43.431740" lon="10.892120">
        <ele>159</ele>
        <time>2019-09-05T20:07:51Z</time>
      </trkpt>
      <trkpt lat="43.431820" lon="10.891300">
        <ele>159</ele>
        <time>2019-09-05T20:08:01Z</time>
      </trkpt>
      <trkpt lat="43.431820" lon="10.890980">
        <ele>160</ele>
        <time>2019-09-05T20:08:05Z</time>
      </trkpt>
      <trkpt lat="43.431610" lon="10.889700">
        <ele>162</ele>
        <time>2019-09-05T20:08:22Z</time>
      </trkpt>
      <trkpt lat="43.431270" lon="10.889010">
        <ele>162</ele>
        <time>2019-09-05T20:08:33Z</time>
      </trkpt>
      <trkpt lat="43.431010" lon="10.888760">
        <ele>167</ele>
        <time>2019-09-05T20:08:39Z</time>
      </trkpt>
      <trkpt lat="43.429870" lon="10.887790">
        <ele>168</ele>
        <time>2019-09-05T20:09:03Z</time>
      </trkpt>
      <trkpt lat="43.429770" lon="10.887680">
        <ele>178</ele>
        <time>2019-09-05T20:09:05Z</time>
      </trkpt>
      <trkpt lat="43.429620" lon="10.887390">
        <ele>179</ele>
        <time>2019-09-05T20:09:09Z</time>
      </trkpt>
      <trkpt lat="43.429590" lon="10.887150">
        <ele>185</ele>
        <time>2019-09-05T20:09:13Z</time>
      </trkpt>
      <trkpt lat="43.429620" lon="10.886800">
        <ele>185</ele>
        <time>2019-09-05T20:09:17Z</time>
      </trkpt>
      <trkpt lat="43.429790" lon="10.885840">
        <ele>184</ele>
        <time>2019-09-05T20:09:30Z</time>
      </trkpt>
      <trkpt lat="43.429700" lon="10.885090">
        <ele>181</ele>
        <time>2019-09-05T20:09:40Z</time>
      </trkpt>
      <trkpt lat="43.428540" lon="10.880840">
        <ele>180</ele>
        <time>2019-09-05T20:10:38Z</time>
      </trkpt>
      <trkpt lat="43.427840" lon="10.878390">
        <ele>179</ele>
        <time>2019-09-05T20:11:12Z</time>
      </trkpt>
      <trkpt lat="43.427660" lon="10.878110">
        <ele>179</ele>
        <time>2019-09-05T20:11:17Z</time>
      </trkpt>
      <trkpt lat="43.427370" lon="10.877870">
        <ele>178</ele>
        <time>2019-09-05T20:11:23Z</time>
      </trkpt>
      <trkpt lat="43.426350" lon="10.877100">
        <ele>179</ele>
        <time>2019-09-05T20:11:44Z</time>
      </trkpt>
      <trkpt lat="43.425100" lon="10.876290">
        <ele>181</ele>
        <time>2019-09-05T20:12:09Z</time>
      </trkpt>
      <trkpt lat="43.424860" lon="10.876650">
        <ele>183</ele>
        <time>2019-09-05T20:12:15Z</time>
      </trkpt>
      <trkpt lat="43.424720" lon="10.876740">
        <ele>184</ele>
        <time>2019-09-05T20:12:18Z</time>
      </trkpt>
      <trkpt lat="43.424570" lon="10.876800">
        <ele>184</ele>
        <time>2019-09-05T20:12:20Z</time>
      </trkpt>
      <trkpt lat="43.422690" lon="10.877260">
        <ele>185</ele>
        <time>2019-09-05T20:12:54Z</time>
      </trkpt>
      <trkpt lat="43.422330" lon="10.877390">
        <ele>186</ele>
        <time>2019-09-05T20:13:01Z</time>
      </trkpt>
      <trkpt lat="43.417360" lon="10.880850">
        <ele>187</ele>
        <time>2019-09-05T20:14:40Z</time>
      </trkpt>
      <trkpt lat="43.417000" lon="10.881050">
        <ele>191</ele>
        <time>2019-09-05T20:14:47Z</time>
      </trkpt>
      <trkpt lat="43.413840" lon="10.882080">
        <ele>193</ele>
        <time>2019-09-05T20:15:45Z</time>
      </trkpt>
      <trkpt lat="43.413680" lon="10.882120">
        <ele>194</ele>
        <time>2019-09-05T20:15:48Z</time>
      </trkpt>
      <trkpt lat="43.413110" lon="10.882080">
        <ele>196</ele>
        <time>2019-09-05T20:15:58Z</time>
      </trkpt>
      <trkpt lat="43.412950" lon="10.882100">
        <ele>209</ele>
        <time>2019-09-05T20:16:01Z</time>
      </trkpt>
      <trkpt lat="43.412700" lon="10.882220">
        <ele>210</ele>
        <time>2019-09-05T20:16:05Z</time>
      </trkpt>
      <trkpt lat="43.412460" lon="10.882440">
        <ele>212</ele>
        <time>2019-09-05T20:16:11Z</time>
      </trkpt>
      <trkpt lat="43.412340" lon="10.882600">
        <ele>216</ele>
        <time>2019-09-05T20:16:13Z</time>
      </trkpt>
      <trkpt lat="43.412260" lon="10.882790">
        <ele>218</ele>
        <time>2019-09-05T20:16:16Z</time>
      </trkpt>
      <trkpt lat="43.412190" lon="10.882990">
        <ele>220</ele>
        <time>2019-09-05T20:16:19Z</time>
      </trkpt>
      <trkpt lat="43.412030" lon="10.883710">
        <ele>221</ele>
        <time>2019-09-05T20:16:29Z</time>
      </trkpt>
      <trkpt lat="43.411850" lon="10.884260">
        <ele>223</ele>
        <time>2019-09-05T20:16:37Z</time>
      </trkpt>
      <trkpt lat="43.411550" lon="10.884270">
        <ele>224</ele>
        <time>2019-09-05T20:16:42Z</time>
      </trkpt>
      <trkpt lat="43.411300" lon="10.884170">
        <ele>225</ele>
        <time>2019-09-05T20:16:47Z</time>
      </trkpt>
      <trkpt lat="43.411100" lon="10.884930">
        <ele>226</ele>
        <time>2019-09-05T20:16:57Z</time>
      </trkpt>
      <trkpt lat="43.411070" lon="10.885000">
        <ele>229</ele>
        <time>2019-09-05T20:16:58Z</time>
      </trkpt>
      <trkpt lat="43.410940" lon="10.885120">
        <ele>231</ele>
        <time>2019-09-05T20:17:01Z</time>
      </trkpt>
      <trkpt lat="43.410870" lon="10.885130">
        <ele>232</ele>
        <time>2019-09-05T20:17:02Z</time>
      </trkpt>
      <trkpt lat="43.410780" lon="10.885090">
        <ele>233</ele>
        <time>2019-09-05T20:17:04Z</time>
      </trkpt>
      <trkpt lat="43.410570" lon="10.884750">
        <ele>234</ele>
        <time>2019-09-05T20:17:10Z</time>
      </trkpt>
      <trkpt lat="43.410500" lon="10.884690">
        <ele>235</ele>
        <time>2019-09-05T20:17:11Z</time>
      </trkpt>
      <trkpt lat="43.410400" lon="10.884650">
        <ele>237</ele>
        <time>2019-09-05T20:17:13Z</time>
      </trkpt>
      <trkpt lat="43.410280" lon="10.884640">
        <ele>238</ele>
        <time>2019-09-05T20:17:15Z</time>
      </trkpt>
      <trkpt lat="43.409530" lon="10.884740">
        <ele>239</ele>
        <time>2019-09-05T20:17:29Z</time>
      </trkpt>
      <trkpt lat="43.409470" lon="10.884760">
        <ele>242</ele>
        <time>2019-09-05T20:17:30Z</time>
      </trkpt>
      <trkpt lat="43.409340" lon="10.884960">
        <ele>246</ele>
        <time>2019-09-05T20:17:33Z</time>
      </trkpt>
      <trkpt lat="43.409100" lon="10.884970">
        <ele>257</ele>
        <time>2019-09-05T20:17:37Z</time>
      </trkpt>
      <trkpt lat="43.409030" lon="10.885040">
        <ele>259</ele>
        <time>2019-09-05T20:17:39Z</time>
      </trkpt>
      <trkpt lat="43.408920" lon="10.885280">
        <ele>264</ele>
        <time>2019-09-05T20:17:43Z</time>
      </trkpt>
      <trkpt lat="43.408870" lon="10.885310">
        <ele>265</ele>
        <time>2019-09-05T20:17:44Z</time>
      </trkpt>
      <trkpt lat="43.408780" lon="10.885280">
        <ele>276</ele>
        <time>2019-09-05T20:17:45Z</time>
      </trkpt>
      <trkpt lat="43.408740" lon="10.885300">
        <ele>281</ele>
        <time>2019-09-05T20:17:46Z</time>
      </trkpt>
      <trkpt lat="43.408700" lon="10.885420">
        <ele>280</ele>
        <time>2019-09-05T20:17:48Z</time>
      </trkpt>
      <trkpt lat="43.408660" lon="10.885460">
        <ele>279</ele>
        <time>2019-09-05T20:17:49Z</time>
      </trkpt>
      <trkpt lat="43.408510" lon="10.885290">
        <ele>279</ele>
        <time>2019-09-05T20:17:52Z</time>
      </trkpt>
      <trkpt lat="43.408410" lon="10.885280">
        <ele>278</ele>
        <time>2019-09-05T20:17:54Z</time>
      </trkpt>
      <trkpt lat="43.408360" lon="10.885370">
        <ele>270</ele>
        <time>2019-09-05T20:17:55Z</time>
      </trkpt>
      <trkpt lat="43.408350" lon="10.885700">
        <ele>269</ele>
        <time>2019-09-05T20:18:00Z</time>
      </trkpt>
      <trkpt lat="43.408330" lon="10.885770">
        <ele>263</ele>
        <time>2019-09-05T20:18:01Z</time>
      </trkpt>
      <trkpt lat="43.408250" lon="10.885860">
        <ele>262</ele>
        <time>2019-09-05T20:18:02Z</time>
      </trkpt>
      <trkpt lat="43.408160" lon="10.885840">
        <ele>261</ele>
        <time>2019-09-05T20:18:04Z</time>
      </trkpt>
      <trkpt lat="43.408070" lon="10.885500">
        <ele>261</ele>
        <time>2019-09-05T20:18:09Z</time>
      </trkpt>
      <trkpt lat="43.408030" lon="10.885440">
        <ele>259</ele>
        <time>2019-09-05T20:18:10Z</time>
      </trkpt>
      <trkpt lat="43.407860" lon="10.885310">
        <ele>253</ele>
        <time>2019-09-05T20:18:13Z</time>
      </trkpt>
      <trkpt lat="43.407600" lon="10.885180">
        <ele>251</ele>
        <time>2019-09-05T20:18:18Z</time>
      </trkpt>
      <trkpt lat="43.407170" lon="10.885150">
        <ele>250</ele>
        <time>2019-09-05T20:18:26Z</time>
      </trkpt>
      <trkpt lat="43.407090" lon="10.885190">
        <ele>250</ele>
        <time>2019-09-05T20:18:27Z</time>
      </trkpt>
      <trkpt lat="43.406860" lon="10.885560">
        <ele>247</ele>
        <time>2019-09-05T20:18:34Z</time>
      </trkpt>
      <trkpt lat="43.406780" lon="10.885650">
        <ele>247</ele>
        <time>2019-09-05T20:18:35Z</time>
      </trkpt>
      <trkpt lat="43.406280" lon="10.885920">
        <ele>246</ele>
        <time>2019-09-05T20:18:45Z</time>
      </trkpt>
      <trkpt lat="43.405750" lon="10.886390">
        <ele>259</ele>
        <time>2019-09-05T20:18:56Z</time>
      </trkpt>
      <trkpt lat="43.405690" lon="10.886510">
        <ele>261</ele>
        <time>2019-09-05T20:18:58Z</time>
      </trkpt>
      <trkpt lat="43.405590" lon="10.886850">
        <ele>262</ele>
        <time>2019-09-05T20:19:03Z</time>
      </trkpt>
      <trkpt lat="43.405560" lon="10.886870">
        <ele>262</ele>
        <time>2019-09-05T20:19:03Z</time>
      </trkpt>
      <trkpt lat="43.405550" lon="10.886990">
        <ele>260</ele>
        <time>2019-09-05T20:19:05Z</time>
      </trkpt>
      <trkpt lat="43.405640" lon="10.887680">
        <ele>260</ele>
        <time>2019-09-05T20:19:14Z</time>
      </trkpt>
      <trkpt lat="43.405570" lon="10.888040">
        <ele>261</ele>
        <time>2019-09-05T20:19:19Z</time>
      </trkpt>
      <trkpt lat="43.405660" lon="10.888550">
        <ele>261</ele>
        <time>2019-09-05T20:19:26Z</time>
      </trkpt>
      <trkpt lat="43.405660" lon="10.888700">
        <ele>265</ele>
        <time>2019-09-05T20:19:28Z</time>
      </trkpt>
      <trkpt lat="43.405580" lon="10.889700">
        <ele>267</ele>
        <time>2019-09-05T20:19:41Z</time>
      </trkpt>
      <trkpt lat="43.405430" lon="10.890320">
        <ele>279</ele>
        <time>2019-09-05T20:19:49Z</time>
      </trkpt>
      <trkpt lat="43.405410" lon="10.890550">
        <ele>281</ele>
        <time>2019-09-05T20:19:52Z</time>
      </trkpt>
      <trkpt lat="43.405420" lon="10.891070">
        <ele>283</ele>
        <time>2019-09-05T20:19:59Z</time>
      </trkpt>
      <trkpt lat="43.405360" lon="10.891290">
        <ele>285</ele>
        <time>2019-09-05T20:20:02Z</time>
      </trkpt>
      <trkpt lat="43.405300" lon="10.891380">
        <ele>285</ele>
        <time>2019-09-05T20:20:03Z</time>
      </trkpt>
      <trkpt lat="43.405170" lon="10.891490">
        <ele>286</ele>
        <time>2019-09-05T20:20:06Z</time>
      </trkpt>
      <trkpt lat="43.404900" lon="10.892090">
        <ele>288</ele>
        <time>2019-09-05T20:20:15Z</time>
      </trkpt>
      <trkpt lat="43.404480" lon="10.892240">
        <ele>285</ele>
        <time>2019-09-05T20:20:23Z</time>
      </trkpt>
      <trkpt lat="43.404330" lon="10.892360">
        <ele>281</ele>
        <time>2019-09-05T20:20:26Z</time>
      </trkpt>
      <trkpt lat="43.403270" lon="10.891860">
        <ele>280</ele>
        <time>2019-09-05T20:20:46Z</time>
      </trkpt>
      <trkpt lat="43.403120" lon="10.891840">
        <ele>280</ele>
        <time>2019-09-05T20:20:49Z</time>
      </trkpt>
      <trkpt lat="43.402960" lon="10.891930">
        <ele>283</ele>
        <time>2019-09-05T20:20:52Z</time>
      </trkpt>
      <trkpt lat="43.402890" lon="10.892040">
        <ele>283</ele>
        <time>2019-09-05T20:20:54Z</time>
      </trkpt>
      <trkpt lat="43.402680" lon="10.892570">
        <ele>282</ele>
        <time>2019-09-05T20:21:01Z</time>
      </trkpt>
      <trkpt lat="43.402610" lon="10.892650">
        <ele>280</ele>
        <time>2019-09-05T20:21:03Z</time>
      </trkpt>
      <trkpt lat="43.402520" lon="10.892690">
        <ele>277</ele>
        <time>2019-09-05T20:21:05Z</time>
      </trkpt>
      <trkpt lat="43.402360" lon="10.892690">
        <ele>272</ele>
        <time>2019-09-05T20:21:08Z</time>
      </trkpt>
      <trkpt lat="43.401970" lon="10.892390">
        <ele>271</ele>
        <time>2019-09-05T20:21:15Z</time>
      </trkpt>
      <trkpt lat="43.401680" lon="10.892260">
        <ele>271</ele>
        <time>2019-09-05T20:21:21Z</time>
      </trkpt>
      <trkpt lat="43.400910" lon="10.891810">
        <ele>270</ele>
        <time>2019-09-05T20:21:36Z</time>
      </trkpt>
      <trkpt lat="43.400790" lon="10.891800">
        <ele>269</ele>
        <time>2019-09-05T20:21:38Z</time>
      </trkpt>
      <trkpt lat="43.400570" lon="10.891840">
        <ele>265</ele>
        <time>2019-09-05T20:21:42Z</time>
      </trkpt>
      <trkpt lat="43.400310" lon="10.891970">
        <ele>265</ele>
        <time>2019-09-05T20:21:47Z</time>
      </trkpt>
      <trkpt lat="43.400190" lon="10.892090">
        <ele>264</ele>
        <time>2019-09-05T20:21:49Z</time>
      </trkpt>
      <trkpt lat="43.399840" lon="10.892550">
        <ele>261</ele>
        <time>2019-09-05T20:21:58Z</time>
      </trkpt>
      <trkpt lat="43.399660" lon="10.892700">
        <ele>260</ele>
        <time>2019-09-05T20:22:02Z</time>
      </trkpt>
      <trkpt lat="43.399680" lon="10.892790">
        <ele>255</ele>
        <time>2019-09-05T20:22:03Z</time>
      </trkpt>
      <trkpt lat="43.399590" lon="10.893040">
        <ele>254</ele>
        <time>2019-09-05T20:22:07Z</time>
      </trkpt>
      <trkpt lat="43.399510" lon="10.893170">
        <ele>253</ele>
        <time>2019-09-05T20:22:09Z</time>
      </trkpt>
      <trkpt lat="43.399440" lon="10.893210">
        <ele>254</ele>
        <time>2019-09-05T20:22:10Z</time>
      </trkpt>
      <trkpt lat="43.399170" lon="10.893240">
        <ele>253</ele>
        <time>2019-09-05T20:22:15Z</time>
      </trkpt>
      <trkpt lat="43.398900" lon="10.893390">
        <ele>251</ele>
        <time>2019-09-05T20:22:20Z</time>
      </trkpt>
      <trkpt lat="43.398760" lon="10.893520">
        <ele>247</ele>
        <time>2019-09-05T20:22:23Z</time>
      </trkpt>
      <trkpt lat="43.398620" lon="10.893740">
        <ele>246</ele>
        <time>2019-09-05T20:22:27Z</time>
      </trkpt>
      <trkpt lat="43.398380" lon="10.894020">
        <ele>246</ele>
        <time>2019-09-05T20:22:33Z</time>
      </trkpt>
      <trkpt lat="43.398210" lon="10.894330">
        <ele>245</ele>
        <time>2019-09-05T20:22:38Z</time>
      </trkpt>
      <trkpt lat="43.398080" lon="10.894480">
        <ele>242</ele>
        <time>2019-09-05T20:22:41Z</time>
      </trkpt>
      <trkpt lat="43.397690" lon="10.894790">
        <ele>241</ele>
        <time>2019-09-05T20:22:49Z</time>
      </trkpt>
      <trkpt lat="43.397560" lon="10.894930">
        <ele>241</ele>
        <time>2019-09-05T20:22:52Z</time>
      </trkpt>
      <trkpt lat="43.397310" lon="10.895400">
        <ele>237</ele>
        <time>2019-09-05T20:22:59Z</time>
      </trkpt>
      <trkpt lat="43.397180" lon="10.896070">
        <ele>235</ele>
        <time>2019-09-05T20:23:08Z</time>
      </trkpt>
      <trkpt lat="43.397080" lon="10.896230">
        <ele>231</ele>
        <time>2019-09-05T20:23:11Z</time>
      </trkpt>
      <trkpt lat="43.397010" lon="10.896440">
        <ele>230</ele>
        <time>2019-09-05T20:23:14Z</time>
      </trkpt>
      <trkpt lat="43.396960" lon="10.896750">
        <ele>231</ele>
        <time>2019-09-05T20:23:18Z</time>
      </trkpt>
      <trkpt lat="43.396840" lon="10.897000">
        <ele>233</ele>
        <time>2019-09-05T20:23:22Z</time>
      </trkpt>
      <trkpt lat="43.396750" lon="10.897440">
        <ele>232</ele>
        <time>2019-09-05T20:23:28Z</time>
      </trkpt>
      <trkpt lat="43.396670" lon="10.897610">
        <ele>232</ele>
        <time>2019-09-05T20:23:30Z</time>
      </trkpt>
      <trkpt lat="43.396460" lon="10.897850">
        <ele>230</ele>
        <time>2019-09-05T20:23:35Z</time>
      </trkpt>
      <trkpt lat="43.396190" lon="10.898050">
        <ele>229</ele>
        <time>2019-09-05T20:23:41Z</time>
      </trkpt>
      <trkpt lat="43.396080" lon="10.898160">
        <ele>230</ele>
        <time>2019-09-05T20:23:43Z</time>
      </trkpt>
      <trkpt lat="43.396010" lon="10.898310">
        <ele>230</ele>
        <time>2019-09-05T20:23:45Z</time>
      </trkpt>
      <trkpt lat="43.395910" lon="10.898710">
        <ele>233</ele>
        <time>2019-09-05T20:23:51Z</time>
      </trkpt>
      <trkpt lat="43.395800" lon="10.898840">
        <ele>236</ele>
        <time>2019-09-05T20:23:53Z</time>
      </trkpt>
      <trkpt lat="43.395400" lon="10.899440">
        <ele>237</ele>
        <time>2019-09-05T20:24:04Z</time>
      </trkpt>
      <trkpt lat="43.395380" lon="10.899540">
        <ele>237</ele>
        <time>2019-09-05T20:24:05Z</time>
      </trkpt>
      <trkpt lat="43.395410" lon="10.899780">
        <ele>237</ele>
        <time>2019-09-05T20:24:08Z</time>
      </trkpt>
      <trkpt lat="43.395380" lon="10.899910">
        <ele>237</ele>
        <time>2019-09-05T20:24:10Z</time>
      </trkpt>
      <trkpt lat="43.395300" lon="10.900050">
        <ele>234</ele>
        <time>2019-09-05T20:24:12Z</time>
      </trkpt>
      <trkpt lat="43.395180" lon="10.900660">
        <ele>233</ele>
        <time>2019-09-05T20:24:21Z</time>
      </trkpt>
      <trkpt lat="43.395160" lon="10.900860">
        <ele>234</ele>
        <time>2019-09-05T20:24:23Z</time>
      </trkpt>
      <trkpt lat="43.395190" lon="10.901310">
        <ele>234</ele>
        <time>2019-09-05T20:24:29Z</time>
      </trkpt>
      <trkpt lat="43.395150" lon="10.901490">
        <ele>234</ele>
        <time>2019-09-05T20:24:31Z</time>
      </trkpt>
      <trkpt lat="43.394920" lon="10.902090">
        <ele>235</ele>
        <time>2019-09-05T20:24:40Z</time>
      </trkpt>
      <trkpt lat="43.394770" lon="10.902360">
        <ele>237</ele>
        <time>2019-09-05T20:24:45Z</time>
      </trkpt>
      <trkpt lat="43.394770" lon="10.902490">
        <ele>239</ele>
        <time>2019-09-05T20:24:46Z</time>
      </trkpt>
      <trkpt lat="43.394830" lon="10.902580">
        <ele>241</ele>
        <time>2019-09-05T20:24:48Z</time>
      </trkpt>
      <trkpt lat="43.395040" lon="10.902640">
        <ele>242</ele>
        <time>2019-09-05T20:24:52Z</time>
      </trkpt>
      <trkpt lat="43.395400" lon="10.902580">
        <ele>241</ele>
        <time>2019-09-05T20:24:58Z</time>
      </trkpt>
      <trkpt lat="43.395470" lon="10.902640">
        <ele>240</ele>
        <time>2019-09-05T20:25:00Z</time>
      </trkpt>
      <trkpt lat="43.395490" lon="10.902760">
        <ele>239</ele>
        <time>2019-09-05T20:25:01Z</time>
      </trkpt>
      <trkpt lat="43.395490" lon="10.903270">
        <ele>240</ele>
        <time>2019-09-05T20:25:08Z</time>
      </trkpt>
      <trkpt lat="43.395570" lon="10.903820">
        <ele>246</ele>
        <time>2019-09-05T20:25:15Z</time>
      </trkpt>
      <trkpt lat="43.395610" lon="10.903920">
        <ele>260</ele>
        <time>2019-09-05T20:25:17Z</time>
      </trkpt>
      <trkpt lat="43.395680" lon="10.903940">
        <ele>258</ele>
        <time>2019-09-05T20:25:18Z</time>
      </trkpt>
      <trkpt lat="43.395730" lon="10.903880">
        <ele>258</ele>
        <time>2019-09-05T20:25:19Z</time>
      </trkpt>
      <trkpt lat="43.395770" lon="10.903730">
        <ele>260</ele>
        <time>2019-09-05T20:25:21Z</time>
      </trkpt>
      <trkpt lat="43.395770" lon="10.903250">
        <ele>262</ele>
        <time>2019-09-05T20:25:27Z</time>
      </trkpt>
      <trkpt lat="43.395830" lon="10.903090">
        <ele>263</ele>
        <time>2019-09-05T20:25:30Z</time>
      </trkpt>
      <trkpt lat="43.395940" lon="10.902950">
        <ele>265</ele>
        <time>2019-09-05T20:25:32Z</time>
      </trkpt>
      <trkpt lat="43.396150" lon="10.902580">
        <ele>267</ele>
        <time>2019-09-05T20:25:38Z</time>
      </trkpt>
      <trkpt lat="43.396240" lon="10.902490">
        <ele>268</ele>
        <time>2019-09-05T20:25:40Z</time>
      </trkpt>
      <trkpt lat="43.396340" lon="10.902440">
        <ele>269</ele>
        <time>2019-09-05T20:25:42Z</time>
      </trkpt>
      <trkpt lat="43.396480" lon="10.902440">
        <ele>270</ele>
        <time>2019-09-05T20:25:45Z</time>
      </trkpt>
      <trkpt lat="43.396590" lon="10.902490">
        <ele>273</ele>
        <time>2019-09-05T20:25:47Z</time>
      </trkpt>
      <trkpt lat="43.396640" lon="10.902600">
        <ele>274</ele>
        <time>2019-09-05T20:25:48Z</time>
      </trkpt>
      <trkpt lat="43.396640" lon="10.902720">
        <ele>275</ele>
        <time>2019-09-05T20:25:50Z</time>
      </trkpt>
      <trkpt lat="43.396560" lon="10.902800">
        <ele>277</ele>
        <time>2019-09-05T20:25:52Z</time>
      </trkpt>
      <trkpt lat="43.396430" lon="10.902830">
        <ele>277</ele>
        <time>2019-09-05T20:25:54Z</time>
      </trkpt>
      <trkpt lat="43.396360" lon="10.902880">
        <ele>278</ele>
        <time>2019-09-05T20:25:56Z</time>
      </trkpt>
      <trkpt lat="43.396310" lon="10.903000">
        <ele>279</ele>
        <time>2019-09-05T20:25:57Z</time>
      </trkpt>
      <trkpt lat="43.396280" lon="10.903660">
        <ele>280</ele>
        <time>2019-09-05T20:26:06Z</time>
      </trkpt>
      <trkpt lat="43.396510" lon="10.904720">
        <ele>281</ele>
        <time>2019-09-05T20:26:20Z</time>
      </trkpt>
      <trkpt lat="43.396360" lon="10.905350">
        <ele>284</ele>
        <time>2019-09-05T20:26:29Z</time>
      </trkpt>
      <trkpt lat="43.396350" lon="10.905550">
        <ele>287</ele>
        <time>2019-09-05T20:26:31Z</time>
      </trkpt>
      <trkpt lat="43.396410" lon="10.905690">
        <ele>288</ele>
        <time>2019-09-05T20:26:33Z</time>
      </trkpt>
      <trkpt lat="43.396530" lon="10.905740">
        <ele>289</ele>
        <time>2019-09-05T20:26:36Z</time>
      </trkpt>
      <trkpt lat="43.396620" lon="10.905720">
        <ele>288</ele>
        <time>2019-09-05T20:26:37Z</time>
      </trkpt>
      <trkpt lat="43.396700" lon="10.905620">
        <ele>288</ele>
        <time>2019-09-05T20:26:39Z</time>
      </trkpt>
      <trkpt lat="43.396800" lon="10.905320">
        <ele>290</ele>
        <time>2019-09-05T20:26:43Z</time>
      </trkpt>
      <trkpt lat="43.396870" lon="10.905200">
        <ele>294</ele>
        <time>2019-09-05T20:26:45Z</time>
      </trkpt>
      <trkpt lat="43.396940" lon="10.905190">
        <ele>297</ele>
        <time>2019-09-05T20:26:47Z</time>
      </trkpt>
      <trkpt lat="43.397010" lon="10.905260">
        <ele>299</ele>
        <time>2019-09-05T20:26:48Z</time>
      </trkpt>
      <trkpt lat="43.397140" lon="10.905700">
        <ele>301</ele>
        <time>2019-09-05T20:26:54Z</time>
      </trkpt>
      <trkpt lat="43.397220" lon="10.905880">
        <ele>307</ele>
        <time>2019-09-05T20:26:57Z</time>
      </trkpt>
      <trkpt lat="43.397260" lon="10.905930">
        <ele>308</ele>
        <time>2019-09-05T20:26:58Z</time>
      </trkpt>
      <trkpt lat="43.397340" lon="10.905930">
        <ele>310</ele>
        <time>2019-09-05T20:26:59Z</time>
      </trkpt>
      <trkpt lat="43.397370" lon="10.905890">
        <ele>317</ele>
        <time>2019-09-05T20:27:00Z</time>
      </trkpt>
      <trkpt lat="43.397430" lon="10.905600">
        <ele>320</ele>
        <time>2019-09-05T20:27:04Z</time>
      </trkpt>
      <trkpt lat="43.397560" lon="10.905300">
        <ele>324</ele>
        <time>2019-09-05T20:27:09Z</time>
      </trkpt>
      <trkpt lat="43.397770" lon="10.904680">
        <ele>326</ele>
        <time>2019-09-05T20:27:17Z</time>
      </trkpt>
      <trkpt lat="43.397930" lon="10.904340">
        <ele>324</ele>
        <time>2019-09-05T20:27:23Z</time>
      </trkpt>
      <trkpt lat="43.398120" lon="10.904110">
        <ele>318</ele>
        <time>2019-09-05T20:27:27Z</time>
      </trkpt>
      <trkpt lat="43.398220" lon="10.904080">
        <ele>316</ele>
        <time>2019-09-05T20:27:29Z</time>
      </trkpt>
      <trkpt lat="43.398260" lon="10.904100">
        <ele>318</ele>
        <time>2019-09-05T20:27:30Z</time>
      </trkpt>
      <trkpt lat="43.398280" lon="10.904220">
        <ele>323</ele>
        <time>2019-09-05T20:27:31Z</time>
      </trkpt>
      <trkpt lat="43.398200" lon="10.904420">
        <ele>326</ele>
        <time>2019-09-05T20:27:34Z</time>
      </trkpt>
      <trkpt lat="43.398140" lon="10.904700">
        <ele>330</ele>
        <time>2019-09-05T20:27:38Z</time>
      </trkpt>
      <trkpt lat="43.398150" lon="10.904880">
        <ele>333</ele>
        <time>2019-09-05T20:27:40Z</time>
      </trkpt>
      <trkpt lat="43.398250" lon="10.905480">
        <ele>335</ele>
        <time>2019-09-05T20:27:48Z</time>
      </trkpt>
      <trkpt lat="43.398350" lon="10.905660">
        <ele>334</ele>
        <time>2019-09-05T20:27:51Z</time>
      </trkpt>
      <trkpt lat="43.398450" lon="10.905690">
        <ele>334</ele>
        <time>2019-09-05T20:27:53Z</time>
      </trkpt>
      <trkpt lat="43.398540" lon="10.905630">
        <ele>336</ele>
        <time>2019-09-05T20:27:55Z</time>
      </trkpt>
      <trkpt lat="43.398820" lon="10.905010">
        <ele>339</ele>
        <time>2019-09-05T20:28:04Z</time>
      </trkpt>
      <trkpt lat="43.398980" lon="10.904470">
        <ele>342</ele>
        <time>2019-09-05T20:28:12Z</time>
      </trkpt>
      <trkpt lat="43.399080" lon="10.904310">
        <ele>342</ele>
        <time>2019-09-05T20:28:15Z</time>
      </trkpt>
      <trkpt lat="43.399370" lon="10.904020">
        <ele>344</ele>
        <time>2019-09-05T20:28:21Z</time>
      </trkpt>
      <trkpt lat="43.399450" lon="10.904000">
        <ele>351</ele>
        <time>2019-09-05T20:28:22Z</time>
      </trkpt>
      <trkpt lat="43.399520" lon="10.904060">
        <ele>352</ele>
        <time>2019-09-05T20:28:24Z</time>
      </trkpt>
      <trkpt lat="43.399520" lon="10.904200">
        <ele>349</ele>
        <time>2019-09-05T20:28:26Z</time>
      </trkpt>
      <trkpt lat="43.399460" lon="10.904340">
        <ele>344</ele>
        <time>2019-09-05T20:28:28Z</time>
      </trkpt>
      <trkpt lat="43.399290" lon="10.904480">
        <ele>345</ele>
        <time>2019-09-05T20:28:31Z</time>
      </trkpt>
      <trkpt lat="43.399230" lon="10.904600">
        <ele>347</ele>
        <time>2019-09-05T20:28:33Z</time>
      </trkpt>
      <trkpt lat="43.399240" lon="10.904760">
        <ele>352</ele>
        <time>2019-09-05T20:28:35Z</time>
      </trkpt>
      <trkpt lat="43.399330" lon="10.904980">
        <ele>352</ele>
        <time>2019-09-05T20:28:39Z</time>
      </trkpt>
      <trkpt lat="43.399470" lon="10.905450">
        <ele>352</ele>
        <time>2019-09-05T20:28:45Z</time>
      </trkpt>
      <trkpt lat="43.399620" lon="10.905580">
        <ele>352</ele>
        <time>2019-09-05T20:28:48Z</time>
      </trkpt>
      <trkpt lat="43.399700" lon="10.905590">
        <ele>359</ele>
        <time>2019-09-05T20:28:50Z</time>
      </trkpt>
      <trkpt lat="43.399730" lon="10.905460">
        <ele>360</ele>
        <time>2019-09-05T20:28:52Z</time>
      </trkpt>
      <trkpt lat="43.399650" lon="10.905230">
        <ele>358</ele>
        <time>2019-09-05T20:28:55Z</time>
      </trkpt>
      <trkpt lat="43.399630" lon="10.905080">
        <ele>356</ele>
        <time>2019-09-05T20:28:57Z</time>
      </trkpt>
      <trkpt lat="43.399670" lon="10.904890">
        <ele>337</ele>
        <time>2019-09-05T20:28:59Z</time>
      </trkpt>
      <trkpt lat="43.399750" lon="10.904870">
        <ele>334</ele>
        <time>2019-09-05T20:29:01Z</time>
      </trkpt>
      <trkpt lat="43.399800" lon="10.904960">
        <ele>331</ele>
        <time>2019-09-05T20:29:02Z</time>
      </trkpt>
      <trkpt lat="43.399850" lon="10.905170">
        <ele>322</ele>
        <time>2019-09-05T20:29:05Z</time>
      </trkpt>
      <trkpt lat="43.400000" lon="10.905570">
        <ele>320</ele>
        <time>2019-09-05T20:29:11Z</time>
      </trkpt>
      <trkpt lat="43.400200" lon="10.906030">
        <ele>321</ele>
        <time>2019-09-05T20:29:18Z</time>
      </trkpt>
      <trkpt lat="43.400250" lon="10.906280">
        <ele>327</ele>
        <time>2019-09-05T20:29:21Z</time>
      </trkpt>
      <trkpt lat="43.400230" lon="10.906520">
        <ele>330</ele>
        <time>2019-09-05T20:29:24Z</time>
      </trkpt>
      <trkpt lat="43.400000" lon="10.907460">
        <ele>332</ele>
        <time>2019-09-05T20:29:37Z</time>
      </trkpt>
      <trkpt lat="43.399940" lon="10.907810">
        <ele>331</ele>
        <time>2019-09-05T20:29:42Z</time>
      </trkpt>
      <trkpt lat="43.399940" lon="10.907970">
        <ele>331</ele>
        <time>2019-09-05T20:29:44Z</time>
      </trkpt>
      <trkpt lat="43.400100" lon="10.908300">
        <ele>332</ele>
        <time>2019-09-05T20:29:49Z</time>
      </trkpt>
      <trkpt lat="43.400160" lon="10.908560">
        <ele>340</ele>
        <time>2019-09-05T20:29:53Z</time>
      </trkpt>
      <trkpt lat="43.400210" lon="10.908620">
        <ele>342</ele>
        <time>2019-09-05T20:29:54Z</time>
      </trkpt>
      <trkpt lat="43.400300" lon="10.908630">
        <ele>343</ele>
        <time>2019-09-05T20:29:55Z</time>
      </trkpt>
      <trkpt lat="43.401300" lon="10.908530">
        <ele>344</ele>
        <time>2019-09-05T20:30:13Z</time>
      </trkpt>
      <trkpt lat="43.401660" lon="10.908470">
        <ele>348</ele>
        <time>2019-09-05T20:30:20Z</time>
      </trkpt>
      <trkpt lat="43.401780" lon="10.908470">
        <ele>349</ele>
        <time>2019-09-05T20:30:22Z</time>
      </trkpt>
      <trkpt lat="43.401890" lon="10.908540">
        <ele>352</ele>
        <time>2019-09-05T20:30:24Z</time>
      </trkpt>
      <trkpt lat="43.402650" lon="10.910510">
        <ele>353</ele>
        <time>2019-09-05T20:30:53Z</time>
      </trkpt>
      <trkpt lat="43.402710" lon="10.910740">
        <ele>354</ele>
        <time>2019-09-05T20:30:56Z</time>
      </trkpt>
      <trkpt lat="43.402780" lon="10.911200">
        <ele>356</ele>
        <time>2019-09-05T20:31:02Z</time>
      </trkpt>
      <trkpt lat="43.402970" lon="10.912840">
        <ele>359</ele>
        <time>2019-09-05T20:31:23Z</time>
      </trkpt>
      <trkpt lat="43.403000" lon="10.913230">
        <ele>365</ele>
        <time>2019-09-05T20:31:29Z</time>
      </trkpt>
      <trkpt lat="43.402960" lon="10.913890">
        <ele>369</ele>
        <time>2019-09-05T20:31:37Z</time>
      </trkpt>
      <trkpt lat="43.402740" lon="10.915030">
        <ele>370</ele>
        <time>2019-09-05T20:31:52Z</time>
      </trkpt>
      <trkpt lat="43.402660" lon="10.915240">
        <ele>370</ele>
        <time>2019-09-05T20:31:55Z</time>
      </trkpt>
      <trkpt lat="43.402560" lon="10.915340">
        <ele>373</ele>
        <time>2019-09-05T20:31:58Z</time>
      </trkpt>
      <trkpt lat="43.402220" lon="10.915480">
        <ele>376</ele>
        <time>2019-09-05T20:32:04Z</time>
      </trkpt>
      <trkpt lat="43.402160" lon="10.915550">
        <ele>377</ele>
        <time>2019-09-05T20:32:05Z</time>
      </trkpt>
      <trkpt lat="43.402160" lon="10.915640">
        <ele>379</ele>
        <time>2019-09-05T20:32:06Z</time>
      </trkpt>
      <trkpt lat="43.402710" lon="10.916180">
        <ele>377</ele>
        <time>2019-09-05T20:32:18Z</time>
      </trkpt>
      <trkpt lat="43.403140" lon="10.916670">
        <ele>378</ele>
        <time>2019-09-05T20:32:28Z</time>
      </trkpt>
      <trkpt lat="43.403260" lon="10.916890">
        <ele>378</ele>
        <time>2019-09-05T20:32:32Z</time>
      </trkpt>
      <trkpt lat="43.403310" lon="10.917070">
        <ele>377</ele>
        <time>2019-09-05T20:32:34Z</time>
      </trkpt>
      <trkpt lat="43.403350" lon="10.917430">
        <ele>379</ele>
        <time>2019-09-05T20:32:39Z</time>
      </trkpt>
      <trkpt lat="43.403400" lon="10.917620">
        <ele>379</ele>
        <time>2019-09-05T20:32:42Z</time>
      </trkpt>
      <trkpt lat="43.403650" lon="10.918090">
        <ele>378</ele>
        <time>2019-09-05T20:32:49Z</time>
      </trkpt>
      <trkpt lat="43.403720" lon="10.918290">
        <ele>377</ele>
        <time>2019-09-05T20:32:52Z</time>
      </trkpt>
      <trkpt lat="43.403740" lon="10.918590">
        <ele>374</ele>
        <time>2019-09-05T20:32:56Z</time>
      </trkpt>
      <trkpt lat="43.403720" lon="10.918910">
        <ele>367</ele>
        <time>2019-09-05T20:33:00Z</time>
      </trkpt>
      <trkpt lat="43.403620" lon="10.919370">
        <ele>367</ele>
        <time>2019-09-05T20:33:06Z</time>
      </trkpt>
      <trkpt lat="43.403420" lon="10.920030">
        <ele>368</ele>
        <time>2019-09-05T20:33:16Z</time>
      </trkpt>
      <trkpt lat="43.403090" lon="10.920930">
        <ele>368</ele>
        <time>2019-09-05T20:33:29Z</time>
      </trkpt>
      <trkpt lat="43.403030" lon="10.921210">
        <ele>369</ele>
        <time>2019-09-05T20:33:32Z</time>
      </trkpt>
      <trkpt lat="43.403030" lon="10.921340">
        <ele>367</ele>
        <time>2019-09-05T20:33:34Z</time>
      </trkpt>
      <trkpt lat="43.403160" lon="10.921940">
        <ele>365</ele>
        <time>2019-09-05T20:33:42Z</time>
      </trkpt>
      <trkpt lat="43.403300" lon="10.922470">
        <ele>365</ele>
        <time>2019-09-05T20:33:50Z</time>
      </trkpt>
      <trkpt lat="43.403440" lon="10.922870">
        <ele>365</ele>
        <time>2019-09-05T20:33:55Z</time>
      </trkpt>
      <trkpt lat="43.403530" lon="10.923390">
        <ele>365</ele>
        <time>2019-09-05T20:34:02Z</time>
      </trkpt>
      <trkpt lat="43.403620" lon="10.923600">
        <ele>366</ele>
        <time>2019-09-05T20:34:05Z</time>
      </trkpt>
      <trkpt lat="43.403970" lon="10.924080">
        <ele>366</ele>
        <time>2019-09-05T20:34:14Z</time>
      </trkpt>
      <trkpt lat="43.404440" lon="10.924570">
        <ele>367</ele>
        <time>2019-09-05T20:34:25Z</time>
      </trkpt>
      <trkpt lat="43.405220" lon="10.925270">
        <ele>373</ele>
        <time>2019-09-05T20:34:41Z</time>
      </trkpt>
      <trkpt lat="43.405680" lon="10.925910">
        <ele>375</ele>
        <time>2019-09-05T20:34:53Z</time>
      </trkpt>
      <trkpt lat="43.406290" lon="10.926660">
        <ele>375</ele>
        <time>2019-09-05T20:35:07Z</time>
      </trkpt>
      <trkpt lat="43.406390" lon="10.926850">
        <ele>379</ele>
        <time>2019-09-05T20:35:10Z</time>
      </trkpt>
      <trkpt lat="43.406470" lon="10.927080">
        <ele>382</ele>
        <time>2019-09-05T20:35:14Z</time>
      </trkpt>
      <trkpt lat="43.406630" lon="10.927660">
        <ele>383</ele>
        <time>2019-09-05T20:35:22Z</time>
      </trkpt>
      <trkpt lat="43.407240" lon="10.928430">
        <ele>381</ele>
        <time>2019-09-05T20:35:36Z</time>
      </trkpt>
      <trkpt lat="43.407290" lon="10.928640">
        <ele>383</ele>
        <time>2019-09-05T20:35:39Z</time>
      </trkpt>
      <trkpt lat="43.407350" lon="10.929610">
        <ele>388</ele>
        <time>2019-09-05T20:35:52Z</time>
      </trkpt>
      <trkpt lat="43.407320" lon="10.930360">
        <ele>392</ele>
        <time>2019-09-05T20:36:02Z</time>
      </trkpt>
      <trkpt lat="43.407350" lon="10.930520">
        <ele>400</ele>
        <time>2019-09-05T20:36:04Z</time>
      </trkpt>
      <trkpt lat="43.407930" lon="10.931690">
        <ele>401</ele>
        <time>2019-09-05T20:36:22Z</time>
      </trkpt>
      <trkpt lat="43.408070" lon="10.932230">
        <ele>402</ele>
        <time>2019-09-05T20:36:29Z</time>
      </trkpt>
      <trkpt lat="43.408390" lon="10.932930">
        <ele>403</ele>
        <time>2019-09-05T20:36:40Z</time>
      </trkpt>
      <trkpt lat="43.408470" lon="10.933270">
        <ele>409</ele>
        <time>2019-09-05T20:36:45Z</time>
      </trkpt>
      <trkpt lat="43.408580" lon="10.934050">
        <ele>416</ele>
        <time>2019-09-05T20:36:55Z</time>
      </trkpt>
      <trkpt lat="43.408640" lon="10.934730">
        <ele>422</ele>
        <time>2019-09-05T20:37:04Z</time>
      </trkpt>
      <trkpt lat="43.408710" lon="10.935100">
        <ele>423</ele>
        <time>2019-09-05T20:37:09Z</time>
      </trkpt>
      <trkpt lat="43.408830" lon="10.935370">
        <ele>425</ele>
        <time>2019-09-05T20:37:13Z</time>
      </trkpt>
      <trkpt lat="43.409600" lon="10.936150">
        <ele>426</ele>
        <time>2019-09-05T20:37:30Z</time>
      </trkpt>
      <trkpt lat="43.409800" lon="10.936470">
        <ele>426</ele>
        <time>2019-09-05T20:37:35Z</time>
      </trkpt>
      <trkpt lat="43.409810" lon="10.936620">
        <ele>423</ele>
        <time>2019-09-05T20:37:37Z</time>
      </trkpt>
      <trkpt lat="43.409760" lon="10.937270">
        <ele>421</ele>
        <time>2019-09-05T20:37:46Z</time>
      </trkpt>
      <trkpt lat="43.409780" lon="10.937790">
        <ele>419</ele>
        <time>2019-09-05T20:37:53Z</time>
      </trkpt>
      <trkpt lat="43.410220" lon="10.938050">
        <ele>418</ele>
        <time>2019-09-05T20:38:01Z</time>
      </trkpt>
      <trkpt lat="43.410400" lon="10.938110">
        <ele>419</ele>
        <time>2019-09-05T20:38:04Z</time>
      </trkpt>
      <trkpt lat="43.410510" lon="10.938320">
        <ele>418</ele>
        <time>2019-09-05T20:38:08Z</time>
      </trkpt>
      <trkpt lat="43.410650" lon="10.938830">
        <ele>419</ele>
        <time>2019-09-05T20:38:15Z</time>
      </trkpt>
      <trkpt lat="43.410620" lon="10.939150">
        <ele>419</ele>
        <time>2019-09-05T20:38:19Z</time>
      </trkpt>
      <trkpt lat="43.410680" lon="10.940380">
        <ele>422</ele>
        <time>2019-09-05T20:38:35Z</time>
      </trkpt>
      <trkpt lat="43.410640" lon="10.940520">
        <ele>421</ele>
        <time>2019-09-05T20:38:37Z</time>
      </trkpt>
      <trkpt lat="43.410320" lon="10.940700">
        <ele>419</ele>
        <time>2019-09-05T20:38:43Z</time>
      </trkpt>
      <trkpt lat="43.410260" lon="10.940850">
        <ele>398</ele>
        <time>2019-09-05T20:38:45Z</time>
      </trkpt>
      <trkpt lat="43.410460" lon="10.941650">
        <ele>397</ele>
        <time>2019-09-05T20:38:56Z</time>
      </trkpt>
      <trkpt lat="43.410730" lon="10.942480">
        <ele>394</ele>
        <time>2019-09-05T20:39:08Z</time>
      </trkpt>
      <trkpt lat="43.410800" lon="10.943200">
        <ele>394</ele>
        <time>2019-09-05T20:39:17Z</time>
      </trkpt>
      <trkpt lat="43.410860" lon="10.943960">
        <ele>392</ele>
        <time>2019-09-05T20:39:27Z</time>
      </trkpt>
      <trkpt lat="43.410880" lon="10.944800">
        <ele>390</ele>
        <time>2019-09-05T20:39:38Z</time>
      </trkpt>
      <trkpt lat="43.410970" lon="10.945570">
        <ele>389</ele>
        <time>2019-09-05T20:39:48Z</time>
      </trkpt>
      <trkpt lat="43.410990" lon="10.946280">
        <ele>387</ele>
        <time>2019-09-05T20:39:57Z</time>
      </trkpt>
      <trkpt lat="43.410960" lon="10.947050">
        <ele>387</ele>
        <time>2019-09-05T20:40:07Z</time>
      </trkpt>
      <trkpt lat="43.410870" lon="10.947690">
        <ele>388</ele>
        <time>2019-09-05T20:40:16Z</time>
      </trkpt>
      <trkpt lat="43.410860" lon="10.948090">
        <ele>389</ele>
        <time>2019-09-05T20:40:21Z</time>
      </trkpt>
      <trkpt lat="43.410900" lon="10.948500">
        <ele>389</ele>
        <time>2019-09-05T20:40:26Z</time>
      </trkpt>
      <trkpt lat="43.410990" lon="10.948890">
        <ele>394</ele>
        <time>2019-09-05T20:40:31Z</time>
      </trkpt>
      <trkpt lat="43.411260" lon="10.949130">
        <ele>414</ele>
        <time>2019-09-05T20:40:37Z</time>
      </trkpt>
      <trkpt lat="43.411370" lon="10.949320">
        <ele>415</ele>
        <time>2019-09-05T20:40:40Z</time>
      </trkpt>
      <trkpt lat="43.411450" lon="10.949540">
        <ele>429</ele>
        <time>2019-09-05T20:40:43Z</time>
      </trkpt>
      <trkpt lat="43.411560" lon="10.950060">
        <ele>435</ele>
        <time>2019-09-05T20:40:50Z</time>
      </trkpt>
      <trkpt lat="43.411640" lon="10.950500">
        <ele>443</ele>
        <time>2019-09-05T20:40:56Z</time>
      </trkpt>
      <trkpt lat="43.411690" lon="10.950960">
        <ele>447</ele>
        <time>2019-09-05T20:41:02Z</time>
      </trkpt>
      <trkpt lat="43.411890" lon="10.954360">
        <ele>450</ele>
        <time>2019-09-05T20:41:46Z</time>
      </trkpt>
      <trkpt lat="43.411930" lon="10.954620">
        <ele>452</ele>
        <time>2019-09-05T20:41:50Z</time>
      </trkpt>
      <trkpt lat="43.412060" lon="10.954880">
        <ele>465</ele>
        <time>2019-09-05T20:41:54Z</time>
      </trkpt>
      <trkpt lat="43.412080" lon="10.954980">
        <ele>467</ele>
        <time>2019-09-05T20:41:55Z</time>
      </trkpt>
      <trkpt lat="43.412090" lon="10.955230">
        <ele>471</ele>
        <time>2019-09-05T20:41:59Z</time>
      </trkpt>
      <trkpt lat="43.412030" lon="10.955560">
        <ele>471</ele>
        <time>2019-09-05T20:42:03Z</time>
      </trkpt>
      <trkpt lat="43.412090" lon="10.955670">
        <ele>473</ele>
        <time>2019-09-05T20:42:05Z</time>
      </trkpt>
      <trkpt lat="43.412330" lon="10.955900">
        <ele>478</ele>
        <time>2019-09-05T20:42:10Z</time>
      </trkpt>
      <trkpt lat="43.412370" lon="10.956020">
        <ele>480</ele>
        <time>2019-09-05T20:42:12Z</time>
      </trkpt>
      <trkpt lat="43.412400" lon="10.956230">
        <ele>485</ele>
        <time>2019-09-05T20:42:14Z</time>
      </trkpt>
      <trkpt lat="43.412330" lon="10.956580">
        <ele>489</ele>
        <time>2019-09-05T20:42:19Z</time>
      </trkpt>
      <trkpt lat="43.412380" lon="10.956700">
        <ele>495</ele>
        <time>2019-09-05T20:42:21Z</time>
      </trkpt>
      <trkpt lat="43.412540" lon="10.957410">
        <ele>497</ele>
        <time>2019-09-05T20:42:30Z</time>
      </trkpt>
      <trkpt lat="43.412970" lon="10.958940">
        <ele>498</ele>
        <time>2019-09-05T20:42:52Z</time>
      </trkpt>
      <trkpt lat="43.412970" lon="10.959050">
        <ele>497</ele>
        <time>2019-09-05T20:42:53Z</time>
      </trkpt>
      <trkpt lat="43.412720" lon="10.960320">
        <ele>494</ele>
        <time>2019-09-05T20:43:10Z</time>
      </trkpt>
      <trkpt lat="43.412750" lon="10.960760">
        <ele>491</ele>
        <time>2019-09-05T20:43:16Z</time>
      </trkpt>
      <trkpt lat="43.412820" lon="10.961230">
        <ele>479</ele>
        <time>2019-09-05T20:43:22Z</time>
      </trkpt>
      <trkpt lat="43.412780" lon="10.961520">
        <ele>476</ele>
        <time>2019-09-05T20:43:26Z</time>
      </trkpt>
      <trkpt lat="43.412650" lon="10.962120">
        <ele>475</ele>
        <time>2019-09-05T20:43:34Z</time>
      </trkpt>
      <trkpt lat="43.412670" lon="10.962400">
        <ele>479</ele>
        <time>2019-09-05T20:43:38Z</time>
      </trkpt>
      <trkpt lat="43.413230" lon="10.963130">
        <ele>477</ele>
        <time>2019-09-05T20:43:51Z</time>
      </trkpt>
      <trkpt lat="43.413350" lon="10.963150">
        <ele>475</ele>
        <time>2019-09-05T20:43:53Z</time>
      </trkpt>
      <trkpt lat="43.413660" lon="10.963030">
        <ele>479</ele>
        <time>2019-09-05T20:43:59Z</time>
      </trkpt>
      <trkpt lat="43.413800" lon="10.962820">
        <ele>488</ele>
        <time>2019-09-05T20:44:03Z</time>
      </trkpt>
      <trkpt lat="43.413930" lon="10.962850">
        <ele>491</ele>
        <time>2019-09-05T20:44:05Z</time>
      </trkpt>
      <trkpt lat="43.414050" lon="10.963230">
        <ele>500</ele>
        <time>2019-09-05T20:44:11Z</time>
      </trkpt>
      <trkpt lat="43.414210" lon="10.963440">
        <ele>504</ele>
        <time>2019-09-05T20:44:14Z</time>
      </trkpt>
      <trkpt lat="43.414630" lon="10.963540">
        <ele>506</ele>
        <time>2019-09-05T20:44:22Z</time>
      </trkpt>
      <trkpt lat="43.414930" lon="10.963700">
        <ele>510</ele>
        <time>2019-09-05T20:44:28Z</time>
      </trkpt>
      <trkpt lat="43.415360" lon="10.964020">
        <ele>506</ele>
        <time>2019-09-05T20:44:36Z</time>
      </trkpt>
      <trkpt lat="43.415530" lon="10.964240">
        <ele>504</ele>
        <time>2019-09-05T20:44:41Z</time>
      </trkpt>
      <trkpt lat="43.415630" lon="10.964440">
        <ele>507</ele>
        <time>2019-09-05T20:44:44Z</time>
      </trkpt>
      <trkpt lat="43.415690" lon="10.964820">
        <ele>508</ele>
        <time>2019-09-05T20:44:49Z</time>
      </trkpt>
      <trkpt lat="43.415610" lon="10.965440">
        <ele>510</ele>
        <time>2019-09-05T20:44:57Z</time>
      </trkpt>
      <trkpt lat="43.415690" lon="10.966350">
        <ele>520</ele>
        <time>2019-09-05T20:45:09Z</time>
      </trkpt>
      <trkpt lat="43.415510" lon="10.968260">
        <ele>524</ele>
        <time>2019-09-05T20:45:34Z</time>
      </trkpt>
      <trkpt lat="43.415480" lon="10.968980">
        <ele>526</ele>
        <time>2019-09-05T20:45:43Z</time>
      </trkpt>
      <trkpt lat="43.415520" lon="10.969280">
        <ele>526</ele>
        <time>2019-09-05T20:45:47Z</time>
      </trkpt>
      <trkpt lat="43.416370" lon="10.970950">
        <ele>529</ele>
        <time>2019-09-05T20:46:13Z</time>
      </trkpt>
      <trkpt lat="43.416720" lon="10.971720">
        <ele>529</ele>
        <time>2019-09-05T20:46:25Z</time>
      </trkpt>
      <trkpt lat="43.416990" lon="10.972770">
        <ele>526</ele>
        <time>2019-09-05T20:46:39Z</time>
      </trkpt>
      <trkpt lat="43.417240" lon="10.973470">
        <ele>526</ele>
        <time>2019-09-05T20:46:50Z</time>
      </trkpt>
      <trkpt lat="43.417720" lon="10.974290">
        <ele>527</ele>
        <time>2019-09-05T20:47:03Z</time>
      </trkpt>
      <trkpt lat="43.417810" lon="10.974560">
        <ele>531</ele>
        <time>2019-09-05T20:47:07Z</time>
      </trkpt>
      <trkpt lat="43.417380" lon="10.975150">
        <ele>531</ele>
        <time>2019-09-05T20:47:18Z</time>
      </trkpt>
      <trkpt lat="43.417250" lon="10.975370">
        <ele>533</ele>
        <time>2019-09-05T20:47:21Z</time>
      </trkpt>
      <trkpt lat="43.418120" lon="10.975510">
        <ele>533</ele>
        <time>2019-09-05T20:47:37Z</time>
      </trkpt>
      <trkpt lat="43.418530" lon="10.975770">
        <ele>533</ele>
        <time>2019-09-05T20:47:45Z</time>
      </trkpt>
      <trkpt lat="43.418120" lon="10.975510">
        <ele>534</ele>
        <time>2019-09-05T20:47:53Z</time>
      </trkpt>
      <trkpt lat="43.417250" lon="10.975370">
        <ele>535</ele>
        <time>2019-09-05T20:48:09Z</time>
      </trkpt>
      <trkpt lat="43.416700" lon="10.975600">
        <ele>536</ele>
        <time>2019-09-05T20:48:19Z</time>
      </trkpt>
      <trkpt lat="43.416400" lon="10.975870">
        <ele>537</ele>
        <time>2019-09-05T20:48:25Z</time>
      </trkpt>
      <trkpt lat="43.416160" lon="10.976250">
        <ele>538</ele>
        <time>2019-09-05T20:48:32Z</time>
      </trkpt>
      <trkpt lat="43.416020" lon="10.977020">
        <ele>539</ele>
        <time>2019-09-05T20:48:42Z</time>
      </trkpt>
      <trkpt lat="43.416050" lon="10.977220">
        <ele>541</ele>
        <time>2019-09-05T20:48:45Z</time>
      </trkpt>
      <trkpt lat="43.415910" lon="10.977420">
        <ele>542</ele>
        <time>2019-09-05T20:48:48Z</time>
      </trkpt>
      <trkpt lat="43.415810" lon="10.977460">
        <ele>542</ele>
        <time>2019-09-05T20:48:50Z</time>
      </trkpt>
      <trkpt lat="43.415480" lon="10.977480">
        <ele>539</ele>
        <time>2019-09-05T20:48:56Z</time>
      </trkpt>
      <trkpt lat="43.415350" lon="10.977420">
        <ele>519</ele>
        <time>2019-09-05T20:48:58Z</time>
      </trkpt>
      <trkpt lat="43.415030" lon="10.977160">
        <ele>518</ele>
        <time>2019-09-05T20:49:05Z</time>
      </trkpt>
      <trkpt lat="43.414920" lon="10.977130">
        <ele>517</ele>
        <time>2019-09-05T20:49:07Z</time>
      </trkpt>
      <trkpt lat="43.414780" lon="10.977140">
        <ele>516</ele>
        <time>2019-09-05T20:49:10Z</time>
      </trkpt>
      <trkpt lat="43.414180" lon="10.977320">
        <ele>515</ele>
        <time>2019-09-05T20:49:20Z</time>
      </trkpt>
      <trkpt lat="43.413890" lon="10.977330">
        <ele>515</ele>
        <time>2019-09-05T20:49:26Z</time>
      </trkpt>
      <trkpt lat="43.413740" lon="10.977430">
        <ele>502</ele>
        <time>2019-09-05T20:49:29Z</time>
      </trkpt>
      <trkpt lat="43.413590" lon="10.977450">
        <ele>499</ele>
        <time>2019-09-05T20:49:31Z</time>
      </trkpt>
      <trkpt lat="43.413510" lon="10.977490">
        <ele>495</ele>
        <time>2019-09-05T20:49:33Z</time>
      </trkpt>
      <trkpt lat="43.413460" lon="10.977890">
        <ele>493</ele>
        <time>2019-09-05T20:49:38Z</time>
      </trkpt>
      <trkpt lat="43.413500" lon="10.977980">
        <ele>486</ele>
        <time>2019-09-05T20:49:39Z</time>
      </trkpt>
      <trkpt lat="43.413610" lon="10.978120">
        <ele>486</ele>
        <time>2019-09-05T20:49:42Z</time>
      </trkpt>
      <trkpt lat="43.413660" lon="10.978240">
        <ele>485</ele>
        <time>2019-09-05T20:49:44Z</time>
      </trkpt>
      <trkpt lat="43.413740" lon="10.978690">
        <ele>484</ele>
        <time>2019-09-05T20:49:50Z</time>
      </trkpt>
      <trkpt lat="43.413830" lon="10.979020">
        <ele>482</ele>
        <time>2019-09-05T20:49:54Z</time>
      </trkpt>
      <trkpt lat="43.413960" lon="10.979300">
        <ele>481</ele>
        <time>2019-09-05T20:49:59Z</time>
      </trkpt>
      <trkpt lat="43.414000" lon="10.979560">
        <ele>475</ele>
        <time>2019-09-05T20:50:02Z</time>
      </trkpt>
      <trkpt lat="43.413990" lon="10.979970">
        <ele>469</ele>
        <time>2019-09-05T20:50:07Z</time>
      </trkpt>
      <trkpt lat="43.414070" lon="10.981160">
        <ele>462</ele>
        <time>2019-09-05T20:50:23Z</time>
      </trkpt>
      <trkpt lat="43.414530" lon="10.984810">
        <ele>452</ele>
        <time>2019-09-05T20:51:11Z</time>
      </trkpt>
      <trkpt lat="43.414550" lon="10.985060">
        <ele>444</ele>
        <time>2019-09-05T20:51:14Z</time>
      </trkpt>
      <trkpt lat="43.414480" lon="10.985280">
        <ele>423</ele>
        <time>2019-09-05T20:51:17Z</time>
      </trkpt>
      <trkpt lat="43.414490" lon="10.985470">
        <ele>416</ele>
        <time>2019-09-05T20:51:20Z</time>
      </trkpt>
      <trkpt lat="43.414590" lon="10.985600">
        <ele>410</ele>
        <time>2019-09-05T20:51:22Z</time>
      </trkpt>
      <trkpt lat="43.414620" lon="10.985720">
        <ele>397</ele>
        <time>2019-09-05T20:51:24Z</time>
      </trkpt>
      <trkpt lat="43.414760" lon="10.987480">
        <ele>391</ele>
        <time>2019-09-05T20:51:47Z</time>
      </trkpt>
      <trkpt lat="43.414730" lon="10.987750">
        <ele>387</ele>
        <time>2019-09-05T20:51:50Z</time>
      </trkpt>
      <trkpt lat="43.414760" lon="10.988150">
        <ele>380</ele>
        <time>2019-09-05T20:51:55Z</time>
      </trkpt>
      <trkpt lat="43.414740" lon="10.988330">
        <ele>373</ele>
        <time>2019-09-05T20:51:58Z</time>
      </trkpt>
      <trkpt lat="43.414500" lon="10.989030">
        <ele>367</ele>
        <time>2019-09-05T20:52:08Z</time>
      </trkpt>
      <trkpt lat="43.414840" lon="10.989000">
        <ele>366</ele>
        <time>2019-09-05T20:52:14Z</time>
      </trkpt>
      <trkpt lat="43.415020" lon="10.989020">
        <ele>356</ele>
        <time>2019-09-05T20:52:17Z</time>
      </trkpt>
      <trkpt lat="43.415380" lon="10.988710">
        <ele>351</ele>
        <time>2019-09-05T20:52:24Z</time>
      </trkpt>
      <trkpt lat="43.415560" lon="10.988660">
        <ele>348</ele>
        <time>2019-09-05T20:52:28Z</time>
      </trkpt>
      <trkpt lat="43.415730" lon="10.988520">
        <ele>338</ele>
        <time>2019-09-05T20:52:31Z</time>
      </trkpt>
      <trkpt lat="43.416130" lon="10.988310">
        <ele>336</ele>
        <time>2019-09-05T20:52:39Z</time>
      </trkpt>
      <trkpt lat="43.416490" lon="10.988250">
        <ele>335</ele>
        <time>2019-09-05T20:52:45Z</time>
      </trkpt>
      <trkpt lat="43.416780" lon="10.988430">
        <ele>332</ele>
        <time>2019-09-05T20:52:51Z</time>
      </trkpt>
      <trkpt lat="43.417190" lon="10.988840">
        <ele>322</ele>
        <time>2019-09-05T20:53:00Z</time>
      </trkpt>
      <trkpt lat="43.417400" lon="10.989440">
        <ele>326</ele>
        <time>2019-09-05T20:53:09Z</time>
      </trkpt>
      <trkpt lat="43.418150" lon="10.990780">
        <ele>328</ele>
        <time>2019-09-05T20:53:30Z</time>
      </trkpt>
      <trkpt lat="43.418410" lon="10.991310">
        <ele>332</ele>
        <time>2019-09-05T20:53:39Z</time>
      </trkpt>
      <trkpt lat="43.418620" lon="10.991830">
        <ele>334</ele>
        <time>2019-09-05T20:53:46Z</time>
      </trkpt>
      <trkpt lat="43.419340" lon="10.992420">
        <ele>334</ele>
        <time>2019-09-05T20:54:01Z</time>
      </trkpt>
      <trkpt lat="43.419760" lon="10.992470">
        <ele>335</ele>
        <time>2019-09-05T20:54:09Z</time>
      </trkpt>
      <trkpt lat="43.420010" lon="10.992800">
        <ele>336</ele>
        <time>2019-09-05T20:54:15Z</time>
      </trkpt>
      <trkpt lat="43.420410" lon="10.993430">
        <ele>340</ele>
        <time>2019-09-05T20:54:26Z</time>
      </trkpt>
      <trkpt lat="43.420580" lon="10.993950">
        <ele>341</ele>
        <time>2019-09-05T20:54:33Z</time>
      </trkpt>
      <trkpt lat="43.420650" lon="10.994760">
        <ele>340</ele>
        <time>2019-09-05T20:54:44Z</time>
      </trkpt>
      <trkpt lat="43.420630" lon="10.995540">
        <ele>341</ele>
        <time>2019-09-05T20:54:54Z</time>
      </trkpt>
      <trkpt lat="43.421210" lon="10.996420">
        <ele>342</ele>
        <time>2019-09-05T20:55:09Z</time>
      </trkpt>
      <trkpt lat="43.420970" lon="10.997490">
        <ele>345</ele>
        <time>2019-09-05T20:55:24Z</time>
      </trkpt>
      <trkpt lat="43.420930" lon="10.997880">
        <ele>347</ele>
        <time>2019-09-05T20:55:29Z</time>
      </trkpt>
      <trkpt lat="43.421210" lon="10.998550">
        <ele>348</ele>
        <time>2019-09-05T20:55:39Z</time>
      </trkpt>
      <trkpt lat="43.421310" lon="10.998700">
        <ele>350</ele>
        <time>2019-09-05T20:55:41Z</time>
      </trkpt>
      <trkpt lat="43.421250" lon="10.998840">
        <ele>350</ele>
        <time>2019-09-05T20:55:43Z</time>
      </trkpt>
      <trkpt lat="43.419190" lon="10.999940">
        <ele>349</ele>
        <time>2019-09-05T20:56:23Z</time>
      </trkpt>
      <trkpt lat="43.417630" lon="11.000900">
        <ele>344</ele>
        <time>2019-09-05T20:56:53Z</time>
      </trkpt>
      <trkpt lat="43.417350" lon="11.000890">
        <ele>343</ele>
        <time>2019-09-05T20:56:58Z</time>
      </trkpt>
      <trkpt lat="43.417120" lon="11.001310">
        <ele>344</ele>
        <time>2019-09-05T20:57:05Z</time>
      </trkpt>
      <trkpt lat="43.416930" lon="11.001090">
        <ele>344</ele>
        <time>2019-09-05T20:57:09Z</time>
      </trkpt>
      <trkpt lat="43.416790" lon="11.001100">
        <ele>344</ele>
        <time>2019-09-05T20:57:12Z</time>
      </trkpt>
      <trkpt lat="43.416620" lon="11.001380">
        <ele>344</ele>
        <time>2019-09-05T20:57:17Z</time>
      </trkpt>
      <trkpt lat="43.416280" lon="11.001620">
        <ele>345</ele>
        <time>2019-09-05T20:57:23Z</time>
      </trkpt>
      <trkpt lat="43.416160" lon="11.001600">
        <ele>344</ele>
        <time>2019-09-05T20:57:26Z</time>
      </trkpt>
      <trkpt lat="43.415700" lon="11.001610">
        <ele>342</ele>
        <time>2019-09-05T20:57:34Z</time>
      </trkpt>
      <trkpt lat="43.415580" lon="11.001680">
        <ele>340</ele>
        <time>2019-09-05T20:57:36Z</time>
      </trkpt>
      <trkpt lat="43.415430" lon="11.001930">
        <ele>335</ele>
        <time>2019-09-05T20:57:40Z</time>
      </trkpt>
      <trkpt lat="43.415360" lon="11.001970">
        <ele>332</ele>
        <time>2019-09-05T20:57:42Z</time>
      </trkpt>
      <trkpt lat="43.415250" lon="11.001970">
        <ele>330</ele>
        <time>2019-09-05T20:57:44Z</time>
      </trkpt>
      <trkpt lat="43.415030" lon="11.001860">
        <ele>328</ele>
        <time>2019-09-05T20:57:48Z</time>
      </trkpt>
      <trkpt lat="43.414780" lon="11.001800">
        <ele>327</ele>
        <time>2019-09-05T20:57:52Z</time>
      </trkpt>
      <trkpt lat="43.414420" lon="11.001820">
        <ele>326</ele>
        <time>2019-09-05T20:57:59Z</time>
      </trkpt>
      <trkpt lat="43.414030" lon="11.001810">
        <ele>325</ele>
        <time>2019-09-05T20:58:06Z</time>
      </trkpt>
      <trkpt lat="43.413970" lon="11.001900">
        <ele>324</ele>
        <time>2019-09-05T20:58:07Z</time>
      </trkpt>
      <trkpt lat="43.413930" lon="11.002060">
        <ele>325</ele>
        <time>2019-09-05T20:58:09Z</time>
      </trkpt>
      <trkpt lat="43.413880" lon="11.002740">
        <ele>327</ele>
        <time>2019-09-05T20:58:18Z</time>
      </trkpt>
      <trkpt lat="43.413820" lon="11.002920">
        <ele>328</ele>
        <time>2019-09-05T20:58:21Z</time>
      </trkpt>
      <trkpt lat="43.413560" lon="11.003030">
        <ele>328</ele>
        <time>2019-09-05T20:58:26Z</time>
      </trkpt>
      <trkpt lat="43.413480" lon="11.003120">
        <ele>328</ele>
        <time>2019-09-05T20:58:27Z</time>
      </trkpt>
      <trkpt lat="43.413340" lon="11.003220">
        <ele>328</ele>
        <time>2019-09-05T20:58:30Z</time>
      </trkpt>
      <trkpt lat="43.413180" lon="11.003270">
        <ele>328</ele>
        <time>2019-09-05T20:58:33Z</time>
      </trkpt>
      <trkpt lat="43.412980" lon="11.003220">
        <ele>332</ele>
        <time>2019-09-05T20:58:37Z</time>
      </trkpt>
      <trkpt lat="43.412840" lon="11.003300">
        <ele>330</ele>
        <time>2019-09-05T20:58:39Z</time>
      </trkpt>
      <trkpt lat="43.412770" lon="11.003380">
        <ele>331</ele>
        <time>2019-09-05T20:58:41Z</time>
      </trkpt>
      <trkpt lat="43.412740" lon="11.003510">
        <ele>331</ele>
        <time>2019-09-05T20:58:43Z</time>
      </trkpt>
      <trkpt lat="43.412810" lon="11.003850">
        <ele>326</ele>
        <time>2019-09-05T20:58:47Z</time>
      </trkpt>
      <trkpt lat="43.412810" lon="11.004040">
        <ele>324</ele>
        <time>2019-09-05T20:58:50Z</time>
      </trkpt>
      <trkpt lat="43.412710" lon="11.004160">
        <ele>316</ele>
        <time>2019-09-05T20:58:52Z</time>
      </trkpt>
      <trkpt lat="43.412550" lon="11.004680">
        <ele>313</ele>
        <time>2019-09-05T20:59:00Z</time>
      </trkpt>
      <trkpt lat="43.412430" lon="11.004850">
        <ele>309</ele>
        <time>2019-09-05T20:59:03Z</time>
      </trkpt>
      <trkpt lat="43.412380" lon="11.005050">
        <ele>306</ele>
        <time>2019-09-05T20:59:05Z</time>
      </trkpt>
      <trkpt lat="43.412280" lon="11.005260">
        <ele>304</ele>
        <time>2019-09-05T20:59:09Z</time>
      </trkpt>
      <trkpt lat="43.412240" lon="11.005490">
        <ele>301</ele>
        <time>2019-09-05T20:59:12Z</time>
      </trkpt>
      <trkpt lat="43.412290" lon="11.005670">
        <ele>300</ele>
        <time>2019-09-05T20:59:14Z</time>
      </trkpt>
      <trkpt lat="43.412430" lon="11.005910">
        <ele>300</ele>
        <time>2019-09-05T20:59:18Z</time>
      </trkpt>
      <trkpt lat="43.412590" lon="11.006120">
        <ele>300</ele>
        <time>2019-09-05T20:59:22Z</time>
      </trkpt>
      <trkpt lat="43.412650" lon="11.006280">
        <ele>299</ele>
        <time>2019-09-05T20:59:24Z</time>
      </trkpt>
      <trkpt lat="43.412680" lon="11.006590">
        <ele>298</ele>
        <time>2019-09-05T20:59:28Z</time>
      </trkpt>
      <trkpt lat="43.412730" lon="11.006730">
        <ele>293</ele>
        <time>2019-09-05T20:59:30Z</time>
      </trkpt>
      <trkpt lat="43.412860" lon="11.006780">
        <ele>282</ele>
        <time>2019-09-05T20:59:33Z</time>
      </trkpt>
      <trkpt lat="43.413290" lon="11.006790">
        <ele>276</ele>
        <time>2019-09-05T20:59:40Z</time>
      </trkpt>
      <trkpt lat="43.413620" lon="11.007080">
        <ele>273</ele>
        <time>2019-09-05T20:59:47Z</time>
      </trkpt>
      <trkpt lat="43.413880" lon="11.007390">
        <ele>260</ele>
        <time>2019-09-05T20:59:54Z</time>
      </trkpt>
      <trkpt lat="43.414110" lon="11.007540">
        <ele>257</ele>
        <time>2019-09-05T20:59:58Z</time>
      </trkpt>
      <trkpt lat="43.414500" lon="11.007730">
        <ele>256</ele>
        <time>2019-09-05T21:00:05Z</time>
      </trkpt>
      <trkpt lat="43.414640" lon="11.007700">
        <ele>253</ele>
        <time>2019-09-05T21:00:08Z</time>
      </trkpt>
      <trkpt lat="43.415800" lon="11.008860">
        <ele>245</ele>
        <time>2019-09-05T21:00:33Z</time>
      </trkpt>
      <trkpt lat="43.415950" lon="11.009170">
        <ele>244</ele>
        <time>2019-09-05T21:00:38Z</time>
      </trkpt>
      <trkpt lat="43.416100" lon="11.009350">
        <ele>235</ele>
        <time>2019-09-05T21:00:42Z</time>
      </trkpt>
      <trkpt lat="43.416700" lon="11.009850">
        <ele>224</ele>
        <time>2019-09-05T21:00:54Z</time>
      </trkpt>
      <trkpt lat="43.416850" lon="11.010010">
        <ele>223</ele>
        <time>2019-09-05T21:00:58Z</time>
      </trkpt>
      <trkpt lat="43.416960" lon="11.010190">
        <ele>221</ele>
        <time>2019-09-05T21:01:01Z</time>
      </trkpt>
      <trkpt lat="43.417020" lon="11.010200">
        <ele>216</ele>
        <time>2019-09-05T21:01:02Z</time>
      </trkpt>
      <trkpt lat="43.417080" lon="11.010110">
        <ele>211</ele>
        <time>2019-09-05T21:01:03Z</time>
      </trkpt>
      <trkpt lat="43.417120" lon="11.009930">
        <ele>209</ele>
        <time>2019-09-05T21:01:06Z</time>
      </trkpt>
      <trkpt lat="43.417170" lon="11.009860">
        <ele>209</ele>
        <time>2019-09-05T21:01:07Z</time>
      </trkpt>
      <trkpt lat="43.417230" lon="11.009860">
        <ele>208</ele>
        <time>2019-09-05T21:01:08Z</time>
      </trkpt>
      <trkpt lat="43.417590" lon="11.010220">
        <ele>208</ele>
        <time>2019-09-05T21:01:16Z</time>
      </trkpt>
      <trkpt lat="43.417890" lon="11.011110">
        <ele>208</ele>
        <time>2019-09-05T21:01:29Z</time>
      </trkpt>
      <trkpt lat="43.418110" lon="11.011270">
        <ele>209</ele>
        <time>2019-09-05T21:01:33Z</time>
      </trkpt>
      <trkpt lat="43.418290" lon="11.011290">
        <ele>212</ele>
        <time>2019-09-05T21:01:36Z</time>
      </trkpt>
      <trkpt lat="43.418840" lon="11.011430">
        <ele>213</ele>
        <time>2019-09-05T21:01:46Z</time>
      </trkpt>
      <trkpt lat="43.418990" lon="11.011440">
        <ele>213</ele>
        <time>2019-09-05T21:01:49Z</time>
      </trkpt>
      <trkpt lat="43.419050" lon="11.011510">
        <ele>213</ele>
        <time>2019-09-05T21:01:50Z</time>
      </trkpt>
      <trkpt lat="43.419070" lon="11.011800">
        <ele>213</ele>
        <time>2019-09-05T21:01:54Z</time>
      </trkpt>
      <trkpt lat="43.418960" lon="11.012710">
        <ele>214</ele>
        <time>2019-09-05T21:02:06Z</time>
      </trkpt>
      <trkpt lat="43.418900" lon="11.012830">
        <ele>214</ele>
        <time>2019-09-05T21:02:08Z</time>
      </trkpt>
      <trkpt lat="43.418280" lon="11.013720">
        <ele>214</ele>
        <time>2019-09-05T21:02:24Z</time>
      </trkpt>
      <trkpt lat="43.417750" lon="11.014400">
        <ele>216</ele>
        <time>2019-09-05T21:02:37Z</time>
      </trkpt>
      <trkpt lat="43.417720" lon="11.014520">
        <ele>219</ele>
        <time>2019-09-05T21:02:38Z</time>
      </trkpt>
      <trkpt lat="43.417790" lon="11.014730">
        <ele>221</ele>
        <time>2019-09-05T21:02:41Z</time>
      </trkpt>
      <trkpt lat="43.418090" lon="11.015270">
        <ele>224</ele>
        <time>2019-09-05T21:02:50Z</time>
      </trkpt>
      <trkpt lat="43.418230" lon="11.015690">
        <ele>229</ele>
        <time>2019-09-05T21:02:56Z</time>
      </trkpt>
      <trkpt lat="43.418370" lon="11.015730">
        <ele>232</ele>
        <time>2019-09-05T21:02:59Z</time>
      </trkpt>
      <trkpt lat="43.418450" lon="11.015710">
        <ele>233</ele>
        <time>2019-09-05T21:03:00Z</time>
      </trkpt>
      <trkpt lat="43.418640" lon="11.015840">
        <ele>233</ele>
        <time>2019-09-05T21:03:04Z</time>
      </trkpt>
      <trkpt lat="43.418770" lon="11.015870">
        <ele>234</ele>
        <time>2019-09-05T21:03:06Z</time>
      </trkpt>
      <trkpt lat="43.418970" lon="11.016090">
        <ele>239</ele>
        <time>2019-09-05T21:03:11Z</time>
      </trkpt>
      <trkpt lat="43.419140" lon="11.016340">
        <ele>242</ele>
        <time>2019-09-05T21:03:15Z</time>
      </trkpt>
      <trkpt lat="43.419330" lon="11.016740">
        <ele>244</ele>
        <time>2019-09-05T21:03:21Z</time>
      </trkpt>
      <trkpt lat="43.419410" lon="11.017090">
        <ele>252</ele>
        <time>2019-09-05T21:03:26Z</time>
      </trkpt>
      <trkpt lat="43.419560" lon="11.018100">
        <ele>253</ele>
        <time>2019-09-05T21:03:40Z</time>
      </trkpt>
      <trkpt lat="43.419520" lon="11.018270">
        <ele>255</ele>
        <time>2019-09-05T21:03:42Z</time>
      </trkpt>
      <trkpt lat="43.419450" lon="11.018400">
        <ele>258</ele>
        <time>2019-09-05T21:03:44Z</time>
      </trkpt>
      <trkpt lat="43.419290" lon="11.018850">
        <ele>260</ele>
        <time>2019-09-05T21:03:50Z</time>
      </trkpt>
      <trkpt lat="43.419240" lon="11.019160">
        <ele>262</ele>
        <time>2019-09-05T21:03:54Z</time>
      </trkpt>
      <trkpt lat="43.419240" lon="11.019330">
        <ele>264</ele>
        <time>2019-09-05T21:03:57Z</time>
      </trkpt>
      <trkpt lat="43.419300" lon="11.019690">
        <ele>267</ele>
        <time>2019-09-05T21:04:01Z</time>
      </trkpt>
      <trkpt lat="43.419440" lon="11.019840">
        <ele>268</ele>
        <time>2019-09-05T21:04:05Z</time>
      </trkpt>
      <trkpt lat="43.419490" lon="11.019850">
        <ele>268</ele>
        <time>2019-09-05T21:04:06Z</time>
      </trkpt>
      <trkpt lat="43.419710" lon="11.019670">
        <ele>276</ele>
        <time>2019-09-05T21:04:10Z</time>
      </trkpt>
      <trkpt lat="43.419960" lon="11.019620">
        <ele>278</ele>
        <time>2019-09-05T21:04:15Z</time>
      </trkpt>
      <trkpt lat="43.420210" lon="11.019630">
        <ele>279</ele>
        <time>2019-09-05T21:04:19Z</time>
      </trkpt>
      <trkpt lat="43.420310" lon="11.019610">
        <ele>280</ele>
        <time>2019-09-05T21:04:21Z</time>
      </trkpt>
      <trkpt lat="43.420410" lon="11.019520">
        <ele>282</ele>
        <time>2019-09-05T21:04:23Z</time>
      </trkpt>
      <trkpt lat="43.420500" lon="11.019520">
        <ele>281</ele>
        <time>2019-09-05T21:04:25Z</time>
      </trkpt>
      <trkpt lat="43.420770" lon="11.019900">
        <ele>281</ele>
        <time>2019-09-05T21:04:31Z</time>
      </trkpt>
      <trkpt lat="43.420830" lon="11.020210">
        <ele>281</ele>
        <time>2019-09-05T21:04:36Z</time>
      </trkpt>
      <trkpt lat="43.421010" lon="11.020400">
        <ele>287</ele>
        <time>2019-09-05T21:04:40Z</time>
      </trkpt>
      <trkpt lat="43.421550" lon="11.020800">
        <ele>288</ele>
        <time>2019-09-05T21:04:50Z</time>
      </trkpt>
      <trkpt lat="43.421700" lon="11.020880">
        <ele>289</ele>
        <time>2019-09-05T21:04:53Z</time>
      </trkpt>
      <trkpt lat="43.421980" lon="11.020910">
        <ele>290</ele>
        <time>2019-09-05T21:04:58Z</time>
      </trkpt>
      <trkpt lat="43.422370" lon="11.021100">
        <ele>290</ele>
        <time>2019-09-05T21:05:06Z</time>
      </trkpt>
      <trkpt lat="43.422540" lon="11.021230">
        <ele>291</ele>
        <time>2019-09-05T21:05:09Z</time>
      </trkpt>
      <trkpt lat="43.422750" lon="11.021340">
        <ele>296</ele>
        <time>2019-09-05T21:05:13Z</time>
      </trkpt>
      <trkpt lat="43.422970" lon="11.021600">
        <ele>298</ele>
        <time>2019-09-05T21:05:18Z</time>
      </trkpt>
      <trkpt lat="43.423330" lon="11.022230">
        <ele>301</ele>
        <time>2019-09-05T21:05:29Z</time>
      </trkpt>
      <trkpt lat="43.423510" lon="11.022450">
        <ele>309</ele>
        <time>2019-09-05T21:05:33Z</time>
      </trkpt>
      <trkpt lat="43.423670" lon="11.022600">
        <ele>307</ele>
        <time>2019-09-05T21:05:36Z</time>
      </trkpt>
      <trkpt lat="43.424410" lon="11.023800">
        <ele>309</ele>
        <time>2019-09-05T21:05:57Z</time>
      </trkpt>
      <trkpt lat="43.424600" lon="11.024050">
        <ele>312</ele>
        <time>2019-09-05T21:06:01Z</time>
      </trkpt>
      <trkpt lat="43.424660" lon="11.024180">
        <ele>314</ele>
        <time>2019-09-05T21:06:03Z</time>
      </trkpt>
      <trkpt lat="43.424690" lon="11.024320">
        <ele>323</ele>
        <time>2019-09-05T21:06:05Z</time>
      </trkpt>
      <trkpt lat="43.425090" lon="11.024330">
        <ele>324</ele>
        <time>2019-09-05T21:06:12Z</time>
      </trkpt>
      <trkpt lat="43.425230" lon="11.024360">
        <ele>323</ele>
        <time>2019-09-05T21:06:15Z</time>
      </trkpt>
      <trkpt lat="43.425360" lon="11.024420">
        <ele>323</ele>
        <time>2019-09-05T21:06:17Z</time>
      </trkpt>
      <trkpt lat="43.425650" lon="11.024650">
        <ele>324</ele>
        <time>2019-09-05T21:06:23Z</time>
      </trkpt>
      <trkpt lat="43.426500" lon="11.025520">
        <ele>331</ele>
        <time>2019-09-05T21:06:42Z</time>
      </trkpt>
      <trkpt lat="43.426730" lon="11.025660">
        <ele>333</ele>
        <time>2019-09-05T21:06:47Z</time>
      </trkpt>
      <trkpt lat="43.427360" lon="11.025800">
        <ele>335</ele>
        <time>2019-09-05T21:06:58Z</time>
      </trkpt>
      <trkpt lat="43.427810" lon="11.025870">
        <ele>332</ele>
        <time>2019-09-05T21:07:06Z</time>
      </trkpt>
      <trkpt lat="43.428040" lon="11.025820">
        <ele>331</ele>
        <time>2019-09-05T21:07:10Z</time>
      </trkpt>
      <trkpt lat="43.428260" lon="11.025630">
        <ele>331</ele>
        <time>2019-09-05T21:07:15Z</time>
      </trkpt>
      <trkpt lat="43.428940" lon="11.024830">
        <ele>333</ele>
        <time>2019-09-05T21:07:31Z</time>
      </trkpt>
      <trkpt lat="43.429090" lon="11.024720">
        <ele>342</ele>
        <time>2019-09-05T21:07:34Z</time>
      </trkpt>
      <trkpt lat="43.429360" lon="11.024650">
        <ele>344</ele>
        <time>2019-09-05T21:07:39Z</time>
      </trkpt>
      <trkpt lat="43.430300" lon="11.024510">
        <ele>347</ele>
        <time>2019-09-05T21:07:55Z</time>
      </trkpt>
      <trkpt lat="43.430240" lon="11.024860">
        <ele>354</ele>
        <time>2019-09-05T21:08:00Z</time>
      </trkpt>
      <trkpt lat="43.430300" lon="11.024510">
        <ele>355</ele>
        <time>2019-09-05T21:08:05Z</time>
      </trkpt>
      <trkpt lat="43.430780" lon="11.024410">
        <ele>355</ele>
        <time>2019-09-05T21:08:13Z</time>
      </trkpt>
      <trkpt lat="43.431040" lon="11.024300">
        <ele>352</ele>
        <time>2019-09-05T21:08:18Z</time>
      </trkpt>
      <trkpt lat="43.431690" lon="11.023820">
        <ele>352</ele>
        <time>2019-09-05T21:08:31Z</time>
      </trkpt>
      <trkpt lat="43.431840" lon="11.023770">
        <ele>350</ele>
        <time>2019-09-05T21:08:34Z</time>
      </trkpt>
      <trkpt lat="43.432640" lon="11.023830">
        <ele>349</ele>
        <time>2019-09-05T21:08:48Z</time>
      </trkpt>
      <trkpt lat="43.432780" lon="11.023750">
        <ele>350</ele>
        <time>2019-09-05T21:08:51Z</time>
      </trkpt>
      <trkpt lat="43.432900" lon="11.023640">
        <ele>355</ele>
        <time>2019-09-05T21:08:54Z</time>
      </trkpt>
      <trkpt lat="43.433150" lon="11.022840">
        <ele>354</ele>
        <time>2019-09-05T21:09:05Z</time>
      </trkpt>
      <trkpt lat="43.433260" lon="11.022630">
        <ele>355</ele>
        <time>2019-09-05T21:09:08Z</time>
      </trkpt>
      <trkpt lat="43.433470" lon="11.022460">
        <ele>357</ele>
        <time>2019-09-05T21:09:13Z</time>
      </trkpt>
      <trkpt lat="43.434270" lon="11.022610">
        <ele>357</ele>
        <time>2019-09-05T21:09:27Z</time>
      </trkpt>
      <trkpt lat="43.434410" lon="11.022600">
        <ele>357</ele>
        <time>2019-09-05T21:09:29Z</time>
      </trkpt>
      <trkpt lat="43.434520" lon="11.022540">
        <ele>353</ele>
        <time>2019-09-05T21:09:32Z</time>
      </trkpt>
      <trkpt lat="43.434610" lon="11.022420">
        <ele>353</ele>
        <time>2019-09-05T21:09:34Z</time>
      </trkpt>
      <trkpt lat="43.434910" lon="11.021640">
        <ele>354</ele>
        <time>2019-09-05T21:09:45Z</time>
      </trkpt>
      <trkpt lat="43.434950" lon="11.021400">
        <ele>353</ele>
        <time>2019-09-05T21:09:48Z</time>
      </trkpt>
      <trkpt lat="43.434950" lon="11.020990">
        <ele>356</ele>
        <time>2019-09-05T21:09:54Z</time>
      </trkpt>
      <trkpt lat="43.434900" lon="11.020220">
        <ele>358</ele>
        <time>2019-09-05T21:10:04Z</time>
      </trkpt>
      <trkpt lat="43.434920" lon="11.020060">
        <ele>358</ele>
        <time>2019-09-05T21:10:06Z</time>
      </trkpt>
      <trkpt lat="43.434970" lon="11.019880">
        <ele>358</ele>
        <time>2019-09-05T21:10:08Z</time>
      </trkpt>
      <trkpt lat="43.435550" lon="11.018430">
        <ele>357</ele>
        <time>2019-09-05T21:10:30Z</time>
      </trkpt>
      <trkpt lat="43.435680" lon="11.018200">
        <ele>359</ele>
        <time>2019-09-05T21:10:33Z</time>
      </trkpt>
      <trkpt lat="43.435840" lon="11.018020">
        <ele>358</ele>
        <time>2019-09-05T21:10:37Z</time>
      </trkpt>
      <trkpt lat="43.437790" lon="11.016830">
        <ele>356</ele>
        <time>2019-09-05T21:11:15Z</time>
      </trkpt>
      <trkpt lat="43.438220" lon="11.016750">
        <ele>348</ele>
        <time>2019-09-05T21:11:23Z</time>
      </trkpt>
      <trkpt lat="43.439230" lon="11.016740">
        <ele>347</ele>
        <time>2019-09-05T21:11:41Z</time>
      </trkpt>
      <trkpt lat="43.439440" lon="11.016920">
        <ele>346</ele>
        <time>2019-09-05T21:11:45Z</time>
      </trkpt>
      <trkpt lat="43.439650" lon="11.017060">
        <ele>346</ele>
        <time>2019-09-05T21:11:49Z</time>
      </trkpt>
      <trkpt lat="43.439900" lon="11.017100">
        <ele>347</ele>
        <time>2019-09-05T21:11:54Z</time>
      </trkpt>
      <trkpt lat="43.440120" lon="11.017260">
        <ele>347</ele>
        <time>2019-09-05T21:11:58Z</time>
      </trkpt>
      <trkpt lat="43.440230" lon="11.017430">
        <ele>349</ele>
        <time>2019-09-05T21:12:01Z</time>
      </trkpt>
      <trkpt lat="43.440310" lon="11.018110">
        <ele>349</ele>
        <time>2019-09-05T21:12:10Z</time>
      </trkpt>
      <trkpt lat="43.440360" lon="11.018260">
        <ele>349</ele>
        <time>2019-09-05T21:12:12Z</time>
      </trkpt>
      <trkpt lat="43.440540" lon="11.018300">
        <ele>346</ele>
        <time>2019-09-05T21:12:15Z</time>
      </trkpt>
      <trkpt lat="43.440660" lon="11.018440">
        <ele>344</ele>
        <time>2019-09-05T21:12:18Z</time>
      </trkpt>
      <trkpt lat="43.440880" lon="11.018350">
        <ele>343</ele>
        <time>2019-09-05T21:12:22Z</time>
      </trkpt>
      <trkpt lat="43.441120" lon="11.018170">
        <ele>344</ele>
        <time>2019-09-05T21:12:27Z</time>
      </trkpt>
      <trkpt lat="43.441290" lon="11.018140">
        <ele>344</ele>
        <time>2019-09-05T21:12:30Z</time>
      </trkpt>
      <trkpt lat="43.441430" lon="11.018140">
        <ele>338</ele>
        <time>2019-09-05T21:12:33Z</time>
      </trkpt>
      <trkpt lat="43.441650" lon="11.018200">
        <ele>338</ele>
        <time>2019-09-05T21:12:37Z</time>
      </trkpt>
      <trkpt lat="43.442150" lon="11.018390">
        <ele>338</ele>
        <time>2019-09-05T21:12:46Z</time>
      </trkpt>
      <trkpt lat="43.442250" lon="11.018590">
        <ele>331</ele>
        <time>2019-09-05T21:12:49Z</time>
      </trkpt>
      <trkpt lat="43.442300" lon="11.018770">
        <ele>332</ele>
        <time>2019-09-05T21:12:52Z</time>
      </trkpt>
      <trkpt lat="43.442470" lon="11.019670">
        <ele>332</ele>
        <time>2019-09-05T21:13:04Z</time>
      </trkpt>
      <trkpt lat="43.442540" lon="11.019820">
        <ele>330</ele>
        <time>2019-09-05T21:13:06Z</time>
      </trkpt>
      <trkpt lat="43.442720" lon="11.020040">
        <ele>329</ele>
        <time>2019-09-05T21:13:10Z</time>
      </trkpt>
      <trkpt lat="43.442890" lon="11.020200">
        <ele>329</ele>
        <time>2019-09-05T21:13:14Z</time>
      </trkpt>
      <trkpt lat="43.443040" lon="11.020280">
        <ele>327</ele>
        <time>2019-09-05T21:13:17Z</time>
      </trkpt>
      <trkpt lat="43.443180" lon="11.020300">
        <ele>320</ele>
        <time>2019-09-05T21:13:19Z</time>
      </trkpt>
      <trkpt lat="43.443800" lon="11.020110">
        <ele>316</ele>
        <time>2019-09-05T21:13:30Z</time>
      </trkpt>
      <trkpt lat="43.443950" lon="11.020110">
        <ele>314</ele>
        <time>2019-09-05T21:13:33Z</time>
      </trkpt>
      <trkpt lat="43.444070" lon="11.020140">
        <ele>308</ele>
        <time>2019-09-05T21:13:35Z</time>
      </trkpt>
      <trkpt lat="43.444460" lon="11.020340">
        <ele>306</ele>
        <time>2019-09-05T21:13:43Z</time>
      </trkpt>
      <trkpt lat="43.444630" lon="11.020400">
        <ele>304</ele>
        <time>2019-09-05T21:13:46Z</time>
      </trkpt>
      <trkpt lat="43.444780" lon="11.020420">
        <ele>304</ele>
        <time>2019-09-05T21:13:48Z</time>
      </trkpt>
      <trkpt lat="43.445430" lon="11.020390">
        <ele>304</ele>
        <time>2019-09-05T21:14:00Z</time>
      </trkpt>
      <trkpt lat="43.445580" lon="11.020440">
        <ele>296</ele>
        <time>2019-09-05T21:14:03Z</time>
      </trkpt>
      <trkpt lat="43.446040" lon="11.020680">
        <ele>295</ele>
        <time>2019-09-05T21:14:12Z</time>
      </trkpt>
      <trkpt lat="43.446570" lon="11.020680">
        <ele>293</ele>
        <time>2019-09-05T21:14:21Z</time>
      </trkpt>
      <trkpt lat="43.446740" lon="11.020710">
        <ele>287</ele>
        <time>2019-09-05T21:14:24Z</time>
      </trkpt>
      <trkpt lat="43.447520" lon="11.021060">
        <ele>285</ele>
        <time>2019-09-05T21:14:39Z</time>
      </trkpt>
      <trkpt lat="43.448100" lon="11.021090">
        <ele>282</ele>
        <time>2019-09-05T21:14:49Z</time>
      </trkpt>
      <trkpt lat="43.448290" lon="11.021140">
        <ele>279</ele>
        <time>2019-09-05T21:14:52Z</time>
      </trkpt>
      <trkpt lat="43.448720" lon="11.021500">
        <ele>276</ele>
        <time>2019-09-05T21:15:01Z</time>
      </trkpt>
      <trkpt lat="43.448900" lon="11.021610">
        <ele>275</ele>
        <time>2019-09-05T21:15:05Z</time>
      </trkpt>
      <trkpt lat="43.449450" lon="11.021870">
        <ele>272</ele>
        <time>2019-09-05T21:15:15Z</time>
      </trkpt>
      <trkpt lat="43.449700" lon="11.022020">
        <ele>270</ele>
        <time>2019-09-05T21:15:20Z</time>
      </trkpt>
      <trkpt lat="43.450370" lon="11.022610">
        <ele>272</ele>
        <time>2019-09-05T21:15:34Z</time>
      </trkpt>
      <trkpt lat="43.450880" lon="11.023010">
        <ele>274</ele>
        <time>2019-09-05T21:15:45Z</time>
      </trkpt>
      <trkpt lat="43.451090" lon="11.023120">
        <ele>285</ele>
        <time>2019-09-05T21:15:49Z</time>
      </trkpt>
      <trkpt lat="43.451840" lon="11.023310">
        <ele>285</ele>
        <time>2019-09-05T21:16:02Z</time>
      </trkpt>
      <trkpt lat="43.452090" lon="11.023280">
        <ele>294</ele>
        <time>2019-09-05T21:16:07Z</time>
      </trkpt>
      <trkpt lat="43.452520" lon="11.023160">
        <ele>294</ele>
        <time>2019-09-05T21:16:14Z</time>
      </trkpt>
      <trkpt lat="43.452660" lon="11.023160">
        <ele>295</ele>
        <time>2019-09-05T21:16:17Z</time>
      </trkpt>
      <trkpt lat="43.452800" lon="11.023230">
        <ele>295</ele>
        <time>2019-09-05T21:16:20Z</time>
      </trkpt>
      <trkpt lat="43.453460" lon="11.024060">
        <ele>294</ele>
        <time>2019-09-05T21:16:36Z</time>
      </trkpt>
      <trkpt lat="43.453550" lon="11.024260">
        <ele>294</ele>
        <time>2019-09-05T21:16:39Z</time>
      </trkpt>
      <trkpt lat="43.453580" lon="11.024480">
        <ele>296</ele>
        <time>2019-09-05T21:16:41Z</time>
      </trkpt>
      <trkpt lat="43.453500" lon="11.025250">
        <ele>296</ele>
        <time>2019-09-05T21:16:52Z</time>
      </trkpt>
      <trkpt lat="43.453530" lon="11.025510">
        <ele>296</ele>
        <time>2019-09-05T21:16:55Z</time>
      </trkpt>
      <trkpt lat="43.453760" lon="11.025980">
        <ele>296</ele>
        <time>2019-09-05T21:17:02Z</time>
      </trkpt>
      <trkpt lat="43.453990" lon="11.026210">
        <ele>296</ele>
        <time>2019-09-05T21:17:07Z</time>
      </trkpt>
      <trkpt lat="43.455000" lon="11.026280">
        <ele>297</ele>
        <time>2019-09-05T21:17:25Z</time>
      </trkpt>
      <trkpt lat="43.455120" lon="11.026340">
        <ele>298</ele>
        <time>2019-09-05T21:17:28Z</time>
      </trkpt>
      <trkpt lat="43.455230" lon="11.026500">
        <ele>298</ele>
        <time>2019-09-05T21:17:30Z</time>
      </trkpt>
      <trkpt lat="43.455310" lon="11.026670">
        <ele>298</ele>
        <time>2019-09-05T21:17:33Z</time>
      </trkpt>
      <trkpt lat="43.455320" lon="11.026890">
        <ele>298</ele>
        <time>2019-09-05T21:17:36Z</time>
      </trkpt>
      <trkpt lat="43.455280" lon="11.027110">
        <ele>298</ele>
        <time>2019-09-05T21:17:39Z</time>
      </trkpt>
      <trkpt lat="43.456340" lon="11.028220">
        <ele>298</ele>
        <time>2019-09-05T21:18:02Z</time>
      </trkpt>
      <trkpt lat="43.456420" lon="11.028220">
        <ele>298</ele>
        <time>2019-09-05T21:18:04Z</time>
      </trkpt>
      <trkpt lat="43.457230" lon="11.027490">
        <ele>290</ele>
        <time>2019-09-05T21:18:21Z</time>
      </trkpt>
      <trkpt lat="43.457230" lon="11.027170">
        <ele>287</ele>
        <time>2019-09-05T21:18:25Z</time>
      </trkpt>
      <trkpt lat="43.457270" lon="11.026820">
        <ele>273</ele>
        <time>2019-09-05T21:18:30Z</time>
      </trkpt>
      <trkpt lat="43.457330" lon="11.026560">
        <ele>258</ele>
        <time>2019-09-05T21:18:33Z</time>
      </trkpt>
      <trkpt lat="43.457510" lon="11.026270">
        <ele>257</ele>
        <time>2019-09-05T21:18:38Z</time>
      </trkpt>
      <trkpt lat="43.457690" lon="11.026160">
        <ele>254</ele>
        <time>2019-09-05T21:18:42Z</time>
      </trkpt>
      <trkpt lat="43.457880" lon="11.026150">
        <ele>252</ele>
        <time>2019-09-05T21:18:45Z</time>
      </trkpt>
      <trkpt lat="43.458060" lon="11.026050">
        <ele>250</ele>
        <time>2019-09-05T21:18:49Z</time>
      </trkpt>
      <trkpt lat="43.458470" lon="11.025690">
        <ele>246</ele>
        <time>2019-09-05T21:18:57Z</time>
      </trkpt>
      <trkpt lat="43.458650" lon="11.025640">
        <ele>245</ele>
        <time>2019-09-05T21:19:01Z</time>
      </trkpt>
      <trkpt lat="43.458880" lon="11.025650">
        <ele>244</ele>
        <time>2019-09-05T21:19:05Z</time>
      </trkpt>
      <trkpt lat="43.459190" lon="11.025290">
        <ele>240</ele>
        <time>2019-09-05T21:19:12Z</time>
      </trkpt>
      <trkpt lat="43.459280" lon="11.025110">
        <ele>234</ele>
        <time>2019-09-05T21:19:15Z</time>
      </trkpt>
      <trkpt lat="43.459360" lon="11.025070">
        <ele>233</ele>
        <time>2019-09-05T21:19:16Z</time>
      </trkpt>
      <trkpt lat="43.459590" lon="11.025040">
        <ele>231</ele>
        <time>2019-09-05T21:19:20Z</time>
      </trkpt>
      <trkpt lat="43.459730" lon="11.024950">
        <ele>228</ele>
        <time>2019-09-05T21:19:23Z</time>
      </trkpt>
      <trkpt lat="43.459790" lon="11.024830">
        <ele>226</ele>
        <time>2019-09-05T21:19:25Z</time>
      </trkpt>
      <trkpt lat="43.459860" lon="11.024810">
        <ele>228</ele>
        <time>2019-09-05T21:19:26Z</time>
      </trkpt>
      <trkpt lat="43.459930" lon="11.024840">
        <ele>228</ele>
        <time>2019-09-05T21:19:28Z</time>
      </trkpt>
      <trkpt lat="43.460270" lon="11.025410">
        <ele>228</ele>
        <time>2019-09-05T21:19:37Z</time>
      </trkpt>
      <trkpt lat="43.460450" lon="11.025760">
        <ele>234</ele>
        <time>2019-09-05T21:19:43Z</time>
      </trkpt>
      <trkpt lat="43.460800" lon="11.026950">
        <ele>234</ele>
        <time>2019-09-05T21:19:59Z</time>
      </trkpt>
      <trkpt lat="43.461380" lon="11.028680">
        <ele>232</ele>
        <time>2019-09-05T21:20:24Z</time>
      </trkpt>
      <trkpt lat="43.461410" lon="11.028800">
        <ele>232</ele>
        <time>2019-09-05T21:20:25Z</time>
      </trkpt>
      <trkpt lat="43.461440" lon="11.029200">
        <ele>233</ele>
        <time>2019-09-05T21:20:31Z</time>
      </trkpt>
      <trkpt lat="43.461560" lon="11.029560">
        <ele>237</ele>
        <time>2019-09-05T21:20:36Z</time>
      </trkpt>
      <trkpt lat="43.461710" lon="11.029770">
        <ele>232</ele>
        <time>2019-09-05T21:20:40Z</time>
      </trkpt>
      <trkpt lat="43.461870" lon="11.029910">
        <ele>230</ele>
        <time>2019-09-05T21:20:43Z</time>
      </trkpt>
      <trkpt lat="43.461890" lon="11.029990">
        <ele>227</ele>
        <time>2019-09-05T21:20:44Z</time>
      </trkpt>
      <trkpt lat="43.461870" lon="11.030110">
        <ele>227</ele>
        <time>2019-09-05T21:20:46Z</time>
      </trkpt>
      <trkpt lat="43.462070" lon="11.030180">
        <ele>227</ele>
        <time>2019-09-05T21:20:49Z</time>
      </trkpt>
      <trkpt lat="43.462200" lon="11.030510">
        <ele>228</ele>
        <time>2019-09-05T21:20:54Z</time>
      </trkpt>
      <trkpt lat="43.462200" lon="11.030720">
        <ele>229</ele>
        <time>2019-09-05T21:20:57Z</time>
      </trkpt>
      <trkpt lat="43.462270" lon="11.030720">
        <ele>229</ele>
        <time>2019-09-05T21:20:58Z</time>
      </trkpt>
      <trkpt lat="43.462440" lon="11.030790">
        <ele>229</ele>
        <time>2019-09-05T21:21:01Z</time>
      </trkpt>
      <trkpt lat="43.462630" lon="11.030970">
        <ele>228</ele>
        <time>2019-09-05T21:21:05Z</time>
      </trkpt>
      <trkpt lat="43.462880" lon="11.031360">
        <ele>226</ele>
        <time>2019-09-05T21:21:12Z</time>
      </trkpt>
      <trkpt lat="43.463000" lon="11.031480">
        <ele>225</ele>
        <time>2019-09-05T21:21:15Z</time>
      </trkpt>
      <trkpt lat="43.463200" lon="11.031620">
        <ele>226</ele>
        <time>2019-09-05T21:21:19Z</time>
      </trkpt>
      <trkpt lat="43.463570" lon="11.032140">
        <ele>228</ele>
        <time>2019-09-05T21:21:28Z</time>
      </trkpt>
      <trkpt lat="43.463940" lon="11.032560">
        <ele>232</ele>
        <time>2019-09-05T21:21:37Z</time>
      </trkpt>
      <trkpt lat="43.464140" lon="11.032760">
        <ele>233</ele>
        <time>2019-09-05T21:21:41Z</time>
      </trkpt>
      <trkpt lat="43.464380" lon="11.032900">
        <ele>233</ele>
        <time>2019-09-05T21:21:46Z</time>
      </trkpt>
      <trkpt lat="43.464610" lon="11.033110">
        <ele>234</ele>
        <time>2019-09-05T21:21:51Z</time>
      </trkpt>
      <trkpt lat="43.465310" lon="11.033830">
        <ele>234</ele>
        <time>2019-09-05T21:22:06Z</time>
      </trkpt>
      <trkpt lat="43.465380" lon="11.033180">
        <ele>238</ele>
        <time>2019-09-05T21:22:15Z</time>
      </trkpt>
      <trkpt lat="43.465490" lon="11.032760">
        <ele>244</ele>
        <time>2019-09-05T21:22:20Z</time>
      </trkpt>
      <trkpt lat="43.465680" lon="11.031790">
        <ele>244</ele>
        <time>2019-09-05T21:22:33Z</time>
      </trkpt>
      <trkpt lat="43.465860" lon="11.030510">
        <ele>244</ele>
        <time>2019-09-05T21:22:50Z</time>
      </trkpt>
      <trkpt lat="43.465910" lon="11.030360">
        <ele>244</ele>
        <time>2019-09-05T21:22:52Z</time>
      </trkpt>
      <trkpt lat="43.466140" lon="11.029980">
        <ele>244</ele>
        <time>2019-09-05T21:22:59Z</time>
      </trkpt>
      <trkpt lat="43.466310" lon="11.029790">
        <ele>245</ele>
        <time>2019-09-05T21:23:03Z</time>
      </trkpt>
      <trkpt lat="43.466520" lon="11.029790">
        <ele>245</ele>
        <time>2019-09-05T21:23:06Z</time>
      </trkpt>
      <trkpt lat="43.466680" lon="11.029840">
        <ele>245</ele>
        <time>2019-09-05T21:23:09Z</time>
      </trkpt>
      <trkpt lat="43.466760" lon="11.029900">
        <ele>245</ele>
        <time>2019-09-05T21:23:11Z</time>
      </trkpt>
      <trkpt lat="43.467060" lon="11.030690">
        <ele>248</ele>
        <time>2019-09-05T21:23:22Z</time>
      </trkpt>
      <trkpt lat="43.466970" lon="11.030820">
        <ele>250</ele>
        <time>2019-09-05T21:23:25Z</time>
      </trkpt>
      <trkpt lat="43.466950" lon="11.030930">
        <ele>254</ele>
        <time>2019-09-05T21:23:26Z</time>
      </trkpt>
      <trkpt lat="43.467220" lon="11.031400">
        <ele>255</ele>
        <time>2019-09-05T21:23:34Z</time>
      </trkpt>
      <trkpt lat="43.467460" lon="11.031950">
        <ele>255</ele>
        <time>2019-09-05T21:23:42Z</time>
      </trkpt>
      <trkpt lat="43.467530" lon="11.031980">
        <ele>256</ele>
        <time>2019-09-05T21:23:43Z</time>
      </trkpt>
      <trkpt lat="43.467600" lon="11.031960">
        <ele>257</ele>
        <time>2019-09-05T21:23:45Z</time>
      </trkpt>
      <trkpt lat="43.467810" lon="11.031800">
        <ele>259</ele>
        <time>2019-09-05T21:23:49Z</time>
      </trkpt>
      <trkpt lat="43.467910" lon="11.031790">
        <ele>262</ele>
        <time>2019-09-05T21:23:51Z</time>
      </trkpt>
      <trkpt lat="43.468160" lon="11.032080">
        <ele>266</ele>
        <time>2019-09-05T21:23:57Z</time>
      </trkpt>
      <trkpt lat="43.468700" lon="11.032440">
        <ele>271</ele>
        <time>2019-09-05T21:24:07Z</time>
      </trkpt>
      <trkpt lat="43.468730" lon="11.032500">
        <ele>273</ele>
        <time>2019-09-05T21:24:08Z</time>
      </trkpt>
      <trkpt lat="43.468720" lon="11.032580">
        <ele>273</ele>
        <time>2019-09-05T21:24:09Z</time>
      </trkpt>
      <trkpt lat="43.468570" lon="11.032860">
        <ele>273</ele>
        <time>2019-09-05T21:24:14Z</time>
      </trkpt>
      <trkpt lat="43.468550" lon="11.032970">
        <ele>273</ele>
        <time>2019-09-05T21:24:15Z</time>
      </trkpt>
      <trkpt lat="43.468660" lon="11.033060">
        <ele>273</ele>
        <time>2019-09-05T21:24:18Z</time>
      </trkpt>
      <trkpt lat="43.468690" lon="11.033120">
        <ele>273</ele>
        <time>2019-09-05T21:24:18Z</time>
      </trkpt>
      <trkpt lat="43.468680" lon="11.033240">
        <ele>273</ele>
        <time>2019-09-05T21:24:20Z</time>
      </trkpt>
      <trkpt lat="43.468480" lon="11.033730">
        <ele>273</ele>
        <time>2019-09-05T21:24:27Z</time>
      </trkpt>
      <trkpt lat="43.468940" lon="11.034210">
        <ele>273</ele>
        <time>2019-09-05T21:24:38Z</time>
      </trkpt>
      <trkpt lat="43.469160" lon="11.034740">
        <ele>273</ele>
        <time>2019-09-05T21:24:45Z</time>
      </trkpt>
      <trkpt lat="43.469350" lon="11.035390">
        <ele>280</ele>
        <time>2019-09-05T21:24:54Z</time>
      </trkpt>
      <trkpt lat="43.469450" lon="11.035480">
        <ele>288</ele>
        <time>2019-09-05T21:24:57Z</time>
      </trkpt>
      <trkpt lat="43.469430" lon="11.035550">
        <ele>280</ele>
        <time>2019-09-05T21:24:58Z</time>
      </trkpt>
      <trkpt lat="43.469460" lon="11.035700">
        <ele>275</ele>
        <time>2019-09-05T21:25:00Z</time>
      </trkpt>
      <trkpt lat="43.469560" lon="11.035750">
        <ele>273</ele>
        <time>2019-09-05T21:25:01Z</time>
      </trkpt>
      <trkpt lat="43.469600" lon="11.036030">
        <ele>269</ele>
        <time>2019-09-05T21:25:05Z</time>
      </trkpt>
      <trkpt lat="43.469810" lon="11.036380">
        <ele>264</ele>
        <time>2019-09-05T21:25:11Z</time>
      </trkpt>
      <trkpt lat="43.470180" lon="11.036870">
        <ele>253</ele>
        <time>2019-09-05T21:25:20Z</time>
      </trkpt>
      <trkpt lat="43.470580" lon="11.037640">
        <ele>250</ele>
        <time>2019-09-05T21:25:32Z</time>
      </trkpt>
      <trkpt lat="43.470690" lon="11.037940">
        <ele>239</ele>
        <time>2019-09-05T21:25:37Z</time>
      </trkpt>
      <trkpt lat="43.470720" lon="11.037960">
        <ele>238</ele>
        <time>2019-09-05T21:25:37Z</time>
      </trkpt>
      <trkpt lat="43.470780" lon="11.037890">
        <ele>238</ele>
        <time>2019-09-05T21:25:39Z</time>
      </trkpt>
      <trkpt lat="43.470770" lon="11.037600">
        <ele>240</ele>
        <time>2019-09-05T21:25:42Z</time>
      </trkpt>
      <trkpt lat="43.470800" lon="11.037530">
        <ele>239</ele>
        <time>2019-09-05T21:25:44Z</time>
      </trkpt>
      <trkpt lat="43.470870" lon="11.037500">
        <ele>242</ele>
        <time>2019-09-05T21:25:45Z</time>
      </trkpt>
      <trkpt lat="43.470960" lon="11.037660">
        <ele>246</ele>
        <time>2019-09-05T21:25:47Z</time>
      </trkpt>
      <trkpt lat="43.471090" lon="11.037810">
        <ele>247</ele>
        <time>2019-09-05T21:25:50Z</time>
      </trkpt>
      <trkpt lat="43.471160" lon="11.037830">
        <ele>248</ele>
        <time>2019-09-05T21:25:52Z</time>
      </trkpt>
      <trkpt lat="43.471180" lon="11.038180">
        <ele>249</ele>
        <time>2019-09-05T21:25:56Z</time>
      </trkpt>
      <trkpt lat="43.471400" lon="11.039200">
        <ele>248</ele>
        <time>2019-09-05T21:26:10Z</time>
      </trkpt>
      <trkpt lat="43.471730" lon="11.040190">
        <ele>238</ele>
        <time>2019-09-05T21:26:24Z</time>
      </trkpt>
      <trkpt lat="43.472250" lon="11.040350">
        <ele>234</ele>
        <time>2019-09-05T21:26:34Z</time>
      </trkpt>
      <trkpt lat="43.472670" lon="11.040540">
        <ele>214</ele>
        <time>2019-09-05T21:26:41Z</time>
      </trkpt>
      <trkpt lat="43.473060" lon="11.040770">
        <ele>207</ele>
        <time>2019-09-05T21:26:49Z</time>
      </trkpt>
      <trkpt lat="43.473440" lon="11.041050">
        <ele>204</ele>
        <time>2019-09-05T21:26:57Z</time>
      </trkpt>
      <trkpt lat="43.474050" lon="11.041450">
        <ele>203</ele>
        <time>2019-09-05T21:27:09Z</time>
      </trkpt>
      <trkpt lat="43.475570" lon="11.042120">
        <ele>201</ele>
        <time>2019-09-05T21:27:37Z</time>
      </trkpt>
      <trkpt lat="43.476170" lon="11.042500">
        <ele>198</ele>
        <time>2019-09-05T21:27:49Z</time>
      </trkpt>
      <trkpt lat="43.477000" lon="11.043180">
        <ele>195</ele>
        <time>2019-09-05T21:28:06Z</time>
      </trkpt>
      <trkpt lat="43.477120" lon="11.043330">
        <ele>193</ele>
        <time>2019-09-05T21:28:09Z</time>
      </trkpt>
      <trkpt lat="43.477340" lon="11.043720">
        <ele>193</ele>
        <time>2019-09-05T21:28:15Z</time>
      </trkpt>
      <trkpt lat="43.477600" lon="11.044110">
        <ele>188</ele>
        <time>2019-09-05T21:28:22Z</time>
      </trkpt>
      <trkpt lat="43.477890" lon="11.044490">
        <ele>187</ele>
        <time>2019-09-05T21:28:29Z</time>
      </trkpt>
      <trkpt lat="43.478190" lon="11.044820">
        <ele>184</ele>
        <time>2019-09-05T21:28:36Z</time>
      </trkpt>
      <trkpt lat="43.478500" lon="11.045090">
        <ele>181</ele>
        <time>2019-09-05T21:28:43Z</time>
      </trkpt>
      <trkpt lat="43.478700" lon="11.045220">
        <ele>176</ele>
        <time>2019-09-05T21:28:46Z</time>
      </trkpt>
      <trkpt lat="43.478860" lon="11.045300">
        <ele>165</ele>
        <time>2019-09-05T21:28:50Z</time>
      </trkpt>
      <trkpt lat="43.479630" lon="11.045370">
        <ele>156</ele>
        <time>2019-09-05T21:29:03Z</time>
      </trkpt>
      <trkpt lat="43.479870" lon="11.045340">
        <ele>149</ele>
        <time>2019-09-05T21:29:08Z</time>
      </trkpt>
      <trkpt lat="43.480520" lon="11.045180">
        <ele>146</ele>
        <time>2019-09-05T21:29:19Z</time>
      </trkpt>
      <trkpt lat="43.480860" lon="11.045050">
        <ele>142</ele>
        <time>2019-09-05T21:29:26Z</time>
      </trkpt>
      <trkpt lat="43.482280" lon="11.044180">
        <ele>139</ele>
        <time>2019-09-05T21:29:53Z</time>
      </trkpt>
      <trkpt lat="43.482790" lon="11.043770">
        <ele>137</ele>
        <time>2019-09-05T21:30:04Z</time>
      </trkpt>
      <trkpt lat="43.483250" lon="11.043470">
        <ele>137</ele>
        <time>2019-09-05T21:30:13Z</time>
      </trkpt>
      <trkpt lat="43.483560" lon="11.043300">
        <ele>137</ele>
        <time>2019-09-05T21:30:19Z</time>
      </trkpt>
      <trkpt lat="43.483750" lon="11.043260">
        <ele>136</ele>
        <time>2019-09-05T21:30:22Z</time>
      </trkpt>
      <trkpt lat="43.484740" lon="11.043300">
        <ele>137</ele>
        <time>2019-09-05T21:30:40Z</time>
      </trkpt>
      <trkpt lat="43.485420" lon="11.043300">
        <ele>138</ele>
        <time>2019-09-05T21:30:52Z</time>
      </trkpt>
      <trkpt lat="43.485690" lon="11.043400">
        <ele>141</ele>
        <time>2019-09-05T21:30:57Z</time>
      </trkpt>
      <trkpt lat="43.486490" lon="11.044090">
        <ele>142</ele>
        <time>2019-09-05T21:31:14Z</time>
      </trkpt>
      <trkpt lat="43.487410" lon="11.045200">
        <ele>145</ele>
        <time>2019-09-05T21:31:35Z</time>
      </trkpt>
      <trkpt lat="43.488270" lon="11.045990">
        <ele>152</ele>
        <time>2019-09-05T21:31:54Z</time>
      </trkpt>
      <trkpt lat="43.488640" lon="11.046230">
        <ele>151</ele>
        <time>2019-09-05T21:32:01Z</time>
      </trkpt>
      <trkpt lat="43.489180" lon="11.046500">
        <ele>150</ele>
        <time>2019-09-05T21:32:11Z</time>
      </trkpt>
      <trkpt lat="43.489520" lon="11.046750">
        <ele>151</ele>
        <time>2019-09-05T21:32:18Z</time>
      </trkpt>
      <trkpt lat="43.490320" lon="11.047530">
        <time>2019-09-05T21:32:36Z</time>
      </trkpt>
      <trkpt lat="43.491040" lon="11.048640">
        <time>2019-09-05T21:32:55Z</time>
      </trkpt>
      <trkpt lat="43.491730" lon="11.049350">
        <time>2019-09-05T21:33:10Z</time>
      </trkpt>
      <trkpt lat="43.491910" lon="11.049600">
        <time>2019-09-05T21:33:15Z</time>
      </trkpt>
      <trkpt lat="43.492180" lon="11.050160">
        <time>2019-09-05T21:33:23Z</time>
      </trkpt>
      <trkpt lat="43.492360" lon="11.050360">
        <time>2019-09-05T21:33:27Z</time>
      </trkpt>
      <trkpt lat="43.492510" lon="11.050440">
        <time>2019-09-05T21:33:30Z</time>
      </trkpt>
      <trkpt lat="43.492770" lon="11.050470">
        <time>2019-09-05T21:33:35Z</time>
      </trkpt>
      <trkpt lat="43.493000" lon="11.050460">
        <time>2019-09-05T21:33:39Z</time>
      </trkpt>
      <trkpt lat="43.493210" lon="11.050390">
        <time>2019-09-05T21:33:43Z</time>
      </trkpt>
      <trkpt lat="43.493390" lon="11.050260">
        <time>2019-09-05T21:33:46Z</time>
      </trkpt>
      <trkpt lat="43.493580" lon="11.050040">
        <time>2019-09-05T21:33:51Z</time>
      </trkpt>
      <trkpt lat="43.493870" lon="11.049580">
        <time>2019-09-05T21:33:59Z</time>
      </trkpt>
      <trkpt lat="43.494020" lon="11.049420">
        <time>2019-09-05T21:34:02Z</time>
      </trkpt>
      <trkpt lat="43.494360" lon="11.049340">
        <time>2019-09-05T21:34:08Z</time>
      </trkpt>
      <trkpt lat="43.495170" lon="11.049300">
        <time>2019-09-05T21:34:23Z</time>
      </trkpt>
      <trkpt lat="43.495280" lon="11.049400">
        <time>2019-09-05T21:34:25Z</time>
      </trkpt>
      <trkpt lat="43.495340" lon="11.049590">
        <time>2019-09-05T21:34:28Z</time>
      </trkpt>
      <trkpt lat="43.495290" lon="11.050250">
        <time>2019-09-05T21:34:36Z</time>
      </trkpt>
      <trkpt lat="43.470070" lon="11.040993">
        <ele>307.7</ele>
      </trkpt>
      <trkpt lat="43.470347" lon="11.041035">
        <ele>308.4</ele>
      </trkpt>
      <trkpt lat="43.470675" lon="11.040889">
        <ele>307</ele>
      </trkpt>
      <trkpt lat="43.470969" lon="11.040762">
        <ele>300.9</ele>
      </trkpt>
      <trkpt lat="43.471170" lon="11.040730">
        <ele>298.3</ele>
      </trkpt>
      <trkpt lat="43.471450" lon="11.040960">
        <ele>301.7</ele>
      </trkpt>
      <trkpt lat="43.471730" lon="11.041460">
        <ele>294.3</ele>
      </trkpt>
      <trkpt lat="43.471840" lon="11.041470">
        <ele>293.2</ele>
      </trkpt>
      <trkpt lat="43.471990" lon="11.041290">
        <ele>290.6</ele>
      </trkpt>
      <trkpt lat="43.471960" lon="11.040890">
        <ele>291.3</ele>
      </trkpt>
      <trkpt lat="43.471730" lon="11.040190">
        <ele>285.8</ele>
      </trkpt>
      <trkpt lat="43.472250" lon="11.040350">
        <ele>281.9</ele>
      </trkpt>
      <trkpt lat="43.472670" lon="11.040540">
        <ele>272.9</ele>
      </trkpt>
      <trkpt lat="43.473060" lon="11.040770">
        <ele>271</ele>
      </trkpt>
      <trkpt lat="43.473440" lon="11.041050">
        <ele>267.4</ele>
      </trkpt>
      <trkpt lat="43.474050" lon="11.041450">
        <ele>264.8</ele>
      </trkpt>
      <trkpt lat="43.475080" lon="11.041880">
        <ele>254.3</ele>
      </trkpt>
      <trkpt lat="43.475640" lon="11.042170">
        <ele>253.3</ele>
      </trkpt>
      <trkpt lat="43.476090" lon="11.042480">
        <ele>251.9</ele>
      </trkpt>
      <trkpt lat="43.476360" lon="11.042660">
        <ele>245.5</ele>
      </trkpt>
      <trkpt lat="43.476640" lon="11.042880">
        <ele>244.3</ele>
      </trkpt>
      <trkpt lat="43.476900" lon="11.043100">
        <ele>240.4</ele>
      </trkpt>
      <trkpt lat="43.477120" lon="11.043330">
        <ele>239.2</ele>
      </trkpt>
      <trkpt lat="43.477340" lon="11.043720">
        <ele>237.2</ele>
      </trkpt>
      <trkpt lat="43.477600" lon="11.044110">
        <ele>237.8</ele>
      </trkpt>
      <trkpt lat="43.477880" lon="11.044510">
        <ele>239.3</ele>
      </trkpt>
      <trkpt lat="43.478180" lon="11.044850">
        <ele>241.5</ele>
      </trkpt>
      <trkpt lat="43.478490" lon="11.045100">
        <ele>246.1</ele>
      </trkpt>
      <trkpt lat="43.478810" lon="11.045330">
        <ele>247.4</ele>
      </trkpt>
      <trkpt lat="43.479610" lon="11.045390">
        <ele>248.9</ele>
      </trkpt>
      <trkpt lat="43.481730" lon="11.044530">
        <ele>216</ele>
      </trkpt>
      <trkpt lat="43.483570" lon="11.043350">
        <ele>200.9</ele>
      </trkpt>
      <trkpt lat="43.484510" lon="11.043330">
        <ele>196.4</ele>
      </trkpt>
      <trkpt lat="43.485660" lon="11.043400">
        <ele>192</ele>
      </trkpt>
      <trkpt lat="43.486770" lon="11.044430">
        <ele>190.5</ele>
      </trkpt>
      <trkpt lat="43.488270" lon="11.045990">
        <ele>185.1</ele>
      </trkpt>
      <trkpt lat="43.489510" lon="11.046720">
        <ele>175.1</ele>
      </trkpt>
      <trkpt lat="43.490320" lon="11.047580">
        <ele>164.3</ele>
      </trkpt>
      <trkpt lat="43.491080" lon="11.048620">
        <ele>154.6</ele>
      </trkpt>
      <trkpt lat="43.491820" lon="11.049440">
        <ele>145.8</ele>
      </trkpt>
      <trkpt lat="43.492380" lon="11.050360">
        <ele>140.2</ele>
      </trkpt>
      <trkpt lat="43.492690" lon="11.050540">
        <ele>136.7</ele>
      </trkpt>
      <trkpt lat="43.493200" lon="11.050410">
        <ele>136.5</ele>
      </trkpt>
      <trkpt lat="43.493620" lon="11.050020">
        <ele>138.9</ele>
      </trkpt>
      <trkpt lat="43.493870" lon="11.049580">
        <ele>140</ele>
      </trkpt>
      <trkpt lat="43.494350" lon="11.049360">
        <ele>146.3</ele>
      </trkpt>
      <trkpt lat="43.495330" lon="11.049310">
        <ele>150.1</ele>
      </trkpt>
      <trkpt lat="43.495300" lon="11.049830">
        <ele>150.1</ele>
      </trkpt>
      <trkpt lat="43.495220" lon="11.050500">
        <ele>151.2</ele>
      </trkpt>
      <trkpt lat="43.494990" lon="11.051230">
        <ele>155.4</ele>
      </trkpt>
      <trkpt lat="43.494670" lon="11.051800">
        <ele>156.2</ele>
      </trkpt>
      <trkpt lat="43.494260" lon="11.052120">
        <ele>154</ele>
      </trkpt>
      <trkpt lat="43.493750" lon="11.052380">
        <ele>148.6</ele>
      </trkpt>
      <trkpt lat="43.493250" lon="11.052700">
        <ele>149.3</ele>
      </trkpt>
      <trkpt lat="43.492760" lon="11.053190">
        <ele>151.5</ele>
      </trkpt>
      <trkpt lat="43.492280" lon="11.054000">
        <ele>157</ele>
      </trkpt>
      <trkpt lat="43.492180" lon="11.054300">
        <ele>160.2</ele>
      </trkpt>
      <trkpt lat="43.492150" lon="11.054730">
        <ele>161</ele>
      </trkpt>
      <trkpt lat="43.492060" lon="11.055450">
        <ele>165.2</ele>
      </trkpt>
      <trkpt lat="43.491850" lon="11.056000">
        <ele>166.9</ele>
      </trkpt>
      <trkpt lat="43.491570" lon="11.056300">
        <ele>162.6</ele>
      </trkpt>
      <trkpt lat="43.491310" lon="11.056520">
        <ele>162</ele>
      </trkpt>
      <trkpt lat="43.491130" lon="11.056760">
        <ele>160</ele>
      </trkpt>
      <trkpt lat="43.490110" lon="11.059030">
        <ele>161.1</ele>
      </trkpt>
      <trkpt lat="43.489950" lon="11.059700">
        <ele>169.6</ele>
      </trkpt>
      <trkpt lat="43.489820" lon="11.060120">
        <ele>170.3</ele>
      </trkpt>
      <trkpt lat="43.489620" lon="11.060540">
        <ele>170.8</ele>
      </trkpt>
      <trkpt lat="43.489180" lon="11.061400">
        <ele>172.1</ele>
      </trkpt>
      <trkpt lat="43.489171" lon="11.061570">
        <ele>173.4</ele>
      </trkpt>
      <trkpt lat="43.489200" lon="11.062000">
        <ele>173.7</ele>
      </trkpt>
      <trkpt lat="43.489280" lon="11.062700">
        <ele>177.4</ele>
      </trkpt>
      <trkpt lat="43.489340" lon="11.063310">
        <ele>178.6</ele>
      </trkpt>
      <trkpt lat="43.489530" lon="11.064950">
        <ele>180.6</ele>
      </trkpt>
      <trkpt lat="43.488990" lon="11.065310">
        <ele>187.7</ele>
      </trkpt>
      <trkpt lat="43.488370" lon="11.065310">
        <ele>187.8</ele>
      </trkpt>
      <trkpt lat="43.487970" lon="11.065200">
        <ele>190.2</ele>
      </trkpt>
      <trkpt lat="43.487500" lon="11.065260">
        <ele>189.2</ele>
      </trkpt>
      <trkpt lat="43.487310" lon="11.065760">
        <ele>188.9</ele>
      </trkpt>
      <trkpt lat="43.487210" lon="11.066330">
        <ele>183.7</ele>
      </trkpt>
      <trkpt lat="43.487220" lon="11.067250">
        <ele>179.7</ele>
      </trkpt>
      <trkpt lat="43.487470" lon="11.068710">
        <ele>174.2</ele>
      </trkpt>
      <trkpt lat="43.487500" lon="11.069220">
        <ele>171.2</ele>
      </trkpt>
      <trkpt lat="43.487350" lon="11.069370">
        <ele>167.1</ele>
      </trkpt>
      <trkpt lat="43.487110" lon="11.069430">
        <ele>165.3</ele>
      </trkpt>
      <trkpt lat="43.486730" lon="11.069370">
        <ele>165.4</ele>
      </trkpt>
      <trkpt lat="43.486600" lon="11.069570">
        <ele>161.4</ele>
      </trkpt>
      <trkpt lat="43.486180" lon="11.070140">
        <ele>159.9</ele>
      </trkpt>
      <trkpt lat="43.485860" lon="11.070680">
        <ele>163.5</ele>
      </trkpt>
      <trkpt lat="43.485770" lon="11.071050">
        <ele>167.3</ele>
      </trkpt>
      <trkpt lat="43.485770" lon="11.071310">
        <ele>167.9</ele>
      </trkpt>
      <trkpt lat="43.485730" lon="11.071740">
        <ele>168.8</ele>
      </trkpt>
      <trkpt lat="43.485610" lon="11.072020">
        <ele>166.6</ele>
      </trkpt>
      <trkpt lat="43.485280" lon="11.072420">
        <ele>165.7</ele>
      </trkpt>
      <trkpt lat="43.484810" lon="11.072710">
        <ele>165</ele>
      </trkpt>
      <trkpt lat="43.484150" lon="11.073160">
        <ele>164</ele>
      </trkpt>
      <trkpt lat="43.483650" lon="11.073260">
        <ele>161.8</ele>
      </trkpt>
      <trkpt lat="43.483280" lon="11.073570">
        <ele>166.8</ele>
      </trkpt>
      <trkpt lat="43.483100" lon="11.073950">
        <ele>169</ele>
      </trkpt>
      <trkpt lat="43.483210" lon="11.074450">
        <ele>169.9</ele>
      </trkpt>
      <trkpt lat="43.483200" lon="11.074840">
        <ele>169</ele>
      </trkpt>
      <trkpt lat="43.482890" lon="11.075330">
        <ele>168.2</ele>
      </trkpt>
      <trkpt lat="43.482680" lon="11.075710">
        <ele>168.2</ele>
      </trkpt>
      <trkpt lat="43.482550" lon="11.076030">
        <ele>165</ele>
      </trkpt>
      <trkpt lat="43.482320" lon="11.076390">
        <ele>162.6</ele>
      </trkpt>
      <trkpt lat="43.481870" lon="11.077490">
        <ele>166</ele>
      </trkpt>
      <trkpt lat="43.481420" lon="11.078150">
        <ele>166.2</ele>
      </trkpt>
      <trkpt lat="43.481080" lon="11.078600">
        <ele>162.7</ele>
      </trkpt>
      <trkpt lat="43.480800" lon="11.078880">
        <ele>158.4</ele>
      </trkpt>
      <trkpt lat="43.480340" lon="11.079310">
        <ele>158.3</ele>
      </trkpt>
      <trkpt lat="43.480070" lon="11.079650">
        <ele>159.7</ele>
      </trkpt>
      <trkpt lat="43.479970" lon="11.079950">
        <ele>164.6</ele>
      </trkpt>
      <trkpt lat="43.479810" lon="11.080440">
        <ele>167.6</ele>
      </trkpt>
      <trkpt lat="43.479480" lon="11.080680">
        <ele>167.4</ele>
      </trkpt>
      <trkpt lat="43.479180" lon="11.080470">
        <ele>167.4</ele>
      </trkpt>
      <trkpt lat="43.478570" lon="11.080110">
        <ele>173</ele>
      </trkpt>
      <trkpt lat="43.478280" lon="11.079850">
        <ele>179.7</ele>
      </trkpt>
      <trkpt lat="43.477960" lon="11.079910">
        <ele>180.5</ele>
      </trkpt>
      <trkpt lat="43.477380" lon="11.080150">
        <ele>183.3</ele>
      </trkpt>
      <trkpt lat="43.476920" lon="11.080850">
        <ele>184.8</ele>
      </trkpt>
      <trkpt lat="43.476520" lon="11.081250">
        <ele>190.1</ele>
      </trkpt>
      <trkpt lat="43.476360" lon="11.081580">
        <ele>189.5</ele>
      </trkpt>
      <trkpt lat="43.476370" lon="11.082380">
        <ele>188</ele>
      </trkpt>
      <trkpt lat="43.476170" lon="11.083860">
        <ele>182.5</ele>
      </trkpt>
      <trkpt lat="43.476190" lon="11.084460">
        <ele>180</ele>
      </trkpt>
      <trkpt lat="43.476110" lon="11.085060">
        <ele>173.6</ele>
      </trkpt>
      <trkpt lat="43.475950" lon="11.085490">
        <ele>172.2</ele>
      </trkpt>
      <trkpt lat="43.475670" lon="11.085760">
        <ele>166.1</ele>
      </trkpt>
      <trkpt lat="43.475510" lon="11.086170">
        <ele>162.3</ele>
      </trkpt>
      <trkpt lat="43.475250" lon="11.086340">
        <ele>161.1</ele>
      </trkpt>
      <trkpt lat="43.475100" lon="11.086260">
        <ele>161.2</ele>
      </trkpt>
      <trkpt lat="43.474920" lon="11.086080">
        <ele>159.7</ele>
      </trkpt>
      <trkpt lat="43.474700" lon="11.086160">
        <ele>159.3</ele>
      </trkpt>
      <trkpt lat="43.474600" lon="11.086190">
        <ele>159.2</ele>
      </trkpt>
      <trkpt lat="43.474320" lon="11.086390">
        <ele>159.7</ele>
      </trkpt>
      <trkpt lat="43.474030" lon="11.086390">
        <ele>165.8</ele>
      </trkpt>
      <trkpt lat="43.473500" lon="11.086180">
        <ele>170.5</ele>
      </trkpt>
      <trkpt lat="43.473120" lon="11.085730">
        <ele>173.8</ele>
      </trkpt>
      <trkpt lat="43.472730" lon="11.085320">
        <ele>174.3</ele>
      </trkpt>
      <trkpt lat="43.472440" lon="11.085310">
        <ele>179.7</ele>
      </trkpt>
      <trkpt lat="43.472260" lon="11.085440">
        <ele>181.4</ele>
      </trkpt>
      <trkpt lat="43.472230" lon="11.085620">
        <ele>183.1</ele>
      </trkpt>
      <trkpt lat="43.472350" lon="11.085810">
        <ele>185.6</ele>
      </trkpt>
      <trkpt lat="43.471810" lon="11.086190">
        <ele>194.7</ele>
      </trkpt>
      <trkpt lat="43.471780" lon="11.086340">
        <ele>196.6</ele>
      </trkpt>
      <trkpt lat="43.472120" lon="11.086390">
        <ele>195.5</ele>
      </trkpt>
      <trkpt lat="43.472280" lon="11.086520">
        <ele>195.6</ele>
      </trkpt>
      <trkpt lat="43.472160" lon="11.086790">
        <ele>200</ele>
      </trkpt>
      <trkpt lat="43.471640" lon="11.087060">
        <ele>208.6</ele>
      </trkpt>
      <trkpt lat="43.471290" lon="11.087120">
        <ele>209.4</ele>
      </trkpt>
      <trkpt lat="43.471120" lon="11.087370">
        <ele>211.4</ele>
      </trkpt>
      <trkpt lat="43.470950" lon="11.088030">
        <ele>216.1</ele>
      </trkpt>
      <trkpt lat="43.470990" lon="11.088560">
        <ele>216.3</ele>
      </trkpt>
      <trkpt lat="43.471100" lon="11.088990">
        <ele>215.3</ele>
      </trkpt>
      <trkpt lat="43.471390" lon="11.089500">
        <ele>213.9</ele>
      </trkpt>
      <trkpt lat="43.471520" lon="11.090140">
        <ele>215.6</ele>
      </trkpt>
      <trkpt lat="43.471520" lon="11.090620">
        <ele>216.7</ele>
      </trkpt>
      <trkpt lat="43.471640" lon="11.090970">
        <ele>218.9</ele>
      </trkpt>
      <trkpt lat="43.471730" lon="11.091350">
        <ele>218.5</ele>
      </trkpt>
      <trkpt lat="43.471800" lon="11.091640">
        <ele>221</ele>
      </trkpt>
      <trkpt lat="43.471810" lon="11.092040">
        <ele>222.8</ele>
      </trkpt>
      <trkpt lat="43.471920" lon="11.092330">
        <ele>223.1</ele>
      </trkpt>
      <trkpt lat="43.471980" lon="11.092420">
        <ele>223.1</ele>
      </trkpt>
      <trkpt lat="43.472130" lon="11.092440">
        <ele>222.8</ele>
      </trkpt>
      <trkpt lat="43.472580" lon="11.092480">
        <ele>221.1</ele>
      </trkpt>
      <trkpt lat="43.473020" lon="11.092570">
        <ele>216.3</ele>
      </trkpt>
      <trkpt lat="43.473440" lon="11.092770">
        <ele>210.3</ele>
      </trkpt>
      <trkpt lat="43.474360" lon="11.093850">
        <ele>209.8</ele>
      </trkpt>
      <trkpt lat="43.475130" lon="11.094750">
        <ele>211.9</ele>
      </trkpt>
      <trkpt lat="43.475530" lon="11.095350">
        <ele>210.9</ele>
      </trkpt>
      <trkpt lat="43.475460" lon="11.096060">
        <ele>205.4</ele>
      </trkpt>
      <trkpt lat="43.475220" lon="11.096390">
        <ele>204.5</ele>
      </trkpt>
      <trkpt lat="43.474800" lon="11.096740">
        <ele>201.3</ele>
      </trkpt>
      <trkpt lat="43.474280" lon="11.097120">
        <ele>199.3</ele>
      </trkpt>
      <trkpt lat="43.473870" lon="11.098460">
        <ele>195.6</ele>
      </trkpt>
      <trkpt lat="43.473620" lon="11.099430">
        <ele>196</ele>
      </trkpt>
      <trkpt lat="43.473650" lon="11.100790">
        <ele>194.9</ele>
      </trkpt>
      <trkpt lat="43.473630" lon="11.101420">
        <ele>192.5</ele>
      </trkpt>
      <trkpt lat="43.473440" lon="11.101850">
        <ele>190.9</ele>
      </trkpt>
      <trkpt lat="43.473250" lon="11.102390">
        <ele>194.4</ele>
      </trkpt>
      <trkpt lat="43.473110" lon="11.103290">
        <ele>196.6</ele>
      </trkpt>
      <trkpt lat="43.473040" lon="11.104290">
        <ele>199.5</ele>
      </trkpt>
      <trkpt lat="43.473180" lon="11.105210">
        <ele>201.4</ele>
      </trkpt>
      <trkpt lat="43.473270" lon="11.105370">
        <ele>201.7</ele>
      </trkpt>
      <trkpt lat="43.473540" lon="11.106080">
        <ele>197</ele>
      </trkpt>
      <trkpt lat="43.474040" lon="11.106860">
        <ele>195.9</ele>
      </trkpt>
      <trkpt lat="43.474360" lon="11.107210">
        <ele>198.6</ele>
      </trkpt>
      <trkpt lat="43.476320" lon="11.108260">
        <ele>190.9</ele>
      </trkpt>
      <trkpt lat="43.477570" lon="11.109050">
        <ele>179.3</ele>
      </trkpt>
      <trkpt lat="43.478300" lon="11.109440">
        <ele>176.4</ele>
      </trkpt>
      <trkpt lat="43.478530" lon="11.109660">
        <ele>171.3</ele>
      </trkpt>
      <trkpt lat="43.478510" lon="11.110140">
        <ele>172.2</ele>
      </trkpt>
      <trkpt lat="43.478490" lon="11.110561">
        <ele>171</ele>
      </trkpt>
      <trkpt lat="43.478440" lon="11.111190">
        <ele>168.4</ele>
      </trkpt>
      <trkpt lat="43.478470" lon="11.111530">
        <ele>167.7</ele>
      </trkpt>
      <trkpt lat="43.478570" lon="11.111870">
        <ele>164.1</ele>
      </trkpt>
      <trkpt lat="43.478640" lon="11.112230">
        <ele>162.7</ele>
      </trkpt>
      <trkpt lat="43.478540" lon="11.112500">
        <ele>162.9</ele>
      </trkpt>
      <trkpt lat="43.478390" lon="11.112740">
        <ele>162.9</ele>
      </trkpt>
      <trkpt lat="43.478140" lon="11.112920">
        <ele>160.9</ele>
      </trkpt>
      <trkpt lat="43.477470" lon="11.112870">
        <ele>151</ele>
      </trkpt>
      <trkpt lat="43.477250" lon="11.113120">
        <ele>149.8</ele>
      </trkpt>
      <trkpt lat="43.477510" lon="11.113790">
        <ele>151.2</ele>
      </trkpt>
      <trkpt lat="43.477760" lon="11.114280">
        <ele>144.6</ele>
      </trkpt>
      <trkpt lat="43.477840" lon="11.114710">
        <ele>143.5</ele>
      </trkpt>
      <trkpt lat="43.477530" lon="11.115680">
        <ele>137.1</ele>
      </trkpt>
      <trkpt lat="43.477140" lon="11.116010">
        <ele>125.8</ele>
      </trkpt>
      <trkpt lat="43.476810" lon="11.116260">
        <ele>122.1</ele>
      </trkpt>
      <trkpt lat="43.476760" lon="11.116480">
        <ele>119.7</ele>
      </trkpt>
      <trkpt lat="43.477100" lon="11.116990">
        <ele>114.5</ele>
      </trkpt>
      <trkpt lat="43.477490" lon="11.117460">
        <ele>111.4</ele>
      </trkpt>
      <trkpt lat="43.477640" lon="11.117670">
        <ele>104.4</ele>
      </trkpt>
      <trkpt lat="43.477630" lon="11.117830">
        <ele>102</ele>
      </trkpt>
      <trkpt lat="43.477410" lon="11.118040">
        <ele>99.2</ele>
      </trkpt>
      <trkpt lat="43.477300" lon="11.118010">
        <ele>99.6</ele>
      </trkpt>
      <trkpt lat="43.477030" lon="11.117950">
        <ele>99.6</ele>
      </trkpt>
      <trkpt lat="43.476650" lon="11.117920">
        <ele>100.5</ele>
      </trkpt>
      <trkpt lat="43.476050" lon="11.118150">
        <ele>104</ele>
      </trkpt>
      <trkpt lat="43.475860" lon="11.118280">
        <ele>107.5</ele>
      </trkpt>
      <trkpt lat="43.475740" lon="11.118490">
        <ele>112.1</ele>
      </trkpt>
      <trkpt lat="43.475630" lon="11.118790">
        <ele>112.5</ele>
      </trkpt>
      <trkpt lat="43.475530" lon="11.118970">
        <ele>112.3</ele>
      </trkpt>
      <trkpt lat="43.475140" lon="11.119370">
        <ele>108.1</ele>
      </trkpt>
      <trkpt lat="43.474770" lon="11.119670">
        <ele>110.2</ele>
      </trkpt>
      <trkpt lat="43.474380" lon="11.119840">
        <ele>109</ele>
      </trkpt>
      <trkpt lat="43.473710" lon="11.119980">
        <ele>109.6</ele>
      </trkpt>
      <trkpt lat="43.473300" lon="11.120060">
        <ele>99.4</ele>
      </trkpt>
      <trkpt lat="43.473110" lon="11.120120">
        <ele>96.8</ele>
      </trkpt>
      <trkpt lat="43.472990" lon="11.120170">
        <ele>95.9</ele>
      </trkpt>
      <trkpt lat="43.472930" lon="11.120230">
        <ele>95.4</ele>
      </trkpt>
      <trkpt lat="43.472890" lon="11.120310">
        <ele>95</ele>
      </trkpt>
      <trkpt lat="43.472850" lon="11.120470">
        <ele>94.2</ele>
      </trkpt>
      <trkpt lat="43.472830" lon="11.120730">
        <ele>93.2</ele>
      </trkpt>
      <trkpt lat="43.472800" lon="11.121210">
        <ele>90.4</ele>
      </trkpt>
      <trkpt lat="43.472750" lon="11.121620">
        <ele>90.4</ele>
      </trkpt>
      <trkpt lat="43.472670" lon="11.121880">
        <ele>90.1</ele>
      </trkpt>
      <trkpt lat="43.472530" lon="11.122140">
        <ele>90</ele>
      </trkpt>
      <trkpt lat="43.472460" lon="11.122270">
        <ele>90.1</ele>
      </trkpt>
      <trkpt lat="43.472370" lon="11.122390">
        <ele>90</ele>
      </trkpt>
      <trkpt lat="43.472230" lon="11.122570">
        <ele>90.3</ele>
      </trkpt>
      <trkpt lat="43.471920" lon="11.122730">
        <ele>90.4</ele>
      </trkpt>
      <trkpt lat="43.471620" lon="11.122900">
        <ele>91.1</ele>
      </trkpt>
      <trkpt lat="43.471410" lon="11.123060">
        <ele>91.4</ele>
      </trkpt>
      <trkpt lat="43.471210" lon="11.123350">
        <ele>91.8</ele>
      </trkpt>
      <trkpt lat="43.470940" lon="11.123930">
        <ele>91.5</ele>
      </trkpt>
      <trkpt lat="43.470760" lon="11.124330">
        <ele>91.2</ele>
      </trkpt>
      <trkpt lat="43.470530" lon="11.125010">
        <ele>91.8</ele>
      </trkpt>
      <trkpt lat="43.470260" lon="11.125860">
        <ele>93.3</ele>
      </trkpt>
      <trkpt lat="43.470020" lon="11.126560">
        <ele>94.4</ele>
      </trkpt>
      <trkpt lat="43.469930" lon="11.126830">
        <ele>96.7</ele>
      </trkpt>
      <trkpt lat="43.469860" lon="11.126880">
        <ele>97.2</ele>
      </trkpt>
      <trkpt lat="43.469670" lon="11.126900">
        <ele>98.1</ele>
      </trkpt>
      <trkpt lat="43.469580" lon="11.126920">
        <ele>98.5</ele>
      </trkpt>
      <trkpt lat="43.469550" lon="11.126990">
        <ele>98.8</ele>
      </trkpt>
      <trkpt lat="43.469540" lon="11.127130">
        <ele>99</ele>
      </trkpt>
      <trkpt lat="43.469570" lon="11.127180">
        <ele>99</ele>
      </trkpt>
      <trkpt lat="43.469610" lon="11.127230">
        <ele>98.8</ele>
      </trkpt>
      <trkpt lat="43.469650" lon="11.127300">
        <ele>98.6</ele>
      </trkpt>
      <trkpt lat="43.469930" lon="11.127690">
        <ele>99.8</ele>
      </trkpt>
      <trkpt lat="43.470160" lon="11.128010">
        <ele>95.1</ele>
      </trkpt>
      <trkpt lat="43.470220" lon="11.128160">
        <ele>95.2</ele>
      </trkpt>
      <trkpt lat="43.470230" lon="11.128260">
        <ele>95.4</ele>
      </trkpt>
      <trkpt lat="43.470220" lon="11.128320">
        <ele>95.5</ele>
      </trkpt>
      <trkpt lat="43.470200" lon="11.128410">
        <ele>94.7</ele>
      </trkpt>
      <trkpt lat="43.470120" lon="11.128540">
        <ele>94.6</ele>
      </trkpt>
      <trkpt lat="43.470030" lon="11.128670">
        <ele>94.2</ele>
      </trkpt>
      <trkpt lat="43.469920" lon="11.128760">
        <ele>104.7</ele>
      </trkpt>
      <trkpt lat="43.469810" lon="11.128880">
        <ele>105.4</ele>
      </trkpt>
      <trkpt lat="43.469750" lon="11.129040">
        <ele>105.4</ele>
      </trkpt>
      <trkpt lat="43.469690" lon="11.129490">
        <ele>109.4</ele>
      </trkpt>
      <trkpt lat="43.469670" lon="11.130060">
        <ele>111.2</ele>
      </trkpt>
      <trkpt lat="43.469720" lon="11.130870">
        <ele>110</ele>
      </trkpt>
      <trkpt lat="43.469710" lon="11.131140">
        <ele>111.8</ele>
      </trkpt>
      <trkpt lat="43.469690" lon="11.131670">
        <ele>107.2</ele>
      </trkpt>
      <trkpt lat="43.469250" lon="11.134700">
        <ele>90.8</ele>
      </trkpt>
      <trkpt lat="43.468370" lon="11.137550">
        <ele>95.8</ele>
      </trkpt>
      <trkpt lat="43.467910" lon="11.138580">
        <ele>94.3</ele>
      </trkpt>
      <trkpt lat="43.467250" lon="11.139710">
        <ele>96.4</ele>
      </trkpt>
      <trkpt lat="43.467130" lon="11.140000">
        <ele>96.5</ele>
      </trkpt>
      <trkpt lat="43.467100" lon="11.140340">
        <ele>96.3</ele>
      </trkpt>
      <trkpt lat="43.467100" lon="11.140680">
        <ele>96</ele>
      </trkpt>
      <trkpt lat="43.467070" lon="11.140680">
        <ele>96</ele>
      </trkpt>
      <trkpt lat="43.467030" lon="11.140700">
        <ele>96</ele>
      </trkpt>
      <trkpt lat="43.467010" lon="11.140730">
        <ele>96</ele>
      </trkpt>
      <trkpt lat="43.467000" lon="11.140770">
        <ele>95.9</ele>
      </trkpt>
      <trkpt lat="43.466990" lon="11.140810">
        <ele>95.9</ele>
      </trkpt>
      <trkpt lat="43.467000" lon="11.140850">
        <ele>95.4</ele>
      </trkpt>
      <trkpt lat="43.467010" lon="11.140890">
        <ele>95.4</ele>
      </trkpt>
      <trkpt lat="43.466545" lon="11.140916">
        <ele>95.3</ele>
      </trkpt>
      <trkpt lat="43.466147" lon="11.140963">
        <ele>95.8</ele>
      </trkpt>
      <trkpt lat="43.465758" lon="11.141009">
        <ele>96.9</ele>
      </trkpt>
      <trkpt lat="43.465469" lon="11.141016">
        <ele>97.2</ele>
      </trkpt>
      <trkpt lat="43.465243" lon="11.141009">
        <ele>97.9</ele>
      </trkpt>
      <trkpt lat="43.465060" lon="11.140960">
        <ele>99.1</ele>
      </trkpt>
      <trkpt lat="43.464851" lon="11.140891">
        <ele>99</ele>
      </trkpt>
      <trkpt lat="43.464680" lon="11.140800">
        <ele>101.9</ele>
      </trkpt>
      <trkpt lat="43.464441" lon="11.140655">
        <ele>101.6</ele>
      </trkpt>
      <trkpt lat="43.464261" lon="11.140515">
        <ele>102</ele>
      </trkpt>
      <trkpt lat="43.464067" lon="11.140343">
        <ele>100.9</ele>
      </trkpt>
      <trkpt lat="43.463867" lon="11.140161">
        <ele>101.2</ele>
      </trkpt>
      <trkpt lat="43.463667" lon="11.139942">
        <ele>105.2</ele>
      </trkpt>
      <trkpt lat="43.463542" lon="11.139753">
        <ele>105.3</ele>
      </trkpt>
      <trkpt lat="43.463430" lon="11.139560">
        <ele>106.4</ele>
      </trkpt>
      <trkpt lat="43.463370" lon="11.139390">
        <ele>107.3</ele>
      </trkpt>
      <trkpt lat="43.463260" lon="11.138900">
        <ele>106.4</ele>
      </trkpt>
      <trkpt lat="43.463152" lon="11.138512">
        <ele>107.7</ele>
      </trkpt>
      <trkpt lat="43.462998" lon="11.138059">
        <ele>111.1</ele>
      </trkpt>
      <trkpt lat="43.462849" lon="11.137722">
        <ele>111</ele>
      </trkpt>
      <trkpt lat="43.462550" lon="11.137230">
        <ele>121.9</ele>
      </trkpt>
      <trkpt lat="43.462370" lon="11.137000">
        <ele>114.2</ele>
      </trkpt>
      <trkpt lat="43.462170" lon="11.136820">
        <ele>114.5</ele>
      </trkpt>
      <trkpt lat="43.461980" lon="11.136660">
        <ele>127.2</ele>
      </trkpt>
      <trkpt lat="43.461790" lon="11.136590">
        <ele>120.2</ele>
      </trkpt>
      <trkpt lat="43.461560" lon="11.136540">
        <ele>113.9</ele>
      </trkpt>
      <trkpt lat="43.461230" lon="11.136580">
        <ele>115.6</ele>
      </trkpt>
      <trkpt lat="43.460720" lon="11.136690">
        <ele>107.4</ele>
      </trkpt>
      <trkpt lat="43.460420" lon="11.136760">
        <ele>107.6</ele>
      </trkpt>
      <trkpt lat="43.460240" lon="11.136760">
        <ele>108.8</ele>
      </trkpt>
      <trkpt lat="43.460010" lon="11.136720">
        <ele>111.7</ele>
      </trkpt>
      <trkpt lat="43.459770" lon="11.136660">
        <ele>115.4</ele>
      </trkpt>
      <trkpt lat="43.459320" lon="11.136400">
        <ele>117</ele>
      </trkpt>
      <trkpt lat="43.459000" lon="11.136120">
        <ele>118.4</ele>
      </trkpt>
      <trkpt lat="43.458860" lon="11.135940">
        <ele>118.5</ele>
      </trkpt>
      <trkpt lat="43.458750" lon="11.135770">
        <ele>120.3</ele>
      </trkpt>
      <trkpt lat="43.458560" lon="11.135400">
        <ele>120.3</ele>
      </trkpt>
      <trkpt lat="43.458150" lon="11.134370">
        <ele>118.9</ele>
      </trkpt>
      <trkpt lat="43.457990" lon="11.134080">
        <ele>126.5</ele>
      </trkpt>
      <trkpt lat="43.457860" lon="11.133900">
        <ele>126.4</ele>
      </trkpt>
      <trkpt lat="43.457710" lon="11.133750">
        <ele>126.9</ele>
      </trkpt>
      <trkpt lat="43.457430" lon="11.133550">
        <ele>122.2</ele>
      </trkpt>
      <trkpt lat="43.457100" lon="11.133450">
        <ele>120.1</ele>
      </trkpt>
      <trkpt lat="43.456770" lon="11.133460">
        <ele>120</ele>
      </trkpt>
      <trkpt lat="43.456460" lon="11.133550">
        <ele>116.9</ele>
      </trkpt>
      <trkpt lat="43.456210" lon="11.133690">
        <ele>115.2</ele>
      </trkpt>
      <trkpt lat="43.455910" lon="11.133910">
        <ele>112.5</ele>
      </trkpt>
      <trkpt lat="43.455620" lon="11.134070">
        <ele>111.1</ele>
      </trkpt>
      <trkpt lat="43.455440" lon="11.134110">
        <ele>111.5</ele>
      </trkpt>
      <trkpt lat="43.455260" lon="11.134090">
        <ele>111.1</ele>
      </trkpt>
      <trkpt lat="43.455100" lon="11.134060">
        <ele>110</ele>
      </trkpt>
      <trkpt lat="43.454390" lon="11.133740">
        <ele>105.8</ele>
      </trkpt>
      <trkpt lat="43.453680" lon="11.133360">
        <ele>103</ele>
      </trkpt>
      <trkpt lat="43.453250" lon="11.133150">
        <ele>104</ele>
      </trkpt>
      <trkpt lat="43.451810" lon="11.132380">
        <ele>105.2</ele>
      </trkpt>
      <trkpt lat="43.451330" lon="11.132190">
        <ele>107.7</ele>
      </trkpt>
      <trkpt lat="43.451090" lon="11.132110">
        <ele>108.2</ele>
      </trkpt>
      <trkpt lat="43.450810" lon="11.132040">
        <ele>109.9</ele>
      </trkpt>
      <trkpt lat="43.449480" lon="11.131910">
        <ele>112</ele>
      </trkpt>
      <trkpt lat="43.447970" lon="11.131770">
        <ele>118.2</ele>
      </trkpt>
      <trkpt lat="43.447580" lon="11.131770">
        <ele>115.8</ele>
      </trkpt>
      <trkpt lat="43.447280" lon="11.131800">
        <ele>115.6</ele>
      </trkpt>
      <trkpt lat="43.447010" lon="11.131920">
        <ele>116.1</ele>
      </trkpt>
      <trkpt lat="43.446620" lon="11.132200">
        <ele>113.3</ele>
      </trkpt>
      <trkpt lat="43.446400" lon="11.132470">
        <ele>113.7</ele>
      </trkpt>
      <trkpt lat="43.446210" lon="11.132770">
        <ele>114.9</ele>
      </trkpt>
      <trkpt lat="43.446050" lon="11.133150">
        <ele>113.7</ele>
      </trkpt>
      <trkpt lat="43.445820" lon="11.133680">
        <ele>107.9</ele>
      </trkpt>
      <trkpt lat="43.445610" lon="11.134130">
        <ele>107.9</ele>
      </trkpt>
      <trkpt lat="43.445350" lon="11.134610">
        <ele>108.6</ele>
      </trkpt>
      <trkpt lat="43.445090" lon="11.135060">
        <ele>108.3</ele>
      </trkpt>
      <trkpt lat="43.444670" lon="11.135790">
        <ele>109.1</ele>
      </trkpt>
      <trkpt lat="43.444040" lon="11.136850">
        <ele>109.3</ele>
      </trkpt>
      <trkpt lat="43.443700" lon="11.137460">
        <ele>110.9</ele>
      </trkpt>
      <trkpt lat="43.443300" lon="11.138110">
        <ele>111.8</ele>
      </trkpt>
      <trkpt lat="43.443040" lon="11.138520">
        <ele>112</ele>
      </trkpt>
      <trkpt lat="43.442620" lon="11.139240">
        <ele>112.5</ele>
      </trkpt>
      <trkpt lat="43.442410" lon="11.139500">
        <ele>112.2</ele>
      </trkpt>
      <trkpt lat="43.442280" lon="11.139630">
        <ele>112.1</ele>
      </trkpt>
      <trkpt lat="43.442120" lon="11.139750">
        <ele>112</ele>
      </trkpt>
      <trkpt lat="43.441830" lon="11.139910">
        <ele>112</ele>
      </trkpt>
      <trkpt lat="43.441130" lon="11.140180">
        <ele>114.1</ele>
      </trkpt>
      <trkpt lat="43.440940" lon="11.140300">
        <ele>114.5</ele>
      </trkpt>
      <trkpt lat="43.440680" lon="11.140530">
        <ele>115.6</ele>
      </trkpt>
      <trkpt lat="43.440480" lon="11.140750">
        <ele>115.7</ele>
      </trkpt>
      <trkpt lat="43.439860" lon="11.141880">
        <ele>121.5</ele>
      </trkpt>
      <trkpt lat="43.439540" lon="11.142380">
        <ele>122.1</ele>
      </trkpt>
      <trkpt lat="43.439220" lon="11.142820">
        <ele>125.2</ele>
      </trkpt>
      <trkpt lat="43.439020" lon="11.143030">
        <ele>119.9</ele>
      </trkpt>
      <trkpt lat="43.438870" lon="11.143160">
        <ele>119.7</ele>
      </trkpt>
      <trkpt lat="43.438700" lon="11.143250">
        <ele>118.9</ele>
      </trkpt>
      <trkpt lat="43.438540" lon="11.143320">
        <ele>118.1</ele>
      </trkpt>
      <trkpt lat="43.438360" lon="11.143360">
        <ele>117.9</ele>
      </trkpt>
      <trkpt lat="43.438200" lon="11.143370">
        <ele>117.8</ele>
      </trkpt>
      <trkpt lat="43.438040" lon="11.143350">
        <ele>118.1</ele>
      </trkpt>
      <trkpt lat="43.437850" lon="11.143290">
        <ele>115.5</ele>
      </trkpt>
      <trkpt lat="43.437660" lon="11.143210">
        <ele>115.5</ele>
      </trkpt>
      <trkpt lat="43.437330" lon="11.142900">
        <ele>113.9</ele>
      </trkpt>
      <trkpt lat="43.436940" lon="11.142500">
        <ele>113.4</ele>
      </trkpt>
      <trkpt lat="43.436730" lon="11.142280">
        <ele>114.3</ele>
      </trkpt>
      <trkpt lat="43.436400" lon="11.141980">
        <ele>116.8</ele>
      </trkpt>
      <trkpt lat="43.436230" lon="11.141830">
        <ele>117.2</ele>
      </trkpt>
      <trkpt lat="43.436000" lon="11.141640">
        <ele>122.9</ele>
      </trkpt>
      <trkpt lat="43.435550" lon="11.141370">
        <ele>125.4</ele>
      </trkpt>
      <trkpt lat="43.435030" lon="11.141110">
        <ele>127.7</ele>
      </trkpt>
      <trkpt lat="43.434620" lon="11.140830">
        <ele>131.9</ele>
      </trkpt>
      <trkpt lat="43.433940" lon="11.140220">
        <ele>128.9</ele>
      </trkpt>
      <trkpt lat="43.433540" lon="11.139900">
        <ele>133.2</ele>
      </trkpt>
      <trkpt lat="43.433170" lon="11.139570">
        <ele>129</ele>
      </trkpt>
      <trkpt lat="43.432630" lon="11.139090">
        <ele>131.5</ele>
      </trkpt>
      <trkpt lat="43.432460" lon="11.138920">
        <ele>126.6</ele>
      </trkpt>
      <trkpt lat="43.432300" lon="11.138740">
        <ele>127.9</ele>
      </trkpt>
      <trkpt lat="43.432170" lon="11.138590">
        <ele>128.2</ele>
      </trkpt>
      <trkpt lat="43.432080" lon="11.138430">
        <ele>127.9</ele>
      </trkpt>
      <trkpt lat="43.431980" lon="11.138110">
        <ele>131.2</ele>
      </trkpt>
      <trkpt lat="43.431900" lon="11.137700">
        <ele>130.8</ele>
      </trkpt>
      <trkpt lat="43.431900" lon="11.137560">
        <ele>130.3</ele>
      </trkpt>
      <trkpt lat="43.431900" lon="11.137020">
        <ele>130.6</ele>
      </trkpt>
      <trkpt lat="43.432050" lon="11.136410">
        <ele>128.3</ele>
      </trkpt>
      <trkpt lat="43.432170" lon="11.136000">
        <ele>128.5</ele>
      </trkpt>
      <trkpt lat="43.432250" lon="11.135330">
        <ele>123.9</ele>
      </trkpt>
      <trkpt lat="43.432240" lon="11.134900">
        <ele>122.5</ele>
      </trkpt>
      <trkpt lat="43.432130" lon="11.134400">
        <ele>123.1</ele>
      </trkpt>
      <trkpt lat="43.432000" lon="11.133990">
        <ele>129.7</ele>
      </trkpt>
      <trkpt lat="43.431890" lon="11.133730">
        <ele>131.2</ele>
      </trkpt>
      <trkpt lat="43.431630" lon="11.133160">
        <ele>128.2</ele>
      </trkpt>
      <trkpt lat="43.431540" lon="11.132900">
        <ele>128.9</ele>
      </trkpt>
      <trkpt lat="43.431490" lon="11.132590">
        <ele>132.1</ele>
      </trkpt>
      <trkpt lat="43.431470" lon="11.132220">
        <ele>132.4</ele>
      </trkpt>
      <trkpt lat="43.431510" lon="11.131530">
        <ele>135.6</ele>
      </trkpt>
      <trkpt lat="43.431490" lon="11.131280">
        <ele>134.6</ele>
      </trkpt>
      <trkpt lat="43.431440" lon="11.130980">
        <ele>136</ele>
      </trkpt>
      <trkpt lat="43.431370" lon="11.130720">
        <ele>138</ele>
      </trkpt>
      <trkpt lat="43.431230" lon="11.130340">
        <ele>136.5</ele>
      </trkpt>
      <trkpt lat="43.431160" lon="11.130150">
        <ele>135.4</ele>
      </trkpt>
      <trkpt lat="43.431110" lon="11.130010">
        <ele>134.2</ele>
      </trkpt>
      <trkpt lat="43.431040" lon="11.129760">
        <ele>136</ele>
      </trkpt>
      <trkpt lat="43.430920" lon="11.129350">
        <ele>135.7</ele>
      </trkpt>
      <trkpt lat="43.430790" lon="11.128910">
        <ele>131.5</ele>
      </trkpt>
      <trkpt lat="43.430600" lon="11.128490">
        <ele>131.7</ele>
      </trkpt>
      <trkpt lat="43.430220" lon="11.127820">
        <ele>132.5</ele>
      </trkpt>
      <trkpt lat="43.430080" lon="11.127550">
        <ele>132.8</ele>
      </trkpt>
      <trkpt lat="43.429800" lon="11.127120">
        <ele>133.1</ele>
      </trkpt>
      <trkpt lat="43.429530" lon="11.126790">
        <ele>133.5</ele>
      </trkpt>
      <trkpt lat="43.429330" lon="11.126620">
        <ele>135.7</ele>
      </trkpt>
      <trkpt lat="43.429090" lon="11.126470">
        <ele>136.8</ele>
      </trkpt>
      <trkpt lat="43.428980" lon="11.126480">
        <ele>137</ele>
      </trkpt>
      <trkpt lat="43.428870" lon="11.126450">
        <ele>137.3</ele>
      </trkpt>
      <trkpt lat="43.428770" lon="11.126390">
        <ele>137.5</ele>
      </trkpt>
      <trkpt lat="43.428720" lon="11.126310">
        <ele>137.8</ele>
      </trkpt>
      <trkpt lat="43.428630" lon="11.126240">
        <ele>138</ele>
      </trkpt>
      <trkpt lat="43.427610" lon="11.125990">
        <ele>138.8</ele>
      </trkpt>
      <trkpt lat="43.427040" lon="11.125830">
        <ele>141.7</ele>
      </trkpt>
      <trkpt lat="43.426590" lon="11.125720">
        <ele>140.1</ele>
      </trkpt>
      <trkpt lat="43.426070" lon="11.125610">
        <ele>141.1</ele>
      </trkpt>
      <trkpt lat="43.425810" lon="11.125590">
        <ele>141.4</ele>
      </trkpt>
      <trkpt lat="43.425600" lon="11.125610">
        <ele>141.6</ele>
      </trkpt>
      <trkpt lat="43.425430" lon="11.125640">
        <ele>141.7</ele>
      </trkpt>
      <trkpt lat="43.425330" lon="11.125610">
        <ele>141.8</ele>
      </trkpt>
      <trkpt lat="43.425090" lon="11.125730">
        <ele>141.9</ele>
      </trkpt>
      <trkpt lat="43.425070" lon="11.125690">
        <ele>141.9</ele>
      </trkpt>
      <trkpt lat="43.425030" lon="11.125660">
        <ele>141.9</ele>
      </trkpt>
      <trkpt lat="43.425010" lon="11.125650">
        <ele>141.9</ele>
      </trkpt>
      <trkpt lat="43.424960" lon="11.125660">
        <ele>142</ele>
      </trkpt>
      <trkpt lat="43.424910" lon="11.125690">
        <ele>142</ele>
      </trkpt>
      <trkpt lat="43.424890" lon="11.125740">
        <ele>142</ele>
      </trkpt>
      <trkpt lat="43.424748" lon="11.125762">
        <ele>142</ele>
      </trkpt>
      <trkpt lat="43.424560" lon="11.125755">
        <ele>141.8</ele>
      </trkpt>
      <trkpt lat="43.424338" lon="11.125734">
        <ele>141.3</ele>
      </trkpt>
      <trkpt lat="43.423922" lon="11.125741">
        <ele>143.4</ele>
      </trkpt>
      <trkpt lat="43.423399" lon="11.125836">
        <ele>144.1</ele>
      </trkpt>
      <trkpt lat="43.423137" lon="11.125904">
        <ele>144.4</ele>
      </trkpt>
      <trkpt lat="43.422832" lon="11.125983">
        <ele>144.4</ele>
      </trkpt>
      <trkpt lat="43.422402" lon="11.125961">
        <ele>145.7</ele>
      </trkpt>
      <trkpt lat="43.421901" lon="11.125944">
        <ele>146.1</ele>
      </trkpt>
      <trkpt lat="43.421431" lon="11.125901">
        <ele>147.7</ele>
      </trkpt>
      <trkpt lat="43.421080" lon="11.125890">
        <ele>148.7</ele>
      </trkpt>
      <trkpt lat="43.420930" lon="11.126042">
        <ele>148.8</ele>
      </trkpt>
      <trkpt lat="43.420778" lon="11.126150">
        <ele>150.2</ele>
      </trkpt>
      <trkpt lat="43.420671" lon="11.126171">
        <ele>150.3</ele>
      </trkpt>
      <trkpt lat="43.420542" lon="11.126323">
        <ele>150.3</ele>
      </trkpt>
      <trkpt lat="43.420343" lon="11.126605">
        <ele>150.7</ele>
      </trkpt>
      <trkpt lat="43.420126" lon="11.126896">
        <ele>151.1</ele>
      </trkpt>
      <trkpt lat="43.419940" lon="11.127120">
        <ele>152</ele>
      </trkpt>
      <trkpt lat="43.419800" lon="11.127270">
        <ele>152</ele>
      </trkpt>
      <trkpt lat="43.419780" lon="11.127300">
        <ele>152.1</ele>
      </trkpt>
      <trkpt lat="43.419600" lon="11.127590">
        <ele>153</ele>
      </trkpt>
      <trkpt lat="43.419360" lon="11.127960">
        <ele>153.5</ele>
      </trkpt>
      <trkpt lat="43.419050" lon="11.128390">
        <ele>155.7</ele>
      </trkpt>
      <trkpt lat="43.418280" lon="11.129420">
        <ele>163.7</ele>
      </trkpt>
      <trkpt lat="43.417570" lon="11.130390">
        <ele>164.8</ele>
      </trkpt>
      <trkpt lat="43.417450" lon="11.130550">
        <ele>169.8</ele>
      </trkpt>
      <trkpt lat="43.417420" lon="11.130590">
        <ele>169.5</ele>
      </trkpt>
      <trkpt lat="43.417400" lon="11.130620">
        <ele>169.3</ele>
      </trkpt>
      <trkpt lat="43.417360" lon="11.130690">
        <ele>168.8</ele>
      </trkpt>
      <trkpt lat="43.417330" lon="11.130730">
        <ele>168.8</ele>
      </trkpt>
      <trkpt lat="43.417230" lon="11.130900">
        <ele>166</ele>
      </trkpt>
      <trkpt lat="43.417180" lon="11.131000">
        <ele>166.3</ele>
      </trkpt>
      <trkpt lat="43.416700" lon="11.131360">
        <ele>166.9</ele>
      </trkpt>
      <trkpt lat="43.416260" lon="11.131710">
        <ele>164.5</ele>
      </trkpt>
      <trkpt lat="43.415900" lon="11.131830">
        <ele>164.5</ele>
      </trkpt>
      <trkpt lat="43.415900" lon="11.131760">
        <ele>164.7</ele>
      </trkpt>
      <trkpt lat="43.415870" lon="11.131670">
        <ele>164.9</ele>
      </trkpt>
      <trkpt lat="43.415840" lon="11.131630">
        <ele>165.5</ele>
      </trkpt>
      <trkpt lat="43.415750" lon="11.131560">
        <ele>165.6</ele>
      </trkpt>
      <trkpt lat="43.415650" lon="11.131560">
        <ele>165.8</ele>
      </trkpt>
      <trkpt lat="43.415590" lon="11.131600">
        <ele>165.8</ele>
      </trkpt>
      <trkpt lat="43.415540" lon="11.131650">
        <ele>165.8</ele>
      </trkpt>
      <trkpt lat="43.415510" lon="11.131730">
        <ele>164.4</ele>
      </trkpt>
      <trkpt lat="43.415490" lon="11.131800">
        <ele>164.3</ele>
      </trkpt>
      <trkpt lat="43.415500" lon="11.131900">
        <ele>164.2</ele>
      </trkpt>
      <trkpt lat="43.413120" lon="11.132410">
        <ele>166</ele>
      </trkpt>
      <trkpt lat="43.412550" lon="11.132520">
        <ele>166.7</ele>
      </trkpt>
      <trkpt lat="43.411790" lon="11.132690">
        <ele>166.5</ele>
      </trkpt>
      <trkpt lat="43.411660" lon="11.132720">
        <ele>166.9</ele>
      </trkpt>
      <trkpt lat="43.410960" lon="11.132850">
        <ele>167.4</ele>
      </trkpt>
      <trkpt lat="43.410940" lon="11.132800">
        <ele>167.6</ele>
      </trkpt>
      <trkpt lat="43.410910" lon="11.132760">
        <ele>167.7</ele>
      </trkpt>
      <trkpt lat="43.410880" lon="11.132730">
        <ele>167.8</ele>
      </trkpt>
      <trkpt lat="43.410840" lon="11.132730">
        <ele>167.8</ele>
      </trkpt>
      <trkpt lat="43.410800" lon="11.132740">
        <ele>168.7</ele>
      </trkpt>
      <trkpt lat="43.410760" lon="11.132770">
        <ele>168.7</ele>
      </trkpt>
      <trkpt lat="43.410740" lon="11.132820">
        <ele>168.6</ele>
      </trkpt>
      <trkpt lat="43.410730" lon="11.132870">
        <ele>168.6</ele>
      </trkpt>
      <trkpt lat="43.410730" lon="11.132910">
        <ele>168.5</ele>
      </trkpt>
      <trkpt lat="43.409580" lon="11.133120">
        <ele>168.8</ele>
      </trkpt>
      <trkpt lat="43.408630" lon="11.133280">
        <ele>166.2</ele>
      </trkpt>
      <trkpt lat="43.407910" lon="11.133370">
        <ele>162.8</ele>
      </trkpt>
      <trkpt lat="43.407610" lon="11.133390">
        <ele>164.3</ele>
      </trkpt>
      <trkpt lat="43.406770" lon="11.133660">
        <ele>167.6</ele>
      </trkpt>
      <trkpt lat="43.406180" lon="11.133850">
        <ele>172.9</ele>
      </trkpt>
      <trkpt lat="43.405770" lon="11.133910">
        <ele>175.2</ele>
      </trkpt>
      <trkpt lat="43.405650" lon="11.133930">
        <ele>175.3</ele>
      </trkpt>
      <trkpt lat="43.404990" lon="11.134000">
        <ele>174.3</ele>
      </trkpt>
      <trkpt lat="43.405010" lon="11.134080">
        <ele>173.4</ele>
      </trkpt>
      <trkpt lat="43.404890" lon="11.134090">
        <ele>173.9</ele>
      </trkpt>
      <trkpt lat="43.404860" lon="11.134100">
        <ele>174</ele>
      </trkpt>
      <trkpt lat="43.404750" lon="11.134120">
        <ele>174.6</ele>
      </trkpt>
      <trkpt lat="43.404320" lon="11.134220">
        <ele>171.4</ele>
      </trkpt>
      <trkpt lat="43.404070" lon="11.134290">
        <ele>172.6</ele>
      </trkpt>
      <trkpt lat="43.404000" lon="11.134300">
        <ele>172.6</ele>
      </trkpt>
      <trkpt lat="43.403590" lon="11.134430">
        <ele>173</ele>
      </trkpt>
      <trkpt lat="43.403410" lon="11.134610">
        <ele>173.2</ele>
      </trkpt>
      <trkpt lat="43.403260" lon="11.135020">
        <ele>175.1</ele>
      </trkpt>
      <trkpt lat="43.403210" lon="11.135030">
        <ele>175.1</ele>
      </trkpt>
      <trkpt lat="43.403090" lon="11.135380">
        <ele>175.1</ele>
      </trkpt>
      <trkpt lat="43.403070" lon="11.135510">
        <ele>175.1</ele>
      </trkpt>
      <trkpt lat="43.403060" lon="11.135650">
        <ele>175</ele>
      </trkpt>
      <trkpt lat="43.403000" lon="11.135810">
        <ele>175</ele>
      </trkpt>
      <trkpt lat="43.402790" lon="11.136490">
        <ele>175.8</ele>
      </trkpt>
      <trkpt lat="43.402690" lon="11.136880">
        <ele>176.1</ele>
      </trkpt>
      <trkpt lat="43.402560" lon="11.137430">
        <ele>176.5</ele>
      </trkpt>
      <trkpt lat="43.402400" lon="11.137900">
        <ele>177.8</ele>
      </trkpt>
      <trkpt lat="43.402260" lon="11.138400">
        <ele>178.7</ele>
      </trkpt>
      <trkpt lat="43.402160" lon="11.138690">
        <ele>179.5</ele>
      </trkpt>
      <trkpt lat="43.402050" lon="11.138900">
        <ele>180.1</ele>
      </trkpt>
      <trkpt lat="43.401980" lon="11.139040">
        <ele>180.6</ele>
      </trkpt>
      <trkpt lat="43.401880" lon="11.139090">
        <ele>181.4</ele>
      </trkpt>
      <trkpt lat="43.401770" lon="11.139020">
        <ele>181.8</ele>
      </trkpt>
      <trkpt lat="43.401270" lon="11.138430">
        <ele>184.3</ele>
      </trkpt>
      <trkpt lat="43.401010" lon="11.138310">
        <ele>182.8</ele>
      </trkpt>
      <trkpt lat="43.400890" lon="11.138330">
        <ele>184.1</ele>
      </trkpt>
      <trkpt lat="43.400890" lon="11.138480">
        <ele>185.3</ele>
      </trkpt>
      <trkpt lat="43.400970" lon="11.138700">
        <ele>186</ele>
      </trkpt>
      <trkpt lat="43.401060" lon="11.138810">
        <ele>186.2</ele>
      </trkpt>
      <trkpt lat="43.401190" lon="11.139130">
        <ele>186.7</ele>
      </trkpt>
      <trkpt lat="43.401190" lon="11.139580">
        <ele>191.6</ele>
      </trkpt>
      <trkpt lat="43.401000" lon="11.140040">
        <ele>198.2</ele>
      </trkpt>
      <trkpt lat="43.400950" lon="11.140300">
        <ele>198.1</ele>
      </trkpt>
      <trkpt lat="43.400950" lon="11.140610">
        <ele>199.2</ele>
      </trkpt>
      <trkpt lat="43.400880" lon="11.140970">
        <ele>201.6</ele>
      </trkpt>
      <trkpt lat="43.400670" lon="11.141580">
        <ele>201</ele>
      </trkpt>
      <trkpt lat="43.400120" lon="11.143030">
        <ele>196.2</ele>
      </trkpt>
      <trkpt lat="43.399840" lon="11.145090">
        <ele>191.6</ele>
      </trkpt>
      <trkpt lat="43.399660" lon="11.145550">
        <ele>191.5</ele>
      </trkpt>
      <trkpt lat="43.399550" lon="11.146110">
        <ele>192.6</ele>
      </trkpt>
      <trkpt lat="43.399510" lon="11.146410">
        <ele>192.8</ele>
      </trkpt>
      <trkpt lat="43.399460" lon="11.146700">
        <ele>194.2</ele>
      </trkpt>
      <trkpt lat="43.399300" lon="11.147110">
        <ele>195</ele>
      </trkpt>
      <trkpt lat="43.398760" lon="11.147630">
        <ele>195.3</ele>
      </trkpt>
      <trkpt lat="43.398310" lon="11.148200">
        <ele>192.8</ele>
      </trkpt>
      <trkpt lat="43.398220" lon="11.148350">
        <ele>194</ele>
      </trkpt>
      <trkpt lat="43.398120" lon="11.148550">
        <ele>194.1</ele>
      </trkpt>
      <trkpt lat="43.398100" lon="11.148720">
        <ele>194.4</ele>
      </trkpt>
      <trkpt lat="43.398010" lon="11.149040">
        <ele>195.1</ele>
      </trkpt>
      <trkpt lat="43.397670" lon="11.150050">
        <ele>196.3</ele>
      </trkpt>
      <trkpt lat="43.397240" lon="11.151210">
        <ele>200.3</ele>
      </trkpt>
      <trkpt lat="43.396810" lon="11.152260">
        <ele>205</ele>
      </trkpt>
      <trkpt lat="43.396730" lon="11.153590">
        <ele>211.8</ele>
      </trkpt>
      <trkpt lat="43.396600" lon="11.154280">
        <ele>211.5</ele>
      </trkpt>
      <trkpt lat="43.396470" lon="11.154640">
        <ele>212.7</ele>
      </trkpt>
      <trkpt lat="43.396450" lon="11.154770">
        <ele>213.3</ele>
      </trkpt>
      <trkpt lat="43.396490" lon="11.155710">
        <ele>216.8</ele>
      </trkpt>
      <trkpt lat="43.396450" lon="11.156020">
        <ele>218.7</ele>
      </trkpt>
      <trkpt lat="43.396360" lon="11.156320">
        <ele>219.2</ele>
      </trkpt>
      <trkpt lat="43.395500" lon="11.157770">
        <ele>228.4</ele>
      </trkpt>
      <trkpt lat="43.395330" lon="11.158220">
        <ele>229.2</ele>
      </trkpt>
      <trkpt lat="43.395270" lon="11.158400">
        <ele>229.8</ele>
      </trkpt>
      <trkpt lat="43.395030" lon="11.158800">
        <ele>229.6</ele>
      </trkpt>
      <trkpt lat="43.394620" lon="11.159920">
        <ele>224.1</ele>
      </trkpt>
      <trkpt lat="43.394340" lon="11.160560">
        <ele>222.9</ele>
      </trkpt>
      <trkpt lat="43.394260" lon="11.160840">
        <ele>221.5</ele>
      </trkpt>
      <trkpt lat="43.394180" lon="11.161100">
        <ele>221.6</ele>
      </trkpt>
      <trkpt lat="43.393910" lon="11.161360">
        <ele>214.1</ele>
      </trkpt>
      <trkpt lat="43.393870" lon="11.161510">
        <ele>213.8</ele>
      </trkpt>
      <trkpt lat="43.393910" lon="11.161790">
        <ele>211.6</ele>
      </trkpt>
      <trkpt lat="43.393960" lon="11.161920">
        <ele>211.2</ele>
      </trkpt>
      <trkpt lat="43.393960" lon="11.162200">
        <ele>209.7</ele>
      </trkpt>
      <trkpt lat="43.393640" lon="11.163100">
        <ele>206.3</ele>
      </trkpt>
      <trkpt lat="43.393290" lon="11.163610">
        <ele>209.8</ele>
      </trkpt>
      <trkpt lat="43.393190" lon="11.163680">
        <ele>210.6</ele>
      </trkpt>
      <trkpt lat="43.393080" lon="11.163650">
        <ele>211.1</ele>
      </trkpt>
      <trkpt lat="43.392580" lon="11.163250">
        <ele>214</ele>
      </trkpt>
      <trkpt lat="43.392410" lon="11.163070">
        <ele>217.4</ele>
      </trkpt>
      <trkpt lat="43.391920" lon="11.162300">
        <ele>217.7</ele>
      </trkpt>
      <trkpt lat="43.391850" lon="11.162260">
        <ele>218.3</ele>
      </trkpt>
      <trkpt lat="43.391730" lon="11.162300">
        <ele>219.6</ele>
      </trkpt>
      <trkpt lat="43.391450" lon="11.162500">
        <ele>224.3</ele>
      </trkpt>
      <trkpt lat="43.391260" lon="11.162590">
        <ele>222.7</ele>
      </trkpt>
      <trkpt lat="43.391170" lon="11.162570">
        <ele>222.5</ele>
      </trkpt>
      <trkpt lat="43.391280" lon="11.162790">
        <ele>222.6</ele>
      </trkpt>
      <trkpt lat="43.391430" lon="11.163590">
        <ele>222.6</ele>
      </trkpt>
      <trkpt lat="43.391490" lon="11.163980">
        <ele>222.7</ele>
      </trkpt>
      <trkpt lat="43.391500" lon="11.164090">
        <ele>222.8</ele>
      </trkpt>
      <trkpt lat="43.391400" lon="11.164190">
        <ele>223</ele>
      </trkpt>
      <trkpt lat="43.391150" lon="11.164320">
        <ele>223</ele>
      </trkpt>
      <trkpt lat="43.390410" lon="11.164620">
        <ele>223.8</ele>
      </trkpt>
      <trkpt lat="43.389950" lon="11.164880">
        <ele>224.9</ele>
      </trkpt>
      <trkpt lat="43.389580" lon="11.165050">
        <ele>226.3</ele>
      </trkpt>
      <trkpt lat="43.388160" lon="11.165690">
        <ele>232.3</ele>
      </trkpt>
      <trkpt lat="43.387670" lon="11.165910">
        <ele>233</ele>
      </trkpt>
      <trkpt lat="43.386640" lon="11.166380">
        <ele>241.2</ele>
      </trkpt>
      <trkpt lat="43.386340" lon="11.166570">
        <ele>241.6</ele>
      </trkpt>
      <trkpt lat="43.385850" lon="11.167410">
        <ele>244.3</ele>
      </trkpt>
      <trkpt lat="43.385760" lon="11.167420">
        <ele>244.3</ele>
      </trkpt>
      <trkpt lat="43.385400" lon="11.167410">
        <ele>243.1</ele>
      </trkpt>
      <trkpt lat="43.385150" lon="11.167480">
        <ele>242.9</ele>
      </trkpt>
      <trkpt lat="43.384820" lon="11.167580">
        <ele>243.1</ele>
      </trkpt>
      <trkpt lat="43.384460" lon="11.167760">
        <ele>242.9</ele>
      </trkpt>
      <trkpt lat="43.384140" lon="11.168060">
        <ele>243.8</ele>
      </trkpt>
      <trkpt lat="43.383530" lon="11.168750">
        <ele>247.1</ele>
      </trkpt>
      <trkpt lat="43.383080" lon="11.169360">
        <ele>247.1</ele>
      </trkpt>
      <trkpt lat="43.382830" lon="11.169750">
        <ele>247.2</ele>
      </trkpt>
      <trkpt lat="43.382710" lon="11.170050">
        <ele>247.8</ele>
      </trkpt>
      <trkpt lat="43.382580" lon="11.170190">
        <ele>248</ele>
      </trkpt>
      <trkpt lat="43.382170" lon="11.170500">
        <ele>250.7</ele>
      </trkpt>
      <trkpt lat="43.381640" lon="11.170870">
        <ele>254.3</ele>
      </trkpt>
      <trkpt lat="43.380650" lon="11.171250">
        <ele>260.5</ele>
      </trkpt>
      <trkpt lat="43.380480" lon="11.171360">
        <ele>261.2</ele>
      </trkpt>
      <trkpt lat="43.380400" lon="11.171510">
        <ele>261.8</ele>
      </trkpt>
      <trkpt lat="43.380190" lon="11.172080">
        <ele>263.9</ele>
      </trkpt>
      <trkpt lat="43.380100" lon="11.172350">
        <ele>265.3</ele>
      </trkpt>
      <trkpt lat="43.380040" lon="11.172500">
        <ele>267.2</ele>
      </trkpt>
      <trkpt lat="43.379990" lon="11.172600">
        <ele>267.4</ele>
      </trkpt>
      <trkpt lat="43.379710" lon="11.172860">
        <ele>266.4</ele>
      </trkpt>
      <trkpt lat="43.379620" lon="11.172880">
        <ele>266.4</ele>
      </trkpt>
      <trkpt lat="43.379430" lon="11.172730">
        <ele>267.1</ele>
      </trkpt>
      <trkpt lat="43.379320" lon="11.172730">
        <ele>267.3</ele>
      </trkpt>
      <trkpt lat="43.379320" lon="11.172730">
        <ele>267.3</ele>
      </trkpt>
      <trkpt lat="43.378903" lon="11.173273">
        <ele>264.8</ele>
      </trkpt>
      <trkpt lat="43.378899" lon="11.173558">
        <ele>261.8</ele>
      </trkpt>
      <trkpt lat="43.378957" lon="11.173844">
        <ele>261</ele>
      </trkpt>
      <trkpt lat="43.378961" lon="11.174062">
        <ele>260.2</ele>
      </trkpt>
      <trkpt lat="43.378996" lon="11.174389">
        <ele>257.7</ele>
      </trkpt>
      <trkpt lat="43.378931" lon="11.174866">
        <ele>255.9</ele>
      </trkpt>
      <trkpt lat="43.378846" lon="11.175390">
        <ele>253.5</ele>
      </trkpt>
      <trkpt lat="43.378804" lon="11.175814">
        <ele>252.9</ele>
      </trkpt>
      <trkpt lat="43.378831" lon="11.176037">
        <ele>254.4</ele>
      </trkpt>
      <trkpt lat="43.378893" lon="11.176243">
        <ele>255.1</ele>
      </trkpt>
      <trkpt lat="43.378993" lon="11.176413">
        <ele>255.7</ele>
      </trkpt>
      <trkpt lat="43.379493" lon="11.176937">
        <ele>254.9</ele>
      </trkpt>
      <trkpt lat="43.380150" lon="11.177730">
        <ele>250.6</ele>
      </trkpt>
      <trkpt lat="43.380440" lon="11.178100">
        <ele>249.9</ele>
      </trkpt>
      <trkpt lat="43.381080" lon="11.178790">
        <ele>247.4</ele>
      </trkpt>
      <trkpt lat="43.381610" lon="11.179300">
        <ele>246.9</ele>
      </trkpt>
      <trkpt lat="43.382040" lon="11.179710">
        <ele>243.1</ele>
      </trkpt>
      <trkpt lat="43.382570" lon="11.180550">
        <ele>240.1</ele>
      </trkpt>
      <trkpt lat="43.382930" lon="11.181170">
        <ele>239.4</ele>
      </trkpt>
      <trkpt lat="43.383090" lon="11.181550">
        <ele>238.5</ele>
      </trkpt>
      <trkpt lat="43.383180" lon="11.181960">
        <ele>239.1</ele>
      </trkpt>
      <trkpt lat="43.383190" lon="11.182130">
        <ele>239.3</ele>
      </trkpt>
      <trkpt lat="43.383230" lon="11.182500">
        <ele>238.8</ele>
      </trkpt>
      <trkpt lat="43.383320" lon="11.182960">
        <ele>239.7</ele>
      </trkpt>
      <trkpt lat="43.383440" lon="11.183270">
        <ele>236.4</ele>
      </trkpt>
      <trkpt lat="43.383820" lon="11.184020">
        <ele>235.5</ele>
      </trkpt>
      <trkpt lat="43.384360" lon="11.185010">
        <ele>233.5</ele>
      </trkpt>
      <trkpt lat="43.384630" lon="11.185480">
        <ele>233.5</ele>
      </trkpt>
      <trkpt lat="43.385120" lon="11.186270">
        <ele>232.6</ele>
      </trkpt>
      <trkpt lat="43.385190" lon="11.186380">
        <ele>232.6</ele>
      </trkpt>
      <trkpt lat="43.385230" lon="11.186450">
        <ele>232.5</ele>
      </trkpt>
      <trkpt lat="43.385330" lon="11.186770">
        <ele>231.8</ele>
      </trkpt>
      <trkpt lat="43.385550" lon="11.188010">
        <ele>230.1</ele>
      </trkpt>
      <trkpt lat="43.385590" lon="11.188340">
        <ele>230</ele>
      </trkpt>
      <trkpt lat="43.385640" lon="11.188820">
        <ele>230.6</ele>
      </trkpt>
      <trkpt lat="43.385640" lon="11.189540">
        <ele>230.3</ele>
      </trkpt>
      <trkpt lat="43.385700" lon="11.189980">
        <ele>228.6</ele>
      </trkpt>
      <trkpt lat="43.385850" lon="11.190380">
        <ele>224.2</ele>
      </trkpt>
      <trkpt lat="43.386490" lon="11.191830">
        <ele>217.5</ele>
      </trkpt>
      <trkpt lat="43.386580" lon="11.192050">
        <ele>217.4</ele>
      </trkpt>
      <trkpt lat="43.386740" lon="11.192410">
        <ele>212.4</ele>
      </trkpt>
      <trkpt lat="43.386910" lon="11.192780">
        <ele>209.6</ele>
      </trkpt>
      <trkpt lat="43.387250" lon="11.193560">
        <ele>207</ele>
      </trkpt>
      <trkpt lat="43.387340" lon="11.193760">
        <ele>206.9</ele>
      </trkpt>
      <trkpt lat="43.387580" lon="11.194200">
        <ele>205.1</ele>
      </trkpt>
      <trkpt lat="43.387870" lon="11.194560">
        <ele>203.1</ele>
      </trkpt>
      <trkpt lat="43.387970" lon="11.194690">
        <ele>202.8</ele>
      </trkpt>
      <trkpt lat="43.388220" lon="11.195010">
        <ele>200.7</ele>
      </trkpt>
      <trkpt lat="43.388460" lon="11.195330">
        <ele>199.8</ele>
      </trkpt>
      <trkpt lat="43.388690" lon="11.195630">
        <ele>199.3</ele>
      </trkpt>
      <trkpt lat="43.389070" lon="11.196320">
        <ele>198.6</ele>
      </trkpt>
      <trkpt lat="43.389190" lon="11.196660">
        <ele>199.2</ele>
      </trkpt>
      <trkpt lat="43.389130" lon="11.196780">
        <ele>198.5</ele>
      </trkpt>
      <trkpt lat="43.389020" lon="11.196980">
        <ele>198.1</ele>
      </trkpt>
      <trkpt lat="43.389040" lon="11.197150">
        <ele>197.9</ele>
      </trkpt>
      <trkpt lat="43.389010" lon="11.197330">
        <ele>197.9</ele>
      </trkpt>
      <trkpt lat="43.388990" lon="11.197500">
        <ele>197.9</ele>
      </trkpt>
      <trkpt lat="43.388970" lon="11.197610">
        <ele>198.4</ele>
      </trkpt>
      <trkpt lat="43.388890" lon="11.197830">
        <ele>198.7</ele>
      </trkpt>
      <trkpt lat="43.388820" lon="11.198060">
        <ele>199</ele>
      </trkpt>
      <trkpt lat="43.388680" lon="11.198260">
        <ele>199.2</ele>
      </trkpt>
      <trkpt lat="43.388570" lon="11.198440">
        <ele>200.5</ele>
      </trkpt>
      <trkpt lat="43.388360" lon="11.198600">
        <ele>200.6</ele>
      </trkpt>
      <trkpt lat="43.388250" lon="11.198630">
        <ele>200.6</ele>
      </trkpt>
      <trkpt lat="43.388140" lon="11.198670">
        <ele>200.7</ele>
      </trkpt>
      <trkpt lat="43.388050" lon="11.198670">
        <ele>200.7</ele>
      </trkpt>
      <trkpt lat="43.387910" lon="11.198910">
        <ele>200.9</ele>
      </trkpt>
      <trkpt lat="43.387840" lon="11.199020">
        <ele>200.9</ele>
      </trkpt>
      <trkpt lat="43.387780" lon="11.199100">
        <ele>200.9</ele>
      </trkpt>
      <trkpt lat="43.387750" lon="11.199130">
        <ele>200.9</ele>
      </trkpt>
      <trkpt lat="43.387650" lon="11.199320">
        <ele>200.7</ele>
      </trkpt>
      <trkpt lat="43.387590" lon="11.199430">
        <ele>200.6</ele>
      </trkpt>
      <trkpt lat="43.387510" lon="11.199560">
        <ele>200.4</ele>
      </trkpt>
      <trkpt lat="43.387440" lon="11.199670">
        <ele>199.5</ele>
      </trkpt>
      <trkpt lat="43.387400" lon="11.199800">
        <ele>199.3</ele>
      </trkpt>
      <trkpt lat="43.387340" lon="11.199910">
        <ele>199.2</ele>
      </trkpt>
      <trkpt lat="43.387270" lon="11.200040">
        <ele>198.6</ele>
      </trkpt>
      <trkpt lat="43.387210" lon="11.200160">
        <ele>198.4</ele>
      </trkpt>
      <trkpt lat="43.387140" lon="11.200270">
        <ele>198.3</ele>
      </trkpt>
      <trkpt lat="43.387080" lon="11.200400">
        <ele>198.3</ele>
      </trkpt>
      <trkpt lat="43.387020" lon="11.200530">
        <ele>198.1</ele>
      </trkpt>
      <trkpt lat="43.386950" lon="11.200660">
        <ele>198</ele>
      </trkpt>
      <trkpt lat="43.386890" lon="11.200760">
        <ele>197.8</ele>
      </trkpt>
      <trkpt lat="43.386820" lon="11.200890">
        <ele>197.2</ele>
      </trkpt>
      <trkpt lat="43.386760" lon="11.201020">
        <ele>197.1</ele>
      </trkpt>
      <trkpt lat="43.386670" lon="11.201150">
        <ele>197</ele>
      </trkpt>
      <trkpt lat="43.386610" lon="11.201280">
        <ele>196.2</ele>
      </trkpt>
      <trkpt lat="43.386540" lon="11.201410">
        <ele>196</ele>
      </trkpt>
      <trkpt lat="43.386480" lon="11.201540">
        <ele>196</ele>
      </trkpt>
      <trkpt lat="43.386390" lon="11.201670">
        <ele>195.3</ele>
      </trkpt>
      <trkpt lat="43.386330" lon="11.201790">
        <ele>195.2</ele>
      </trkpt>
      <trkpt lat="43.386260" lon="11.201940">
        <ele>195.1</ele>
      </trkpt>
      <trkpt lat="43.386200" lon="11.202070">
        <ele>195</ele>
      </trkpt>
      <trkpt lat="43.386140" lon="11.202190">
        <ele>195</ele>
      </trkpt>
      <trkpt lat="43.386060" lon="11.202330">
        <ele>194.9</ele>
      </trkpt>
      <trkpt lat="43.386000" lon="11.202460">
        <ele>194.9</ele>
      </trkpt>
      <trkpt lat="43.385930" lon="11.202590">
        <ele>194.8</ele>
      </trkpt>
      <trkpt lat="43.385870" lon="11.202720">
        <ele>194.7</ele>
      </trkpt>
      <trkpt lat="43.385800" lon="11.202850">
        <ele>195.3</ele>
      </trkpt>
      <trkpt lat="43.385740" lon="11.202970">
        <ele>195.3</ele>
      </trkpt>
      <trkpt lat="43.385670" lon="11.203080">
        <ele>195.3</ele>
      </trkpt>
      <trkpt lat="43.385610" lon="11.203210">
        <ele>195.3</ele>
      </trkpt>
      <trkpt lat="43.385540" lon="11.203340">
        <ele>194.6</ele>
      </trkpt>
      <trkpt lat="43.385460" lon="11.203470">
        <ele>194.5</ele>
      </trkpt>
      <trkpt lat="43.385390" lon="11.203600">
        <ele>194.4</ele>
      </trkpt>
      <trkpt lat="43.385330" lon="11.203730">
        <ele>194.3</ele>
      </trkpt>
      <trkpt lat="43.385270" lon="11.203850">
        <ele>194.2</ele>
      </trkpt>
      <trkpt lat="43.385200" lon="11.203980">
        <ele>194.1</ele>
      </trkpt>
      <trkpt lat="43.385140" lon="11.204110">
        <ele>194.1</ele>
      </trkpt>
      <trkpt lat="43.385050" lon="11.204240">
        <ele>193.7</ele>
      </trkpt>
      <trkpt lat="43.384990" lon="11.204370">
        <ele>195</ele>
      </trkpt>
      <trkpt lat="43.384920" lon="11.204520">
        <ele>195.2</ele>
      </trkpt>
      <trkpt lat="43.384860" lon="11.204650">
        <ele>195.2</ele>
      </trkpt>
      <trkpt lat="43.384790" lon="11.204780">
        <ele>195</ele>
      </trkpt>
      <trkpt lat="43.384690" lon="11.204940">
        <ele>195.1</ele>
      </trkpt>
      <trkpt lat="43.384620" lon="11.205050">
        <ele>194.3</ele>
      </trkpt>
      <trkpt lat="43.384560" lon="11.205170">
        <ele>194.4</ele>
      </trkpt>
      <trkpt lat="43.384470" lon="11.205340">
        <ele>194.4</ele>
      </trkpt>
      <trkpt lat="43.384410" lon="11.205450">
        <ele>194.4</ele>
      </trkpt>
      <trkpt lat="43.384340" lon="11.205580">
        <ele>194.3</ele>
      </trkpt>
      <trkpt lat="43.384280" lon="11.205710">
        <ele>194.2</ele>
      </trkpt>
      <trkpt lat="43.384230" lon="11.205830">
        <ele>194.1</ele>
      </trkpt>
      <trkpt lat="43.384190" lon="11.206000">
        <ele>193.6</ele>
      </trkpt>
      <trkpt lat="43.384150" lon="11.206180">
        <ele>195.7</ele>
      </trkpt>
      <trkpt lat="43.384130" lon="11.206360">
        <ele>195.5</ele>
      </trkpt>
      <trkpt lat="43.384110" lon="11.206530">
        <ele>194.7</ele>
      </trkpt>
      <trkpt lat="43.384090" lon="11.206680">
        <ele>193.8</ele>
      </trkpt>
      <trkpt lat="43.384060" lon="11.206870">
        <ele>194.6</ele>
      </trkpt>
      <trkpt lat="43.384050" lon="11.207030">
        <ele>194.9</ele>
      </trkpt>
      <trkpt lat="43.384040" lon="11.207190">
        <ele>194.8</ele>
      </trkpt>
      <trkpt lat="43.384000" lon="11.207360">
        <ele>194.6</ele>
      </trkpt>
      <trkpt lat="43.383980" lon="11.207560">
        <ele>194.1</ele>
      </trkpt>
      <trkpt lat="43.383960" lon="11.207730">
        <ele>194.3</ele>
      </trkpt>
      <trkpt lat="43.383940" lon="11.207900">
        <ele>194.3</ele>
      </trkpt>
      <trkpt lat="43.383920" lon="11.208070">
        <ele>194.1</ele>
      </trkpt>
      <trkpt lat="43.383920" lon="11.208240">
        <ele>193.8</ele>
      </trkpt>
      <trkpt lat="43.383890" lon="11.208420">
        <ele>193.2</ele>
      </trkpt>
      <trkpt lat="43.383870" lon="11.208590">
        <ele>193.3</ele>
      </trkpt>
      <trkpt lat="43.383850" lon="11.208760">
        <ele>193.3</ele>
      </trkpt>
      <trkpt lat="43.383830" lon="11.208930">
        <ele>193.3</ele>
      </trkpt>
      <trkpt lat="43.383810" lon="11.209080">
        <ele>193.2</ele>
      </trkpt>
      <trkpt lat="43.383790" lon="11.209250">
        <ele>193.1</ele>
      </trkpt>
      <trkpt lat="43.383770" lon="11.209400">
        <ele>193.2</ele>
      </trkpt>
      <trkpt lat="43.383740" lon="11.209550">
        <ele>193.2</ele>
      </trkpt>
      <trkpt lat="43.383720" lon="11.209700">
        <ele>193.3</ele>
      </trkpt>
      <trkpt lat="43.383700" lon="11.209870">
        <ele>193.4</ele>
      </trkpt>
      <trkpt lat="43.383680" lon="11.210020">
        <ele>193.7</ele>
      </trkpt>
      <trkpt lat="43.383660" lon="11.210170">
        <ele>193.8</ele>
      </trkpt>
      <trkpt lat="43.383660" lon="11.210320">
        <ele>193.8</ele>
      </trkpt>
      <trkpt lat="43.383640" lon="11.210470">
        <ele>193.9</ele>
      </trkpt>
      <trkpt lat="43.383620" lon="11.210650">
        <ele>194</ele>
      </trkpt>
      <trkpt lat="43.383590" lon="11.210800">
        <ele>194.1</ele>
      </trkpt>
      <trkpt lat="43.383570" lon="11.210970">
        <ele>194.3</ele>
      </trkpt>
      <trkpt lat="43.383550" lon="11.211140">
        <ele>194.2</ele>
      </trkpt>
      <trkpt lat="43.383530" lon="11.211310">
        <ele>194.3</ele>
      </trkpt>
      <trkpt lat="43.383510" lon="11.211480">
        <ele>194.4</ele>
      </trkpt>
      <trkpt lat="43.383490" lon="11.211660">
        <ele>194.5</ele>
      </trkpt>
      <trkpt lat="43.383490" lon="11.211830">
        <ele>195.7</ele>
      </trkpt>
      <trkpt lat="43.383460" lon="11.212000">
        <ele>196.1</ele>
      </trkpt>
      <trkpt lat="43.383440" lon="11.212170">
        <ele>196.6</ele>
      </trkpt>
      <trkpt lat="43.383420" lon="11.212340">
        <ele>197.1</ele>
      </trkpt>
      <trkpt lat="43.383420" lon="11.212510">
        <ele>199.7</ele>
      </trkpt>
      <trkpt lat="43.383440" lon="11.212660">
        <ele>201.3</ele>
      </trkpt>
      <trkpt lat="43.383430" lon="11.212790">
        <ele>202.6</ele>
      </trkpt>
      <trkpt lat="43.383800" lon="11.212890">
        <ele>203.9</ele>
      </trkpt>
      <trkpt lat="43.384030" lon="11.212710">
        <ele>202.3</ele>
      </trkpt>
      <trkpt lat="43.384210" lon="11.212560">
        <ele>201.3</ele>
      </trkpt>
      <trkpt lat="43.384750" lon="11.212260">
        <ele>200.2</ele>
      </trkpt>
      <trkpt lat="43.385180" lon="11.212060">
        <ele>201.7</ele>
      </trkpt>
      <trkpt lat="43.386080" lon="11.211830">
        <ele>202.4</ele>
      </trkpt>
      <trkpt lat="43.386620" lon="11.211460">
        <ele>197.6</ele>
      </trkpt>
      <trkpt lat="43.387430" lon="11.211610">
        <ele>198.2</ele>
      </trkpt>
      <trkpt lat="43.387860" lon="11.211890">
        <ele>199.2</ele>
      </trkpt>
      <trkpt lat="43.388640" lon="11.212620">
        <ele>199.4</ele>
      </trkpt>
      <trkpt lat="43.388980" lon="11.213090">
        <ele>199.3</ele>
      </trkpt>
      <trkpt lat="43.389090" lon="11.213410">
        <ele>200.9</ele>
      </trkpt>
      <trkpt lat="43.389170" lon="11.214230">
        <ele>200.9</ele>
      </trkpt>
      <trkpt lat="43.389300" lon="11.214510">
        <ele>201.2</ele>
      </trkpt>
      <trkpt lat="43.389560" lon="11.214830">
        <ele>201.2</ele>
      </trkpt>
      <trkpt lat="43.390110" lon="11.215730">
        <ele>202.7</ele>
      </trkpt>
      <trkpt lat="43.390510" lon="11.215970">
        <ele>204.4</ele>
      </trkpt>
      <trkpt lat="43.390780" lon="11.216180">
        <ele>204.1</ele>
      </trkpt>
      <trkpt lat="43.391060" lon="11.216650">
        <ele>200.6</ele>
      </trkpt>
      <trkpt lat="43.391920" lon="11.217410">
        <ele>201.1</ele>
      </trkpt>
      <trkpt lat="43.392200" lon="11.217760">
        <ele>205.5</ele>
      </trkpt>
      <trkpt lat="43.392660" lon="11.218450">
        <ele>205.4</ele>
      </trkpt>
      <trkpt lat="43.392660" lon="11.218850">
        <ele>205.8</ele>
      </trkpt>
      <trkpt lat="43.392680" lon="11.219040">
        <ele>206.2</ele>
      </trkpt>
      <trkpt lat="43.392590" lon="11.219120">
        <ele>207</ele>
      </trkpt>
      <trkpt lat="43.392480" lon="11.219200">
        <ele>208.7</ele>
      </trkpt>
      <trkpt lat="43.392320" lon="11.219270">
        <ele>210.7</ele>
      </trkpt>
      <trkpt lat="43.391830" lon="11.219400">
        <ele>213.1</ele>
      </trkpt>
      <trkpt lat="43.391270" lon="11.219790">
        <ele>213.9</ele>
      </trkpt>
      <trkpt lat="43.391100" lon="11.219890">
        <ele>213.9</ele>
      </trkpt>
      <trkpt lat="43.391070" lon="11.219890">
        <ele>213.9</ele>
      </trkpt>
      <trkpt lat="43.390380" lon="11.219920">
        <ele>216</ele>
      </trkpt>
      <trkpt lat="43.390210" lon="11.219940">
        <ele>216.6</ele>
      </trkpt>
      <trkpt lat="43.390010" lon="11.220060">
        <ele>219.1</ele>
      </trkpt>
      <trkpt lat="43.389620" lon="11.220330">
        <ele>222.9</ele>
      </trkpt>
      <trkpt lat="43.389180" lon="11.220720">
        <ele>225.1</ele>
      </trkpt>
      <trkpt lat="43.388230" lon="11.221710">
        <ele>227.7</ele>
      </trkpt>
      <trkpt lat="43.387420" lon="11.222660">
        <ele>229.3</ele>
      </trkpt>
      <trkpt lat="43.386310" lon="11.224200">
        <ele>234.2</ele>
      </trkpt>
      <trkpt lat="43.385980" lon="11.224710">
        <ele>235.6</ele>
      </trkpt>
      <trkpt lat="43.385760" lon="11.225300">
        <ele>239.5</ele>
      </trkpt>
      <trkpt lat="43.385710" lon="11.225960">
        <ele>242.2</ele>
      </trkpt>
      <trkpt lat="43.385630" lon="11.226360">
        <ele>242.6</ele>
      </trkpt>
      <trkpt lat="43.385500" lon="11.227100">
        <ele>242.5</ele>
      </trkpt>
      <trkpt lat="43.385220" lon="11.228770">
        <ele>240.2</ele>
      </trkpt>
      <trkpt lat="43.384960" lon="11.231220">
        <ele>233.3</ele>
      </trkpt>
      <trkpt lat="43.385050" lon="11.232110">
        <ele>229.6</ele>
      </trkpt>
      <trkpt lat="43.385080" lon="11.232510">
        <ele>227</ele>
      </trkpt>
      <trkpt lat="43.385190" lon="11.233050">
        <ele>224.4</ele>
      </trkpt>
      <trkpt lat="43.385690" lon="11.234590">
        <ele>221.2</ele>
      </trkpt>
      <trkpt lat="43.385850" lon="11.235130">
        <ele>221.9</ele>
      </trkpt>
      <trkpt lat="43.386210" lon="11.236270">
        <ele>227.1</ele>
      </trkpt>
      <trkpt lat="43.386230" lon="11.236440">
        <ele>227.7</ele>
      </trkpt>
      <trkpt lat="43.386240" lon="11.236580">
        <ele>228.2</ele>
      </trkpt>
      <trkpt lat="43.386160" lon="11.236880">
        <ele>233.2</ele>
      </trkpt>
      <trkpt lat="43.384710" lon="11.238230">
        <ele>241.1</ele>
      </trkpt>
      <trkpt lat="43.384120" lon="11.238740">
        <ele>242</ele>
      </trkpt>
      <trkpt lat="43.383190" lon="11.239550">
        <ele>243.2</ele>
      </trkpt>
      <trkpt lat="43.382910" lon="11.239950">
        <ele>244</ele>
      </trkpt>
      <trkpt lat="43.382470" lon="11.241240">
        <ele>239.9</ele>
      </trkpt>
      <trkpt lat="43.382320" lon="11.241720">
        <ele>235.8</ele>
      </trkpt>
      <trkpt lat="43.382230" lon="11.241600">
        <ele>238.6</ele>
      </trkpt>
      <trkpt lat="43.382150" lon="11.241520">
        <ele>238.8</ele>
      </trkpt>
      <trkpt lat="43.382000" lon="11.241100">
        <ele>240.3</ele>
      </trkpt>
      <trkpt lat="43.381900" lon="11.240810">
        <ele>243.7</ele>
      </trkpt>
      <trkpt lat="43.381810" lon="11.240590">
        <ele>244</ele>
      </trkpt>
      <trkpt lat="43.381640" lon="11.240390">
        <ele>244.6</ele>
      </trkpt>
      <trkpt lat="43.381050" lon="11.239920">
        <ele>247.4</ele>
      </trkpt>
      <trkpt lat="43.380760" lon="11.239720">
        <ele>246.6</ele>
      </trkpt>
      <trkpt lat="43.380400" lon="11.239610">
        <ele>246.1</ele>
      </trkpt>
      <trkpt lat="43.379990" lon="11.239250">
        <ele>246.7</ele>
      </trkpt>
      <trkpt lat="43.379320" lon="11.238970">
        <ele>250</ele>
      </trkpt>
      <trkpt lat="43.378870" lon="11.238630">
        <ele>250.6</ele>
      </trkpt>
      <trkpt lat="43.378700" lon="11.238370">
        <ele>250.6</ele>
      </trkpt>
      <trkpt lat="43.378390" lon="11.237690">
        <ele>255.4</ele>
      </trkpt>
      <trkpt lat="43.378250" lon="11.237250">
        <ele>257.2</ele>
      </trkpt>
      <trkpt lat="43.377550" lon="11.235970">
        <ele>263.6</ele>
      </trkpt>
      <trkpt lat="43.377450" lon="11.235930">
        <ele>265.5</ele>
      </trkpt>
      <trkpt lat="43.377360" lon="11.235930">
        <ele>265.7</ele>
      </trkpt>
      <trkpt lat="43.377240" lon="11.235980">
        <ele>266.1</ele>
      </trkpt>
      <trkpt lat="43.376780" lon="11.236370">
        <ele>267</ele>
      </trkpt>
      <trkpt lat="43.376680" lon="11.236400">
        <ele>267.1</ele>
      </trkpt>
      <trkpt lat="43.376610" lon="11.236300">
        <ele>268.8</ele>
      </trkpt>
      <trkpt lat="43.376580" lon="11.236160">
        <ele>268.7</ele>
      </trkpt>
      <trkpt lat="43.376460" lon="11.235410">
        <ele>272.1</ele>
      </trkpt>
      <trkpt lat="43.376400" lon="11.235220">
        <ele>272.9</ele>
      </trkpt>
      <trkpt lat="43.375950" lon="11.234790">
        <ele>276.6</ele>
      </trkpt>
      <trkpt lat="43.375700" lon="11.234580">
        <ele>279.2</ele>
      </trkpt>
      <trkpt lat="43.375480" lon="11.234590">
        <ele>279.8</ele>
      </trkpt>
      <trkpt lat="43.375160" lon="11.234740">
        <ele>280.7</ele>
      </trkpt>
      <trkpt lat="43.374950" lon="11.235000">
        <ele>282.5</ele>
      </trkpt>
      <trkpt lat="43.374690" lon="11.235190">
        <ele>283</ele>
      </trkpt>
      <trkpt lat="43.374370" lon="11.235130">
        <ele>284.6</ele>
      </trkpt>
      <trkpt lat="43.374110" lon="11.235010">
        <ele>287.8</ele>
      </trkpt>
      <trkpt lat="43.373810" lon="11.235240">
        <ele>290.4</ele>
      </trkpt>
      <trkpt lat="43.373530" lon="11.235480">
        <ele>291.9</ele>
      </trkpt>
      <trkpt lat="43.373210" lon="11.235750">
        <ele>298</ele>
      </trkpt>
      <trkpt lat="43.373090" lon="11.235860">
        <ele>300.7</ele>
      </trkpt>
      <trkpt lat="43.372920" lon="11.236060">
        <ele>302.9</ele>
      </trkpt>
      <trkpt lat="43.372740" lon="11.236210">
        <ele>304.3</ele>
      </trkpt>
      <trkpt lat="43.372650" lon="11.236350">
        <ele>305.1</ele>
      </trkpt>
      <trkpt lat="43.372450" lon="11.236570">
        <ele>312.3</ele>
      </trkpt>
      <trkpt lat="43.372280" lon="11.236930">
        <ele>317.3</ele>
      </trkpt>
      <trkpt lat="43.372030" lon="11.237570">
        <ele>320.3</ele>
      </trkpt>
      <trkpt lat="43.371790" lon="11.238130">
        <ele>321.3</ele>
      </trkpt>
      <trkpt lat="43.371520" lon="11.238690">
        <ele>327.6</ele>
      </trkpt>
      <trkpt lat="43.371240" lon="11.239250">
        <ele>326.3</ele>
      </trkpt>
      <trkpt lat="43.371080" lon="11.239630">
        <ele>326.8</ele>
      </trkpt>
      <trkpt lat="43.370960" lon="11.240290">
        <ele>324.5</ele>
      </trkpt>
      <trkpt lat="43.370830" lon="11.240810">
        <ele>326.7</ele>
      </trkpt>
      <trkpt lat="43.370550" lon="11.241520">
        <ele>328.5</ele>
      </trkpt>
      <trkpt lat="43.370260" lon="11.241920">
        <ele>329.1</ele>
      </trkpt>
      <trkpt lat="43.370020" lon="11.242260">
        <ele>329.4</ele>
      </trkpt>
      <trkpt lat="43.369860" lon="11.242530">
        <ele>330</ele>
      </trkpt>
      <trkpt lat="43.369750" lon="11.242730">
        <ele>330</ele>
      </trkpt>
      <trkpt lat="43.369470" lon="11.243430">
        <ele>329.5</ele>
      </trkpt>
      <trkpt lat="43.369300" lon="11.243910">
        <ele>329.5</ele>
      </trkpt>
      <trkpt lat="43.369110" lon="11.244310">
        <ele>329.3</ele>
      </trkpt>
      <trkpt lat="43.368700" lon="11.244870">
        <ele>330.8</ele>
      </trkpt>
      <trkpt lat="43.368380" lon="11.245410">
        <ele>332.3</ele>
      </trkpt>
      <trkpt lat="43.368290" lon="11.245520">
        <ele>329</ele>
      </trkpt>
      <trkpt lat="43.368170" lon="11.245750">
        <ele>329.3</ele>
      </trkpt>
      <trkpt lat="43.367850" lon="11.245920">
        <ele>329.4</ele>
      </trkpt>
      <trkpt lat="43.367480" lon="11.246240">
        <ele>323.5</ele>
      </trkpt>
      <trkpt lat="43.366880" lon="11.246590">
        <ele>319.4</ele>
      </trkpt>
      <trkpt lat="43.366660" lon="11.246850">
        <ele>313.7</ele>
      </trkpt>
      <trkpt lat="43.366580" lon="11.247000">
        <ele>313.3</ele>
      </trkpt>
      <trkpt lat="43.366510" lon="11.247150">
        <ele>313.4</ele>
      </trkpt>
      <trkpt lat="43.366450" lon="11.247490">
        <ele>314.7</ele>
      </trkpt>
      <trkpt lat="43.366410" lon="11.247660">
        <ele>314.5</ele>
      </trkpt>
      <trkpt lat="43.366280" lon="11.248040">
        <ele>313.2</ele>
      </trkpt>
      <trkpt lat="43.366110" lon="11.248560">
        <ele>312.7</ele>
      </trkpt>
      <trkpt lat="43.365800" lon="11.249430">
        <ele>304</ele>
      </trkpt>
      <trkpt lat="43.365700" lon="11.249780">
        <ele>304.3</ele>
      </trkpt>
      <trkpt lat="43.365660" lon="11.249930">
        <ele>304.9</ele>
      </trkpt>
      <trkpt lat="43.365630" lon="11.250110">
        <ele>304.4</ele>
      </trkpt>
      <trkpt lat="43.365610" lon="11.250180">
        <ele>303.9</ele>
      </trkpt>
      <trkpt lat="43.365580" lon="11.250340">
        <ele>303.1</ele>
      </trkpt>
      <trkpt lat="43.365520" lon="11.250530">
        <ele>302.6</ele>
      </trkpt>
      <trkpt lat="43.365490" lon="11.250650">
        <ele>302.4</ele>
      </trkpt>
      <trkpt lat="43.365460" lon="11.250760">
        <ele>302.2</ele>
      </trkpt>
      <trkpt lat="43.365420" lon="11.250900">
        <ele>300.9</ele>
      </trkpt>
      <trkpt lat="43.365310" lon="11.251240">
        <ele>299.8</ele>
      </trkpt>
      <trkpt lat="43.365290" lon="11.251460">
        <ele>299.2</ele>
      </trkpt>
      <trkpt lat="43.365280" lon="11.251640">
        <ele>298.7</ele>
      </trkpt>
      <trkpt lat="43.365250" lon="11.251870">
        <ele>296.5</ele>
      </trkpt>
      <trkpt lat="43.365240" lon="11.252100">
        <ele>296.1</ele>
      </trkpt>
      <trkpt lat="43.365230" lon="11.252330">
        <ele>295.3</ele>
      </trkpt>
      <trkpt lat="43.365220" lon="11.252790">
        <ele>291.9</ele>
      </trkpt>
      <trkpt lat="43.365210" lon="11.253100">
        <ele>290.9</ele>
      </trkpt>
      <trkpt lat="43.365190" lon="11.253590">
        <ele>289.9</ele>
      </trkpt>
      <trkpt lat="43.365190" lon="11.253960">
        <ele>290.2</ele>
      </trkpt>
      <trkpt lat="43.365170" lon="11.254420">
        <ele>293.9</ele>
      </trkpt>
      <trkpt lat="43.364140" lon="11.255400">
        <ele>284.9</ele>
      </trkpt>
      <trkpt lat="43.363960" lon="11.255490">
        <ele>284.7</ele>
      </trkpt>
      <trkpt lat="43.363800" lon="11.255510">
        <ele>283.9</ele>
      </trkpt>
      <trkpt lat="43.363570" lon="11.255460">
        <ele>282.7</ele>
      </trkpt>
      <trkpt lat="43.362870" lon="11.255290">
        <ele>278</ele>
      </trkpt>
      <trkpt lat="43.362700" lon="11.255320">
        <ele>277.7</ele>
      </trkpt>
      <trkpt lat="43.362500" lon="11.255490">
        <ele>275.5</ele>
      </trkpt>
      <trkpt lat="43.362300" lon="11.255810">
        <ele>275.4</ele>
      </trkpt>
      <trkpt lat="43.362220" lon="11.255940">
        <ele>274.4</ele>
      </trkpt>
      <trkpt lat="43.362150" lon="11.256090">
        <ele>274</ele>
      </trkpt>
      <trkpt lat="43.361680" lon="11.257270">
        <ele>273.6</ele>
      </trkpt>
      <trkpt lat="43.361590" lon="11.257440">
        <ele>272.8</ele>
      </trkpt>
      <trkpt lat="43.360520" lon="11.258840">
        <ele>276.4</ele>
      </trkpt>
      <trkpt lat="43.359770" lon="11.259080">
        <ele>273.8</ele>
      </trkpt>
      <trkpt lat="43.359270" lon="11.259360">
        <ele>273.2</ele>
      </trkpt>
      <trkpt lat="43.359070" lon="11.259540">
        <ele>270.9</ele>
      </trkpt>
      <trkpt lat="43.358710" lon="11.259930">
        <ele>270.9</ele>
      </trkpt>
      <trkpt lat="43.358460" lon="11.260150">
        <ele>272.3</ele>
      </trkpt>
      <trkpt lat="43.357770" lon="11.261200">
        <ele>271.8</ele>
      </trkpt>
      <trkpt lat="43.357190" lon="11.261820">
        <ele>273.3</ele>
      </trkpt>
      <trkpt lat="43.356700" lon="11.262300">
        <ele>275</ele>
      </trkpt>
      <trkpt lat="43.355790" lon="11.262420">
        <ele>271</ele>
      </trkpt>
      <trkpt lat="43.354570" lon="11.262850">
        <ele>275.5</ele>
      </trkpt>
      <trkpt lat="43.353720" lon="11.263490">
        <ele>279</ele>
      </trkpt>
      <trkpt lat="43.353470" lon="11.263770">
        <ele>279.7</ele>
      </trkpt>
      <trkpt lat="43.352910" lon="11.264790">
        <ele>277.4</ele>
      </trkpt>
      <trkpt lat="43.352740" lon="11.265250">
        <ele>278.9</ele>
      </trkpt>
      <trkpt lat="43.352400" lon="11.266640">
        <ele>275.3</ele>
      </trkpt>
      <trkpt lat="43.351950" lon="11.268140">
        <ele>276.2</ele>
      </trkpt>
      <trkpt lat="43.351910" lon="11.268370">
        <ele>278</ele>
      </trkpt>
      <trkpt lat="43.351900" lon="11.268600">
        <ele>278.3</ele>
      </trkpt>
      <trkpt lat="43.351950" lon="11.269080">
        <ele>279.1</ele>
      </trkpt>
      <trkpt lat="43.352040" lon="11.269750">
        <ele>281.7</ele>
      </trkpt>
      <trkpt lat="43.352030" lon="11.269870">
        <ele>282</ele>
      </trkpt>
      <trkpt lat="43.352000" lon="11.269980">
        <ele>282.2</ele>
      </trkpt>
      <trkpt lat="43.351940" lon="11.270060">
        <ele>284.5</ele>
      </trkpt>
      <trkpt lat="43.351850" lon="11.270130">
        <ele>284.7</ele>
      </trkpt>
      <trkpt lat="43.351600" lon="11.270190">
        <ele>286.3</ele>
      </trkpt>
      <trkpt lat="43.350420" lon="11.270330">
        <ele>291</ele>
      </trkpt>
      <trkpt lat="43.350170" lon="11.270330">
        <ele>291.5</ele>
      </trkpt>
      <trkpt lat="43.350020" lon="11.270320">
        <ele>291.7</ele>
      </trkpt>
      <trkpt lat="43.349690" lon="11.270150">
        <ele>293.8</ele>
      </trkpt>
      <trkpt lat="43.349510" lon="11.270020">
        <ele>294.1</ele>
      </trkpt>
      <trkpt lat="43.349370" lon="11.270060">
        <ele>294.3</ele>
      </trkpt>
      <trkpt lat="43.349280" lon="11.270150">
        <ele>294.4</ele>
      </trkpt>
      <trkpt lat="43.349190" lon="11.270310">
        <ele>294.9</ele>
      </trkpt>
      <trkpt lat="43.349190" lon="11.270560">
        <ele>295.8</ele>
      </trkpt>
      <trkpt lat="43.349200" lon="11.270870">
        <ele>298.3</ele>
      </trkpt>
      <trkpt lat="43.349190" lon="11.271150">
        <ele>299.4</ele>
      </trkpt>
      <trkpt lat="43.349140" lon="11.271380">
        <ele>299.2</ele>
      </trkpt>
      <trkpt lat="43.348840" lon="11.272180">
        <ele>305.4</ele>
      </trkpt>
      <trkpt lat="43.348780" lon="11.272500">
        <ele>310.5</ele>
      </trkpt>
      <trkpt lat="43.348740" lon="11.272690">
        <ele>310.6</ele>
      </trkpt>
      <trkpt lat="43.348660" lon="11.272830">
        <ele>310.7</ele>
      </trkpt>
      <trkpt lat="43.348490" lon="11.272980">
        <ele>310.7</ele>
      </trkpt>
      <trkpt lat="43.348360" lon="11.273070">
        <ele>310.8</ele>
      </trkpt>
      <trkpt lat="43.348180" lon="11.273150">
        <ele>309.1</ele>
      </trkpt>
      <trkpt lat="43.348090" lon="11.273270">
        <ele>309.2</ele>
      </trkpt>
      <trkpt lat="43.348070" lon="11.273470">
        <ele>311.5</ele>
      </trkpt>
      <trkpt lat="43.348100" lon="11.273670">
        <ele>311.8</ele>
      </trkpt>
      <trkpt lat="43.348280" lon="11.273970">
        <ele>312.7</ele>
      </trkpt>
      <trkpt lat="43.348800" lon="11.274740">
        <ele>317.2</ele>
      </trkpt>
      <trkpt lat="43.348880" lon="11.274970">
        <ele>318</ele>
      </trkpt>
      <trkpt lat="43.348900" lon="11.275170">
        <ele>319.5</ele>
      </trkpt>
      <trkpt lat="43.348900" lon="11.275270">
        <ele>319.6</ele>
      </trkpt>
      <trkpt lat="43.348860" lon="11.275480">
        <ele>319.7</ele>
      </trkpt>
      <trkpt lat="43.348820" lon="11.275570">
        <ele>319.7</ele>
      </trkpt>
      <trkpt lat="43.348780" lon="11.275640">
        <ele>319.7</ele>
      </trkpt>
      <trkpt lat="43.348780" lon="11.275710">
        <ele>319.8</ele>
      </trkpt>
      <trkpt lat="43.348790" lon="11.275770">
        <ele>319.9</ele>
      </trkpt>
      <trkpt lat="43.348800" lon="11.275860">
        <ele>321.3</ele>
      </trkpt>
      <trkpt lat="43.348780" lon="11.276030">
        <ele>321.4</ele>
      </trkpt>
      <trkpt lat="43.348630" lon="11.276370">
        <ele>321.4</ele>
      </trkpt>
      <trkpt lat="43.348050" lon="11.277440">
        <ele>323.8</ele>
      </trkpt>
      <trkpt lat="43.347400" lon="11.278470">
        <ele>331.4</ele>
      </trkpt>
      <trkpt lat="43.347290" lon="11.278660">
        <ele>332.3</ele>
      </trkpt>
      <trkpt lat="43.347210" lon="11.278780">
        <ele>332.8</ele>
      </trkpt>
      <trkpt lat="43.346860" lon="11.279290">
        <ele>337.3</ele>
      </trkpt>
      <trkpt lat="43.346420" lon="11.279690">
        <ele>340.6</ele>
      </trkpt>
      <trkpt lat="43.346240" lon="11.279810">
        <ele>341.2</ele>
      </trkpt>
      <trkpt lat="43.346020" lon="11.279880">
        <ele>342.2</ele>
      </trkpt>
      <trkpt lat="43.345690" lon="11.279900">
        <ele>342.6</ele>
      </trkpt>
      <trkpt lat="43.345540" lon="11.279940">
        <ele>341.8</ele>
      </trkpt>
      <trkpt lat="43.345380" lon="11.280070">
        <ele>343.7</ele>
      </trkpt>
      <trkpt lat="43.345150" lon="11.280300">
        <ele>343.3</ele>
      </trkpt>
      <trkpt lat="43.344960" lon="11.280480">
        <ele>340.3</ele>
      </trkpt>
      <trkpt lat="43.344860" lon="11.280550">
        <ele>340.2</ele>
      </trkpt>
      <trkpt lat="43.344810" lon="11.280590">
        <ele>340.1</ele>
      </trkpt>
      <trkpt lat="43.344660" lon="11.280730">
        <ele>339.8</ele>
      </trkpt>
      <trkpt lat="43.344080" lon="11.281100">
        <ele>337.4</ele>
      </trkpt>
      <trkpt lat="43.343840" lon="11.281330">
        <ele>337.3</ele>
      </trkpt>
      <trkpt lat="43.343630" lon="11.281970">
        <ele>337.8</ele>
      </trkpt>
      <trkpt lat="43.343590" lon="11.282240">
        <ele>337.8</ele>
      </trkpt>
      <trkpt lat="43.343620" lon="11.282520">
        <ele>337.9</ele>
      </trkpt>
      <trkpt lat="43.343710" lon="11.282940">
        <ele>337.8</ele>
      </trkpt>
      <trkpt lat="43.344020" lon="11.283990">
        <ele>338.4</ele>
      </trkpt>
      <trkpt lat="43.344080" lon="11.284260">
        <ele>338.8</ele>
      </trkpt>
      <trkpt lat="43.344130" lon="11.284520">
        <ele>338.3</ele>
      </trkpt>
      <trkpt lat="43.344130" lon="11.284870">
        <ele>339.4</ele>
      </trkpt>
      <trkpt lat="43.344110" lon="11.285050">
        <ele>340.6</ele>
      </trkpt>
      <trkpt lat="43.344070" lon="11.285290">
        <ele>340.3</ele>
      </trkpt>
      <trkpt lat="43.343990" lon="11.285550">
        <ele>340.7</ele>
      </trkpt>
      <trkpt lat="43.343940" lon="11.285650">
        <ele>340.9</ele>
      </trkpt>
      <trkpt lat="43.343900" lon="11.285730">
        <ele>340.9</ele>
      </trkpt>
      <trkpt lat="43.343880" lon="11.285820">
        <ele>341</ele>
      </trkpt>
      <trkpt lat="43.343880" lon="11.285900">
        <ele>343.2</ele>
      </trkpt>
      <trkpt lat="43.343910" lon="11.286020">
        <ele>343.4</ele>
      </trkpt>
      <trkpt lat="43.343970" lon="11.286120">
        <ele>343.7</ele>
      </trkpt>
      <trkpt lat="43.344010" lon="11.286320">
        <ele>344.5</ele>
      </trkpt>
      <trkpt lat="43.344020" lon="11.286630">
        <ele>346.4</ele>
      </trkpt>
      <trkpt lat="43.343930" lon="11.287170">
        <ele>349.2</ele>
      </trkpt>
      <trkpt lat="43.343900" lon="11.287540">
        <ele>351.6</ele>
      </trkpt>
      <trkpt lat="43.343921" lon="11.287940">
        <ele>350.5</ele>
      </trkpt>
      <trkpt lat="43.344010" lon="11.288460">
        <ele>351</ele>
      </trkpt>
      <trkpt lat="43.344300" lon="11.289510">
        <ele>359.8</ele>
      </trkpt>
      <trkpt lat="43.345200" lon="11.292580">
        <ele>370.9</ele>
      </trkpt>
      <trkpt lat="43.345240" lon="11.292740">
        <ele>370.7</ele>
      </trkpt>
      <trkpt lat="43.345370" lon="11.293310">
        <ele>371.3</ele>
      </trkpt>
      <trkpt lat="43.345400" lon="11.293440">
        <ele>370.8</ele>
      </trkpt>
      <trkpt lat="43.345480" lon="11.294040">
        <ele>369.6</ele>
      </trkpt>
      <trkpt lat="43.345500" lon="11.294260">
        <ele>366.7</ele>
      </trkpt>
      <trkpt lat="43.345490" lon="11.294760">
        <ele>365.3</ele>
      </trkpt>
      <trkpt lat="43.345090" lon="11.296770">
        <ele>368.1</ele>
      </trkpt>
      <trkpt lat="43.345030" lon="11.297100">
        <ele>368.6</ele>
      </trkpt>
      <trkpt lat="43.344950" lon="11.297580">
        <ele>365</ele>
      </trkpt>
      <trkpt lat="43.344800" lon="11.298030">
        <ele>360.8</ele>
      </trkpt>
      <trkpt lat="43.344700" lon="11.298180">
        <ele>360.3</ele>
      </trkpt>
      <trkpt lat="43.344610" lon="11.298250">
        <ele>360.3</ele>
      </trkpt>
      <trkpt lat="43.344570" lon="11.298290">
        <ele>360.3</ele>
      </trkpt>
      <trkpt lat="43.344540" lon="11.298360">
        <ele>358</ele>
      </trkpt>
      <trkpt lat="43.344530" lon="11.298420">
        <ele>357.9</ele>
      </trkpt>
      <trkpt lat="43.344540" lon="11.298510">
        <ele>357.8</ele>
      </trkpt>
      <trkpt lat="43.344570" lon="11.298670">
        <ele>357.4</ele>
      </trkpt>
      <trkpt lat="43.344570" lon="11.298910">
        <ele>356.9</ele>
      </trkpt>
      <trkpt lat="43.344550" lon="11.300110">
        <ele>353.6</ele>
      </trkpt>
      <trkpt lat="43.344490" lon="11.300620">
        <ele>353.4</ele>
      </trkpt>
      <trkpt lat="43.344400" lon="11.301130">
        <ele>354.5</ele>
      </trkpt>
      <trkpt lat="43.344270" lon="11.301770">
        <ele>355.4</ele>
      </trkpt>
      <trkpt lat="43.344010" lon="11.303100">
        <ele>350.6</ele>
      </trkpt>
      <trkpt lat="43.343690" lon="11.304950">
        <ele>340.5</ele>
      </trkpt>
      <trkpt lat="43.343660" lon="11.305110">
        <ele>339.7</ele>
      </trkpt>
      <trkpt lat="43.343610" lon="11.305280">
        <ele>339.7</ele>
      </trkpt>
      <trkpt lat="43.343550" lon="11.305430">
        <ele>339.8</ele>
      </trkpt>
      <trkpt lat="43.343470" lon="11.305570">
        <ele>339.7</ele>
      </trkpt>
      <trkpt lat="43.343320" lon="11.305660">
        <ele>337.6</ele>
      </trkpt>
      <trkpt lat="43.343210" lon="11.305670">
        <ele>337.4</ele>
      </trkpt>
      <trkpt lat="43.343080" lon="11.305650">
        <ele>336.9</ele>
      </trkpt>
      <trkpt lat="43.342970" lon="11.305570">
        <ele>336.4</ele>
      </trkpt>
      <trkpt lat="43.342950" lon="11.305540">
        <ele>336.3</ele>
      </trkpt>
      <trkpt lat="43.342910" lon="11.305500">
        <ele>336.1</ele>
      </trkpt>
      <trkpt lat="43.342850" lon="11.305470">
        <ele>335.9</ele>
      </trkpt>
      <trkpt lat="43.342780" lon="11.305480">
        <ele>335.8</ele>
      </trkpt>
      <trkpt lat="43.342710" lon="11.305530">
        <ele>335.8</ele>
      </trkpt>
      <trkpt lat="43.342680" lon="11.305580">
        <ele>335.8</ele>
      </trkpt>
      <trkpt lat="43.342670" lon="11.305620">
        <ele>335.9</ele>
      </trkpt>
      <trkpt lat="43.342660" lon="11.305700">
        <ele>336</ele>
      </trkpt>
      <trkpt lat="43.342600" lon="11.305770">
        <ele>336</ele>
      </trkpt>
      <trkpt lat="43.342510" lon="11.305850">
        <ele>336.1</ele>
      </trkpt>
      <trkpt lat="43.342370" lon="11.305940">
        <ele>336.1</ele>
      </trkpt>
      <trkpt lat="43.342310" lon="11.305950">
        <ele>336.2</ele>
      </trkpt>
      <trkpt lat="43.342260" lon="11.305950">
        <ele>336.2</ele>
      </trkpt>
      <trkpt lat="43.341830" lon="11.305990">
        <ele>336.5</ele>
      </trkpt>
      <trkpt lat="43.341550" lon="11.305990">
        <ele>337.4</ele>
      </trkpt>
      <trkpt lat="43.341270" lon="11.305970">
        <ele>337.8</ele>
      </trkpt>
      <trkpt lat="43.340980" lon="11.305950">
        <ele>338.4</ele>
      </trkpt>
      <trkpt lat="43.340840" lon="11.305930">
        <ele>338.6</ele>
      </trkpt>
      <trkpt lat="43.340310" lon="11.305870">
        <ele>340.2</ele>
      </trkpt>
      <trkpt lat="43.340220" lon="11.305860">
        <ele>340.4</ele>
      </trkpt>
      <trkpt lat="43.340060" lon="11.305840">
        <ele>340.8</ele>
      </trkpt>
      <trkpt lat="43.339750" lon="11.305840">
        <ele>341.3</ele>
      </trkpt>
      <trkpt lat="43.339390" lon="11.305850">
        <ele>342.2</ele>
      </trkpt>
      <trkpt lat="43.339060" lon="11.305890">
        <ele>345.1</ele>
      </trkpt>
      <trkpt lat="43.338940" lon="11.305920">
        <ele>346</ele>
      </trkpt>
      <trkpt lat="43.338860" lon="11.305970">
        <ele>346.6</ele>
      </trkpt>
      <trkpt lat="43.338780" lon="11.306050">
        <ele>347.1</ele>
      </trkpt>
      <trkpt lat="43.338480" lon="11.306640">
        <ele>348.4</ele>
      </trkpt>
      <trkpt lat="43.338350" lon="11.306790">
        <ele>346.4</ele>
      </trkpt>
      <trkpt lat="43.338170" lon="11.306890">
        <ele>347.5</ele>
      </trkpt>
      <trkpt lat="43.337580" lon="11.307070">
        <ele>346.8</ele>
      </trkpt>
      <trkpt lat="43.336960" lon="11.307450">
        <ele>346.6</ele>
      </trkpt>
      <trkpt lat="43.336250" lon="11.307900">
        <ele>348.7</ele>
      </trkpt>
      <trkpt lat="43.335640" lon="11.308370">
        <ele>347.8</ele>
      </trkpt>
      <trkpt lat="43.335490" lon="11.308470">
        <ele>346.6</ele>
      </trkpt>
      <trkpt lat="43.335380" lon="11.308550">
        <ele>346</ele>
      </trkpt>
      <trkpt lat="43.335280" lon="11.308640">
        <ele>345.6</ele>
      </trkpt>
      <trkpt lat="43.335120" lon="11.308750">
        <ele>345.1</ele>
      </trkpt>
      <trkpt lat="43.334950" lon="11.308920">
        <ele>343.5</ele>
      </trkpt>
      <trkpt lat="43.334440" lon="11.309330">
        <ele>341.9</ele>
      </trkpt>
      <trkpt lat="43.334370" lon="11.309410">
        <ele>341.8</ele>
      </trkpt>
      <trkpt lat="43.334240" lon="11.309560">
        <ele>341.3</ele>
      </trkpt>
      <trkpt lat="43.334140" lon="11.309680">
        <ele>345.2</ele>
      </trkpt>
      <trkpt lat="43.332720" lon="11.311330">
        <ele>343.1</ele>
      </trkpt>
      <trkpt lat="43.332600" lon="11.311540">
        <ele>344.1</ele>
      </trkpt>
      <trkpt lat="43.332490" lon="11.311750">
        <ele>345.5</ele>
      </trkpt>
      <trkpt lat="43.332390" lon="11.312080">
        <ele>344.2</ele>
      </trkpt>
      <trkpt lat="43.332290" lon="11.312290">
        <ele>343.6</ele>
      </trkpt>
      <trkpt lat="43.332240" lon="11.312380">
        <ele>343.6</ele>
      </trkpt>
      <trkpt lat="43.332220" lon="11.312380">
        <ele>343.7</ele>
      </trkpt>
      <trkpt lat="43.332190" lon="11.312410">
        <ele>343.8</ele>
      </trkpt>
      <trkpt lat="43.332180" lon="11.312430">
        <ele>343.9</ele>
      </trkpt>
      <trkpt lat="43.332160" lon="11.312490">
        <ele>343.9</ele>
      </trkpt>
      <trkpt lat="43.332140" lon="11.312720">
        <ele>341.8</ele>
      </trkpt>
      <trkpt lat="43.332140" lon="11.312780">
        <ele>341.6</ele>
      </trkpt>
      <trkpt lat="43.332170" lon="11.312810">
        <ele>341.5</ele>
      </trkpt>
      <trkpt lat="43.332210" lon="11.312830">
        <ele>341.3</ele>
      </trkpt>
      <trkpt lat="43.332260" lon="11.312950">
        <ele>340.8</ele>
      </trkpt>
      <trkpt lat="43.332160" lon="11.313810">
        <ele>336.7</ele>
      </trkpt>
      <trkpt lat="43.332050" lon="11.314740">
        <ele>332.8</ele>
      </trkpt>
      <trkpt lat="43.331970" lon="11.315020">
        <ele>331.3</ele>
      </trkpt>
      <trkpt lat="43.331880" lon="11.315320">
        <ele>331.4</ele>
      </trkpt>
      <trkpt lat="43.331270" lon="11.316620">
        <ele>333.5</ele>
      </trkpt>
      <trkpt lat="43.331250" lon="11.316670">
        <ele>332.9</ele>
      </trkpt>
      <trkpt lat="43.331230" lon="11.316720">
        <ele>332.9</ele>
      </trkpt>
      <trkpt lat="43.330780" lon="11.317630">
        <ele>336.4</ele>
      </trkpt>
      <trkpt lat="43.330760" lon="11.317690">
        <ele>336.1</ele>
      </trkpt>
      <trkpt lat="43.330100" lon="11.319060">
        <ele>336.6</ele>
      </trkpt>
      <trkpt lat="43.330070" lon="11.319110">
        <ele>337.4</ele>
      </trkpt>
      <trkpt lat="43.329980" lon="11.319300">
        <ele>339.3</ele>
      </trkpt>
      <trkpt lat="43.329820" lon="11.319650">
        <ele>339.9</ele>
      </trkpt>
      <trkpt lat="43.329730" lon="11.319840">
        <ele>340.2</ele>
      </trkpt>
      <trkpt lat="43.329650" lon="11.319990">
        <ele>340.4</ele>
      </trkpt>
      <trkpt lat="43.329240" lon="11.320870">
        <ele>342.6</ele>
      </trkpt>
      <trkpt lat="43.329210" lon="11.320970">
        <ele>341.8</ele>
      </trkpt>
      <trkpt lat="43.329170" lon="11.321110">
        <ele>340.8</ele>
      </trkpt>
      <trkpt lat="43.329070" lon="11.321600">
        <ele>342.9</ele>
      </trkpt>
      <trkpt lat="43.328850" lon="11.321930">
        <ele>341.8</ele>
      </trkpt>
      <trkpt lat="43.328780" lon="11.322010">
        <ele>341.9</ele>
      </trkpt>
      <trkpt lat="43.328730" lon="11.322170">
        <ele>341.6</ele>
      </trkpt>
      <trkpt lat="43.328720" lon="11.322210">
        <ele>341.5</ele>
      </trkpt>
      <trkpt lat="43.328510" lon="11.322850">
        <ele>339.9</ele>
      </trkpt>
      <trkpt lat="43.328480" lon="11.322970">
        <ele>340</ele>
      </trkpt>
      <trkpt lat="43.328370" lon="11.323310">
        <ele>343.8</ele>
      </trkpt>
      <trkpt lat="43.328250" lon="11.323750">
        <ele>343.2</ele>
      </trkpt>
      <trkpt lat="43.328210" lon="11.323910">
        <ele>343.3</ele>
      </trkpt>
      <trkpt lat="43.328140" lon="11.324110">
        <ele>343.4</ele>
      </trkpt>
      <trkpt lat="43.328070" lon="11.324340">
        <ele>343.9</ele>
      </trkpt>
      <trkpt lat="43.327740" lon="11.325260">
        <ele>344.4</ele>
      </trkpt>
      <trkpt lat="43.327670" lon="11.325370">
        <ele>344.4</ele>
      </trkpt>
      <trkpt lat="43.327550" lon="11.325580">
        <ele>344.7</ele>
      </trkpt>
      <trkpt lat="43.327360" lon="11.325640">
        <ele>346.2</ele>
      </trkpt>
      <trkpt lat="43.327160" lon="11.325740">
        <ele>346.4</ele>
      </trkpt>
      <trkpt lat="43.327100" lon="11.325780">
        <ele>346.5</ele>
      </trkpt>
      <trkpt lat="43.327020" lon="11.325830">
        <ele>346.7</ele>
      </trkpt>
      <trkpt lat="43.326780" lon="11.326000">
        <ele>345.3</ele>
      </trkpt>
      <trkpt lat="43.326680" lon="11.326070">
        <ele>345.1</ele>
      </trkpt>
      <trkpt lat="43.326350" lon="11.326320">
        <ele>344.6</ele>
      </trkpt>
      <trkpt lat="43.326250" lon="11.326420">
        <ele>344.4</ele>
      </trkpt>
      <trkpt lat="43.326130" lon="11.326520">
        <ele>344.2</ele>
      </trkpt>
      <trkpt lat="43.325970" lon="11.326730">
        <ele>344.2</ele>
      </trkpt>
      <trkpt lat="43.325900" lon="11.326830">
        <ele>344.3</ele>
      </trkpt>
      <trkpt lat="43.325590" lon="11.327210">
        <ele>344.3</ele>
      </trkpt>
      <trkpt lat="43.325550" lon="11.327250">
        <ele>344.3</ele>
      </trkpt>
      <trkpt lat="43.325450" lon="11.327340">
        <ele>344.4</ele>
      </trkpt>
      <trkpt lat="43.325410" lon="11.327360">
        <ele>344.4</ele>
      </trkpt>
      <trkpt lat="43.325270" lon="11.327430">
        <ele>344.6</ele>
      </trkpt>
      <trkpt lat="43.325050" lon="11.327520">
        <ele>345.7</ele>
      </trkpt>
      <trkpt lat="43.324820" lon="11.327640">
        <ele>344.4</ele>
      </trkpt>
      <trkpt lat="43.324750" lon="11.327670">
        <ele>344.2</ele>
      </trkpt>
      <trkpt lat="43.324710" lon="11.327690">
        <ele>344.1</ele>
      </trkpt>
      <trkpt lat="43.324640" lon="11.327400">
        <ele>345.1</ele>
      </trkpt>
      <trkpt lat="43.324540" lon="11.327240">
        <ele>345</ele>
      </trkpt>
      <trkpt lat="43.324440" lon="11.327150">
        <ele>345.2</ele>
      </trkpt>
      <trkpt lat="43.324230" lon="11.327230">
        <ele>345.5</ele>
      </trkpt>
      <trkpt lat="43.324050" lon="11.327200">
        <ele>345.8</ele>
      </trkpt>
      <trkpt lat="43.323890" lon="11.327280">
        <ele>345.6</ele>
      </trkpt>
      <trkpt lat="43.323740" lon="11.327330">
        <ele>345.3</ele>
      </trkpt>
      <trkpt lat="43.323570" lon="11.327380">
        <ele>345</ele>
      </trkpt>
      <trkpt lat="43.323250" lon="11.327480">
        <ele>342.6</ele>
      </trkpt>
      <trkpt lat="43.323120" lon="11.327520">
        <ele>343.1</ele>
      </trkpt>
      <trkpt lat="43.323070" lon="11.327540">
        <ele>343</ele>
      </trkpt>
      <trkpt lat="43.322990" lon="11.327560">
        <ele>342.6</ele>
      </trkpt>
      <trkpt lat="43.322770" lon="11.327630">
        <ele>341.6</ele>
      </trkpt>
      <trkpt lat="43.322500" lon="11.327720">
        <ele>339.2</ele>
      </trkpt>
      <trkpt lat="43.322380" lon="11.327760">
        <ele>339.4</ele>
      </trkpt>
      <trkpt lat="43.322350" lon="11.327770">
        <ele>339.4</ele>
      </trkpt>
      <trkpt lat="43.322300" lon="11.327780">
        <ele>339.4</ele>
      </trkpt>
      <trkpt lat="43.322140" lon="11.327830">
        <ele>339.5</ele>
      </trkpt>
      <trkpt lat="43.321760" lon="11.327950">
        <ele>339.6</ele>
      </trkpt>
      <trkpt lat="43.321700" lon="11.327970">
        <ele>339.7</ele>
      </trkpt>
      <trkpt lat="43.321440" lon="11.328020">
        <ele>340</ele>
      </trkpt>
      <trkpt lat="43.321400" lon="11.328020">
        <ele>340</ele>
      </trkpt>
      <trkpt lat="43.321360" lon="11.328000">
        <ele>339.9</ele>
      </trkpt>
      <trkpt lat="43.321270" lon="11.327920">
        <ele>339.7</ele>
      </trkpt>
      <trkpt lat="43.320640" lon="11.327020">
        <ele>333.9</ele>
      </trkpt>
      <trkpt lat="43.320560" lon="11.326920">
        <ele>333.5</ele>
      </trkpt>
      <trkpt lat="43.320420" lon="11.326720">
        <ele>333.1</ele>
      </trkpt>
      <trkpt lat="43.320390" lon="11.326750">
        <ele>333.2</ele>
      </trkpt>
      <trkpt lat="43.320340" lon="11.326830">
        <ele>333.2</ele>
      </trkpt>
      <trkpt lat="43.320340" lon="11.326920">
        <ele>333.2</ele>
      </trkpt>
      <trkpt lat="43.320410" lon="11.327120">
        <ele>333.5</ele>
      </trkpt>
      <trkpt lat="43.320410" lon="11.327160">
        <ele>333.6</ele>
      </trkpt>
      <trkpt lat="43.320420" lon="11.327290">
        <ele>333.8</ele>
      </trkpt>
      <trkpt lat="43.320470" lon="11.327460">
        <ele>334.3</ele>
      </trkpt>
      <trkpt lat="43.320480" lon="11.327590">
        <ele>334.5</ele>
      </trkpt>
      <trkpt lat="43.320390" lon="11.328720">
        <ele>333.7</ele>
      </trkpt>
      <trkpt lat="43.320400" lon="11.328900">
        <ele>334.1</ele>
      </trkpt>
      <trkpt lat="43.320670" lon="11.329380">
        <ele>339.1</ele>
      </trkpt>
      <trkpt lat="43.320830" lon="11.329690">
        <ele>339.4</ele>
      </trkpt>
      <trkpt lat="43.320820" lon="11.329710">
        <ele>339.4</ele>
      </trkpt>
      <trkpt lat="43.320610" lon="11.330080">
        <ele>342.5</ele>
      </trkpt>
      <trkpt lat="43.320590" lon="11.330100">
        <ele>342.6</ele>
      </trkpt>
      <trkpt lat="43.320570" lon="11.330130">
        <ele>342.6</ele>
      </trkpt>
      <trkpt lat="43.320500" lon="11.330170">
        <ele>342.6</ele>
      </trkpt>
      <trkpt lat="43.320380" lon="11.330180">
        <ele>342.2</ele>
      </trkpt>
      <trkpt lat="43.320240" lon="11.330220">
        <ele>341.6</ele>
      </trkpt>
      <trkpt lat="43.320070" lon="11.330290">
        <ele>341.5</ele>
      </trkpt>
      <trkpt lat="43.320050" lon="11.330300">
        <ele>341.6</ele>
      </trkpt>
      <trkpt lat="43.319970" lon="11.330330">
        <ele>340.1</ele>
      </trkpt>
      <trkpt lat="43.319870" lon="11.330350">
        <ele>340.3</ele>
      </trkpt>
      <trkpt lat="43.319790" lon="11.330340">
        <ele>340.2</ele>
      </trkpt>
      <trkpt lat="43.319670" lon="11.330300">
        <ele>340</ele>
      </trkpt>
      <trkpt lat="43.319470" lon="11.330230">
        <ele>339.6</ele>
      </trkpt>
      <trkpt lat="43.319350" lon="11.330210">
        <ele>339.3</ele>
      </trkpt>
      <trkpt lat="43.319240" lon="11.330200">
        <ele>339</ele>
      </trkpt>
      <trkpt lat="43.319170" lon="11.330230">
        <ele>339.1</ele>
      </trkpt>
      <trkpt lat="43.319120" lon="11.330270">
        <ele>339.9</ele>
      </trkpt>
      <trkpt lat="43.319020" lon="11.330410">
        <ele>340.7</ele>
      </trkpt>
      <trkpt lat="43.319000" lon="11.330450">
        <ele>340.9</ele>
      </trkpt>
      <trkpt lat="43.318870" lon="11.330660">
        <ele>341.4</ele>
      </trkpt>
      <trkpt lat="43.318840" lon="11.330690">
        <ele>341.4</ele>
      </trkpt>
      <trkpt lat="43.321430" lon="11.327920">
        <ele>339</ele>
        <time>2019-09-06T01:35:40Z</time>
      </trkpt>
      <trkpt lat="43.321550" lon="11.327800">
        <ele>338</ele>
        <time>2019-09-06T01:35:43Z</time>
      </trkpt>
      <trkpt lat="43.321540" lon="11.327740">
        <ele>337</ele>
        <time>2019-09-06T01:35:43Z</time>
      </trkpt>
      <trkpt lat="43.321640" lon="11.327470">
        <ele>334</ele>
        <time>2019-09-06T01:35:47Z</time>
      </trkpt>
      <trkpt lat="43.321550" lon="11.327400">
        <ele>334</ele>
        <time>2019-09-06T01:35:49Z</time>
      </trkpt>
      <trkpt lat="43.321520" lon="11.327250">
        <ele>332</ele>
        <time>2019-09-06T01:35:51Z</time>
      </trkpt>
      <trkpt lat="43.321610" lon="11.327330">
        <ele>332</ele>
        <time>2019-09-06T01:35:53Z</time>
      </trkpt>
      <trkpt lat="43.321900" lon="11.327400">
        <ele>334</ele>
        <time>2019-09-06T01:35:58Z</time>
      </trkpt>
      <trkpt lat="43.322060" lon="11.327420">
        <ele>335</ele>
        <time>2019-09-06T01:36:01Z</time>
      </trkpt>
      <trkpt lat="43.322210" lon="11.327390">
        <ele>335</ele>
        <time>2019-09-06T01:36:04Z</time>
      </trkpt>
      <trkpt lat="43.322470" lon="11.327250">
        <ele>335</ele>
        <time>2019-09-06T01:36:09Z</time>
      </trkpt>
      <trkpt lat="43.322600" lon="11.327090">
        <ele>335</ele>
        <time>2019-09-06T01:36:12Z</time>
      </trkpt>
      <trkpt lat="43.322700" lon="11.326850">
        <ele>335</ele>
        <time>2019-09-06T01:36:16Z</time>
      </trkpt>
      <trkpt lat="43.322740" lon="11.326580">
        <ele>334</ele>
        <time>2019-09-06T01:36:19Z</time>
      </trkpt>
      <trkpt lat="43.322730" lon="11.326320">
        <ele>334</ele>
        <time>2019-09-06T01:36:22Z</time>
      </trkpt>
      <trkpt lat="43.322570" lon="11.325800">
        <ele>332</ele>
        <time>2019-09-06T01:36:30Z</time>
      </trkpt>
      <trkpt lat="43.322440" lon="11.325520">
        <ele>334</ele>
        <time>2019-09-06T01:36:34Z</time>
      </trkpt>
      <trkpt lat="43.322330" lon="11.325360">
        <ele>335</ele>
        <time>2019-09-06T01:36:37Z</time>
      </trkpt>
      <trkpt lat="43.321670" lon="11.324710">
        <ele>337</ele>
        <time>2019-09-06T01:36:51Z</time>
      </trkpt>
      <trkpt lat="43.321620" lon="11.324690">
        <ele>337</ele>
        <time>2019-09-06T01:36:52Z</time>
      </trkpt>
      <trkpt lat="43.321400" lon="11.324490">
        <ele>338</ele>
        <time>2019-09-06T01:36:57Z</time>
      </trkpt>
      <trkpt lat="43.321190" lon="11.324470">
        <ele>337</ele>
        <time>2019-09-06T01:37:01Z</time>
      </trkpt>
      <trkpt lat="43.321190" lon="11.324730">
        <ele>335</ele>
        <time>2019-09-06T01:37:04Z</time>
      </trkpt>
      <trkpt lat="43.321150" lon="11.324830">
        <ele>334</ele>
        <time>2019-09-06T01:37:06Z</time>
      </trkpt>
      <trkpt lat="43.320380" lon="11.326210">
        <ele>330</ele>
        <time>2019-09-06T01:37:28Z</time>
      </trkpt>
      <trkpt lat="43.320310" lon="11.326430">
        <ele>331</ele>
        <time>2019-09-06T01:37:31Z</time>
      </trkpt>
      <trkpt lat="43.320320" lon="11.326560">
        <ele>332</ele>
        <time>2019-09-06T01:37:33Z</time>
      </trkpt>
      <trkpt lat="43.320370" lon="11.326640">
        <ele>332</ele>
        <time>2019-09-06T01:37:34Z</time>
      </trkpt>
      <trkpt lat="43.320340" lon="11.326920">
        <ele>333</ele>
        <time>2019-09-06T01:37:38Z</time>
      </trkpt>
      <trkpt lat="43.320470" lon="11.327460">
        <ele>335</ele>
        <time>2019-09-06T01:37:45Z</time>
      </trkpt>
      <trkpt lat="43.320480" lon="11.327590">
        <ele>335</ele>
        <time>2019-09-06T01:37:47Z</time>
      </trkpt>
      <trkpt lat="43.320390" lon="11.328900">
        <ele>334</ele>
        <time>2019-09-06T01:38:04Z</time>
      </trkpt>
      <trkpt lat="43.320450" lon="11.329060">
        <ele>336</ele>
        <time>2019-09-06T01:38:06Z</time>
      </trkpt>
      <trkpt lat="43.320800" lon="11.329720">
        <ele>342</ele>
        <time>2019-09-06T01:38:17Z</time>
      </trkpt>
      <trkpt lat="43.320580" lon="11.330100">
        <ele>341</ele>
        <time>2019-09-06T01:38:23Z</time>
      </trkpt>
      <trkpt lat="43.320500" lon="11.330170">
        <ele>341</ele>
        <time>2019-09-06T01:38:25Z</time>
      </trkpt>
      <trkpt lat="43.320240" lon="11.330220">
        <ele>340</ele>
        <time>2019-09-06T01:38:30Z</time>
      </trkpt>
      <trkpt lat="43.319970" lon="11.330330">
        <ele>340</ele>
        <time>2019-09-06T01:38:35Z</time>
      </trkpt>
      <trkpt lat="43.319790" lon="11.330340">
        <ele>340</ele>
        <time>2019-09-06T01:38:38Z</time>
      </trkpt>
      <trkpt lat="43.319350" lon="11.330200">
        <ele>338</ele>
        <time>2019-09-06T01:38:46Z</time>
      </trkpt>
      <trkpt lat="43.319240" lon="11.330200">
        <ele>338</ele>
        <time>2019-09-06T01:38:48Z</time>
      </trkpt>
      <trkpt lat="43.319120" lon="11.330270">
        <ele>339</ele>
        <time>2019-09-06T01:38:50Z</time>
      </trkpt>
      <trkpt lat="43.318800" lon="11.330760">
        <ele>342</ele>
        <time>2019-09-06T01:38:59Z</time>
      </trkpt>
      <trkpt lat="43.318560" lon="11.330590">
        <ele>342</ele>
        <time>2019-09-06T01:39:03Z</time>
      </trkpt>
      <trkpt lat="43.318420" lon="11.330580">
        <ele>342</ele>
        <time>2019-09-06T01:39:06Z</time>
      </trkpt>
      <trkpt lat="43.317830" lon="11.330720">
        <ele>348</ele>
        <time>2019-09-06T01:39:17Z</time>
      </trkpt>
      <trkpt lat="43.317570" lon="11.330810">
        <ele>350</ele>
        <time>2019-09-06T01:39:21Z</time>
      </trkpt>
      <trkpt lat="43.317370" lon="11.330840">
        <ele>350</ele>
        <time>2019-09-06T01:39:25Z</time>
      </trkpt>
      <trkpt lat="43.317220" lon="11.330820">
        <ele>350</ele>
        <time>2019-09-06T01:39:28Z</time>
      </trkpt>
      <trkpt lat="43.316990" lon="11.330610">
        <ele>350</ele>
        <time>2019-09-06T01:39:33Z</time>
      </trkpt>
      <trkpt lat="43.316880" lon="11.330830">
        <ele>348</ele>
        <time>2019-09-06T01:39:36Z</time>
      </trkpt>
      <trkpt lat="43.316740" lon="11.331040">
        <ele>344</ele>
        <time>2019-09-06T01:39:40Z</time>
      </trkpt>
      <trkpt lat="43.316950" lon="11.331340">
        <ele>340</ele>
        <time>2019-09-06T01:39:45Z</time>
      </trkpt>
      <trkpt lat="43.317130" lon="11.331510">
        <ele>338</ele>
        <time>2019-09-06T01:39:49Z</time>
      </trkpt>
      <trkpt lat="43.317230" lon="11.331520">
        <ele>338</ele>
        <time>2019-09-06T01:39:51Z</time>
      </trkpt>
      <trkpt lat="43.317470" lon="11.331480">
        <ele>341</ele>
        <time>2019-09-06T01:39:55Z</time>
      </trkpt>
      <trkpt lat="43.317930" lon="11.331290">
        <ele>341</ele>
        <time>2019-09-06T01:40:04Z</time>
      </trkpt>
      <trkpt lat="43.318030" lon="11.331580">
        <ele>336</ele>
        <time>2019-09-06T01:40:08Z</time>
      </trkpt>
      <trkpt lat="43.318170" lon="11.331860">
        <ele>333</ele>
        <time>2019-09-06T01:40:12Z</time>
      </trkpt>
      <trkpt lat="43.318310" lon="11.332050">
        <ele>331</ele>
        <time>2019-09-06T01:40:16Z</time>
      </trkpt>
      <trkpt lat="43.318670" lon="11.332430">
        <ele>332</ele>
        <time>2019-09-06T01:40:24Z</time>
      </trkpt>
      <trkpt lat="43.318620" lon="11.332540">
        <ele>331</ele>
        <time>2019-09-06T01:40:25Z</time>
      </trkpt>
      <trkpt lat="43.318550" lon="11.332860">
        <ele>331</ele>
        <time>2019-09-06T01:40:30Z</time>
      </trkpt>
      <trkpt lat="43.318520" lon="11.333130">
        <ele>332</ele>
        <time>2019-09-06T01:40:33Z</time>
      </trkpt>
      <trkpt lat="43.318430" lon="11.333400">
        <ele>332</ele>
        <time>2019-09-06T01:40:37Z</time>
      </trkpt>
      <trkpt lat="43.318340" lon="11.333500">
        <ele>332</ele>
        <time>2019-09-06T01:40:39Z</time>
      </trkpt>
      <trkpt lat="43.318180" lon="11.333790">
        <ele>331</ele>
        <time>2019-09-06T01:40:44Z</time>
      </trkpt>
      <trkpt lat="43.317610" lon="11.334940">
        <ele>328</ele>
        <time>2019-09-06T01:41:02Z</time>
      </trkpt>
      <trkpt lat="43.317020" lon="11.335880">
        <ele>325</ele>
        <time>2019-09-06T01:41:18Z</time>
      </trkpt>
      <trkpt lat="43.316790" lon="11.336390">
        <ele>324</ele>
        <time>2019-09-06T01:41:26Z</time>
      </trkpt>
      <trkpt lat="43.316630" lon="11.336540">
        <ele>323</ele>
        <time>2019-09-06T01:41:29Z</time>
      </trkpt>
      <trkpt lat="43.316600" lon="11.336600">
        <ele>323</ele>
        <time>2019-09-06T01:41:30Z</time>
      </trkpt>
      <trkpt lat="43.316520" lon="11.337150">
        <ele>323</ele>
        <time>2019-09-06T01:41:37Z</time>
      </trkpt>
      <trkpt lat="43.316340" lon="11.337470">
        <ele>322</ele>
        <time>2019-09-06T01:41:43Z</time>
      </trkpt>
      <trkpt lat="43.316250" lon="11.337690">
        <ele>323</ele>
        <time>2019-09-06T01:41:46Z</time>
      </trkpt>
      <trkpt lat="43.315650" lon="11.338690">
        <ele>323</ele>
        <time>2019-09-06T01:42:03Z</time>
      </trkpt>
      <trkpt lat="43.315260" lon="11.339160">
        <ele>318</ele>
        <time>2019-09-06T01:42:12Z</time>
      </trkpt>
      <trkpt lat="43.315380" lon="11.339340">
        <ele>317</ele>
        <time>2019-09-06T01:42:15Z</time>
      </trkpt>
      <trkpt lat="43.315440" lon="11.339390">
        <ele>317</ele>
        <time>2019-09-06T01:42:16Z</time>
      </trkpt>
      <trkpt lat="43.315470" lon="11.339510">
        <ele>316</ele>
        <time>2019-09-06T01:42:18Z</time>
      </trkpt>
      <trkpt lat="43.315360" lon="11.339520">
        <ele>315</ele>
        <time>2019-09-06T01:42:20Z</time>
      </trkpt>
      <trkpt lat="43.315160" lon="11.339600">
        <ele>315</ele>
        <time>2019-09-06T01:42:24Z</time>
      </trkpt>
      <trkpt lat="43.315030" lon="11.339620">
        <ele>314</ele>
        <time>2019-09-06T01:42:26Z</time>
      </trkpt>
      <trkpt lat="43.313510" lon="11.339470">
        <ele>304</ele>
        <time>2019-09-06T01:42:53Z</time>
      </trkpt>
      <trkpt lat="43.311730" lon="11.339360">
        <ele>292</ele>
        <time>2019-09-06T01:43:25Z</time>
      </trkpt>
      <trkpt lat="43.311720" lon="11.339620">
        <ele>290</ele>
        <time>2019-09-06T01:43:28Z</time>
      </trkpt>
      <trkpt lat="43.311760" lon="11.339950">
        <ele>288</ele>
        <time>2019-09-06T01:43:32Z</time>
      </trkpt>
      <trkpt lat="43.311890" lon="11.340290">
        <ele>284</ele>
        <time>2019-09-06T01:43:37Z</time>
      </trkpt>
      <trkpt lat="43.312020" lon="11.340430">
        <ele>284</ele>
        <time>2019-09-06T01:43:40Z</time>
      </trkpt>
      <trkpt lat="43.312390" lon="11.340700">
        <ele>284</ele>
        <time>2019-09-06T01:43:48Z</time>
      </trkpt>
      <trkpt lat="43.312500" lon="11.340900">
        <ele>283</ele>
        <time>2019-09-06T01:43:51Z</time>
      </trkpt>
      <trkpt lat="43.312540" lon="11.341170">
        <ele>280</ele>
        <time>2019-09-06T01:43:55Z</time>
      </trkpt>
      <trkpt lat="43.312580" lon="11.341250">
        <ele>280</ele>
        <time>2019-09-06T01:43:56Z</time>
      </trkpt>
      <trkpt lat="43.312140" lon="11.342540">
        <ele>269</ele>
        <time>2019-09-06T01:44:14Z</time>
      </trkpt>
      <trkpt lat="43.311880" lon="11.342870">
        <ele>268</ele>
        <time>2019-09-06T01:44:21Z</time>
      </trkpt>
      <trkpt lat="43.311530" lon="11.343180">
        <ele>266</ele>
        <time>2019-09-06T01:44:28Z</time>
      </trkpt>
      <trkpt lat="43.310880" lon="11.344130">
        <ele>268</ele>
        <time>2019-09-06T01:44:45Z</time>
      </trkpt>
      <trkpt lat="43.310770" lon="11.344480">
        <ele>269</ele>
        <time>2019-09-06T01:44:50Z</time>
      </trkpt>
      <trkpt lat="43.310630" lon="11.345070">
        <ele>271</ele>
        <time>2019-09-06T01:44:58Z</time>
      </trkpt>
      <trkpt lat="43.310650" lon="11.345960">
        <ele>273</ele>
        <time>2019-09-06T01:45:09Z</time>
      </trkpt>
      <trkpt lat="43.310690" lon="11.346130">
        <ele>274</ele>
        <time>2019-09-06T01:45:12Z</time>
      </trkpt>
      <trkpt lat="43.310860" lon="11.346550">
        <ele>278</ele>
        <time>2019-09-06T01:45:18Z</time>
      </trkpt>
      <trkpt lat="43.310980" lon="11.346740">
        <ele>276</ele>
        <time>2019-09-06T01:45:21Z</time>
      </trkpt>
      <trkpt lat="43.311230" lon="11.347000">
        <ele>272</ele>
        <time>2019-09-06T01:45:27Z</time>
      </trkpt>
      <trkpt lat="43.311580" lon="11.347240">
        <ele>270</ele>
        <time>2019-09-06T01:45:34Z</time>
      </trkpt>
      <trkpt lat="43.311840" lon="11.347480">
        <ele>268</ele>
        <time>2019-09-06T01:45:39Z</time>
      </trkpt>
      <trkpt lat="43.312140" lon="11.347690">
        <ele>265</ele>
        <time>2019-09-06T01:45:45Z</time>
      </trkpt>
      <trkpt lat="43.312200" lon="11.347770">
        <ele>265</ele>
        <time>2019-09-06T01:45:47Z</time>
      </trkpt>
      <trkpt lat="43.312260" lon="11.347960">
        <ele>266</ele>
        <time>2019-09-06T01:45:49Z</time>
      </trkpt>
      <trkpt lat="43.312050" lon="11.348480">
        <ele>267</ele>
        <time>2019-09-06T01:45:57Z</time>
      </trkpt>
      <trkpt lat="43.311870" lon="11.349200">
        <ele>265</ele>
        <time>2019-09-06T01:46:07Z</time>
      </trkpt>
      <trkpt lat="43.311770" lon="11.349450">
        <ele>267</ele>
        <time>2019-09-06T01:46:11Z</time>
      </trkpt>
      <trkpt lat="43.311680" lon="11.349580">
        <ele>267</ele>
        <time>2019-09-06T01:46:13Z</time>
      </trkpt>
      <trkpt lat="43.311490" lon="11.349740">
        <ele>267</ele>
        <time>2019-09-06T01:46:17Z</time>
      </trkpt>
      <trkpt lat="43.310920" lon="11.349930">
        <ele>262</ele>
        <time>2019-09-06T01:46:27Z</time>
      </trkpt>
      <trkpt lat="43.310560" lon="11.350110">
        <ele>262</ele>
        <time>2019-09-06T01:46:34Z</time>
      </trkpt>
      <trkpt lat="43.310410" lon="11.350220">
        <ele>262</ele>
        <time>2019-09-06T01:46:37Z</time>
      </trkpt>
      <trkpt lat="43.310030" lon="11.350680">
        <ele>261</ele>
        <time>2019-09-06T01:46:46Z</time>
      </trkpt>
      <trkpt lat="43.309900" lon="11.350870">
        <ele>261</ele>
        <time>2019-09-06T01:46:50Z</time>
      </trkpt>
      <trkpt lat="43.309760" lon="11.351160">
        <ele>260</ele>
        <time>2019-09-06T01:46:54Z</time>
      </trkpt>
      <trkpt lat="43.309660" lon="11.351450">
        <ele>259</ele>
        <time>2019-09-06T01:46:58Z</time>
      </trkpt>
      <trkpt lat="43.309430" lon="11.352540">
        <ele>259</ele>
        <time>2019-09-06T01:47:13Z</time>
      </trkpt>
      <trkpt lat="43.309260" lon="11.353550">
        <ele>262</ele>
        <time>2019-09-06T01:47:26Z</time>
      </trkpt>
      <trkpt lat="43.309240" lon="11.353800">
        <ele>261</ele>
        <time>2019-09-06T01:47:30Z</time>
      </trkpt>
      <trkpt lat="43.309220" lon="11.354470">
        <ele>261</ele>
        <time>2019-09-06T01:47:38Z</time>
      </trkpt>
      <trkpt lat="43.309260" lon="11.355150">
        <ele>261</ele>
        <time>2019-09-06T01:47:47Z</time>
      </trkpt>
      <trkpt lat="43.309540" lon="11.356360">
        <ele>252</ele>
        <time>2019-09-06T01:48:04Z</time>
      </trkpt>
      <trkpt lat="43.309440" lon="11.356920">
        <ele>251</ele>
        <time>2019-09-06T01:48:11Z</time>
      </trkpt>
      <trkpt lat="43.309370" lon="11.357120">
        <ele>251</ele>
        <time>2019-09-06T01:48:14Z</time>
      </trkpt>
      <trkpt lat="43.309260" lon="11.357320">
        <ele>252</ele>
        <time>2019-09-06T01:48:17Z</time>
      </trkpt>
      <trkpt lat="43.309110" lon="11.357500">
        <ele>253</ele>
        <time>2019-09-06T01:48:21Z</time>
      </trkpt>
      <trkpt lat="43.308670" lon="11.357920">
        <ele>247</ele>
        <time>2019-09-06T01:48:30Z</time>
      </trkpt>
      <trkpt lat="43.307950" lon="11.358540">
        <ele>241</ele>
        <time>2019-09-06T01:48:45Z</time>
      </trkpt>
      <trkpt lat="43.306900" lon="11.359780">
        <ele>237</ele>
        <time>2019-09-06T01:49:10Z</time>
      </trkpt>
      <trkpt lat="43.306220" lon="11.360780">
        <ele>244</ele>
        <time>2019-09-06T01:49:28Z</time>
      </trkpt>
      <trkpt lat="43.305950" lon="11.361370">
        <ele>245</ele>
        <time>2019-09-06T01:49:37Z</time>
      </trkpt>
      <trkpt lat="43.305850" lon="11.361510">
        <ele>247</ele>
        <time>2019-09-06T01:49:39Z</time>
      </trkpt>
      <trkpt lat="43.305730" lon="11.361590">
        <ele>247</ele>
        <time>2019-09-06T01:49:42Z</time>
      </trkpt>
      <trkpt lat="43.305590" lon="11.361640">
        <ele>246</ele>
        <time>2019-09-06T01:49:44Z</time>
      </trkpt>
      <trkpt lat="43.305070" lon="11.361740">
        <ele>246</ele>
        <time>2019-09-06T01:49:54Z</time>
      </trkpt>
      <trkpt lat="43.304520" lon="11.361810">
        <ele>241</ele>
        <time>2019-09-06T01:50:03Z</time>
      </trkpt>
      <trkpt lat="43.304320" lon="11.361890">
        <ele>239</ele>
        <time>2019-09-06T01:50:07Z</time>
      </trkpt>
      <trkpt lat="43.304060" lon="11.362080">
        <ele>238</ele>
        <time>2019-09-06T01:50:12Z</time>
      </trkpt>
      <trkpt lat="43.303560" lon="11.362540">
        <ele>244</ele>
        <time>2019-09-06T01:50:23Z</time>
      </trkpt>
      <trkpt lat="43.303470" lon="11.362680">
        <ele>246</ele>
        <time>2019-09-06T01:50:26Z</time>
      </trkpt>
      <trkpt lat="43.303420" lon="11.362840">
        <ele>247</ele>
        <time>2019-09-06T01:50:28Z</time>
      </trkpt>
      <trkpt lat="43.303310" lon="11.363650">
        <ele>249</ele>
        <time>2019-09-06T01:50:38Z</time>
      </trkpt>
      <trkpt lat="43.303150" lon="11.363860">
        <ele>249</ele>
        <time>2019-09-06T01:50:42Z</time>
      </trkpt>
      <trkpt lat="43.303040" lon="11.363910">
        <ele>250</ele>
        <time>2019-09-06T01:50:44Z</time>
      </trkpt>
      <trkpt lat="43.302690" lon="11.363920">
        <ele>253</ele>
        <time>2019-09-06T01:50:51Z</time>
      </trkpt>
      <trkpt lat="43.302420" lon="11.364000">
        <ele>253</ele>
        <time>2019-09-06T01:50:56Z</time>
      </trkpt>
      <trkpt lat="43.302220" lon="11.364100">
        <ele>249</ele>
        <time>2019-09-06T01:50:59Z</time>
      </trkpt>
      <trkpt lat="43.302030" lon="11.364250">
        <ele>245</ele>
        <time>2019-09-06T01:51:03Z</time>
      </trkpt>
      <trkpt lat="43.301900" lon="11.364390">
        <ele>244</ele>
        <time>2019-09-06T01:51:06Z</time>
      </trkpt>
      <trkpt lat="43.301830" lon="11.364540">
        <ele>243</ele>
        <time>2019-09-06T01:51:09Z</time>
      </trkpt>
      <trkpt lat="43.301670" lon="11.365060">
        <ele>243</ele>
        <time>2019-09-06T01:51:16Z</time>
      </trkpt>
      <trkpt lat="43.301590" lon="11.365190">
        <ele>241</ele>
        <time>2019-09-06T01:51:18Z</time>
      </trkpt>
      <trkpt lat="43.301440" lon="11.365350">
        <ele>240</ele>
        <time>2019-09-06T01:51:21Z</time>
      </trkpt>
      <trkpt lat="43.300880" lon="11.365670">
        <ele>239</ele>
        <time>2019-09-06T01:51:32Z</time>
      </trkpt>
      <trkpt lat="43.300760" lon="11.365710">
        <ele>240</ele>
        <time>2019-09-06T01:51:34Z</time>
      </trkpt>
      <trkpt lat="43.300380" lon="11.365680">
        <ele>240</ele>
        <time>2019-09-06T01:51:41Z</time>
      </trkpt>
      <trkpt lat="43.300240" lon="11.365710">
        <ele>241</ele>
        <time>2019-09-06T01:51:44Z</time>
      </trkpt>
      <trkpt lat="43.299860" lon="11.365940">
        <ele>242</ele>
        <time>2019-09-06T01:51:51Z</time>
      </trkpt>
      <trkpt lat="43.299310" lon="11.366640">
        <ele>239</ele>
        <time>2019-09-06T01:52:04Z</time>
      </trkpt>
      <trkpt lat="43.299050" lon="11.367040">
        <ele>236</ele>
        <time>2019-09-06T01:52:11Z</time>
      </trkpt>
      <trkpt lat="43.298700" lon="11.367990">
        <ele>236</ele>
        <time>2019-09-06T01:52:25Z</time>
      </trkpt>
      <trkpt lat="43.298600" lon="11.368190">
        <ele>236</ele>
        <time>2019-09-06T01:52:28Z</time>
      </trkpt>
      <trkpt lat="43.298500" lon="11.368310">
        <ele>236</ele>
        <time>2019-09-06T01:52:31Z</time>
      </trkpt>
      <trkpt lat="43.298160" lon="11.368480">
        <ele>235</ele>
        <time>2019-09-06T01:52:37Z</time>
      </trkpt>
      <trkpt lat="43.297960" lon="11.368520">
        <ele>235</ele>
        <time>2019-09-06T01:52:41Z</time>
      </trkpt>
      <trkpt lat="43.297880" lon="11.368500">
        <ele>235</ele>
        <time>2019-09-06T01:52:42Z</time>
      </trkpt>
      <trkpt lat="43.297110" lon="11.368110">
        <ele>236</ele>
        <time>2019-09-06T01:52:57Z</time>
      </trkpt>
      <trkpt lat="43.296830" lon="11.368030">
        <ele>235</ele>
        <time>2019-09-06T01:53:02Z</time>
      </trkpt>
      <trkpt lat="43.296610" lon="11.368000">
        <ele>235</ele>
        <time>2019-09-06T01:53:06Z</time>
      </trkpt>
      <trkpt lat="43.296340" lon="11.368030">
        <ele>238</ele>
        <time>2019-09-06T01:53:11Z</time>
      </trkpt>
      <trkpt lat="43.296110" lon="11.368100">
        <ele>241</ele>
        <time>2019-09-06T01:53:15Z</time>
      </trkpt>
      <trkpt lat="43.295740" lon="11.368240">
        <ele>244</ele>
        <time>2019-09-06T01:53:22Z</time>
      </trkpt>
      <trkpt lat="43.295540" lon="11.368280">
        <ele>242</ele>
        <time>2019-09-06T01:53:25Z</time>
      </trkpt>
      <trkpt lat="43.295140" lon="11.368460">
        <ele>239</ele>
        <time>2019-09-06T01:53:33Z</time>
      </trkpt>
      <trkpt lat="43.294920" lon="11.368710">
        <ele>238</ele>
        <time>2019-09-06T01:53:38Z</time>
      </trkpt>
      <trkpt lat="43.294810" lon="11.368960">
        <ele>237</ele>
        <time>2019-09-06T01:53:42Z</time>
      </trkpt>
      <trkpt lat="43.294720" lon="11.369090">
        <ele>237</ele>
        <time>2019-09-06T01:53:44Z</time>
      </trkpt>
      <trkpt lat="43.294560" lon="11.369250">
        <ele>235</ele>
        <time>2019-09-06T01:53:47Z</time>
      </trkpt>
      <trkpt lat="43.293550" lon="11.369870">
        <ele>226</ele>
        <time>2019-09-06T01:54:07Z</time>
      </trkpt>
      <trkpt lat="43.293130" lon="11.370030">
        <ele>224</ele>
        <time>2019-09-06T01:54:15Z</time>
      </trkpt>
      <trkpt lat="43.292880" lon="11.370080">
        <ele>223</ele>
        <time>2019-09-06T01:54:19Z</time>
      </trkpt>
      <trkpt lat="43.292160" lon="11.370050">
        <ele>222</ele>
        <time>2019-09-06T01:54:32Z</time>
      </trkpt>
      <trkpt lat="43.291880" lon="11.370070">
        <ele>223</ele>
        <time>2019-09-06T01:54:37Z</time>
      </trkpt>
      <trkpt lat="43.291700" lon="11.370110">
        <ele>223</ele>
        <time>2019-09-06T01:54:40Z</time>
      </trkpt>
      <trkpt lat="43.291460" lon="11.370240">
        <ele>222</ele>
        <time>2019-09-06T01:54:45Z</time>
      </trkpt>
      <trkpt lat="43.291080" lon="11.370520">
        <ele>223</ele>
        <time>2019-09-06T01:54:53Z</time>
      </trkpt>
      <trkpt lat="43.290650" lon="11.370690">
        <ele>223</ele>
        <time>2019-09-06T01:55:01Z</time>
      </trkpt>
      <trkpt lat="43.290540" lon="11.370780">
        <ele>223</ele>
        <time>2019-09-06T01:55:03Z</time>
      </trkpt>
      <trkpt lat="43.290370" lon="11.371170">
        <ele>223</ele>
        <time>2019-09-06T01:55:09Z</time>
      </trkpt>
      <trkpt lat="43.290260" lon="11.371320">
        <ele>223</ele>
        <time>2019-09-06T01:55:12Z</time>
      </trkpt>
      <trkpt lat="43.289950" lon="11.371560">
        <ele>224</ele>
        <time>2019-09-06T01:55:18Z</time>
      </trkpt>
      <trkpt lat="43.289900" lon="11.371670">
        <ele>224</ele>
        <time>2019-09-06T01:55:20Z</time>
      </trkpt>
      <trkpt lat="43.289900" lon="11.371930">
        <ele>223</ele>
        <time>2019-09-06T01:55:23Z</time>
      </trkpt>
      <trkpt lat="43.289860" lon="11.372040">
        <ele>222</ele>
        <time>2019-09-06T01:55:25Z</time>
      </trkpt>
      <trkpt lat="43.289780" lon="11.372120">
        <ele>221</ele>
        <time>2019-09-06T01:55:26Z</time>
      </trkpt>
      <trkpt lat="43.289170" lon="11.372480">
        <ele>217</ele>
        <time>2019-09-06T01:55:38Z</time>
      </trkpt>
      <trkpt lat="43.289120" lon="11.372560">
        <ele>216</ele>
        <time>2019-09-06T01:55:39Z</time>
      </trkpt>
      <trkpt lat="43.289080" lon="11.374020">
        <ele>203</ele>
        <time>2019-09-06T01:55:58Z</time>
      </trkpt>
      <trkpt lat="43.289180" lon="11.376590">
        <ele>183</ele>
        <time>2019-09-06T01:56:32Z</time>
      </trkpt>
      <trkpt lat="43.288380" lon="11.376880">
        <ele>182</ele>
        <time>2019-09-06T01:56:46Z</time>
      </trkpt>
      <trkpt lat="43.288160" lon="11.376890">
        <ele>181</ele>
        <time>2019-09-06T01:56:50Z</time>
      </trkpt>
      <trkpt lat="43.287640" lon="11.376860">
        <ele>180</ele>
        <time>2019-09-06T01:57:00Z</time>
      </trkpt>
      <trkpt lat="43.287540" lon="11.376760">
        <ele>179</ele>
        <time>2019-09-06T01:57:02Z</time>
      </trkpt>
      <trkpt lat="43.287460" lon="11.376380">
        <ele>178</ele>
        <time>2019-09-06T01:57:07Z</time>
      </trkpt>
      <trkpt lat="43.287430" lon="11.375830">
        <ele>179</ele>
        <time>2019-09-06T01:57:14Z</time>
      </trkpt>
      <trkpt lat="43.287400" lon="11.375660">
        <ele>180</ele>
        <time>2019-09-06T01:57:16Z</time>
      </trkpt>
      <trkpt lat="43.287200" lon="11.375430">
        <ele>181</ele>
        <time>2019-09-06T01:57:21Z</time>
      </trkpt>
      <trkpt lat="43.286850" lon="11.374560">
        <ele>184</ele>
        <time>2019-09-06T01:57:34Z</time>
      </trkpt>
      <trkpt lat="43.286600" lon="11.374130">
        <ele>185</ele>
        <time>2019-09-06T01:57:41Z</time>
      </trkpt>
      <trkpt lat="43.286510" lon="11.374080">
        <ele>185</ele>
        <time>2019-09-06T01:57:43Z</time>
      </trkpt>
      <trkpt lat="43.286250" lon="11.374340">
        <ele>182</ele>
        <time>2019-09-06T01:57:48Z</time>
      </trkpt>
      <trkpt lat="43.285860" lon="11.374660">
        <ele>180</ele>
        <time>2019-09-06T01:57:57Z</time>
      </trkpt>
      <trkpt lat="43.285290" lon="11.375010">
        <ele>180</ele>
        <time>2019-09-06T01:58:08Z</time>
      </trkpt>
      <trkpt lat="43.283580" lon="11.376370">
        <ele>178</ele>
        <time>2019-09-06T01:58:43Z</time>
      </trkpt>
      <trkpt lat="43.283000" lon="11.375860">
        <ele>178</ele>
        <time>2019-09-06T01:58:55Z</time>
      </trkpt>
      <trkpt lat="43.282860" lon="11.375890">
        <ele>178</ele>
        <time>2019-09-06T01:58:58Z</time>
      </trkpt>
      <trkpt lat="43.282230" lon="11.376170">
        <ele>177</ele>
        <time>2019-09-06T01:59:09Z</time>
      </trkpt>
      <trkpt lat="43.282170" lon="11.376110">
        <ele>177</ele>
        <time>2019-09-06T01:59:11Z</time>
      </trkpt>
      <trkpt lat="43.282010" lon="11.376130">
        <ele>177</ele>
        <time>2019-09-06T01:59:14Z</time>
      </trkpt>
      <trkpt lat="43.281900" lon="11.376080">
        <ele>177</ele>
        <time>2019-09-06T01:59:16Z</time>
      </trkpt>
      <trkpt lat="43.281810" lon="11.376000">
        <ele>177</ele>
        <time>2019-09-06T01:59:18Z</time>
      </trkpt>
      <trkpt lat="43.281680" lon="11.375990">
        <ele>177</ele>
        <time>2019-09-06T01:59:20Z</time>
      </trkpt>
      <trkpt lat="43.281610" lon="11.376020">
        <ele>177</ele>
        <time>2019-09-06T01:59:21Z</time>
      </trkpt>
      <trkpt lat="43.281550" lon="11.376090">
        <ele>177</ele>
        <time>2019-09-06T01:59:23Z</time>
      </trkpt>
      <trkpt lat="43.281500" lon="11.376220">
        <ele>176</ele>
        <time>2019-09-06T01:59:24Z</time>
      </trkpt>
      <trkpt lat="43.281330" lon="11.376420">
        <ele>176</ele>
        <time>2019-09-06T01:59:28Z</time>
      </trkpt>
      <trkpt lat="43.280990" lon="11.376560">
        <ele>176</ele>
        <time>2019-09-06T01:59:35Z</time>
      </trkpt>
      <trkpt lat="43.280120" lon="11.376860">
        <ele>178</ele>
        <time>2019-09-06T01:59:51Z</time>
      </trkpt>
      <trkpt lat="43.279670" lon="11.376940">
        <ele>178</ele>
        <time>2019-09-06T01:59:59Z</time>
      </trkpt>
      <trkpt lat="43.279200" lon="11.376950">
        <ele>178</ele>
        <time>2019-09-06T02:00:07Z</time>
      </trkpt>
      <trkpt lat="43.278650" lon="11.376880">
        <ele>177</ele>
        <time>2019-09-06T02:00:17Z</time>
      </trkpt>
      <trkpt lat="43.277770" lon="11.376690">
        <ele>176</ele>
        <time>2019-09-06T02:00:33Z</time>
      </trkpt>
      <trkpt lat="43.277440" lon="11.376640">
        <ele>176</ele>
        <time>2019-09-06T02:00:39Z</time>
      </trkpt>
      <trkpt lat="43.277090" lon="11.376640">
        <ele>178</ele>
        <time>2019-09-06T02:00:45Z</time>
      </trkpt>
      <trkpt lat="43.276850" lon="11.376680">
        <ele>178</ele>
        <time>2019-09-06T02:00:49Z</time>
      </trkpt>
      <trkpt lat="43.276620" lon="11.376730">
        <ele>179</ele>
        <time>2019-09-06T02:00:53Z</time>
      </trkpt>
      <trkpt lat="43.275660" lon="11.377080">
        <ele>179</ele>
        <time>2019-09-06T02:01:11Z</time>
      </trkpt>
      <trkpt lat="43.273760" lon="11.377890">
        <ele>180</ele>
        <time>2019-09-06T02:01:46Z</time>
      </trkpt>
      <trkpt lat="43.272150" lon="11.378540">
        <ele>176</ele>
        <time>2019-09-06T02:02:16Z</time>
      </trkpt>
      <trkpt lat="43.271510" lon="11.378650">
        <ele>176</ele>
        <time>2019-09-06T02:02:28Z</time>
      </trkpt>
      <trkpt lat="43.271130" lon="11.378650">
        <ele>176</ele>
        <time>2019-09-06T02:02:35Z</time>
      </trkpt>
      <trkpt lat="43.270540" lon="11.378530">
        <ele>176</ele>
        <time>2019-09-06T02:02:45Z</time>
      </trkpt>
      <trkpt lat="43.270050" lon="11.378340">
        <ele>177</ele>
        <time>2019-09-06T02:02:54Z</time>
      </trkpt>
      <trkpt lat="43.269720" lon="11.378140">
        <ele>179</ele>
        <time>2019-09-06T02:03:01Z</time>
      </trkpt>
      <trkpt lat="43.269440" lon="11.377930">
        <ele>181</ele>
        <time>2019-09-06T02:03:06Z</time>
      </trkpt>
      <trkpt lat="43.269300" lon="11.377790">
        <ele>182</ele>
        <time>2019-09-06T02:03:09Z</time>
      </trkpt>
      <trkpt lat="43.268940" lon="11.377340">
        <ele>183</ele>
        <time>2019-09-06T02:03:18Z</time>
      </trkpt>
      <trkpt lat="43.268680" lon="11.377110">
        <ele>181</ele>
        <time>2019-09-06T02:03:24Z</time>
      </trkpt>
      <trkpt lat="43.268070" lon="11.376730">
        <ele>178</ele>
        <time>2019-09-06T02:03:35Z</time>
      </trkpt>
      <trkpt lat="43.267190" lon="11.376400">
        <ele>177</ele>
        <time>2019-09-06T02:03:52Z</time>
      </trkpt>
      <trkpt lat="43.266440" lon="11.376040">
        <ele>176</ele>
        <time>2019-09-06T02:04:06Z</time>
      </trkpt>
      <trkpt lat="43.262790" lon="11.374140">
        <ele>177</ele>
        <time>2019-09-06T02:05:15Z</time>
      </trkpt>
      <trkpt lat="43.262640" lon="11.374050">
        <ele>177</ele>
        <time>2019-09-06T02:05:18Z</time>
      </trkpt>
      <trkpt lat="43.262470" lon="11.373860">
        <ele>179</ele>
        <time>2019-09-06T02:05:22Z</time>
      </trkpt>
      <trkpt lat="43.262330" lon="11.373600">
        <ele>180</ele>
        <time>2019-09-06T02:05:26Z</time>
      </trkpt>
      <trkpt lat="43.262210" lon="11.373510">
        <ele>180</ele>
        <time>2019-09-06T02:05:29Z</time>
      </trkpt>
      <trkpt lat="43.262120" lon="11.373490">
        <ele>180</ele>
        <time>2019-09-06T02:05:30Z</time>
      </trkpt>
      <trkpt lat="43.260180" lon="11.375750">
        <ele>175</ele>
        <time>2019-09-06T02:06:16Z</time>
      </trkpt>
      <trkpt lat="43.260070" lon="11.376090">
        <ele>174</ele>
        <time>2019-09-06T02:06:20Z</time>
      </trkpt>
      <trkpt lat="43.259890" lon="11.377840">
        <ele>173</ele>
        <time>2019-09-06T02:06:43Z</time>
      </trkpt>
      <trkpt lat="43.259840" lon="11.378090">
        <ele>173</ele>
        <time>2019-09-06T02:06:47Z</time>
      </trkpt>
      <trkpt lat="43.259770" lon="11.378260">
        <ele>173</ele>
        <time>2019-09-06T02:06:49Z</time>
      </trkpt>
      <trkpt lat="43.258950" lon="11.379590">
        <ele>173</ele>
        <time>2019-09-06T02:07:12Z</time>
      </trkpt>
      <trkpt lat="43.258380" lon="11.380600">
        <ele>173</ele>
        <time>2019-09-06T02:07:28Z</time>
      </trkpt>
      <trkpt lat="43.258250" lon="11.380750">
        <ele>172</ele>
        <time>2019-09-06T02:07:31Z</time>
      </trkpt>
      <trkpt lat="43.258090" lon="11.380860">
        <ele>172</ele>
        <time>2019-09-06T02:07:35Z</time>
      </trkpt>
      <trkpt lat="43.257890" lon="11.380950">
        <ele>172</ele>
        <time>2019-09-06T02:07:38Z</time>
      </trkpt>
      <trkpt lat="43.257170" lon="11.380970">
        <ele>172</ele>
        <time>2019-09-06T02:07:51Z</time>
      </trkpt>
      <trkpt lat="43.256980" lon="11.381020">
        <ele>172</ele>
        <time>2019-09-06T02:07:55Z</time>
      </trkpt>
      <trkpt lat="43.256620" lon="11.381290">
        <ele>171</ele>
        <time>2019-09-06T02:08:02Z</time>
      </trkpt>
      <trkpt lat="43.256440" lon="11.381550">
        <ele>171</ele>
        <time>2019-09-06T02:08:07Z</time>
      </trkpt>
      <trkpt lat="43.256320" lon="11.381810">
        <ele>170</ele>
        <time>2019-09-06T02:08:11Z</time>
      </trkpt>
      <trkpt lat="43.256240" lon="11.382070">
        <ele>170</ele>
        <time>2019-09-06T02:08:14Z</time>
      </trkpt>
      <trkpt lat="43.255710" lon="11.384290">
        <ele>170</ele>
        <time>2019-09-06T02:08:44Z</time>
      </trkpt>
      <trkpt lat="43.255290" lon="11.386160">
        <ele>171</ele>
        <time>2019-09-06T02:09:10Z</time>
      </trkpt>
      <trkpt lat="43.254750" lon="11.388820">
        <ele>168</ele>
        <time>2019-09-06T02:09:46Z</time>
      </trkpt>
      <trkpt lat="43.254640" lon="11.389160">
        <ele>168</ele>
        <time>2019-09-06T02:09:50Z</time>
      </trkpt>
      <trkpt lat="43.254200" lon="11.390250">
        <ele>170</ele>
        <time>2019-09-06T02:10:07Z</time>
      </trkpt>
      <trkpt lat="43.253770" lon="11.391480">
        <ele>169</ele>
        <time>2019-09-06T02:10:24Z</time>
      </trkpt>
      <trkpt lat="43.253140" lon="11.392930">
        <ele>169</ele>
        <time>2019-09-06T02:10:46Z</time>
      </trkpt>
      <trkpt lat="43.252890" lon="11.393740">
        <ele>170</ele>
        <time>2019-09-06T02:10:58Z</time>
      </trkpt>
      <trkpt lat="43.252370" lon="11.394710">
        <ele>172</ele>
        <time>2019-09-06T02:11:13Z</time>
      </trkpt>
      <trkpt lat="43.251920" lon="11.395380">
        <ele>170</ele>
        <time>2019-09-06T02:11:25Z</time>
      </trkpt>
      <trkpt lat="43.251700" lon="11.395830">
        <ele>170</ele>
        <time>2019-09-06T02:11:32Z</time>
      </trkpt>
      <trkpt lat="43.251540" lon="11.396210">
        <ele>170</ele>
        <time>2019-09-06T02:11:38Z</time>
      </trkpt>
      <trkpt lat="43.250460" lon="11.399190">
        <ele>169</ele>
        <time>2019-09-06T02:12:21Z</time>
      </trkpt>
      <trkpt lat="43.250010" lon="11.400160">
        <ele>168</ele>
        <time>2019-09-06T02:12:36Z</time>
      </trkpt>
      <trkpt lat="43.249520" lon="11.400990">
        <ele>168</ele>
        <time>2019-09-06T02:12:50Z</time>
      </trkpt>
      <trkpt lat="43.248730" lon="11.402490">
        <ele>169</ele>
        <time>2019-09-06T02:13:14Z</time>
      </trkpt>
      <trkpt lat="43.248480" lon="11.403070">
        <ele>169</ele>
        <time>2019-09-06T02:13:22Z</time>
      </trkpt>
      <trkpt lat="43.248050" lon="11.404180">
        <ele>169</ele>
        <time>2019-09-06T02:13:39Z</time>
      </trkpt>
      <trkpt lat="43.247760" lon="11.404780">
        <ele>168</ele>
        <time>2019-09-06T02:13:48Z</time>
      </trkpt>
      <trkpt lat="43.247610" lon="11.404970">
        <ele>168</ele>
        <time>2019-09-06T02:13:52Z</time>
      </trkpt>
      <trkpt lat="43.246910" lon="11.405660">
        <ele>167</ele>
        <time>2019-09-06T02:14:07Z</time>
      </trkpt>
      <trkpt lat="43.246060" lon="11.406380">
        <ele>166</ele>
        <time>2019-09-06T02:14:25Z</time>
      </trkpt>
      <trkpt lat="43.246030" lon="11.406430">
        <ele>166</ele>
        <time>2019-09-06T02:14:25Z</time>
      </trkpt>
      <trkpt lat="43.245480" lon="11.406830">
        <ele>165</ele>
        <time>2019-09-06T02:14:37Z</time>
      </trkpt>
      <trkpt lat="43.244920" lon="11.407320">
        <ele>167</ele>
        <time>2019-09-06T02:14:48Z</time>
      </trkpt>
      <trkpt lat="43.244600" lon="11.407670">
        <ele>167</ele>
        <time>2019-09-06T02:14:56Z</time>
      </trkpt>
      <trkpt lat="43.244080" lon="11.408360">
        <ele>163</ele>
        <time>2019-09-06T02:15:09Z</time>
      </trkpt>
      <trkpt lat="43.243870" lon="11.408600">
        <ele>163</ele>
        <time>2019-09-06T02:15:13Z</time>
      </trkpt>
      <trkpt lat="43.242740" lon="11.409490">
        <ele>165</ele>
        <time>2019-09-06T02:15:37Z</time>
      </trkpt>
      <trkpt lat="43.241030" lon="11.410910">
        <ele>164</ele>
        <time>2019-09-06T02:16:12Z</time>
      </trkpt>
      <trkpt lat="43.237400" lon="11.415780">
        <ele>166</ele>
        <time>2019-09-06T02:17:42Z</time>
      </trkpt>
      <trkpt lat="43.236300" lon="11.417150">
        <ele>163</ele>
        <time>2019-09-06T02:18:09Z</time>
      </trkpt>
      <trkpt lat="43.235430" lon="11.418180">
        <ele>165</ele>
        <time>2019-09-06T02:18:29Z</time>
      </trkpt>
      <trkpt lat="43.235260" lon="11.418250">
        <ele>165</ele>
        <time>2019-09-06T02:18:32Z</time>
      </trkpt>
      <trkpt lat="43.235050" lon="11.418240">
        <ele>165</ele>
        <time>2019-09-06T02:18:36Z</time>
      </trkpt>
      <trkpt lat="43.234970" lon="11.418360">
        <ele>165</ele>
        <time>2019-09-06T02:18:38Z</time>
      </trkpt>
      <trkpt lat="43.234990" lon="11.418460">
        <ele>165</ele>
        <time>2019-09-06T02:18:40Z</time>
      </trkpt>
      <trkpt lat="43.234980" lon="11.418590">
        <ele>165</ele>
        <time>2019-09-06T02:18:41Z</time>
      </trkpt>
      <trkpt lat="43.234940" lon="11.418740">
        <ele>165</ele>
        <time>2019-09-06T02:18:43Z</time>
      </trkpt>
      <trkpt lat="43.233680" lon="11.420220">
        <ele>164</ele>
        <time>2019-09-06T02:19:13Z</time>
      </trkpt>
      <trkpt lat="43.233230" lon="11.420690">
        <ele>163</ele>
        <time>2019-09-06T02:19:23Z</time>
      </trkpt>
      <trkpt lat="43.232250" lon="11.421370">
        <ele>165</ele>
        <time>2019-09-06T02:19:43Z</time>
      </trkpt>
      <trkpt lat="43.232040" lon="11.421450">
        <ele>165</ele>
        <time>2019-09-06T02:19:46Z</time>
      </trkpt>
      <trkpt lat="43.232050" lon="11.421690">
        <ele>164</ele>
        <time>2019-09-06T02:19:50Z</time>
      </trkpt>
      <trkpt lat="43.232000" lon="11.421830">
        <ele>164</ele>
        <time>2019-09-06T02:19:52Z</time>
      </trkpt>
      <trkpt lat="43.231510" lon="11.422900">
        <ele>163</ele>
        <time>2019-09-06T02:20:08Z</time>
      </trkpt>
      <trkpt lat="43.231400" lon="11.423090">
        <ele>162</ele>
        <time>2019-09-06T02:20:11Z</time>
      </trkpt>
      <trkpt lat="43.229670" lon="11.424030">
        <ele>164</ele>
        <time>2019-09-06T02:20:44Z</time>
      </trkpt>
      <trkpt lat="43.229620" lon="11.423990">
        <ele>164</ele>
        <time>2019-09-06T02:20:45Z</time>
      </trkpt>
      <trkpt lat="43.229390" lon="11.423480">
        <ele>164</ele>
        <time>2019-09-06T02:20:53Z</time>
      </trkpt>
      <trkpt lat="43.228910" lon="11.423090">
        <ele>164</ele>
        <time>2019-09-06T02:21:03Z</time>
      </trkpt>
      <trkpt lat="43.228660" lon="11.423340">
        <ele>164</ele>
        <time>2019-09-06T02:21:08Z</time>
      </trkpt>
      <trkpt lat="43.228530" lon="11.423400">
        <ele>164</ele>
        <time>2019-09-06T02:21:11Z</time>
      </trkpt>
      <trkpt lat="43.228500" lon="11.423540">
        <ele>164</ele>
        <time>2019-09-06T02:21:13Z</time>
      </trkpt>
      <trkpt lat="43.228520" lon="11.423640">
        <ele>164</ele>
        <time>2019-09-06T02:21:14Z</time>
      </trkpt>
      <trkpt lat="43.228640" lon="11.423880">
        <ele>164</ele>
        <time>2019-09-06T02:21:18Z</time>
      </trkpt>
      <trkpt lat="43.228680" lon="11.424120">
        <ele>163</ele>
        <time>2019-09-06T02:21:21Z</time>
      </trkpt>
      <trkpt lat="43.229150" lon="11.428160">
        <ele>163</ele>
        <time>2019-09-06T02:22:14Z</time>
      </trkpt>
      <trkpt lat="43.229140" lon="11.428380">
        <ele>163</ele>
        <time>2019-09-06T02:22:17Z</time>
      </trkpt>
      <trkpt lat="43.229080" lon="11.428560">
        <ele>163</ele>
        <time>2019-09-06T02:22:20Z</time>
      </trkpt>
      <trkpt lat="43.228970" lon="11.428740">
        <ele>162</ele>
        <time>2019-09-06T02:22:23Z</time>
      </trkpt>
      <trkpt lat="43.228290" lon="11.429330">
        <ele>161</ele>
        <time>2019-09-06T02:22:37Z</time>
      </trkpt>
      <trkpt lat="43.228150" lon="11.429510">
        <ele>161</ele>
        <time>2019-09-06T02:22:40Z</time>
      </trkpt>
      <trkpt lat="43.226500" lon="11.432280">
        <ele>163</ele>
        <time>2019-09-06T02:23:27Z</time>
      </trkpt>
      <trkpt lat="43.226340" lon="11.432610">
        <ele>163</ele>
        <time>2019-09-06T02:23:32Z</time>
      </trkpt>
      <trkpt lat="43.222090" lon="11.442590">
        <ele>160</ele>
        <time>2019-09-06T02:26:02Z</time>
      </trkpt>
      <trkpt lat="43.222020" lon="11.442910">
        <ele>159</ele>
        <time>2019-09-06T02:26:06Z</time>
      </trkpt>
      <trkpt lat="43.221930" lon="11.443770">
        <ele>161</ele>
        <time>2019-09-06T02:26:17Z</time>
      </trkpt>
      <trkpt lat="43.221890" lon="11.444280">
        <ele>162</ele>
        <time>2019-09-06T02:26:24Z</time>
      </trkpt>
      <trkpt lat="43.221910" lon="11.444480">
        <ele>163</ele>
        <time>2019-09-06T02:26:27Z</time>
      </trkpt>
      <trkpt lat="43.221810" lon="11.444530">
        <ele>163</ele>
        <time>2019-09-06T02:26:28Z</time>
      </trkpt>
      <trkpt lat="43.220660" lon="11.444350">
        <ele>163</ele>
        <time>2019-09-06T02:26:49Z</time>
      </trkpt>
      <trkpt lat="43.220380" lon="11.444330">
        <ele>163</ele>
        <time>2019-09-06T02:26:54Z</time>
      </trkpt>
      <trkpt lat="43.219240" lon="11.444800">
        <ele>166</ele>
        <time>2019-09-06T02:27:15Z</time>
      </trkpt>
      <trkpt lat="43.219030" lon="11.444940">
        <ele>167</ele>
        <time>2019-09-06T02:27:19Z</time>
      </trkpt>
      <trkpt lat="43.218530" lon="11.445350">
        <ele>168</ele>
        <time>2019-09-06T02:27:30Z</time>
      </trkpt>
      <trkpt lat="43.218370" lon="11.445510">
        <ele>167</ele>
        <time>2019-09-06T02:27:33Z</time>
      </trkpt>
      <trkpt lat="43.217860" lon="11.446170">
        <ele>170</ele>
        <time>2019-09-06T02:27:46Z</time>
      </trkpt>
      <trkpt lat="43.217350" lon="11.446890">
        <ele>172</ele>
        <time>2019-09-06T02:27:59Z</time>
      </trkpt>
      <trkpt lat="43.216980" lon="11.447510">
        <ele>172</ele>
        <time>2019-09-06T02:28:09Z</time>
      </trkpt>
      <trkpt lat="43.216400" lon="11.448560">
        <ele>173</ele>
        <time>2019-09-06T02:28:26Z</time>
      </trkpt>
      <trkpt lat="43.216220" lon="11.448710">
        <ele>173</ele>
        <time>2019-09-06T02:28:30Z</time>
      </trkpt>
      <trkpt lat="43.215990" lon="11.448720">
        <ele>172</ele>
        <time>2019-09-06T02:28:34Z</time>
      </trkpt>
      <trkpt lat="43.215770" lon="11.448770">
        <ele>171</ele>
        <time>2019-09-06T02:28:38Z</time>
      </trkpt>
      <trkpt lat="43.215150" lon="11.449140">
        <ele>168</ele>
        <time>2019-09-06T02:28:50Z</time>
      </trkpt>
      <trkpt lat="43.214500" lon="11.449410">
        <ele>167</ele>
        <time>2019-09-06T02:29:02Z</time>
      </trkpt>
      <trkpt lat="43.214250" lon="11.449480">
        <ele>167</ele>
        <time>2019-09-06T02:29:07Z</time>
      </trkpt>
      <trkpt lat="43.213890" lon="11.449520">
        <ele>167</ele>
        <time>2019-09-06T02:29:13Z</time>
      </trkpt>
      <trkpt lat="43.211570" lon="11.449380">
        <ele>165</ele>
        <time>2019-09-06T02:29:54Z</time>
      </trkpt>
      <trkpt lat="43.211240" lon="11.449420">
        <ele>164</ele>
        <time>2019-09-06T02:30:00Z</time>
      </trkpt>
      <trkpt lat="43.211060" lon="11.449510">
        <ele>163</ele>
        <time>2019-09-06T02:30:04Z</time>
      </trkpt>
      <trkpt lat="43.210650" lon="11.449830">
        <ele>163</ele>
        <time>2019-09-06T02:30:12Z</time>
      </trkpt>
      <trkpt lat="43.209360" lon="11.451290">
        <ele>162</ele>
        <time>2019-09-06T02:30:42Z</time>
      </trkpt>
      <trkpt lat="43.208670" lon="11.451980">
        <ele>160</ele>
        <time>2019-09-06T02:30:57Z</time>
      </trkpt>
      <trkpt lat="43.208210" lon="11.452530">
        <ele>159</ele>
        <time>2019-09-06T02:31:08Z</time>
      </trkpt>
      <trkpt lat="43.207830" lon="11.452890">
        <ele>159</ele>
        <time>2019-09-06T02:31:16Z</time>
      </trkpt>
      <trkpt lat="43.207470" lon="11.453150">
        <ele>159</ele>
        <time>2019-09-06T02:31:23Z</time>
      </trkpt>
      <trkpt lat="43.206480" lon="11.453590">
        <ele>158</ele>
        <time>2019-09-06T02:31:42Z</time>
      </trkpt>
      <trkpt lat="43.204810" lon="11.454250">
        <ele>158</ele>
        <time>2019-09-06T02:32:13Z</time>
      </trkpt>
      <trkpt lat="43.203640" lon="11.454670">
        <ele>158</ele>
        <time>2019-09-06T02:32:34Z</time>
      </trkpt>
      <trkpt lat="43.202020" lon="11.455380">
        <ele>161</ele>
        <time>2019-09-06T02:33:05Z</time>
      </trkpt>
      <trkpt lat="43.201790" lon="11.455360">
        <ele>162</ele>
        <time>2019-09-06T02:33:09Z</time>
      </trkpt>
      <trkpt lat="43.201120" lon="11.455160">
        <ele>163</ele>
        <time>2019-09-06T02:33:21Z</time>
      </trkpt>
      <trkpt lat="43.200980" lon="11.455150">
        <ele>163</ele>
        <time>2019-09-06T02:33:23Z</time>
      </trkpt>
      <trkpt lat="43.200660" lon="11.455730">
        <ele>164</ele>
        <time>2019-09-06T02:33:33Z</time>
      </trkpt>
      <trkpt lat="43.200140" lon="11.456460">
        <ele>165</ele>
        <time>2019-09-06T02:33:46Z</time>
      </trkpt>
      <trkpt lat="43.198930" lon="11.457960">
        <ele>166</ele>
        <time>2019-09-06T02:34:15Z</time>
      </trkpt>
      <trkpt lat="43.196540" lon="11.461710">
        <ele>154</ele>
        <time>2019-09-06T02:35:20Z</time>
      </trkpt>
      <trkpt lat="43.196510" lon="11.461820">
        <ele>154</ele>
        <time>2019-09-06T02:35:21Z</time>
      </trkpt>
      <trkpt lat="43.196190" lon="11.462540">
        <ele>152</ele>
        <time>2019-09-06T02:35:32Z</time>
      </trkpt>
      <trkpt lat="43.195740" lon="11.463440">
        <ele>150</ele>
        <time>2019-09-06T02:35:46Z</time>
      </trkpt>
      <trkpt lat="43.194850" lon="11.465650">
        <ele>155</ele>
        <time>2019-09-06T02:36:19Z</time>
      </trkpt>
      <trkpt lat="43.193080" lon="11.467230">
        <ele>156</ele>
        <time>2019-09-06T02:36:57Z</time>
      </trkpt>
      <trkpt lat="43.191890" lon="11.468440">
        <ele>160</ele>
        <time>2019-09-06T02:37:23Z</time>
      </trkpt>
      <trkpt lat="43.191280" lon="11.469000">
        <ele>159</ele>
        <time>2019-09-06T02:37:36Z</time>
      </trkpt>
      <trkpt lat="43.191170" lon="11.469170">
        <ele>159</ele>
        <time>2019-09-06T02:37:39Z</time>
      </trkpt>
      <trkpt lat="43.190910" lon="11.469820">
        <ele>161</ele>
        <time>2019-09-06T02:37:49Z</time>
      </trkpt>
      <trkpt lat="43.190720" lon="11.470210">
        <ele>164</ele>
        <time>2019-09-06T02:37:55Z</time>
      </trkpt>
      <trkpt lat="43.190300" lon="11.470730">
        <ele>167</ele>
        <time>2019-09-06T02:38:05Z</time>
      </trkpt>
      <trkpt lat="43.190080" lon="11.470930">
        <ele>167</ele>
        <time>2019-09-06T02:38:09Z</time>
      </trkpt>
      <trkpt lat="43.189420" lon="11.471380">
        <ele>167</ele>
        <time>2019-09-06T02:38:23Z</time>
      </trkpt>
      <trkpt lat="43.189290" lon="11.471550">
        <ele>167</ele>
        <time>2019-09-06T02:38:26Z</time>
      </trkpt>
      <trkpt lat="43.189190" lon="11.471720">
        <ele>168</ele>
        <time>2019-09-06T02:38:29Z</time>
      </trkpt>
      <trkpt lat="43.188920" lon="11.472650">
        <ele>170</ele>
        <time>2019-09-06T02:38:42Z</time>
      </trkpt>
      <trkpt lat="43.188640" lon="11.473290">
        <ele>170</ele>
        <time>2019-09-06T02:38:51Z</time>
      </trkpt>
      <trkpt lat="43.188470" lon="11.473820">
        <ele>167</ele>
        <time>2019-09-06T02:38:59Z</time>
      </trkpt>
      <trkpt lat="43.188320" lon="11.474060">
        <ele>165</ele>
        <time>2019-09-06T02:39:03Z</time>
      </trkpt>
      <trkpt lat="43.187970" lon="11.474380">
        <ele>162</ele>
        <time>2019-09-06T02:39:10Z</time>
      </trkpt>
      <trkpt lat="43.187810" lon="11.474910">
        <ele>161</ele>
        <time>2019-09-06T02:39:18Z</time>
      </trkpt>
      <trkpt lat="43.187730" lon="11.474960">
        <ele>160</ele>
        <time>2019-09-06T02:39:19Z</time>
      </trkpt>
      <trkpt lat="43.187640" lon="11.474960">
        <ele>160</ele>
        <time>2019-09-06T02:39:21Z</time>
      </trkpt>
      <trkpt lat="43.187290" lon="11.474730">
        <ele>158</ele>
        <time>2019-09-06T02:39:28Z</time>
      </trkpt>
      <trkpt lat="43.187200" lon="11.474700">
        <ele>158</ele>
        <time>2019-09-06T02:39:30Z</time>
      </trkpt>
      <trkpt lat="43.186050" lon="11.474830">
        <ele>154</ele>
        <time>2019-09-06T02:39:50Z</time>
      </trkpt>
      <trkpt lat="43.185940" lon="11.474880">
        <ele>154</ele>
        <time>2019-09-06T02:39:52Z</time>
      </trkpt>
      <trkpt lat="43.186760" lon="11.476190">
        <ele>158</ele>
        <time>2019-09-06T02:40:15Z</time>
      </trkpt>
      <trkpt lat="43.186840" lon="11.477280">
        <ele>165</ele>
        <time>2019-09-06T02:40:29Z</time>
      </trkpt>
      <trkpt lat="43.186760" lon="11.476190">
        <ele>158</ele>
        <time>2019-09-06T02:40:43Z</time>
      </trkpt>
      <trkpt lat="43.185940" lon="11.474880">
        <ele>154</ele>
        <time>2019-09-06T02:41:05Z</time>
      </trkpt>
      <trkpt lat="43.182320" lon="11.477820">
        <ele>157</ele>
        <time>2019-09-06T02:42:20Z</time>
      </trkpt>
      <trkpt lat="43.181580" lon="11.477580">
        <ele>157</ele>
        <time>2019-09-06T02:42:34Z</time>
      </trkpt>
      <trkpt lat="43.180280" lon="11.477300">
        <ele>155</ele>
        <time>2019-09-06T02:42:57Z</time>
      </trkpt>
      <trkpt lat="43.179380" lon="11.477060">
        <ele>154</ele>
        <time>2019-09-06T02:43:13Z</time>
      </trkpt>
      <trkpt lat="43.179220" lon="11.477040">
        <ele>154</ele>
        <time>2019-09-06T02:43:16Z</time>
      </trkpt>
      <trkpt lat="43.178290" lon="11.477280">
        <ele>156</ele>
        <time>2019-09-06T02:43:33Z</time>
      </trkpt>
      <trkpt lat="43.177230" lon="11.477430">
        <ele>163</ele>
        <time>2019-09-06T02:43:52Z</time>
      </trkpt>
      <trkpt lat="43.176950" lon="11.477510">
        <ele>166</ele>
        <time>2019-09-06T02:43:57Z</time>
      </trkpt>
      <trkpt lat="43.176790" lon="11.477600">
        <ele>169</ele>
        <time>2019-09-06T02:44:00Z</time>
      </trkpt>
      <trkpt lat="43.176720" lon="11.477690">
        <ele>171</ele>
        <time>2019-09-06T02:44:02Z</time>
      </trkpt>
      <trkpt lat="43.176620" lon="11.478380">
        <ele>180</ele>
        <time>2019-09-06T02:44:11Z</time>
      </trkpt>
      <trkpt lat="43.176670" lon="11.479150">
        <ele>187</ele>
        <time>2019-09-06T02:44:21Z</time>
      </trkpt>
      <trkpt lat="43.176670" lon="11.479330">
        <ele>189</ele>
        <time>2019-09-06T02:44:23Z</time>
      </trkpt>
      <trkpt lat="43.176630" lon="11.479500">
        <ele>190</ele>
        <time>2019-09-06T02:44:26Z</time>
      </trkpt>
      <trkpt lat="43.176570" lon="11.479650">
        <ele>192</ele>
        <time>2019-09-06T02:44:28Z</time>
      </trkpt>
      <trkpt lat="43.176430" lon="11.479870">
        <ele>193</ele>
        <time>2019-09-06T02:44:32Z</time>
      </trkpt>
      <trkpt lat="43.176200" lon="11.480150">
        <ele>195</ele>
        <time>2019-09-06T02:44:37Z</time>
      </trkpt>
      <trkpt lat="43.176160" lon="11.480250">
        <ele>195</ele>
        <time>2019-09-06T02:44:39Z</time>
      </trkpt>
      <trkpt lat="43.176070" lon="11.481090">
        <ele>200</ele>
        <time>2019-09-06T02:44:50Z</time>
      </trkpt>
      <trkpt lat="43.176020" lon="11.481320">
        <ele>202</ele>
        <time>2019-09-06T02:44:53Z</time>
      </trkpt>
      <trkpt lat="43.175900" lon="11.481580">
        <ele>205</ele>
        <time>2019-09-06T02:44:57Z</time>
      </trkpt>
      <trkpt lat="43.175820" lon="11.481670">
        <ele>207</ele>
        <time>2019-09-06T02:44:59Z</time>
      </trkpt>
      <trkpt lat="43.175730" lon="11.481850">
        <ele>208</ele>
        <time>2019-09-06T02:45:02Z</time>
      </trkpt>
      <trkpt lat="43.175680" lon="11.482050">
        <ele>209</ele>
        <time>2019-09-06T02:45:04Z</time>
      </trkpt>
      <trkpt lat="43.175630" lon="11.482430">
        <ele>213</ele>
        <time>2019-09-06T02:45:09Z</time>
      </trkpt>
      <trkpt lat="43.175640" lon="11.482570">
        <ele>214</ele>
        <time>2019-09-06T02:45:11Z</time>
      </trkpt>
      <trkpt lat="43.175730" lon="11.482780">
        <ele>217</ele>
        <time>2019-09-06T02:45:14Z</time>
      </trkpt>
      <trkpt lat="43.175790" lon="11.483900">
        <ele>226</ele>
        <time>2019-09-06T02:45:29Z</time>
      </trkpt>
      <trkpt lat="43.175780" lon="11.484100">
        <ele>228</ele>
        <time>2019-09-06T02:45:31Z</time>
      </trkpt>
      <trkpt lat="43.175750" lon="11.484280">
        <ele>230</ele>
        <time>2019-09-06T02:45:34Z</time>
      </trkpt>
      <trkpt lat="43.175690" lon="11.484430">
        <ele>231</ele>
        <time>2019-09-06T02:45:36Z</time>
      </trkpt>
      <trkpt lat="43.175380" lon="11.485030">
        <ele>232</ele>
        <time>2019-09-06T02:45:46Z</time>
      </trkpt>
      <trkpt lat="43.174530" lon="11.484490">
        <ele>227</ele>
        <time>2019-09-06T02:46:02Z</time>
      </trkpt>
      <trkpt lat="43.172570" lon="11.483840">
        <ele>224</ele>
        <time>2019-09-06T02:46:38Z</time>
      </trkpt>
      <trkpt lat="43.172290" lon="11.483650">
        <ele>219</ele>
        <time>2019-09-06T02:46:44Z</time>
      </trkpt>
      <trkpt lat="43.171910" lon="11.483260">
        <ele>214</ele>
        <time>2019-09-06T02:46:52Z</time>
      </trkpt>
      <trkpt lat="43.171800" lon="11.483120">
        <ele>212</ele>
        <time>2019-09-06T02:46:55Z</time>
      </trkpt>
      <trkpt lat="43.171540" lon="11.482680">
        <ele>209</ele>
        <time>2019-09-06T02:47:02Z</time>
      </trkpt>
      <trkpt lat="43.171340" lon="11.482110">
        <ele>206</ele>
        <time>2019-09-06T02:47:10Z</time>
      </trkpt>
      <trkpt lat="43.171000" lon="11.480300">
        <ele>202</ele>
        <time>2019-09-06T02:47:35Z</time>
      </trkpt>
      <trkpt lat="43.170950" lon="11.480100">
        <ele>202</ele>
        <time>2019-09-06T02:47:37Z</time>
      </trkpt>
      <trkpt lat="43.170830" lon="11.479790">
        <ele>204</ele>
        <time>2019-09-06T02:47:42Z</time>
      </trkpt>
      <trkpt lat="43.170650" lon="11.479590">
        <ele>202</ele>
        <time>2019-09-06T02:47:46Z</time>
      </trkpt>
      <trkpt lat="43.170090" lon="11.479350">
        <ele>199</ele>
        <time>2019-09-06T02:47:57Z</time>
      </trkpt>
      <trkpt lat="43.169870" lon="11.479180">
        <ele>199</ele>
        <time>2019-09-06T02:48:01Z</time>
      </trkpt>
      <trkpt lat="43.169780" lon="11.479070">
        <ele>197</ele>
        <time>2019-09-06T02:48:03Z</time>
      </trkpt>
      <trkpt lat="43.169470" lon="11.478430">
        <ele>197</ele>
        <time>2019-09-06T02:48:13Z</time>
      </trkpt>
      <trkpt lat="43.169340" lon="11.478210">
        <ele>196</ele>
        <time>2019-09-06T02:48:17Z</time>
      </trkpt>
      <trkpt lat="43.169180" lon="11.478050">
        <ele>196</ele>
        <time>2019-09-06T02:48:20Z</time>
      </trkpt>
      <trkpt lat="43.168980" lon="11.477960">
        <ele>194</ele>
        <time>2019-09-06T02:48:24Z</time>
      </trkpt>
      <trkpt lat="43.168270" lon="11.477800">
        <ele>192</ele>
        <time>2019-09-06T02:48:37Z</time>
      </trkpt>
      <trkpt lat="43.167920" lon="11.477780">
        <ele>191</ele>
        <time>2019-09-06T02:48:43Z</time>
      </trkpt>
      <trkpt lat="43.167450" lon="11.477790">
        <ele>188</ele>
        <time>2019-09-06T02:48:51Z</time>
      </trkpt>
      <trkpt lat="43.167160" lon="11.477720">
        <ele>189</ele>
        <time>2019-09-06T02:48:57Z</time>
      </trkpt>
      <trkpt lat="43.167050" lon="11.477650">
        <ele>190</ele>
        <time>2019-09-06T02:48:59Z</time>
      </trkpt>
      <trkpt lat="43.166440" lon="11.477040">
        <ele>191</ele>
        <time>2019-09-06T02:49:12Z</time>
      </trkpt>
      <trkpt lat="43.165960" lon="11.476720">
        <ele>191</ele>
        <time>2019-09-06T02:49:22Z</time>
      </trkpt>
      <trkpt lat="43.165450" lon="11.476340">
        <ele>186</ele>
        <time>2019-09-06T02:49:32Z</time>
      </trkpt>
      <trkpt lat="43.165320" lon="11.476270">
        <ele>186</ele>
        <time>2019-09-06T02:49:35Z</time>
      </trkpt>
      <trkpt lat="43.164800" lon="11.476120">
        <ele>185</ele>
        <time>2019-09-06T02:49:44Z</time>
      </trkpt>
      <trkpt lat="43.164520" lon="11.476010">
        <ele>186</ele>
        <time>2019-09-06T02:49:49Z</time>
      </trkpt>
      <trkpt lat="43.162560" lon="11.474960">
        <ele>190</ele>
        <time>2019-09-06T02:50:27Z</time>
      </trkpt>
      <trkpt lat="43.162480" lon="11.474960">
        <ele>190</ele>
        <time>2019-09-06T02:50:28Z</time>
      </trkpt>
      <trkpt lat="43.162470" lon="11.474840">
        <ele>190</ele>
        <time>2019-09-06T02:50:30Z</time>
      </trkpt>
      <trkpt lat="43.162240" lon="11.474640">
        <ele>187</ele>
        <time>2019-09-06T02:50:35Z</time>
      </trkpt>
      <trkpt lat="43.162090" lon="11.474420">
        <ele>186</ele>
        <time>2019-09-06T02:50:38Z</time>
      </trkpt>
      <trkpt lat="43.161920" lon="11.474030">
        <ele>184</ele>
        <time>2019-09-06T02:50:44Z</time>
      </trkpt>
      <trkpt lat="43.161820" lon="11.473670">
        <ele>181</ele>
        <time>2019-09-06T02:50:49Z</time>
      </trkpt>
      <trkpt lat="43.161770" lon="11.473300">
        <ele>178</ele>
        <time>2019-09-06T02:50:54Z</time>
      </trkpt>
      <trkpt lat="43.161800" lon="11.473100">
        <ele>177</ele>
        <time>2019-09-06T02:50:57Z</time>
      </trkpt>
      <trkpt lat="43.162480" lon="11.471710">
        <ele>168</ele>
        <time>2019-09-06T02:51:19Z</time>
      </trkpt>
      <trkpt lat="43.162550" lon="11.471490">
        <ele>166</ele>
        <time>2019-09-06T02:51:22Z</time>
      </trkpt>
      <trkpt lat="43.162600" lon="11.471100">
        <ele>164</ele>
        <time>2019-09-06T02:51:27Z</time>
      </trkpt>
      <trkpt lat="43.162640" lon="11.470080">
        <ele>159</ele>
        <time>2019-09-06T02:51:40Z</time>
      </trkpt>
      <trkpt lat="43.162720" lon="11.469820">
        <ele>158</ele>
        <time>2019-09-06T02:51:44Z</time>
      </trkpt>
      <trkpt lat="43.162840" lon="11.469630">
        <ele>157</ele>
        <time>2019-09-06T02:51:47Z</time>
      </trkpt>
      <trkpt lat="43.163070" lon="11.469360">
        <ele>155</ele>
        <time>2019-09-06T02:51:52Z</time>
      </trkpt>
      <trkpt lat="43.163270" lon="11.469220">
        <ele>154</ele>
        <time>2019-09-06T02:51:56Z</time>
      </trkpt>
      <trkpt lat="43.163540" lon="11.469110">
        <ele>153</ele>
        <time>2019-09-06T02:52:01Z</time>
      </trkpt>
      <trkpt lat="43.163910" lon="11.469010">
        <ele>154</ele>
        <time>2019-09-06T02:52:08Z</time>
      </trkpt>
      <trkpt lat="43.164040" lon="11.468840">
        <ele>153</ele>
        <time>2019-09-06T02:52:11Z</time>
      </trkpt>
      <trkpt lat="43.164080" lon="11.468690">
        <ele>152</ele>
        <time>2019-09-06T02:52:13Z</time>
      </trkpt>
      <trkpt lat="43.164070" lon="11.468500">
        <ele>150</ele>
        <time>2019-09-06T02:52:16Z</time>
      </trkpt>
      <trkpt lat="43.163880" lon="11.467890">
        <ele>147</ele>
        <time>2019-09-06T02:52:24Z</time>
      </trkpt>
      <trkpt lat="43.163850" lon="11.467720">
        <ele>146</ele>
        <time>2019-09-06T02:52:27Z</time>
      </trkpt>
      <trkpt lat="43.164000" lon="11.467480">
        <ele>146</ele>
        <time>2019-09-06T02:52:31Z</time>
      </trkpt>
      <trkpt lat="43.165000" lon="11.466760">
        <ele>148</ele>
        <time>2019-09-06T02:52:51Z</time>
      </trkpt>
      <trkpt lat="43.165690" lon="11.466370">
        <ele>146</ele>
        <time>2019-09-06T02:53:04Z</time>
      </trkpt>
      <trkpt lat="43.166490" lon="11.465360">
        <ele>146</ele>
        <time>2019-09-06T02:53:24Z</time>
      </trkpt>
      <trkpt lat="43.166450" lon="11.464840">
        <ele>147</ele>
        <time>2019-09-06T02:53:30Z</time>
      </trkpt>
      <trkpt lat="43.166400" lon="11.464730">
        <ele>147</ele>
        <time>2019-09-06T02:53:32Z</time>
      </trkpt>
      <trkpt lat="43.166300" lon="11.464640">
        <ele>147</ele>
        <time>2019-09-06T02:53:34Z</time>
      </trkpt>
      <trkpt lat="43.166100" lon="11.464540">
        <ele>146</ele>
        <time>2019-09-06T02:53:38Z</time>
      </trkpt>
      <trkpt lat="43.166000" lon="11.464460">
        <ele>146</ele>
        <time>2019-09-06T02:53:40Z</time>
      </trkpt>
      <trkpt lat="43.165910" lon="11.464460">
        <ele>145</ele>
        <time>2019-09-06T02:53:42Z</time>
      </trkpt>
      <trkpt lat="43.165790" lon="11.464400">
        <ele>145</ele>
        <time>2019-09-06T02:53:44Z</time>
      </trkpt>
      <trkpt lat="43.165010" lon="11.463880">
        <ele>145</ele>
        <time>2019-09-06T02:53:59Z</time>
      </trkpt>
      <trkpt lat="43.164310" lon="11.463130">
        <ele>144</ele>
        <time>2019-09-06T02:54:15Z</time>
      </trkpt>
      <trkpt lat="43.163780" lon="11.462720">
        <ele>144</ele>
        <time>2019-09-06T02:54:26Z</time>
      </trkpt>
      <trkpt lat="43.163620" lon="11.462570">
        <ele>143</ele>
        <time>2019-09-06T02:54:29Z</time>
      </trkpt>
      <trkpt lat="43.163520" lon="11.462310">
        <ele>143</ele>
        <time>2019-09-06T02:54:33Z</time>
      </trkpt>
      <trkpt lat="43.163440" lon="11.462190">
        <ele>143</ele>
        <time>2019-09-06T02:54:35Z</time>
      </trkpt>
      <trkpt lat="43.163020" lon="11.461910">
        <ele>143</ele>
        <time>2019-09-06T02:54:44Z</time>
      </trkpt>
      <trkpt lat="43.162590" lon="11.461520">
        <ele>143</ele>
        <time>2019-09-06T02:54:53Z</time>
      </trkpt>
      <trkpt lat="43.161520" lon="11.460410">
        <ele>146</ele>
        <time>2019-09-06T02:55:17Z</time>
      </trkpt>
      <trkpt lat="43.161380" lon="11.460180">
        <ele>146</ele>
        <time>2019-09-06T02:55:21Z</time>
      </trkpt>
      <trkpt lat="43.161300" lon="11.459970">
        <ele>146</ele>
        <time>2019-09-06T02:55:24Z</time>
      </trkpt>
      <trkpt lat="43.161170" lon="11.459270">
        <ele>146</ele>
        <time>2019-09-06T02:55:33Z</time>
      </trkpt>
      <trkpt lat="43.161030" lon="11.457830">
        <ele>148</ele>
        <time>2019-09-06T02:55:52Z</time>
      </trkpt>
      <trkpt lat="43.160770" lon="11.456920">
        <ele>149</ele>
        <time>2019-09-06T02:56:05Z</time>
      </trkpt>
      <trkpt lat="43.160710" lon="11.456800">
        <ele>149</ele>
        <time>2019-09-06T02:56:06Z</time>
      </trkpt>
      <trkpt lat="43.160650" lon="11.456740">
        <ele>149</ele>
        <time>2019-09-06T02:56:08Z</time>
      </trkpt>
      <trkpt lat="43.160580" lon="11.456770">
        <ele>149</ele>
        <time>2019-09-06T02:56:09Z</time>
      </trkpt>
      <trkpt lat="43.160500" lon="11.456850">
        <ele>148</ele>
        <time>2019-09-06T02:56:11Z</time>
      </trkpt>
      <trkpt lat="43.160420" lon="11.456980">
        <ele>148</ele>
        <time>2019-09-06T02:56:13Z</time>
      </trkpt>
      <trkpt lat="43.160360" lon="11.457410">
        <ele>147</ele>
        <time>2019-09-06T02:56:19Z</time>
      </trkpt>
      <trkpt lat="43.160300" lon="11.457540">
        <ele>147</ele>
        <time>2019-09-06T02:56:21Z</time>
      </trkpt>
      <trkpt lat="43.160190" lon="11.457620">
        <ele>147</ele>
        <time>2019-09-06T02:56:23Z</time>
      </trkpt>
      <trkpt lat="43.155770" lon="11.460010">
        <ele>146</ele>
        <time>2019-09-06T02:57:47Z</time>
      </trkpt>
      <trkpt lat="43.154820" lon="11.455010">
        <ele>155</ele>
        <time>2019-09-06T02:58:55Z</time>
      </trkpt>
      <trkpt lat="43.154740" lon="11.454820">
        <ele>157</ele>
        <time>2019-09-06T02:58:57Z</time>
      </trkpt>
      <trkpt lat="43.154620" lon="11.454900">
        <ele>157</ele>
        <time>2019-09-06T02:59:00Z</time>
      </trkpt>
      <trkpt lat="43.154080" lon="11.455640">
        <ele>157</ele>
        <time>2019-09-06T02:59:13Z</time>
      </trkpt>
      <trkpt lat="43.153100" lon="11.455940">
        <ele>157</ele>
        <time>2019-09-06T02:59:31Z</time>
      </trkpt>
      <trkpt lat="43.152860" lon="11.455940">
        <ele>157</ele>
        <time>2019-09-06T02:59:35Z</time>
      </trkpt>
      <trkpt lat="43.152000" lon="11.455790">
        <ele>161</ele>
        <time>2019-09-06T02:59:51Z</time>
      </trkpt>
      <trkpt lat="43.152860" lon="11.455940">
        <ele>157</ele>
        <time>2019-09-06T03:00:06Z</time>
      </trkpt>
      <trkpt lat="43.153100" lon="11.455940">
        <ele>157</ele>
        <time>2019-09-06T03:00:11Z</time>
      </trkpt>
      <trkpt lat="43.154080" lon="11.455640">
        <ele>157</ele>
        <time>2019-09-06T03:00:28Z</time>
      </trkpt>
      <trkpt lat="43.154620" lon="11.454900">
        <ele>157</ele>
        <time>2019-09-06T03:00:42Z</time>
      </trkpt>
      <trkpt lat="43.154740" lon="11.454820">
        <ele>157</ele>
        <time>2019-09-06T03:00:44Z</time>
      </trkpt>
      <trkpt lat="43.154820" lon="11.455010">
        <ele>155</ele>
        <time>2019-09-06T03:00:47Z</time>
      </trkpt>
      <trkpt lat="43.155770" lon="11.460010">
        <ele>146</ele>
        <time>2019-09-06T03:01:54Z</time>
      </trkpt>
      <trkpt lat="43.152920" lon="11.461470">
        <ele>145</ele>
        <time>2019-09-06T03:02:48Z</time>
      </trkpt>
      <trkpt lat="43.149900" lon="11.463100">
        <ele>144</ele>
        <time>2019-09-06T03:03:46Z</time>
      </trkpt>
      <trkpt lat="43.149730" lon="11.463080">
        <ele>144</ele>
        <time>2019-09-06T03:03:49Z</time>
      </trkpt>
      <trkpt lat="43.149540" lon="11.462960">
        <ele>144</ele>
        <time>2019-09-06T03:03:53Z</time>
      </trkpt>
      <trkpt lat="43.149280" lon="11.462600">
        <ele>143</ele>
        <time>2019-09-06T03:04:00Z</time>
      </trkpt>
      <trkpt lat="43.148430" lon="11.460660">
        <ele>151</ele>
        <time>2019-09-06T03:04:29Z</time>
      </trkpt>
      <trkpt lat="43.148280" lon="11.460480">
        <ele>152</ele>
        <time>2019-09-06T03:04:32Z</time>
      </trkpt>
      <trkpt lat="43.148100" lon="11.460320">
        <ele>153</ele>
        <time>2019-09-06T03:04:36Z</time>
      </trkpt>
      <trkpt lat="43.147830" lon="11.460210">
        <ele>154</ele>
        <time>2019-09-06T03:04:41Z</time>
      </trkpt>
      <trkpt lat="43.147630" lon="11.460210">
        <ele>155</ele>
        <time>2019-09-06T03:04:45Z</time>
      </trkpt>
      <trkpt lat="43.147330" lon="11.460250">
        <ele>157</ele>
        <time>2019-09-06T03:04:50Z</time>
      </trkpt>
      <trkpt lat="43.145930" lon="11.460690">
        <ele>163</ele>
        <time>2019-09-06T03:05:16Z</time>
      </trkpt>
      <trkpt lat="43.145630" lon="11.460770">
        <ele>163</ele>
        <time>2019-09-06T03:05:21Z</time>
      </trkpt>
      <trkpt lat="43.145340" lon="11.460790">
        <ele>162</ele>
        <time>2019-09-06T03:05:26Z</time>
      </trkpt>
      <trkpt lat="43.144800" lon="11.461160">
        <ele>161</ele>
        <time>2019-09-06T03:05:37Z</time>
      </trkpt>
      <trkpt lat="43.144220" lon="11.461430">
        <ele>157</ele>
        <time>2019-09-06T03:05:48Z</time>
      </trkpt>
      <trkpt lat="43.143810" lon="11.461710">
        <ele>154</ele>
        <time>2019-09-06T03:05:56Z</time>
      </trkpt>
      <trkpt lat="43.143580" lon="11.461930">
        <ele>153</ele>
        <time>2019-09-06T03:06:01Z</time>
      </trkpt>
      <trkpt lat="43.143430" lon="11.462180">
        <ele>152</ele>
        <time>2019-09-06T03:06:05Z</time>
      </trkpt>
      <trkpt lat="43.142610" lon="11.464160">
        <ele>146</ele>
        <time>2019-09-06T03:06:35Z</time>
      </trkpt>
      <trkpt lat="43.138560" lon="11.468420">
        <ele>140</ele>
        <time>2019-09-06T03:08:06Z</time>
      </trkpt>
      <trkpt lat="43.137590" lon="11.469390">
        <ele>141</ele>
        <time>2019-09-06T03:08:27Z</time>
      </trkpt>
      <trkpt lat="43.137190" lon="11.469740">
        <ele>140</ele>
        <time>2019-09-06T03:08:36Z</time>
      </trkpt>
      <trkpt lat="43.134350" lon="11.471330">
        <ele>139</ele>
        <time>2019-09-06T03:09:30Z</time>
      </trkpt>
      <trkpt lat="43.135140" lon="11.475430">
        <ele>138</ele>
        <time>2019-09-06T03:10:25Z</time>
      </trkpt>
      <trkpt lat="43.135350" lon="11.476190">
        <ele>139</ele>
        <time>2019-09-06T03:10:36Z</time>
      </trkpt>
      <trkpt lat="43.136020" lon="11.479260">
        <ele>143</ele>
        <time>2019-09-06T03:11:17Z</time>
      </trkpt>
      <trkpt lat="43.135260" lon="11.479540">
        <ele>144</ele>
        <time>2019-09-06T03:11:31Z</time>
      </trkpt>
      <trkpt lat="43.135390" lon="11.482000">
        <ele>146</ele>
        <time>2019-09-06T03:12:03Z</time>
      </trkpt>
      <trkpt lat="43.132220" lon="11.482310">
        <ele>144</ele>
        <time>2019-09-06T03:13:00Z</time>
      </trkpt>
      <trkpt lat="43.132070" lon="11.482380">
        <ele>144</ele>
        <time>2019-09-06T03:13:03Z</time>
      </trkpt>
      <trkpt lat="43.131890" lon="11.482330">
        <ele>144</ele>
        <time>2019-09-06T03:13:06Z</time>
      </trkpt>
      <trkpt lat="43.131750" lon="11.482340">
        <ele>144</ele>
        <time>2019-09-06T03:13:09Z</time>
      </trkpt>
      <trkpt lat="43.121020" lon="11.483290">
        <ele>143</ele>
        <time>2019-09-06T03:16:20Z</time>
      </trkpt>
      <trkpt lat="43.120610" lon="11.483310">
        <ele>143</ele>
        <time>2019-09-06T03:16:27Z</time>
      </trkpt>
      <trkpt lat="43.119330" lon="11.483500">
        <ele>142</ele>
        <time>2019-09-06T03:16:50Z</time>
      </trkpt>
      <trkpt lat="43.119130" lon="11.483430">
        <ele>142</ele>
        <time>2019-09-06T03:16:54Z</time>
      </trkpt>
      <trkpt lat="43.118980" lon="11.483250">
        <ele>142</ele>
        <time>2019-09-06T03:16:57Z</time>
      </trkpt>
      <trkpt lat="43.118900" lon="11.482900">
        <ele>141</ele>
        <time>2019-09-06T03:17:02Z</time>
      </trkpt>
      <trkpt lat="43.118860" lon="11.482550">
        <ele>140</ele>
        <time>2019-09-06T03:17:07Z</time>
      </trkpt>
      <trkpt lat="43.118800" lon="11.482340">
        <ele>140</ele>
        <time>2019-09-06T03:17:10Z</time>
      </trkpt>
      <trkpt lat="43.118700" lon="11.482160">
        <ele>141</ele>
        <time>2019-09-06T03:17:13Z</time>
      </trkpt>
      <trkpt lat="43.118490" lon="11.481940">
        <ele>141</ele>
        <time>2019-09-06T03:17:17Z</time>
      </trkpt>
      <trkpt lat="43.118260" lon="11.481800">
        <ele>142</ele>
        <time>2019-09-06T03:17:22Z</time>
      </trkpt>
      <trkpt lat="43.115900" lon="11.480760">
        <ele>162</ele>
        <time>2019-09-06T03:18:06Z</time>
      </trkpt>
      <trkpt lat="43.115140" lon="11.480470">
        <ele>163</ele>
        <time>2019-09-06T03:18:20Z</time>
      </trkpt>
      <trkpt lat="43.113270" lon="11.480150">
        <ele>160</ele>
        <time>2019-09-06T03:18:53Z</time>
      </trkpt>
      <trkpt lat="43.112930" lon="11.480070">
        <ele>158</ele>
        <time>2019-09-06T03:19:00Z</time>
      </trkpt>
      <trkpt lat="43.111500" lon="11.479520">
        <ele>153</ele>
        <time>2019-09-06T03:19:26Z</time>
      </trkpt>
      <trkpt lat="43.111100" lon="11.479440">
        <ele>152</ele>
        <time>2019-09-06T03:19:33Z</time>
      </trkpt>
      <trkpt lat="43.108570" lon="11.479240">
        <ele>142</ele>
        <time>2019-09-06T03:20:18Z</time>
      </trkpt>
      <trkpt lat="43.107540" lon="11.479220">
        <ele>138</ele>
        <time>2019-09-06T03:20:37Z</time>
      </trkpt>
      <trkpt lat="43.103710" lon="11.479390">
        <ele>153</ele>
        <time>2019-09-06T03:21:45Z</time>
      </trkpt>
      <trkpt lat="43.103500" lon="11.479430">
        <ele>153</ele>
        <time>2019-09-06T03:21:49Z</time>
      </trkpt>
      <trkpt lat="43.103300" lon="11.479560">
        <ele>152</ele>
        <time>2019-09-06T03:21:52Z</time>
      </trkpt>
      <trkpt lat="43.102130" lon="11.480520">
        <ele>145</ele>
        <time>2019-09-06T03:22:17Z</time>
      </trkpt>
      <trkpt lat="43.101810" lon="11.480820">
        <ele>144</ele>
        <time>2019-09-06T03:22:24Z</time>
      </trkpt>
      <trkpt lat="43.099990" lon="11.483140">
        <ele>145</ele>
        <time>2019-09-06T03:23:08Z</time>
      </trkpt>
      <trkpt lat="43.099820" lon="11.483240">
        <ele>145</ele>
        <time>2019-09-06T03:23:11Z</time>
      </trkpt>
      <trkpt lat="43.099610" lon="11.483300">
        <ele>145</ele>
        <time>2019-09-06T03:23:15Z</time>
      </trkpt>
      <trkpt lat="43.098960" lon="11.483340">
        <ele>147</ele>
        <time>2019-09-06T03:23:27Z</time>
      </trkpt>
      <trkpt lat="43.098530" lon="11.483440">
        <ele>148</ele>
        <time>2019-09-06T03:23:34Z</time>
      </trkpt>
      <trkpt lat="43.097570" lon="11.483980">
        <ele>152</ele>
        <time>2019-09-06T03:23:53Z</time>
      </trkpt>
      <trkpt lat="43.096310" lon="11.485060">
        <ele>152</ele>
        <time>2019-09-06T03:24:19Z</time>
      </trkpt>
      <trkpt lat="43.095820" lon="11.485380">
        <ele>153</ele>
        <time>2019-09-06T03:24:29Z</time>
      </trkpt>
      <trkpt lat="43.095200" lon="11.485590">
        <ele>154</ele>
        <time>2019-09-06T03:24:40Z</time>
      </trkpt>
      <trkpt lat="43.094490" lon="11.485900">
        <ele>154</ele>
        <time>2019-09-06T03:24:54Z</time>
      </trkpt>
      <trkpt lat="43.094160" lon="11.486010">
        <ele>155</ele>
        <time>2019-09-06T03:25:00Z</time>
      </trkpt>
      <trkpt lat="43.089240" lon="11.486720">
        <ele>158</ele>
        <time>2019-09-06T03:26:28Z</time>
      </trkpt>
      <trkpt lat="43.088860" lon="11.486710">
        <ele>158</ele>
        <time>2019-09-06T03:26:34Z</time>
      </trkpt>
      <trkpt lat="43.088680" lon="11.486640">
        <ele>158</ele>
        <time>2019-09-06T03:26:38Z</time>
      </trkpt>
      <trkpt lat="43.088430" lon="11.486480">
        <ele>160</ele>
        <time>2019-09-06T03:26:43Z</time>
      </trkpt>
      <trkpt lat="43.088240" lon="11.486220">
        <ele>162</ele>
        <time>2019-09-06T03:26:47Z</time>
      </trkpt>
      <trkpt lat="43.087120" lon="11.484390">
        <ele>166</ele>
        <time>2019-09-06T03:27:18Z</time>
      </trkpt>
      <trkpt lat="43.086900" lon="11.484120">
        <ele>167</ele>
        <time>2019-09-06T03:27:24Z</time>
      </trkpt>
      <trkpt lat="43.086640" lon="11.483950">
        <ele>166</ele>
        <time>2019-09-06T03:27:29Z</time>
      </trkpt>
      <trkpt lat="43.086390" lon="11.483880">
        <ele>167</ele>
        <time>2019-09-06T03:27:33Z</time>
      </trkpt>
      <trkpt lat="43.086150" lon="11.483890">
        <ele>168</ele>
        <time>2019-09-06T03:27:38Z</time>
      </trkpt>
      <trkpt lat="43.083860" lon="11.484100">
        <ele>189</ele>
        <time>2019-09-06T03:28:18Z</time>
      </trkpt>
      <trkpt lat="43.083530" lon="11.484180">
        <ele>192</ele>
        <time>2019-09-06T03:28:24Z</time>
      </trkpt>
      <trkpt lat="43.082720" lon="11.484570">
        <ele>198</ele>
        <time>2019-09-06T03:28:40Z</time>
      </trkpt>
      <trkpt lat="43.082470" lon="11.484570">
        <ele>200</ele>
        <time>2019-09-06T03:28:44Z</time>
      </trkpt>
      <trkpt lat="43.081560" lon="11.484230">
        <ele>211</ele>
        <time>2019-09-06T03:29:01Z</time>
      </trkpt>
      <trkpt lat="43.081380" lon="11.484210">
        <ele>213</ele>
        <time>2019-09-06T03:29:04Z</time>
      </trkpt>
      <trkpt lat="43.081280" lon="11.484280">
        <ele>213</ele>
        <time>2019-09-06T03:29:06Z</time>
      </trkpt>
      <trkpt lat="43.081100" lon="11.484570">
        <ele>213</ele>
        <time>2019-09-06T03:29:11Z</time>
      </trkpt>
      <trkpt lat="43.080980" lon="11.485460">
        <ele>212</ele>
        <time>2019-09-06T03:29:23Z</time>
      </trkpt>
      <trkpt lat="43.080900" lon="11.485710">
        <ele>214</ele>
        <time>2019-09-06T03:29:26Z</time>
      </trkpt>
      <trkpt lat="43.080770" lon="11.485940">
        <ele>215</ele>
        <time>2019-09-06T03:29:30Z</time>
      </trkpt>
      <trkpt lat="43.080260" lon="11.486550">
        <ele>223</ele>
        <time>2019-09-06T03:29:42Z</time>
      </trkpt>
      <trkpt lat="43.079840" lon="11.487500">
        <ele>225</ele>
        <time>2019-09-06T03:29:57Z</time>
      </trkpt>
      <trkpt lat="43.079520" lon="11.487810">
        <ele>227</ele>
        <time>2019-09-06T03:30:04Z</time>
      </trkpt>
      <trkpt lat="43.078510" lon="11.488520">
        <ele>235</ele>
        <time>2019-09-06T03:30:24Z</time>
      </trkpt>
      <trkpt lat="43.078370" lon="11.488780">
        <ele>236</ele>
        <time>2019-09-06T03:30:28Z</time>
      </trkpt>
      <trkpt lat="43.078350" lon="11.489180">
        <ele>235</ele>
        <time>2019-09-06T03:30:33Z</time>
      </trkpt>
      <trkpt lat="43.078500" lon="11.489800">
        <ele>234</ele>
        <time>2019-09-06T03:30:42Z</time>
      </trkpt>
      <trkpt lat="43.078520" lon="11.490100">
        <ele>235</ele>
        <time>2019-09-06T03:30:46Z</time>
      </trkpt>
      <trkpt lat="43.078200" lon="11.491140">
        <ele>240</ele>
        <time>2019-09-06T03:31:00Z</time>
      </trkpt>
      <trkpt lat="43.078100" lon="11.492060">
        <ele>244</ele>
        <time>2019-09-06T03:31:12Z</time>
      </trkpt>
      <trkpt lat="43.078000" lon="11.492360">
        <ele>246</ele>
        <time>2019-09-06T03:31:17Z</time>
      </trkpt>
      <trkpt lat="43.077890" lon="11.492560">
        <ele>247</ele>
        <time>2019-09-06T03:31:20Z</time>
      </trkpt>
      <trkpt lat="43.077690" lon="11.492750">
        <ele>249</ele>
        <time>2019-09-06T03:31:24Z</time>
      </trkpt>
      <trkpt lat="43.077420" lon="11.492870">
        <ele>250</ele>
        <time>2019-09-06T03:31:29Z</time>
      </trkpt>
      <trkpt lat="43.076960" lon="11.493190">
        <ele>251</ele>
        <time>2019-09-06T03:31:38Z</time>
      </trkpt>
      <trkpt lat="43.076660" lon="11.493430">
        <ele>251</ele>
        <time>2019-09-06T03:31:45Z</time>
      </trkpt>
      <trkpt lat="43.075360" lon="11.494750">
        <ele>256</ele>
        <time>2019-09-06T03:32:13Z</time>
      </trkpt>
      <trkpt lat="43.073900" lon="11.495950">
        <ele>265</ele>
        <time>2019-09-06T03:32:44Z</time>
      </trkpt>
      <trkpt lat="43.072780" lon="11.496460">
        <ele>273</ele>
        <time>2019-09-06T03:33:05Z</time>
      </trkpt>
      <trkpt lat="43.072550" lon="11.496610">
        <ele>275</ele>
        <time>2019-09-06T03:33:09Z</time>
      </trkpt>
      <trkpt lat="43.070520" lon="11.498180">
        <ele>283</ele>
        <time>2019-09-06T03:33:51Z</time>
      </trkpt>
      <trkpt lat="43.070160" lon="11.498420">
        <ele>285</ele>
        <time>2019-09-06T03:33:58Z</time>
      </trkpt>
      <trkpt lat="43.069670" lon="11.498630">
        <ele>286</ele>
        <time>2019-09-06T03:34:07Z</time>
      </trkpt>
      <trkpt lat="43.068850" lon="11.498850">
        <ele>291</ele>
        <time>2019-09-06T03:34:22Z</time>
      </trkpt>
      <trkpt lat="43.067790" lon="11.499180">
        <ele>300</ele>
        <time>2019-09-06T03:34:41Z</time>
      </trkpt>
      <trkpt lat="43.067520" lon="11.499320">
        <ele>303</ele>
        <time>2019-09-06T03:34:46Z</time>
      </trkpt>
      <trkpt lat="43.066680" lon="11.499890">
        <ele>307</ele>
        <time>2019-09-06T03:35:03Z</time>
      </trkpt>
      <trkpt lat="43.066090" lon="11.500080">
        <ele>311</ele>
        <time>2019-09-06T03:35:14Z</time>
      </trkpt>
      <trkpt lat="43.065850" lon="11.500240">
        <ele>314</ele>
        <time>2019-09-06T03:35:19Z</time>
      </trkpt>
      <trkpt lat="43.065800" lon="11.499800">
        <ele>316</ele>
        <time>2019-09-06T03:35:24Z</time>
      </trkpt>
      <trkpt lat="43.065560" lon="11.499330">
        <ele>324</ele>
        <time>2019-09-06T03:35:32Z</time>
      </trkpt>
      <trkpt lat="43.065160" lon="11.498650">
        <ele>335</ele>
        <time>2019-09-06T03:35:43Z</time>
      </trkpt>
      <trkpt lat="43.065100" lon="11.498400">
        <ele>338</ele>
        <time>2019-09-06T03:35:47Z</time>
      </trkpt>
      <trkpt lat="43.065020" lon="11.498320">
        <ele>341</ele>
        <time>2019-09-06T03:35:48Z</time>
      </trkpt>
      <trkpt lat="43.064950" lon="11.498010">
        <ele>341</ele>
        <time>2019-09-06T03:35:53Z</time>
      </trkpt>
      <trkpt lat="43.064860" lon="11.497870">
        <ele>342</ele>
        <time>2019-09-06T03:35:55Z</time>
      </trkpt>
      <trkpt lat="43.064700" lon="11.497990">
        <ele>345</ele>
        <time>2019-09-06T03:35:58Z</time>
      </trkpt>
      <trkpt lat="43.064510" lon="11.498040">
        <ele>348</ele>
        <time>2019-09-06T03:36:02Z</time>
      </trkpt>
      <trkpt lat="43.064310" lon="11.498020">
        <ele>352</ele>
        <time>2019-09-06T03:36:05Z</time>
      </trkpt>
      <trkpt lat="43.063630" lon="11.497550">
        <ele>364</ele>
        <time>2019-09-06T03:36:19Z</time>
      </trkpt>
      <trkpt lat="43.063170" lon="11.497340">
        <ele>368</ele>
        <time>2019-09-06T03:36:27Z</time>
      </trkpt>
      <trkpt lat="43.062730" lon="11.497100">
        <ele>372</ele>
        <time>2019-09-06T03:36:36Z</time>
      </trkpt>
      <trkpt lat="43.062380" lon="11.496800">
        <ele>377</ele>
        <time>2019-09-06T03:36:43Z</time>
      </trkpt>
      <trkpt lat="43.061910" lon="11.495960">
        <ele>390</ele>
        <time>2019-09-06T03:36:57Z</time>
      </trkpt>
      <trkpt lat="43.061740" lon="11.495360">
        <ele>399</ele>
        <time>2019-09-06T03:37:05Z</time>
      </trkpt>
      <trkpt lat="43.061610" lon="11.494990">
        <ele>407</ele>
        <time>2019-09-06T03:37:11Z</time>
      </trkpt>
      <trkpt lat="43.061500" lon="11.494780">
        <ele>413</ele>
        <time>2019-09-06T03:37:14Z</time>
      </trkpt>
      <trkpt lat="43.061440" lon="11.494540">
        <ele>418</ele>
        <time>2019-09-06T03:37:17Z</time>
      </trkpt>
      <trkpt lat="43.061430" lon="11.494330">
        <ele>422</ele>
        <time>2019-09-06T03:37:20Z</time>
      </trkpt>
      <trkpt lat="43.061560" lon="11.494030">
        <ele>420</ele>
        <time>2019-09-06T03:37:25Z</time>
      </trkpt>
      <trkpt lat="43.061600" lon="11.493850">
        <ele>421</ele>
        <time>2019-09-06T03:37:27Z</time>
      </trkpt>
      <trkpt lat="43.061630" lon="11.493430">
        <ele>425</ele>
        <time>2019-09-06T03:37:33Z</time>
      </trkpt>
      <trkpt lat="43.061500" lon="11.492910">
        <ele>443</ele>
        <time>2019-09-06T03:37:40Z</time>
      </trkpt>
      <trkpt lat="43.061530" lon="11.492780">
        <ele>445</ele>
        <time>2019-09-06T03:37:41Z</time>
      </trkpt>
      <trkpt lat="43.061570" lon="11.492680">
        <ele>446</ele>
        <time>2019-09-06T03:37:43Z</time>
      </trkpt>
      <trkpt lat="43.061870" lon="11.492630">
        <ele>439</ele>
        <time>2019-09-06T03:37:48Z</time>
      </trkpt>
      <trkpt lat="43.061950" lon="11.492570">
        <ele>438</ele>
        <time>2019-09-06T03:37:50Z</time>
      </trkpt>
      <trkpt lat="43.062130" lon="11.492360">
        <ele>439</ele>
        <time>2019-09-06T03:37:54Z</time>
      </trkpt>
      <trkpt lat="43.062280" lon="11.491600">
        <ele>451</ele>
        <time>2019-09-06T03:38:04Z</time>
      </trkpt>
      <trkpt lat="43.062280" lon="11.491170">
        <ele>458</ele>
        <time>2019-09-06T03:38:10Z</time>
      </trkpt>
      <trkpt lat="43.062250" lon="11.491050">
        <ele>461</ele>
        <time>2019-09-06T03:38:12Z</time>
      </trkpt>
      <trkpt lat="43.062340" lon="11.490530">
        <ele>464</ele>
        <time>2019-09-06T03:38:19Z</time>
      </trkpt>
      <trkpt lat="43.062340" lon="11.490120">
        <ele>469</ele>
        <time>2019-09-06T03:38:24Z</time>
      </trkpt>
      <trkpt lat="43.062320" lon="11.489840">
        <ele>472</ele>
        <time>2019-09-06T03:38:28Z</time>
      </trkpt>
      <trkpt lat="43.062230" lon="11.489310">
        <ele>480</ele>
        <time>2019-09-06T03:38:35Z</time>
      </trkpt>
      <trkpt lat="43.062200" lon="11.489260">
        <ele>481</ele>
        <time>2019-09-06T03:38:35Z</time>
      </trkpt>
      <trkpt lat="43.062040" lon="11.489870">
        <ele>487</ele>
        <time>2019-09-06T03:38:44Z</time>
      </trkpt>
      <trkpt lat="43.061890" lon="11.490230">
        <ele>492</ele>
        <time>2019-09-06T03:38:49Z</time>
      </trkpt>
      <trkpt lat="43.061760" lon="11.490450">
        <ele>496</ele>
        <time>2019-09-06T03:38:53Z</time>
      </trkpt>
      <trkpt lat="43.061580" lon="11.490630">
        <ele>501</ele>
        <time>2019-09-06T03:38:57Z</time>
      </trkpt>
      <trkpt lat="43.061290" lon="11.490770">
        <ele>506</ele>
        <time>2019-09-06T03:39:02Z</time>
      </trkpt>
      <trkpt lat="43.060780" lon="11.490970">
        <ele>513</ele>
        <time>2019-09-06T03:39:12Z</time>
      </trkpt>
      <trkpt lat="43.060400" lon="11.491410">
        <ele>508</ele>
        <time>2019-09-06T03:39:21Z</time>
      </trkpt>
      <trkpt lat="43.060350" lon="11.491440">
        <ele>509</ele>
        <time>2019-09-06T03:39:22Z</time>
      </trkpt>
      <trkpt lat="43.060120" lon="11.491430">
        <ele>512</ele>
        <time>2019-09-06T03:39:26Z</time>
      </trkpt>
      <trkpt lat="43.060020" lon="11.491500">
        <ele>513</ele>
        <time>2019-09-06T03:39:28Z</time>
      </trkpt>
      <trkpt lat="43.059990" lon="11.491390">
        <ele>514</ele>
        <time>2019-09-06T03:39:29Z</time>
      </trkpt>
      <trkpt lat="43.059600" lon="11.490750">
        <ele>515</ele>
        <time>2019-09-06T03:39:40Z</time>
      </trkpt>
      <trkpt lat="43.059550" lon="11.490720">
        <ele>516</ele>
        <time>2019-09-06T03:39:41Z</time>
      </trkpt>
      <trkpt lat="43.059110" lon="11.490660">
        <ele>516</ele>
        <time>2019-09-06T03:39:49Z</time>
      </trkpt>
      <trkpt lat="43.058890" lon="11.490690">
        <ele>518</ele>
        <time>2019-09-06T03:39:53Z</time>
      </trkpt>
      <trkpt lat="43.058620" lon="11.490850">
        <ele>517</ele>
        <time>2019-09-06T03:39:58Z</time>
      </trkpt>
      <trkpt lat="43.057810" lon="11.491130">
        <ele>526</ele>
        <time>2019-09-06T03:40:13Z</time>
      </trkpt>
      <trkpt lat="43.057650" lon="11.491160">
        <ele>529</ele>
        <time>2019-09-06T03:40:16Z</time>
      </trkpt>
      <trkpt lat="43.057420" lon="11.491410">
        <ele>530</ele>
        <time>2019-09-06T03:40:21Z</time>
      </trkpt>
      <trkpt lat="43.057200" lon="11.491430">
        <ele>532</ele>
        <time>2019-09-06T03:40:25Z</time>
      </trkpt>
      <trkpt lat="43.056980" lon="11.491390">
        <ele>534</ele>
        <time>2019-09-06T03:40:29Z</time>
      </trkpt>
      <trkpt lat="43.056730" lon="11.491420">
        <ele>536</ele>
        <time>2019-09-06T03:40:33Z</time>
      </trkpt>
      <trkpt lat="43.056660" lon="11.491480">
        <ele>536</ele>
        <time>2019-09-06T03:40:35Z</time>
      </trkpt>
      <trkpt lat="43.056580" lon="11.491660">
        <ele>533</ele>
        <time>2019-09-06T03:40:38Z</time>
      </trkpt>
      <trkpt lat="43.056360" lon="11.491790">
        <ele>531</ele>
        <time>2019-09-06T03:40:42Z</time>
      </trkpt>
      <trkpt lat="43.056140" lon="11.491840">
        <ele>529</ele>
        <time>2019-09-06T03:40:46Z</time>
      </trkpt>
      <trkpt lat="43.055810" lon="11.491870">
        <ele>528</ele>
        <time>2019-09-06T03:40:52Z</time>
      </trkpt>
      <trkpt lat="43.055610" lon="11.491940">
        <ele>522</ele>
        <time>2019-09-06T03:40:55Z</time>
      </trkpt>
      <trkpt lat="43.055460" lon="11.491940">
        <ele>519</ele>
        <time>2019-09-06T03:40:58Z</time>
      </trkpt>
      <trkpt lat="43.055450" lon="11.491800">
        <ele>523</ele>
        <time>2019-09-06T03:41:00Z</time>
      </trkpt>
      <trkpt lat="43.055360" lon="11.491710">
        <ele>523</ele>
        <time>2019-09-06T03:41:02Z</time>
      </trkpt>
      <trkpt lat="43.055230" lon="11.491500">
        <ele>525</ele>
        <time>2019-09-06T03:41:05Z</time>
      </trkpt>
      <trkpt lat="43.054990" lon="11.490940">
        <ele>534</ele>
        <time>2019-09-06T03:41:14Z</time>
      </trkpt>
      <trkpt lat="43.054780" lon="11.490610">
        <ele>540</ele>
        <time>2019-09-06T03:41:20Z</time>
      </trkpt>
      <trkpt lat="43.054450" lon="11.490230">
        <ele>544</ele>
        <time>2019-09-06T03:41:27Z</time>
      </trkpt>
      <trkpt lat="43.054220" lon="11.490020">
        <ele>546</ele>
        <time>2019-09-06T03:41:32Z</time>
      </trkpt>
      <trkpt lat="43.054130" lon="11.489820">
        <ele>549</ele>
        <time>2019-09-06T03:41:35Z</time>
      </trkpt>
      <trkpt lat="43.054150" lon="11.489540">
        <ele>551</ele>
        <time>2019-09-06T03:41:39Z</time>
      </trkpt>
      <trkpt lat="43.054200" lon="11.489410">
        <ele>552</ele>
        <time>2019-09-06T03:41:41Z</time>
      </trkpt>
      <trkpt lat="43.054260" lon="11.489350">
        <ele>553</ele>
        <time>2019-09-06T03:41:42Z</time>
      </trkpt>
      <trkpt lat="43.054330" lon="11.489300">
        <ele>553</ele>
        <time>2019-09-06T03:41:44Z</time>
      </trkpt>
      <trkpt lat="43.054430" lon="11.489280">
        <ele>553</ele>
        <time>2019-09-06T03:41:45Z</time>
      </trkpt>
      <trkpt lat="43.054880" lon="11.489230">
        <ele>553</ele>
        <time>2019-09-06T03:41:53Z</time>
      </trkpt>
      <trkpt lat="43.055120" lon="11.489180">
        <ele>552</ele>
        <time>2019-09-06T03:41:58Z</time>
      </trkpt>
      <trkpt lat="43.055190" lon="11.489100">
        <ele>552</ele>
        <time>2019-09-06T03:41:59Z</time>
      </trkpt>
      <trkpt lat="43.055180" lon="11.489000">
        <ele>552</ele>
        <time>2019-09-06T03:42:01Z</time>
      </trkpt>
      <trkpt lat="43.055130" lon="11.488960">
        <ele>552</ele>
        <time>2019-09-06T03:42:02Z</time>
      </trkpt>
      <trkpt lat="43.055090" lon="11.488960">
        <ele>552</ele>
        <time>2019-09-06T03:42:02Z</time>
      </trkpt>
      <trkpt lat="43.055040" lon="11.489010">
        <ele>553</ele>
        <time>2019-09-06T03:42:03Z</time>
      </trkpt>
      <trkpt lat="43.055030" lon="11.489070">
        <ele>553</ele>
        <time>2019-09-06T03:42:04Z</time>
      </trkpt>
      <trkpt lat="43.054090" lon="11.489170">
        <ele>556</ele>
        <time>2019-09-06T03:42:21Z</time>
      </trkpt>
      <trkpt lat="43.053940" lon="11.489270">
        <ele>558</ele>
        <time>2019-09-06T03:42:24Z</time>
      </trkpt>
      <trkpt lat="43.053840" lon="11.489410">
        <ele>558</ele>
        <time>2019-09-06T03:42:27Z</time>
      </trkpt>
      <trkpt lat="43.053800" lon="11.489520">
        <ele>558</ele>
        <time>2019-09-06T03:42:28Z</time>
      </trkpt>
      <trkpt lat="43.053760" lon="11.489800">
        <ele>557</ele>
        <time>2019-09-06T03:42:32Z</time>
      </trkpt>
      <trkpt lat="43.053690" lon="11.491520">
        <ele>545</ele>
        <time>2019-09-06T03:42:54Z</time>
      </trkpt>
      <trkpt lat="43.053640" lon="11.491780">
        <ele>542</ele>
        <time>2019-09-06T03:42:58Z</time>
      </trkpt>
      <trkpt lat="43.053570" lon="11.491900">
        <ele>541</ele>
        <time>2019-09-06T03:43:00Z</time>
      </trkpt>
      <trkpt lat="43.053470" lon="11.491950">
        <ele>541</ele>
        <time>2019-09-06T03:43:02Z</time>
      </trkpt>
      <trkpt lat="43.053340" lon="11.491950">
        <ele>543</ele>
        <time>2019-09-06T03:43:04Z</time>
      </trkpt>
      <trkpt lat="43.052970" lon="11.491750">
        <ele>551</ele>
        <time>2019-09-06T03:43:11Z</time>
      </trkpt>
      <trkpt lat="43.052810" lon="11.491700">
        <ele>554</ele>
        <time>2019-09-06T03:43:14Z</time>
      </trkpt>
      <trkpt lat="43.052690" lon="11.491710">
        <ele>554</ele>
        <time>2019-09-06T03:43:16Z</time>
      </trkpt>
      <trkpt lat="43.052580" lon="11.491780">
        <ele>554</ele>
        <time>2019-09-06T03:43:18Z</time>
      </trkpt>
      <trkpt lat="43.052470" lon="11.491900">
        <ele>552</ele>
        <time>2019-09-06T03:43:21Z</time>
      </trkpt>
      <trkpt lat="43.052380" lon="11.492060">
        <ele>549</ele>
        <time>2019-09-06T03:43:23Z</time>
      </trkpt>
      <trkpt lat="43.052280" lon="11.492320">
        <ele>545</ele>
        <time>2019-09-06T03:43:27Z</time>
      </trkpt>
      <trkpt lat="43.052200" lon="11.492440">
        <ele>543</ele>
        <time>2019-09-06T03:43:29Z</time>
      </trkpt>
      <trkpt lat="43.052110" lon="11.492470">
        <ele>543</ele>
        <time>2019-09-06T03:43:31Z</time>
      </trkpt>
      <trkpt lat="43.052010" lon="11.492440">
        <ele>544</ele>
        <time>2019-09-06T03:43:33Z</time>
      </trkpt>
      <trkpt lat="43.051810" lon="11.492220">
        <ele>549</ele>
        <time>2019-09-06T03:43:37Z</time>
      </trkpt>
      <trkpt lat="43.051650" lon="11.491790">
        <ele>556</ele>
        <time>2019-09-06T03:43:44Z</time>
      </trkpt>
      <trkpt lat="43.051580" lon="11.491670">
        <ele>558</ele>
        <time>2019-09-06T03:43:46Z</time>
      </trkpt>
      <trkpt lat="43.051510" lon="11.491630">
        <ele>560</ele>
        <time>2019-09-06T03:43:47Z</time>
      </trkpt>
      <trkpt lat="43.051430" lon="11.491640">
        <ele>561</ele>
        <time>2019-09-06T03:43:48Z</time>
      </trkpt>
      <trkpt lat="43.051350" lon="11.491720">
        <ele>561</ele>
        <time>2019-09-06T03:43:50Z</time>
      </trkpt>
      <trkpt lat="43.051300" lon="11.492010">
        <ele>560</ele>
        <time>2019-09-06T03:43:54Z</time>
      </trkpt>
      <trkpt lat="43.051290" lon="11.493350">
        <ele>550</ele>
        <time>2019-09-06T03:44:11Z</time>
      </trkpt>
      <trkpt lat="43.051040" lon="11.494790">
        <ele>545</ele>
        <time>2019-09-06T03:44:31Z</time>
      </trkpt>
      <trkpt lat="43.050950" lon="11.495870">
        <ele>539</ele>
        <time>2019-09-06T03:44:45Z</time>
      </trkpt>
      <trkpt lat="43.050720" lon="11.496580">
        <ele>533</ele>
        <time>2019-09-06T03:44:55Z</time>
      </trkpt>
      <trkpt lat="43.050550" lon="11.496900">
        <ele>530</ele>
        <time>2019-09-06T03:45:00Z</time>
      </trkpt>
      <trkpt lat="43.050430" lon="11.497000">
        <ele>529</ele>
        <time>2019-09-06T03:45:03Z</time>
      </trkpt>
      <trkpt lat="43.050300" lon="11.497060">
        <ele>529</ele>
        <time>2019-09-06T03:45:05Z</time>
      </trkpt>
      <trkpt lat="43.050190" lon="11.497060">
        <ele>530</ele>
        <time>2019-09-06T03:45:07Z</time>
      </trkpt>
      <trkpt lat="43.049060" lon="11.496220">
        <ele>526</ele>
        <time>2019-09-06T03:45:30Z</time>
      </trkpt>
      <trkpt lat="43.048830" lon="11.496000">
        <ele>524</ele>
        <time>2019-09-06T03:45:35Z</time>
      </trkpt>
      <trkpt lat="43.048570" lon="11.495360">
        <ele>525</ele>
        <time>2019-09-06T03:45:44Z</time>
      </trkpt>
      <trkpt lat="43.048270" lon="11.495040">
        <ele>521</ele>
        <time>2019-09-06T03:45:51Z</time>
      </trkpt>
      <trkpt lat="43.048230" lon="11.494870">
        <ele>523</ele>
        <time>2019-09-06T03:45:53Z</time>
      </trkpt>
      <trkpt lat="43.048210" lon="11.494610">
        <ele>524</ele>
        <time>2019-09-06T03:45:57Z</time>
      </trkpt>
      <trkpt lat="43.048230" lon="11.494320">
        <ele>526</ele>
        <time>2019-09-06T03:46:01Z</time>
      </trkpt>
      <trkpt lat="43.048360" lon="11.493890">
        <ele>529</ele>
        <time>2019-09-06T03:46:07Z</time>
      </trkpt>
      <trkpt lat="43.048370" lon="11.493750">
        <ele>530</ele>
        <time>2019-09-06T03:46:09Z</time>
      </trkpt>
      <trkpt lat="43.048310" lon="11.493570">
        <ele>530</ele>
        <time>2019-09-06T03:46:11Z</time>
      </trkpt>
      <trkpt lat="43.048250" lon="11.493510">
        <ele>531</ele>
        <time>2019-09-06T03:46:12Z</time>
      </trkpt>
      <trkpt lat="43.048160" lon="11.493510">
        <ele>533</ele>
        <time>2019-09-06T03:46:14Z</time>
      </trkpt>
      <trkpt lat="43.048090" lon="11.493530">
        <ele>534</ele>
        <time>2019-09-06T03:46:15Z</time>
      </trkpt>
      <trkpt lat="43.047950" lon="11.493690">
        <ele>534</ele>
        <time>2019-09-06T03:46:19Z</time>
      </trkpt>
      <trkpt lat="43.047200" lon="11.495610">
        <ele>515</ele>
        <time>2019-09-06T03:46:47Z</time>
      </trkpt>
      <trkpt lat="43.047090" lon="11.495790">
        <ele>513</ele>
        <time>2019-09-06T03:46:50Z</time>
      </trkpt>
      <trkpt lat="43.046920" lon="11.495940">
        <ele>513</ele>
        <time>2019-09-06T03:46:54Z</time>
      </trkpt>
      <trkpt lat="43.046590" lon="11.496060">
        <ele>513</ele>
        <time>2019-09-06T03:47:00Z</time>
      </trkpt>
      <trkpt lat="43.044040" lon="11.496380">
        <ele>500</ele>
        <time>2019-09-06T03:47:45Z</time>
      </trkpt>
      <trkpt lat="43.043230" lon="11.496540">
        <ele>502</ele>
        <time>2019-09-06T03:48:00Z</time>
      </trkpt>
      <trkpt lat="43.042910" lon="11.496670">
        <ele>499</ele>
        <time>2019-09-06T03:48:06Z</time>
      </trkpt>
      <trkpt lat="43.042460" lon="11.496900">
        <ele>496</ele>
        <time>2019-09-06T03:48:14Z</time>
      </trkpt>
      <trkpt lat="43.042180" lon="11.497100">
        <ele>494</ele>
        <time>2019-09-06T03:48:20Z</time>
      </trkpt>
      <trkpt lat="43.041940" lon="11.497380">
        <ele>491</ele>
        <time>2019-09-06T03:48:25Z</time>
      </trkpt>
      <trkpt lat="43.041680" lon="11.497760">
        <ele>489</ele>
        <time>2019-09-06T03:48:32Z</time>
      </trkpt>
      <trkpt lat="43.041400" lon="11.498240">
        <ele>487</ele>
        <time>2019-09-06T03:48:40Z</time>
      </trkpt>
      <trkpt lat="43.040160" lon="11.500560">
        <ele>480</ele>
        <time>2019-09-06T03:49:18Z</time>
      </trkpt>
      <trkpt lat="43.039360" lon="11.502000">
        <ele>480</ele>
        <time>2019-09-06T03:49:41Z</time>
      </trkpt>
      <trkpt lat="43.039080" lon="11.502370">
        <ele>481</ele>
        <time>2019-09-06T03:49:48Z</time>
      </trkpt>
      <trkpt lat="43.038730" lon="11.502680">
        <ele>480</ele>
        <time>2019-09-06T03:49:55Z</time>
      </trkpt>
      <trkpt lat="43.037470" lon="11.503630">
        <ele>475</ele>
        <time>2019-09-06T03:50:21Z</time>
      </trkpt>
      <trkpt lat="43.037160" lon="11.503820">
        <ele>476</ele>
        <time>2019-09-06T03:50:27Z</time>
      </trkpt>
      <trkpt lat="43.036900" lon="11.503910">
        <ele>476</ele>
        <time>2019-09-06T03:50:32Z</time>
      </trkpt>
      <trkpt lat="43.036640" lon="11.503860">
        <ele>475</ele>
        <time>2019-09-06T03:50:37Z</time>
      </trkpt>
      <trkpt lat="43.036070" lon="11.503680">
        <ele>469</ele>
        <time>2019-09-06T03:50:47Z</time>
      </trkpt>
      <trkpt lat="43.035870" lon="11.503670">
        <ele>467</ele>
        <time>2019-09-06T03:50:50Z</time>
      </trkpt>
      <trkpt lat="43.035690" lon="11.503750">
        <ele>467</ele>
        <time>2019-09-06T03:50:54Z</time>
      </trkpt>
      <trkpt lat="43.035490" lon="11.503900">
        <ele>467</ele>
        <time>2019-09-06T03:50:58Z</time>
      </trkpt>
      <trkpt lat="43.034730" lon="11.504680">
        <ele>468</ele>
        <time>2019-09-06T03:51:15Z</time>
      </trkpt>
      <trkpt lat="43.033980" lon="11.505520">
        <ele>468</ele>
        <time>2019-09-06T03:51:32Z</time>
      </trkpt>
      <trkpt lat="43.033290" lon="11.506670">
        <ele>465</ele>
        <time>2019-09-06T03:51:51Z</time>
      </trkpt>
      <trkpt lat="43.032840" lon="11.507360">
        <ele>461</ele>
        <time>2019-09-06T03:52:03Z</time>
      </trkpt>
      <trkpt lat="43.032710" lon="11.507500">
        <ele>460</ele>
        <time>2019-09-06T03:52:06Z</time>
      </trkpt>
      <trkpt lat="43.032590" lon="11.507590">
        <ele>459</ele>
        <time>2019-09-06T03:52:09Z</time>
      </trkpt>
      <trkpt lat="43.032430" lon="11.507630">
        <ele>457</ele>
        <time>2019-09-06T03:52:12Z</time>
      </trkpt>
      <trkpt lat="43.030910" lon="11.507480">
        <ele>448</ele>
        <time>2019-09-06T03:52:39Z</time>
      </trkpt>
      <trkpt lat="43.030650" lon="11.507510">
        <ele>446</ele>
        <time>2019-09-06T03:52:43Z</time>
      </trkpt>
      <trkpt lat="43.030440" lon="11.507610">
        <ele>446</ele>
        <time>2019-09-06T03:52:47Z</time>
      </trkpt>
      <trkpt lat="43.028240" lon="11.509320">
        <ele>438</ele>
        <time>2019-09-06T03:53:32Z</time>
      </trkpt>
      <trkpt lat="43.027800" lon="11.510000">
        <ele>436</ele>
        <time>2019-09-06T03:53:44Z</time>
      </trkpt>
      <trkpt lat="43.027600" lon="11.510230">
        <ele>434</ele>
        <time>2019-09-06T03:53:49Z</time>
      </trkpt>
      <trkpt lat="43.027120" lon="11.510700">
        <ele>430</ele>
        <time>2019-09-06T03:53:59Z</time>
      </trkpt>
      <trkpt lat="43.027030" lon="11.510850">
        <ele>429</ele>
        <time>2019-09-06T03:54:02Z</time>
      </trkpt>
      <trkpt lat="43.026920" lon="11.511200">
        <ele>429</ele>
        <time>2019-09-06T03:54:07Z</time>
      </trkpt>
      <trkpt lat="43.026850" lon="11.511330">
        <ele>429</ele>
        <time>2019-09-06T03:54:09Z</time>
      </trkpt>
      <trkpt lat="43.026720" lon="11.511410">
        <ele>427</ele>
        <time>2019-09-06T03:54:12Z</time>
      </trkpt>
      <trkpt lat="43.025930" lon="11.511620">
        <ele>419</ele>
        <time>2019-09-06T03:54:26Z</time>
      </trkpt>
      <trkpt lat="43.025780" lon="11.511700">
        <ele>418</ele>
        <time>2019-09-06T03:54:29Z</time>
      </trkpt>
      <trkpt lat="43.025020" lon="11.512510">
        <ele>415</ele>
        <time>2019-09-06T03:54:46Z</time>
      </trkpt>
      <trkpt lat="43.023040" lon="11.513820">
        <ele>400</ele>
        <time>2019-09-06T03:55:25Z</time>
      </trkpt>
      <trkpt lat="43.022910" lon="11.513980">
        <ele>399</ele>
        <time>2019-09-06T03:55:28Z</time>
      </trkpt>
      <trkpt lat="43.022550" lon="11.514790">
        <ele>390</ele>
        <time>2019-09-06T03:55:40Z</time>
      </trkpt>
      <trkpt lat="43.022480" lon="11.515010">
        <ele>388</ele>
        <time>2019-09-06T03:55:44Z</time>
      </trkpt>
      <trkpt lat="43.022440" lon="11.515290">
        <ele>387</ele>
        <time>2019-09-06T03:55:47Z</time>
      </trkpt>
      <trkpt lat="43.022370" lon="11.516660">
        <ele>379</ele>
        <time>2019-09-06T03:56:05Z</time>
      </trkpt>
      <trkpt lat="43.022320" lon="11.516800">
        <ele>379</ele>
        <time>2019-09-06T03:56:07Z</time>
      </trkpt>
      <trkpt lat="43.022270" lon="11.516910">
        <ele>378</ele>
        <time>2019-09-06T03:56:09Z</time>
      </trkpt>
      <trkpt lat="43.022170" lon="11.517020">
        <ele>378</ele>
        <time>2019-09-06T03:56:11Z</time>
      </trkpt>
      <trkpt lat="43.021430" lon="11.517660">
        <ele>380</ele>
        <time>2019-09-06T03:56:27Z</time>
      </trkpt>
      <trkpt lat="43.021340" lon="11.517770">
        <ele>381</ele>
        <time>2019-09-06T03:56:29Z</time>
      </trkpt>
      <trkpt lat="43.020330" lon="11.520050">
        <ele>382</ele>
        <time>2019-09-06T03:57:04Z</time>
      </trkpt>
      <trkpt lat="43.020220" lon="11.520230">
        <ele>381</ele>
        <time>2019-09-06T03:57:07Z</time>
      </trkpt>
      <trkpt lat="43.020110" lon="11.520350">
        <ele>381</ele>
        <time>2019-09-06T03:57:09Z</time>
      </trkpt>
      <trkpt lat="43.018300" lon="11.521450">
        <ele>378</ele>
        <time>2019-09-06T03:57:44Z</time>
      </trkpt>
      <trkpt lat="43.018110" lon="11.521620">
        <ele>376</ele>
        <time>2019-09-06T03:57:48Z</time>
      </trkpt>
      <trkpt lat="43.017900" lon="11.521920">
        <ele>372</ele>
        <time>2019-09-06T03:57:54Z</time>
      </trkpt>
      <trkpt lat="43.017640" lon="11.522230">
        <ele>369</ele>
        <time>2019-09-06T03:58:00Z</time>
      </trkpt>
      <trkpt lat="43.017380" lon="11.522460">
        <ele>367</ele>
        <time>2019-09-06T03:58:05Z</time>
      </trkpt>
      <trkpt lat="43.017070" lon="11.522680">
        <ele>366</ele>
        <time>2019-09-06T03:58:12Z</time>
      </trkpt>
      <trkpt lat="43.016830" lon="11.522910">
        <ele>365</ele>
        <time>2019-09-06T03:58:17Z</time>
      </trkpt>
      <trkpt lat="43.016510" lon="11.523390">
        <ele>364</ele>
        <time>2019-09-06T03:58:25Z</time>
      </trkpt>
      <trkpt lat="43.015830" lon="11.524760">
        <ele>358</ele>
        <time>2019-09-06T03:58:47Z</time>
      </trkpt>
      <trkpt lat="43.015730" lon="11.524860">
        <ele>357</ele>
        <time>2019-09-06T03:58:49Z</time>
      </trkpt>
      <trkpt lat="43.015230" lon="11.525120">
        <ele>357</ele>
        <time>2019-09-06T03:58:59Z</time>
      </trkpt>
      <trkpt lat="43.015030" lon="11.525270">
        <ele>357</ele>
        <time>2019-09-06T03:59:03Z</time>
      </trkpt>
      <trkpt lat="43.014740" lon="11.525540">
        <ele>357</ele>
        <time>2019-09-06T03:59:09Z</time>
      </trkpt>
      <trkpt lat="43.014570" lon="11.525740">
        <ele>356</ele>
        <time>2019-09-06T03:59:13Z</time>
      </trkpt>
      <trkpt lat="43.014180" lon="11.526450">
        <ele>350</ele>
        <time>2019-09-06T03:59:24Z</time>
      </trkpt>
      <trkpt lat="43.014060" lon="11.526580">
        <ele>348</ele>
        <time>2019-09-06T03:59:27Z</time>
      </trkpt>
      <trkpt lat="43.013960" lon="11.526640">
        <ele>347</ele>
        <time>2019-09-06T03:59:29Z</time>
      </trkpt>
      <trkpt lat="43.013830" lon="11.526670">
        <ele>347</ele>
        <time>2019-09-06T03:59:31Z</time>
      </trkpt>
      <trkpt lat="43.013150" lon="11.526670">
        <ele>346</ele>
        <time>2019-09-06T03:59:44Z</time>
      </trkpt>
      <trkpt lat="43.012900" lon="11.526700">
        <ele>346</ele>
        <time>2019-09-06T03:59:48Z</time>
      </trkpt>
      <trkpt lat="43.012070" lon="11.526910">
        <ele>343</ele>
        <time>2019-09-06T04:00:03Z</time>
      </trkpt>
      <trkpt lat="43.011760" lon="11.526950">
        <ele>342</ele>
        <time>2019-09-06T04:00:09Z</time>
      </trkpt>
      <trkpt lat="43.008700" lon="11.526630">
        <ele>332</ele>
        <time>2019-09-06T04:01:03Z</time>
      </trkpt>
      <trkpt lat="43.007660" lon="11.526490">
        <ele>330</ele>
        <time>2019-09-06T04:01:22Z</time>
      </trkpt>
      <trkpt lat="43.006080" lon="11.526190">
        <ele>327</ele>
        <time>2019-09-06T04:01:50Z</time>
      </trkpt>
      <trkpt lat="43.004820" lon="11.525730">
        <ele>325</ele>
        <time>2019-09-06T04:02:13Z</time>
      </trkpt>
      <trkpt lat="43.002780" lon="11.525130">
        <ele>321</ele>
        <time>2019-09-06T04:02:50Z</time>
      </trkpt>
      <trkpt lat="43.001350" lon="11.524670">
        <ele>319</ele>
        <time>2019-09-06T04:03:17Z</time>
      </trkpt>
      <trkpt lat="43.000050" lon="11.524150">
        <ele>317</ele>
        <time>2019-09-06T04:03:41Z</time>
      </trkpt>
      <trkpt lat="42.998960" lon="11.523410">
        <ele>318</ele>
        <time>2019-09-06T04:04:02Z</time>
      </trkpt>
      <trkpt lat="42.998320" lon="11.523140">
        <ele>322</ele>
        <time>2019-09-06T04:04:14Z</time>
      </trkpt>
      <trkpt lat="42.998030" lon="11.522940">
        <ele>326</ele>
        <time>2019-09-06T04:04:20Z</time>
      </trkpt>
      <trkpt lat="42.996430" lon="11.521320">
        <ele>340</ele>
        <time>2019-09-06T04:04:55Z</time>
      </trkpt>
      <trkpt lat="42.996250" lon="11.521070">
        <ele>341</ele>
        <time>2019-09-06T04:05:00Z</time>
      </trkpt>
      <trkpt lat="42.995920" lon="11.520450">
        <ele>341</ele>
        <time>2019-09-06T04:05:10Z</time>
      </trkpt>
      <trkpt lat="42.995820" lon="11.520330">
        <ele>342</ele>
        <time>2019-09-06T04:05:12Z</time>
      </trkpt>
      <trkpt lat="42.995370" lon="11.520010">
        <ele>344</ele>
        <time>2019-09-06T04:05:21Z</time>
      </trkpt>
      <trkpt lat="42.994950" lon="11.519770">
        <ele>347</ele>
        <time>2019-09-06T04:05:29Z</time>
      </trkpt>
      <trkpt lat="42.994770" lon="11.519840">
        <ele>347</ele>
        <time>2019-09-06T04:05:33Z</time>
      </trkpt>
      <trkpt lat="42.994870" lon="11.520050">
        <ele>348</ele>
        <time>2019-09-06T04:05:36Z</time>
      </trkpt>
      <trkpt lat="42.995110" lon="11.520170">
        <ele>349</ele>
        <time>2019-09-06T04:05:41Z</time>
      </trkpt>
      <trkpt lat="42.995320" lon="11.520460">
        <ele>349</ele>
        <time>2019-09-06T04:05:46Z</time>
      </trkpt>
      <trkpt lat="42.995560" lon="11.521020">
        <ele>351</ele>
        <time>2019-09-06T04:05:54Z</time>
      </trkpt>
      <trkpt lat="42.995650" lon="11.521540">
        <ele>354</ele>
        <time>2019-09-06T04:06:01Z</time>
      </trkpt>
      <trkpt lat="42.995780" lon="11.521900">
        <ele>356</ele>
        <time>2019-09-06T04:06:07Z</time>
      </trkpt>
      <trkpt lat="42.996140" lon="11.522350">
        <ele>358</ele>
        <time>2019-09-06T04:06:15Z</time>
      </trkpt>
      <trkpt lat="42.996400" lon="11.522910">
        <ele>360</ele>
        <time>2019-09-06T04:06:24Z</time>
      </trkpt>
      <trkpt lat="42.996620" lon="11.523510">
        <ele>361</ele>
        <time>2019-09-06T04:06:33Z</time>
      </trkpt>
      <trkpt lat="42.996670" lon="11.523780">
        <ele>362</ele>
        <time>2019-09-06T04:06:36Z</time>
      </trkpt>
      <trkpt lat="42.996610" lon="11.524380">
        <ele>368</ele>
        <time>2019-09-06T04:06:44Z</time>
      </trkpt>
      <trkpt lat="42.996790" lon="11.525640">
        <ele>378</ele>
        <time>2019-09-06T04:07:01Z</time>
      </trkpt>
      <trkpt lat="42.996940" lon="11.526000">
        <ele>380</ele>
        <time>2019-09-06T04:07:06Z</time>
      </trkpt>
      <trkpt lat="42.996980" lon="11.526520">
        <ele>391</ele>
        <time>2019-09-06T04:07:13Z</time>
      </trkpt>
      <trkpt lat="42.997020" lon="11.526640">
        <ele>392</ele>
        <time>2019-09-06T04:07:15Z</time>
      </trkpt>
      <trkpt lat="42.997170" lon="11.526840">
        <ele>393</ele>
        <time>2019-09-06T04:07:18Z</time>
      </trkpt>
      <trkpt lat="42.997750" lon="11.527270">
        <ele>391</ele>
        <time>2019-09-06T04:07:30Z</time>
      </trkpt>
      <trkpt lat="42.998230" lon="11.527970">
        <ele>393</ele>
        <time>2019-09-06T04:07:43Z</time>
      </trkpt>
      <trkpt lat="42.998380" lon="11.528380">
        <ele>397</ele>
        <time>2019-09-06T04:07:49Z</time>
      </trkpt>
      <trkpt lat="42.998720" lon="11.529030">
        <ele>396</ele>
        <time>2019-09-06T04:07:59Z</time>
      </trkpt>
      <trkpt lat="42.998870" lon="11.529560">
        <ele>399</ele>
        <time>2019-09-06T04:08:06Z</time>
      </trkpt>
      <trkpt lat="42.999100" lon="11.530010">
        <ele>403</ele>
        <time>2019-09-06T04:08:14Z</time>
      </trkpt>
      <trkpt lat="42.999820" lon="11.530930">
        <ele>412</ele>
        <time>2019-09-06T04:08:31Z</time>
      </trkpt>
      <trkpt lat="43.000190" lon="11.531210">
        <ele>415</ele>
        <time>2019-09-06T04:08:39Z</time>
      </trkpt>
      <trkpt lat="43.000570" lon="11.531560">
        <ele>419</ele>
        <time>2019-09-06T04:08:47Z</time>
      </trkpt>
      <trkpt lat="43.000660" lon="11.531720">
        <ele>421</ele>
        <time>2019-09-06T04:08:49Z</time>
      </trkpt>
      <trkpt lat="43.000800" lon="11.532200">
        <ele>422</ele>
        <time>2019-09-06T04:08:56Z</time>
      </trkpt>
      <trkpt lat="43.000860" lon="11.532710">
        <ele>421</ele>
        <time>2019-09-06T04:09:03Z</time>
      </trkpt>
      <trkpt lat="43.000900" lon="11.532870">
        <ele>421</ele>
        <time>2019-09-06T04:09:05Z</time>
      </trkpt>
      <trkpt lat="43.000960" lon="11.532980">
        <ele>421</ele>
        <time>2019-09-06T04:09:07Z</time>
      </trkpt>
      <trkpt lat="43.001620" lon="11.533450">
        <ele>421</ele>
        <time>2019-09-06T04:09:20Z</time>
      </trkpt>
      <trkpt lat="43.003220" lon="11.534480">
        <ele>405</ele>
        <time>2019-09-06T04:09:52Z</time>
      </trkpt>
      <trkpt lat="43.003630" lon="11.534900">
        <ele>401</ele>
        <time>2019-09-06T04:10:01Z</time>
      </trkpt>
      <trkpt lat="43.004230" lon="11.535610">
        <ele>400</ele>
        <time>2019-09-06T04:10:15Z</time>
      </trkpt>
      <trkpt lat="43.004610" lon="11.535820">
        <ele>398</ele>
        <time>2019-09-06T04:10:22Z</time>
      </trkpt>
      <trkpt lat="43.004830" lon="11.536000">
        <ele>397</ele>
        <time>2019-09-06T04:10:27Z</time>
      </trkpt>
      <trkpt lat="43.005030" lon="11.536210">
        <ele>396</ele>
        <time>2019-09-06T04:10:31Z</time>
      </trkpt>
      <trkpt lat="43.005200" lon="11.536450">
        <ele>396</ele>
        <time>2019-09-06T04:10:35Z</time>
      </trkpt>
      <trkpt lat="43.005520" lon="11.536980">
        <ele>397</ele>
        <time>2019-09-06T04:10:44Z</time>
      </trkpt>
      <trkpt lat="43.005760" lon="11.537570">
        <ele>397</ele>
        <time>2019-09-06T04:10:53Z</time>
      </trkpt>
      <trkpt lat="43.005970" lon="11.538490">
        <ele>392</ele>
        <time>2019-09-06T04:11:06Z</time>
      </trkpt>
      <trkpt lat="43.006300" lon="11.539620">
        <ele>390</ele>
        <time>2019-09-06T04:11:22Z</time>
      </trkpt>
      <trkpt lat="43.006590" lon="11.540740">
        <ele>387</ele>
        <time>2019-09-06T04:11:37Z</time>
      </trkpt>
      <trkpt lat="43.006840" lon="11.541300">
        <ele>387</ele>
        <time>2019-09-06T04:11:46Z</time>
      </trkpt>
      <trkpt lat="43.007170" lon="11.541670">
        <ele>386</ele>
        <time>2019-09-06T04:11:53Z</time>
      </trkpt>
      <trkpt lat="43.007320" lon="11.541880">
        <ele>385</ele>
        <time>2019-09-06T04:11:57Z</time>
      </trkpt>
      <trkpt lat="43.007550" lon="11.542110">
        <ele>384</ele>
        <time>2019-09-06T04:12:02Z</time>
      </trkpt>
      <trkpt lat="43.007750" lon="11.542410">
        <ele>382</ele>
        <time>2019-09-06T04:12:07Z</time>
      </trkpt>
      <trkpt lat="43.007770" lon="11.542630">
        <ele>380</ele>
        <time>2019-09-06T04:12:10Z</time>
      </trkpt>
      <trkpt lat="43.007830" lon="11.542900">
        <ele>376</ele>
        <time>2019-09-06T04:12:14Z</time>
      </trkpt>
      <trkpt lat="43.008050" lon="11.543380">
        <ele>371</ele>
        <time>2019-09-06T04:12:21Z</time>
      </trkpt>
      <trkpt lat="43.008300" lon="11.543850">
        <ele>366</ele>
        <time>2019-09-06T04:12:29Z</time>
      </trkpt>
      <trkpt lat="43.008660" lon="11.544210">
        <ele>353</ele>
        <time>2019-09-06T04:12:37Z</time>
      </trkpt>
      <trkpt lat="43.008830" lon="11.544560">
        <ele>348</ele>
        <time>2019-09-06T04:12:42Z</time>
      </trkpt>
      <trkpt lat="43.009080" lon="11.544970">
        <ele>345</ele>
        <time>2019-09-06T04:12:49Z</time>
      </trkpt>
      <trkpt lat="43.009240" lon="11.545130">
        <ele>342</ele>
        <time>2019-09-06T04:12:53Z</time>
      </trkpt>
      <trkpt lat="43.009580" lon="11.545300">
        <ele>334</ele>
        <time>2019-09-06T04:12:59Z</time>
      </trkpt>
      <trkpt lat="43.009760" lon="11.545520">
        <ele>332</ele>
        <time>2019-09-06T04:13:03Z</time>
      </trkpt>
      <trkpt lat="43.010050" lon="11.546060">
        <ele>331</ele>
        <time>2019-09-06T04:13:12Z</time>
      </trkpt>
      <trkpt lat="43.010560" lon="11.546510">
        <ele>322</ele>
        <time>2019-09-06T04:13:23Z</time>
      </trkpt>
      <trkpt lat="43.011190" lon="11.547580">
        <ele>311</ele>
        <time>2019-09-06T04:13:41Z</time>
      </trkpt>
      <trkpt lat="43.011320" lon="11.548050">
        <ele>306</ele>
        <time>2019-09-06T04:13:47Z</time>
      </trkpt>
      <trkpt lat="43.011410" lon="11.548550">
        <ele>301</ele>
        <time>2019-09-06T04:13:54Z</time>
      </trkpt>
      <trkpt lat="43.011350" lon="11.549360">
        <ele>289</ele>
        <time>2019-09-06T04:14:05Z</time>
      </trkpt>
      <trkpt lat="43.011330" lon="11.550080">
        <ele>281</ele>
        <time>2019-09-06T04:14:14Z</time>
      </trkpt>
      <trkpt lat="43.011290" lon="11.550270">
        <ele>280</ele>
        <time>2019-09-06T04:14:17Z</time>
      </trkpt>
      <trkpt lat="43.010930" lon="11.551020">
        <ele>276</ele>
        <time>2019-09-06T04:14:28Z</time>
      </trkpt>
      <trkpt lat="43.010860" lon="11.551320">
        <ele>275</ele>
        <time>2019-09-06T04:14:32Z</time>
      </trkpt>
      <trkpt lat="43.010900" lon="11.551490">
        <ele>274</ele>
        <time>2019-09-06T04:14:35Z</time>
      </trkpt>
      <trkpt lat="43.011020" lon="11.551680">
        <ele>271</ele>
        <time>2019-09-06T04:14:38Z</time>
      </trkpt>
      <trkpt lat="43.011320" lon="11.552050">
        <ele>264</ele>
        <time>2019-09-06T04:14:45Z</time>
      </trkpt>
      <trkpt lat="43.011640" lon="11.552940">
        <ele>258</ele>
        <time>2019-09-06T04:14:58Z</time>
      </trkpt>
      <trkpt lat="43.011620" lon="11.553140">
        <ele>256</ele>
        <time>2019-09-06T04:15:01Z</time>
      </trkpt>
      <trkpt lat="43.011380" lon="11.553630">
        <ele>250</ele>
        <time>2019-09-06T04:15:08Z</time>
      </trkpt>
      <trkpt lat="43.011220" lon="11.553780">
        <ele>249</ele>
        <time>2019-09-06T04:15:12Z</time>
      </trkpt>
      <trkpt lat="43.011050" lon="11.553840">
        <ele>248</ele>
        <time>2019-09-06T04:15:15Z</time>
      </trkpt>
      <trkpt lat="43.010910" lon="11.554050">
        <ele>247</ele>
        <time>2019-09-06T04:15:19Z</time>
      </trkpt>
      <trkpt lat="43.010760" lon="11.554400">
        <ele>245</ele>
        <time>2019-09-06T04:15:24Z</time>
      </trkpt>
      <trkpt lat="43.010500" lon="11.554690">
        <ele>239</ele>
        <time>2019-09-06T04:15:30Z</time>
      </trkpt>
      <trkpt lat="43.010440" lon="11.554870">
        <ele>237</ele>
        <time>2019-09-06T04:15:32Z</time>
      </trkpt>
      <trkpt lat="43.010550" lon="11.555610">
        <ele>226</ele>
        <time>2019-09-06T04:15:42Z</time>
      </trkpt>
      <trkpt lat="43.010710" lon="11.556240">
        <ele>219</ele>
        <time>2019-09-06T04:15:51Z</time>
      </trkpt>
      <trkpt lat="43.010640" lon="11.556320">
        <ele>217</ele>
        <time>2019-09-06T04:15:53Z</time>
      </trkpt>
      <trkpt lat="43.010510" lon="11.556570">
        <ele>213</ele>
        <time>2019-09-06T04:15:57Z</time>
      </trkpt>
      <trkpt lat="43.010420" lon="11.556620">
        <ele>211</ele>
        <time>2019-09-06T04:15:58Z</time>
      </trkpt>
      <trkpt lat="43.010190" lon="11.556610">
        <ele>208</ele>
        <time>2019-09-06T04:16:02Z</time>
      </trkpt>
      <trkpt lat="43.010080" lon="11.556650">
        <ele>205</ele>
        <time>2019-09-06T04:16:04Z</time>
      </trkpt>
      <trkpt lat="43.009980" lon="11.556740">
        <ele>203</ele>
        <time>2019-09-06T04:16:07Z</time>
      </trkpt>
      <trkpt lat="43.009790" lon="11.556760">
        <ele>200</ele>
        <time>2019-09-06T04:16:10Z</time>
      </trkpt>
      <trkpt lat="43.009680" lon="11.557010">
        <ele>197</ele>
        <time>2019-09-06T04:16:14Z</time>
      </trkpt>
      <trkpt lat="43.009480" lon="11.557220">
        <ele>193</ele>
        <time>2019-09-06T04:16:18Z</time>
      </trkpt>
      <trkpt lat="43.009490" lon="11.557350">
        <ele>192</ele>
        <time>2019-09-06T04:16:20Z</time>
      </trkpt>
      <trkpt lat="43.009660" lon="11.557740">
        <ele>193</ele>
        <time>2019-09-06T04:16:26Z</time>
      </trkpt>
      <trkpt lat="43.010060" lon="11.558370">
        <ele>192</ele>
        <time>2019-09-06T04:16:37Z</time>
      </trkpt>
      <trkpt lat="43.010200" lon="11.558700">
        <ele>193</ele>
        <time>2019-09-06T04:16:42Z</time>
      </trkpt>
      <trkpt lat="43.010580" lon="11.558830">
        <ele>192</ele>
        <time>2019-09-06T04:16:49Z</time>
      </trkpt>
      <trkpt lat="43.010730" lon="11.558920">
        <ele>192</ele>
        <time>2019-09-06T04:16:52Z</time>
      </trkpt>
      <trkpt lat="43.011320" lon="11.559440">
        <ele>198</ele>
        <time>2019-09-06T04:17:04Z</time>
      </trkpt>
      <trkpt lat="43.011570" lon="11.559700">
        <ele>203</ele>
        <time>2019-09-06T04:17:10Z</time>
      </trkpt>
      <trkpt lat="43.011800" lon="11.559880">
        <ele>206</ele>
        <time>2019-09-06T04:17:14Z</time>
      </trkpt>
      <trkpt lat="43.011980" lon="11.559850">
        <ele>208</ele>
        <time>2019-09-06T04:17:18Z</time>
      </trkpt>
      <trkpt lat="43.012500" lon="11.559840">
        <ele>215</ele>
        <time>2019-09-06T04:17:27Z</time>
      </trkpt>
      <trkpt lat="43.012620" lon="11.559860">
        <ele>218</ele>
        <time>2019-09-06T04:17:29Z</time>
      </trkpt>
      <trkpt lat="43.012810" lon="11.559950">
        <ele>222</ele>
        <time>2019-09-06T04:17:33Z</time>
      </trkpt>
      <trkpt lat="43.013010" lon="11.560100">
        <ele>226</ele>
        <time>2019-09-06T04:17:37Z</time>
      </trkpt>
      <trkpt lat="43.013240" lon="11.560330">
        <ele>232</ele>
        <time>2019-09-06T04:17:42Z</time>
      </trkpt>
      <trkpt lat="43.013530" lon="11.560480">
        <ele>238</ele>
        <time>2019-09-06T04:17:47Z</time>
      </trkpt>
      <trkpt lat="43.013860" lon="11.560760">
        <ele>244</ele>
        <time>2019-09-06T04:17:54Z</time>
      </trkpt>
      <trkpt lat="43.014110" lon="11.560920">
        <ele>247</ele>
        <time>2019-09-06T04:17:59Z</time>
      </trkpt>
      <trkpt lat="43.014580" lon="11.561070">
        <ele>252</ele>
        <time>2019-09-06T04:18:08Z</time>
      </trkpt>
      <trkpt lat="43.015020" lon="11.561300">
        <ele>255</ele>
        <time>2019-09-06T04:18:16Z</time>
      </trkpt>
      <trkpt lat="43.015300" lon="11.561380">
        <ele>260</ele>
        <time>2019-09-06T04:18:21Z</time>
      </trkpt>
      <trkpt lat="43.015370" lon="11.561430">
        <ele>260</ele>
        <time>2019-09-06T04:18:22Z</time>
      </trkpt>
      <trkpt lat="43.015940" lon="11.561920">
        <ele>268</ele>
        <time>2019-09-06T04:18:34Z</time>
      </trkpt>
      <trkpt lat="43.016050" lon="11.562090">
        <ele>269</ele>
        <time>2019-09-06T04:18:37Z</time>
      </trkpt>
      <trkpt lat="43.016180" lon="11.562200">
        <ele>271</ele>
        <time>2019-09-06T04:18:40Z</time>
      </trkpt>
      <trkpt lat="43.016590" lon="11.562420">
        <ele>276</ele>
        <time>2019-09-06T04:18:48Z</time>
      </trkpt>
      <trkpt lat="43.016810" lon="11.562630">
        <ele>279</ele>
        <time>2019-09-06T04:18:53Z</time>
      </trkpt>
      <trkpt lat="43.017000" lon="11.562890">
        <ele>282</ele>
        <time>2019-09-06T04:18:58Z</time>
      </trkpt>
      <trkpt lat="43.017170" lon="11.563370">
        <ele>282</ele>
        <time>2019-09-06T04:19:04Z</time>
      </trkpt>
      <trkpt lat="43.017670" lon="11.564070">
        <ele>293</ele>
        <time>2019-09-06T04:19:17Z</time>
      </trkpt>
      <trkpt lat="43.018150" lon="11.564590">
        <ele>305</ele>
        <time>2019-09-06T04:19:28Z</time>
      </trkpt>
      <trkpt lat="43.018410" lon="11.564770">
        <ele>310</ele>
        <time>2019-09-06T04:19:33Z</time>
      </trkpt>
      <trkpt lat="43.018530" lon="11.564790">
        <ele>312</ele>
        <time>2019-09-06T04:19:35Z</time>
      </trkpt>
      <trkpt lat="43.018590" lon="11.564690">
        <ele>313</ele>
        <time>2019-09-06T04:19:37Z</time>
      </trkpt>
      <trkpt lat="43.018890" lon="11.563950">
        <ele>320</ele>
        <time>2019-09-06T04:19:48Z</time>
      </trkpt>
      <trkpt lat="43.018900" lon="11.563710">
        <ele>321</ele>
        <time>2019-09-06T04:19:51Z</time>
      </trkpt>
      <trkpt lat="43.018860" lon="11.563260">
        <ele>321</ele>
        <time>2019-09-06T04:19:57Z</time>
      </trkpt>
      <trkpt lat="43.018880" lon="11.563110">
        <ele>321</ele>
        <time>2019-09-06T04:19:59Z</time>
      </trkpt>
      <trkpt lat="43.018950" lon="11.563020">
        <ele>322</ele>
        <time>2019-09-06T04:20:01Z</time>
      </trkpt>
      <trkpt lat="43.019010" lon="11.563000">
        <ele>323</ele>
        <time>2019-09-06T04:20:02Z</time>
      </trkpt>
      <trkpt lat="43.019290" lon="11.563290">
        <ele>328</ele>
        <time>2019-09-06T04:20:08Z</time>
      </trkpt>
      <trkpt lat="43.019430" lon="11.563390">
        <ele>328</ele>
        <time>2019-09-06T04:20:11Z</time>
      </trkpt>
      <trkpt lat="43.019480" lon="11.563570">
        <ele>329</ele>
        <time>2019-09-06T04:20:13Z</time>
      </trkpt>
      <trkpt lat="43.020310" lon="11.564470">
        <ele>343</ele>
        <time>2019-09-06T04:20:32Z</time>
      </trkpt>
      <trkpt lat="43.020430" lon="11.564860">
        <ele>349</ele>
        <time>2019-09-06T04:20:38Z</time>
      </trkpt>
      <trkpt lat="43.020450" lon="11.565520">
        <ele>354</ele>
        <time>2019-09-06T04:20:46Z</time>
      </trkpt>
      <trkpt lat="43.020490" lon="11.565720">
        <ele>357</ele>
        <time>2019-09-06T04:20:49Z</time>
      </trkpt>
      <trkpt lat="43.020680" lon="11.566120">
        <ele>365</ele>
        <time>2019-09-06T04:20:55Z</time>
      </trkpt>
      <trkpt lat="43.020790" lon="11.566550">
        <ele>369</ele>
        <time>2019-09-06T04:21:01Z</time>
      </trkpt>
      <trkpt lat="43.020810" lon="11.566900">
        <ele>372</ele>
        <time>2019-09-06T04:21:06Z</time>
      </trkpt>
      <trkpt lat="43.020880" lon="11.567260">
        <ele>375</ele>
        <time>2019-09-06T04:21:11Z</time>
      </trkpt>
      <trkpt lat="43.020870" lon="11.567950">
        <ele>380</ele>
        <time>2019-09-06T04:21:20Z</time>
      </trkpt>
      <trkpt lat="43.020840" lon="11.568280">
        <ele>383</ele>
        <time>2019-09-06T04:21:24Z</time>
      </trkpt>
      <trkpt lat="43.020710" lon="11.568880">
        <ele>386</ele>
        <time>2019-09-06T04:21:32Z</time>
      </trkpt>
      <trkpt lat="43.020580" lon="11.569090">
        <ele>386</ele>
        <time>2019-09-06T04:21:36Z</time>
      </trkpt>
      <trkpt lat="43.020500" lon="11.569580">
        <ele>391</ele>
        <time>2019-09-06T04:21:42Z</time>
      </trkpt>
      <trkpt lat="43.020500" lon="11.569730">
        <ele>393</ele>
        <time>2019-09-06T04:21:44Z</time>
      </trkpt>
      <trkpt lat="43.020610" lon="11.570200">
        <ele>399</ele>
        <time>2019-09-06T04:21:51Z</time>
      </trkpt>
      <trkpt lat="43.020490" lon="11.570340">
        <ele>399</ele>
        <time>2019-09-06T04:21:53Z</time>
      </trkpt>
      <trkpt lat="43.020390" lon="11.570520">
        <ele>398</ele>
        <time>2019-09-06T04:21:56Z</time>
      </trkpt>
      <trkpt lat="43.020260" lon="11.570890">
        <ele>399</ele>
        <time>2019-09-06T04:22:02Z</time>
      </trkpt>
      <trkpt lat="43.020220" lon="11.571750">
        <ele>400</ele>
        <time>2019-09-06T04:22:13Z</time>
      </trkpt>
      <trkpt lat="43.020320" lon="11.572130">
        <ele>399</ele>
        <time>2019-09-06T04:22:18Z</time>
      </trkpt>
      <trkpt lat="43.020100" lon="11.572570">
        <ele>394</ele>
        <time>2019-09-06T04:22:25Z</time>
      </trkpt>
      <trkpt lat="43.019980" lon="11.573130">
        <ele>388</ele>
        <time>2019-09-06T04:22:33Z</time>
      </trkpt>
      <trkpt lat="43.019670" lon="11.573830">
        <ele>380</ele>
        <time>2019-09-06T04:22:43Z</time>
      </trkpt>
      <trkpt lat="43.019240" lon="11.574150">
        <ele>375</ele>
        <time>2019-09-06T04:22:52Z</time>
      </trkpt>
      <trkpt lat="43.019030" lon="11.574150">
        <ele>373</ele>
        <time>2019-09-06T04:22:56Z</time>
      </trkpt>
      <trkpt lat="43.018920" lon="11.574200">
        <ele>373</ele>
        <time>2019-09-06T04:22:58Z</time>
      </trkpt>
      <trkpt lat="43.019200" lon="11.574700">
        <ele>369</ele>
        <time>2019-09-06T04:23:06Z</time>
      </trkpt>
      <trkpt lat="43.019450" lon="11.575030">
        <ele>368</ele>
        <time>2019-09-06T04:23:12Z</time>
      </trkpt>
      <trkpt lat="43.019550" lon="11.575320">
        <ele>369</ele>
        <time>2019-09-06T04:23:16Z</time>
      </trkpt>
      <trkpt lat="43.019760" lon="11.576720">
        <ele>375</ele>
        <time>2019-09-06T04:23:35Z</time>
      </trkpt>
      <trkpt lat="43.019780" lon="11.577290">
        <ele>375</ele>
        <time>2019-09-06T04:23:42Z</time>
      </trkpt>
      <trkpt lat="43.019910" lon="11.578060">
        <ele>372</ele>
        <time>2019-09-06T04:23:53Z</time>
      </trkpt>
      <trkpt lat="43.020320" lon="11.578850">
        <ele>368</ele>
        <time>2019-09-06T04:24:05Z</time>
      </trkpt>
      <trkpt lat="43.020400" lon="11.578940">
        <ele>368</ele>
        <time>2019-09-06T04:24:07Z</time>
      </trkpt>
      <trkpt lat="43.020550" lon="11.579030">
        <ele>368</ele>
        <time>2019-09-06T04:24:10Z</time>
      </trkpt>
      <trkpt lat="43.020570" lon="11.579160">
        <ele>367</ele>
        <time>2019-09-06T04:24:12Z</time>
      </trkpt>
      <trkpt lat="43.020970" lon="11.579240">
        <ele>372</ele>
        <time>2019-09-06T04:24:19Z</time>
      </trkpt>
      <trkpt lat="43.020870" lon="11.579530">
        <ele>368</ele>
        <time>2019-09-06T04:24:23Z</time>
      </trkpt>
      <trkpt lat="43.020710" lon="11.579810">
        <ele>362</ele>
        <time>2019-09-06T04:24:28Z</time>
      </trkpt>
      <trkpt lat="43.020750" lon="11.580240">
        <ele>360</ele>
        <time>2019-09-06T04:24:33Z</time>
      </trkpt>
      <trkpt lat="43.020870" lon="11.580600">
        <ele>361</ele>
        <time>2019-09-06T04:24:39Z</time>
      </trkpt>
      <trkpt lat="43.020870" lon="11.580830">
        <ele>360</ele>
        <time>2019-09-06T04:24:42Z</time>
      </trkpt>
      <trkpt lat="43.020940" lon="11.581200">
        <ele>363</ele>
        <time>2019-09-06T04:24:47Z</time>
      </trkpt>
      <trkpt lat="43.021220" lon="11.581420">
        <ele>370</ele>
        <time>2019-09-06T04:24:52Z</time>
      </trkpt>
      <trkpt lat="43.021240" lon="11.581520">
        <ele>370</ele>
        <time>2019-09-06T04:24:54Z</time>
      </trkpt>
      <trkpt lat="43.021080" lon="11.581790">
        <ele>368</ele>
        <time>2019-09-06T04:24:58Z</time>
      </trkpt>
      <trkpt lat="43.021000" lon="11.581830">
        <ele>367</ele>
        <time>2019-09-06T04:25:00Z</time>
      </trkpt>
      <trkpt lat="43.020930" lon="11.582070">
        <ele>367</ele>
        <time>2019-09-06T04:25:03Z</time>
      </trkpt>
      <trkpt lat="43.020860" lon="11.582630">
        <ele>368</ele>
        <time>2019-09-06T04:25:10Z</time>
      </trkpt>
      <trkpt lat="43.020850" lon="11.583490">
        <ele>371</ele>
        <time>2019-09-06T04:25:22Z</time>
      </trkpt>
      <trkpt lat="43.020800" lon="11.583640">
        <ele>372</ele>
        <time>2019-09-06T04:25:24Z</time>
      </trkpt>
      <trkpt lat="43.020700" lon="11.583740">
        <ele>373</ele>
        <time>2019-09-06T04:25:26Z</time>
      </trkpt>
      <trkpt lat="43.020640" lon="11.583870">
        <ele>374</ele>
        <time>2019-09-06T04:25:28Z</time>
      </trkpt>
      <trkpt lat="43.020420" lon="11.584110">
        <ele>377</ele>
        <time>2019-09-06T04:25:33Z</time>
      </trkpt>
      <trkpt lat="43.019980" lon="11.584460">
        <ele>381</ele>
        <time>2019-09-06T04:25:42Z</time>
      </trkpt>
      <trkpt lat="43.019780" lon="11.584710">
        <ele>383</ele>
        <time>2019-09-06T04:25:47Z</time>
      </trkpt>
      <trkpt lat="43.019760" lon="11.584830">
        <ele>385</ele>
        <time>2019-09-06T04:25:48Z</time>
      </trkpt>
      <trkpt lat="43.019850" lon="11.584870">
        <ele>387</ele>
        <time>2019-09-06T04:25:50Z</time>
      </trkpt>
      <trkpt lat="43.020070" lon="11.584800">
        <ele>388</ele>
        <time>2019-09-06T04:25:54Z</time>
      </trkpt>
      <trkpt lat="43.020490" lon="11.585350">
        <ele>401</ele>
        <time>2019-09-06T04:26:04Z</time>
      </trkpt>
      <trkpt lat="43.020840" lon="11.585670">
        <ele>407</ele>
        <time>2019-09-06T04:26:12Z</time>
      </trkpt>
      <trkpt lat="43.021170" lon="11.585750">
        <ele>413</ele>
        <time>2019-09-06T04:26:18Z</time>
      </trkpt>
      <trkpt lat="43.021290" lon="11.585740">
        <ele>414</ele>
        <time>2019-09-06T04:26:20Z</time>
      </trkpt>
      <trkpt lat="43.021490" lon="11.585540">
        <ele>413</ele>
        <time>2019-09-06T04:26:24Z</time>
      </trkpt>
      <trkpt lat="43.021600" lon="11.585470">
        <ele>412</ele>
        <time>2019-09-06T04:26:27Z</time>
      </trkpt>
      <trkpt lat="43.021790" lon="11.585530">
        <ele>415</ele>
        <time>2019-09-06T04:26:30Z</time>
      </trkpt>
      <trkpt lat="43.022220" lon="11.585780">
        <ele>422</ele>
        <time>2019-09-06T04:26:38Z</time>
      </trkpt>
      <trkpt lat="43.022820" lon="11.586050">
        <ele>428</ele>
        <time>2019-09-06T04:26:50Z</time>
      </trkpt>
      <trkpt lat="43.022960" lon="11.586080">
        <ele>428</ele>
        <time>2019-09-06T04:26:52Z</time>
      </trkpt>
      <trkpt lat="43.023130" lon="11.586590">
        <ele>427</ele>
        <time>2019-09-06T04:26:59Z</time>
      </trkpt>
      <trkpt lat="43.023150" lon="11.586810">
        <ele>425</ele>
        <time>2019-09-06T04:27:02Z</time>
      </trkpt>
      <trkpt lat="43.023070" lon="11.587920">
        <ele>420</ele>
        <time>2019-09-06T04:27:17Z</time>
      </trkpt>
      <trkpt lat="43.022990" lon="11.588350">
        <ele>417</ele>
        <time>2019-09-06T04:27:23Z</time>
      </trkpt>
      <trkpt lat="43.022960" lon="11.589010">
        <ele>409</ele>
        <time>2019-09-06T04:27:31Z</time>
      </trkpt>
      <trkpt lat="43.022880" lon="11.589900">
        <ele>400</ele>
        <time>2019-09-06T04:27:43Z</time>
      </trkpt>
      <trkpt lat="43.023000" lon="11.590640">
        <ele>394</ele>
        <time>2019-09-06T04:27:53Z</time>
      </trkpt>
      <trkpt lat="43.022940" lon="11.590840">
        <ele>392</ele>
        <time>2019-09-06T04:27:56Z</time>
      </trkpt>
      <trkpt lat="43.022630" lon="11.591320">
        <ele>387</ele>
        <time>2019-09-06T04:28:04Z</time>
      </trkpt>
      <trkpt lat="43.022510" lon="11.591680">
        <ele>385</ele>
        <time>2019-09-06T04:28:09Z</time>
      </trkpt>
      <trkpt lat="43.022260" lon="11.591940">
        <ele>375</ele>
        <time>2019-09-06T04:28:15Z</time>
      </trkpt>
      <trkpt lat="43.022180" lon="11.592090">
        <ele>371</ele>
        <time>2019-09-06T04:28:17Z</time>
      </trkpt>
      <trkpt lat="43.022220" lon="11.592130">
        <ele>372</ele>
        <time>2019-09-06T04:28:18Z</time>
      </trkpt>
      <trkpt lat="43.022290" lon="11.592150">
        <ele>373</ele>
        <time>2019-09-06T04:28:19Z</time>
      </trkpt>
      <trkpt lat="43.022340" lon="11.592220">
        <ele>373</ele>
        <time>2019-09-06T04:28:20Z</time>
      </trkpt>
      <trkpt lat="43.022250" lon="11.592490">
        <ele>367</ele>
        <time>2019-09-06T04:28:24Z</time>
      </trkpt>
      <trkpt lat="43.022270" lon="11.592640">
        <ele>365</ele>
        <time>2019-09-06T04:28:26Z</time>
      </trkpt>
      <trkpt lat="43.022420" lon="11.592720">
        <ele>366</ele>
        <time>2019-09-06T04:28:29Z</time>
      </trkpt>
      <trkpt lat="43.022360" lon="11.592980">
        <ele>360</ele>
        <time>2019-09-06T04:28:33Z</time>
      </trkpt>
      <trkpt lat="43.022440" lon="11.593050">
        <ele>360</ele>
        <time>2019-09-06T04:28:34Z</time>
      </trkpt>
      <trkpt lat="43.022690" lon="11.593080">
        <ele>358</ele>
        <time>2019-09-06T04:28:39Z</time>
      </trkpt>
      <trkpt lat="43.022790" lon="11.593250">
        <ele>354</ele>
        <time>2019-09-06T04:28:42Z</time>
      </trkpt>
      <trkpt lat="43.022770" lon="11.593360">
        <ele>352</ele>
        <time>2019-09-06T04:28:43Z</time>
      </trkpt>
      <trkpt lat="43.022650" lon="11.593420">
        <ele>352</ele>
        <time>2019-09-06T04:28:45Z</time>
      </trkpt>
      <trkpt lat="43.022460" lon="11.593440">
        <ele>352</ele>
        <time>2019-09-06T04:28:49Z</time>
      </trkpt>
      <trkpt lat="43.022350" lon="11.593520">
        <ele>349</ele>
        <time>2019-09-06T04:28:51Z</time>
      </trkpt>
      <trkpt lat="43.022250" lon="11.593730">
        <ele>344</ele>
        <time>2019-09-06T04:28:54Z</time>
      </trkpt>
      <trkpt lat="43.022230" lon="11.594040">
        <ele>337</ele>
        <time>2019-09-06T04:28:58Z</time>
      </trkpt>
      <trkpt lat="43.022250" lon="11.594150">
        <ele>335</ele>
        <time>2019-09-06T04:29:00Z</time>
      </trkpt>
      <trkpt lat="43.022350" lon="11.594210">
        <ele>335</ele>
        <time>2019-09-06T04:29:02Z</time>
      </trkpt>
      <trkpt lat="43.022510" lon="11.594220">
        <ele>338</ele>
        <time>2019-09-06T04:29:05Z</time>
      </trkpt>
      <trkpt lat="43.022560" lon="11.594340">
        <ele>334</ele>
        <time>2019-09-06T04:29:06Z</time>
      </trkpt>
      <trkpt lat="43.022670" lon="11.594370">
        <ele>333</ele>
        <time>2019-09-06T04:29:08Z</time>
      </trkpt>
      <trkpt lat="43.022810" lon="11.594330">
        <ele>332</ele>
        <time>2019-09-06T04:29:11Z</time>
      </trkpt>
      <trkpt lat="43.023010" lon="11.594210">
        <ele>333</ele>
        <time>2019-09-06T04:29:15Z</time>
      </trkpt>
      <trkpt lat="43.023110" lon="11.594080">
        <ele>334</ele>
        <time>2019-09-06T04:29:17Z</time>
      </trkpt>
      <trkpt lat="43.023360" lon="11.594320">
        <ele>326</ele>
        <time>2019-09-06T04:29:23Z</time>
      </trkpt>
      <trkpt lat="43.023720" lon="11.594360">
        <ele>321</ele>
        <time>2019-09-06T04:29:29Z</time>
      </trkpt>
      <trkpt lat="43.023890" lon="11.594640">
        <ele>313</ele>
        <time>2019-09-06T04:29:34Z</time>
      </trkpt>
      <trkpt lat="43.023700" lon="11.594960">
        <ele>309</ele>
        <time>2019-09-06T04:29:39Z</time>
      </trkpt>
      <trkpt lat="43.023650" lon="11.595170">
        <ele>304</ele>
        <time>2019-09-06T04:29:42Z</time>
      </trkpt>
      <trkpt lat="43.023380" lon="11.595170">
        <ele>306</ele>
        <time>2019-09-06T04:29:47Z</time>
      </trkpt>
      <trkpt lat="43.023310" lon="11.595380">
        <ele>300</ele>
        <time>2019-09-06T04:29:50Z</time>
      </trkpt>
      <trkpt lat="43.023420" lon="11.595480">
        <ele>296</ele>
        <time>2019-09-06T04:29:52Z</time>
      </trkpt>
      <trkpt lat="43.023450" lon="11.595660">
        <ele>291</ele>
        <time>2019-09-06T04:29:55Z</time>
      </trkpt>
      <trkpt lat="43.023680" lon="11.596110">
        <ele>280</ele>
        <time>2019-09-06T04:30:02Z</time>
      </trkpt>
      <trkpt lat="43.023820" lon="11.596510">
        <ele>274</ele>
        <time>2019-09-06T04:30:08Z</time>
      </trkpt>
      <trkpt lat="43.023680" lon="11.596870">
        <ele>270</ele>
        <time>2019-09-06T04:30:13Z</time>
      </trkpt>
      <trkpt lat="43.023940" lon="11.597330">
        <ele>265</ele>
        <time>2019-09-06T04:30:20Z</time>
      </trkpt>
      <trkpt lat="43.023890" lon="11.597550">
        <ele>263</ele>
        <time>2019-09-06T04:30:23Z</time>
      </trkpt>
      <trkpt lat="43.023720" lon="11.597910">
        <ele>258</ele>
        <time>2019-09-06T04:30:29Z</time>
      </trkpt>
      <trkpt lat="43.023730" lon="11.598070">
        <ele>255</ele>
        <time>2019-09-06T04:30:31Z</time>
      </trkpt>
      <trkpt lat="43.023850" lon="11.598380">
        <ele>251</ele>
        <time>2019-09-06T04:30:36Z</time>
      </trkpt>
      <trkpt lat="43.023860" lon="11.598540">
        <ele>249</ele>
        <time>2019-09-06T04:30:38Z</time>
      </trkpt>
      <trkpt lat="43.023700" lon="11.598630">
        <ele>247</ele>
        <time>2019-09-06T04:30:41Z</time>
      </trkpt>
      <trkpt lat="43.023550" lon="11.598670">
        <ele>246</ele>
        <time>2019-09-06T04:30:44Z</time>
      </trkpt>
      <trkpt lat="43.023460" lon="11.598680">
        <ele>246</ele>
        <time>2019-09-06T04:30:45Z</time>
      </trkpt>
      <trkpt lat="43.023260" lon="11.598610">
        <ele>245</ele>
        <time>2019-09-06T04:30:49Z</time>
      </trkpt>
      <trkpt lat="43.023170" lon="11.598630">
        <ele>243</ele>
        <time>2019-09-06T04:30:50Z</time>
      </trkpt>
      <trkpt lat="43.023100" lon="11.598700">
        <ele>241</ele>
        <time>2019-09-06T04:30:52Z</time>
      </trkpt>
      <trkpt lat="43.023060" lon="11.598830">
        <ele>239</ele>
        <time>2019-09-06T04:30:54Z</time>
      </trkpt>
      <trkpt lat="43.023120" lon="11.598950">
        <ele>238</ele>
        <time>2019-09-06T04:30:56Z</time>
      </trkpt>
      <trkpt lat="43.023300" lon="11.599140">
        <ele>237</ele>
        <time>2019-09-06T04:31:00Z</time>
      </trkpt>
      <trkpt lat="43.023400" lon="11.599320">
        <ele>237</ele>
        <time>2019-09-06T04:31:03Z</time>
      </trkpt>
      <trkpt lat="43.023380" lon="11.599420">
        <ele>237</ele>
        <time>2019-09-06T04:31:04Z</time>
      </trkpt>
      <trkpt lat="43.023260" lon="11.599480">
        <ele>236</ele>
        <time>2019-09-06T04:31:06Z</time>
      </trkpt>
      <trkpt lat="43.022890" lon="11.599300">
        <ele>232</ele>
        <time>2019-09-06T04:31:13Z</time>
      </trkpt>
      <trkpt lat="43.022770" lon="11.599100">
        <ele>232</ele>
        <time>2019-09-06T04:31:17Z</time>
      </trkpt>
      <trkpt lat="43.022780" lon="11.598960">
        <ele>233</ele>
        <time>2019-09-06T04:31:19Z</time>
      </trkpt>
      <trkpt lat="43.022710" lon="11.598810">
        <ele>234</ele>
        <time>2019-09-06T04:31:21Z</time>
      </trkpt>
      <trkpt lat="43.022630" lon="11.598720">
        <ele>234</ele>
        <time>2019-09-06T04:31:23Z</time>
      </trkpt>
      <trkpt lat="43.022380" lon="11.598790">
        <ele>232</ele>
        <time>2019-09-06T04:31:27Z</time>
      </trkpt>
      <trkpt lat="43.022200" lon="11.598770">
        <ele>232</ele>
        <time>2019-09-06T04:31:30Z</time>
      </trkpt>
      <trkpt lat="43.022120" lon="11.598940">
        <ele>232</ele>
        <time>2019-09-06T04:31:33Z</time>
      </trkpt>
      <trkpt lat="43.022040" lon="11.598920">
        <ele>232</ele>
        <time>2019-09-06T04:31:35Z</time>
      </trkpt>
      <trkpt lat="43.021840" lon="11.598770">
        <ele>233</ele>
        <time>2019-09-06T04:31:39Z</time>
      </trkpt>
      <trkpt lat="43.021640" lon="11.598770">
        <ele>235</ele>
        <time>2019-09-06T04:31:42Z</time>
      </trkpt>
      <trkpt lat="43.021500" lon="11.598800">
        <ele>240</ele>
        <time>2019-09-06T04:31:45Z</time>
      </trkpt>
      <trkpt lat="43.021500" lon="11.598910">
        <ele>240</ele>
        <time>2019-09-06T04:31:46Z</time>
      </trkpt>
      <trkpt lat="43.021550" lon="11.599070">
        <ele>238</ele>
        <time>2019-09-06T04:31:48Z</time>
      </trkpt>
      <trkpt lat="43.021570" lon="11.599240">
        <ele>238</ele>
        <time>2019-09-06T04:31:51Z</time>
      </trkpt>
      <trkpt lat="43.021400" lon="11.600270">
        <ele>249</ele>
        <time>2019-09-06T04:32:04Z</time>
      </trkpt>
      <trkpt lat="43.021170" lon="11.601250">
        <ele>256</ele>
        <time>2019-09-06T04:32:18Z</time>
      </trkpt>
      <trkpt lat="43.020990" lon="11.601520">
        <ele>257</ele>
        <time>2019-09-06T04:32:22Z</time>
      </trkpt>
      <trkpt lat="43.020930" lon="11.601890">
        <ele>255</ele>
        <time>2019-09-06T04:32:27Z</time>
      </trkpt>
      <trkpt lat="43.020890" lon="11.601990">
        <ele>255</ele>
        <time>2019-09-06T04:32:29Z</time>
      </trkpt>
      <trkpt lat="43.020720" lon="11.602230">
        <ele>255</ele>
        <time>2019-09-06T04:32:33Z</time>
      </trkpt>
      <trkpt lat="43.020010" lon="11.602840">
        <ele>264</ele>
        <time>2019-09-06T04:32:48Z</time>
      </trkpt>
      <trkpt lat="43.019910" lon="11.603010">
        <ele>265</ele>
        <time>2019-09-06T04:32:51Z</time>
      </trkpt>
      <trkpt lat="43.019800" lon="11.603400">
        <ele>265</ele>
        <time>2019-09-06T04:32:56Z</time>
      </trkpt>
      <trkpt lat="43.019690" lon="11.603640">
        <ele>265</ele>
        <time>2019-09-06T04:33:00Z</time>
      </trkpt>
      <trkpt lat="43.019440" lon="11.603880">
        <ele>268</ele>
        <time>2019-09-06T04:33:06Z</time>
      </trkpt>
      <trkpt lat="43.019160" lon="11.604340">
        <ele>269</ele>
        <time>2019-09-06T04:33:13Z</time>
      </trkpt>
      <trkpt lat="43.019100" lon="11.604380">
        <ele>269</ele>
        <time>2019-09-06T04:33:15Z</time>
      </trkpt>
      <trkpt lat="43.019020" lon="11.604370">
        <ele>270</ele>
        <time>2019-09-06T04:33:16Z</time>
      </trkpt>
      <trkpt lat="43.018660" lon="11.604220">
        <ele>275</ele>
        <time>2019-09-06T04:33:23Z</time>
      </trkpt>
      <trkpt lat="43.018460" lon="11.604320">
        <ele>276</ele>
        <time>2019-09-06T04:33:26Z</time>
      </trkpt>
      <trkpt lat="43.018290" lon="11.604330">
        <ele>278</ele>
        <time>2019-09-06T04:33:29Z</time>
      </trkpt>
      <trkpt lat="43.018200" lon="11.604390">
        <ele>279</ele>
        <time>2019-09-06T04:33:31Z</time>
      </trkpt>
      <trkpt lat="43.018070" lon="11.604670">
        <ele>280</ele>
        <time>2019-09-06T04:33:36Z</time>
      </trkpt>
      <trkpt lat="43.017880" lon="11.604760">
        <ele>284</ele>
        <time>2019-09-06T04:33:39Z</time>
      </trkpt>
      <trkpt lat="43.017800" lon="11.604940">
        <ele>285</ele>
        <time>2019-09-06T04:33:42Z</time>
      </trkpt>
      <trkpt lat="43.017540" lon="11.605980">
        <ele>284</ele>
        <time>2019-09-06T04:33:56Z</time>
      </trkpt>
      <trkpt lat="43.017390" lon="11.605740">
        <ele>289</ele>
        <time>2019-09-06T04:34:00Z</time>
      </trkpt>
      <trkpt lat="43.017180" lon="11.605960">
        <ele>291</ele>
        <time>2019-09-06T04:34:05Z</time>
      </trkpt>
      <trkpt lat="43.016920" lon="11.605580">
        <ele>300</ele>
        <time>2019-09-06T04:34:12Z</time>
      </trkpt>
      <trkpt lat="43.016770" lon="11.605850">
        <ele>301</ele>
        <time>2019-09-06T04:34:16Z</time>
      </trkpt>
      <trkpt lat="43.016600" lon="11.605940">
        <ele>304</ele>
        <time>2019-09-06T04:34:19Z</time>
      </trkpt>
      <trkpt lat="43.016520" lon="11.605890">
        <ele>306</ele>
        <time>2019-09-06T04:34:21Z</time>
      </trkpt>
      <trkpt lat="43.016440" lon="11.605250">
        <ele>316</ele>
        <time>2019-09-06T04:34:29Z</time>
      </trkpt>
      <trkpt lat="43.016340" lon="11.604760">
        <ele>324</ele>
        <time>2019-09-06T04:34:36Z</time>
      </trkpt>
      <trkpt lat="43.016060" lon="11.604730">
        <ele>332</ele>
        <time>2019-09-06T04:34:41Z</time>
      </trkpt>
      <trkpt lat="43.015930" lon="11.605240">
        <ele>330</ele>
        <time>2019-09-06T04:34:48Z</time>
      </trkpt>
      <trkpt lat="43.015520" lon="11.605150">
        <ele>341</ele>
        <time>2019-09-06T04:34:55Z</time>
      </trkpt>
      <trkpt lat="43.015310" lon="11.604970">
        <ele>348</ele>
        <time>2019-09-06T04:35:00Z</time>
      </trkpt>
      <trkpt lat="43.015240" lon="11.604640">
        <ele>354</ele>
        <time>2019-09-06T04:35:04Z</time>
      </trkpt>
      <trkpt lat="43.015240" lon="11.604150">
        <ele>360</ele>
        <time>2019-09-06T04:35:11Z</time>
      </trkpt>
      <trkpt lat="43.015200" lon="11.603600">
        <ele>364</ele>
        <time>2019-09-06T04:35:18Z</time>
      </trkpt>
      <trkpt lat="43.014910" lon="11.603750">
        <ele>371</ele>
        <time>2019-09-06T04:35:23Z</time>
      </trkpt>
      <trkpt lat="43.014670" lon="11.603650">
        <ele>377</ele>
        <time>2019-09-06T04:35:28Z</time>
      </trkpt>
      <trkpt lat="43.014240" lon="11.603420">
        <ele>391</ele>
        <time>2019-09-06T04:35:36Z</time>
      </trkpt>
      <trkpt lat="43.013660" lon="11.603240">
        <ele>406</ele>
        <time>2019-09-06T04:35:47Z</time>
      </trkpt>
      <trkpt lat="43.013600" lon="11.603190">
        <ele>407</ele>
        <time>2019-09-06T04:35:48Z</time>
      </trkpt>
      <trkpt lat="43.013480" lon="11.603310">
        <ele>410</ele>
        <time>2019-09-06T04:35:51Z</time>
      </trkpt>
      <trkpt lat="43.013300" lon="11.603380">
        <ele>414</ele>
        <time>2019-09-06T04:35:54Z</time>
      </trkpt>
      <trkpt lat="43.012850" lon="11.603870">
        <ele>421</ele>
        <time>2019-09-06T04:36:04Z</time>
      </trkpt>
      <trkpt lat="43.012800" lon="11.604060">
        <ele>421</ele>
        <time>2019-09-06T04:36:07Z</time>
      </trkpt>
      <trkpt lat="43.012890" lon="11.604380">
        <ele>413</ele>
        <time>2019-09-06T04:36:11Z</time>
      </trkpt>
      <trkpt lat="43.012890" lon="11.604560">
        <ele>411</ele>
        <time>2019-09-06T04:36:14Z</time>
      </trkpt>
      <trkpt lat="43.012820" lon="11.604710">
        <ele>411</ele>
        <time>2019-09-06T04:36:16Z</time>
      </trkpt>
      <trkpt lat="43.012570" lon="11.605010">
        <ele>411</ele>
        <time>2019-09-06T04:36:22Z</time>
      </trkpt>
      <trkpt lat="43.012360" lon="11.605130">
        <ele>413</ele>
        <time>2019-09-06T04:36:26Z</time>
      </trkpt>
      <trkpt lat="43.012130" lon="11.605380">
        <ele>413</ele>
        <time>2019-09-06T04:36:31Z</time>
      </trkpt>
      <trkpt lat="43.011860" lon="11.605540">
        <ele>416</ele>
        <time>2019-09-06T04:36:36Z</time>
      </trkpt>
      <trkpt lat="43.011690" lon="11.605730">
        <ele>416</ele>
        <time>2019-09-06T04:36:40Z</time>
      </trkpt>
      <trkpt lat="43.011580" lon="11.605930">
        <ele>417</ele>
        <time>2019-09-06T04:36:43Z</time>
      </trkpt>
      <trkpt lat="43.011320" lon="11.606720">
        <ele>417</ele>
        <time>2019-09-06T04:36:55Z</time>
      </trkpt>
      <trkpt lat="43.011260" lon="11.606750">
        <ele>418</ele>
        <time>2019-09-06T04:36:56Z</time>
      </trkpt>
      <trkpt lat="43.011140" lon="11.606720">
        <ele>421</ele>
        <time>2019-09-06T04:36:58Z</time>
      </trkpt>
      <trkpt lat="43.010850" lon="11.606270">
        <ele>432</ele>
        <time>2019-09-06T04:37:06Z</time>
      </trkpt>
      <trkpt lat="43.010740" lon="11.606260">
        <ele>434</ele>
        <time>2019-09-06T04:37:08Z</time>
      </trkpt>
      <trkpt lat="43.010260" lon="11.606800">
        <ele>434</ele>
        <time>2019-09-06T04:37:19Z</time>
      </trkpt>
      <trkpt lat="43.010170" lon="11.606950">
        <ele>434</ele>
        <time>2019-09-06T04:37:21Z</time>
      </trkpt>
      <trkpt lat="43.010020" lon="11.607430">
        <ele>430</ele>
        <time>2019-09-06T04:37:28Z</time>
      </trkpt>
      <trkpt lat="43.009800" lon="11.607940">
        <ele>430</ele>
        <time>2019-09-06T04:37:36Z</time>
      </trkpt>
      <trkpt lat="43.009590" lon="11.608650">
        <ele>430</ele>
        <time>2019-09-06T04:37:46Z</time>
      </trkpt>
      <trkpt lat="43.009420" lon="11.609040">
        <ele>431</ele>
        <time>2019-09-06T04:37:52Z</time>
      </trkpt>
      <trkpt lat="43.009380" lon="11.609490">
        <ele>433</ele>
        <time>2019-09-06T04:37:58Z</time>
      </trkpt>
      <trkpt lat="43.009360" lon="11.609590">
        <ele>433</ele>
        <time>2019-09-06T04:37:59Z</time>
      </trkpt>
      <trkpt lat="43.009270" lon="11.609790">
        <ele>436</ele>
        <time>2019-09-06T04:38:02Z</time>
      </trkpt>
      <trkpt lat="43.009260" lon="11.610100">
        <ele>437</ele>
        <time>2019-09-06T04:38:06Z</time>
      </trkpt>
      <trkpt lat="43.009160" lon="11.610470">
        <ele>441</ele>
        <time>2019-09-06T04:38:11Z</time>
      </trkpt>
      <trkpt lat="43.009250" lon="11.610800">
        <ele>443</ele>
        <time>2019-09-06T04:38:16Z</time>
      </trkpt>
      <trkpt lat="43.009260" lon="11.611000">
        <ele>445</ele>
        <time>2019-09-06T04:38:18Z</time>
      </trkpt>
      <trkpt lat="43.009120" lon="11.611590">
        <ele>455</ele>
        <time>2019-09-06T04:38:27Z</time>
      </trkpt>
      <trkpt lat="43.008970" lon="11.612380">
        <ele>472</ele>
        <time>2019-09-06T04:38:37Z</time>
      </trkpt>
      <trkpt lat="43.008850" lon="11.612340">
        <ele>472</ele>
        <time>2019-09-06T04:38:39Z</time>
      </trkpt>
      <trkpt lat="43.008740" lon="11.612390">
        <ele>474</ele>
        <time>2019-09-06T04:38:41Z</time>
      </trkpt>
      <trkpt lat="43.008370" lon="11.612820">
        <ele>485</ele>
        <time>2019-09-06T04:38:50Z</time>
      </trkpt>
      <trkpt lat="43.008080" lon="11.613210">
        <ele>494</ele>
        <time>2019-09-06T04:38:57Z</time>
      </trkpt>
      <trkpt lat="43.007900" lon="11.613980">
        <ele>509</ele>
        <time>2019-09-06T04:39:08Z</time>
      </trkpt>
      <trkpt lat="43.007650" lon="11.614280">
        <ele>513</ele>
        <time>2019-09-06T04:39:14Z</time>
      </trkpt>
      <trkpt lat="43.008020" lon="11.614710">
        <ele>517</ele>
        <time>2019-09-06T04:39:22Z</time>
      </trkpt>
      <trkpt lat="43.007850" lon="11.614890">
        <ele>518</ele>
        <time>2019-09-06T04:39:26Z</time>
      </trkpt>
      <trkpt lat="43.007740" lon="11.615030">
        <ele>520</ele>
        <time>2019-09-06T04:39:29Z</time>
      </trkpt>
      <trkpt lat="43.007720" lon="11.615090">
        <ele>520</ele>
        <time>2019-09-06T04:39:30Z</time>
      </trkpt>
      <trkpt lat="43.007580" lon="11.615030">
        <ele>521</ele>
        <time>2019-09-06T04:39:32Z</time>
      </trkpt>
      <trkpt lat="43.006850" lon="11.614950">
        <ele>527</ele>
        <time>2019-09-06T04:39:45Z</time>
      </trkpt>
      <trkpt lat="43.006390" lon="11.614810">
        <ele>529</ele>
        <time>2019-09-06T04:39:54Z</time>
      </trkpt>
      <trkpt lat="43.006190" lon="11.614810">
        <ele>532</ele>
        <time>2019-09-06T04:39:57Z</time>
      </trkpt>
      <trkpt lat="43.006080" lon="11.614840">
        <ele>533</ele>
        <time>2019-09-06T04:39:59Z</time>
      </trkpt>
      <trkpt lat="43.005820" lon="11.614940">
        <ele>539</ele>
        <time>2019-09-06T04:40:04Z</time>
      </trkpt>
      <trkpt lat="43.005860" lon="11.615030">
        <ele>540</ele>
        <time>2019-09-06T04:40:05Z</time>
      </trkpt>
      <trkpt lat="43.006010" lon="11.615080">
        <ele>538</ele>
        <time>2019-09-06T04:40:08Z</time>
      </trkpt>
      <trkpt lat="43.006020" lon="11.615320">
        <ele>539</ele>
        <time>2019-09-06T04:40:11Z</time>
      </trkpt>
      <trkpt lat="43.006000" lon="11.615430">
        <ele>540</ele>
        <time>2019-09-06T04:40:13Z</time>
      </trkpt>
      <trkpt lat="43.006030" lon="11.615300">
        <ele>539</ele>
        <time>2019-09-06T04:40:15Z</time>
      </trkpt>
      <trkpt lat="43.006010" lon="11.615080">
        <ele>538</ele>
        <time>2019-09-06T04:40:17Z</time>
      </trkpt>
      <trkpt lat="43.005860" lon="11.615030">
        <ele>540</ele>
        <time>2019-09-06T04:40:20Z</time>
      </trkpt>
      <trkpt lat="43.005820" lon="11.614940">
        <ele>539</ele>
        <time>2019-09-06T04:40:22Z</time>
      </trkpt>
      <trkpt lat="43.005450" lon="11.614900">
        <ele>541</ele>
        <time>2019-09-06T04:40:28Z</time>
      </trkpt>
      <trkpt lat="43.005200" lon="11.614770">
        <ele>541</ele>
        <time>2019-09-06T04:40:33Z</time>
      </trkpt>
      <trkpt lat="43.004820" lon="11.614500">
        <ele>540</ele>
        <time>2019-09-06T04:40:41Z</time>
      </trkpt>
      <trkpt lat="43.004480" lon="11.614310">
        <ele>541</ele>
        <time>2019-09-06T04:40:47Z</time>
      </trkpt>
      <trkpt lat="43.004330" lon="11.614200">
        <ele>542</ele>
        <time>2019-09-06T04:40:50Z</time>
      </trkpt>
      <trkpt lat="43.004250" lon="11.614100">
        <ele>542</ele>
        <time>2019-09-06T04:40:52Z</time>
      </trkpt>
      <trkpt lat="43.003960" lon="11.613600">
        <ele>539</ele>
        <time>2019-09-06T04:41:00Z</time>
      </trkpt>
      <trkpt lat="43.003700" lon="11.612670">
        <ele>544</ele>
        <time>2019-09-06T04:41:13Z</time>
      </trkpt>
      <trkpt lat="43.003520" lon="11.612180">
        <ele>548</ele>
        <time>2019-09-06T04:41:20Z</time>
      </trkpt>
      <trkpt lat="43.002950" lon="11.611020">
        <ele>562</ele>
        <time>2019-09-06T04:41:39Z</time>
      </trkpt>
      <trkpt lat="43.002900" lon="11.611080">
        <ele>563</ele>
        <time>2019-09-06T04:41:40Z</time>
      </trkpt>
      <trkpt lat="43.002720" lon="11.611640">
        <ele>567</ele>
        <time>2019-09-06T04:41:48Z</time>
      </trkpt>
      <trkpt lat="43.002590" lon="11.611840">
        <ele>567</ele>
        <time>2019-09-06T04:41:51Z</time>
      </trkpt>
      <trkpt lat="43.002500" lon="11.611890">
        <ele>569</ele>
        <time>2019-09-06T04:41:53Z</time>
      </trkpt>
      <trkpt lat="43.002000" lon="11.611960">
        <ele>569</ele>
        <time>2019-09-06T04:42:02Z</time>
      </trkpt>
      <trkpt lat="43.001810" lon="11.612070">
        <ele>569</ele>
        <time>2019-09-06T04:42:06Z</time>
      </trkpt>
      <trkpt lat="43.001640" lon="11.612290">
        <ele>566</ele>
        <time>2019-09-06T04:42:10Z</time>
      </trkpt>
      <trkpt lat="43.001530" lon="11.612340">
        <ele>565</ele>
        <time>2019-09-06T04:42:12Z</time>
      </trkpt>
      <trkpt lat="43.001490" lon="11.612310">
        <ele>565</ele>
        <time>2019-09-06T04:42:13Z</time>
      </trkpt>
      <trkpt lat="43.001270" lon="11.612010">
        <ele>566</ele>
        <time>2019-09-06T04:42:18Z</time>
      </trkpt>
      <trkpt lat="43.000870" lon="11.611620">
        <ele>568</ele>
        <time>2019-09-06T04:42:27Z</time>
      </trkpt>
      <trkpt lat="43.000630" lon="11.611300">
        <ele>570</ele>
        <time>2019-09-06T04:42:33Z</time>
      </trkpt>
      <trkpt lat="43.000220" lon="11.610850">
        <ele>570</ele>
        <time>2019-09-06T04:42:42Z</time>
      </trkpt>
      <trkpt lat="43.000060" lon="11.610640">
        <ele>569</ele>
        <time>2019-09-06T04:42:46Z</time>
      </trkpt>
      <trkpt lat="42.999820" lon="11.610120">
        <ele>569</ele>
        <time>2019-09-06T04:42:54Z</time>
      </trkpt>
      <trkpt lat="42.999710" lon="11.609770">
        <ele>568</ele>
        <time>2019-09-06T04:42:59Z</time>
      </trkpt>
      <trkpt lat="42.999510" lon="11.609690">
        <ele>565</ele>
        <time>2019-09-06T04:43:03Z</time>
      </trkpt>
      <trkpt lat="42.999510" lon="11.608670">
        <ele>569</ele>
        <time>2019-09-06T04:43:16Z</time>
      </trkpt>
      <trkpt lat="42.999490" lon="11.608520">
        <ele>570</ele>
        <time>2019-09-06T04:43:18Z</time>
      </trkpt>
      <trkpt lat="42.999430" lon="11.608340">
        <ele>569</ele>
        <time>2019-09-06T04:43:21Z</time>
      </trkpt>
      <trkpt lat="42.999320" lon="11.608130">
        <ele>569</ele>
        <time>2019-09-06T04:43:24Z</time>
      </trkpt>
      <trkpt lat="42.997960" lon="11.606720">
        <ele>575</ele>
        <time>2019-09-06T04:43:54Z</time>
      </trkpt>
      <trkpt lat="42.997740" lon="11.606560">
        <ele>578</ele>
        <time>2019-09-06T04:43:59Z</time>
      </trkpt>
      <trkpt lat="42.997350" lon="11.606450">
        <ele>580</ele>
        <time>2019-09-06T04:44:06Z</time>
      </trkpt>
      <trkpt lat="42.996700" lon="11.606140">
        <ele>582</ele>
        <time>2019-09-06T04:44:18Z</time>
      </trkpt>
      <trkpt lat="42.996370" lon="11.605860">
        <ele>585</ele>
        <time>2019-09-06T04:44:25Z</time>
      </trkpt>
      <trkpt lat="42.996050" lon="11.605560">
        <ele>587</ele>
        <time>2019-09-06T04:44:32Z</time>
      </trkpt>
      <trkpt lat="42.995840" lon="11.605190">
        <ele>589</ele>
        <time>2019-09-06T04:44:38Z</time>
      </trkpt>
      <trkpt lat="42.995340" lon="11.604530">
        <ele>587</ele>
        <time>2019-09-06T04:44:50Z</time>
      </trkpt>
      <trkpt lat="42.995070" lon="11.604350">
        <ele>586</ele>
        <time>2019-09-06T04:44:56Z</time>
      </trkpt>
      <trkpt lat="42.994250" lon="11.604190">
        <ele>590</ele>
        <time>2019-09-06T04:45:11Z</time>
      </trkpt>
      <trkpt lat="42.993890" lon="11.604060">
        <ele>588</ele>
        <time>2019-09-06T04:45:17Z</time>
      </trkpt>
      <trkpt lat="42.992570" lon="11.603810">
        <ele>580</ele>
        <time>2019-09-06T04:45:41Z</time>
      </trkpt>
      <trkpt lat="42.991460" lon="11.603780">
        <ele>571</ele>
        <time>2019-09-06T04:46:01Z</time>
      </trkpt>
      <trkpt lat="42.991110" lon="11.603750">
        <ele>569</ele>
        <time>2019-09-06T04:46:07Z</time>
      </trkpt>
      <trkpt lat="42.990760" lon="11.603630">
        <ele>567</ele>
        <time>2019-09-06T04:46:13Z</time>
      </trkpt>
      <trkpt lat="42.988910" lon="11.602660">
        <ele>558</ele>
        <time>2019-09-06T04:46:49Z</time>
      </trkpt>
      <trkpt lat="42.987760" lon="11.602010">
        <ele>549</ele>
        <time>2019-09-06T04:47:11Z</time>
      </trkpt>
      <trkpt lat="42.986600" lon="11.601550">
        <ele>539</ele>
        <time>2019-09-06T04:47:32Z</time>
      </trkpt>
      <trkpt lat="42.985920" lon="11.601350">
        <ele>531</ele>
        <time>2019-09-06T04:47:45Z</time>
      </trkpt>
      <trkpt lat="42.985540" lon="11.601270">
        <ele>529</ele>
        <time>2019-09-06T04:47:51Z</time>
      </trkpt>
      <trkpt lat="42.983740" lon="11.601140">
        <ele>531</ele>
        <time>2019-09-06T04:48:23Z</time>
      </trkpt>
      <trkpt lat="42.983520" lon="11.601080">
        <ele>532</ele>
        <time>2019-09-06T04:48:27Z</time>
      </trkpt>
      <trkpt lat="42.982240" lon="11.600580">
        <ele>537</ele>
        <time>2019-09-06T04:48:51Z</time>
      </trkpt>
      <trkpt lat="42.981740" lon="11.600210">
        <ele>537</ele>
        <time>2019-09-06T04:49:01Z</time>
      </trkpt>
      <trkpt lat="42.981600" lon="11.600180">
        <ele>537</ele>
        <time>2019-09-06T04:49:04Z</time>
      </trkpt>
      <trkpt lat="42.981470" lon="11.600200">
        <ele>537</ele>
        <time>2019-09-06T04:49:06Z</time>
      </trkpt>
      <trkpt lat="42.980910" lon="11.600400">
        <ele>537</ele>
        <time>2019-09-06T04:49:16Z</time>
      </trkpt>
      <trkpt lat="42.980650" lon="11.600450">
        <ele>539</ele>
        <time>2019-09-06T04:49:21Z</time>
      </trkpt>
      <trkpt lat="42.980030" lon="11.600390">
        <ele>544</ele>
        <time>2019-09-06T04:49:32Z</time>
      </trkpt>
      <trkpt lat="42.979380" lon="11.600200">
        <ele>552</ele>
        <time>2019-09-06T04:49:44Z</time>
      </trkpt>
      <trkpt lat="42.978890" lon="11.600160">
        <ele>557</ele>
        <time>2019-09-06T04:49:53Z</time>
      </trkpt>
      <trkpt lat="42.978750" lon="11.600110">
        <ele>559</ele>
        <time>2019-09-06T04:49:55Z</time>
      </trkpt>
      <trkpt lat="42.977990" lon="11.599630">
        <ele>563</ele>
        <time>2019-09-06T04:50:10Z</time>
      </trkpt>
      <trkpt lat="42.977830" lon="11.599400">
        <ele>563</ele>
        <time>2019-09-06T04:50:14Z</time>
      </trkpt>
      <trkpt lat="42.977690" lon="11.599420">
        <ele>565</ele>
        <time>2019-09-06T04:50:17Z</time>
      </trkpt>
      <trkpt lat="42.977530" lon="11.599500">
        <ele>567</ele>
        <time>2019-09-06T04:50:20Z</time>
      </trkpt>
      <trkpt lat="42.976790" lon="11.599430">
        <ele>573</ele>
        <time>2019-09-06T04:50:33Z</time>
      </trkpt>
      <trkpt lat="42.976270" lon="11.599330">
        <ele>578</ele>
        <time>2019-09-06T04:50:42Z</time>
      </trkpt>
      <trkpt lat="42.976160" lon="11.599260">
        <ele>578</ele>
        <time>2019-09-06T04:50:45Z</time>
      </trkpt>
      <trkpt lat="42.975570" lon="11.598650">
        <ele>585</ele>
        <time>2019-09-06T04:50:58Z</time>
      </trkpt>
      <trkpt lat="42.975430" lon="11.598350">
        <ele>585</ele>
        <time>2019-09-06T04:51:02Z</time>
      </trkpt>
      <trkpt lat="42.975390" lon="11.597910">
        <ele>582</ele>
        <time>2019-09-06T04:51:08Z</time>
      </trkpt>
      <trkpt lat="42.975350" lon="11.597760">
        <ele>581</ele>
        <time>2019-09-06T04:51:10Z</time>
      </trkpt>
      <trkpt lat="42.975270" lon="11.597660">
        <ele>582</ele>
        <time>2019-09-06T04:51:12Z</time>
      </trkpt>
      <trkpt lat="42.975150" lon="11.597620">
        <ele>583</ele>
        <time>2019-09-06T04:51:14Z</time>
      </trkpt>
      <trkpt lat="42.975060" lon="11.597650">
        <ele>585</ele>
        <time>2019-09-06T04:51:16Z</time>
      </trkpt>
      <trkpt lat="42.974970" lon="11.597750">
        <ele>587</ele>
        <time>2019-09-06T04:51:18Z</time>
      </trkpt>
      <trkpt lat="42.974930" lon="11.597920">
        <ele>589</ele>
        <time>2019-09-06T04:51:20Z</time>
      </trkpt>
      <trkpt lat="42.974930" lon="11.598090">
        <ele>591</ele>
        <time>2019-09-06T04:51:23Z</time>
      </trkpt>
      <trkpt lat="42.975140" lon="11.599070">
        <ele>599</ele>
        <time>2019-09-06T04:51:36Z</time>
      </trkpt>
      <trkpt lat="42.975150" lon="11.599330">
        <ele>600</ele>
        <time>2019-09-06T04:51:39Z</time>
      </trkpt>
      <trkpt lat="42.975060" lon="11.599760">
        <ele>602</ele>
        <time>2019-09-06T04:51:45Z</time>
      </trkpt>
      <trkpt lat="42.974850" lon="11.600130">
        <ele>604</ele>
        <time>2019-09-06T04:51:51Z</time>
      </trkpt>
      <trkpt lat="42.974620" lon="11.600350">
        <ele>607</ele>
        <time>2019-09-06T04:51:56Z</time>
      </trkpt>
      <trkpt lat="42.973870" lon="11.600810">
        <ele>621</ele>
        <time>2019-09-06T04:52:11Z</time>
      </trkpt>
      <trkpt lat="42.973760" lon="11.600960">
        <ele>622</ele>
        <time>2019-09-06T04:52:14Z</time>
      </trkpt>
      <trkpt lat="42.973370" lon="11.601780">
        <ele>627</ele>
        <time>2019-09-06T04:52:26Z</time>
      </trkpt>
      <trkpt lat="42.973200" lon="11.601970">
        <ele>628</ele>
        <time>2019-09-06T04:52:30Z</time>
      </trkpt>
      <trkpt lat="42.973010" lon="11.602130">
        <ele>628</ele>
        <time>2019-09-06T04:52:34Z</time>
      </trkpt>
      <trkpt lat="42.972500" lon="11.602330">
        <ele>632</ele>
        <time>2019-09-06T04:52:44Z</time>
      </trkpt>
      <trkpt lat="42.971970" lon="11.602350">
        <ele>639</ele>
        <time>2019-09-06T04:52:53Z</time>
      </trkpt>
      <trkpt lat="42.971880" lon="11.602410">
        <ele>639</ele>
        <time>2019-09-06T04:52:55Z</time>
      </trkpt>
      <trkpt lat="42.971730" lon="11.602580">
        <ele>640</ele>
        <time>2019-09-06T04:52:58Z</time>
      </trkpt>
      <trkpt lat="42.971610" lon="11.602800">
        <ele>641</ele>
        <time>2019-09-06T04:53:02Z</time>
      </trkpt>
      <trkpt lat="42.971550" lon="11.603310">
        <ele>641</ele>
        <time>2019-09-06T04:53:09Z</time>
      </trkpt>
      <trkpt lat="42.971490" lon="11.603530">
        <ele>641</ele>
        <time>2019-09-06T04:53:12Z</time>
      </trkpt>
      <trkpt lat="42.971370" lon="11.603720">
        <ele>643</ele>
        <time>2019-09-06T04:53:15Z</time>
      </trkpt>
      <trkpt lat="42.971200" lon="11.603930">
        <ele>646</ele>
        <time>2019-09-06T04:53:19Z</time>
      </trkpt>
      <trkpt lat="42.969780" lon="11.605320">
        <ele>659</ele>
        <time>2019-09-06T04:53:50Z</time>
      </trkpt>
      <trkpt lat="42.969290" lon="11.605760">
        <ele>659</ele>
        <time>2019-09-06T04:54:00Z</time>
      </trkpt>
      <trkpt lat="42.968990" lon="11.606210">
        <ele>659</ele>
        <time>2019-09-06T04:54:08Z</time>
      </trkpt>
      <trkpt lat="42.968910" lon="11.606550">
        <ele>660</ele>
        <time>2019-09-06T04:54:13Z</time>
      </trkpt>
      <trkpt lat="42.968870" lon="11.607040">
        <ele>663</ele>
        <time>2019-09-06T04:54:19Z</time>
      </trkpt>
      <trkpt lat="42.968900" lon="11.609340">
        <ele>672</ele>
        <time>2019-09-06T04:54:49Z</time>
      </trkpt>
      <trkpt lat="42.968860" lon="11.609850">
        <ele>674</ele>
        <time>2019-09-06T04:54:56Z</time>
      </trkpt>
      <trkpt lat="42.968660" lon="11.611220">
        <ele>675</ele>
        <time>2019-09-06T04:55:14Z</time>
      </trkpt>
      <trkpt lat="42.968430" lon="11.613060">
        <ele>671</ele>
        <time>2019-09-06T04:55:39Z</time>
      </trkpt>
      <trkpt lat="42.968410" lon="11.613670">
        <ele>671</ele>
        <time>2019-09-06T04:55:47Z</time>
      </trkpt>
      <trkpt lat="42.968340" lon="11.613840">
        <ele>671</ele>
        <time>2019-09-06T04:55:49Z</time>
      </trkpt>
      <trkpt lat="42.968220" lon="11.613980">
        <ele>670</ele>
        <time>2019-09-06T04:55:52Z</time>
      </trkpt>
      <trkpt lat="42.967860" lon="11.614210">
        <ele>665</ele>
        <time>2019-09-06T04:55:59Z</time>
      </trkpt>
      <trkpt lat="42.967640" lon="11.614580">
        <ele>665</ele>
        <time>2019-09-06T04:56:05Z</time>
      </trkpt>
      <trkpt lat="42.967590" lon="11.614850">
        <ele>666</ele>
        <time>2019-09-06T04:56:09Z</time>
      </trkpt>
      <trkpt lat="42.967570" lon="11.615170">
        <ele>666</ele>
        <time>2019-09-06T04:56:13Z</time>
      </trkpt>
      <trkpt lat="42.967600" lon="11.615510">
        <ele>665</ele>
        <time>2019-09-06T04:56:17Z</time>
      </trkpt>
      <trkpt lat="42.967600" lon="11.615880">
        <ele>663</ele>
        <time>2019-09-06T04:56:22Z</time>
      </trkpt>
      <trkpt lat="42.967520" lon="11.616170">
        <ele>661</ele>
        <time>2019-09-06T04:56:26Z</time>
      </trkpt>
      <trkpt lat="42.967420" lon="11.616340">
        <ele>660</ele>
        <time>2019-09-06T04:56:29Z</time>
      </trkpt>
      <trkpt lat="42.967310" lon="11.616440">
        <ele>660</ele>
        <time>2019-09-06T04:56:31Z</time>
      </trkpt>
      <trkpt lat="42.967070" lon="11.616560">
        <ele>659</ele>
        <time>2019-09-06T04:56:36Z</time>
      </trkpt>
      <trkpt lat="42.966560" lon="11.616720">
        <ele>660</ele>
        <time>2019-09-06T04:56:45Z</time>
      </trkpt>
      <trkpt lat="42.966090" lon="11.617170">
        <ele>661</ele>
        <time>2019-09-06T04:56:56Z</time>
      </trkpt>
      <trkpt lat="42.965860" lon="11.617320">
        <ele>661</ele>
        <time>2019-09-06T04:57:00Z</time>
      </trkpt>
      <trkpt lat="42.965160" lon="11.617400">
        <ele>662</ele>
        <time>2019-09-06T04:57:13Z</time>
      </trkpt>
      <trkpt lat="42.964530" lon="11.617570">
        <ele>659</ele>
        <time>2019-09-06T04:57:24Z</time>
      </trkpt>
      <trkpt lat="42.964000" lon="11.617480">
        <ele>661</ele>
        <time>2019-09-06T04:57:34Z</time>
      </trkpt>
      <trkpt lat="42.963830" lon="11.617490">
        <ele>662</ele>
        <time>2019-09-06T04:57:37Z</time>
      </trkpt>
      <trkpt lat="42.963580" lon="11.617600">
        <ele>662</ele>
        <time>2019-09-06T04:57:41Z</time>
      </trkpt>
      <trkpt lat="42.963030" lon="11.617990">
        <ele>659</ele>
        <time>2019-09-06T04:57:52Z</time>
      </trkpt>
      <trkpt lat="42.962860" lon="11.618080">
        <ele>658</ele>
        <time>2019-09-06T04:57:55Z</time>
      </trkpt>
      <trkpt lat="42.962720" lon="11.618120">
        <ele>658</ele>
        <time>2019-09-06T04:57:58Z</time>
      </trkpt>
      <trkpt lat="42.962280" lon="11.618110">
        <ele>659</ele>
        <time>2019-09-06T04:58:06Z</time>
      </trkpt>
      <trkpt lat="42.962080" lon="11.618200">
        <ele>658</ele>
        <time>2019-09-06T04:58:10Z</time>
      </trkpt>
      <trkpt lat="42.961990" lon="11.618270">
        <ele>657</ele>
        <time>2019-09-06T04:58:11Z</time>
      </trkpt>
      <trkpt lat="42.961840" lon="11.618450">
        <ele>656</ele>
        <time>2019-09-06T04:58:15Z</time>
      </trkpt>
      <trkpt lat="42.961210" lon="11.619300">
        <ele>654</ele>
        <time>2019-09-06T04:58:31Z</time>
      </trkpt>
      <trkpt lat="42.961070" lon="11.619430">
        <ele>654</ele>
        <time>2019-09-06T04:58:34Z</time>
      </trkpt>
      <trkpt lat="42.960470" lon="11.619780">
        <ele>654</ele>
        <time>2019-09-06T04:58:45Z</time>
      </trkpt>
      <trkpt lat="42.960320" lon="11.619900">
        <ele>653</ele>
        <time>2019-09-06T04:58:48Z</time>
      </trkpt>
      <trkpt lat="42.960200" lon="11.620060">
        <ele>652</ele>
        <time>2019-09-06T04:58:51Z</time>
      </trkpt>
      <trkpt lat="42.959790" lon="11.621100">
        <ele>646</ele>
        <time>2019-09-06T04:59:07Z</time>
      </trkpt>
      <trkpt lat="42.959630" lon="11.621320">
        <ele>643</ele>
        <time>2019-09-06T04:59:11Z</time>
      </trkpt>
      <trkpt lat="42.959510" lon="11.621400">
        <ele>643</ele>
        <time>2019-09-06T04:59:13Z</time>
      </trkpt>
      <trkpt lat="42.959160" lon="11.621540">
        <ele>641</ele>
        <time>2019-09-06T04:59:20Z</time>
      </trkpt>
      <trkpt lat="42.959000" lon="11.621690">
        <ele>639</ele>
        <time>2019-09-06T04:59:23Z</time>
      </trkpt>
      <trkpt lat="42.958940" lon="11.621810">
        <ele>638</ele>
        <time>2019-09-06T04:59:25Z</time>
      </trkpt>
      <trkpt lat="42.958730" lon="11.622660">
        <ele>631</ele>
        <time>2019-09-06T04:59:37Z</time>
      </trkpt>
      <trkpt lat="42.958620" lon="11.622870">
        <ele>629</ele>
        <time>2019-09-06T04:59:40Z</time>
      </trkpt>
      <trkpt lat="42.958470" lon="11.623070">
        <ele>628</ele>
        <time>2019-09-06T04:59:44Z</time>
      </trkpt>
      <trkpt lat="42.957910" lon="11.623550">
        <ele>622</ele>
        <time>2019-09-06T04:59:56Z</time>
      </trkpt>
      <trkpt lat="42.957840" lon="11.623660">
        <ele>621</ele>
        <time>2019-09-06T04:59:58Z</time>
      </trkpt>
      <trkpt lat="42.957780" lon="11.623950">
        <ele>620</ele>
        <time>2019-09-06T05:00:01Z</time>
      </trkpt>
      <trkpt lat="42.957840" lon="11.625270">
        <ele>614</ele>
        <time>2019-09-06T05:00:19Z</time>
      </trkpt>
      <trkpt lat="42.957830" lon="11.625480">
        <ele>614</ele>
        <time>2019-09-06T05:00:21Z</time>
      </trkpt>
      <trkpt lat="42.957790" lon="11.625740">
        <ele>613</ele>
        <time>2019-09-06T05:00:25Z</time>
      </trkpt>
      <trkpt lat="42.957420" lon="11.627060">
        <ele>618</ele>
        <time>2019-09-06T05:00:43Z</time>
      </trkpt>
      <trkpt lat="42.957370" lon="11.627430">
        <ele>620</ele>
        <time>2019-09-06T05:00:48Z</time>
      </trkpt>
      <trkpt lat="42.957410" lon="11.629120">
        <ele>622</ele>
        <time>2019-09-06T05:01:10Z</time>
      </trkpt>
      <trkpt lat="42.957310" lon="11.629460">
        <ele>619</ele>
        <time>2019-09-06T05:01:15Z</time>
      </trkpt>
      <trkpt lat="42.956480" lon="11.630740">
        <ele>615</ele>
        <time>2019-09-06T05:01:37Z</time>
      </trkpt>
      <trkpt lat="42.955990" lon="11.631200">
        <ele>615</ele>
        <time>2019-09-06T05:01:48Z</time>
      </trkpt>
      <trkpt lat="42.955660" lon="11.631690">
        <ele>618</ele>
        <time>2019-09-06T05:01:56Z</time>
      </trkpt>
      <trkpt lat="42.955530" lon="11.632180">
        <ele>620</ele>
        <time>2019-09-06T05:02:03Z</time>
      </trkpt>
      <trkpt lat="42.955510" lon="11.634230">
        <ele>634</ele>
        <time>2019-09-06T05:02:30Z</time>
      </trkpt>
      <trkpt lat="42.955420" lon="11.634850">
        <ele>639</ele>
        <time>2019-09-06T05:02:38Z</time>
      </trkpt>
      <trkpt lat="42.955330" lon="11.635260">
        <ele>641</ele>
        <time>2019-09-06T05:02:44Z</time>
      </trkpt>
      <trkpt lat="42.955170" lon="11.635560">
        <ele>643</ele>
        <time>2019-09-06T05:02:49Z</time>
      </trkpt>
      <trkpt lat="42.954980" lon="11.635800">
        <ele>646</ele>
        <time>2019-09-06T05:02:53Z</time>
      </trkpt>
      <trkpt lat="42.954530" lon="11.636480">
        <ele>655</ele>
        <time>2019-09-06T05:03:05Z</time>
      </trkpt>
      <trkpt lat="42.954450" lon="11.636740">
        <ele>657</ele>
        <time>2019-09-06T05:03:09Z</time>
      </trkpt>
      <trkpt lat="42.954440" lon="11.637560">
        <ele>660</ele>
        <time>2019-09-06T05:03:20Z</time>
      </trkpt>
      <trkpt lat="42.954520" lon="11.637830">
        <ele>660</ele>
        <time>2019-09-06T05:03:23Z</time>
      </trkpt>
      <trkpt lat="42.955000" lon="11.638480">
        <ele>659</ele>
        <time>2019-09-06T05:03:35Z</time>
      </trkpt>
      <trkpt lat="42.955130" lon="11.638780">
        <ele>661</ele>
        <time>2019-09-06T05:03:40Z</time>
      </trkpt>
      <trkpt lat="42.955170" lon="11.639060">
        <ele>663</ele>
        <time>2019-09-06T05:03:44Z</time>
      </trkpt>
      <trkpt lat="42.955110" lon="11.639350">
        <ele>664</ele>
        <time>2019-09-06T05:03:48Z</time>
      </trkpt>
      <trkpt lat="42.955040" lon="11.639480">
        <ele>664</ele>
        <time>2019-09-06T05:03:50Z</time>
      </trkpt>
      <trkpt lat="42.954890" lon="11.639690">
        <ele>666</ele>
        <time>2019-09-06T05:03:53Z</time>
      </trkpt>
      <trkpt lat="42.954360" lon="11.640120">
        <ele>673</ele>
        <time>2019-09-06T05:04:04Z</time>
      </trkpt>
      <trkpt lat="42.953940" lon="11.640260">
        <ele>678</ele>
        <time>2019-09-06T05:04:12Z</time>
      </trkpt>
      <trkpt lat="42.953400" lon="11.640360">
        <ele>684</ele>
        <time>2019-09-06T05:04:22Z</time>
      </trkpt>
      <trkpt lat="42.952920" lon="11.640490">
        <ele>692</ele>
        <time>2019-09-06T05:04:30Z</time>
      </trkpt>
      <trkpt lat="42.952810" lon="11.640590">
        <ele>693</ele>
        <time>2019-09-06T05:04:33Z</time>
      </trkpt>
      <trkpt lat="42.952680" lon="11.640800">
        <ele>693</ele>
        <time>2019-09-06T05:04:36Z</time>
      </trkpt>
      <trkpt lat="42.952620" lon="11.641050">
        <ele>694</ele>
        <time>2019-09-06T05:04:40Z</time>
      </trkpt>
      <trkpt lat="42.952700" lon="11.642050">
        <ele>695</ele>
        <time>2019-09-06T05:04:53Z</time>
      </trkpt>
      <trkpt lat="42.952680" lon="11.642350">
        <ele>698</ele>
        <time>2019-09-06T05:04:57Z</time>
      </trkpt>
      <trkpt lat="42.952590" lon="11.642640">
        <ele>701</ele>
        <time>2019-09-06T05:05:01Z</time>
      </trkpt>
      <trkpt lat="42.952310" lon="11.643430">
        <ele>707</ele>
        <time>2019-09-06T05:05:12Z</time>
      </trkpt>
      <trkpt lat="42.952140" lon="11.643760">
        <ele>709</ele>
        <time>2019-09-06T05:05:18Z</time>
      </trkpt>
      <trkpt lat="42.951820" lon="11.644190">
        <ele>713</ele>
        <time>2019-09-06T05:05:26Z</time>
      </trkpt>
      <trkpt lat="42.951640" lon="11.644330">
        <ele>716</ele>
        <time>2019-09-06T05:05:29Z</time>
      </trkpt>
      <trkpt lat="42.951530" lon="11.644380">
        <ele>717</ele>
        <time>2019-09-06T05:05:31Z</time>
      </trkpt>
      <trkpt lat="42.951360" lon="11.644380">
        <ele>720</ele>
        <time>2019-09-06T05:05:34Z</time>
      </trkpt>
      <trkpt lat="42.951220" lon="11.644300">
        <ele>722</ele>
        <time>2019-09-06T05:05:37Z</time>
      </trkpt>
      <trkpt lat="42.951110" lon="11.644150">
        <ele>724</ele>
        <time>2019-09-06T05:05:40Z</time>
      </trkpt>
      <trkpt lat="42.950670" lon="11.643330">
        <ele>732</ele>
        <time>2019-09-06T05:05:53Z</time>
      </trkpt>
      <trkpt lat="42.950560" lon="11.643030">
        <ele>734</ele>
        <time>2019-09-06T05:05:57Z</time>
      </trkpt>
      <trkpt lat="42.950550" lon="11.641670">
        <ele>734</ele>
        <time>2019-09-06T05:06:15Z</time>
      </trkpt>
      <trkpt lat="42.950520" lon="11.641500">
        <ele>734</ele>
        <time>2019-09-06T05:06:17Z</time>
      </trkpt>
      <trkpt lat="42.950440" lon="11.641320">
        <ele>735</ele>
        <time>2019-09-06T05:06:20Z</time>
      </trkpt>
      <trkpt lat="42.950340" lon="11.641180">
        <ele>737</ele>
        <time>2019-09-06T05:06:23Z</time>
      </trkpt>
      <trkpt lat="42.950210" lon="11.641080">
        <ele>738</ele>
        <time>2019-09-06T05:06:25Z</time>
      </trkpt>
      <trkpt lat="42.949990" lon="11.641020">
        <ele>741</ele>
        <time>2019-09-06T05:06:29Z</time>
      </trkpt>
      <trkpt lat="42.949340" lon="11.641090">
        <ele>747</ele>
        <time>2019-09-06T05:06:41Z</time>
      </trkpt>
      <trkpt lat="42.949050" lon="11.641280">
        <ele>749</ele>
        <time>2019-09-06T05:06:47Z</time>
      </trkpt>
      <trkpt lat="42.948840" lon="11.641620">
        <ele>753</ele>
        <time>2019-09-06T05:06:53Z</time>
      </trkpt>
      <trkpt lat="42.948750" lon="11.641960">
        <ele>756</ele>
        <time>2019-09-06T05:06:57Z</time>
      </trkpt>
      <trkpt lat="42.948770" lon="11.642410">
        <ele>760</ele>
        <time>2019-09-06T05:07:03Z</time>
      </trkpt>
      <trkpt lat="42.949050" lon="11.643410">
        <ele>763</ele>
        <time>2019-09-06T05:07:17Z</time>
      </trkpt>
      <trkpt lat="42.949050" lon="11.643640">
        <ele>764</ele>
        <time>2019-09-06T05:07:20Z</time>
      </trkpt>
      <trkpt lat="42.949000" lon="11.643830">
        <ele>765</ele>
        <time>2019-09-06T05:07:23Z</time>
      </trkpt>
      <trkpt lat="42.948710" lon="11.644410">
        <ele>771</ele>
        <time>2019-09-06T05:07:32Z</time>
      </trkpt>
      <trkpt lat="42.948340" lon="11.645510">
        <ele>776</ele>
        <time>2019-09-06T05:07:48Z</time>
      </trkpt>
      <trkpt lat="42.947990" lon="11.646270">
        <ele>778</ele>
        <time>2019-09-06T05:07:59Z</time>
      </trkpt>
      <trkpt lat="42.947890" lon="11.646540">
        <ele>778</ele>
        <time>2019-09-06T05:08:03Z</time>
      </trkpt>
      <trkpt lat="42.947860" lon="11.646690">
        <ele>778</ele>
        <time>2019-09-06T05:08:05Z</time>
      </trkpt>
      <trkpt lat="42.947850" lon="11.646980">
        <ele>778</ele>
        <time>2019-09-06T05:08:09Z</time>
      </trkpt>
      <trkpt lat="42.948040" lon="11.647650">
        <ele>776</ele>
        <time>2019-09-06T05:08:18Z</time>
      </trkpt>
      <trkpt lat="42.948060" lon="11.647980">
        <ele>776</ele>
        <time>2019-09-06T05:08:23Z</time>
      </trkpt>
      <trkpt lat="42.948050" lon="11.648080">
        <ele>777</ele>
        <time>2019-09-06T05:08:24Z</time>
      </trkpt>
      <trkpt lat="42.947840" lon="11.648790">
        <ele>782</ele>
        <time>2019-09-06T05:08:34Z</time>
      </trkpt>
      <trkpt lat="42.947850" lon="11.648940">
        <ele>783</ele>
        <time>2019-09-06T05:08:36Z</time>
      </trkpt>
      <trkpt lat="42.948170" lon="11.649940">
        <ele>783</ele>
        <time>2019-09-06T05:08:50Z</time>
      </trkpt>
      <trkpt lat="42.948270" lon="11.650330">
        <ele>783</ele>
        <time>2019-09-06T05:08:56Z</time>
      </trkpt>
      <trkpt lat="42.948580" lon="11.653250">
        <ele>772</ele>
        <time>2019-09-06T05:09:34Z</time>
      </trkpt>
      <trkpt lat="42.948550" lon="11.653430">
        <ele>772</ele>
        <time>2019-09-06T05:09:36Z</time>
      </trkpt>
      <trkpt lat="42.948290" lon="11.654310">
        <ele>773</ele>
        <time>2019-09-06T05:09:49Z</time>
      </trkpt>
      <trkpt lat="42.948270" lon="11.654470">
        <ele>772</ele>
        <time>2019-09-06T05:09:51Z</time>
      </trkpt>
      <trkpt lat="42.948270" lon="11.654670">
        <ele>772</ele>
        <time>2019-09-06T05:09:53Z</time>
      </trkpt>
      <trkpt lat="42.948420" lon="11.656080">
        <ele>767</ele>
        <time>2019-09-06T05:10:12Z</time>
      </trkpt>
      <trkpt lat="42.948390" lon="11.656470">
        <ele>767</ele>
        <time>2019-09-06T05:10:17Z</time>
      </trkpt>
      <trkpt lat="42.947770" lon="11.658760">
        <ele>757</ele>
        <time>2019-09-06T05:10:49Z</time>
      </trkpt>
      <trkpt lat="42.947510" lon="11.659530">
        <ele>755</ele>
        <time>2019-09-06T05:11:00Z</time>
      </trkpt>
      <trkpt lat="42.947110" lon="11.661030">
        <ele>750</ele>
        <time>2019-09-06T05:11:21Z</time>
      </trkpt>
      <trkpt lat="42.947050" lon="11.661420">
        <ele>751</ele>
        <time>2019-09-06T05:11:26Z</time>
      </trkpt>
      <trkpt lat="42.947050" lon="11.661670">
        <ele>750</ele>
        <time>2019-09-06T05:11:29Z</time>
      </trkpt>
      <trkpt lat="42.947140" lon="11.662030">
        <ele>751</ele>
        <time>2019-09-06T05:11:34Z</time>
      </trkpt>
      <trkpt lat="42.948100" lon="11.664670">
        <ele>744</ele>
        <time>2019-09-06T05:12:13Z</time>
      </trkpt>
      <trkpt lat="42.948360" lon="11.665060">
        <ele>741</ele>
        <time>2019-09-06T05:12:19Z</time>
      </trkpt>
      <trkpt lat="42.948360" lon="11.665210">
        <ele>741</ele>
        <time>2019-09-06T05:12:21Z</time>
      </trkpt>
      <trkpt lat="42.947840" lon="11.666220">
        <ele>742</ele>
        <time>2019-09-06T05:12:37Z</time>
      </trkpt>
      <trkpt lat="42.947790" lon="11.666360">
        <ele>742</ele>
        <time>2019-09-06T05:12:39Z</time>
      </trkpt>
      <trkpt lat="42.947660" lon="11.666530">
        <ele>742</ele>
        <time>2019-09-06T05:12:43Z</time>
      </trkpt>
      <trkpt lat="42.947050" lon="11.666730">
        <ele>747</ele>
        <time>2019-09-06T05:12:54Z</time>
      </trkpt>
      <trkpt lat="42.946880" lon="11.666900">
        <ele>748</ele>
        <time>2019-09-06T05:12:58Z</time>
      </trkpt>
      <trkpt lat="42.946730" lon="11.667100">
        <ele>750</ele>
        <time>2019-09-06T05:13:01Z</time>
      </trkpt>
      <trkpt lat="42.946670" lon="11.667280">
        <ele>750</ele>
        <time>2019-09-06T05:13:04Z</time>
      </trkpt>
      <trkpt lat="42.946680" lon="11.667460">
        <ele>750</ele>
        <time>2019-09-06T05:13:06Z</time>
      </trkpt>
      <trkpt lat="42.946780" lon="11.667760">
        <ele>751</ele>
        <time>2019-09-06T05:13:11Z</time>
      </trkpt>
      <trkpt lat="42.946680" lon="11.667780">
        <ele>754</ele>
        <time>2019-09-06T05:13:12Z</time>
      </trkpt>
      <trkpt lat="42.946830" lon="11.668080">
        <ele>754</ele>
        <time>2019-09-06T05:13:17Z</time>
      </trkpt>
      <trkpt lat="42.947160" lon="11.668640">
        <ele>744</ele>
        <time>2019-09-06T05:13:26Z</time>
      </trkpt>
      <trkpt lat="42.947230" lon="11.668860">
        <ele>741</ele>
        <time>2019-09-06T05:13:30Z</time>
      </trkpt>
      <trkpt lat="42.947270" lon="11.669130">
        <ele>738</ele>
        <time>2019-09-06T05:13:33Z</time>
      </trkpt>
      <trkpt lat="42.947170" lon="11.669360">
        <ele>738</ele>
        <time>2019-09-06T05:13:37Z</time>
      </trkpt>
      <trkpt lat="42.947070" lon="11.669520">
        <ele>737</ele>
        <time>2019-09-06T05:13:39Z</time>
      </trkpt>
      <trkpt lat="42.946920" lon="11.669590">
        <ele>738</ele>
        <time>2019-09-06T05:13:42Z</time>
      </trkpt>
      <trkpt lat="42.946780" lon="11.669640">
        <ele>739</ele>
        <time>2019-09-06T05:13:45Z</time>
      </trkpt>
      <trkpt lat="42.946300" lon="11.669720">
        <ele>738</ele>
        <time>2019-09-06T05:13:53Z</time>
      </trkpt>
      <trkpt lat="42.946140" lon="11.669780">
        <ele>736</ele>
        <time>2019-09-06T05:13:56Z</time>
      </trkpt>
      <trkpt lat="42.945510" lon="11.669710">
        <ele>734</ele>
        <time>2019-09-06T05:14:08Z</time>
      </trkpt>
      <trkpt lat="42.945480" lon="11.669810">
        <ele>731</ele>
        <time>2019-09-06T05:14:09Z</time>
      </trkpt>
      <trkpt lat="42.945490" lon="11.669970">
        <ele>727</ele>
        <time>2019-09-06T05:14:11Z</time>
      </trkpt>
      <trkpt lat="42.945370" lon="11.670040">
        <ele>724</ele>
        <time>2019-09-06T05:14:13Z</time>
      </trkpt>
      <trkpt lat="42.945060" lon="11.670130">
        <ele>720</ele>
        <time>2019-09-06T05:14:19Z</time>
      </trkpt>
      <trkpt lat="42.944800" lon="11.670340">
        <ele>716</ele>
        <time>2019-09-06T05:14:24Z</time>
      </trkpt>
      <trkpt lat="42.944550" lon="11.670500">
        <ele>713</ele>
        <time>2019-09-06T05:14:29Z</time>
      </trkpt>
      <trkpt lat="42.944160" lon="11.670610">
        <ele>711</ele>
        <time>2019-09-06T05:14:36Z</time>
      </trkpt>
      <trkpt lat="42.943980" lon="11.670750">
        <ele>713</ele>
        <time>2019-09-06T05:14:40Z</time>
      </trkpt>
      <trkpt lat="42.943120" lon="11.671930">
        <ele>698</ele>
        <time>2019-09-06T05:15:02Z</time>
      </trkpt>
      <trkpt lat="42.942690" lon="11.672640">
        <ele>682</ele>
        <time>2019-09-06T05:15:14Z</time>
      </trkpt>
      <trkpt lat="42.942490" lon="11.672840">
        <ele>679</ele>
        <time>2019-09-06T05:15:18Z</time>
      </trkpt>
      <trkpt lat="42.942350" lon="11.672920">
        <ele>677</ele>
        <time>2019-09-06T05:15:21Z</time>
      </trkpt>
      <trkpt lat="42.942030" lon="11.672920">
        <ele>678</ele>
        <time>2019-09-06T05:15:27Z</time>
      </trkpt>
      <trkpt lat="42.941950" lon="11.672970">
        <ele>677</ele>
        <time>2019-09-06T05:15:28Z</time>
      </trkpt>
      <trkpt lat="42.941850" lon="11.673360">
        <ele>666</ele>
        <time>2019-09-06T05:15:34Z</time>
      </trkpt>
      <trkpt lat="42.941790" lon="11.673460">
        <ele>663</ele>
        <time>2019-09-06T05:15:35Z</time>
      </trkpt>
      <trkpt lat="42.941730" lon="11.673490">
        <ele>663</ele>
        <time>2019-09-06T05:15:36Z</time>
      </trkpt>
      <trkpt lat="42.941630" lon="11.673490">
        <ele>663</ele>
        <time>2019-09-06T05:15:38Z</time>
      </trkpt>
      <trkpt lat="42.941370" lon="11.673400">
        <ele>664</ele>
        <time>2019-09-06T05:15:43Z</time>
      </trkpt>
      <trkpt lat="42.940900" lon="11.673060">
        <ele>671</ele>
        <time>2019-09-06T05:15:52Z</time>
      </trkpt>
      <trkpt lat="42.940820" lon="11.673050">
        <ele>671</ele>
        <time>2019-09-06T05:15:54Z</time>
      </trkpt>
      <trkpt lat="42.940720" lon="11.673120">
        <ele>673</ele>
        <time>2019-09-06T05:15:56Z</time>
      </trkpt>
      <trkpt lat="42.940660" lon="11.673230">
        <ele>674</ele>
        <time>2019-09-06T05:15:58Z</time>
      </trkpt>
      <trkpt lat="42.940650" lon="11.673360">
        <ele>672</ele>
        <time>2019-09-06T05:15:59Z</time>
      </trkpt>
      <trkpt lat="42.940750" lon="11.674150">
        <ele>659</ele>
        <time>2019-09-06T05:16:10Z</time>
      </trkpt>
      <trkpt lat="42.940730" lon="11.674510">
        <ele>656</ele>
        <time>2019-09-06T05:16:14Z</time>
      </trkpt>
      <trkpt lat="42.940650" lon="11.674810">
        <ele>656</ele>
        <time>2019-09-06T05:16:19Z</time>
      </trkpt>
      <trkpt lat="42.940570" lon="11.674940">
        <ele>658</ele>
        <time>2019-09-06T05:16:21Z</time>
      </trkpt>
      <trkpt lat="42.940200" lon="11.675200">
        <ele>663</ele>
        <time>2019-09-06T05:16:28Z</time>
      </trkpt>
      <trkpt lat="42.940060" lon="11.675410">
        <ele>661</ele>
        <time>2019-09-06T05:16:32Z</time>
      </trkpt>
      <trkpt lat="42.939300" lon="11.677250">
        <ele>647</ele>
        <time>2019-09-06T05:16:59Z</time>
      </trkpt>
      <trkpt lat="42.939190" lon="11.677430">
        <ele>647</ele>
        <time>2019-09-06T05:17:02Z</time>
      </trkpt>
      <trkpt lat="42.938980" lon="11.677510">
        <ele>651</ele>
        <time>2019-09-06T05:17:06Z</time>
      </trkpt>
      <trkpt lat="42.938780" lon="11.677550">
        <ele>657</ele>
        <time>2019-09-06T05:17:10Z</time>
      </trkpt>
      <trkpt lat="42.938710" lon="11.677600">
        <ele>658</ele>
        <time>2019-09-06T05:17:11Z</time>
      </trkpt>
      <trkpt lat="42.938600" lon="11.677750">
        <ele>659</ele>
        <time>2019-09-06T05:17:14Z</time>
      </trkpt>
      <trkpt lat="42.937730" lon="11.679660">
        <ele>658</ele>
        <time>2019-09-06T05:17:43Z</time>
      </trkpt>
      <trkpt lat="42.937150" lon="11.680590">
        <ele>663</ele>
        <time>2019-09-06T05:17:59Z</time>
      </trkpt>
      <trkpt lat="42.936760" lon="11.681270">
        <ele>665</ele>
        <time>2019-09-06T05:18:11Z</time>
      </trkpt>
      <trkpt lat="42.936440" lon="11.681620">
        <ele>667</ele>
        <time>2019-09-06T05:18:18Z</time>
      </trkpt>
      <trkpt lat="42.936030" lon="11.682490">
        <ele>665</ele>
        <time>2019-09-06T05:18:31Z</time>
      </trkpt>
      <trkpt lat="42.935960" lon="11.682590">
        <ele>666</ele>
        <time>2019-09-06T05:18:33Z</time>
      </trkpt>
      <trkpt lat="42.935350" lon="11.682910">
        <ele>673</ele>
        <time>2019-09-06T05:18:45Z</time>
      </trkpt>
      <trkpt lat="42.934530" lon="11.683500">
        <ele>680</ele>
        <time>2019-09-06T05:19:01Z</time>
      </trkpt>
      <trkpt lat="42.934360" lon="11.683570">
        <ele>683</ele>
        <time>2019-09-06T05:19:04Z</time>
      </trkpt>
      <trkpt lat="42.934150" lon="11.683570">
        <ele>686</ele>
        <time>2019-09-06T05:19:08Z</time>
      </trkpt>
      <trkpt lat="42.934090" lon="11.683600">
        <ele>688</ele>
        <time>2019-09-06T05:19:09Z</time>
      </trkpt>
      <trkpt lat="42.934050" lon="11.683660">
        <ele>689</ele>
        <time>2019-09-06T05:19:10Z</time>
      </trkpt>
      <trkpt lat="42.933950" lon="11.684130">
        <ele>693</ele>
        <time>2019-09-06T05:19:17Z</time>
      </trkpt>
      <trkpt lat="42.933820" lon="11.684430">
        <ele>694</ele>
        <time>2019-09-06T05:19:21Z</time>
      </trkpt>
      <trkpt lat="42.933680" lon="11.684510">
        <ele>695</ele>
        <time>2019-09-06T05:19:24Z</time>
      </trkpt>
      <trkpt lat="42.933220" lon="11.684540">
        <ele>697</ele>
        <time>2019-09-06T05:19:32Z</time>
      </trkpt>
      <trkpt lat="42.931950" lon="11.685040">
        <ele>687</ele>
        <time>2019-09-06T05:19:56Z</time>
      </trkpt>
      <trkpt lat="42.931430" lon="11.685090">
        <ele>682</ele>
        <time>2019-09-06T05:20:05Z</time>
      </trkpt>
      <trkpt lat="42.931100" lon="11.685650">
        <ele>673</ele>
        <time>2019-09-06T05:20:14Z</time>
      </trkpt>
      <trkpt lat="42.930530" lon="11.686800">
        <ele>661</ele>
        <time>2019-09-06T05:20:32Z</time>
      </trkpt>
      <trkpt lat="42.930340" lon="11.686910">
        <ele>658</ele>
        <time>2019-09-06T05:20:36Z</time>
      </trkpt>
      <trkpt lat="42.929690" lon="11.687000">
        <ele>653</ele>
        <time>2019-09-06T05:20:48Z</time>
      </trkpt>
      <trkpt lat="42.929450" lon="11.686990">
        <ele>652</ele>
        <time>2019-09-06T05:20:52Z</time>
      </trkpt>
      <trkpt lat="42.929280" lon="11.686950">
        <ele>652</ele>
        <time>2019-09-06T05:20:55Z</time>
      </trkpt>
      <trkpt lat="42.927880" lon="11.686010">
        <ele>650</ele>
        <time>2019-09-06T05:21:23Z</time>
      </trkpt>
      <trkpt lat="42.927750" lon="11.685970">
        <ele>649</ele>
        <time>2019-09-06T05:21:25Z</time>
      </trkpt>
      <trkpt lat="42.927600" lon="11.685970">
        <ele>648</ele>
        <time>2019-09-06T05:21:28Z</time>
      </trkpt>
      <trkpt lat="42.927440" lon="11.686010">
        <ele>646</ele>
        <time>2019-09-06T05:21:31Z</time>
      </trkpt>
      <trkpt lat="42.927330" lon="11.686120">
        <ele>644</ele>
        <time>2019-09-06T05:21:33Z</time>
      </trkpt>
      <trkpt lat="42.927200" lon="11.686330">
        <ele>642</ele>
        <time>2019-09-06T05:21:37Z</time>
      </trkpt>
      <trkpt lat="42.926670" lon="11.688100">
        <ele>633</ele>
        <time>2019-09-06T05:22:02Z</time>
      </trkpt>
      <trkpt lat="42.926650" lon="11.688510">
        <ele>630</ele>
        <time>2019-09-06T05:22:07Z</time>
      </trkpt>
      <trkpt lat="42.926710" lon="11.688710">
        <ele>629</ele>
        <time>2019-09-06T05:22:10Z</time>
      </trkpt>
      <trkpt lat="42.927100" lon="11.689440">
        <ele>624</ele>
        <time>2019-09-06T05:22:22Z</time>
      </trkpt>
      <trkpt lat="42.927200" lon="11.689570">
        <ele>623</ele>
        <time>2019-09-06T05:22:24Z</time>
      </trkpt>
      <trkpt lat="42.927310" lon="11.689660">
        <ele>622</ele>
        <time>2019-09-06T05:22:26Z</time>
      </trkpt>
      <trkpt lat="42.927570" lon="11.689670">
        <ele>621</ele>
        <time>2019-09-06T05:22:31Z</time>
      </trkpt>
      <trkpt lat="42.927880" lon="11.689570">
        <ele>621</ele>
        <time>2019-09-06T05:22:37Z</time>
      </trkpt>
      <trkpt lat="42.928070" lon="11.689550">
        <ele>619</ele>
        <time>2019-09-06T05:22:40Z</time>
      </trkpt>
      <trkpt lat="42.928220" lon="11.689600">
        <ele>617</ele>
        <time>2019-09-06T05:22:43Z</time>
      </trkpt>
      <trkpt lat="42.928340" lon="11.689720">
        <ele>614</ele>
        <time>2019-09-06T05:22:45Z</time>
      </trkpt>
      <trkpt lat="42.928400" lon="11.690050">
        <ele>608</ele>
        <time>2019-09-06T05:22:50Z</time>
      </trkpt>
      <trkpt lat="42.928370" lon="11.690290">
        <ele>604</ele>
        <time>2019-09-06T05:22:53Z</time>
      </trkpt>
      <trkpt lat="42.928320" lon="11.690470">
        <ele>601</ele>
        <time>2019-09-06T05:22:56Z</time>
      </trkpt>
      <trkpt lat="42.928240" lon="11.690570">
        <ele>600</ele>
        <time>2019-09-06T05:22:58Z</time>
      </trkpt>
      <trkpt lat="42.928130" lon="11.690630">
        <ele>599</ele>
        <time>2019-09-06T05:23:00Z</time>
      </trkpt>
      <trkpt lat="42.928020" lon="11.690650">
        <ele>599</ele>
        <time>2019-09-06T05:23:02Z</time>
      </trkpt>
      <trkpt lat="42.927730" lon="11.690640">
        <ele>601</ele>
        <time>2019-09-06T05:23:07Z</time>
      </trkpt>
      <trkpt lat="42.927570" lon="11.690720">
        <ele>600</ele>
        <time>2019-09-06T05:23:10Z</time>
      </trkpt>
      <trkpt lat="42.927290" lon="11.690910">
        <ele>599</ele>
        <time>2019-09-06T05:23:15Z</time>
      </trkpt>
      <trkpt lat="42.926990" lon="11.691220">
        <ele>598</ele>
        <time>2019-09-06T05:23:22Z</time>
      </trkpt>
      <trkpt lat="42.926770" lon="11.691530">
        <ele>596</ele>
        <time>2019-09-06T05:23:28Z</time>
      </trkpt>
      <trkpt lat="42.926710" lon="11.691740">
        <ele>595</ele>
        <time>2019-09-06T05:23:31Z</time>
      </trkpt>
      <trkpt lat="42.926660" lon="11.692090">
        <ele>591</ele>
        <time>2019-09-06T05:23:35Z</time>
      </trkpt>
      <trkpt lat="42.926570" lon="11.693420">
        <ele>588</ele>
        <time>2019-09-06T05:23:53Z</time>
      </trkpt>
      <trkpt lat="42.926560" lon="11.693890">
        <ele>590</ele>
        <time>2019-09-06T05:23:59Z</time>
      </trkpt>
      <trkpt lat="42.926590" lon="11.694260">
        <ele>591</ele>
        <time>2019-09-06T05:24:04Z</time>
      </trkpt>
      <trkpt lat="42.926630" lon="11.694510">
        <ele>590</ele>
        <time>2019-09-06T05:24:07Z</time>
      </trkpt>
      <trkpt lat="42.927370" lon="11.696090">
        <ele>582</ele>
        <time>2019-09-06T05:24:31Z</time>
      </trkpt>
      <trkpt lat="42.927460" lon="11.696420">
        <ele>580</ele>
        <time>2019-09-06T05:24:36Z</time>
      </trkpt>
      <trkpt lat="42.927610" lon="11.697530">
        <ele>573</ele>
        <time>2019-09-06T05:24:51Z</time>
      </trkpt>
      <trkpt lat="42.927630" lon="11.697900">
        <ele>572</ele>
        <time>2019-09-06T05:24:56Z</time>
      </trkpt>
      <trkpt lat="42.927520" lon="11.698820">
        <ele>571</ele>
        <time>2019-09-06T05:25:08Z</time>
      </trkpt>
      <trkpt lat="42.930250" lon="11.699950">
        <ele>503</ele>
        <time>2019-09-06T05:25:58Z</time>
      </trkpt>
      <trkpt lat="42.927530" lon="11.698780">
        <ele>571</ele>
        <time>2019-09-06T05:26:49Z</time>
      </trkpt>
      <trkpt lat="42.927430" lon="11.699610">
        <ele>568</ele>
        <time>2019-09-06T05:27:00Z</time>
      </trkpt>
      <trkpt lat="42.927330" lon="11.700190">
        <ele>565</ele>
        <time>2019-09-06T05:27:08Z</time>
      </trkpt>
      <trkpt lat="42.927250" lon="11.700280">
        <ele>565</ele>
        <time>2019-09-06T05:27:10Z</time>
      </trkpt>
      <trkpt lat="42.927160" lon="11.700330">
        <ele>564</ele>
        <time>2019-09-06T05:27:11Z</time>
      </trkpt>
      <trkpt lat="42.927060" lon="11.700340">
        <ele>564</ele>
        <time>2019-09-06T05:27:13Z</time>
      </trkpt>
      <trkpt lat="42.926800" lon="11.700260">
        <ele>564</ele>
        <time>2019-09-06T05:27:18Z</time>
      </trkpt>
      <trkpt lat="42.926700" lon="11.700280">
        <ele>564</ele>
        <time>2019-09-06T05:27:20Z</time>
      </trkpt>
      <trkpt lat="42.926620" lon="11.700390">
        <ele>564</ele>
        <time>2019-09-06T05:27:22Z</time>
      </trkpt>
      <trkpt lat="42.926950" lon="11.701400">
        <ele>556</ele>
        <time>2019-09-06T05:27:36Z</time>
      </trkpt>
      <trkpt lat="42.927150" lon="11.701690">
        <ele>553</ele>
        <time>2019-09-06T05:27:41Z</time>
      </trkpt>
      <trkpt lat="42.927300" lon="11.701820">
        <ele>551</ele>
        <time>2019-09-06T05:27:45Z</time>
      </trkpt>
      <trkpt lat="42.927450" lon="11.701880">
        <ele>550</ele>
        <time>2019-09-06T05:27:47Z</time>
      </trkpt>
      <trkpt lat="42.927830" lon="11.701950">
        <ele>545</ele>
        <time>2019-09-06T05:27:54Z</time>
      </trkpt>
      <trkpt lat="42.927940" lon="11.701940">
        <ele>543</ele>
        <time>2019-09-06T05:27:56Z</time>
      </trkpt>
      <trkpt lat="42.928050" lon="11.701910">
        <ele>542</ele>
        <time>2019-09-06T05:27:58Z</time>
      </trkpt>
      <trkpt lat="42.928180" lon="11.701760">
        <ele>542</ele>
        <time>2019-09-06T05:28:01Z</time>
      </trkpt>
      <trkpt lat="42.928920" lon="11.699940">
        <ele>541</ele>
        <time>2019-09-06T05:28:28Z</time>
      </trkpt>
      <trkpt lat="42.929170" lon="11.699090">
        <ele>538</ele>
        <time>2019-09-06T05:28:40Z</time>
      </trkpt>
      <trkpt lat="42.929360" lon="11.698280">
        <ele>537</ele>
        <time>2019-09-06T05:28:51Z</time>
      </trkpt>
      <trkpt lat="42.929470" lon="11.697210">
        <ele>532</ele>
        <time>2019-09-06T05:29:05Z</time>
      </trkpt>
      <trkpt lat="42.929360" lon="11.696660">
        <ele>531</ele>
        <time>2019-09-06T05:29:13Z</time>
      </trkpt>
      <trkpt lat="42.929380" lon="11.696500">
        <ele>531</ele>
        <time>2019-09-06T05:29:15Z</time>
      </trkpt>
      <trkpt lat="42.929470" lon="11.696360">
        <ele>529</ele>
        <time>2019-09-06T05:29:17Z</time>
      </trkpt>
      <trkpt lat="42.929590" lon="11.696240">
        <ele>527</ele>
        <time>2019-09-06T05:29:20Z</time>
      </trkpt>
      <trkpt lat="42.929720" lon="11.696250">
        <ele>525</ele>
        <time>2019-09-06T05:29:22Z</time>
      </trkpt>
      <trkpt lat="42.929890" lon="11.696360">
        <ele>521</ele>
        <time>2019-09-06T05:29:26Z</time>
      </trkpt>
      <trkpt lat="42.930410" lon="11.697000">
        <ele>520</ele>
        <time>2019-09-06T05:29:38Z</time>
      </trkpt>
      <trkpt lat="42.930510" lon="11.697200">
        <ele>519</ele>
        <time>2019-09-06T05:29:41Z</time>
      </trkpt>
      <trkpt lat="42.930560" lon="11.697400">
        <ele>517</ele>
        <time>2019-09-06T05:29:44Z</time>
      </trkpt>
      <trkpt lat="42.930600" lon="11.698080">
        <ele>510</ele>
        <time>2019-09-06T05:29:53Z</time>
      </trkpt>
      <trkpt lat="42.930640" lon="11.698330">
        <ele>507</ele>
        <time>2019-09-06T05:29:56Z</time>
      </trkpt>
      <trkpt lat="42.930980" lon="11.699340">
        <ele>497</ele>
        <time>2019-09-06T05:30:11Z</time>
      </trkpt>
      <trkpt lat="42.931130" lon="11.699610">
        <ele>495</ele>
        <time>2019-09-06T05:30:15Z</time>
      </trkpt>
      <trkpt lat="42.931410" lon="11.700010">
        <ele>493</ele>
        <time>2019-09-06T05:30:22Z</time>
      </trkpt>
      <trkpt lat="42.932130" lon="11.701290">
        <ele>483</ele>
        <time>2019-09-06T05:30:43Z</time>
      </trkpt>
      <trkpt lat="42.932300" lon="11.701470">
        <ele>482</ele>
        <time>2019-09-06T05:30:47Z</time>
      </trkpt>
      <trkpt lat="42.932630" lon="11.701640">
        <ele>481</ele>
        <time>2019-09-06T05:30:53Z</time>
      </trkpt>
      <trkpt lat="42.932830" lon="11.701670">
        <ele>480</ele>
        <time>2019-09-06T05:30:57Z</time>
      </trkpt>
      <trkpt lat="42.933000" lon="11.701630">
        <ele>480</ele>
        <time>2019-09-06T05:31:00Z</time>
      </trkpt>
      <trkpt lat="42.933660" lon="11.701310">
        <ele>481</ele>
        <time>2019-09-06T05:31:13Z</time>
      </trkpt>
      <trkpt lat="42.933810" lon="11.701280">
        <ele>480</ele>
        <time>2019-09-06T05:31:15Z</time>
      </trkpt>
      <trkpt lat="42.933970" lon="11.701300">
        <ele>479</ele>
        <time>2019-09-06T05:31:18Z</time>
      </trkpt>
      <trkpt lat="42.935140" lon="11.701540">
        <ele>472</ele>
        <time>2019-09-06T05:31:39Z</time>
      </trkpt>
      <trkpt lat="42.935420" lon="11.701720">
        <ele>473</ele>
        <time>2019-09-06T05:31:45Z</time>
      </trkpt>
      <trkpt lat="42.935550" lon="11.701900">
        <ele>473</ele>
        <time>2019-09-06T05:31:48Z</time>
      </trkpt>
      <trkpt lat="42.935660" lon="11.702120">
        <ele>472</ele>
        <time>2019-09-06T05:31:51Z</time>
      </trkpt>
      <trkpt lat="42.935710" lon="11.702330">
        <ele>470</ele>
        <time>2019-09-06T05:31:54Z</time>
      </trkpt>
      <trkpt lat="42.935790" lon="11.704590">
        <ele>454</ele>
        <time>2019-09-06T05:32:24Z</time>
      </trkpt>
      <trkpt lat="42.935850" lon="11.705400">
        <ele>451</ele>
        <time>2019-09-06T05:32:34Z</time>
      </trkpt>
      <trkpt lat="42.935890" lon="11.705620">
        <ele>450</ele>
        <time>2019-09-06T05:32:37Z</time>
      </trkpt>
      <trkpt lat="42.936070" lon="11.706040">
        <ele>449</ele>
        <time>2019-09-06T05:32:44Z</time>
      </trkpt>
      <trkpt lat="42.936520" lon="11.706570">
        <ele>450</ele>
        <time>2019-09-06T05:32:54Z</time>
      </trkpt>
      <trkpt lat="42.936670" lon="11.706990">
        <ele>449</ele>
        <time>2019-09-06T05:33:00Z</time>
      </trkpt>
      <trkpt lat="42.936710" lon="11.707430">
        <ele>446</ele>
        <time>2019-09-06T05:33:06Z</time>
      </trkpt>
      <trkpt lat="42.936790" lon="11.710910">
        <ele>432</ele>
        <time>2019-09-06T05:33:51Z</time>
      </trkpt>
      <trkpt lat="42.936870" lon="11.711220">
        <ele>431</ele>
        <time>2019-09-06T05:33:56Z</time>
      </trkpt>
      <trkpt lat="42.936920" lon="11.711310">
        <ele>430</ele>
        <time>2019-09-06T05:33:57Z</time>
      </trkpt>
      <trkpt lat="42.937010" lon="11.711410">
        <ele>430</ele>
        <time>2019-09-06T05:33:59Z</time>
      </trkpt>
      <trkpt lat="42.937140" lon="11.711500">
        <ele>430</ele>
        <time>2019-09-06T05:34:02Z</time>
      </trkpt>
      <trkpt lat="42.938160" lon="11.711830">
        <ele>427</ele>
        <time>2019-09-06T05:34:21Z</time>
      </trkpt>
      <trkpt lat="42.938510" lon="11.711850">
        <ele>425</ele>
        <time>2019-09-06T05:34:27Z</time>
      </trkpt>
      <trkpt lat="42.939130" lon="11.711590">
        <ele>425</ele>
        <time>2019-09-06T05:34:38Z</time>
      </trkpt>
      <trkpt lat="42.939910" lon="11.711190">
        <ele>421</ele>
        <time>2019-09-06T05:34:53Z</time>
      </trkpt>
      <trkpt lat="42.940590" lon="11.710660">
        <ele>422</ele>
        <time>2019-09-06T05:35:07Z</time>
      </trkpt>
      <trkpt lat="42.940700" lon="11.710610">
        <ele>422</ele>
        <time>2019-09-06T05:35:09Z</time>
      </trkpt>
      <trkpt lat="42.940800" lon="11.710630">
        <ele>420</ele>
        <time>2019-09-06T05:35:11Z</time>
      </trkpt>
      <trkpt lat="42.940850" lon="11.710670">
        <ele>419</ele>
        <time>2019-09-06T05:35:12Z</time>
      </trkpt>
      <trkpt lat="42.940870" lon="11.710820">
        <ele>416</ele>
        <time>2019-09-06T05:35:14Z</time>
      </trkpt>
      <trkpt lat="42.940860" lon="11.710900">
        <ele>415</ele>
        <time>2019-09-06T05:35:15Z</time>
      </trkpt>
      <trkpt lat="42.940780" lon="11.711050">
        <ele>415</ele>
        <time>2019-09-06T05:35:17Z</time>
      </trkpt>
      <trkpt lat="42.940610" lon="11.711110">
        <ele>416</ele>
        <time>2019-09-06T05:35:21Z</time>
      </trkpt>
      <trkpt lat="42.938080" lon="11.712310">
        <ele>422</ele>
        <time>2019-09-06T05:36:08Z</time>
      </trkpt>
      <trkpt lat="42.938060" lon="11.712580">
        <ele>420</ele>
        <time>2019-09-06T05:36:12Z</time>
      </trkpt>
      <trkpt lat="42.937770" lon="11.713290">
        <ele>421</ele>
        <time>2019-09-06T05:36:22Z</time>
      </trkpt>
      <trkpt lat="42.937550" lon="11.713670">
        <ele>426</ele>
        <time>2019-09-06T05:36:29Z</time>
      </trkpt>
      <trkpt lat="42.937430" lon="11.713760">
        <ele>428</ele>
        <time>2019-09-06T05:36:31Z</time>
      </trkpt>
      <trkpt lat="42.937260" lon="11.713810">
        <ele>429</ele>
        <time>2019-09-06T05:36:34Z</time>
      </trkpt>
      <trkpt lat="42.936050" lon="11.713850">
        <ele>436</ele>
        <time>2019-09-06T05:36:56Z</time>
      </trkpt>
      <trkpt lat="42.934310" lon="11.714690">
        <ele>444</ele>
        <time>2019-09-06T05:37:29Z</time>
      </trkpt>
      <trkpt lat="42.933810" lon="11.715160">
        <ele>444</ele>
        <time>2019-09-06T05:37:39Z</time>
      </trkpt>
      <trkpt lat="42.932040" lon="11.717080">
        <ele>444</ele>
        <time>2019-09-06T05:38:20Z</time>
      </trkpt>
      <trkpt lat="42.931140" lon="11.718450">
        <ele>446</ele>
        <time>2019-09-06T05:38:44Z</time>
      </trkpt>
      <trkpt lat="42.930600" lon="11.718710">
        <ele>445</ele>
        <time>2019-09-06T05:38:54Z</time>
      </trkpt>
      <trkpt lat="42.930120" lon="11.719050">
        <ele>447</ele>
        <time>2019-09-06T05:39:03Z</time>
      </trkpt>
      <trkpt lat="42.929730" lon="11.719420">
        <ele>450</ele>
        <time>2019-09-06T05:39:12Z</time>
      </trkpt>
      <trkpt lat="42.929430" lon="11.719810">
        <ele>453</ele>
        <time>2019-09-06T05:39:19Z</time>
      </trkpt>
      <trkpt lat="42.929310" lon="11.720040">
        <ele>453</ele>
        <time>2019-09-06T05:39:23Z</time>
      </trkpt>
      <trkpt lat="42.929200" lon="11.720430">
        <ele>455</ele>
        <time>2019-09-06T05:39:28Z</time>
      </trkpt>
      <trkpt lat="42.928920" lon="11.722410">
        <ele>463</ele>
        <time>2019-09-06T05:39:55Z</time>
      </trkpt>
      <trkpt lat="42.928850" lon="11.722660">
        <ele>464</ele>
        <time>2019-09-06T05:39:58Z</time>
      </trkpt>
      <trkpt lat="42.928670" lon="11.722770">
        <ele>464</ele>
        <time>2019-09-06T05:40:02Z</time>
      </trkpt>
      <trkpt lat="42.928080" lon="11.722820">
        <ele>466</ele>
        <time>2019-09-06T05:40:12Z</time>
      </trkpt>
      <trkpt lat="42.927730" lon="11.723020">
        <ele>470</ele>
        <time>2019-09-06T05:40:19Z</time>
      </trkpt>
      <trkpt lat="42.927590" lon="11.723190">
        <ele>472</ele>
        <time>2019-09-06T05:40:22Z</time>
      </trkpt>
      <trkpt lat="42.927140" lon="11.724060">
        <ele>479</ele>
        <time>2019-09-06T05:40:36Z</time>
      </trkpt>
      <trkpt lat="42.926510" lon="11.724900">
        <ele>491</ele>
        <time>2019-09-06T05:40:52Z</time>
      </trkpt>
      <trkpt lat="42.926360" lon="11.725370">
        <ele>494</ele>
        <time>2019-09-06T05:40:58Z</time>
      </trkpt>
      <trkpt lat="42.926370" lon="11.725630">
        <ele>495</ele>
        <time>2019-09-06T05:41:02Z</time>
      </trkpt>
      <trkpt lat="42.926490" lon="11.725980">
        <ele>495</ele>
        <time>2019-09-06T05:41:07Z</time>
      </trkpt>
      <trkpt lat="42.926700" lon="11.726250">
        <ele>494</ele>
        <time>2019-09-06T05:41:12Z</time>
      </trkpt>
      <trkpt lat="42.927140" lon="11.726580">
        <ele>496</ele>
        <time>2019-09-06T05:41:21Z</time>
      </trkpt>
      <trkpt lat="42.927270" lon="11.726770">
        <ele>497</ele>
        <time>2019-09-06T05:41:24Z</time>
      </trkpt>
      <trkpt lat="42.927360" lon="11.727010">
        <ele>499</ele>
        <time>2019-09-06T05:41:28Z</time>
      </trkpt>
      <trkpt lat="42.927370" lon="11.727260">
        <ele>501</ele>
        <time>2019-09-06T05:41:31Z</time>
      </trkpt>
      <trkpt lat="42.927260" lon="11.728120">
        <ele>506</ele>
        <time>2019-09-06T05:41:42Z</time>
      </trkpt>
      <trkpt lat="42.927350" lon="11.729320">
        <ele>517</ele>
        <time>2019-09-06T05:41:58Z</time>
      </trkpt>
      <trkpt lat="42.927510" lon="11.729830">
        <ele>522</ele>
        <time>2019-09-06T05:42:05Z</time>
      </trkpt>
      <trkpt lat="42.927830" lon="11.730210">
        <ele>526</ele>
        <time>2019-09-06T05:42:13Z</time>
      </trkpt>
      <trkpt lat="42.928410" lon="11.730520">
        <ele>530</ele>
        <time>2019-09-06T05:42:24Z</time>
      </trkpt>
      <trkpt lat="42.928580" lon="11.730670">
        <ele>532</ele>
        <time>2019-09-06T05:42:28Z</time>
      </trkpt>
      <trkpt lat="42.928640" lon="11.730920">
        <ele>536</ele>
        <time>2019-09-06T05:42:31Z</time>
      </trkpt>
      <trkpt lat="42.928500" lon="11.731130">
        <ele>538</ele>
        <time>2019-09-06T05:42:35Z</time>
      </trkpt>
      <trkpt lat="42.928320" lon="11.731190">
        <ele>537</ele>
        <time>2019-09-06T05:42:38Z</time>
      </trkpt>
      <trkpt lat="42.927750" lon="11.731030">
        <ele>537</ele>
        <time>2019-09-06T05:42:48Z</time>
      </trkpt>
      <trkpt lat="42.927440" lon="11.731060">
        <ele>538</ele>
        <time>2019-09-06T05:42:54Z</time>
      </trkpt>
      <trkpt lat="42.925520" lon="11.731840">
        <ele>556</ele>
        <time>2019-09-06T05:43:30Z</time>
      </trkpt>
      <trkpt lat="42.925230" lon="11.731890">
        <ele>558</ele>
        <time>2019-09-06T05:43:35Z</time>
      </trkpt>
      <trkpt lat="42.924620" lon="11.731810">
        <ele>561</ele>
        <time>2019-09-06T05:43:46Z</time>
      </trkpt>
      <trkpt lat="42.924210" lon="11.731920">
        <ele>565</ele>
        <time>2019-09-06T05:43:53Z</time>
      </trkpt>
      <trkpt lat="42.923340" lon="11.732300">
        <ele>572</ele>
        <time>2019-09-06T05:44:09Z</time>
      </trkpt>
      <trkpt lat="42.922290" lon="11.733000">
        <ele>581</ele>
        <time>2019-09-06T05:44:30Z</time>
      </trkpt>
      <trkpt lat="42.922100" lon="11.733180">
        <ele>583</ele>
        <time>2019-09-06T05:44:34Z</time>
      </trkpt>
      <trkpt lat="42.921760" lon="11.733660">
        <ele>587</ele>
        <time>2019-09-06T05:44:43Z</time>
      </trkpt>
      <trkpt lat="42.921600" lon="11.733800">
        <ele>587</ele>
        <time>2019-09-06T05:44:46Z</time>
      </trkpt>
      <trkpt lat="42.921420" lon="11.733900">
        <ele>588</ele>
        <time>2019-09-06T05:44:50Z</time>
      </trkpt>
      <trkpt lat="42.921620" lon="11.733960">
        <ele>588</ele>
        <time>2019-09-06T05:44:53Z</time>
      </trkpt>
      <trkpt lat="42.921860" lon="11.733970">
        <ele>589</ele>
        <time>2019-09-06T05:44:58Z</time>
      </trkpt>
      <trkpt lat="42.922200" lon="11.733810">
        <ele>589</ele>
        <time>2019-09-06T05:45:04Z</time>
      </trkpt>
      <trkpt lat="42.922420" lon="11.733810">
        <ele>590</ele>
        <time>2019-09-06T05:45:08Z</time>
      </trkpt>
      <trkpt lat="42.922580" lon="11.733840">
        <ele>590</ele>
        <time>2019-09-06T05:45:11Z</time>
      </trkpt>
      <trkpt lat="42.922810" lon="11.733930">
        <ele>590</ele>
        <time>2019-09-06T05:45:15Z</time>
      </trkpt>
      <trkpt lat="42.924310" lon="11.734780">
        <ele>583</ele>
        <time>2019-09-06T05:45:44Z</time>
      </trkpt>
      <trkpt lat="42.924660" lon="11.734850">
        <ele>583</ele>
        <time>2019-09-06T05:45:50Z</time>
      </trkpt>
      <trkpt lat="42.925290" lon="11.734810">
        <ele>584</ele>
        <time>2019-09-06T05:46:02Z</time>
      </trkpt>
      <trkpt lat="42.925900" lon="11.735040">
        <ele>587</ele>
        <time>2019-09-06T05:46:13Z</time>
      </trkpt>
      <trkpt lat="42.926310" lon="11.735030">
        <ele>588</ele>
        <time>2019-09-06T05:46:20Z</time>
      </trkpt>
      <trkpt lat="42.926760" lon="11.734860">
        <ele>587</ele>
        <time>2019-09-06T05:46:28Z</time>
      </trkpt>
      <trkpt lat="42.927210" lon="11.734570">
        <ele>583</ele>
        <time>2019-09-06T05:46:37Z</time>
      </trkpt>
      <trkpt lat="42.929350" lon="11.734280">
        <ele>582</ele>
        <time>2019-09-06T05:47:16Z</time>
      </trkpt>
      <trkpt lat="42.930130" lon="11.733710">
        <ele>578</ele>
        <time>2019-09-06T05:47:31Z</time>
      </trkpt>
      <trkpt lat="42.930780" lon="11.733380">
        <ele>576</ele>
        <time>2019-09-06T05:47:44Z</time>
      </trkpt>
      <trkpt lat="42.931480" lon="11.732680">
        <ele>574</ele>
        <time>2019-09-06T05:47:59Z</time>
      </trkpt>
      <trkpt lat="42.931740" lon="11.732220">
        <ele>576</ele>
        <time>2019-09-06T05:48:07Z</time>
      </trkpt>
      <trkpt lat="42.932350" lon="11.732110">
        <ele>578</ele>
        <time>2019-09-06T05:48:18Z</time>
      </trkpt>
      <trkpt lat="42.933900" lon="11.732040">
        <ele>589</ele>
        <time>2019-09-06T05:48:45Z</time>
      </trkpt>
      <trkpt lat="42.934100" lon="11.732010">
        <ele>590</ele>
        <time>2019-09-06T05:48:49Z</time>
      </trkpt>
      <trkpt lat="42.935220" lon="11.732000">
        <ele>588</ele>
        <time>2019-09-06T05:49:09Z</time>
      </trkpt>
      <trkpt lat="42.935390" lon="11.732030">
        <ele>587</ele>
        <time>2019-09-06T05:49:12Z</time>
      </trkpt>
      <trkpt lat="42.935850" lon="11.732250">
        <ele>587</ele>
        <time>2019-09-06T05:49:20Z</time>
      </trkpt>
      <trkpt lat="42.936330" lon="11.732350">
        <ele>588</ele>
        <time>2019-09-06T05:49:29Z</time>
      </trkpt>
      <trkpt lat="42.936670" lon="11.732520">
        <ele>591</ele>
        <time>2019-09-06T05:49:35Z</time>
      </trkpt>
      <trkpt lat="42.937040" lon="11.733040">
        <ele>588</ele>
        <time>2019-09-06T05:49:45Z</time>
      </trkpt>
      <trkpt lat="42.937310" lon="11.733340">
        <ele>589</ele>
        <time>2019-09-06T05:49:51Z</time>
      </trkpt>
      <trkpt lat="42.937810" lon="11.733270">
        <ele>583</ele>
        <time>2019-09-06T05:50:00Z</time>
      </trkpt>
      <trkpt lat="42.938090" lon="11.733390">
        <ele>579</ele>
        <time>2019-09-06T05:50:05Z</time>
      </trkpt>
      <trkpt lat="42.938720" lon="11.733600">
        <ele>569</ele>
        <time>2019-09-06T05:50:17Z</time>
      </trkpt>
      <trkpt lat="42.939450" lon="11.733650">
        <ele>569</ele>
        <time>2019-09-06T05:50:30Z</time>
      </trkpt>
      <trkpt lat="42.939840" lon="11.733430">
        <ele>575</ele>
        <time>2019-09-06T05:50:37Z</time>
      </trkpt>
      <trkpt lat="42.940090" lon="11.733170">
        <ele>575</ele>
        <time>2019-09-06T05:50:43Z</time>
      </trkpt>
      <trkpt lat="42.940320" lon="11.733090">
        <ele>575</ele>
        <time>2019-09-06T05:50:47Z</time>
      </trkpt>
      <trkpt lat="42.940560" lon="11.733170">
        <ele>579</ele>
        <time>2019-09-06T05:50:52Z</time>
      </trkpt>
      <trkpt lat="42.941090" lon="11.733690">
        <ele>581</ele>
        <time>2019-09-06T05:51:03Z</time>
      </trkpt>
      <trkpt lat="42.941270" lon="11.734360">
        <ele>579</ele>
        <time>2019-09-06T05:51:12Z</time>
      </trkpt>
      <trkpt lat="42.941510" lon="11.735000">
        <ele>577</ele>
        <time>2019-09-06T05:51:22Z</time>
      </trkpt>
      <trkpt lat="42.941870" lon="11.735060">
        <ele>576</ele>
        <time>2019-09-06T05:51:28Z</time>
      </trkpt>
      <trkpt lat="42.942480" lon="11.734660">
        <ele>568</ele>
        <time>2019-09-06T05:51:40Z</time>
      </trkpt>
      <trkpt lat="42.942870" lon="11.734370">
        <ele>568</ele>
        <time>2019-09-06T05:51:48Z</time>
      </trkpt>
      <trkpt lat="42.943060" lon="11.734490">
        <ele>567</ele>
        <time>2019-09-06T05:51:52Z</time>
      </trkpt>
      <trkpt lat="42.943420" lon="11.734590">
        <ele>566</ele>
        <time>2019-09-06T05:51:58Z</time>
      </trkpt>
      <trkpt lat="42.943690" lon="11.734380">
        <ele>569</ele>
        <time>2019-09-06T05:52:04Z</time>
      </trkpt>
      <trkpt lat="42.944370" lon="11.734300">
        <ele>576</ele>
        <time>2019-09-06T05:52:16Z</time>
      </trkpt>
      <trkpt lat="42.944650" lon="11.734320">
        <ele>579</ele>
        <time>2019-09-06T05:52:21Z</time>
      </trkpt>
      <trkpt lat="42.945320" lon="11.734720">
        <ele>588</ele>
        <time>2019-09-06T05:52:34Z</time>
      </trkpt>
      <trkpt lat="42.945850" lon="11.734750">
        <ele>593</ele>
        <time>2019-09-06T05:52:44Z</time>
      </trkpt>
      <trkpt lat="42.946170" lon="11.734610">
        <ele>594</ele>
        <time>2019-09-06T05:52:50Z</time>
      </trkpt>
      <trkpt lat="42.946510" lon="11.734230">
        <ele>600</ele>
        <time>2019-09-06T05:52:57Z</time>
      </trkpt>
      <trkpt lat="42.946920" lon="11.734070">
        <ele>602</ele>
        <time>2019-09-06T05:53:05Z</time>
      </trkpt>
      <trkpt lat="42.947340" lon="11.733610">
        <ele>603</ele>
        <time>2019-09-06T05:53:15Z</time>
      </trkpt>
      <trkpt lat="42.948030" lon="11.732290">
        <ele>606</ele>
        <time>2019-09-06T05:53:36Z</time>
      </trkpt>
      <trkpt lat="42.948710" lon="11.731940">
        <ele>607</ele>
        <time>2019-09-06T05:53:49Z</time>
      </trkpt>
      <trkpt lat="42.949330" lon="11.731270">
        <ele>603</ele>
        <time>2019-09-06T05:54:03Z</time>
      </trkpt>
      <trkpt lat="42.949790" lon="11.730710">
        <ele>599</ele>
        <time>2019-09-06T05:54:14Z</time>
      </trkpt>
      <trkpt lat="42.950120" lon="11.730530">
        <ele>596</ele>
        <time>2019-09-06T05:54:20Z</time>
      </trkpt>
      <trkpt lat="42.950380" lon="11.730670">
        <ele>595</ele>
        <time>2019-09-06T05:54:25Z</time>
      </trkpt>
      <trkpt lat="42.950600" lon="11.730680">
        <ele>592</ele>
        <time>2019-09-06T05:54:29Z</time>
      </trkpt>
      <trkpt lat="42.953110" lon="11.729040">
        <ele>575</ele>
        <time>2019-09-06T05:55:18Z</time>
      </trkpt>
      <trkpt lat="42.953830" lon="11.728120">
        <ele>571</ele>
        <time>2019-09-06T05:55:36Z</time>
      </trkpt>
      <trkpt lat="42.954290" lon="11.727850">
        <ele>572</ele>
        <time>2019-09-06T05:55:45Z</time>
      </trkpt>
      <trkpt lat="42.954500" lon="11.727630">
        <ele>574</ele>
        <time>2019-09-06T05:55:49Z</time>
      </trkpt>
      <trkpt lat="42.954940" lon="11.726500">
        <ele>580</ele>
        <time>2019-09-06T05:56:06Z</time>
      </trkpt>
      <trkpt lat="42.955330" lon="11.726520">
        <ele>580</ele>
        <time>2019-09-06T05:56:13Z</time>
      </trkpt>
      <trkpt lat="42.955880" lon="11.726610">
        <ele>578</ele>
        <time>2019-09-06T05:56:23Z</time>
      </trkpt>
      <trkpt lat="42.956680" lon="11.727110">
        <ele>571</ele>
        <time>2019-09-06T05:56:39Z</time>
      </trkpt>
      <trkpt lat="42.957610" lon="11.727580">
        <ele>583</ele>
        <time>2019-09-06T05:56:56Z</time>
      </trkpt>
      <trkpt lat="42.958190" lon="11.727340">
        <ele>588</ele>
        <time>2019-09-06T05:57:07Z</time>
      </trkpt>
      <trkpt lat="42.958790" lon="11.726920">
        <ele>589</ele>
        <time>2019-09-06T05:57:19Z</time>
      </trkpt>
      <trkpt lat="42.959040" lon="11.726700">
        <ele>590</ele>
        <time>2019-09-06T05:57:24Z</time>
      </trkpt>
      <trkpt lat="42.959150" lon="11.726650">
        <ele>590</ele>
        <time>2019-09-06T05:57:26Z</time>
      </trkpt>
      <trkpt lat="42.959280" lon="11.726650">
        <ele>591</ele>
        <time>2019-09-06T05:57:29Z</time>
      </trkpt>
      <trkpt lat="42.960580" lon="11.727070">
        <ele>595</ele>
        <time>2019-09-06T05:57:52Z</time>
      </trkpt>
      <trkpt lat="42.960820" lon="11.727120">
        <ele>596</ele>
        <time>2019-09-06T05:57:57Z</time>
      </trkpt>
      <trkpt lat="42.961290" lon="11.727110">
        <ele>593</ele>
        <time>2019-09-06T05:58:05Z</time>
      </trkpt>
      <trkpt lat="42.961730" lon="11.726940">
        <ele>588</ele>
        <time>2019-09-06T05:58:13Z</time>
      </trkpt>
      <trkpt lat="42.961830" lon="11.726910">
        <ele>586</ele>
        <time>2019-09-06T05:58:15Z</time>
      </trkpt>
      <trkpt lat="42.961890" lon="11.726920">
        <ele>585</ele>
        <time>2019-09-06T05:58:16Z</time>
      </trkpt>
      <trkpt lat="42.961950" lon="11.726960">
        <ele>585</ele>
        <time>2019-09-06T05:58:17Z</time>
      </trkpt>
      <trkpt lat="42.962190" lon="11.727540">
        <ele>591</ele>
        <time>2019-09-06T05:58:26Z</time>
      </trkpt>
      <trkpt lat="42.962290" lon="11.727660">
        <ele>591</ele>
        <time>2019-09-06T05:58:28Z</time>
      </trkpt>
      <trkpt lat="42.962350" lon="11.727710">
        <ele>591</ele>
        <time>2019-09-06T05:58:30Z</time>
      </trkpt>
      <trkpt lat="42.963230" lon="11.728130">
        <ele>586</ele>
        <time>2019-09-06T05:58:46Z</time>
      </trkpt>
      <trkpt lat="42.963460" lon="11.728350">
        <ele>587</ele>
        <time>2019-09-06T05:58:51Z</time>
      </trkpt>
      <trkpt lat="42.964480" lon="11.729450">
        <ele>580</ele>
        <time>2019-09-06T05:59:14Z</time>
      </trkpt>
      <trkpt lat="42.964610" lon="11.729640">
        <ele>578</ele>
        <time>2019-09-06T05:59:18Z</time>
      </trkpt>
      <trkpt lat="42.964690" lon="11.729810">
        <ele>577</ele>
        <time>2019-09-06T05:59:20Z</time>
      </trkpt>
      <trkpt lat="42.964760" lon="11.730070">
        <ele>576</ele>
        <time>2019-09-06T05:59:24Z</time>
      </trkpt>
      <trkpt lat="42.964820" lon="11.731240">
        <ele>570</ele>
        <time>2019-09-06T05:59:39Z</time>
      </trkpt>
      <trkpt lat="42.964840" lon="11.731420">
        <ele>568</ele>
        <time>2019-09-06T05:59:42Z</time>
      </trkpt>
      <trkpt lat="42.964920" lon="11.731600">
        <ele>568</ele>
        <time>2019-09-06T05:59:44Z</time>
      </trkpt>
      <trkpt lat="42.965000" lon="11.731700">
        <ele>569</ele>
        <time>2019-09-06T05:59:46Z</time>
      </trkpt>
      <trkpt lat="42.965250" lon="11.731910">
        <ele>563</ele>
        <time>2019-09-06T05:59:52Z</time>
      </trkpt>
      <trkpt lat="42.965370" lon="11.731950">
        <ele>562</ele>
        <time>2019-09-06T05:59:54Z</time>
      </trkpt>
      <trkpt lat="42.965640" lon="11.731900">
        <ele>560</ele>
        <time>2019-09-06T05:59:59Z</time>
      </trkpt>
      <trkpt lat="42.965780" lon="11.731990">
        <ele>559</ele>
        <time>2019-09-06T06:00:01Z</time>
      </trkpt>
      <trkpt lat="42.966200" lon="11.733230">
        <ele>544</ele>
        <time>2019-09-06T06:00:19Z</time>
      </trkpt>
      <trkpt lat="42.966300" lon="11.733410">
        <ele>542</ele>
        <time>2019-09-06T06:00:22Z</time>
      </trkpt>
      <trkpt lat="42.966580" lon="11.733600">
        <ele>540</ele>
        <time>2019-09-06T06:00:28Z</time>
      </trkpt>
      <trkpt lat="42.966720" lon="11.733650">
        <ele>539</ele>
        <time>2019-09-06T06:00:30Z</time>
      </trkpt>
      <trkpt lat="42.966850" lon="11.733650">
        <ele>538</ele>
        <time>2019-09-06T06:00:32Z</time>
      </trkpt>
      <trkpt lat="42.967030" lon="11.733590">
        <ele>537</ele>
        <time>2019-09-06T06:00:36Z</time>
      </trkpt>
      <trkpt lat="42.967300" lon="11.733390">
        <ele>537</ele>
        <time>2019-09-06T06:00:41Z</time>
      </trkpt>
      <trkpt lat="42.967400" lon="11.733360">
        <ele>537</ele>
        <time>2019-09-06T06:00:43Z</time>
      </trkpt>
      <trkpt lat="42.967580" lon="11.733410">
        <ele>535</ele>
        <time>2019-09-06T06:00:46Z</time>
      </trkpt>
      <trkpt lat="42.968140" lon="11.733780">
        <ele>531</ele>
        <time>2019-09-06T06:00:57Z</time>
      </trkpt>
      <trkpt lat="42.968960" lon="11.734710">
        <ele>519</ele>
        <time>2019-09-06T06:01:16Z</time>
      </trkpt>
      <trkpt lat="42.969240" lon="11.735120">
        <ele>515</ele>
        <time>2019-09-06T06:01:24Z</time>
      </trkpt>
      <trkpt lat="42.969420" lon="11.735470">
        <ele>510</ele>
        <time>2019-09-06T06:01:29Z</time>
      </trkpt>
      <trkpt lat="42.969660" lon="11.735790">
        <ele>509</ele>
        <time>2019-09-06T06:01:35Z</time>
      </trkpt>
      <trkpt lat="42.969870" lon="11.736000">
        <ele>509</ele>
        <time>2019-09-06T06:01:40Z</time>
      </trkpt>
      <trkpt lat="42.970030" lon="11.736110">
        <ele>509</ele>
        <time>2019-09-06T06:01:43Z</time>
      </trkpt>
      <trkpt lat="42.970140" lon="11.736140">
        <ele>508</ele>
        <time>2019-09-06T06:01:45Z</time>
      </trkpt>
      <trkpt lat="42.970530" lon="11.736110">
        <ele>506</ele>
        <time>2019-09-06T06:01:52Z</time>
      </trkpt>
      <trkpt lat="42.970770" lon="11.736120">
        <ele>505</ele>
        <time>2019-09-06T06:01:56Z</time>
      </trkpt>
      <trkpt lat="42.971110" lon="11.736220">
        <ele>504</ele>
        <time>2019-09-06T06:02:02Z</time>
      </trkpt>
      <trkpt lat="42.971320" lon="11.736330">
        <ele>503</ele>
        <time>2019-09-06T06:02:06Z</time>
      </trkpt>
      <trkpt lat="42.973020" lon="11.737330">
        <ele>493</ele>
        <time>2019-09-06T06:02:39Z</time>
      </trkpt>
      <trkpt lat="42.973640" lon="11.737750">
        <ele>490</ele>
        <time>2019-09-06T06:02:52Z</time>
      </trkpt>
      <trkpt lat="42.974050" lon="11.738540">
        <ele>490</ele>
        <time>2019-09-06T06:03:04Z</time>
      </trkpt>
      <trkpt lat="42.975110" lon="11.738900">
        <ele>483</ele>
        <time>2019-09-06T06:03:24Z</time>
      </trkpt>
      <trkpt lat="42.975500" lon="11.740100">
        <ele>480</ele>
        <time>2019-09-06T06:03:41Z</time>
      </trkpt>
      <trkpt lat="42.975870" lon="11.740230">
        <ele>477</ele>
        <time>2019-09-06T06:03:48Z</time>
      </trkpt>
      <trkpt lat="42.976490" lon="11.741040">
        <ele>476</ele>
        <time>2019-09-06T06:04:03Z</time>
      </trkpt>
      <trkpt lat="42.976860" lon="11.741650">
        <ele>475</ele>
        <time>2019-09-06T06:04:13Z</time>
      </trkpt>
      <trkpt lat="42.976920" lon="11.741610">
        <ele>474</ele>
        <time>2019-09-06T06:04:14Z</time>
      </trkpt>
      <trkpt lat="42.977020" lon="11.741880">
        <ele>473</ele>
        <time>2019-09-06T06:04:18Z</time>
      </trkpt>
      <trkpt lat="42.977230" lon="11.741750">
        <ele>470</ele>
        <time>2019-09-06T06:04:22Z</time>
      </trkpt>
      <trkpt lat="42.977800" lon="11.741660">
        <ele>462</ele>
        <time>2019-09-06T06:04:33Z</time>
      </trkpt>
      <trkpt lat="42.978320" lon="11.741490">
        <ele>455</ele>
        <time>2019-09-06T06:04:42Z</time>
      </trkpt>
      <trkpt lat="42.978670" lon="11.741460">
        <ele>450</ele>
        <time>2019-09-06T06:04:48Z</time>
      </trkpt>
      <trkpt lat="42.979060" lon="11.741500">
        <ele>446</ele>
        <time>2019-09-06T06:04:55Z</time>
      </trkpt>
      <trkpt lat="42.979280" lon="11.741570">
        <ele>443</ele>
        <time>2019-09-06T06:04:59Z</time>
      </trkpt>
      <trkpt lat="42.979570" lon="11.741770">
        <ele>440</ele>
        <time>2019-09-06T06:05:05Z</time>
      </trkpt>
      <trkpt lat="42.979480" lon="11.744700">
        <ele>424</ele>
        <time>2019-09-06T06:05:43Z</time>
      </trkpt>
      <trkpt lat="42.979590" lon="11.745450">
        <ele>421</ele>
        <time>2019-09-06T06:05:53Z</time>
      </trkpt>
      <trkpt lat="42.979900" lon="11.746120">
        <ele>417</ele>
        <time>2019-09-06T06:06:04Z</time>
      </trkpt>
      <trkpt lat="42.980470" lon="11.746980">
        <ele>410</ele>
        <time>2019-09-06T06:06:19Z</time>
      </trkpt>
      <trkpt lat="42.981310" lon="11.747740">
        <ele>403</ele>
        <time>2019-09-06T06:06:37Z</time>
      </trkpt>
      <trkpt lat="42.981850" lon="11.748330">
        <ele>398</ele>
        <time>2019-09-06T06:06:49Z</time>
      </trkpt>
      <trkpt lat="42.981930" lon="11.748670">
        <ele>395</ele>
        <time>2019-09-06T06:06:54Z</time>
      </trkpt>
      <trkpt lat="42.981820" lon="11.748980">
        <ele>396</ele>
        <time>2019-09-06T06:06:58Z</time>
      </trkpt>
      <trkpt lat="42.981240" lon="11.749510">
        <ele>397</ele>
        <time>2019-09-06T06:07:10Z</time>
      </trkpt>
      <trkpt lat="42.980260" lon="11.750190">
        <ele>394</ele>
        <time>2019-09-06T06:07:30Z</time>
      </trkpt>
      <trkpt lat="42.980070" lon="11.750490">
        <ele>391</ele>
        <time>2019-09-06T06:07:35Z</time>
      </trkpt>
      <trkpt lat="42.980090" lon="11.750860">
        <ele>387</ele>
        <time>2019-09-06T06:07:40Z</time>
      </trkpt>
      <trkpt lat="42.980340" lon="11.751190">
        <ele>382</ele>
        <time>2019-09-06T06:07:46Z</time>
      </trkpt>
      <trkpt lat="42.981030" lon="11.751200">
        <ele>379</ele>
        <time>2019-09-06T06:07:58Z</time>
      </trkpt>
      <trkpt lat="42.982150" lon="11.751170">
        <ele>371</ele>
        <time>2019-09-06T06:08:18Z</time>
      </trkpt>
      <trkpt lat="42.982940" lon="11.750830">
        <ele>367</ele>
        <time>2019-09-06T06:08:33Z</time>
      </trkpt>
      <trkpt lat="42.983610" lon="11.750410">
        <ele>362</ele>
        <time>2019-09-06T06:08:46Z</time>
      </trkpt>
      <trkpt lat="42.984040" lon="11.750090">
        <ele>359</ele>
        <time>2019-09-06T06:08:55Z</time>
      </trkpt>
      <trkpt lat="42.984390" lon="11.749950">
        <ele>359</ele>
        <time>2019-09-06T06:09:01Z</time>
      </trkpt>
      <trkpt lat="42.984710" lon="11.749980">
        <ele>357</ele>
        <time>2019-09-06T06:09:07Z</time>
      </trkpt>
      <trkpt lat="42.985110" lon="11.750130">
        <ele>353</ele>
        <time>2019-09-06T06:09:15Z</time>
      </trkpt>
      <trkpt lat="42.985410" lon="11.750170">
        <ele>348</ele>
        <time>2019-09-06T06:09:20Z</time>
      </trkpt>
      <trkpt lat="42.986630" lon="11.749410">
        <ele>339</ele>
        <time>2019-09-06T06:09:44Z</time>
      </trkpt>
      <trkpt lat="42.987020" lon="11.749630">
        <ele>333</ele>
        <time>2019-09-06T06:09:51Z</time>
      </trkpt>
      <trkpt lat="42.987050" lon="11.749950">
        <ele>329</ele>
        <time>2019-09-06T06:09:55Z</time>
      </trkpt>
      <trkpt lat="42.986890" lon="11.750400">
        <ele>328</ele>
        <time>2019-09-06T06:10:02Z</time>
      </trkpt>
      <trkpt lat="42.985820" lon="11.752380">
        <ele>326</ele>
        <time>2019-09-06T06:10:34Z</time>
      </trkpt>
      <trkpt lat="42.985810" lon="11.752930">
        <ele>324</ele>
        <time>2019-09-06T06:10:41Z</time>
      </trkpt>
      <trkpt lat="42.985860" lon="11.753190">
        <ele>323</ele>
        <time>2019-09-06T06:10:45Z</time>
      </trkpt>
      <trkpt lat="42.986930" lon="11.754110">
        <ele>320</ele>
        <time>2019-09-06T06:11:07Z</time>
      </trkpt>
      <trkpt lat="42.987090" lon="11.754210">
        <ele>322</ele>
        <time>2019-09-06T06:11:10Z</time>
      </trkpt>
      <trkpt lat="42.987300" lon="11.754260">
        <ele>325</ele>
        <time>2019-09-06T06:11:14Z</time>
      </trkpt>
      <trkpt lat="42.990150" lon="11.753060">
        <ele>320</ele>
        <time>2019-09-06T06:12:07Z</time>
      </trkpt>
      <trkpt lat="42.990430" lon="11.753000">
        <ele>320</ele>
        <time>2019-09-06T06:12:12Z</time>
      </trkpt>
      <trkpt lat="42.991270" lon="11.752980">
        <ele>319</ele>
        <time>2019-09-06T06:12:27Z</time>
      </trkpt>
      <trkpt lat="42.991600" lon="11.753020">
        <ele>319</ele>
        <time>2019-09-06T06:12:33Z</time>
      </trkpt>
      <trkpt lat="42.993340" lon="11.753410">
        <ele>320</ele>
        <time>2019-09-06T06:13:04Z</time>
      </trkpt>
      <trkpt lat="42.993780" lon="11.753530">
        <ele>319</ele>
        <time>2019-09-06T06:13:12Z</time>
      </trkpt>
      <trkpt lat="42.995230" lon="11.752500">
        <ele>319</ele>
        <time>2019-09-06T06:13:41Z</time>
      </trkpt>
      <trkpt lat="42.998090" lon="11.749860">
        <ele>317</ele>
        <time>2019-09-06T06:14:43Z</time>
      </trkpt>
      <trkpt lat="43.000530" lon="11.747960">
        <ele>315</ele>
        <time>2019-09-06T06:15:33Z</time>
      </trkpt>
      <trkpt lat="43.001020" lon="11.747600">
        <ele>315</ele>
        <time>2019-09-06T06:15:43Z</time>
      </trkpt>
      <trkpt lat="43.003360" lon="11.746050">
        <ele>310</ele>
        <time>2019-09-06T06:16:29Z</time>
      </trkpt>
      <trkpt lat="43.005670" lon="11.744610">
        <ele>304</ele>
        <time>2019-09-06T06:17:14Z</time>
      </trkpt>
      <trkpt lat="43.006660" lon="11.743960">
        <ele>306</ele>
        <time>2019-09-06T06:17:34Z</time>
      </trkpt>
      <trkpt lat="43.006990" lon="11.743760">
        <ele>306</ele>
        <time>2019-09-06T06:17:40Z</time>
      </trkpt>
      <trkpt lat="43.007290" lon="11.743680">
        <ele>305</ele>
        <time>2019-09-06T06:17:46Z</time>
      </trkpt>
      <trkpt lat="43.007630" lon="11.743640">
        <ele>305</ele>
        <time>2019-09-06T06:17:52Z</time>
      </trkpt>
      <trkpt lat="43.008160" lon="11.743650">
        <ele>303</ele>
        <time>2019-09-06T06:18:01Z</time>
      </trkpt>
      <trkpt lat="43.010400" lon="11.743780">
        <ele>303</ele>
        <time>2019-09-06T06:18:41Z</time>
      </trkpt>
      <trkpt lat="43.011050" lon="11.743710">
        <ele>302</ele>
        <time>2019-09-06T06:18:53Z</time>
      </trkpt>
      <trkpt lat="43.011790" lon="11.743360">
        <ele>302</ele>
        <time>2019-09-06T06:19:06Z</time>
      </trkpt>
      <trkpt lat="43.016130" lon="11.740170">
        <ele>302</ele>
        <time>2019-09-06T06:20:34Z</time>
      </trkpt>
      <trkpt lat="43.016650" lon="11.739610">
        <ele>302</ele>
        <time>2019-09-06T06:20:46Z</time>
      </trkpt>
      <trkpt lat="43.016990" lon="11.739010">
        <ele>303</ele>
        <time>2019-09-06T06:20:56Z</time>
      </trkpt>
      <trkpt lat="43.017200" lon="11.738370">
        <ele>302</ele>
        <time>2019-09-06T06:21:05Z</time>
      </trkpt>
      <trkpt lat="43.017450" lon="11.737720">
        <ele>303</ele>
        <time>2019-09-06T06:21:14Z</time>
      </trkpt>
      <trkpt lat="43.017590" lon="11.737250">
        <ele>303</ele>
        <time>2019-09-06T06:21:21Z</time>
      </trkpt>
      <trkpt lat="43.017860" lon="11.736600">
        <ele>305</ele>
        <time>2019-09-06T06:21:31Z</time>
      </trkpt>
      <trkpt lat="43.018070" lon="11.736240">
        <ele>305</ele>
        <time>2019-09-06T06:21:37Z</time>
      </trkpt>
      <trkpt lat="43.018410" lon="11.735800">
        <ele>307</ele>
        <time>2019-09-06T06:21:45Z</time>
      </trkpt>
      <trkpt lat="43.019080" lon="11.735390">
        <ele>313</ele>
        <time>2019-09-06T06:21:58Z</time>
      </trkpt>
      <trkpt lat="43.019190" lon="11.735290">
        <ele>313</ele>
        <time>2019-09-06T06:22:01Z</time>
      </trkpt>
      <trkpt lat="43.019260" lon="11.735150">
        <ele>313</ele>
        <time>2019-09-06T06:22:03Z</time>
      </trkpt>
      <trkpt lat="43.019700" lon="11.733850">
        <ele>311</ele>
        <time>2019-09-06T06:22:21Z</time>
      </trkpt>
      <trkpt lat="43.019830" lon="11.733520">
        <ele>310</ele>
        <time>2019-09-06T06:22:26Z</time>
      </trkpt>
      <trkpt lat="43.019960" lon="11.733290">
        <ele>311</ele>
        <time>2019-09-06T06:22:30Z</time>
      </trkpt>
      <trkpt lat="43.020130" lon="11.733060">
        <ele>310</ele>
        <time>2019-09-06T06:22:34Z</time>
      </trkpt>
      <trkpt lat="43.020520" lon="11.732640">
        <ele>307</ele>
        <time>2019-09-06T06:22:43Z</time>
      </trkpt>
      <trkpt lat="43.020710" lon="11.732470">
        <ele>306</ele>
        <time>2019-09-06T06:22:47Z</time>
      </trkpt>
      <trkpt lat="43.020860" lon="11.732370">
        <ele>306</ele>
        <time>2019-09-06T06:22:50Z</time>
      </trkpt>
      <trkpt lat="43.021070" lon="11.732280">
        <ele>305</ele>
        <time>2019-09-06T06:22:54Z</time>
      </trkpt>
      <trkpt lat="43.021460" lon="11.732250">
        <ele>305</ele>
        <time>2019-09-06T06:23:01Z</time>
      </trkpt>
      <trkpt lat="43.021580" lon="11.732190">
        <ele>304</ele>
        <time>2019-09-06T06:23:03Z</time>
      </trkpt>
      <trkpt lat="43.021680" lon="11.732090">
        <ele>304</ele>
        <time>2019-09-06T06:23:05Z</time>
      </trkpt>
      <trkpt lat="43.021760" lon="11.731950">
        <ele>304</ele>
        <time>2019-09-06T06:23:08Z</time>
      </trkpt>
      <trkpt lat="43.022050" lon="11.730510">
        <ele>302</ele>
        <time>2019-09-06T06:23:27Z</time>
      </trkpt>
      <trkpt lat="43.022610" lon="11.728470">
        <ele>298</ele>
        <time>2019-09-06T06:23:56Z</time>
      </trkpt>
      <trkpt lat="43.023540" lon="11.724890">
        <ele>297</ele>
        <time>2019-09-06T06:24:45Z</time>
      </trkpt>
      <trkpt lat="43.023620" lon="11.724440">
        <ele>297</ele>
        <time>2019-09-06T06:24:51Z</time>
      </trkpt>
      <trkpt lat="43.023760" lon="11.718240">
        <ele>296</ele>
        <time>2019-09-06T06:26:12Z</time>
      </trkpt>
      <trkpt lat="43.023900" lon="11.715200">
        <ele>296</ele>
        <time>2019-09-06T06:26:51Z</time>
      </trkpt>
      <trkpt lat="43.024460" lon="11.715590">
        <ele>301</ele>
        <time>2019-09-06T06:27:03Z</time>
      </trkpt>
      <trkpt lat="43.025100" lon="11.714520">
        <ele>309</ele>
        <time>2019-09-06T06:27:20Z</time>
      </trkpt>
      <trkpt lat="43.025500" lon="11.714150">
        <ele>318</ele>
        <time>2019-09-06T06:27:29Z</time>
      </trkpt>
      <trkpt lat="43.026440" lon="11.712970">
        <ele>346</ele>
        <time>2019-09-06T06:27:52Z</time>
      </trkpt>
      <trkpt lat="43.026780" lon="11.712200">
        <ele>352</ele>
        <time>2019-09-06T06:28:03Z</time>
      </trkpt>
      <trkpt lat="43.026850" lon="11.712130">
        <ele>353</ele>
        <time>2019-09-06T06:28:05Z</time>
      </trkpt>
      <trkpt lat="43.027010" lon="11.712090">
        <ele>354</ele>
        <time>2019-09-06T06:28:08Z</time>
      </trkpt>
      <trkpt lat="43.027380" lon="11.712100">
        <ele>357</ele>
        <time>2019-09-06T06:28:14Z</time>
      </trkpt>
      <trkpt lat="43.027450" lon="11.712120">
        <ele>358</ele>
        <time>2019-09-06T06:28:16Z</time>
      </trkpt>
      <trkpt lat="43.027480" lon="11.712180">
        <ele>358</ele>
        <time>2019-09-06T06:28:17Z</time>
      </trkpt>
      <trkpt lat="43.027530" lon="11.712980">
        <ele>360</ele>
        <time>2019-09-06T06:28:27Z</time>
      </trkpt>
      <trkpt lat="43.027560" lon="11.713040">
        <ele>360</ele>
        <time>2019-09-06T06:28:28Z</time>
      </trkpt>
      <trkpt lat="43.027890" lon="11.713260">
        <ele>360</ele>
        <time>2019-09-06T06:28:35Z</time>
      </trkpt>
      <trkpt lat="43.027920" lon="11.713340">
        <ele>360</ele>
        <time>2019-09-06T06:28:36Z</time>
      </trkpt>
      <trkpt lat="43.028140" lon="11.713440">
        <ele>360</ele>
        <time>2019-09-06T06:28:40Z</time>
      </trkpt>
      <trkpt lat="43.028310" lon="11.713450">
        <ele>361</ele>
        <time>2019-09-06T06:28:43Z</time>
      </trkpt>
      <trkpt lat="43.028580" lon="11.713370">
        <ele>361</ele>
        <time>2019-09-06T06:28:48Z</time>
      </trkpt>
      <trkpt lat="43.028810" lon="11.713220">
        <ele>361</ele>
        <time>2019-09-06T06:28:52Z</time>
      </trkpt>
      <trkpt lat="43.029090" lon="11.713720">
        <ele>362</ele>
        <time>2019-09-06T06:29:01Z</time>
      </trkpt>
      <trkpt lat="43.029150" lon="11.714020">
        <ele>363</ele>
        <time>2019-09-06T06:29:05Z</time>
      </trkpt>
      <trkpt lat="43.029250" lon="11.714940">
        <ele>360</ele>
        <time>2019-09-06T06:29:17Z</time>
      </trkpt>
      <trkpt lat="43.029350" lon="11.715190">
        <ele>358</ele>
        <time>2019-09-06T06:29:20Z</time>
      </trkpt>
      <trkpt lat="43.030050" lon="11.716440">
        <ele>357</ele>
        <time>2019-09-06T06:29:41Z</time>
      </trkpt>
      <trkpt lat="43.030490" lon="11.716920">
        <ele>356</ele>
        <time>2019-09-06T06:29:51Z</time>
      </trkpt>
      <trkpt lat="43.030860" lon="11.717500">
        <ele>355</ele>
        <time>2019-09-06T06:30:01Z</time>
      </trkpt>
      <trkpt lat="43.031370" lon="11.718170">
        <ele>353</ele>
        <time>2019-09-06T06:30:14Z</time>
      </trkpt>
      <trkpt lat="43.031640" lon="11.718440">
        <ele>353</ele>
        <time>2019-09-06T06:30:19Z</time>
      </trkpt>
      <trkpt lat="43.031860" lon="11.718580">
        <ele>354</ele>
        <time>2019-09-06T06:30:24Z</time>
      </trkpt>
      <trkpt lat="43.031820" lon="11.718980">
        <ele>354</ele>
        <time>2019-09-06T06:30:29Z</time>
      </trkpt>
      <trkpt lat="43.031950" lon="11.717210">
        <ele>351</ele>
        <time>2019-09-06T06:30:52Z</time>
      </trkpt>
      <trkpt lat="43.032060" lon="11.716790">
        <ele>351</ele>
        <time>2019-09-06T06:30:58Z</time>
      </trkpt>
      <trkpt lat="43.032150" lon="11.716570">
        <ele>350</ele>
        <time>2019-09-06T06:31:01Z</time>
      </trkpt>
      <trkpt lat="43.032580" lon="11.715730">
        <ele>344</ele>
        <time>2019-09-06T06:31:15Z</time>
      </trkpt>
      <trkpt lat="43.032830" lon="11.715300">
        <ele>341</ele>
        <time>2019-09-06T06:31:22Z</time>
      </trkpt>
      <trkpt lat="43.033240" lon="11.714770">
        <ele>339</ele>
        <time>2019-09-06T06:31:32Z</time>
      </trkpt>
      <trkpt lat="43.033360" lon="11.714700">
        <ele>338</ele>
        <time>2019-09-06T06:31:34Z</time>
      </trkpt>
      <trkpt lat="43.033480" lon="11.714680">
        <ele>338</ele>
        <time>2019-09-06T06:31:36Z</time>
      </trkpt>
      <trkpt lat="43.033610" lon="11.714720">
        <ele>337</ele>
        <time>2019-09-06T06:31:39Z</time>
      </trkpt>
      <trkpt lat="43.034310" lon="11.715400">
        <ele>334</ele>
        <time>2019-09-06T06:31:54Z</time>
      </trkpt>
      <trkpt lat="43.034480" lon="11.715680">
        <ele>333</ele>
        <time>2019-09-06T06:31:59Z</time>
      </trkpt>
      <trkpt lat="43.034620" lon="11.715980">
        <ele>333</ele>
        <time>2019-09-06T06:32:03Z</time>
      </trkpt>
      <trkpt lat="43.034720" lon="11.716090">
        <ele>332</ele>
        <time>2019-09-06T06:32:06Z</time>
      </trkpt>
      <trkpt lat="43.034830" lon="11.716110">
        <ele>331</ele>
        <time>2019-09-06T06:32:08Z</time>
      </trkpt>
      <trkpt lat="43.034920" lon="11.716080">
        <ele>330</ele>
        <time>2019-09-06T06:32:09Z</time>
      </trkpt>
      <trkpt lat="43.035040" lon="11.715890">
        <ele>329</ele>
        <time>2019-09-06T06:32:12Z</time>
      </trkpt>
      <trkpt lat="43.035160" lon="11.715400">
        <ele>327</ele>
        <time>2019-09-06T06:32:19Z</time>
      </trkpt>
      <trkpt lat="43.035190" lon="11.715180">
        <ele>326</ele>
        <time>2019-09-06T06:32:22Z</time>
      </trkpt>
      <trkpt lat="43.035170" lon="11.715000">
        <ele>325</ele>
        <time>2019-09-06T06:32:24Z</time>
      </trkpt>
      <trkpt lat="43.034920" lon="11.714560">
        <ele>323</ele>
        <time>2019-09-06T06:32:32Z</time>
      </trkpt>
      <trkpt lat="43.034580" lon="11.712950">
        <ele>320</ele>
        <time>2019-09-06T06:32:53Z</time>
      </trkpt>
      <trkpt lat="43.034220" lon="11.712100">
        <ele>316</ele>
        <time>2019-09-06T06:33:06Z</time>
      </trkpt>
      <trkpt lat="43.034150" lon="11.711850">
        <ele>315</ele>
        <time>2019-09-06T06:33:10Z</time>
      </trkpt>
      <trkpt lat="43.034140" lon="11.711580">
        <ele>315</ele>
        <time>2019-09-06T06:33:13Z</time>
      </trkpt>
      <trkpt lat="43.034240" lon="11.710120">
        <ele>316</ele>
        <time>2019-09-06T06:33:32Z</time>
      </trkpt>
      <trkpt lat="43.034230" lon="11.709880">
        <ele>315</ele>
        <time>2019-09-06T06:33:35Z</time>
      </trkpt>
      <trkpt lat="43.034100" lon="11.709120">
        <ele>310</ele>
        <time>2019-09-06T06:33:46Z</time>
      </trkpt>
      <trkpt lat="43.034140" lon="11.708870">
        <ele>309</ele>
        <time>2019-09-06T06:33:49Z</time>
      </trkpt>
      <trkpt lat="43.034210" lon="11.708660">
        <ele>309</ele>
        <time>2019-09-06T06:33:52Z</time>
      </trkpt>
      <trkpt lat="43.034330" lon="11.708470">
        <ele>308</ele>
        <time>2019-09-06T06:33:55Z</time>
      </trkpt>
      <trkpt lat="43.034470" lon="11.708360">
        <ele>309</ele>
        <time>2019-09-06T06:33:58Z</time>
      </trkpt>
      <trkpt lat="43.034620" lon="11.708290">
        <ele>309</ele>
        <time>2019-09-06T06:34:01Z</time>
      </trkpt>
      <trkpt lat="43.034790" lon="11.708250">
        <ele>310</ele>
        <time>2019-09-06T06:34:04Z</time>
      </trkpt>
      <trkpt lat="43.034980" lon="11.708260">
        <ele>311</ele>
        <time>2019-09-06T06:34:07Z</time>
      </trkpt>
      <trkpt lat="43.035210" lon="11.708320">
        <ele>312</ele>
        <time>2019-09-06T06:34:12Z</time>
      </trkpt>
      <trkpt lat="43.035290" lon="11.708250">
        <ele>313</ele>
        <time>2019-09-06T06:34:13Z</time>
      </trkpt>
      <trkpt lat="43.035330" lon="11.708120">
        <ele>314</ele>
        <time>2019-09-06T06:34:15Z</time>
      </trkpt>
      <trkpt lat="43.035310" lon="11.707970">
        <ele>315</ele>
        <time>2019-09-06T06:34:17Z</time>
      </trkpt>
      <trkpt lat="43.034930" lon="11.707640">
        <ele>313</ele>
        <time>2019-09-06T06:34:25Z</time>
      </trkpt>
      <trkpt lat="43.034850" lon="11.707490">
        <ele>312</ele>
        <time>2019-09-06T06:34:27Z</time>
      </trkpt>
      <trkpt lat="43.034860" lon="11.707300">
        <ele>313</ele>
        <time>2019-09-06T06:34:30Z</time>
      </trkpt>
      <trkpt lat="43.034900" lon="11.707180">
        <ele>313</ele>
        <time>2019-09-06T06:34:32Z</time>
      </trkpt>
      <trkpt lat="43.035040" lon="11.707060">
        <ele>315</ele>
        <time>2019-09-06T06:34:35Z</time>
      </trkpt>
      <trkpt lat="43.035120" lon="11.706950">
        <ele>316</ele>
        <time>2019-09-06T06:34:37Z</time>
      </trkpt>
      <trkpt lat="43.035160" lon="11.706800">
        <ele>316</ele>
        <time>2019-09-06T06:34:39Z</time>
      </trkpt>
      <trkpt lat="43.035260" lon="11.705870">
        <ele>316</ele>
        <time>2019-09-06T06:34:51Z</time>
      </trkpt>
      <trkpt lat="43.035300" lon="11.705700">
        <ele>315</ele>
        <time>2019-09-06T06:34:53Z</time>
      </trkpt>
      <trkpt lat="43.035370" lon="11.705650">
        <ele>315</ele>
        <time>2019-09-06T06:34:55Z</time>
      </trkpt>
      <trkpt lat="43.035520" lon="11.705650">
        <ele>315</ele>
        <time>2019-09-06T06:34:57Z</time>
      </trkpt>
      <trkpt lat="43.036150" lon="11.706040">
        <ele>316</ele>
        <time>2019-09-06T06:35:10Z</time>
      </trkpt>
      <trkpt lat="43.036730" lon="11.706330">
        <ele>315</ele>
        <time>2019-09-06T06:35:21Z</time>
      </trkpt>
      <trkpt lat="43.037080" lon="11.706610">
        <ele>316</ele>
        <time>2019-09-06T06:35:28Z</time>
      </trkpt>
      <trkpt lat="43.037210" lon="11.706760">
        <ele>316</ele>
        <time>2019-09-06T06:35:31Z</time>
      </trkpt>
      <trkpt lat="43.037460" lon="11.707160">
        <ele>317</ele>
        <time>2019-09-06T06:35:38Z</time>
      </trkpt>
      <trkpt lat="43.037570" lon="11.707270">
        <ele>317</ele>
        <time>2019-09-06T06:35:40Z</time>
      </trkpt>
      <trkpt lat="43.037760" lon="11.707360">
        <ele>316</ele>
        <time>2019-09-06T06:35:44Z</time>
      </trkpt>
      <trkpt lat="43.038190" lon="11.707500">
        <ele>314</ele>
        <time>2019-09-06T06:35:52Z</time>
      </trkpt>
      <trkpt lat="43.038360" lon="11.707490">
        <ele>313</ele>
        <time>2019-09-06T06:35:55Z</time>
      </trkpt>
      <trkpt lat="43.038480" lon="11.707440">
        <ele>313</ele>
        <time>2019-09-06T06:35:57Z</time>
      </trkpt>
      <trkpt lat="43.038590" lon="11.707360">
        <ele>313</ele>
        <time>2019-09-06T06:35:59Z</time>
      </trkpt>
      <trkpt lat="43.038660" lon="11.707240">
        <ele>312</ele>
        <time>2019-09-06T06:36:01Z</time>
      </trkpt>
      <trkpt lat="43.038690" lon="11.707110">
        <ele>312</ele>
        <time>2019-09-06T06:36:03Z</time>
      </trkpt>
      <trkpt lat="43.038670" lon="11.706930">
        <ele>312</ele>
        <time>2019-09-06T06:36:05Z</time>
      </trkpt>
      <trkpt lat="43.038110" lon="11.705130">
        <ele>312</ele>
        <time>2019-09-06T06:36:31Z</time>
      </trkpt>
      <trkpt lat="43.038130" lon="11.703860">
        <ele>311</ele>
        <time>2019-09-06T06:36:47Z</time>
      </trkpt>
      <trkpt lat="43.038000" lon="11.703480">
        <ele>308</ele>
        <time>2019-09-06T06:36:53Z</time>
      </trkpt>
      <trkpt lat="43.037770" lon="11.703150">
        <ele>307</ele>
        <time>2019-09-06T06:36:59Z</time>
      </trkpt>
      <trkpt lat="43.037550" lon="11.702710">
        <ele>306</ele>
        <time>2019-09-06T06:37:05Z</time>
      </trkpt>
      <trkpt lat="43.037520" lon="11.702540">
        <ele>305</ele>
        <time>2019-09-06T06:37:08Z</time>
      </trkpt>
      <trkpt lat="43.037550" lon="11.702420">
        <ele>305</ele>
        <time>2019-09-06T06:37:09Z</time>
      </trkpt>
      <trkpt lat="43.037650" lon="11.702340">
        <ele>304</ele>
        <time>2019-09-06T06:37:11Z</time>
      </trkpt>
      <trkpt lat="43.037760" lon="11.702330">
        <ele>304</ele>
        <time>2019-09-06T06:37:13Z</time>
      </trkpt>
      <trkpt lat="43.038610" lon="11.702580">
        <ele>304</ele>
        <time>2019-09-06T06:37:29Z</time>
      </trkpt>
      <trkpt lat="43.039700" lon="11.702810">
        <ele>308</ele>
        <time>2019-09-06T06:37:48Z</time>
      </trkpt>
      <trkpt lat="43.040400" lon="11.703010">
        <ele>311</ele>
        <time>2019-09-06T06:38:01Z</time>
      </trkpt>
      <trkpt lat="43.041120" lon="11.703170">
        <ele>312</ele>
        <time>2019-09-06T06:38:14Z</time>
      </trkpt>
      <trkpt lat="43.041260" lon="11.703150">
        <ele>312</ele>
        <time>2019-09-06T06:38:17Z</time>
      </trkpt>
      <trkpt lat="43.041490" lon="11.703050">
        <ele>313</ele>
        <time>2019-09-06T06:38:21Z</time>
      </trkpt>
      <trkpt lat="43.041720" lon="11.702830">
        <ele>315</ele>
        <time>2019-09-06T06:38:26Z</time>
      </trkpt>
      <trkpt lat="43.042470" lon="11.702200">
        <ele>319</ele>
        <time>2019-09-06T06:38:42Z</time>
      </trkpt>
      <trkpt lat="43.042630" lon="11.702110">
        <ele>320</ele>
        <time>2019-09-06T06:38:45Z</time>
      </trkpt>
      <trkpt lat="43.042790" lon="11.702060">
        <ele>321</ele>
        <time>2019-09-06T06:38:48Z</time>
      </trkpt>
      <trkpt lat="43.043100" lon="11.702020">
        <ele>323</ele>
        <time>2019-09-06T06:38:53Z</time>
      </trkpt>
      <trkpt lat="43.043210" lon="11.701970">
        <ele>323</ele>
        <time>2019-09-06T06:38:55Z</time>
      </trkpt>
      <trkpt lat="43.043310" lon="11.701870">
        <ele>324</ele>
        <time>2019-09-06T06:38:57Z</time>
      </trkpt>
      <trkpt lat="43.043400" lon="11.701680">
        <ele>324</ele>
        <time>2019-09-06T06:39:00Z</time>
      </trkpt>
      <trkpt lat="43.043570" lon="11.701500">
        <ele>326</ele>
        <time>2019-09-06T06:39:04Z</time>
      </trkpt>
      <trkpt lat="43.043680" lon="11.701450">
        <ele>326</ele>
        <time>2019-09-06T06:39:06Z</time>
      </trkpt>
      <trkpt lat="43.044350" lon="11.701400">
        <ele>328</ele>
        <time>2019-09-06T06:39:18Z</time>
      </trkpt>
      <trkpt lat="43.044480" lon="11.701290">
        <ele>327</ele>
        <time>2019-09-06T06:39:21Z</time>
      </trkpt>
      <trkpt lat="43.044540" lon="11.701100">
        <ele>326</ele>
        <time>2019-09-06T06:39:24Z</time>
      </trkpt>
      <trkpt lat="43.044530" lon="11.700900">
        <ele>326</ele>
        <time>2019-09-06T06:39:26Z</time>
      </trkpt>
      <trkpt lat="43.044360" lon="11.699830">
        <ele>323</ele>
        <time>2019-09-06T06:39:40Z</time>
      </trkpt>
      <trkpt lat="43.044370" lon="11.699510">
        <ele>322</ele>
        <time>2019-09-06T06:39:45Z</time>
      </trkpt>
      <trkpt lat="43.044540" lon="11.697920">
        <ele>318</ele>
        <time>2019-09-06T06:40:06Z</time>
      </trkpt>
      <trkpt lat="43.044600" lon="11.695750">
        <ele>313</ele>
        <time>2019-09-06T06:40:34Z</time>
      </trkpt>
      <trkpt lat="43.044920" lon="11.692760">
        <ele>306</ele>
        <time>2019-09-06T06:41:13Z</time>
      </trkpt>
      <trkpt lat="43.044870" lon="11.691220">
        <ele>304</ele>
        <time>2019-09-06T06:41:33Z</time>
      </trkpt>
      <trkpt lat="43.044870" lon="11.690540">
        <ele>304</ele>
        <time>2019-09-06T06:41:42Z</time>
      </trkpt>
      <trkpt lat="43.044990" lon="11.689870">
        <ele>302</ele>
        <time>2019-09-06T06:41:51Z</time>
      </trkpt>
      <trkpt lat="43.045480" lon="11.688450">
        <ele>296</ele>
        <time>2019-09-06T06:42:11Z</time>
      </trkpt>
      <trkpt lat="43.045370" lon="11.688150">
        <ele>295</ele>
        <time>2019-09-06T06:42:16Z</time>
      </trkpt>
      <trkpt lat="43.047050" lon="11.689210">
        <ele>298</ele>
        <time>2019-09-06T06:42:49Z</time>
      </trkpt>
      <trkpt lat="43.049200" lon="11.690920">
        <ele>303</ele>
        <time>2019-09-06T06:43:33Z</time>
      </trkpt>
      <trkpt lat="43.049580" lon="11.691260">
        <ele>304</ele>
        <time>2019-09-06T06:43:41Z</time>
      </trkpt>
      <trkpt lat="43.051520" lon="11.693250">
        <ele>304</ele>
        <time>2019-09-06T06:44:24Z</time>
      </trkpt>
      <trkpt lat="43.052410" lon="11.691040">
        <ele>301</ele>
        <time>2019-09-06T06:44:57Z</time>
      </trkpt>
      <trkpt lat="43.052400" lon="11.690870">
        <ele>301</ele>
        <time>2019-09-06T06:44:59Z</time>
      </trkpt>
      <trkpt lat="43.052300" lon="11.690510">
        <ele>301</ele>
        <time>2019-09-06T06:45:04Z</time>
      </trkpt>
      <trkpt lat="43.052100" lon="11.690040">
        <ele>300</ele>
        <time>2019-09-06T06:45:11Z</time>
      </trkpt>
      <trkpt lat="43.052070" lon="11.689920">
        <ele>301</ele>
        <time>2019-09-06T06:45:13Z</time>
      </trkpt>
      <trkpt lat="43.052070" lon="11.689220">
        <ele>301</ele>
        <time>2019-09-06T06:45:22Z</time>
      </trkpt>
      <trkpt lat="43.052280" lon="11.688000">
        <ele>305</ele>
        <time>2019-09-06T06:45:38Z</time>
      </trkpt>
      <trkpt lat="43.052160" lon="11.687740">
        <ele>306</ele>
        <time>2019-09-06T06:45:42Z</time>
      </trkpt>
      <trkpt lat="43.053240" lon="11.688040">
        <ele>309</ele>
        <time>2019-09-06T06:46:02Z</time>
      </trkpt>
      <trkpt lat="43.053430" lon="11.688060">
        <ele>310</ele>
        <time>2019-09-06T06:46:05Z</time>
      </trkpt>
      <trkpt lat="43.053620" lon="11.688020">
        <ele>311</ele>
        <time>2019-09-06T06:46:09Z</time>
      </trkpt>
      <trkpt lat="43.053880" lon="11.687880">
        <ele>312</ele>
        <time>2019-09-06T06:46:14Z</time>
      </trkpt>
      <trkpt lat="43.055550" lon="11.686850">
        <ele>322</ele>
        <time>2019-09-06T06:46:46Z</time>
      </trkpt>
      <trkpt lat="43.055800" lon="11.686660">
        <ele>325</ele>
        <time>2019-09-06T06:46:51Z</time>
      </trkpt>
      <trkpt lat="43.056610" lon="11.685720">
        <ele>333</ele>
        <time>2019-09-06T06:47:10Z</time>
      </trkpt>
      <trkpt lat="43.056790" lon="11.685390">
        <ele>334</ele>
        <time>2019-09-06T06:47:16Z</time>
      </trkpt>
      <trkpt lat="43.056920" lon="11.685020">
        <ele>336</ele>
        <time>2019-09-06T06:47:21Z</time>
      </trkpt>
      <trkpt lat="43.057180" lon="11.684110">
        <ele>338</ele>
        <time>2019-09-06T06:47:34Z</time>
      </trkpt>
      <trkpt lat="43.057450" lon="11.683520">
        <ele>337</ele>
        <time>2019-09-06T06:47:43Z</time>
      </trkpt>
      <trkpt lat="43.057580" lon="11.683300">
        <ele>336</ele>
        <time>2019-09-06T06:47:46Z</time>
      </trkpt>
      <trkpt lat="43.057740" lon="11.683100">
        <ele>336</ele>
        <time>2019-09-06T06:47:50Z</time>
      </trkpt>
      <trkpt lat="43.057970" lon="11.682940">
        <ele>337</ele>
        <time>2019-09-06T06:47:55Z</time>
      </trkpt>
      <trkpt lat="43.058360" lon="11.682820">
        <ele>337</ele>
        <time>2019-09-06T06:48:02Z</time>
      </trkpt>
      <trkpt lat="43.060300" lon="11.682560">
        <ele>316</ele>
        <time>2019-09-06T06:48:37Z</time>
      </trkpt>
      <trkpt lat="43.060590" lon="11.682490">
        <ele>314</ele>
        <time>2019-09-06T06:48:42Z</time>
      </trkpt>
      <trkpt lat="43.060830" lon="11.682380">
        <ele>313</ele>
        <time>2019-09-06T06:48:46Z</time>
      </trkpt>
      <trkpt lat="43.061050" lon="11.682240">
        <ele>314</ele>
        <time>2019-09-06T06:48:51Z</time>
      </trkpt>
      <trkpt lat="43.062320" lon="11.681240">
        <ele>316</ele>
        <time>2019-09-06T06:49:17Z</time>
      </trkpt>
      <trkpt lat="43.062530" lon="11.681120">
        <ele>316</ele>
        <time>2019-09-06T06:49:21Z</time>
      </trkpt>
      <trkpt lat="43.062750" lon="11.681060">
        <ele>317</ele>
        <time>2019-09-06T06:49:25Z</time>
      </trkpt>
      <trkpt lat="43.062930" lon="11.681060">
        <ele>317</ele>
        <time>2019-09-06T06:49:28Z</time>
      </trkpt>
      <trkpt lat="43.063820" lon="11.681280">
        <ele>318</ele>
        <time>2019-09-06T06:49:44Z</time>
      </trkpt>
      <trkpt lat="43.064090" lon="11.681310">
        <ele>319</ele>
        <time>2019-09-06T06:49:49Z</time>
      </trkpt>
      <trkpt lat="43.064770" lon="11.681250">
        <ele>320</ele>
        <time>2019-09-06T06:50:01Z</time>
      </trkpt>
      <trkpt lat="43.065770" lon="11.681110">
        <ele>323</ele>
        <time>2019-09-06T06:50:19Z</time>
      </trkpt>
      <trkpt lat="43.065950" lon="11.681050">
        <ele>324</ele>
        <time>2019-09-06T06:50:22Z</time>
      </trkpt>
      <trkpt lat="43.066050" lon="11.680990">
        <ele>325</ele>
        <time>2019-09-06T06:50:24Z</time>
      </trkpt>
      <trkpt lat="43.066100" lon="11.680920">
        <ele>326</ele>
        <time>2019-09-06T06:50:25Z</time>
      </trkpt>
      <trkpt lat="43.066150" lon="11.680700">
        <ele>327</ele>
        <time>2019-09-06T06:50:28Z</time>
      </trkpt>
      <trkpt lat="43.066110" lon="11.680340">
        <ele>330</ele>
        <time>2019-09-06T06:50:33Z</time>
      </trkpt>
      <trkpt lat="43.065970" lon="11.679730">
        <ele>331</ele>
        <time>2019-09-06T06:50:41Z</time>
      </trkpt>
      <trkpt lat="43.065730" lon="11.679120">
        <ele>331</ele>
        <time>2019-09-06T06:50:50Z</time>
      </trkpt>
      <trkpt lat="43.065710" lon="11.678950">
        <ele>331</ele>
        <time>2019-09-06T06:50:53Z</time>
      </trkpt>
      <trkpt lat="43.065760" lon="11.678580">
        <ele>332</ele>
        <time>2019-09-06T06:50:58Z</time>
      </trkpt>
      <trkpt lat="43.065860" lon="11.678290">
        <ele>334</ele>
        <time>2019-09-06T06:51:02Z</time>
      </trkpt>
      <trkpt lat="43.065950" lon="11.678110">
        <ele>333</ele>
        <time>2019-09-06T06:51:05Z</time>
      </trkpt>
      <trkpt lat="43.066050" lon="11.678000">
        <ele>333</ele>
        <time>2019-09-06T06:51:07Z</time>
      </trkpt>
      <trkpt lat="43.066190" lon="11.677910">
        <ele>334</ele>
        <time>2019-09-06T06:51:10Z</time>
      </trkpt>
      <trkpt lat="43.066350" lon="11.677910">
        <ele>335</ele>
        <time>2019-09-06T06:51:12Z</time>
      </trkpt>
      <trkpt lat="43.066580" lon="11.678020">
        <ele>338</ele>
        <time>2019-09-06T06:51:17Z</time>
      </trkpt>
      <trkpt lat="43.066970" lon="11.678310">
        <ele>344</ele>
        <time>2019-09-06T06:51:25Z</time>
      </trkpt>
      <trkpt lat="43.067370" lon="11.678500">
        <ele>347</ele>
        <time>2019-09-06T06:51:32Z</time>
      </trkpt>
      <trkpt lat="43.067730" lon="11.678610">
        <ele>351</ele>
        <time>2019-09-06T06:51:39Z</time>
      </trkpt>
      <trkpt lat="43.067840" lon="11.678600">
        <ele>352</ele>
        <time>2019-09-06T06:51:41Z</time>
      </trkpt>
      <trkpt lat="43.068330" lon="11.678450">
        <ele>355</ele>
        <time>2019-09-06T06:51:50Z</time>
      </trkpt>
      <trkpt lat="43.068430" lon="11.678480">
        <ele>357</ele>
        <time>2019-09-06T06:51:51Z</time>
      </trkpt>
      <trkpt lat="43.068490" lon="11.678530">
        <ele>358</ele>
        <time>2019-09-06T06:51:53Z</time>
      </trkpt>
      <trkpt lat="43.068530" lon="11.678610">
        <ele>359</ele>
        <time>2019-09-06T06:51:54Z</time>
      </trkpt>
      <trkpt lat="43.068540" lon="11.678730">
        <ele>360</ele>
        <time>2019-09-06T06:51:56Z</time>
      </trkpt>
      <trkpt lat="43.068470" lon="11.679360">
        <ele>363</ele>
        <time>2019-09-06T06:52:04Z</time>
      </trkpt>
      <trkpt lat="43.068480" lon="11.679710">
        <ele>363</ele>
        <time>2019-09-06T06:52:08Z</time>
      </trkpt>
      <trkpt lat="43.068520" lon="11.679820">
        <ele>363</ele>
        <time>2019-09-06T06:52:10Z</time>
      </trkpt>
      <trkpt lat="43.068600" lon="11.679910">
        <ele>364</ele>
        <time>2019-09-06T06:52:12Z</time>
      </trkpt>
      <trkpt lat="43.068720" lon="11.679950">
        <ele>365</ele>
        <time>2019-09-06T06:52:14Z</time>
      </trkpt>
      <trkpt lat="43.068890" lon="11.679870">
        <ele>367</ele>
        <time>2019-09-06T06:52:17Z</time>
      </trkpt>
      <trkpt lat="43.068950" lon="11.679780">
        <ele>368</ele>
        <time>2019-09-06T06:52:19Z</time>
      </trkpt>
      <trkpt lat="43.069150" lon="11.679150">
        <ele>371</ele>
        <time>2019-09-06T06:52:28Z</time>
      </trkpt>
      <trkpt lat="43.069250" lon="11.679000">
        <ele>371</ele>
        <time>2019-09-06T06:52:30Z</time>
      </trkpt>
      <trkpt lat="43.069360" lon="11.678900">
        <ele>372</ele>
        <time>2019-09-06T06:52:33Z</time>
      </trkpt>
      <trkpt lat="43.069680" lon="11.678810">
        <ele>374</ele>
        <time>2019-09-06T06:52:39Z</time>
      </trkpt>
      <trkpt lat="43.071360" lon="11.678620">
        <ele>386</ele>
        <time>2019-09-06T06:53:09Z</time>
      </trkpt>
      <trkpt lat="43.071960" lon="11.678570">
        <ele>392</ele>
        <time>2019-09-06T06:53:19Z</time>
      </trkpt>
      <trkpt lat="43.072080" lon="11.678600">
        <ele>394</ele>
        <time>2019-09-06T06:53:21Z</time>
      </trkpt>
      <trkpt lat="43.072160" lon="11.678670">
        <ele>396</ele>
        <time>2019-09-06T06:53:23Z</time>
      </trkpt>
      <trkpt lat="43.072220" lon="11.678880">
        <ele>399</ele>
        <time>2019-09-06T06:53:26Z</time>
      </trkpt>
      <trkpt lat="43.071980" lon="11.679780">
        <ele>401</ele>
        <time>2019-09-06T06:53:38Z</time>
      </trkpt>
      <trkpt lat="43.071960" lon="11.679960">
        <ele>402</ele>
        <time>2019-09-06T06:53:41Z</time>
      </trkpt>
      <trkpt lat="43.071990" lon="11.680090">
        <ele>402</ele>
        <time>2019-09-06T06:53:43Z</time>
      </trkpt>
      <trkpt lat="43.072100" lon="11.680220">
        <ele>403</ele>
        <time>2019-09-06T06:53:45Z</time>
      </trkpt>
      <trkpt lat="43.072260" lon="11.680200">
        <ele>405</ele>
        <time>2019-09-06T06:53:48Z</time>
      </trkpt>
      <trkpt lat="43.072400" lon="11.680030">
        <ele>407</ele>
        <time>2019-09-06T06:53:51Z</time>
      </trkpt>
      <trkpt lat="43.072850" lon="11.679040">
        <ele>410</ele>
        <time>2019-09-06T06:54:07Z</time>
      </trkpt>
      <trkpt lat="43.073360" lon="11.678390">
        <ele>414</ele>
        <time>2019-09-06T06:54:19Z</time>
      </trkpt>
      <trkpt lat="43.073540" lon="11.678100">
        <ele>416</ele>
        <time>2019-09-06T06:54:24Z</time>
      </trkpt>
      <trkpt lat="43.073910" lon="11.677250">
        <ele>422</ele>
        <time>2019-09-06T06:54:37Z</time>
      </trkpt>
      <trkpt lat="43.074180" lon="11.676280">
        <ele>428</ele>
        <time>2019-09-06T06:54:50Z</time>
      </trkpt>
      <trkpt lat="43.074430" lon="11.675750">
        <ele>431</ele>
        <time>2019-09-06T06:54:58Z</time>
      </trkpt>
      <trkpt lat="43.074650" lon="11.675350">
        <ele>431</ele>
        <time>2019-09-06T06:55:05Z</time>
      </trkpt>
      <trkpt lat="43.074740" lon="11.675260">
        <ele>432</ele>
        <time>2019-09-06T06:55:07Z</time>
      </trkpt>
      <trkpt lat="43.075210" lon="11.674970">
        <ele>435</ele>
        <time>2019-09-06T06:55:16Z</time>
      </trkpt>
      <trkpt lat="43.076190" lon="11.674150">
        <ele>443</ele>
        <time>2019-09-06T06:55:37Z</time>
      </trkpt>
      <trkpt lat="43.076340" lon="11.673980">
        <ele>445</ele>
        <time>2019-09-06T06:55:40Z</time>
      </trkpt>
      <trkpt lat="43.076450" lon="11.673810">
        <ele>445</ele>
        <time>2019-09-06T06:55:43Z</time>
      </trkpt>
      <trkpt lat="43.076690" lon="11.673310">
        <ele>446</ele>
        <time>2019-09-06T06:55:51Z</time>
      </trkpt>
      <trkpt lat="43.076760" lon="11.673230">
        <ele>446</ele>
        <time>2019-09-06T06:55:52Z</time>
      </trkpt>
      <trkpt lat="43.076880" lon="11.673220">
        <ele>448</ele>
        <time>2019-09-06T06:55:54Z</time>
      </trkpt>
      <trkpt lat="43.076940" lon="11.673320">
        <ele>450</ele>
        <time>2019-09-06T06:55:56Z</time>
      </trkpt>
      <trkpt lat="43.076930" lon="11.673790">
        <ele>454</ele>
        <time>2019-09-06T06:56:02Z</time>
      </trkpt>
      <trkpt lat="43.076970" lon="11.674230">
        <ele>459</ele>
        <time>2019-09-06T06:56:08Z</time>
      </trkpt>
      <trkpt lat="43.076330" lon="11.676480">
        <ele>470</ele>
        <time>2019-09-06T06:56:39Z</time>
      </trkpt>
      <trkpt lat="43.076210" lon="11.676790">
        <ele>471</ele>
        <time>2019-09-06T06:56:44Z</time>
      </trkpt>
      <trkpt lat="43.076400" lon="11.676790">
        <ele>474</ele>
        <time>2019-09-06T06:56:47Z</time>
      </trkpt>
      <trkpt lat="43.076590" lon="11.676850">
        <ele>479</ele>
        <time>2019-09-06T06:56:51Z</time>
      </trkpt>
      <trkpt lat="43.077190" lon="11.677270">
        <ele>488</ele>
        <time>2019-09-06T06:57:03Z</time>
      </trkpt>
      <trkpt lat="43.077680" lon="11.676830">
        <ele>489</ele>
        <time>2019-09-06T06:57:13Z</time>
      </trkpt>
      <trkpt lat="43.077620" lon="11.677040">
        <ele>489</ele>
        <time>2019-09-06T06:57:16Z</time>
      </trkpt>
      <trkpt lat="43.077560" lon="11.677500">
        <ele>490</ele>
        <time>2019-09-06T06:57:22Z</time>
      </trkpt>
      <trkpt lat="43.077300" lon="11.677360">
        <ele>489</ele>
        <time>2019-09-06T06:57:27Z</time>
      </trkpt>
      <trkpt lat="43.076160" lon="11.681100">
        <ele>482</ele>
        <time>2019-09-06T06:58:20Z</time>
      </trkpt>
      <trkpt lat="43.076060" lon="11.681240">
        <ele>479</ele>
        <time>2019-09-06T06:58:22Z</time>
      </trkpt>
      <trkpt lat="43.075960" lon="11.680690">
        <ele>480</ele>
        <time>2019-09-06T06:58:30Z</time>
      </trkpt>
      <trkpt lat="43.075960" lon="11.680540">
        <ele>480</ele>
        <time>2019-09-06T06:58:32Z</time>
      </trkpt>
      <trkpt lat="43.076040" lon="11.680010">
        <ele>482</ele>
        <time>2019-09-06T06:58:39Z</time>
      </trkpt>
      <trkpt lat="43.076050" lon="11.679490">
        <ele>484</ele>
        <time>2019-09-06T06:58:46Z</time>
      </trkpt>
      <trkpt lat="43.075930" lon="11.678620">
        <ele>480</ele>
        <time>2019-09-06T06:58:57Z</time>
      </trkpt>
      <trkpt lat="43.075940" lon="11.678200">
        <ele>479</ele>
        <time>2019-09-06T06:59:03Z</time>
      </trkpt>
      <trkpt lat="43.076050" lon="11.677430">
        <ele>474</ele>
        <time>2019-09-06T06:59:13Z</time>
      </trkpt>
      <trkpt lat="43.076180" lon="11.676870">
        <ele>471</ele>
        <time>2019-09-06T06:59:20Z</time>
      </trkpt>
      <trkpt lat="43.076330" lon="11.676480">
        <ele>470</ele>
        <time>2019-09-06T06:59:26Z</time>
      </trkpt>
      <trkpt lat="43.076970" lon="11.674230">
        <ele>459</ele>
        <time>2019-09-06T06:59:57Z</time>
      </trkpt>
      <trkpt lat="43.076930" lon="11.673790">
        <ele>454</ele>
        <time>2019-09-06T07:00:03Z</time>
      </trkpt>
      <trkpt lat="43.076940" lon="11.673320">
        <ele>450</ele>
        <time>2019-09-06T07:00:09Z</time>
      </trkpt>
      <trkpt lat="43.076920" lon="11.673260">
        <ele>449</ele>
        <time>2019-09-06T07:00:10Z</time>
      </trkpt>
      <trkpt lat="43.076980" lon="11.673180">
        <ele>449</ele>
        <time>2019-09-06T07:00:12Z</time>
      </trkpt>
      <trkpt lat="43.077180" lon="11.672570">
        <ele>445</ele>
        <time>2019-09-06T07:00:20Z</time>
      </trkpt>
      <trkpt lat="43.077420" lon="11.671180">
        <ele>435</ele>
        <time>2019-09-06T07:00:39Z</time>
      </trkpt>
      <trkpt lat="43.077490" lon="11.670840">
        <ele>432</ele>
        <time>2019-09-06T07:00:44Z</time>
      </trkpt>
      <trkpt lat="43.077660" lon="11.670260">
        <ele>429</ele>
        <time>2019-09-06T07:00:52Z</time>
      </trkpt>
      <trkpt lat="43.077810" lon="11.669460">
        <ele>422</ele>
        <time>2019-09-06T07:01:02Z</time>
      </trkpt>
      <trkpt lat="43.077990" lon="11.668930">
        <ele>418</ele>
        <time>2019-09-06T07:01:10Z</time>
      </trkpt>
      <trkpt lat="43.078290" lon="11.668590">
        <ele>418</ele>
        <time>2019-09-06T07:01:17Z</time>
      </trkpt>
      <trkpt lat="43.078450" lon="11.668370">
        <ele>418</ele>
        <time>2019-09-06T07:01:21Z</time>
      </trkpt>
      <trkpt lat="43.078550" lon="11.668120">
        <ele>419</ele>
        <time>2019-09-06T07:01:25Z</time>
      </trkpt>
      <trkpt lat="43.078630" lon="11.667650">
        <ele>418</ele>
        <time>2019-09-06T07:01:31Z</time>
      </trkpt>
      <trkpt lat="43.078540" lon="11.666380">
        <ele>409</ele>
        <time>2019-09-06T07:01:48Z</time>
      </trkpt>
      <trkpt lat="43.078490" lon="11.666070">
        <ele>406</ele>
        <time>2019-09-06T07:01:52Z</time>
      </trkpt>
      <trkpt lat="43.078470" lon="11.665750">
        <ele>403</ele>
        <time>2019-09-06T07:01:56Z</time>
      </trkpt>
      <trkpt lat="43.078640" lon="11.664830">
        <ele>399</ele>
        <time>2019-09-06T07:02:08Z</time>
      </trkpt>
      <trkpt lat="43.078620" lon="11.664590">
        <ele>398</ele>
        <time>2019-09-06T07:02:11Z</time>
      </trkpt>
      <trkpt lat="43.078680" lon="11.663920">
        <ele>397</ele>
        <time>2019-09-06T07:02:20Z</time>
      </trkpt>
      <trkpt lat="43.078570" lon="11.663080">
        <ele>394</ele>
        <time>2019-09-06T07:02:31Z</time>
      </trkpt>
      <trkpt lat="43.078580" lon="11.662440">
        <ele>391</ele>
        <time>2019-09-06T07:02:39Z</time>
      </trkpt>
      <trkpt lat="43.078520" lon="11.662060">
        <ele>386</ele>
        <time>2019-09-06T07:02:45Z</time>
      </trkpt>
      <trkpt lat="43.078450" lon="11.661900">
        <ele>383</ele>
        <time>2019-09-06T07:02:47Z</time>
      </trkpt>
      <trkpt lat="43.078340" lon="11.661790">
        <ele>381</ele>
        <time>2019-09-06T07:02:49Z</time>
      </trkpt>
      <trkpt lat="43.078210" lon="11.661720">
        <ele>380</ele>
        <time>2019-09-06T07:02:52Z</time>
      </trkpt>
      <trkpt lat="43.078060" lon="11.661540">
        <ele>376</ele>
        <time>2019-09-06T07:02:55Z</time>
      </trkpt>
      <trkpt lat="43.077930" lon="11.661470">
        <ele>375</ele>
        <time>2019-09-06T07:02:58Z</time>
      </trkpt>
      <trkpt lat="43.077430" lon="11.661330">
        <ele>371</ele>
        <time>2019-09-06T07:03:07Z</time>
      </trkpt>
      <trkpt lat="43.076890" lon="11.660720">
        <ele>364</ele>
        <time>2019-09-06T07:03:19Z</time>
      </trkpt>
      <trkpt lat="43.076650" lon="11.660540">
        <ele>363</ele>
        <time>2019-09-06T07:03:24Z</time>
      </trkpt>
      <trkpt lat="43.076430" lon="11.660250">
        <ele>359</ele>
        <time>2019-09-06T07:03:30Z</time>
      </trkpt>
      <trkpt lat="43.076120" lon="11.659900">
        <ele>357</ele>
        <time>2019-09-06T07:03:37Z</time>
      </trkpt>
      <trkpt lat="43.075850" lon="11.659750">
        <ele>356</ele>
        <time>2019-09-06T07:03:42Z</time>
      </trkpt>
      <trkpt lat="43.075770" lon="11.659660">
        <ele>355</ele>
        <time>2019-09-06T07:03:44Z</time>
      </trkpt>
      <trkpt lat="43.075700" lon="11.659530">
        <ele>355</ele>
        <time>2019-09-06T07:03:46Z</time>
      </trkpt>
      <trkpt lat="43.075520" lon="11.658570">
        <ele>351</ele>
        <time>2019-09-06T07:03:59Z</time>
      </trkpt>
      <trkpt lat="43.075550" lon="11.658150">
        <ele>349</ele>
        <time>2019-09-06T07:04:04Z</time>
      </trkpt>
      <trkpt lat="43.075520" lon="11.658060">
        <ele>349</ele>
        <time>2019-09-06T07:04:06Z</time>
      </trkpt>
      <trkpt lat="43.075230" lon="11.657690">
        <ele>347</ele>
        <time>2019-09-06T07:04:13Z</time>
      </trkpt>
      <trkpt lat="43.075210" lon="11.657590">
        <ele>347</ele>
        <time>2019-09-06T07:04:14Z</time>
      </trkpt>
      <trkpt lat="43.075280" lon="11.657410">
        <ele>346</ele>
        <time>2019-09-06T07:04:17Z</time>
      </trkpt>
      <trkpt lat="43.075370" lon="11.657330">
        <ele>345</ele>
        <time>2019-09-06T07:04:19Z</time>
      </trkpt>
      <trkpt lat="43.075400" lon="11.657220">
        <ele>344</ele>
        <time>2019-09-06T07:04:20Z</time>
      </trkpt>
      <trkpt lat="43.075430" lon="11.656700">
        <ele>340</ele>
        <time>2019-09-06T07:04:27Z</time>
      </trkpt>
      <trkpt lat="43.075790" lon="11.655180">
        <ele>323</ele>
        <time>2019-09-06T07:04:48Z</time>
      </trkpt>
      <trkpt lat="43.075890" lon="11.654530">
        <ele>318</ele>
        <time>2019-09-06T07:04:56Z</time>
      </trkpt>
      <trkpt lat="43.075910" lon="11.653590">
        <ele>312</ele>
        <time>2019-09-06T07:05:09Z</time>
      </trkpt>
      <trkpt lat="43.075860" lon="11.652840">
        <ele>313</ele>
        <time>2019-09-06T07:05:18Z</time>
      </trkpt>
      <trkpt lat="43.075800" lon="11.652520">
        <ele>314</ele>
        <time>2019-09-06T07:05:23Z</time>
      </trkpt>
      <trkpt lat="43.075600" lon="11.652080">
        <ele>317</ele>
        <time>2019-09-06T07:05:29Z</time>
      </trkpt>
      <trkpt lat="43.075340" lon="11.651670">
        <ele>320</ele>
        <time>2019-09-06T07:05:36Z</time>
      </trkpt>
      <trkpt lat="43.075010" lon="11.651310">
        <ele>323</ele>
        <time>2019-09-06T07:05:44Z</time>
      </trkpt>
      <trkpt lat="43.074540" lon="11.650900">
        <ele>329</ele>
        <time>2019-09-06T07:05:54Z</time>
      </trkpt>
      <trkpt lat="43.074230" lon="11.650670">
        <ele>334</ele>
        <time>2019-09-06T07:06:00Z</time>
      </trkpt>
      <trkpt lat="43.073800" lon="11.650140">
        <ele>341</ele>
        <time>2019-09-06T07:06:10Z</time>
      </trkpt>
      <trkpt lat="43.073710" lon="11.649960">
        <ele>343</ele>
        <time>2019-09-06T07:06:13Z</time>
      </trkpt>
      <trkpt lat="43.073430" lon="11.649040">
        <ele>353</ele>
        <time>2019-09-06T07:06:26Z</time>
      </trkpt>
      <trkpt lat="43.073410" lon="11.648760">
        <ele>357</ele>
        <time>2019-09-06T07:06:30Z</time>
      </trkpt>
      <trkpt lat="43.073260" lon="11.648290">
        <ele>362</ele>
        <time>2019-09-06T07:06:37Z</time>
      </trkpt>
      <trkpt lat="43.073250" lon="11.647720">
        <ele>368</ele>
        <time>2019-09-06T07:06:44Z</time>
      </trkpt>
      <trkpt lat="43.073270" lon="11.647210">
        <ele>373</ele>
        <time>2019-09-06T07:06:51Z</time>
      </trkpt>
      <trkpt lat="43.073330" lon="11.646870">
        <ele>377</ele>
        <time>2019-09-06T07:06:55Z</time>
      </trkpt>
      <trkpt lat="43.073630" lon="11.646420">
        <ele>379</ele>
        <time>2019-09-06T07:07:03Z</time>
      </trkpt>
      <trkpt lat="43.072170" lon="11.643010">
        <ele>375</ele>
        <time>2019-09-06T07:07:54Z</time>
      </trkpt>
      <trkpt lat="43.072070" lon="11.642880">
        <ele>375</ele>
        <time>2019-09-06T07:07:57Z</time>
      </trkpt>
      <trkpt lat="43.071900" lon="11.642760">
        <ele>374</ele>
        <time>2019-09-06T07:08:00Z</time>
      </trkpt>
      <trkpt lat="43.070720" lon="11.642180">
        <ele>368</ele>
        <time>2019-09-06T07:08:23Z</time>
      </trkpt>
      <trkpt lat="43.070520" lon="11.642120">
        <ele>367</ele>
        <time>2019-09-06T07:08:26Z</time>
      </trkpt>
      <trkpt lat="43.070360" lon="11.642110">
        <ele>367</ele>
        <time>2019-09-06T07:08:29Z</time>
      </trkpt>
      <trkpt lat="43.070330" lon="11.642030">
        <ele>368</ele>
        <time>2019-09-06T07:08:30Z</time>
      </trkpt>
      <trkpt lat="43.070250" lon="11.641930">
        <ele>368</ele>
        <time>2019-09-06T07:08:32Z</time>
      </trkpt>
      <trkpt lat="43.069710" lon="11.641370">
        <ele>368</ele>
        <time>2019-09-06T07:08:44Z</time>
      </trkpt>
      <trkpt lat="43.069650" lon="11.641270">
        <ele>368</ele>
        <time>2019-09-06T07:08:46Z</time>
      </trkpt>
      <trkpt lat="43.069560" lon="11.640980">
        <ele>368</ele>
        <time>2019-09-06T07:08:50Z</time>
      </trkpt>
      <trkpt lat="43.069530" lon="11.640710">
        <ele>367</ele>
        <time>2019-09-06T07:08:54Z</time>
      </trkpt>
      <trkpt lat="43.069530" lon="11.640470">
        <ele>366</ele>
        <time>2019-09-06T07:08:57Z</time>
      </trkpt>
      <trkpt lat="43.069740" lon="11.639440">
        <ele>364</ele>
        <time>2019-09-06T07:09:11Z</time>
      </trkpt>
      <trkpt lat="43.070080" lon="11.638380">
        <ele>365</ele>
        <time>2019-09-06T07:09:26Z</time>
      </trkpt>
      <trkpt lat="43.070140" lon="11.638060">
        <ele>364</ele>
        <time>2019-09-06T07:09:30Z</time>
      </trkpt>
      <trkpt lat="43.070310" lon="11.636820">
        <ele>358</ele>
        <time>2019-09-06T07:09:46Z</time>
      </trkpt>
      <trkpt lat="43.070320" lon="11.636650">
        <ele>357</ele>
        <time>2019-09-06T07:09:49Z</time>
      </trkpt>
      <trkpt lat="43.070250" lon="11.635890">
        <ele>354</ele>
        <time>2019-09-06T07:09:58Z</time>
      </trkpt>
      <trkpt lat="43.070260" lon="11.635530">
        <ele>354</ele>
        <time>2019-09-06T07:10:03Z</time>
      </trkpt>
      <trkpt lat="43.070330" lon="11.635010">
        <ele>355</ele>
        <time>2019-09-06T07:10:10Z</time>
      </trkpt>
      <trkpt lat="43.070400" lon="11.634710">
        <ele>356</ele>
        <time>2019-09-06T07:10:14Z</time>
      </trkpt>
      <trkpt lat="43.070660" lon="11.634350">
        <ele>359</ele>
        <time>2019-09-06T07:10:21Z</time>
      </trkpt>
      <trkpt lat="43.070700" lon="11.634190">
        <ele>360</ele>
        <time>2019-09-06T07:10:23Z</time>
      </trkpt>
      <trkpt lat="43.070640" lon="11.633760">
        <ele>357</ele>
        <time>2019-09-06T07:10:29Z</time>
      </trkpt>
      <trkpt lat="43.070600" lon="11.631510">
        <ele>339</ele>
        <time>2019-09-06T07:10:58Z</time>
      </trkpt>
      <trkpt lat="43.070570" lon="11.631220">
        <ele>337</ele>
        <time>2019-09-06T07:11:02Z</time>
      </trkpt>
      <trkpt lat="43.070530" lon="11.631000">
        <ele>336</ele>
        <time>2019-09-06T07:11:05Z</time>
      </trkpt>
      <trkpt lat="43.070170" lon="11.630130">
        <ele>326</ele>
        <time>2019-09-06T07:11:18Z</time>
      </trkpt>
      <trkpt lat="43.070040" lon="11.629740">
        <ele>321</ele>
        <time>2019-09-06T07:11:23Z</time>
      </trkpt>
      <trkpt lat="43.069860" lon="11.628770">
        <ele>307</ele>
        <time>2019-09-06T07:11:36Z</time>
      </trkpt>
      <trkpt lat="43.069780" lon="11.628180">
        <ele>302</ele>
        <time>2019-09-06T07:11:44Z</time>
      </trkpt>
      <trkpt lat="43.069790" lon="11.627660">
        <ele>301</ele>
        <time>2019-09-06T07:11:51Z</time>
      </trkpt>
      <trkpt lat="43.069620" lon="11.626520">
        <ele>304</ele>
        <time>2019-09-06T07:12:06Z</time>
      </trkpt>
      <trkpt lat="43.069770" lon="11.626220">
        <ele>306</ele>
        <time>2019-09-06T07:12:11Z</time>
      </trkpt>
      <trkpt lat="43.069930" lon="11.626090">
        <ele>306</ele>
        <time>2019-09-06T07:12:14Z</time>
      </trkpt>
      <trkpt lat="43.070520" lon="11.625960">
        <ele>310</ele>
        <time>2019-09-06T07:12:25Z</time>
      </trkpt>
      <trkpt lat="43.070620" lon="11.625890">
        <ele>311</ele>
        <time>2019-09-06T07:12:27Z</time>
      </trkpt>
      <trkpt lat="43.070740" lon="11.625610">
        <ele>313</ele>
        <time>2019-09-06T07:12:31Z</time>
      </trkpt>
      <trkpt lat="43.070760" lon="11.625410">
        <ele>315</ele>
        <time>2019-09-06T07:12:33Z</time>
      </trkpt>
      <trkpt lat="43.070720" lon="11.625210">
        <ele>315</ele>
        <time>2019-09-06T07:12:36Z</time>
      </trkpt>
      <trkpt lat="43.070730" lon="11.625070">
        <ele>316</ele>
        <time>2019-09-06T07:12:38Z</time>
      </trkpt>
      <trkpt lat="43.070800" lon="11.624980">
        <ele>317</ele>
        <time>2019-09-06T07:12:40Z</time>
      </trkpt>
      <trkpt lat="43.070850" lon="11.624710">
        <ele>319</ele>
        <time>2019-09-06T07:12:43Z</time>
      </trkpt>
      <trkpt lat="43.070910" lon="11.624570">
        <ele>321</ele>
        <time>2019-09-06T07:12:45Z</time>
      </trkpt>
      <trkpt lat="43.071010" lon="11.624560">
        <ele>324</ele>
        <time>2019-09-06T07:12:47Z</time>
      </trkpt>
      <trkpt lat="43.071350" lon="11.625090">
        <ele>329</ele>
        <time>2019-09-06T07:12:56Z</time>
      </trkpt>
      <trkpt lat="43.071440" lon="11.625120">
        <ele>331</ele>
        <time>2019-09-06T07:12:58Z</time>
      </trkpt>
      <trkpt lat="43.071720" lon="11.625130">
        <ele>338</ele>
        <time>2019-09-06T07:13:03Z</time>
      </trkpt>
      <trkpt lat="43.071770" lon="11.625170">
        <ele>339</ele>
        <time>2019-09-06T07:13:04Z</time>
      </trkpt>
      <trkpt lat="43.071910" lon="11.625650">
        <ele>339</ele>
        <time>2019-09-06T07:13:11Z</time>
      </trkpt>
      <trkpt lat="43.071920" lon="11.625830">
        <ele>338</ele>
        <time>2019-09-06T07:13:13Z</time>
      </trkpt>
      <trkpt lat="43.071970" lon="11.625930">
        <ele>338</ele>
        <time>2019-09-06T07:13:15Z</time>
      </trkpt>
      <trkpt lat="43.072070" lon="11.625990">
        <ele>339</ele>
        <time>2019-09-06T07:13:17Z</time>
      </trkpt>
      <trkpt lat="43.072160" lon="11.626000">
        <ele>340</ele>
        <time>2019-09-06T07:13:18Z</time>
      </trkpt>
      <trkpt lat="43.072260" lon="11.625960">
        <ele>342</ele>
        <time>2019-09-06T07:13:20Z</time>
      </trkpt>
      <trkpt lat="43.072610" lon="11.625680">
        <ele>350</ele>
        <time>2019-09-06T07:13:27Z</time>
      </trkpt>
      <trkpt lat="43.072720" lon="11.625620">
        <ele>351</ele>
        <time>2019-09-06T07:13:29Z</time>
      </trkpt>
      <trkpt lat="43.072790" lon="11.625600">
        <ele>352</ele>
        <time>2019-09-06T07:13:31Z</time>
      </trkpt>
      <trkpt lat="43.073060" lon="11.625640">
        <ele>353</ele>
        <time>2019-09-06T07:13:35Z</time>
      </trkpt>
      <trkpt lat="43.073130" lon="11.625630">
        <ele>354</ele>
        <time>2019-09-06T07:13:37Z</time>
      </trkpt>
      <trkpt lat="43.073180" lon="11.625580">
        <ele>354</ele>
        <time>2019-09-06T07:13:38Z</time>
      </trkpt>
      <trkpt lat="43.073220" lon="11.625460">
        <ele>356</ele>
        <time>2019-09-06T07:13:39Z</time>
      </trkpt>
      <trkpt lat="43.073160" lon="11.624810">
        <ele>360</ele>
        <time>2019-09-06T07:13:48Z</time>
      </trkpt>
      <trkpt lat="43.073210" lon="11.624640">
        <ele>361</ele>
        <time>2019-09-06T07:13:50Z</time>
      </trkpt>
      <trkpt lat="43.073260" lon="11.624600">
        <ele>362</ele>
        <time>2019-09-06T07:13:51Z</time>
      </trkpt>
      <trkpt lat="43.073170" lon="11.624230">
        <ele>362</ele>
        <time>2019-09-06T07:13:56Z</time>
      </trkpt>
      <trkpt lat="43.073110" lon="11.623830">
        <ele>362</ele>
        <time>2019-09-06T07:14:02Z</time>
      </trkpt>
      <trkpt lat="43.073110" lon="11.623380">
        <ele>362</ele>
        <time>2019-09-06T07:14:08Z</time>
      </trkpt>
      <trkpt lat="43.073240" lon="11.622550">
        <ele>361</ele>
        <time>2019-09-06T07:14:19Z</time>
      </trkpt>
      <trkpt lat="43.073380" lon="11.622000">
        <ele>363</ele>
        <time>2019-09-06T07:14:26Z</time>
      </trkpt>
      <trkpt lat="43.073440" lon="11.621650">
        <ele>364</ele>
        <time>2019-09-06T07:14:31Z</time>
      </trkpt>
      <trkpt lat="43.073450" lon="11.621290">
        <ele>365</ele>
        <time>2019-09-06T07:14:36Z</time>
      </trkpt>
      <trkpt lat="43.073420" lon="11.620930">
        <ele>367</ele>
        <time>2019-09-06T07:14:40Z</time>
      </trkpt>
      <trkpt lat="43.073260" lon="11.620370">
        <ele>367</ele>
        <time>2019-09-06T07:14:48Z</time>
      </trkpt>
      <trkpt lat="43.073120" lon="11.620080">
        <ele>368</ele>
        <time>2019-09-06T07:14:53Z</time>
      </trkpt>
      <trkpt lat="43.072950" lon="11.619830">
        <ele>368</ele>
        <time>2019-09-06T07:14:57Z</time>
      </trkpt>
      <trkpt lat="43.072700" lon="11.619590">
        <ele>367</ele>
        <time>2019-09-06T07:15:03Z</time>
      </trkpt>
      <trkpt lat="43.072430" lon="11.619390">
        <ele>367</ele>
        <time>2019-09-06T07:15:08Z</time>
      </trkpt>
      <trkpt lat="43.071760" lon="11.618990">
        <ele>365</ele>
        <time>2019-09-06T07:15:21Z</time>
      </trkpt>
      <trkpt lat="43.070940" lon="11.618430">
        <ele>370</ele>
        <time>2019-09-06T07:15:37Z</time>
      </trkpt>
      <trkpt lat="43.070620" lon="11.618200">
        <ele>373</ele>
        <time>2019-09-06T07:15:44Z</time>
      </trkpt>
      <trkpt lat="43.070430" lon="11.618020">
        <ele>375</ele>
        <time>2019-09-06T07:15:48Z</time>
      </trkpt>
      <trkpt lat="43.070190" lon="11.617630">
        <ele>377</ele>
        <time>2019-09-06T07:15:54Z</time>
      </trkpt>
      <trkpt lat="43.070030" lon="11.617190">
        <ele>379</ele>
        <time>2019-09-06T07:16:01Z</time>
      </trkpt>
      <trkpt lat="43.069740" lon="11.616240">
        <ele>380</ele>
        <time>2019-09-06T07:16:14Z</time>
      </trkpt>
      <trkpt lat="43.069630" lon="11.615970">
        <ele>380</ele>
        <time>2019-09-06T07:16:18Z</time>
      </trkpt>
      <trkpt lat="43.069480" lon="11.615730">
        <ele>382</ele>
        <time>2019-09-06T07:16:22Z</time>
      </trkpt>
      <trkpt lat="43.069280" lon="11.615500">
        <ele>385</ele>
        <time>2019-09-06T07:16:27Z</time>
      </trkpt>
      <trkpt lat="43.069020" lon="11.615340">
        <ele>388</ele>
        <time>2019-09-06T07:16:32Z</time>
      </trkpt>
      <trkpt lat="43.066790" lon="11.614500">
        <ele>396</ele>
        <time>2019-09-06T07:17:13Z</time>
      </trkpt>
      <trkpt lat="43.066500" lon="11.614330">
        <ele>396</ele>
        <time>2019-09-06T07:17:19Z</time>
      </trkpt>
      <trkpt lat="43.066270" lon="11.614140">
        <ele>397</ele>
        <time>2019-09-06T07:17:24Z</time>
      </trkpt>
      <trkpt lat="43.066060" lon="11.613840">
        <ele>398</ele>
        <time>2019-09-06T07:17:29Z</time>
      </trkpt>
      <trkpt lat="43.065290" lon="11.611850">
        <ele>401</ele>
        <time>2019-09-06T07:17:58Z</time>
      </trkpt>
      <trkpt lat="43.064980" lon="11.611140">
        <ele>404</ele>
        <time>2019-09-06T07:18:09Z</time>
      </trkpt>
      <trkpt lat="43.064830" lon="11.610920">
        <ele>404</ele>
        <time>2019-09-06T07:18:13Z</time>
      </trkpt>
      <trkpt lat="43.064630" lon="11.610690">
        <ele>403</ele>
        <time>2019-09-06T07:18:18Z</time>
      </trkpt>
      <trkpt lat="43.064360" lon="11.610490">
        <ele>404</ele>
        <time>2019-09-06T07:18:23Z</time>
      </trkpt>
      <trkpt lat="43.063480" lon="11.609960">
        <ele>414</ele>
        <time>2019-09-06T07:18:40Z</time>
      </trkpt>
      <trkpt lat="43.063530" lon="11.609880">
        <ele>415</ele>
        <time>2019-09-06T07:18:42Z</time>
      </trkpt>
      <trkpt lat="43.063090" lon="11.609540">
        <ele>416</ele>
        <time>2019-09-06T07:18:51Z</time>
      </trkpt>
      <trkpt lat="43.062740" lon="11.609180">
        <ele>415</ele>
        <time>2019-09-06T07:18:58Z</time>
      </trkpt>
      <trkpt lat="43.062550" lon="11.609070">
        <ele>414</ele>
        <time>2019-09-06T07:19:02Z</time>
      </trkpt>
      <trkpt lat="43.061980" lon="11.608340">
        <ele>408</ele>
        <time>2019-09-06T07:19:16Z</time>
      </trkpt>
      <trkpt lat="43.061630" lon="11.607790">
        <ele>404</ele>
        <time>2019-09-06T07:19:25Z</time>
      </trkpt>
      <trkpt lat="43.061330" lon="11.607280">
        <ele>402</ele>
        <time>2019-09-06T07:19:34Z</time>
      </trkpt>
      <trkpt lat="43.060980" lon="11.606600">
        <ele>401</ele>
        <time>2019-09-06T07:19:45Z</time>
      </trkpt>
      <trkpt lat="43.060710" lon="11.605950">
        <ele>403</ele>
        <time>2019-09-06T07:19:54Z</time>
      </trkpt>
      <trkpt lat="43.060640" lon="11.605910">
        <ele>403</ele>
        <time>2019-09-06T07:19:56Z</time>
      </trkpt>
      <trkpt lat="43.059990" lon="11.605800">
        <ele>404</ele>
        <time>2019-09-06T07:20:07Z</time>
      </trkpt>
      <trkpt lat="43.059770" lon="11.605810">
        <ele>405</ele>
        <time>2019-09-06T07:20:11Z</time>
      </trkpt>
      <trkpt lat="43.059420" lon="11.605980">
        <ele>405</ele>
        <time>2019-09-06T07:20:18Z</time>
      </trkpt>
      <trkpt lat="43.058130" lon="11.607010">
        <ele>407</ele>
        <time>2019-09-06T07:20:44Z</time>
      </trkpt>
      <trkpt lat="43.058050" lon="11.607050">
        <ele>407</ele>
        <time>2019-09-06T07:20:46Z</time>
      </trkpt>
      <trkpt lat="43.057800" lon="11.606680">
        <ele>408</ele>
        <time>2019-09-06T07:20:53Z</time>
      </trkpt>
      <trkpt lat="43.057390" lon="11.605650">
        <ele>414</ele>
        <time>2019-09-06T07:21:08Z</time>
      </trkpt>
      <trkpt lat="43.057070" lon="11.604760">
        <ele>418</ele>
        <time>2019-09-06T07:21:21Z</time>
      </trkpt>
      <trkpt lat="43.057190" lon="11.604400">
        <ele>420</ele>
        <time>2019-09-06T07:21:26Z</time>
      </trkpt>
      <trkpt lat="43.057380" lon="11.604100">
        <ele>421</ele>
        <time>2019-09-06T07:21:31Z</time>
      </trkpt>
      <trkpt lat="43.057570" lon="11.603980">
        <ele>420</ele>
        <time>2019-09-06T07:21:35Z</time>
      </trkpt>
      <trkpt lat="43.057790" lon="11.603980">
        <ele>419</ele>
        <time>2019-09-06T07:21:39Z</time>
      </trkpt>
      <trkpt lat="43.058160" lon="11.603900">
        <ele>416</ele>
        <time>2019-09-06T07:21:45Z</time>
      </trkpt>
      <trkpt lat="43.058400" lon="11.603790">
        <ele>414</ele>
        <time>2019-09-06T07:21:50Z</time>
      </trkpt>
      <trkpt lat="43.058580" lon="11.603800">
        <ele>413</ele>
        <time>2019-09-06T07:21:53Z</time>
      </trkpt>
      <trkpt lat="43.058960" lon="11.603880">
        <ele>412</ele>
        <time>2019-09-06T07:22:00Z</time>
      </trkpt>
      <trkpt lat="43.059220" lon="11.603730">
        <ele>410</ele>
        <time>2019-09-06T07:22:05Z</time>
      </trkpt>
      <trkpt lat="43.058430" lon="11.602370">
        <ele>402</ele>
        <time>2019-09-06T07:22:27Z</time>
      </trkpt>
      <trkpt lat="43.057860" lon="11.601290">
        <ele>401</ele>
        <time>2019-09-06T07:22:45Z</time>
      </trkpt>
      <trkpt lat="43.057280" lon="11.601770">
        <ele>411</ele>
        <time>2019-09-06T07:22:57Z</time>
      </trkpt>
      <trkpt lat="43.057220" lon="11.601860">
        <ele>412</ele>
        <time>2019-09-06T07:22:58Z</time>
      </trkpt>
      <trkpt lat="43.057140" lon="11.602080">
        <ele>414</ele>
        <time>2019-09-06T07:23:02Z</time>
      </trkpt>
      <trkpt lat="43.056990" lon="11.602660">
        <ele>418</ele>
        <time>2019-09-06T07:23:10Z</time>
      </trkpt>
      <trkpt lat="43.056680" lon="11.603550">
        <ele>421</ele>
        <time>2019-09-06T07:23:22Z</time>
      </trkpt>
      <trkpt lat="43.056490" lon="11.603800">
        <ele>420</ele>
        <time>2019-09-06T07:23:27Z</time>
      </trkpt>
      <trkpt lat="43.056360" lon="11.603610">
        <ele>421</ele>
        <time>2019-09-06T07:23:31Z</time>
      </trkpt>
      <trkpt lat="43.055000" lon="11.602110">
        <ele>428</ele>
        <time>2019-09-06T07:24:02Z</time>
      </trkpt>
      <trkpt lat="43.054890" lon="11.602020">
        <ele>428</ele>
        <time>2019-09-06T07:24:04Z</time>
      </trkpt>
      <trkpt lat="43.054530" lon="11.601830">
        <ele>429</ele>
        <time>2019-09-06T07:24:11Z</time>
      </trkpt>
      <trkpt lat="43.054110" lon="11.601680">
        <ele>430</ele>
        <time>2019-09-06T07:24:18Z</time>
      </trkpt>
      <trkpt lat="43.053960" lon="11.601570">
        <ele>429</ele>
        <time>2019-09-06T07:24:21Z</time>
      </trkpt>
      <trkpt lat="43.053090" lon="11.600840">
        <ele>430</ele>
        <time>2019-09-06T07:24:40Z</time>
      </trkpt>
      <trkpt lat="43.052790" lon="11.600490">
        <ele>428</ele>
        <time>2019-09-06T07:24:47Z</time>
      </trkpt>
      <trkpt lat="43.052530" lon="11.600030">
        <ele>426</ele>
        <time>2019-09-06T07:24:54Z</time>
      </trkpt>
      <trkpt lat="43.052440" lon="11.599930">
        <ele>426</ele>
        <time>2019-09-06T07:24:56Z</time>
      </trkpt>
      <trkpt lat="43.052240" lon="11.599750">
        <ele>425</ele>
        <time>2019-09-06T07:25:01Z</time>
      </trkpt>
      <trkpt lat="43.051900" lon="11.599530">
        <ele>423</ele>
        <time>2019-09-06T07:25:07Z</time>
      </trkpt>
      <trkpt lat="43.051690" lon="11.599420">
        <ele>422</ele>
        <time>2019-09-06T07:25:11Z</time>
      </trkpt>
      <trkpt lat="43.051510" lon="11.599360">
        <ele>423</ele>
        <time>2019-09-06T07:25:15Z</time>
      </trkpt>
      <trkpt lat="43.051280" lon="11.599360">
        <ele>424</ele>
        <time>2019-09-06T07:25:19Z</time>
      </trkpt>
      <trkpt lat="43.050230" lon="11.599670">
        <ele>429</ele>
        <time>2019-09-06T07:25:38Z</time>
      </trkpt>
      <trkpt lat="43.049850" lon="11.599810">
        <ele>431</ele>
        <time>2019-09-06T07:25:45Z</time>
      </trkpt>
      <trkpt lat="43.049460" lon="11.600020">
        <ele>432</ele>
        <time>2019-09-06T07:25:52Z</time>
      </trkpt>
      <trkpt lat="43.048590" lon="11.600580">
        <ele>438</ele>
        <time>2019-09-06T07:26:09Z</time>
      </trkpt>
      <trkpt lat="43.048400" lon="11.600750">
        <ele>439</ele>
        <time>2019-09-06T07:26:13Z</time>
      </trkpt>
      <trkpt lat="43.047540" lon="11.601330">
        <ele>440</ele>
        <time>2019-09-06T07:26:30Z</time>
      </trkpt>
      <trkpt lat="43.047380" lon="11.601420">
        <ele>441</ele>
        <time>2019-09-06T07:26:33Z</time>
      </trkpt>
      <trkpt lat="43.047070" lon="11.601520">
        <ele>444</ele>
        <time>2019-09-06T07:26:39Z</time>
      </trkpt>
      <trkpt lat="43.046800" lon="11.601480">
        <ele>445</ele>
        <time>2019-09-06T07:26:44Z</time>
      </trkpt>
      <trkpt lat="43.046390" lon="11.601330">
        <ele>448</ele>
        <time>2019-09-06T07:26:52Z</time>
      </trkpt>
      <trkpt lat="43.045400" lon="11.600800">
        <ele>461</ele>
        <time>2019-09-06T07:27:10Z</time>
      </trkpt>
      <trkpt lat="43.045110" lon="11.600680">
        <ele>464</ele>
        <time>2019-09-06T07:27:16Z</time>
      </trkpt>
      <trkpt lat="43.044790" lon="11.600620">
        <ele>466</ele>
        <time>2019-09-06T07:27:22Z</time>
      </trkpt>
      <trkpt lat="43.044180" lon="11.600570">
        <ele>470</ele>
        <time>2019-09-06T07:27:32Z</time>
      </trkpt>
      <trkpt lat="43.043310" lon="11.600590">
        <ele>476</ele>
        <time>2019-09-06T07:27:48Z</time>
      </trkpt>
      <trkpt lat="43.043100" lon="11.600580">
        <ele>478</ele>
        <time>2019-09-06T07:27:52Z</time>
      </trkpt>
      <trkpt lat="43.042980" lon="11.600550">
        <ele>479</ele>
        <time>2019-09-06T07:27:54Z</time>
      </trkpt>
      <trkpt lat="43.042170" lon="11.599930">
        <ele>488</ele>
        <time>2019-09-06T07:28:10Z</time>
      </trkpt>
      <trkpt lat="43.041930" lon="11.599780">
        <ele>492</ele>
        <time>2019-09-06T07:28:15Z</time>
      </trkpt>
      <trkpt lat="43.041610" lon="11.599670">
        <ele>496</ele>
        <time>2019-09-06T07:28:21Z</time>
      </trkpt>
      <trkpt lat="43.041400" lon="11.599640">
        <ele>497</ele>
        <time>2019-09-06T07:28:25Z</time>
      </trkpt>
      <trkpt lat="43.041220" lon="11.599740">
        <ele>499</ele>
        <time>2019-09-06T07:28:28Z</time>
      </trkpt>
      <trkpt lat="43.040640" lon="11.600150">
        <ele>503</ele>
        <time>2019-09-06T07:28:40Z</time>
      </trkpt>
      <trkpt lat="43.040410" lon="11.600360">
        <ele>505</ele>
        <time>2019-09-06T07:28:45Z</time>
      </trkpt>
      <trkpt lat="43.039860" lon="11.601090">
        <ele>510</ele>
        <time>2019-09-06T07:28:58Z</time>
      </trkpt>
      <trkpt lat="43.039780" lon="11.601260">
        <ele>510</ele>
        <time>2019-09-06T07:29:01Z</time>
      </trkpt>
      <trkpt lat="43.039640" lon="11.601770">
        <ele>510</ele>
        <time>2019-09-06T07:29:08Z</time>
      </trkpt>
      <trkpt lat="43.039530" lon="11.602380">
        <ele>512</ele>
        <time>2019-09-06T07:29:16Z</time>
      </trkpt>
      <trkpt lat="43.039360" lon="11.602880">
        <ele>515</ele>
        <time>2019-09-06T07:29:23Z</time>
      </trkpt>
      <trkpt lat="43.039140" lon="11.603260">
        <ele>519</ele>
        <time>2019-09-06T07:29:30Z</time>
      </trkpt>
      <trkpt lat="43.038670" lon="11.603940">
        <ele>517</ele>
        <time>2019-09-06T07:29:42Z</time>
      </trkpt>
      <trkpt lat="43.038610" lon="11.604090">
        <ele>517</ele>
        <time>2019-09-06T07:29:44Z</time>
      </trkpt>
      <trkpt lat="43.038490" lon="11.604700">
        <ele>517</ele>
        <time>2019-09-06T07:29:52Z</time>
      </trkpt>
      <trkpt lat="43.038400" lon="11.605550">
        <ele>517</ele>
        <time>2019-09-06T07:30:03Z</time>
      </trkpt>
      <trkpt lat="43.038350" lon="11.605820">
        <ele>517</ele>
        <time>2019-09-06T07:30:07Z</time>
      </trkpt>
      <trkpt lat="43.038250" lon="11.605990">
        <ele>514</ele>
        <time>2019-09-06T07:30:10Z</time>
      </trkpt>
      <trkpt lat="43.038120" lon="11.606070">
        <ele>512</ele>
        <time>2019-09-06T07:30:12Z</time>
      </trkpt>
      <trkpt lat="43.036940" lon="11.606240">
        <ele>494</ele>
        <time>2019-09-06T07:30:34Z</time>
      </trkpt>
      <trkpt lat="43.036790" lon="11.606340">
        <ele>492</ele>
        <time>2019-09-06T07:30:37Z</time>
      </trkpt>
      <trkpt lat="43.036670" lon="11.606530">
        <ele>491</ele>
        <time>2019-09-06T07:30:40Z</time>
      </trkpt>
      <trkpt lat="43.036530" lon="11.606930">
        <ele>488</ele>
        <time>2019-09-06T07:30:46Z</time>
      </trkpt>
      <trkpt lat="43.036500" lon="11.607360">
        <ele>486</ele>
        <time>2019-09-06T07:30:51Z</time>
      </trkpt>
      <trkpt lat="43.036070" lon="11.607640">
        <ele>478</ele>
        <time>2019-09-06T07:31:00Z</time>
      </trkpt>
      <trkpt lat="43.036000" lon="11.607810">
        <ele>477</ele>
        <time>2019-09-06T07:31:02Z</time>
      </trkpt>
      <trkpt lat="43.035950" lon="11.608380">
        <ele>479</ele>
        <time>2019-09-06T07:31:10Z</time>
      </trkpt>
      <trkpt lat="43.035920" lon="11.608500">
        <ele>478</ele>
        <time>2019-09-06T07:31:11Z</time>
      </trkpt>
      <trkpt lat="43.035880" lon="11.608580">
        <ele>477</ele>
        <time>2019-09-06T07:31:13Z</time>
      </trkpt>
      <trkpt lat="43.035720" lon="11.608760">
        <ele>473</ele>
        <time>2019-09-06T07:31:16Z</time>
      </trkpt>
      <trkpt lat="43.035700" lon="11.608980">
        <ele>472</ele>
        <time>2019-09-06T07:31:19Z</time>
      </trkpt>
      <trkpt lat="43.035770" lon="11.609360">
        <ele>470</ele>
        <time>2019-09-06T07:31:24Z</time>
      </trkpt>
      <trkpt lat="43.035720" lon="11.609570">
        <ele>465</ele>
        <time>2019-09-06T07:31:27Z</time>
      </trkpt>
      <trkpt lat="43.035650" lon="11.609630">
        <ele>463</ele>
        <time>2019-09-06T07:31:29Z</time>
      </trkpt>
      <trkpt lat="43.035480" lon="11.609690">
        <ele>459</ele>
        <time>2019-09-06T07:31:32Z</time>
      </trkpt>
      <trkpt lat="43.035220" lon="11.609640">
        <ele>456</ele>
        <time>2019-09-06T07:31:36Z</time>
      </trkpt>
      <trkpt lat="43.035000" lon="11.609650">
        <ele>452</ele>
        <time>2019-09-06T07:31:40Z</time>
      </trkpt>
      <trkpt lat="43.034570" lon="11.610020">
        <ele>449</ele>
        <time>2019-09-06T07:31:49Z</time>
      </trkpt>
      <trkpt lat="43.034230" lon="11.610440">
        <ele>446</ele>
        <time>2019-09-06T07:31:57Z</time>
      </trkpt>
      <trkpt lat="43.034130" lon="11.610520">
        <ele>445</ele>
        <time>2019-09-06T07:32:00Z</time>
      </trkpt>
      <trkpt lat="43.034080" lon="11.610640">
        <ele>444</ele>
        <time>2019-09-06T07:32:01Z</time>
      </trkpt>
      <trkpt lat="43.034030" lon="11.610880">
        <ele>442</ele>
        <time>2019-09-06T07:32:05Z</time>
      </trkpt>
      <trkpt lat="43.033910" lon="11.611800">
        <ele>434</ele>
        <time>2019-09-06T07:32:17Z</time>
      </trkpt>
      <trkpt lat="43.033850" lon="11.612070">
        <ele>431</ele>
        <time>2019-09-06T07:32:20Z</time>
      </trkpt>
      <trkpt lat="43.033810" lon="11.614100">
        <ele>411</ele>
        <time>2019-09-06T07:32:47Z</time>
      </trkpt>
      <trkpt lat="43.033730" lon="11.614500">
        <ele>408</ele>
        <time>2019-09-06T07:32:52Z</time>
      </trkpt>
      <trkpt lat="43.032960" lon="11.615860">
        <ele>390</ele>
        <time>2019-09-06T07:33:15Z</time>
      </trkpt>
      <trkpt lat="43.032560" lon="11.617180">
        <ele>375</ele>
        <time>2019-09-06T07:33:33Z</time>
      </trkpt>
      <trkpt lat="43.032210" lon="11.617900">
        <ele>366</ele>
        <time>2019-09-06T07:33:44Z</time>
      </trkpt>
      <trkpt lat="43.031960" lon="11.618200">
        <ele>362</ele>
        <time>2019-09-06T07:33:50Z</time>
      </trkpt>
      <trkpt lat="43.031900" lon="11.618380">
        <ele>361</ele>
        <time>2019-09-06T07:33:53Z</time>
      </trkpt>
      <trkpt lat="43.031900" lon="11.618680">
        <ele>360</ele>
        <time>2019-09-06T07:33:57Z</time>
      </trkpt>
      <trkpt lat="43.031850" lon="11.618900">
        <ele>359</ele>
        <time>2019-09-06T07:34:00Z</time>
      </trkpt>
      <trkpt lat="43.031790" lon="11.619000">
        <ele>359</ele>
        <time>2019-09-06T07:34:01Z</time>
      </trkpt>
      <trkpt lat="43.031680" lon="11.619070">
        <ele>359</ele>
        <time>2019-09-06T07:34:04Z</time>
      </trkpt>
      <trkpt lat="43.031550" lon="11.619090">
        <ele>357</ele>
        <time>2019-09-06T07:34:06Z</time>
      </trkpt>
      <trkpt lat="43.031440" lon="11.619050">
        <ele>355</ele>
        <time>2019-09-06T07:34:08Z</time>
      </trkpt>
      <trkpt lat="43.031360" lon="11.618930">
        <ele>354</ele>
        <time>2019-09-06T07:34:10Z</time>
      </trkpt>
      <trkpt lat="43.031310" lon="11.618730">
        <ele>353</ele>
        <time>2019-09-06T07:34:13Z</time>
      </trkpt>
      <trkpt lat="43.031250" lon="11.618660">
        <ele>351</ele>
        <time>2019-09-06T07:34:14Z</time>
      </trkpt>
      <trkpt lat="43.031170" lon="11.618650">
        <ele>350</ele>
        <time>2019-09-06T07:34:16Z</time>
      </trkpt>
      <trkpt lat="43.030660" lon="11.618790">
        <ele>340</ele>
        <time>2019-09-06T07:34:25Z</time>
      </trkpt>
      <trkpt lat="43.030540" lon="11.618920">
        <ele>338</ele>
        <time>2019-09-06T07:34:28Z</time>
      </trkpt>
      <trkpt lat="43.030440" lon="11.619100">
        <ele>337</ele>
        <time>2019-09-06T07:34:31Z</time>
      </trkpt>
      <trkpt lat="43.030400" lon="11.619310">
        <ele>336</ele>
        <time>2019-09-06T07:34:33Z</time>
      </trkpt>
      <trkpt lat="43.030420" lon="11.619560">
        <ele>334</ele>
        <time>2019-09-06T07:34:37Z</time>
      </trkpt>
      <trkpt lat="43.030610" lon="11.620230">
        <ele>332</ele>
        <time>2019-09-06T07:34:46Z</time>
      </trkpt>
      <trkpt lat="43.030600" lon="11.620410">
        <ele>330</ele>
        <time>2019-09-06T07:34:48Z</time>
      </trkpt>
      <trkpt lat="43.030550" lon="11.620600">
        <ele>327</ele>
        <time>2019-09-06T07:34:51Z</time>
      </trkpt>
      <trkpt lat="43.030480" lon="11.620700">
        <ele>325</ele>
        <time>2019-09-06T07:34:53Z</time>
      </trkpt>
      <trkpt lat="43.030400" lon="11.620760">
        <ele>323</ele>
        <time>2019-09-06T07:34:54Z</time>
      </trkpt>
      <trkpt lat="43.030330" lon="11.620730">
        <ele>322</ele>
        <time>2019-09-06T07:34:56Z</time>
      </trkpt>
      <trkpt lat="43.030230" lon="11.620630">
        <ele>322</ele>
        <time>2019-09-06T07:34:58Z</time>
      </trkpt>
      <trkpt lat="43.030120" lon="11.620590">
        <ele>320</ele>
        <time>2019-09-06T07:35:00Z</time>
      </trkpt>
      <trkpt lat="43.029400" lon="11.620670">
        <ele>309</ele>
        <time>2019-09-06T07:35:13Z</time>
      </trkpt>
      <trkpt lat="43.028880" lon="11.620540">
        <ele>304</ele>
        <time>2019-09-06T07:35:22Z</time>
      </trkpt>
      <trkpt lat="43.028780" lon="11.620510">
        <ele>303</ele>
        <time>2019-09-06T07:35:24Z</time>
      </trkpt>
      <trkpt lat="43.028700" lon="11.620340">
        <ele>303</ele>
        <time>2019-09-06T07:35:27Z</time>
      </trkpt>
      <trkpt lat="43.028560" lon="11.620200">
        <ele>302</ele>
        <time>2019-09-06T07:35:30Z</time>
      </trkpt>
      <trkpt lat="43.028440" lon="11.620200">
        <ele>301</ele>
        <time>2019-09-06T07:35:32Z</time>
      </trkpt>
      <trkpt lat="43.028310" lon="11.621280">
        <ele>291</ele>
        <time>2019-09-06T07:35:46Z</time>
      </trkpt>
      <trkpt lat="43.028130" lon="11.622400">
        <ele>280</ele>
        <time>2019-09-06T07:36:01Z</time>
      </trkpt>
      <trkpt lat="43.028020" lon="11.622840">
        <ele>275</ele>
        <time>2019-09-06T07:36:07Z</time>
      </trkpt>
      <trkpt lat="43.027960" lon="11.622750">
        <ele>274</ele>
        <time>2019-09-06T07:36:09Z</time>
      </trkpt>
      <trkpt lat="43.027790" lon="11.622100">
        <ele>274</ele>
        <time>2019-09-06T07:36:18Z</time>
      </trkpt>
      <trkpt lat="43.027710" lon="11.621630">
        <ele>275</ele>
        <time>2019-09-06T07:36:24Z</time>
      </trkpt>
      <trkpt lat="43.027700" lon="11.621240">
        <ele>278</ele>
        <time>2019-09-06T07:36:29Z</time>
      </trkpt>
      <trkpt lat="43.027640" lon="11.621120">
        <ele>278</ele>
        <time>2019-09-06T07:36:31Z</time>
      </trkpt>
      <trkpt lat="43.027230" lon="11.620610">
        <ele>276</ele>
        <time>2019-09-06T07:36:41Z</time>
      </trkpt>
      <trkpt lat="43.027070" lon="11.620480">
        <ele>275</ele>
        <time>2019-09-06T07:36:44Z</time>
      </trkpt>
      <trkpt lat="43.026850" lon="11.620370">
        <ele>273</ele>
        <time>2019-09-06T07:36:48Z</time>
      </trkpt>
      <trkpt lat="43.027070" lon="11.620480">
        <ele>275</ele>
        <time>2019-09-06T07:36:52Z</time>
      </trkpt>
      <trkpt lat="43.027230" lon="11.620610">
        <ele>276</ele>
        <time>2019-09-06T07:36:56Z</time>
      </trkpt>
      <trkpt lat="43.027640" lon="11.621120">
        <ele>278</ele>
        <time>2019-09-06T07:37:06Z</time>
      </trkpt>
      <trkpt lat="43.027700" lon="11.621240">
        <ele>278</ele>
        <time>2019-09-06T07:37:07Z</time>
      </trkpt>
      <trkpt lat="43.027710" lon="11.621630">
        <ele>275</ele>
        <time>2019-09-06T07:37:13Z</time>
      </trkpt>
      <trkpt lat="43.027790" lon="11.622100">
        <ele>274</ele>
        <time>2019-09-06T07:37:19Z</time>
      </trkpt>
      <trkpt lat="43.027960" lon="11.622750">
        <ele>274</ele>
        <time>2019-09-06T07:37:28Z</time>
      </trkpt>
      <trkpt lat="43.028020" lon="11.622840">
        <ele>275</ele>
        <time>2019-09-06T07:37:29Z</time>
      </trkpt>
      <trkpt lat="43.027920" lon="11.623300">
        <ele>269</ele>
        <time>2019-09-06T07:37:36Z</time>
      </trkpt>
      <trkpt lat="43.027910" lon="11.623720">
        <ele>267</ele>
        <time>2019-09-06T07:37:41Z</time>
      </trkpt>
      <trkpt lat="43.027990" lon="11.624340">
        <ele>267</ele>
        <time>2019-09-06T07:37:49Z</time>
      </trkpt>
      <trkpt lat="43.028250" lon="11.624930">
        <ele>268</ele>
        <time>2019-09-06T07:37:58Z</time>
      </trkpt>
      <trkpt lat="43.028340" lon="11.625280">
        <ele>266</ele>
        <time>2019-09-06T07:38:03Z</time>
      </trkpt>
      <trkpt lat="43.028480" lon="11.625320">
        <ele>267</ele>
        <time>2019-09-06T07:38:06Z</time>
      </trkpt>
      <trkpt lat="43.028690" lon="11.625620">
        <ele>266</ele>
        <time>2019-09-06T07:38:11Z</time>
      </trkpt>
      <trkpt lat="43.028850" lon="11.625790">
        <ele>265</ele>
        <time>2019-09-06T07:38:15Z</time>
      </trkpt>
      <trkpt lat="43.029040" lon="11.625910">
        <ele>265</ele>
        <time>2019-09-06T07:38:18Z</time>
      </trkpt>
      <trkpt lat="43.029240" lon="11.625950">
        <ele>266</ele>
        <time>2019-09-06T07:38:22Z</time>
      </trkpt>
      <trkpt lat="43.029580" lon="11.626110">
        <ele>265</ele>
        <time>2019-09-06T07:38:28Z</time>
      </trkpt>
      <trkpt lat="43.029970" lon="11.626360">
        <ele>264</ele>
        <time>2019-09-06T07:38:36Z</time>
      </trkpt>
      <trkpt lat="43.030260" lon="11.626470">
        <ele>264</ele>
        <time>2019-09-06T07:38:41Z</time>
      </trkpt>
      <trkpt lat="43.030560" lon="11.626530">
        <ele>264</ele>
        <time>2019-09-06T07:38:47Z</time>
      </trkpt>
      <trkpt lat="43.031730" lon="11.626880">
        <ele>261</ele>
        <time>2019-09-06T07:39:08Z</time>
      </trkpt>
      <trkpt lat="43.033350" lon="11.627420">
        <ele>262</ele>
        <time>2019-09-06T07:39:38Z</time>
      </trkpt>
      <trkpt lat="43.033410" lon="11.627580">
        <ele>261</ele>
        <time>2019-09-06T07:39:40Z</time>
      </trkpt>
      <trkpt lat="43.033440" lon="11.627770">
        <ele>261</ele>
        <time>2019-09-06T07:39:43Z</time>
      </trkpt>
      <trkpt lat="43.033350" lon="11.629150">
        <ele>260</ele>
        <time>2019-09-06T07:40:01Z</time>
      </trkpt>
      <trkpt lat="43.033320" lon="11.629940">
        <ele>258</ele>
        <time>2019-09-06T07:40:11Z</time>
      </trkpt>
      <trkpt lat="43.033330" lon="11.630370">
        <ele>258</ele>
        <time>2019-09-06T07:40:17Z</time>
      </trkpt>
      <trkpt lat="43.033600" lon="11.633440">
        <ele>260</ele>
        <time>2019-09-06T07:40:57Z</time>
      </trkpt>
      <trkpt lat="43.033600" lon="11.633810">
        <ele>260</ele>
        <time>2019-09-06T07:41:02Z</time>
      </trkpt>
      <trkpt lat="43.033420" lon="11.635890">
        <ele>261</ele>
        <time>2019-09-06T07:41:29Z</time>
      </trkpt>
      <trkpt lat="43.033530" lon="11.637830">
        <ele>263</ele>
        <time>2019-09-06T07:41:54Z</time>
      </trkpt>
      <trkpt lat="43.033590" lon="11.638450">
        <ele>263</ele>
        <time>2019-09-06T07:42:02Z</time>
      </trkpt>
      <trkpt lat="43.034110" lon="11.641300">
        <ele>262</ele>
        <time>2019-09-06T07:42:40Z</time>
      </trkpt>
      <trkpt lat="43.034800" lon="11.644890">
        <ele>263</ele>
        <time>2019-09-06T07:43:29Z</time>
      </trkpt>
      <trkpt lat="43.034820" lon="11.645110">
        <ele>263</ele>
        <time>2019-09-06T07:43:32Z</time>
      </trkpt>
      <trkpt lat="43.035510" lon="11.645910">
        <ele>265</ele>
        <time>2019-09-06T07:43:48Z</time>
      </trkpt>
      <trkpt lat="43.035920" lon="11.646340">
        <ele>265</ele>
        <time>2019-09-06T07:43:57Z</time>
      </trkpt>
      <trkpt lat="43.036170" lon="11.646510">
        <ele>265</ele>
        <time>2019-09-06T07:44:02Z</time>
      </trkpt>
      <trkpt lat="43.037050" lon="11.646960">
        <ele>267</ele>
        <time>2019-09-06T07:44:19Z</time>
      </trkpt>
      <trkpt lat="43.037570" lon="11.647340">
        <ele>267</ele>
        <time>2019-09-06T07:44:29Z</time>
      </trkpt>
      <trkpt lat="43.038400" lon="11.648020">
        <ele>269</ele>
        <time>2019-09-06T07:44:46Z</time>
      </trkpt>
      <trkpt lat="43.038660" lon="11.648190">
        <ele>269</ele>
        <time>2019-09-06T07:44:51Z</time>
      </trkpt>
      <trkpt lat="43.039450" lon="11.648400">
        <ele>270</ele>
        <time>2019-09-06T07:45:06Z</time>
      </trkpt>
      <trkpt lat="43.039660" lon="11.648390">
        <ele>271</ele>
        <time>2019-09-06T07:45:09Z</time>
      </trkpt>
      <trkpt lat="43.041300" lon="11.647950">
        <ele>278</ele>
        <time>2019-09-06T07:45:39Z</time>
      </trkpt>
      <trkpt lat="43.041480" lon="11.647960">
        <ele>278</ele>
        <time>2019-09-06T07:45:42Z</time>
      </trkpt>
      <trkpt lat="43.041670" lon="11.648040">
        <ele>279</ele>
        <time>2019-09-06T07:45:46Z</time>
      </trkpt>
      <trkpt lat="43.042280" lon="11.648380">
        <ele>282</ele>
        <time>2019-09-06T07:45:58Z</time>
      </trkpt>
      <trkpt lat="43.042910" lon="11.648760">
        <ele>284</ele>
        <time>2019-09-06T07:46:10Z</time>
      </trkpt>
      <trkpt lat="43.043060" lon="11.648920">
        <ele>285</ele>
        <time>2019-09-06T07:46:13Z</time>
      </trkpt>
      <trkpt lat="43.043200" lon="11.649190">
        <ele>286</ele>
        <time>2019-09-06T07:46:18Z</time>
      </trkpt>
      <trkpt lat="43.044320" lon="11.651600">
        <ele>293</ele>
        <time>2019-09-06T07:46:55Z</time>
      </trkpt>
      <trkpt lat="43.044800" lon="11.651980">
        <ele>292</ele>
        <time>2019-09-06T07:47:05Z</time>
      </trkpt>
      <trkpt lat="43.044970" lon="11.652160">
        <ele>292</ele>
        <time>2019-09-06T07:47:08Z</time>
      </trkpt>
      <trkpt lat="43.045530" lon="11.653200">
        <ele>285</ele>
        <time>2019-09-06T07:47:25Z</time>
      </trkpt>
      <trkpt lat="43.046180" lon="11.654510">
        <ele>282</ele>
        <time>2019-09-06T07:47:46Z</time>
      </trkpt>
      <trkpt lat="43.046290" lon="11.654650">
        <ele>282</ele>
        <time>2019-09-06T07:47:48Z</time>
      </trkpt>
      <trkpt lat="43.046490" lon="11.654730">
        <ele>282</ele>
        <time>2019-09-06T07:47:52Z</time>
      </trkpt>
      <trkpt lat="43.047620" lon="11.654630">
        <ele>283</ele>
        <time>2019-09-06T07:48:12Z</time>
      </trkpt>
      <trkpt lat="43.047750" lon="11.654650">
        <ele>284</ele>
        <time>2019-09-06T07:48:15Z</time>
      </trkpt>
      <trkpt lat="43.047870" lon="11.654710">
        <ele>284</ele>
        <time>2019-09-06T07:48:17Z</time>
      </trkpt>
      <trkpt lat="43.049970" lon="11.656840">
        <ele>283</ele>
        <time>2019-09-06T07:49:03Z</time>
      </trkpt>
      <trkpt lat="43.050170" lon="11.656990">
        <ele>284</ele>
        <time>2019-09-06T07:49:08Z</time>
      </trkpt>
      <trkpt lat="43.050350" lon="11.657000">
        <ele>284</ele>
        <time>2019-09-06T07:49:11Z</time>
      </trkpt>
      <trkpt lat="43.051170" lon="11.656850">
        <ele>285</ele>
        <time>2019-09-06T07:49:25Z</time>
      </trkpt>
      <trkpt lat="43.051600" lon="11.656920">
        <ele>286</ele>
        <time>2019-09-06T07:49:33Z</time>
      </trkpt>
      <trkpt lat="43.052020" lon="11.657120">
        <ele>287</ele>
        <time>2019-09-06T07:49:41Z</time>
      </trkpt>
      <trkpt lat="43.052800" lon="11.657720">
        <ele>289</ele>
        <time>2019-09-06T07:49:57Z</time>
      </trkpt>
      <trkpt lat="43.053140" lon="11.658150">
        <ele>291</ele>
        <time>2019-09-06T07:50:05Z</time>
      </trkpt>
      <trkpt lat="43.054270" lon="11.660500">
        <ele>292</ele>
        <time>2019-09-06T07:50:42Z</time>
      </trkpt>
      <trkpt lat="43.054430" lon="11.660720">
        <ele>292</ele>
        <time>2019-09-06T07:50:46Z</time>
      </trkpt>
      <trkpt lat="43.054610" lon="11.660910">
        <ele>291</ele>
        <time>2019-09-06T07:50:50Z</time>
      </trkpt>
      <trkpt lat="43.055030" lon="11.661180">
        <ele>288</ele>
        <time>2019-09-06T07:50:58Z</time>
      </trkpt>
      <trkpt lat="43.055390" lon="11.661360">
        <ele>289</ele>
        <time>2019-09-06T07:51:05Z</time>
      </trkpt>
      <trkpt lat="43.056660" lon="11.661630">
        <ele>287</ele>
        <time>2019-09-06T07:51:28Z</time>
      </trkpt>
      <trkpt lat="43.056760" lon="11.661670">
        <ele>287</ele>
        <time>2019-09-06T07:51:30Z</time>
      </trkpt>
      <trkpt lat="43.056930" lon="11.661800">
        <ele>287</ele>
        <time>2019-09-06T07:51:33Z</time>
      </trkpt>
      <trkpt lat="43.059220" lon="11.664830">
        <ele>295</ele>
        <time>2019-09-06T07:52:30Z</time>
      </trkpt>
      <trkpt lat="43.060280" lon="11.666340">
        <ele>298</ele>
        <time>2019-09-06T07:52:57Z</time>
      </trkpt>
      <trkpt lat="43.060380" lon="11.666580">
        <ele>298</ele>
        <time>2019-09-06T07:53:01Z</time>
      </trkpt>
      <trkpt lat="43.060960" lon="11.668960">
        <ele>293</ele>
        <time>2019-09-06T07:53:33Z</time>
      </trkpt>
      <trkpt lat="43.061030" lon="11.669160">
        <ele>293</ele>
        <time>2019-09-06T07:53:36Z</time>
      </trkpt>
      <trkpt lat="43.061130" lon="11.669290">
        <ele>293</ele>
        <time>2019-09-06T07:53:39Z</time>
      </trkpt>
      <trkpt lat="43.061830" lon="11.669930">
        <ele>294</ele>
        <time>2019-09-06T07:53:54Z</time>
      </trkpt>
      <trkpt lat="43.063010" lon="11.670760">
        <ele>298</ele>
        <time>2019-09-06T07:54:17Z</time>
      </trkpt>
      <trkpt lat="43.065080" lon="11.672150">
        <ele>308</ele>
        <time>2019-09-06T07:54:58Z</time>
      </trkpt>
      <trkpt lat="43.065210" lon="11.672190">
        <ele>310</ele>
        <time>2019-09-06T07:55:01Z</time>
      </trkpt>
      <trkpt lat="43.065330" lon="11.672190">
        <ele>311</ele>
        <time>2019-09-06T07:55:03Z</time>
      </trkpt>
      <trkpt lat="43.065430" lon="11.672110">
        <ele>311</ele>
        <time>2019-09-06T07:55:05Z</time>
      </trkpt>
      <trkpt lat="43.065560" lon="11.671910">
        <ele>311</ele>
        <time>2019-09-06T07:55:08Z</time>
      </trkpt>
      <trkpt lat="43.065660" lon="11.671850">
        <ele>311</ele>
        <time>2019-09-06T07:55:10Z</time>
      </trkpt>
      <trkpt lat="43.065780" lon="11.671860">
        <ele>312</ele>
        <time>2019-09-06T07:55:12Z</time>
      </trkpt>
      <trkpt lat="43.066120" lon="11.672030">
        <ele>315</ele>
        <time>2019-09-06T07:55:19Z</time>
      </trkpt>
      <trkpt lat="43.066210" lon="11.672120">
        <ele>316</ele>
        <time>2019-09-06T07:55:21Z</time>
      </trkpt>
      <trkpt lat="43.066370" lon="11.672500">
        <ele>320</ele>
        <time>2019-09-06T07:55:26Z</time>
      </trkpt>
      <trkpt lat="43.066560" lon="11.672610">
        <ele>323</ele>
        <time>2019-09-06T07:55:30Z</time>
      </trkpt>
      <trkpt lat="43.066670" lon="11.672720">
        <ele>325</ele>
        <time>2019-09-06T07:55:33Z</time>
      </trkpt>
      <trkpt lat="43.066700" lon="11.672850">
        <ele>327</ele>
        <time>2019-09-06T07:55:34Z</time>
      </trkpt>
      <trkpt lat="43.066690" lon="11.672950">
        <ele>328</ele>
        <time>2019-09-06T07:55:36Z</time>
      </trkpt>
      <trkpt lat="43.066650" lon="11.673100">
        <ele>330</ele>
        <time>2019-09-06T07:55:38Z</time>
      </trkpt>
      <trkpt lat="43.066500" lon="11.673370">
        <ele>331</ele>
        <time>2019-09-06T07:55:42Z</time>
      </trkpt>
      <trkpt lat="43.066470" lon="11.673530">
        <ele>331</ele>
        <time>2019-09-06T07:55:44Z</time>
      </trkpt>
      <trkpt lat="43.066500" lon="11.673700">
        <ele>332</ele>
        <time>2019-09-06T07:55:47Z</time>
      </trkpt>
      <trkpt lat="43.066620" lon="11.673940">
        <ele>335</ele>
        <time>2019-09-06T07:55:50Z</time>
      </trkpt>
      <trkpt lat="43.066730" lon="11.674420">
        <ele>336</ele>
        <time>2019-09-06T07:55:57Z</time>
      </trkpt>
      <trkpt lat="43.066820" lon="11.674670">
        <ele>336</ele>
        <time>2019-09-06T07:56:00Z</time>
      </trkpt>
      <trkpt lat="43.066950" lon="11.674780">
        <ele>337</ele>
        <time>2019-09-06T07:56:03Z</time>
      </trkpt>
      <trkpt lat="43.067650" lon="11.675110">
        <ele>343</ele>
        <time>2019-09-06T07:56:16Z</time>
      </trkpt>
      <trkpt lat="43.067840" lon="11.675240">
        <ele>343</ele>
        <time>2019-09-06T07:56:20Z</time>
      </trkpt>
      <trkpt lat="43.068040" lon="11.675470">
        <ele>344</ele>
        <time>2019-09-06T07:56:25Z</time>
      </trkpt>
      <trkpt lat="43.069040" lon="11.676830">
        <ele>352</ele>
        <time>2019-09-06T07:56:50Z</time>
      </trkpt>
      <trkpt lat="43.069050" lon="11.676980">
        <ele>353</ele>
        <time>2019-09-06T07:56:52Z</time>
      </trkpt>
      <trkpt lat="43.069010" lon="11.677240">
        <ele>355</ele>
        <time>2019-09-06T07:56:55Z</time>
      </trkpt>
      <trkpt lat="43.068590" lon="11.678300">
        <ele>358</ele>
        <time>2019-09-06T07:57:11Z</time>
      </trkpt>
      <trkpt lat="43.068430" lon="11.678480">
        <ele>357</ele>
        <time>2019-09-06T07:57:15Z</time>
      </trkpt>
      <trkpt lat="43.068330" lon="11.678450">
        <ele>355</ele>
        <time>2019-09-06T07:57:16Z</time>
      </trkpt>
      <trkpt lat="43.067840" lon="11.678600">
        <ele>352</ele>
        <time>2019-09-06T07:57:25Z</time>
      </trkpt>
      <trkpt lat="43.067730" lon="11.678610">
        <ele>351</ele>
        <time>2019-09-06T07:57:27Z</time>
      </trkpt>
      <trkpt lat="43.067370" lon="11.678500">
        <ele>347</ele>
        <time>2019-09-06T07:57:34Z</time>
      </trkpt>
      <trkpt lat="43.066970" lon="11.678310">
        <ele>344</ele>
        <time>2019-09-06T07:57:41Z</time>
      </trkpt>
      <trkpt lat="43.066580" lon="11.678020">
        <ele>338</ele>
        <time>2019-09-06T07:57:49Z</time>
      </trkpt>
      <trkpt lat="43.066350" lon="11.677910">
        <ele>335</ele>
        <time>2019-09-06T07:57:54Z</time>
      </trkpt>
      <trkpt lat="43.066190" lon="11.677910">
        <ele>334</ele>
        <time>2019-09-06T07:57:57Z</time>
      </trkpt>
      <trkpt lat="43.066050" lon="11.678000">
        <ele>333</ele>
        <time>2019-09-06T07:57:59Z</time>
      </trkpt>
      <trkpt lat="43.065950" lon="11.678110">
        <ele>333</ele>
        <time>2019-09-06T07:58:02Z</time>
      </trkpt>
      <trkpt lat="43.065860" lon="11.678290">
        <ele>334</ele>
        <time>2019-09-06T07:58:04Z</time>
      </trkpt>
      <trkpt lat="43.065760" lon="11.678580">
        <ele>332</ele>
        <time>2019-09-06T07:58:09Z</time>
      </trkpt>
      <trkpt lat="43.065710" lon="11.678950">
        <ele>331</ele>
        <time>2019-09-06T07:58:13Z</time>
      </trkpt>
      <trkpt lat="43.065730" lon="11.679120">
        <ele>331</ele>
        <time>2019-09-06T07:58:16Z</time>
      </trkpt>
      <trkpt lat="43.065970" lon="11.679730">
        <ele>331</ele>
        <time>2019-09-06T07:58:25Z</time>
      </trkpt>
      <trkpt lat="43.066040" lon="11.679980">
        <ele>331</ele>
        <time>2019-09-06T07:58:28Z</time>
      </trkpt>
      <trkpt lat="43.066150" lon="11.680700">
        <ele>327</ele>
        <time>2019-09-06T07:58:38Z</time>
      </trkpt>
      <trkpt lat="43.066100" lon="11.680920">
        <ele>326</ele>
        <time>2019-09-06T07:58:41Z</time>
      </trkpt>
      <trkpt lat="43.066050" lon="11.680990">
        <ele>325</ele>
        <time>2019-09-06T07:58:42Z</time>
      </trkpt>
      <trkpt lat="43.065950" lon="11.681050">
        <ele>324</ele>
        <time>2019-09-06T07:58:44Z</time>
      </trkpt>
      <trkpt lat="43.065770" lon="11.681110">
        <ele>323</ele>
        <time>2019-09-06T07:58:47Z</time>
      </trkpt>
      <trkpt lat="43.064770" lon="11.681250">
        <ele>320</ele>
        <time>2019-09-06T07:59:05Z</time>
      </trkpt>
      <trkpt lat="43.064790" lon="11.681410">
        <ele>320</ele>
        <time>2019-09-06T07:59:07Z</time>
      </trkpt>
      <trkpt lat="43.065610" lon="11.683760">
        <ele>327</ele>
        <time>2019-09-06T07:59:41Z</time>
      </trkpt>
      <trkpt lat="43.065860" lon="11.684830">
        <ele>336</ele>
        <time>2019-09-06T07:59:56Z</time>
      </trkpt>
      <trkpt lat="43.065900" lon="11.684920">
        <ele>337</ele>
        <time>2019-09-06T07:59:57Z</time>
      </trkpt>
      <trkpt lat="43.065970" lon="11.685000">
        <ele>338</ele>
        <time>2019-09-06T07:59:59Z</time>
      </trkpt>
      <trkpt lat="43.066150" lon="11.685100">
        <ele>341</ele>
        <time>2019-09-06T08:00:02Z</time>
      </trkpt>
      <trkpt lat="43.066230" lon="11.685220">
        <ele>343</ele>
        <time>2019-09-06T08:00:04Z</time>
      </trkpt>
      <trkpt lat="43.066240" lon="11.685330">
        <ele>344</ele>
        <time>2019-09-06T08:00:06Z</time>
      </trkpt>
      <trkpt lat="43.066180" lon="11.685580">
        <ele>346</ele>
        <time>2019-09-06T08:00:09Z</time>
      </trkpt>
      <trkpt lat="43.065980" lon="11.685940">
        <ele>348</ele>
        <time>2019-09-06T08:00:15Z</time>
      </trkpt>
      <trkpt lat="43.065900" lon="11.686210">
        <ele>349</ele>
        <time>2019-09-06T08:00:19Z</time>
      </trkpt>
      <trkpt lat="43.065670" lon="11.687690">
        <ele>357</ele>
        <time>2019-09-06T08:00:38Z</time>
      </trkpt>
      <trkpt lat="43.065600" lon="11.687860">
        <ele>357</ele>
        <time>2019-09-06T08:00:41Z</time>
      </trkpt>
      <trkpt lat="43.065370" lon="11.688160">
        <ele>356</ele>
        <time>2019-09-06T08:00:47Z</time>
      </trkpt>
      <trkpt lat="43.065320" lon="11.688280">
        <ele>356</ele>
        <time>2019-09-06T08:00:48Z</time>
      </trkpt>
      <trkpt lat="43.065270" lon="11.688530">
        <ele>357</ele>
        <time>2019-09-06T08:00:52Z</time>
      </trkpt>
      <trkpt lat="43.065180" lon="11.689490">
        <ele>361</ele>
        <time>2019-09-06T08:01:04Z</time>
      </trkpt>
      <trkpt lat="43.065180" lon="11.689710">
        <ele>362</ele>
        <time>2019-09-06T08:01:07Z</time>
      </trkpt>
      <trkpt lat="43.065220" lon="11.689930">
        <ele>364</ele>
        <time>2019-09-06T08:01:10Z</time>
      </trkpt>
      <trkpt lat="43.065450" lon="11.690610">
        <ele>369</ele>
        <time>2019-09-06T08:01:20Z</time>
      </trkpt>
      <trkpt lat="43.065470" lon="11.690910">
        <ele>369</ele>
        <time>2019-09-06T08:01:24Z</time>
      </trkpt>
      <trkpt lat="43.065080" lon="11.693880">
        <ele>356</ele>
        <time>2019-09-06T08:02:03Z</time>
      </trkpt>
      <trkpt lat="43.065110" lon="11.694200">
        <ele>355</ele>
        <time>2019-09-06T08:02:07Z</time>
      </trkpt>
      <trkpt lat="43.065640" lon="11.697570">
        <ele>348</ele>
        <time>2019-09-06T08:02:52Z</time>
      </trkpt>
      <trkpt lat="43.065710" lon="11.697760">
        <ele>348</ele>
        <time>2019-09-06T08:02:55Z</time>
      </trkpt>
      <trkpt lat="43.065840" lon="11.697890">
        <ele>349</ele>
        <time>2019-09-06T08:02:58Z</time>
      </trkpt>
      <trkpt lat="43.067590" lon="11.699310">
        <ele>357</ele>
        <time>2019-09-06T08:03:34Z</time>
      </trkpt>
      <trkpt lat="43.067860" lon="11.699790">
        <ele>356</ele>
        <time>2019-09-06T08:03:42Z</time>
      </trkpt>
      <trkpt lat="43.068240" lon="11.700710">
        <ele>348</ele>
        <time>2019-09-06T08:03:56Z</time>
      </trkpt>
      <trkpt lat="43.068350" lon="11.701060">
        <ele>345</ele>
        <time>2019-09-06T08:04:00Z</time>
      </trkpt>
      <trkpt lat="43.068520" lon="11.701790">
        <ele>340</ele>
        <time>2019-09-06T08:04:10Z</time>
      </trkpt>
      <trkpt lat="43.068680" lon="11.702220">
        <ele>336</ele>
        <time>2019-09-06T08:04:17Z</time>
      </trkpt>
      <trkpt lat="43.069310" lon="11.703350">
        <ele>332</ele>
        <time>2019-09-06T08:04:35Z</time>
      </trkpt>
      <trkpt lat="43.069410" lon="11.703380">
        <ele>332</ele>
        <time>2019-09-06T08:04:37Z</time>
      </trkpt>
      <trkpt lat="43.069380" lon="11.703480">
        <ele>332</ele>
        <time>2019-09-06T08:04:38Z</time>
      </trkpt>
      <trkpt lat="43.069400" lon="11.703660">
        <ele>332</ele>
        <time>2019-09-06T08:04:41Z</time>
      </trkpt>
      <trkpt lat="43.069590" lon="11.704090">
        <ele>332</ele>
        <time>2019-09-06T08:04:47Z</time>
      </trkpt>
      <trkpt lat="43.070370" lon="11.705260">
        <ele>333</ele>
        <time>2019-09-06T08:05:08Z</time>
      </trkpt>
      <trkpt lat="43.070840" lon="11.706130">
        <ele>335</ele>
        <time>2019-09-06T08:05:22Z</time>
      </trkpt>
      <trkpt lat="43.071050" lon="11.706610">
        <ele>336</ele>
        <time>2019-09-06T08:05:29Z</time>
      </trkpt>
      <trkpt lat="43.071260" lon="11.707320">
        <ele>339</ele>
        <time>2019-09-06T08:05:39Z</time>
      </trkpt>
      <trkpt lat="43.071430" lon="11.708300">
        <ele>341</ele>
        <time>2019-09-06T08:05:52Z</time>
      </trkpt>
      <trkpt lat="43.072100" lon="11.710790">
        <ele>347</ele>
        <time>2019-09-06T08:06:27Z</time>
      </trkpt>
      <trkpt lat="43.072090" lon="11.710870">
        <ele>346</ele>
        <time>2019-09-06T08:06:28Z</time>
      </trkpt>
      <trkpt lat="43.071870" lon="11.711430">
        <ele>345</ele>
        <time>2019-09-06T08:06:36Z</time>
      </trkpt>
      <trkpt lat="43.071540" lon="11.712190">
        <ele>344</ele>
        <time>2019-09-06T08:06:48Z</time>
      </trkpt>
      <trkpt lat="43.071370" lon="11.712390">
        <ele>344</ele>
        <time>2019-09-06T08:06:52Z</time>
      </trkpt>
      <trkpt lat="43.071240" lon="11.712390">
        <ele>344</ele>
        <time>2019-09-06T08:06:54Z</time>
      </trkpt>
      <trkpt lat="43.070940" lon="11.712280">
        <ele>343</ele>
        <time>2019-09-06T08:06:59Z</time>
      </trkpt>
      <trkpt lat="43.070390" lon="11.712030">
        <ele>343</ele>
        <time>2019-09-06T08:07:10Z</time>
      </trkpt>
      <trkpt lat="43.070270" lon="11.712040">
        <ele>343</ele>
        <time>2019-09-06T08:07:12Z</time>
      </trkpt>
      <trkpt lat="43.070140" lon="11.712330">
        <ele>344</ele>
        <time>2019-09-06T08:07:16Z</time>
      </trkpt>
      <trkpt lat="43.070110" lon="11.712490">
        <ele>344</ele>
        <time>2019-09-06T08:07:18Z</time>
      </trkpt>
      <trkpt lat="43.070110" lon="11.712680">
        <ele>345</ele>
        <time>2019-09-06T08:07:21Z</time>
      </trkpt>
      <trkpt lat="43.070240" lon="11.714200">
        <ele>354</ele>
        <time>2019-09-06T08:07:41Z</time>
      </trkpt>
      <trkpt lat="43.070180" lon="11.714810">
        <ele>357</ele>
        <time>2019-09-06T08:07:49Z</time>
      </trkpt>
      <trkpt lat="43.070200" lon="11.714970">
        <ele>357</ele>
        <time>2019-09-06T08:07:51Z</time>
      </trkpt>
      <trkpt lat="43.070320" lon="11.715180">
        <ele>358</ele>
        <time>2019-09-06T08:07:54Z</time>
      </trkpt>
      <trkpt lat="43.070560" lon="11.715410">
        <ele>358</ele>
        <time>2019-09-06T08:08:00Z</time>
      </trkpt>
      <trkpt lat="43.070620" lon="11.715540">
        <ele>358</ele>
        <time>2019-09-06T08:08:02Z</time>
      </trkpt>
      <trkpt lat="43.070640" lon="11.715660">
        <ele>359</ele>
        <time>2019-09-06T08:08:03Z</time>
      </trkpt>
      <trkpt lat="43.070630" lon="11.715860">
        <ele>361</ele>
        <time>2019-09-06T08:08:06Z</time>
      </trkpt>
      <trkpt lat="43.070370" lon="11.716930">
        <ele>373</ele>
        <time>2019-09-06T08:08:20Z</time>
      </trkpt>
      <trkpt lat="43.070080" lon="11.717580">
        <ele>384</ele>
        <time>2019-09-06T08:08:30Z</time>
      </trkpt>
      <trkpt lat="43.069950" lon="11.718030">
        <ele>390</ele>
        <time>2019-09-06T08:08:37Z</time>
      </trkpt>
      <trkpt lat="43.069800" lon="11.718910">
        <ele>400</ele>
        <time>2019-09-06T08:08:48Z</time>
      </trkpt>
      <trkpt lat="43.069690" lon="11.719240">
        <ele>404</ele>
        <time>2019-09-06T08:08:53Z</time>
      </trkpt>
      <trkpt lat="43.069580" lon="11.719330">
        <ele>406</ele>
        <time>2019-09-06T08:08:55Z</time>
      </trkpt>
      <trkpt lat="43.069100" lon="11.719610">
        <ele>412</ele>
        <time>2019-09-06T08:09:05Z</time>
      </trkpt>
      <trkpt lat="43.068590" lon="11.719970">
        <ele>418</ele>
        <time>2019-09-06T08:09:15Z</time>
      </trkpt>
      <trkpt lat="43.068360" lon="11.720160">
        <ele>421</ele>
        <time>2019-09-06T08:09:20Z</time>
      </trkpt>
      <trkpt lat="43.068230" lon="11.720310">
        <ele>423</ele>
        <time>2019-09-06T08:09:23Z</time>
      </trkpt>
      <trkpt lat="43.067590" lon="11.721260">
        <ele>442</ele>
        <time>2019-09-06T08:09:39Z</time>
      </trkpt>
      <trkpt lat="43.067490" lon="11.721320">
        <ele>444</ele>
        <time>2019-09-06T08:09:41Z</time>
      </trkpt>
      <trkpt lat="43.066590" lon="11.721460">
        <ele>451</ele>
        <time>2019-09-06T08:09:58Z</time>
      </trkpt>
      <trkpt lat="43.066220" lon="11.721630">
        <ele>454</ele>
        <time>2019-09-06T08:10:04Z</time>
      </trkpt>
      <trkpt lat="43.064870" lon="11.722480">
        <ele>471</ele>
        <time>2019-09-06T08:10:31Z</time>
      </trkpt>
      <trkpt lat="43.064700" lon="11.722600">
        <ele>471</ele>
        <time>2019-09-06T08:10:34Z</time>
      </trkpt>
      <trkpt lat="43.064620" lon="11.722730">
        <ele>471</ele>
        <time>2019-09-06T08:10:37Z</time>
      </trkpt>
      <trkpt lat="43.066230" lon="11.723990">
        <ele>483</ele>
        <time>2019-09-06T08:11:10Z</time>
      </trkpt>
      <trkpt lat="43.066610" lon="11.724230">
        <ele>487</ele>
        <time>2019-09-06T08:11:17Z</time>
      </trkpt>
      <trkpt lat="43.066780" lon="11.724390">
        <ele>489</ele>
        <time>2019-09-06T08:11:21Z</time>
      </trkpt>
      <trkpt lat="43.066900" lon="11.724590">
        <ele>492</ele>
        <time>2019-09-06T08:11:24Z</time>
      </trkpt>
      <trkpt lat="43.067060" lon="11.725220">
        <ele>499</ele>
        <time>2019-09-06T08:11:33Z</time>
      </trkpt>
      <trkpt lat="43.066880" lon="11.725490">
        <ele>496</ele>
        <time>2019-09-06T08:11:37Z</time>
      </trkpt>
      <trkpt lat="43.067040" lon="11.725720">
        <ele>500</ele>
        <time>2019-09-06T08:11:42Z</time>
      </trkpt>
      <trkpt lat="43.067080" lon="11.725710">
        <ele>501</ele>
        <time>2019-09-06T08:11:42Z</time>
      </trkpt>
      <trkpt lat="43.067200" lon="11.725470">
        <ele>503</ele>
        <time>2019-09-06T08:11:46Z</time>
      </trkpt>
      <trkpt lat="43.067350" lon="11.725240">
        <ele>504</ele>
        <time>2019-09-06T08:11:50Z</time>
      </trkpt>
      <trkpt lat="43.067200" lon="11.725470">
        <ele>503</ele>
        <time>2019-09-06T08:11:54Z</time>
      </trkpt>
      <trkpt lat="43.067080" lon="11.725710">
        <ele>501</ele>
        <time>2019-09-06T08:11:58Z</time>
      </trkpt>
      <trkpt lat="43.067040" lon="11.725720">
        <ele>500</ele>
        <time>2019-09-06T08:11:59Z</time>
      </trkpt>
      <trkpt lat="43.066880" lon="11.725490">
        <ele>496</ele>
        <time>2019-09-06T08:12:03Z</time>
      </trkpt>
      <trkpt lat="43.066610" lon="11.725870">
        <ele>489</ele>
        <time>2019-09-06T08:12:10Z</time>
      </trkpt>
      <trkpt lat="43.066180" lon="11.727520">
        <ele>473</ele>
        <time>2019-09-06T08:12:32Z</time>
      </trkpt>
      <trkpt lat="43.066090" lon="11.727960">
        <ele>466</ele>
        <time>2019-09-06T08:12:38Z</time>
      </trkpt>
      <trkpt lat="43.066060" lon="11.728470">
        <ele>461</ele>
        <time>2019-09-06T08:12:45Z</time>
      </trkpt>
      <trkpt lat="43.066110" lon="11.729360">
        <ele>451</ele>
        <time>2019-09-06T08:12:57Z</time>
      </trkpt>
      <trkpt lat="43.066160" lon="11.729650">
        <ele>448</ele>
        <time>2019-09-06T08:13:00Z</time>
      </trkpt>
      <trkpt lat="43.066200" lon="11.729820">
        <ele>447</ele>
        <time>2019-09-06T08:13:03Z</time>
      </trkpt>
      <trkpt lat="43.066290" lon="11.730030">
        <ele>445</ele>
        <time>2019-09-06T08:13:06Z</time>
      </trkpt>
      <trkpt lat="43.066550" lon="11.730520">
        <ele>441</ele>
        <time>2019-09-06T08:13:14Z</time>
      </trkpt>
      <trkpt lat="43.066760" lon="11.730790">
        <ele>438</ele>
        <time>2019-09-06T08:13:19Z</time>
      </trkpt>
      <trkpt lat="43.067380" lon="11.731310">
        <ele>432</ele>
        <time>2019-09-06T08:13:32Z</time>
      </trkpt>
      <trkpt lat="43.067790" lon="11.731610">
        <ele>428</ele>
        <time>2019-09-06T08:13:40Z</time>
      </trkpt>
      <trkpt lat="43.068920" lon="11.732270">
        <ele>420</ele>
        <time>2019-09-06T08:14:02Z</time>
      </trkpt>
      <trkpt lat="43.069260" lon="11.732780">
        <ele>415</ele>
        <time>2019-09-06T08:14:11Z</time>
      </trkpt>
      <trkpt lat="43.069520" lon="11.733060">
        <ele>412</ele>
        <time>2019-09-06T08:14:17Z</time>
      </trkpt>
      <trkpt lat="43.069640" lon="11.733150">
        <ele>411</ele>
        <time>2019-09-06T08:14:19Z</time>
      </trkpt>
      <trkpt lat="43.070040" lon="11.733370">
        <ele>408</ele>
        <time>2019-09-06T08:14:27Z</time>
      </trkpt>
      <trkpt lat="43.070100" lon="11.733520">
        <ele>409</ele>
        <time>2019-09-06T08:14:29Z</time>
      </trkpt>
      <trkpt lat="43.070100" lon="11.733700">
        <ele>411</ele>
        <time>2019-09-06T08:14:32Z</time>
      </trkpt>
      <trkpt lat="43.069970" lon="11.734210">
        <ele>414</ele>
        <time>2019-09-06T08:14:39Z</time>
      </trkpt>
      <trkpt lat="43.069970" lon="11.734540">
        <ele>416</ele>
        <time>2019-09-06T08:14:43Z</time>
      </trkpt>
      <trkpt lat="43.070060" lon="11.735470">
        <ele>424</ele>
        <time>2019-09-06T08:14:55Z</time>
      </trkpt>
      <trkpt lat="43.070170" lon="11.735690">
        <ele>428</ele>
        <time>2019-09-06T08:14:58Z</time>
      </trkpt>
      <trkpt lat="43.070270" lon="11.735760">
        <ele>431</ele>
        <time>2019-09-06T08:15:00Z</time>
      </trkpt>
      <trkpt lat="43.070370" lon="11.735750">
        <ele>432</ele>
        <time>2019-09-06T08:15:02Z</time>
      </trkpt>
      <trkpt lat="43.070440" lon="11.735660">
        <ele>433</ele>
        <time>2019-09-06T08:15:04Z</time>
      </trkpt>
      <trkpt lat="43.070500" lon="11.735480">
        <ele>433</ele>
        <time>2019-09-06T08:15:07Z</time>
      </trkpt>
      <trkpt lat="43.070610" lon="11.735360">
        <ele>434</ele>
        <time>2019-09-06T08:15:09Z</time>
      </trkpt>
      <trkpt lat="43.070690" lon="11.735370">
        <ele>436</ele>
        <time>2019-09-06T08:15:10Z</time>
      </trkpt>
      <trkpt lat="43.070760" lon="11.735440">
        <ele>438</ele>
        <time>2019-09-06T08:15:12Z</time>
      </trkpt>
      <trkpt lat="43.070800" lon="11.735590">
        <ele>440</ele>
        <time>2019-09-06T08:15:14Z</time>
      </trkpt>
      <trkpt lat="43.070750" lon="11.736360">
        <ele>444</ele>
        <time>2019-09-06T08:15:24Z</time>
      </trkpt>
      <trkpt lat="43.070790" lon="11.736500">
        <ele>445</ele>
        <time>2019-09-06T08:15:26Z</time>
      </trkpt>
      <trkpt lat="43.070860" lon="11.736520">
        <ele>447</ele>
        <time>2019-09-06T08:15:27Z</time>
      </trkpt>
      <trkpt lat="43.070950" lon="11.736500">
        <ele>448</ele>
        <time>2019-09-06T08:15:29Z</time>
      </trkpt>
      <trkpt lat="43.071050" lon="11.736370">
        <ele>450</ele>
        <time>2019-09-06T08:15:31Z</time>
      </trkpt>
      <trkpt lat="43.071130" lon="11.736070">
        <ele>450</ele>
        <time>2019-09-06T08:15:36Z</time>
      </trkpt>
      <trkpt lat="43.071280" lon="11.735170">
        <ele>446</ele>
        <time>2019-09-06T08:15:48Z</time>
      </trkpt>
      <trkpt lat="43.071380" lon="11.735150">
        <ele>448</ele>
        <time>2019-09-06T08:15:49Z</time>
      </trkpt>
      <trkpt lat="43.071470" lon="11.735170">
        <ele>449</ele>
        <time>2019-09-06T08:15:51Z</time>
      </trkpt>
      <trkpt lat="43.071500" lon="11.735280">
        <ele>451</ele>
        <time>2019-09-06T08:15:53Z</time>
      </trkpt>
      <trkpt lat="43.071490" lon="11.735460">
        <ele>453</ele>
        <time>2019-09-06T08:15:55Z</time>
      </trkpt>
      <trkpt lat="43.071530" lon="11.735630">
        <ele>456</ele>
        <time>2019-09-06T08:15:57Z</time>
      </trkpt>
      <trkpt lat="43.072450" lon="11.736910">
        <ele>480</ele>
        <time>2019-09-06T08:16:21Z</time>
      </trkpt>
      <trkpt lat="43.072630" lon="11.737290">
        <ele>481</ele>
        <time>2019-09-06T08:16:26Z</time>
      </trkpt>
      <trkpt lat="43.072800" lon="11.737950">
        <ele>485</ele>
        <time>2019-09-06T08:16:36Z</time>
      </trkpt>
      <trkpt lat="43.072940" lon="11.738680">
        <ele>493</ele>
        <time>2019-09-06T08:16:45Z</time>
      </trkpt>
      <trkpt lat="43.073180" lon="11.739420">
        <ele>505</ele>
        <time>2019-09-06T08:16:56Z</time>
      </trkpt>
      <trkpt lat="43.073210" lon="11.739690">
        <ele>508</ele>
        <time>2019-09-06T08:16:59Z</time>
      </trkpt>
      <trkpt lat="43.073190" lon="11.740070">
        <ele>512</ele>
        <time>2019-09-06T08:17:04Z</time>
      </trkpt>
      <trkpt lat="43.073100" lon="11.740730">
        <ele>517</ele>
        <time>2019-09-06T08:17:13Z</time>
      </trkpt>
      <trkpt lat="43.073030" lon="11.741040">
        <ele>519</ele>
        <time>2019-09-06T08:17:17Z</time>
      </trkpt>
      <trkpt lat="43.072800" lon="11.741790">
        <ele>526</ele>
        <time>2019-09-06T08:17:28Z</time>
      </trkpt>
      <trkpt lat="43.072670" lon="11.743110">
        <ele>530</ele>
        <time>2019-09-06T08:17:45Z</time>
      </trkpt>
      <trkpt lat="43.072560" lon="11.743720">
        <ele>529</ele>
        <time>2019-09-06T08:17:53Z</time>
      </trkpt>
      <trkpt lat="43.072470" lon="11.744540">
        <ele>527</ele>
        <time>2019-09-06T08:18:04Z</time>
      </trkpt>
      <trkpt lat="43.072490" lon="11.744780">
        <ele>527</ele>
        <time>2019-09-06T08:18:07Z</time>
      </trkpt>
      <trkpt lat="43.072560" lon="11.745070">
        <ele>525</ele>
        <time>2019-09-06T08:18:11Z</time>
      </trkpt>
      <trkpt lat="43.072680" lon="11.745380">
        <ele>522</ele>
        <time>2019-09-06T08:18:16Z</time>
      </trkpt>
      <trkpt lat="43.072990" lon="11.745920">
        <ele>515</ele>
        <time>2019-09-06T08:18:25Z</time>
      </trkpt>
      <trkpt lat="43.073150" lon="11.746270">
        <ele>513</ele>
        <time>2019-09-06T08:18:30Z</time>
      </trkpt>
      <trkpt lat="43.073540" lon="11.747550">
        <ele>500</ele>
        <time>2019-09-06T08:18:48Z</time>
      </trkpt>
      <trkpt lat="43.073770" lon="11.748490">
        <ele>493</ele>
        <time>2019-09-06T08:19:01Z</time>
      </trkpt>
      <trkpt lat="43.074020" lon="11.749860">
        <ele>480</ele>
        <time>2019-09-06T08:19:19Z</time>
      </trkpt>
      <trkpt lat="43.074130" lon="11.750650">
        <ele>474</ele>
        <time>2019-09-06T08:19:30Z</time>
      </trkpt>
      <trkpt lat="43.074130" lon="11.751530">
        <ele>469</ele>
        <time>2019-09-06T08:19:41Z</time>
      </trkpt>
      <trkpt lat="43.074180" lon="11.751750">
        <ele>467</ele>
        <time>2019-09-06T08:19:44Z</time>
      </trkpt>
      <trkpt lat="43.074350" lon="11.752170">
        <ele>462</ele>
        <time>2019-09-06T08:19:50Z</time>
      </trkpt>
      <trkpt lat="43.075120" lon="11.753730">
        <ele>457</ele>
        <time>2019-09-06T08:20:15Z</time>
      </trkpt>
      <trkpt lat="43.075520" lon="11.754790">
        <ele>462</ele>
        <time>2019-09-06T08:20:30Z</time>
      </trkpt>
      <trkpt lat="43.075680" lon="11.755140">
        <ele>463</ele>
        <time>2019-09-06T08:20:36Z</time>
      </trkpt>
      <trkpt lat="43.076250" lon="11.756030">
        <ele>469</ele>
        <time>2019-09-06T08:20:51Z</time>
      </trkpt>
      <trkpt lat="43.076410" lon="11.756190">
        <ele>470</ele>
        <time>2019-09-06T08:20:55Z</time>
      </trkpt>
      <trkpt lat="43.076580" lon="11.756290">
        <ele>472</ele>
        <time>2019-09-06T08:20:58Z</time>
      </trkpt>
      <trkpt lat="43.076820" lon="11.756320">
        <ele>476</ele>
        <time>2019-09-06T08:21:02Z</time>
      </trkpt>
      <trkpt lat="43.077300" lon="11.756150">
        <ele>486</ele>
        <time>2019-09-06T08:21:11Z</time>
      </trkpt>
      <trkpt lat="43.077440" lon="11.756050">
        <ele>489</ele>
        <time>2019-09-06T08:21:14Z</time>
      </trkpt>
      <trkpt lat="43.077510" lon="11.755970">
        <ele>491</ele>
        <time>2019-09-06T08:21:16Z</time>
      </trkpt>
      <trkpt lat="43.077600" lon="11.755770">
        <ele>494</ele>
        <time>2019-09-06T08:21:19Z</time>
      </trkpt>
      <trkpt lat="43.077720" lon="11.754790">
        <ele>502</ele>
        <time>2019-09-06T08:21:32Z</time>
      </trkpt>
      <trkpt lat="43.077840" lon="11.754360">
        <ele>505</ele>
        <time>2019-09-06T08:21:38Z</time>
      </trkpt>
      <trkpt lat="43.077980" lon="11.754060">
        <ele>508</ele>
        <time>2019-09-06T08:21:42Z</time>
      </trkpt>
      <trkpt lat="43.078070" lon="11.753990">
        <ele>510</ele>
        <time>2019-09-06T08:21:44Z</time>
      </trkpt>
      <trkpt lat="43.078140" lon="11.753980">
        <ele>511</ele>
        <time>2019-09-06T08:21:45Z</time>
      </trkpt>
      <trkpt lat="43.078240" lon="11.754020">
        <ele>513</ele>
        <time>2019-09-06T08:21:47Z</time>
      </trkpt>
      <trkpt lat="43.078300" lon="11.754100">
        <ele>515</ele>
        <time>2019-09-06T08:21:49Z</time>
      </trkpt>
      <trkpt lat="43.078330" lon="11.754190">
        <ele>516</ele>
        <time>2019-09-06T08:21:50Z</time>
      </trkpt>
      <trkpt lat="43.078450" lon="11.754850">
        <ele>514</ele>
        <time>2019-09-06T08:21:59Z</time>
      </trkpt>
      <trkpt lat="43.078550" lon="11.755170">
        <ele>513</ele>
        <time>2019-09-06T08:22:03Z</time>
      </trkpt>
      <trkpt lat="43.078900" lon="11.755820">
        <ele>514</ele>
        <time>2019-09-06T08:22:14Z</time>
      </trkpt>
      <trkpt lat="43.079020" lon="11.756000">
        <ele>515</ele>
        <time>2019-09-06T08:22:17Z</time>
      </trkpt>
      <trkpt lat="43.079440" lon="11.756480">
        <ele>517</ele>
        <time>2019-09-06T08:22:27Z</time>
      </trkpt>
      <trkpt lat="43.079550" lon="11.756650">
        <ele>517</ele>
        <time>2019-09-06T08:22:30Z</time>
      </trkpt>
      <trkpt lat="43.079980" lon="11.757630">
        <ele>518</ele>
        <time>2019-09-06T08:22:44Z</time>
      </trkpt>
      <trkpt lat="43.080040" lon="11.757870">
        <ele>517</ele>
        <time>2019-09-06T08:22:48Z</time>
      </trkpt>
      <trkpt lat="43.080210" lon="11.759040">
        <ele>513</ele>
        <time>2019-09-06T08:23:03Z</time>
      </trkpt>
      <trkpt lat="43.080200" lon="11.759280">
        <ele>512</ele>
        <time>2019-09-06T08:23:06Z</time>
      </trkpt>
      <trkpt lat="43.079770" lon="11.761120">
        <ele>512</ele>
        <time>2019-09-06T08:23:31Z</time>
      </trkpt>
      <trkpt lat="43.079640" lon="11.761460">
        <ele>514</ele>
        <time>2019-09-06T08:23:36Z</time>
      </trkpt>
      <trkpt lat="43.079220" lon="11.762210">
        <ele>523</ele>
        <time>2019-09-06T08:23:49Z</time>
      </trkpt>
      <trkpt lat="43.078900" lon="11.762570">
        <ele>523</ele>
        <time>2019-09-06T08:23:56Z</time>
      </trkpt>
      <trkpt lat="43.078750" lon="11.762830">
        <ele>524</ele>
        <time>2019-09-06T08:24:00Z</time>
      </trkpt>
      <trkpt lat="43.078560" lon="11.763460">
        <ele>526</ele>
        <time>2019-09-06T08:24:09Z</time>
      </trkpt>
      <trkpt lat="43.078390" lon="11.763880">
        <ele>525</ele>
        <time>2019-09-06T08:24:16Z</time>
      </trkpt>
      <trkpt lat="43.078360" lon="11.764030">
        <ele>525</ele>
        <time>2019-09-06T08:24:18Z</time>
      </trkpt>
      <trkpt lat="43.078460" lon="11.764530">
        <ele>525</ele>
        <time>2019-09-06T08:24:24Z</time>
      </trkpt>
      <trkpt lat="43.078530" lon="11.764690">
        <ele>525</ele>
        <time>2019-09-06T08:24:27Z</time>
      </trkpt>
      <trkpt lat="43.078760" lon="11.764980">
        <ele>528</ele>
        <time>2019-09-06T08:24:32Z</time>
      </trkpt>
      <trkpt lat="43.078800" lon="11.765120">
        <ele>529</ele>
        <time>2019-09-06T08:24:34Z</time>
      </trkpt>
      <trkpt lat="43.078790" lon="11.765290">
        <ele>528</ele>
        <time>2019-09-06T08:24:36Z</time>
      </trkpt>
      <trkpt lat="43.078680" lon="11.765600">
        <ele>525</ele>
        <time>2019-09-06T08:24:41Z</time>
      </trkpt>
      <trkpt lat="43.078650" lon="11.765790">
        <ele>524</ele>
        <time>2019-09-06T08:24:43Z</time>
      </trkpt>
      <trkpt lat="43.078720" lon="11.766250">
        <ele>524</ele>
        <time>2019-09-06T08:24:50Z</time>
      </trkpt>
      <trkpt lat="43.078850" lon="11.766590">
        <ele>525</ele>
        <time>2019-09-06T08:24:55Z</time>
      </trkpt>
      <trkpt lat="43.079090" lon="11.766890">
        <ele>527</ele>
        <time>2019-09-06T08:25:00Z</time>
      </trkpt>
      <trkpt lat="43.079550" lon="11.767330">
        <ele>530</ele>
        <time>2019-09-06T08:25:10Z</time>
      </trkpt>
      <trkpt lat="43.079700" lon="11.767510">
        <ele>530</ele>
        <time>2019-09-06T08:25:14Z</time>
      </trkpt>
      <trkpt lat="43.079920" lon="11.767860">
        <ele>531</ele>
        <time>2019-09-06T08:25:20Z</time>
      </trkpt>
      <trkpt lat="43.080140" lon="11.768430">
        <ele>529</ele>
        <time>2019-09-06T08:25:28Z</time>
      </trkpt>
      <trkpt lat="43.080490" lon="11.768820">
        <ele>529</ele>
        <time>2019-09-06T08:25:36Z</time>
      </trkpt>
      <trkpt lat="43.080670" lon="11.769130">
        <ele>528</ele>
        <time>2019-09-06T08:25:41Z</time>
      </trkpt>
      <trkpt lat="43.080850" lon="11.769290">
        <ele>529</ele>
        <time>2019-09-06T08:25:45Z</time>
      </trkpt>
      <trkpt lat="43.081170" lon="11.769370">
        <ele>526</ele>
        <time>2019-09-06T08:25:51Z</time>
      </trkpt>
      <trkpt lat="43.081340" lon="11.769470">
        <ele>525</ele>
        <time>2019-09-06T08:25:54Z</time>
      </trkpt>
      <trkpt lat="43.081550" lon="11.769660">
        <ele>524</ele>
        <time>2019-09-06T08:25:59Z</time>
      </trkpt>
      <trkpt lat="43.081700" lon="11.769840">
        <ele>523</ele>
        <time>2019-09-06T08:26:02Z</time>
      </trkpt>
      <trkpt lat="43.082090" lon="11.770920">
        <ele>525</ele>
        <time>2019-09-06T08:26:18Z</time>
      </trkpt>
      <trkpt lat="43.082200" lon="11.771320">
        <ele>528</ele>
        <time>2019-09-06T08:26:24Z</time>
      </trkpt>
      <trkpt lat="43.082260" lon="11.771450">
        <ele>529</ele>
        <time>2019-09-06T08:26:26Z</time>
      </trkpt>
      <trkpt lat="43.082420" lon="11.771650">
        <ele>531</ele>
        <time>2019-09-06T08:26:29Z</time>
      </trkpt>
      <trkpt lat="43.082630" lon="11.771840">
        <ele>532</ele>
        <time>2019-09-06T08:26:34Z</time>
      </trkpt>
      <trkpt lat="43.083230" lon="11.772120">
        <ele>535</ele>
        <time>2019-09-06T08:26:45Z</time>
      </trkpt>
      <trkpt lat="43.083470" lon="11.772190">
        <ele>536</ele>
        <time>2019-09-06T08:26:50Z</time>
      </trkpt>
      <trkpt lat="43.083950" lon="11.772170">
        <ele>535</ele>
        <time>2019-09-06T08:26:58Z</time>
      </trkpt>
      <trkpt lat="43.084410" lon="11.772300">
        <ele>535</ele>
        <time>2019-09-06T08:27:06Z</time>
      </trkpt>
      <trkpt lat="43.085950" lon="11.773200">
        <ele>519</ele>
        <time>2019-09-06T08:27:36Z</time>
      </trkpt>
      <trkpt lat="43.086620" lon="11.773740">
        <ele>512</ele>
        <time>2019-09-06T08:27:50Z</time>
      </trkpt>
      <trkpt lat="43.086700" lon="11.773740">
        <ele>512</ele>
        <time>2019-09-06T08:27:51Z</time>
      </trkpt>
      <trkpt lat="43.086950" lon="11.774430">
        <ele>512</ele>
        <time>2019-09-06T08:28:01Z</time>
      </trkpt>
      <trkpt lat="43.087190" lon="11.775250">
        <ele>512</ele>
        <time>2019-09-06T08:28:13Z</time>
      </trkpt>
      <trkpt lat="43.087500" lon="11.776670">
        <ele>514</ele>
        <time>2019-09-06T08:28:32Z</time>
      </trkpt>
      <trkpt lat="43.087530" lon="11.776980">
        <ele>513</ele>
        <time>2019-09-06T08:28:36Z</time>
      </trkpt>
      <trkpt lat="43.087600" lon="11.777250">
        <ele>514</ele>
        <time>2019-09-06T08:28:40Z</time>
      </trkpt>
      <trkpt lat="43.087760" lon="11.777700">
        <ele>517</ele>
        <time>2019-09-06T08:28:47Z</time>
      </trkpt>
      <trkpt lat="43.087860" lon="11.778380">
        <ele>517</ele>
        <time>2019-09-06T08:28:56Z</time>
      </trkpt>
      <trkpt lat="43.087960" lon="11.778820">
        <ele>516</ele>
        <time>2019-09-06T08:29:02Z</time>
      </trkpt>
      <trkpt lat="43.088230" lon="11.779260">
        <ele>521</ele>
        <time>2019-09-06T08:29:09Z</time>
      </trkpt>
      <trkpt lat="43.087960" lon="11.778820">
        <ele>516</ele>
        <time>2019-09-06T08:29:16Z</time>
      </trkpt>
      <trkpt lat="43.087860" lon="11.778380">
        <ele>517</ele>
        <time>2019-09-06T08:29:22Z</time>
      </trkpt>
      <trkpt lat="43.087760" lon="11.777700">
        <ele>517</ele>
        <time>2019-09-06T08:29:31Z</time>
      </trkpt>
      <trkpt lat="43.087600" lon="11.777250">
        <ele>514</ele>
        <time>2019-09-06T08:29:38Z</time>
      </trkpt>
      <trkpt lat="43.087530" lon="11.776980">
        <ele>513</ele>
        <time>2019-09-06T08:29:42Z</time>
      </trkpt>
      <trkpt lat="43.087500" lon="11.776670">
        <ele>514</ele>
        <time>2019-09-06T08:29:46Z</time>
      </trkpt>
      <trkpt lat="43.087310" lon="11.775850">
        <ele>511</ele>
        <time>2019-09-06T08:29:57Z</time>
      </trkpt>
      <trkpt lat="43.086920" lon="11.776070">
        <ele>508</ele>
        <time>2019-09-06T08:30:04Z</time>
      </trkpt>
      <trkpt lat="43.086320" lon="11.773960">
        <ele>515</ele>
        <time>2019-09-06T08:30:34Z</time>
      </trkpt>
      <trkpt lat="43.086620" lon="11.773740">
        <ele>512</ele>
        <time>2019-09-06T08:30:40Z</time>
      </trkpt>
      <trkpt lat="43.086700" lon="11.773740">
        <ele>512</ele>
        <time>2019-09-06T08:30:41Z</time>
      </trkpt>
      <trkpt lat="43.086470" lon="11.772940">
        <ele>513</ele>
        <time>2019-09-06T08:30:52Z</time>
      </trkpt>
      <trkpt lat="43.086460" lon="11.772650">
        <ele>513</ele>
        <time>2019-09-06T08:30:56Z</time>
      </trkpt>
      <trkpt lat="43.086540" lon="11.771760">
        <ele>512</ele>
        <time>2019-09-06T08:31:08Z</time>
      </trkpt>
      <trkpt lat="43.086480" lon="11.770320">
        <ele>510</ele>
        <time>2019-09-06T08:31:27Z</time>
      </trkpt>
      <trkpt lat="43.086330" lon="11.769240">
        <ele>512</ele>
        <time>2019-09-06T08:31:41Z</time>
      </trkpt>
      <trkpt lat="43.086310" lon="11.768810">
        <ele>510</ele>
        <time>2019-09-06T08:31:47Z</time>
      </trkpt>
      <trkpt lat="43.086930" lon="11.762620">
        <ele>491</ele>
        <time>2019-09-06T08:33:08Z</time>
      </trkpt>
      <trkpt lat="43.086930" lon="11.762020">
        <ele>490</ele>
        <time>2019-09-06T08:33:16Z</time>
      </trkpt>
      <trkpt lat="43.086530" lon="11.760320">
        <ele>491</ele>
        <time>2019-09-06T08:33:39Z</time>
      </trkpt>
      <trkpt lat="43.086510" lon="11.760140">
        <ele>490</ele>
        <time>2019-09-06T08:33:41Z</time>
      </trkpt>
      <trkpt lat="43.086520" lon="11.759950">
        <ele>490</ele>
        <time>2019-09-06T08:33:44Z</time>
      </trkpt>
      <trkpt lat="43.086620" lon="11.759480">
        <ele>491</ele>
        <time>2019-09-06T08:33:50Z</time>
      </trkpt>
      <trkpt lat="43.086760" lon="11.759120">
        <ele>491</ele>
        <time>2019-09-06T08:33:55Z</time>
      </trkpt>
      <trkpt lat="43.087640" lon="11.757450">
        <ele>487</ele>
        <time>2019-09-06T08:34:22Z</time>
      </trkpt>
      <trkpt lat="43.087850" lon="11.757160">
        <ele>486</ele>
        <time>2019-09-06T08:34:27Z</time>
      </trkpt>
      <trkpt lat="43.088350" lon="11.756590">
        <ele>485</ele>
        <time>2019-09-06T08:34:39Z</time>
      </trkpt>
      <trkpt lat="43.088700" lon="11.756130">
        <ele>484</ele>
        <time>2019-09-06T08:34:48Z</time>
      </trkpt>
      <trkpt lat="43.089370" lon="11.754850">
        <ele>491</ele>
        <time>2019-09-06T08:35:08Z</time>
      </trkpt>
      <trkpt lat="43.089550" lon="11.754570">
        <ele>492</ele>
        <time>2019-09-06T08:35:13Z</time>
      </trkpt>
      <trkpt lat="43.089730" lon="11.754430">
        <ele>492</ele>
        <time>2019-09-06T08:35:17Z</time>
      </trkpt>
      <trkpt lat="43.089910" lon="11.754330">
        <ele>492</ele>
        <time>2019-09-06T08:35:20Z</time>
      </trkpt>
      <trkpt lat="43.091030" lon="11.754060">
        <ele>488</ele>
        <time>2019-09-06T08:35:40Z</time>
      </trkpt>
      <trkpt lat="43.091240" lon="11.753970">
        <ele>487</ele>
        <time>2019-09-06T08:35:44Z</time>
      </trkpt>
      <trkpt lat="43.091410" lon="11.753860">
        <ele>488</ele>
        <time>2019-09-06T08:35:47Z</time>
      </trkpt>
      <trkpt lat="43.091640" lon="11.753620">
        <ele>489</ele>
        <time>2019-09-06T08:35:53Z</time>
      </trkpt>
      <trkpt lat="43.091830" lon="11.753350">
        <ele>491</ele>
        <time>2019-09-06T08:35:57Z</time>
      </trkpt>
      <trkpt lat="43.092520" lon="11.752680">
        <ele>496</ele>
        <time>2019-09-06T08:36:13Z</time>
      </trkpt>
      <trkpt lat="43.092750" lon="11.752510">
        <ele>497</ele>
        <time>2019-09-06T08:36:17Z</time>
      </trkpt>
      <trkpt lat="43.093660" lon="11.752100">
        <ele>493</ele>
        <time>2019-09-06T08:36:34Z</time>
      </trkpt>
      <trkpt lat="43.094100" lon="11.751960">
        <ele>491</ele>
        <time>2019-09-06T08:36:42Z</time>
      </trkpt>
      <trkpt lat="43.094240" lon="11.751870">
        <ele>491</ele>
        <time>2019-09-06T08:36:45Z</time>
      </trkpt>
      <trkpt lat="43.094430" lon="11.751650">
        <ele>492</ele>
        <time>2019-09-06T08:36:49Z</time>
      </trkpt>
      <trkpt lat="43.094520" lon="11.751470">
        <ele>494</ele>
        <time>2019-09-06T08:36:52Z</time>
      </trkpt>
      <trkpt lat="43.094640" lon="11.750920">
        <ele>503</ele>
        <time>2019-09-06T08:37:00Z</time>
      </trkpt>
      <trkpt lat="43.094760" lon="11.750610">
        <ele>506</ele>
        <time>2019-09-06T08:37:04Z</time>
      </trkpt>
      <trkpt lat="43.094940" lon="11.750320">
        <ele>507</ele>
        <time>2019-09-06T08:37:09Z</time>
      </trkpt>
      <trkpt lat="43.095050" lon="11.750180">
        <ele>507</ele>
        <time>2019-09-06T08:37:12Z</time>
      </trkpt>
      <trkpt lat="43.095150" lon="11.750100">
        <ele>507</ele>
        <time>2019-09-06T08:37:14Z</time>
      </trkpt>
      <trkpt lat="43.095410" lon="11.749990">
        <ele>505</ele>
        <time>2019-09-06T08:37:19Z</time>
      </trkpt>
      <trkpt lat="43.095520" lon="11.749910">
        <ele>504</ele>
        <time>2019-09-06T08:37:21Z</time>
      </trkpt>
      <trkpt lat="43.095630" lon="11.749770">
        <ele>505</ele>
        <time>2019-09-06T08:37:24Z</time>
      </trkpt>
      <trkpt lat="43.095860" lon="11.749270">
        <ele>509</ele>
        <time>2019-09-06T08:37:31Z</time>
      </trkpt>
      <trkpt lat="43.096170" lon="11.749140">
        <ele>510</ele>
        <time>2019-09-06T08:37:37Z</time>
      </trkpt>
      <trkpt lat="43.096540" lon="11.748920">
        <ele>512</ele>
        <time>2019-09-06T08:37:44Z</time>
      </trkpt>
      <trkpt lat="43.096700" lon="11.748890">
        <ele>512</ele>
        <time>2019-09-06T08:37:47Z</time>
      </trkpt>
      <trkpt lat="43.097210" lon="11.748880">
        <ele>511</ele>
        <time>2019-09-06T08:37:56Z</time>
      </trkpt>
      <trkpt lat="43.097430" lon="11.748810">
        <ele>512</ele>
        <time>2019-09-06T08:38:00Z</time>
      </trkpt>
      <trkpt lat="43.097560" lon="11.748730">
        <ele>513</ele>
        <time>2019-09-06T08:38:03Z</time>
      </trkpt>
      <trkpt lat="43.097720" lon="11.748570">
        <ele>513</ele>
        <time>2019-09-06T08:38:06Z</time>
      </trkpt>
      <trkpt lat="43.098300" lon="11.747830">
        <ele>514</ele>
        <time>2019-09-06T08:38:20Z</time>
      </trkpt>
      <trkpt lat="43.099190" lon="11.747050">
        <ele>510</ele>
        <time>2019-09-06T08:38:39Z</time>
      </trkpt>
      <trkpt lat="43.099290" lon="11.746910">
        <ele>510</ele>
        <time>2019-09-06T08:38:42Z</time>
      </trkpt>
      <trkpt lat="43.099540" lon="11.746150">
        <ele>511</ele>
        <time>2019-09-06T08:38:53Z</time>
      </trkpt>
      <trkpt lat="43.099680" lon="11.745880">
        <ele>510</ele>
        <time>2019-09-06T08:38:57Z</time>
      </trkpt>
      <trkpt lat="43.099770" lon="11.745800">
        <ele>510</ele>
        <time>2019-09-06T08:38:59Z</time>
      </trkpt>
      <trkpt lat="43.099970" lon="11.745690">
        <ele>509</ele>
        <time>2019-09-06T08:39:03Z</time>
      </trkpt>
      <trkpt lat="43.100370" lon="11.745670">
        <ele>508</ele>
        <time>2019-09-06T08:39:10Z</time>
      </trkpt>
      <trkpt lat="43.100470" lon="11.745620">
        <ele>508</ele>
        <time>2019-09-06T08:39:12Z</time>
      </trkpt>
      <trkpt lat="43.100550" lon="11.745560">
        <ele>508</ele>
        <time>2019-09-06T08:39:13Z</time>
      </trkpt>
      <trkpt lat="43.100680" lon="11.745330">
        <ele>508</ele>
        <time>2019-09-06T08:39:17Z</time>
      </trkpt>
      <trkpt lat="43.100720" lon="11.745130">
        <ele>508</ele>
        <time>2019-09-06T08:39:20Z</time>
      </trkpt>
      <trkpt lat="43.100780" lon="11.744040">
        <ele>507</ele>
        <time>2019-09-06T08:39:34Z</time>
      </trkpt>
      <trkpt lat="43.100780" lon="11.743600">
        <ele>505</ele>
        <time>2019-09-06T08:39:40Z</time>
      </trkpt>
      <trkpt lat="43.100750" lon="11.743370">
        <ele>505</ele>
        <time>2019-09-06T08:39:43Z</time>
      </trkpt>
      <trkpt lat="43.100680" lon="11.743150">
        <ele>504</ele>
        <time>2019-09-06T08:39:46Z</time>
      </trkpt>
      <trkpt lat="43.100560" lon="11.742950">
        <ele>503</ele>
        <time>2019-09-06T08:39:49Z</time>
      </trkpt>
      <trkpt lat="43.100230" lon="11.742540">
        <ele>503</ele>
        <time>2019-09-06T08:39:57Z</time>
      </trkpt>
      <trkpt lat="43.099650" lon="11.741930">
        <ele>500</ele>
        <time>2019-09-06T08:40:10Z</time>
      </trkpt>
      <trkpt lat="43.099530" lon="11.741840">
        <ele>500</ele>
        <time>2019-09-06T08:40:13Z</time>
      </trkpt>
      <trkpt lat="43.098920" lon="11.741560">
        <ele>500</ele>
        <time>2019-09-06T08:40:24Z</time>
      </trkpt>
      <trkpt lat="43.098810" lon="11.741410">
        <ele>499</ele>
        <time>2019-09-06T08:40:27Z</time>
      </trkpt>
      <trkpt lat="43.098750" lon="11.741230">
        <ele>498</ele>
        <time>2019-09-06T08:40:29Z</time>
      </trkpt>
      <trkpt lat="43.098640" lon="11.740210">
        <ele>495</ele>
        <time>2019-09-06T08:40:43Z</time>
      </trkpt>
      <trkpt lat="43.098670" lon="11.739820">
        <ele>494</ele>
        <time>2019-09-06T08:40:48Z</time>
      </trkpt>
      <trkpt lat="43.098910" lon="11.739130">
        <ele>494</ele>
        <time>2019-09-06T08:40:58Z</time>
      </trkpt>
      <trkpt lat="43.098940" lon="11.738830">
        <ele>492</ele>
        <time>2019-09-06T08:41:02Z</time>
      </trkpt>
      <trkpt lat="43.098830" lon="11.738180">
        <ele>490</ele>
        <time>2019-09-06T08:41:10Z</time>
      </trkpt>
      <trkpt lat="43.098620" lon="11.737580">
        <ele>492</ele>
        <time>2019-09-06T08:41:19Z</time>
      </trkpt>
      <trkpt lat="43.098530" lon="11.736420">
        <ele>495</ele>
        <time>2019-09-06T08:41:34Z</time>
      </trkpt>
      <trkpt lat="43.098500" lon="11.735720">
        <ele>497</ele>
        <time>2019-09-06T08:41:43Z</time>
      </trkpt>
      <trkpt lat="43.098360" lon="11.735000">
        <ele>497</ele>
        <time>2019-09-06T08:41:53Z</time>
      </trkpt>
      <trkpt lat="43.098340" lon="11.734440">
        <ele>496</ele>
        <time>2019-09-06T08:42:00Z</time>
      </trkpt>
      <trkpt lat="43.098440" lon="11.732890">
        <ele>490</ele>
        <time>2019-09-06T08:42:20Z</time>
      </trkpt>
      <trkpt lat="43.098510" lon="11.732440">
        <ele>488</ele>
        <time>2019-09-06T08:42:26Z</time>
      </trkpt>
      <trkpt lat="43.098720" lon="11.731960">
        <ele>484</ele>
        <time>2019-09-06T08:42:34Z</time>
      </trkpt>
      <trkpt lat="43.099620" lon="11.730390">
        <ele>482</ele>
        <time>2019-09-06T08:43:00Z</time>
      </trkpt>
      <trkpt lat="43.100050" lon="11.729590">
        <ele>487</ele>
        <time>2019-09-06T08:43:13Z</time>
      </trkpt>
      <trkpt lat="43.100530" lon="11.728620">
        <ele>492</ele>
        <time>2019-09-06T08:43:28Z</time>
      </trkpt>
      <trkpt lat="43.100820" lon="11.727860">
        <ele>493</ele>
        <time>2019-09-06T08:43:39Z</time>
      </trkpt>
      <trkpt lat="43.100960" lon="11.727420">
        <ele>490</ele>
        <time>2019-09-06T08:43:45Z</time>
      </trkpt>
      <trkpt lat="43.101300" lon="11.725900">
        <ele>486</ele>
        <time>2019-09-06T08:44:06Z</time>
      </trkpt>
      <trkpt lat="43.101590" lon="11.724740">
        <ele>483</ele>
        <time>2019-09-06T08:44:22Z</time>
      </trkpt>
      <trkpt lat="43.101840" lon="11.724070">
        <ele>483</ele>
        <time>2019-09-06T08:44:32Z</time>
      </trkpt>
      <trkpt lat="43.101970" lon="11.723790">
        <ele>485</ele>
        <time>2019-09-06T08:44:36Z</time>
      </trkpt>
      <trkpt lat="43.101810" lon="11.723340">
        <ele>489</ele>
        <time>2019-09-06T08:44:42Z</time>
      </trkpt>
      <trkpt lat="43.101610" lon="11.722910">
        <ele>491</ele>
        <time>2019-09-06T08:44:49Z</time>
      </trkpt>
      <trkpt lat="43.101120" lon="11.722030">
        <ele>493</ele>
        <time>2019-09-06T08:45:03Z</time>
      </trkpt>
      <trkpt lat="43.100940" lon="11.721770">
        <ele>495</ele>
        <time>2019-09-06T08:45:08Z</time>
      </trkpt>
      <trkpt lat="43.100760" lon="11.721440">
        <ele>497</ele>
        <time>2019-09-06T08:45:13Z</time>
      </trkpt>
      <trkpt lat="43.100570" lon="11.720730">
        <ele>502</ele>
        <time>2019-09-06T08:45:23Z</time>
      </trkpt>
      <trkpt lat="43.100490" lon="11.720530">
        <ele>503</ele>
        <time>2019-09-06T08:45:26Z</time>
      </trkpt>
      <trkpt lat="43.100380" lon="11.720370">
        <ele>504</ele>
        <time>2019-09-06T08:45:29Z</time>
      </trkpt>
      <trkpt lat="43.100010" lon="11.720010">
        <ele>507</ele>
        <time>2019-09-06T08:45:37Z</time>
      </trkpt>
      <trkpt lat="43.099400" lon="11.719510">
        <ele>506</ele>
        <time>2019-09-06T08:45:50Z</time>
      </trkpt>
      <trkpt lat="43.099120" lon="11.719470">
        <ele>506</ele>
        <time>2019-09-06T08:45:55Z</time>
      </trkpt>
      <trkpt lat="43.098760" lon="11.719520">
        <ele>504</ele>
        <time>2019-09-06T08:46:01Z</time>
      </trkpt>
      <trkpt lat="43.098590" lon="11.719500">
        <ele>504</ele>
        <time>2019-09-06T08:46:04Z</time>
      </trkpt>
      <trkpt lat="43.098230" lon="11.719270">
        <ele>505</ele>
        <time>2019-09-06T08:46:11Z</time>
      </trkpt>
      <trkpt lat="43.098020" lon="11.719040">
        <ele>504</ele>
        <time>2019-09-06T08:46:16Z</time>
      </trkpt>
      <trkpt lat="43.097530" lon="11.718330">
        <ele>502</ele>
        <time>2019-09-06T08:46:29Z</time>
      </trkpt>
      <trkpt lat="43.097410" lon="11.718220">
        <ele>501</ele>
        <time>2019-09-06T08:46:31Z</time>
      </trkpt>
      <trkpt lat="43.097110" lon="11.718030">
        <ele>498</ele>
        <time>2019-09-06T08:46:37Z</time>
      </trkpt>
      <trkpt lat="43.096810" lon="11.717380">
        <ele>500</ele>
        <time>2019-09-06T08:46:47Z</time>
      </trkpt>
      <trkpt lat="43.096210" lon="11.716240">
        <ele>505</ele>
        <time>2019-09-06T08:47:05Z</time>
      </trkpt>
      <trkpt lat="43.095970" lon="11.715870">
        <ele>507</ele>
        <time>2019-09-06T08:47:12Z</time>
      </trkpt>
      <trkpt lat="43.095530" lon="11.715370">
        <ele>508</ele>
        <time>2019-09-06T08:47:22Z</time>
      </trkpt>
      <trkpt lat="43.095400" lon="11.715100">
        <ele>509</ele>
        <time>2019-09-06T08:47:26Z</time>
      </trkpt>
      <trkpt lat="43.095270" lon="11.714740">
        <ele>508</ele>
        <time>2019-09-06T08:47:31Z</time>
      </trkpt>
      <trkpt lat="43.095180" lon="11.714600">
        <ele>507</ele>
        <time>2019-09-06T08:47:34Z</time>
      </trkpt>
      <trkpt lat="43.095070" lon="11.714520">
        <ele>506</ele>
        <time>2019-09-06T08:47:36Z</time>
      </trkpt>
      <trkpt lat="43.093950" lon="11.714090">
        <ele>493</ele>
        <time>2019-09-06T08:47:57Z</time>
      </trkpt>
      <trkpt lat="43.093880" lon="11.714050">
        <ele>492</ele>
        <time>2019-09-06T08:47:58Z</time>
      </trkpt>
      <trkpt lat="43.093750" lon="11.713890">
        <ele>490</ele>
        <time>2019-09-06T08:48:01Z</time>
      </trkpt>
      <trkpt lat="43.093660" lon="11.713650">
        <ele>489</ele>
        <time>2019-09-06T08:48:05Z</time>
      </trkpt>
      <trkpt lat="43.093440" lon="11.712420">
        <ele>485</ele>
        <time>2019-09-06T08:48:21Z</time>
      </trkpt>
      <trkpt lat="43.093360" lon="11.712090">
        <ele>484</ele>
        <time>2019-09-06T08:48:26Z</time>
      </trkpt>
      <trkpt lat="43.092700" lon="11.710480">
        <ele>478</ele>
        <time>2019-09-06T08:48:50Z</time>
      </trkpt>
      <trkpt lat="43.090210" lon="11.704780">
        <ele>449</ele>
        <time>2019-09-06T08:50:16Z</time>
      </trkpt>
      <trkpt lat="43.089830" lon="11.704150">
        <ele>450</ele>
        <time>2019-09-06T08:50:27Z</time>
      </trkpt>
      <trkpt lat="43.088440" lon="11.701310">
        <ele>450</ele>
        <time>2019-09-06T08:51:11Z</time>
      </trkpt>
      <trkpt lat="43.088350" lon="11.701190">
        <ele>450</ele>
        <time>2019-09-06T08:51:13Z</time>
      </trkpt>
      <trkpt lat="43.088140" lon="11.701060">
        <ele>449</ele>
        <time>2019-09-06T08:51:17Z</time>
      </trkpt>
      <trkpt lat="43.088000" lon="11.701010">
        <ele>449</ele>
        <time>2019-09-06T08:51:20Z</time>
      </trkpt>
      <trkpt lat="43.087830" lon="11.700990">
        <ele>448</ele>
        <time>2019-09-06T08:51:23Z</time>
      </trkpt>
      <trkpt lat="43.087710" lon="11.701010">
        <ele>447</ele>
        <time>2019-09-06T08:51:25Z</time>
      </trkpt>
      <trkpt lat="43.087160" lon="11.701280">
        <ele>446</ele>
        <time>2019-09-06T08:51:36Z</time>
      </trkpt>
      <trkpt lat="43.086910" lon="11.701350">
        <ele>445</ele>
        <time>2019-09-06T08:51:40Z</time>
      </trkpt>
      <trkpt lat="43.086600" lon="11.701330">
        <ele>445</ele>
        <time>2019-09-06T08:51:46Z</time>
      </trkpt>
      <trkpt lat="43.086370" lon="11.701260">
        <ele>444</ele>
        <time>2019-09-06T08:51:50Z</time>
      </trkpt>
      <trkpt lat="43.086100" lon="11.701100">
        <ele>443</ele>
        <time>2019-09-06T08:51:55Z</time>
      </trkpt>
      <trkpt lat="43.085780" lon="11.700830">
        <ele>442</ele>
        <time>2019-09-06T08:52:02Z</time>
      </trkpt>
      <trkpt lat="43.085490" lon="11.700500">
        <ele>440</ele>
        <time>2019-09-06T08:52:08Z</time>
      </trkpt>
      <trkpt lat="43.085130" lon="11.700030">
        <ele>442</ele>
        <time>2019-09-06T08:52:17Z</time>
      </trkpt>
      <trkpt lat="43.084530" lon="11.699460">
        <ele>442</ele>
        <time>2019-09-06T08:52:30Z</time>
      </trkpt>
      <trkpt lat="43.083930" lon="11.699140">
        <ele>445</ele>
        <time>2019-09-06T08:52:42Z</time>
      </trkpt>
      <trkpt lat="43.083430" lon="11.698830">
        <ele>445</ele>
        <time>2019-09-06T08:52:52Z</time>
      </trkpt>
      <trkpt lat="43.083200" lon="11.698640">
        <ele>445</ele>
        <time>2019-09-06T08:52:56Z</time>
      </trkpt>
      <trkpt lat="43.082920" lon="11.698540">
        <ele>447</ele>
        <time>2019-09-06T08:53:01Z</time>
      </trkpt>
      <trkpt lat="43.082800" lon="11.698430">
        <ele>448</ele>
        <time>2019-09-06T08:53:04Z</time>
      </trkpt>
      <trkpt lat="43.083010" lon="11.698000">
        <ele>444</ele>
        <time>2019-09-06T08:53:11Z</time>
      </trkpt>
      <trkpt lat="43.083410" lon="11.697600">
        <ele>437</ele>
        <time>2019-09-06T08:53:20Z</time>
      </trkpt>
      <trkpt lat="43.083890" lon="11.696840">
        <ele>423</ele>
        <time>2019-09-06T08:53:33Z</time>
      </trkpt>
      <trkpt lat="43.084020" lon="11.696860">
        <ele>422</ele>
        <time>2019-09-06T08:53:35Z</time>
      </trkpt>
      <trkpt lat="43.084100" lon="11.696800">
        <ele>421</ele>
        <time>2019-09-06T08:53:37Z</time>
      </trkpt>
      <trkpt lat="43.084210" lon="11.696560">
        <ele>419</ele>
        <time>2019-09-06T08:53:40Z</time>
      </trkpt>
      <trkpt lat="43.084210" lon="11.696380">
        <ele>418</ele>
        <time>2019-09-06T08:53:43Z</time>
      </trkpt>
      <trkpt lat="43.084010" lon="11.696000">
        <ele>416</ele>
        <time>2019-09-06T08:53:49Z</time>
      </trkpt>
      <trkpt lat="43.083830" lon="11.695520">
        <ele>412</ele>
        <time>2019-09-06T08:53:56Z</time>
      </trkpt>
      <trkpt lat="43.083860" lon="11.694800">
        <ele>406</ele>
        <time>2019-09-06T08:54:05Z</time>
      </trkpt>
      <trkpt lat="43.083900" lon="11.694720">
        <ele>406</ele>
        <time>2019-09-06T08:54:06Z</time>
      </trkpt>
      <trkpt lat="43.083960" lon="11.694680">
        <ele>407</ele>
        <time>2019-09-06T08:54:07Z</time>
      </trkpt>
      <trkpt lat="43.084010" lon="11.694570">
        <ele>406</ele>
        <time>2019-09-06T08:54:09Z</time>
      </trkpt>
      <trkpt lat="43.084000" lon="11.694180">
        <ele>401</ele>
        <time>2019-09-06T08:54:14Z</time>
      </trkpt>
      <trkpt lat="43.083550" lon="11.692810">
        <ele>375</ele>
        <time>2019-09-06T08:54:34Z</time>
      </trkpt>
      <trkpt lat="43.083470" lon="11.692660">
        <ele>373</ele>
        <time>2019-09-06T08:54:36Z</time>
      </trkpt>
      <trkpt lat="43.083360" lon="11.692560">
        <ele>371</ele>
        <time>2019-09-06T08:54:39Z</time>
      </trkpt>
      <trkpt lat="43.083120" lon="11.692540">
        <ele>370</ele>
        <time>2019-09-06T08:54:43Z</time>
      </trkpt>
      <trkpt lat="43.082710" lon="11.692680">
        <ele>370</ele>
        <time>2019-09-06T08:54:50Z</time>
      </trkpt>
      <trkpt lat="43.082590" lon="11.692670">
        <ele>370</ele>
        <time>2019-09-06T08:54:52Z</time>
      </trkpt>
      <trkpt lat="43.082120" lon="11.692980">
        <ele>370</ele>
        <time>2019-09-06T08:55:02Z</time>
      </trkpt>
      <trkpt lat="43.081910" lon="11.693030">
        <ele>369</ele>
        <time>2019-09-06T08:55:06Z</time>
      </trkpt>
      <trkpt lat="43.081790" lon="11.693110">
        <ele>368</ele>
        <time>2019-09-06T08:55:08Z</time>
      </trkpt>
      <trkpt lat="43.081620" lon="11.693170">
        <ele>367</ele>
        <time>2019-09-06T08:55:11Z</time>
      </trkpt>
      <trkpt lat="43.081420" lon="11.693150">
        <ele>366</ele>
        <time>2019-09-06T08:55:15Z</time>
      </trkpt>
      <trkpt lat="43.081360" lon="11.693100">
        <ele>366</ele>
        <time>2019-09-06T08:55:16Z</time>
      </trkpt>
      <trkpt lat="43.081060" lon="11.692440">
        <ele>369</ele>
        <time>2019-09-06T08:55:26Z</time>
      </trkpt>
      <trkpt lat="43.080980" lon="11.692020">
        <ele>375</ele>
        <time>2019-09-06T08:55:32Z</time>
      </trkpt>
      <trkpt lat="43.080990" lon="11.691820">
        <ele>378</ele>
        <time>2019-09-06T08:55:34Z</time>
      </trkpt>
      <trkpt lat="43.081130" lon="11.691680">
        <ele>381</ele>
        <time>2019-09-06T08:55:37Z</time>
      </trkpt>
      <trkpt lat="43.081300" lon="11.691310">
        <ele>390</ele>
        <time>2019-09-06T08:55:43Z</time>
      </trkpt>
      <trkpt lat="43.081360" lon="11.691230">
        <ele>392</ele>
        <time>2019-09-06T08:55:44Z</time>
      </trkpt>
      <trkpt lat="43.081640" lon="11.691160">
        <ele>398</ele>
        <time>2019-09-06T08:55:50Z</time>
      </trkpt>
      <trkpt lat="43.081710" lon="11.691090">
        <ele>400</ele>
        <time>2019-09-06T08:55:51Z</time>
      </trkpt>
      <trkpt lat="43.081770" lon="11.690980">
        <ele>401</ele>
        <time>2019-09-06T08:55:53Z</time>
      </trkpt>
      <trkpt lat="43.081870" lon="11.690610">
        <ele>405</ele>
        <time>2019-09-06T08:55:58Z</time>
      </trkpt>
      <trkpt lat="43.081850" lon="11.690480">
        <ele>407</ele>
        <time>2019-09-06T08:56:00Z</time>
      </trkpt>
      <trkpt lat="43.081750" lon="11.690230">
        <ele>411</ele>
        <time>2019-09-06T08:56:03Z</time>
      </trkpt>
      <trkpt lat="43.081670" lon="11.690150">
        <ele>413</ele>
        <time>2019-09-06T08:56:05Z</time>
      </trkpt>
      <trkpt lat="43.081590" lon="11.690140">
        <ele>412</ele>
        <time>2019-09-06T08:56:07Z</time>
      </trkpt>
      <trkpt lat="43.081590" lon="11.689790">
        <ele>415</ele>
        <time>2019-09-06T08:56:11Z</time>
      </trkpt>
      <trkpt lat="43.081460" lon="11.689410">
        <ele>416</ele>
        <time>2019-09-06T08:56:17Z</time>
      </trkpt>
      <trkpt lat="43.081340" lon="11.689200">
        <ele>417</ele>
        <time>2019-09-06T08:56:20Z</time>
      </trkpt>
      <trkpt lat="43.080910" lon="11.688290">
        <ele>420</ele>
        <time>2019-09-06T08:56:34Z</time>
      </trkpt>
      <trkpt lat="43.081340" lon="11.688050">
        <ele>419</ele>
        <time>2019-09-06T08:56:42Z</time>
      </trkpt>
      <trkpt lat="43.081670" lon="11.687730">
        <ele>418</ele>
        <time>2019-09-06T08:56:50Z</time>
      </trkpt>
      <trkpt lat="43.081840" lon="11.687400">
        <ele>419</ele>
        <time>2019-09-06T08:56:55Z</time>
      </trkpt>
      <trkpt lat="43.081870" lon="11.687220">
        <ele>419</ele>
        <time>2019-09-06T08:56:57Z</time>
      </trkpt>
      <trkpt lat="43.081810" lon="11.687020">
        <ele>417</ele>
        <time>2019-09-06T08:57:00Z</time>
      </trkpt>
      <trkpt lat="43.081660" lon="11.686640">
        <ele>414</ele>
        <time>2019-09-06T08:57:06Z</time>
      </trkpt>
      <trkpt lat="43.081360" lon="11.686030">
        <ele>411</ele>
        <time>2019-09-06T08:57:15Z</time>
      </trkpt>
      <trkpt lat="43.081250" lon="11.685900">
        <ele>409</ele>
        <time>2019-09-06T08:57:18Z</time>
      </trkpt>
      <trkpt lat="43.081060" lon="11.685740">
        <ele>408</ele>
        <time>2019-09-06T08:57:22Z</time>
      </trkpt>
      <trkpt lat="43.080970" lon="11.685710">
        <ele>407</ele>
        <time>2019-09-06T08:57:23Z</time>
      </trkpt>
      <trkpt lat="43.080890" lon="11.685730">
        <ele>406</ele>
        <time>2019-09-06T08:57:25Z</time>
      </trkpt>
      <trkpt lat="43.080820" lon="11.685800">
        <ele>405</ele>
        <time>2019-09-06T08:57:26Z</time>
      </trkpt>
      <trkpt lat="43.080740" lon="11.686090">
        <ele>405</ele>
        <time>2019-09-06T08:57:30Z</time>
      </trkpt>
      <trkpt lat="43.080700" lon="11.686160">
        <ele>405</ele>
        <time>2019-09-06T08:57:32Z</time>
      </trkpt>
      <trkpt lat="43.080630" lon="11.686170">
        <ele>405</ele>
        <time>2019-09-06T08:57:33Z</time>
      </trkpt>
      <trkpt lat="43.080560" lon="11.686130">
        <ele>406</ele>
        <time>2019-09-06T08:57:34Z</time>
      </trkpt>
      <trkpt lat="43.080490" lon="11.686050">
        <ele>407</ele>
        <time>2019-09-06T08:57:36Z</time>
      </trkpt>
      <trkpt lat="43.080270" lon="11.685620">
        <ele>413</ele>
        <time>2019-09-06T08:57:43Z</time>
      </trkpt>
      <trkpt lat="43.080170" lon="11.685470">
        <ele>416</ele>
        <time>2019-09-06T08:57:45Z</time>
      </trkpt>
      <trkpt lat="43.080060" lon="11.685370">
        <ele>418</ele>
        <time>2019-09-06T08:57:48Z</time>
      </trkpt>
      <trkpt lat="43.079700" lon="11.685140">
        <ele>424</ele>
        <time>2019-09-06T08:57:55Z</time>
      </trkpt>
      <trkpt lat="43.079310" lon="11.684810">
        <ele>431</ele>
        <time>2019-09-06T08:58:03Z</time>
      </trkpt>
      <trkpt lat="43.078310" lon="11.683820">
        <ele>448</ele>
        <time>2019-09-06T08:58:25Z</time>
      </trkpt>
      <trkpt lat="43.076520" lon="11.682230">
        <ele>471</ele>
        <time>2019-09-06T08:59:03Z</time>
      </trkpt>
      <trkpt lat="43.076210" lon="11.681860">
        <ele>474</ele>
        <time>2019-09-06T08:59:10Z</time>
      </trkpt>
      <trkpt lat="43.076110" lon="11.681600">
        <ele>477</ele>
        <time>2019-09-06T08:59:14Z</time>
      </trkpt>
      <trkpt lat="43.076120" lon="11.681480">
        <ele>478</ele>
        <time>2019-09-06T08:59:16Z</time>
      </trkpt>
      <trkpt lat="43.075960" lon="11.680610">
        <ele>480</ele>
        <time>2019-09-06T08:59:27Z</time>
      </trkpt>
      <trkpt lat="43.075990" lon="11.680890">
        <ele>480</ele>
        <time>2019-09-06T08:59:31Z</time>
      </trkpt>
      <trkpt lat="43.076120" lon="11.681480">
        <ele>478</ele>
        <time>2019-09-06T08:59:39Z</time>
      </trkpt>
      <trkpt lat="43.076110" lon="11.681600">
        <ele>477</ele>
        <time>2019-09-06T08:59:40Z</time>
      </trkpt>
      <trkpt lat="43.076210" lon="11.681860">
        <ele>474</ele>
        <time>2019-09-06T08:59:44Z</time>
      </trkpt>
      <trkpt lat="43.076520" lon="11.682230">
        <ele>471</ele>
        <time>2019-09-06T08:59:52Z</time>
      </trkpt>
      <trkpt lat="43.078310" lon="11.683820">
        <ele>448</ele>
        <time>2019-09-06T09:00:30Z</time>
      </trkpt>
      <trkpt lat="43.079310" lon="11.684810">
        <ele>431</ele>
        <time>2019-09-06T09:00:51Z</time>
      </trkpt>
      <trkpt lat="43.079700" lon="11.685140">
        <ele>424</ele>
        <time>2019-09-06T09:01:00Z</time>
      </trkpt>
      <trkpt lat="43.080060" lon="11.685370">
        <ele>418</ele>
        <time>2019-09-06T09:01:07Z</time>
      </trkpt>
      <trkpt lat="43.080170" lon="11.685470">
        <ele>416</ele>
        <time>2019-09-06T09:01:09Z</time>
      </trkpt>
      <trkpt lat="43.080270" lon="11.685620">
        <ele>413</ele>
        <time>2019-09-06T09:01:12Z</time>
      </trkpt>
      <trkpt lat="43.080490" lon="11.686050">
        <ele>407</ele>
        <time>2019-09-06T09:01:19Z</time>
      </trkpt>
      <trkpt lat="43.080560" lon="11.686130">
        <ele>406</ele>
        <time>2019-09-06T09:01:20Z</time>
      </trkpt>
      <trkpt lat="43.080630" lon="11.686170">
        <ele>405</ele>
        <time>2019-09-06T09:01:21Z</time>
      </trkpt>
      <trkpt lat="43.080700" lon="11.686160">
        <ele>405</ele>
        <time>2019-09-06T09:01:23Z</time>
      </trkpt>
      <trkpt lat="43.080740" lon="11.686090">
        <ele>405</ele>
        <time>2019-09-06T09:01:24Z</time>
      </trkpt>
      <trkpt lat="43.080820" lon="11.685800">
        <ele>405</ele>
        <time>2019-09-06T09:01:28Z</time>
      </trkpt>
      <trkpt lat="43.080890" lon="11.685730">
        <ele>406</ele>
        <time>2019-09-06T09:01:29Z</time>
      </trkpt>
      <trkpt lat="43.080970" lon="11.685710">
        <ele>407</ele>
        <time>2019-09-06T09:01:31Z</time>
      </trkpt>
      <trkpt lat="43.081060" lon="11.685740">
        <ele>408</ele>
        <time>2019-09-06T09:01:33Z</time>
      </trkpt>
      <trkpt lat="43.081250" lon="11.685900">
        <ele>409</ele>
        <time>2019-09-06T09:01:37Z</time>
      </trkpt>
      <trkpt lat="43.081360" lon="11.686030">
        <ele>411</ele>
        <time>2019-09-06T09:01:39Z</time>
      </trkpt>
      <trkpt lat="43.081660" lon="11.686640">
        <ele>414</ele>
        <time>2019-09-06T09:01:49Z</time>
      </trkpt>
      <trkpt lat="43.081810" lon="11.687020">
        <ele>417</ele>
        <time>2019-09-06T09:01:54Z</time>
      </trkpt>
      <trkpt lat="43.081870" lon="11.687220">
        <ele>419</ele>
        <time>2019-09-06T09:01:57Z</time>
      </trkpt>
      <trkpt lat="43.081840" lon="11.687400">
        <ele>419</ele>
        <time>2019-09-06T09:02:00Z</time>
      </trkpt>
      <trkpt lat="43.081670" lon="11.687730">
        <ele>418</ele>
        <time>2019-09-06T09:02:05Z</time>
      </trkpt>
      <trkpt lat="43.081340" lon="11.688050">
        <ele>419</ele>
        <time>2019-09-06T09:02:12Z</time>
      </trkpt>
      <trkpt lat="43.080910" lon="11.688290">
        <ele>420</ele>
        <time>2019-09-06T09:02:20Z</time>
      </trkpt>
      <trkpt lat="43.081340" lon="11.689200">
        <ele>417</ele>
        <time>2019-09-06T09:02:34Z</time>
      </trkpt>
      <trkpt lat="43.081460" lon="11.689410">
        <ele>416</ele>
        <time>2019-09-06T09:02:38Z</time>
      </trkpt>
      <trkpt lat="43.081590" lon="11.689790">
        <ele>415</ele>
        <time>2019-09-06T09:02:43Z</time>
      </trkpt>
      <trkpt lat="43.081590" lon="11.690140">
        <ele>412</ele>
        <time>2019-09-06T09:02:48Z</time>
      </trkpt>
      <trkpt lat="43.081670" lon="11.690150">
        <ele>413</ele>
        <time>2019-09-06T09:02:49Z</time>
      </trkpt>
      <trkpt lat="43.081750" lon="11.690230">
        <ele>411</ele>
        <time>2019-09-06T09:02:51Z</time>
      </trkpt>
      <trkpt lat="43.081850" lon="11.690480">
        <ele>407</ele>
        <time>2019-09-06T09:02:55Z</time>
      </trkpt>
      <trkpt lat="43.081870" lon="11.690610">
        <ele>405</ele>
        <time>2019-09-06T09:02:56Z</time>
      </trkpt>
      <trkpt lat="43.081770" lon="11.690980">
        <ele>401</ele>
        <time>2019-09-06T09:03:02Z</time>
      </trkpt>
      <trkpt lat="43.081710" lon="11.691090">
        <ele>400</ele>
        <time>2019-09-06T09:03:03Z</time>
      </trkpt>
      <trkpt lat="43.081640" lon="11.691160">
        <ele>398</ele>
        <time>2019-09-06T09:03:05Z</time>
      </trkpt>
      <trkpt lat="43.081360" lon="11.691230">
        <ele>392</ele>
        <time>2019-09-06T09:03:10Z</time>
      </trkpt>
      <trkpt lat="43.081300" lon="11.691310">
        <ele>390</ele>
        <time>2019-09-06T09:03:11Z</time>
      </trkpt>
      <trkpt lat="43.081130" lon="11.691680">
        <ele>381</ele>
        <time>2019-09-06T09:03:17Z</time>
      </trkpt>
      <trkpt lat="43.080990" lon="11.691820">
        <ele>378</ele>
        <time>2019-09-06T09:03:20Z</time>
      </trkpt>
      <trkpt lat="43.080980" lon="11.692020">
        <ele>375</ele>
        <time>2019-09-06T09:03:23Z</time>
      </trkpt>
      <trkpt lat="43.081060" lon="11.692440">
        <ele>369</ele>
        <time>2019-09-06T09:03:28Z</time>
      </trkpt>
      <trkpt lat="43.081360" lon="11.693100">
        <ele>366</ele>
        <time>2019-09-06T09:03:39Z</time>
      </trkpt>
      <trkpt lat="43.081420" lon="11.693150">
        <ele>366</ele>
        <time>2019-09-06T09:03:40Z</time>
      </trkpt>
      <trkpt lat="43.081620" lon="11.693170">
        <ele>367</ele>
        <time>2019-09-06T09:03:43Z</time>
      </trkpt>
      <trkpt lat="43.081790" lon="11.693110">
        <ele>368</ele>
        <time>2019-09-06T09:03:46Z</time>
      </trkpt>
      <trkpt lat="43.081910" lon="11.693030">
        <ele>369</ele>
        <time>2019-09-06T09:03:49Z</time>
      </trkpt>
      <trkpt lat="43.082120" lon="11.692980">
        <ele>370</ele>
        <time>2019-09-06T09:03:53Z</time>
      </trkpt>
      <trkpt lat="43.082590" lon="11.692670">
        <ele>370</ele>
        <time>2019-09-06T09:04:02Z</time>
      </trkpt>
      <trkpt lat="43.082710" lon="11.692680">
        <ele>370</ele>
        <time>2019-09-06T09:04:04Z</time>
      </trkpt>
      <trkpt lat="43.083120" lon="11.692540">
        <ele>370</ele>
        <time>2019-09-06T09:04:12Z</time>
      </trkpt>
      <trkpt lat="43.083360" lon="11.692560">
        <ele>371</ele>
        <time>2019-09-06T09:04:16Z</time>
      </trkpt>
      <trkpt lat="43.083470" lon="11.692660">
        <ele>373</ele>
        <time>2019-09-06T09:04:18Z</time>
      </trkpt>
      <trkpt lat="43.083550" lon="11.692810">
        <ele>375</ele>
        <time>2019-09-06T09:04:21Z</time>
      </trkpt>
      <trkpt lat="43.084000" lon="11.694180">
        <ele>401</ele>
        <time>2019-09-06T09:04:40Z</time>
      </trkpt>
      <trkpt lat="43.084010" lon="11.694570">
        <ele>406</ele>
        <time>2019-09-06T09:04:45Z</time>
      </trkpt>
      <trkpt lat="43.083960" lon="11.694680">
        <ele>407</ele>
        <time>2019-09-06T09:04:47Z</time>
      </trkpt>
      <trkpt lat="43.083900" lon="11.694720">
        <ele>406</ele>
        <time>2019-09-06T09:04:48Z</time>
      </trkpt>
      <trkpt lat="43.083860" lon="11.694800">
        <ele>406</ele>
        <time>2019-09-06T09:04:49Z</time>
      </trkpt>
      <trkpt lat="43.083830" lon="11.695520">
        <ele>412</ele>
        <time>2019-09-06T09:04:59Z</time>
      </trkpt>
      <trkpt lat="43.084010" lon="11.696000">
        <ele>416</ele>
        <time>2019-09-06T09:05:06Z</time>
      </trkpt>
      <trkpt lat="43.084210" lon="11.696380">
        <ele>418</ele>
        <time>2019-09-06T09:05:12Z</time>
      </trkpt>
      <trkpt lat="43.084210" lon="11.696560">
        <ele>419</ele>
        <time>2019-09-06T09:05:14Z</time>
      </trkpt>
      <trkpt lat="43.084100" lon="11.696800">
        <ele>421</ele>
        <time>2019-09-06T09:05:18Z</time>
      </trkpt>
      <trkpt lat="43.084020" lon="11.696860">
        <ele>422</ele>
        <time>2019-09-06T09:05:19Z</time>
      </trkpt>
      <trkpt lat="43.083890" lon="11.696840">
        <ele>423</ele>
        <time>2019-09-06T09:05:22Z</time>
      </trkpt>
      <trkpt lat="43.083410" lon="11.697600">
        <ele>437</ele>
        <time>2019-09-06T09:05:35Z</time>
      </trkpt>
      <trkpt lat="43.083010" lon="11.698000">
        <ele>444</ele>
        <time>2019-09-06T09:05:44Z</time>
      </trkpt>
      <trkpt lat="43.082800" lon="11.698430">
        <ele>448</ele>
        <time>2019-09-06T09:05:50Z</time>
      </trkpt>
      <trkpt lat="43.082920" lon="11.698540">
        <ele>447</ele>
        <time>2019-09-06T09:05:53Z</time>
      </trkpt>
      <trkpt lat="43.083200" lon="11.698640">
        <ele>445</ele>
        <time>2019-09-06T09:05:58Z</time>
      </trkpt>
      <trkpt lat="43.083430" lon="11.698830">
        <ele>445</ele>
        <time>2019-09-06T09:06:03Z</time>
      </trkpt>
      <trkpt lat="43.083930" lon="11.699140">
        <ele>445</ele>
        <time>2019-09-06T09:06:13Z</time>
      </trkpt>
      <trkpt lat="43.084530" lon="11.699460">
        <ele>442</ele>
        <time>2019-09-06T09:06:24Z</time>
      </trkpt>
      <trkpt lat="43.085130" lon="11.700030">
        <ele>442</ele>
        <time>2019-09-06T09:06:37Z</time>
      </trkpt>
      <trkpt lat="43.085490" lon="11.700500">
        <ele>440</ele>
        <time>2019-09-06T09:06:46Z</time>
      </trkpt>
      <trkpt lat="43.085780" lon="11.700830">
        <ele>442</ele>
        <time>2019-09-06T09:06:53Z</time>
      </trkpt>
      <trkpt lat="43.086100" lon="11.701100">
        <ele>443</ele>
        <time>2019-09-06T09:06:59Z</time>
      </trkpt>
      <trkpt lat="43.086370" lon="11.701260">
        <ele>444</ele>
        <time>2019-09-06T09:07:05Z</time>
      </trkpt>
      <trkpt lat="43.086600" lon="11.701330">
        <ele>445</ele>
        <time>2019-09-06T09:07:09Z</time>
      </trkpt>
      <trkpt lat="43.086910" lon="11.701350">
        <ele>445</ele>
        <time>2019-09-06T09:07:14Z</time>
      </trkpt>
      <trkpt lat="43.087160" lon="11.701280">
        <ele>446</ele>
        <time>2019-09-06T09:07:19Z</time>
      </trkpt>
      <trkpt lat="43.087710" lon="11.701010">
        <ele>447</ele>
        <time>2019-09-06T09:07:29Z</time>
      </trkpt>
      <trkpt lat="43.087830" lon="11.700990">
        <ele>448</ele>
        <time>2019-09-06T09:07:31Z</time>
      </trkpt>
      <trkpt lat="43.088000" lon="11.701010">
        <ele>449</ele>
        <time>2019-09-06T09:07:34Z</time>
      </trkpt>
      <trkpt lat="43.088140" lon="11.701060">
        <ele>449</ele>
        <time>2019-09-06T09:07:37Z</time>
      </trkpt>
      <trkpt lat="43.088350" lon="11.701190">
        <ele>450</ele>
        <time>2019-09-06T09:07:41Z</time>
      </trkpt>
      <trkpt lat="43.088440" lon="11.701310">
        <ele>450</ele>
        <time>2019-09-06T09:07:43Z</time>
      </trkpt>
      <trkpt lat="43.089830" lon="11.704150">
        <ele>450</ele>
        <time>2019-09-06T09:08:28Z</time>
      </trkpt>
      <trkpt lat="43.090210" lon="11.704780">
        <ele>449</ele>
        <time>2019-09-06T09:08:38Z</time>
      </trkpt>
      <trkpt lat="43.092700" lon="11.710480">
        <ele>478</ele>
        <time>2019-09-06T09:10:05Z</time>
      </trkpt>
      <trkpt lat="43.093360" lon="11.712090">
        <ele>484</ele>
        <time>2019-09-06T09:10:29Z</time>
      </trkpt>
      <trkpt lat="43.093440" lon="11.712420">
        <ele>485</ele>
        <time>2019-09-06T09:10:33Z</time>
      </trkpt>
      <trkpt lat="43.093660" lon="11.713650">
        <ele>489</ele>
        <time>2019-09-06T09:10:50Z</time>
      </trkpt>
      <trkpt lat="43.093750" lon="11.713890">
        <ele>490</ele>
        <time>2019-09-06T09:10:53Z</time>
      </trkpt>
      <trkpt lat="43.093880" lon="11.714050">
        <ele>492</ele>
        <time>2019-09-06T09:10:56Z</time>
      </trkpt>
      <trkpt lat="43.093950" lon="11.714090">
        <ele>493</ele>
        <time>2019-09-06T09:10:58Z</time>
      </trkpt>
      <trkpt lat="43.095070" lon="11.714520">
        <ele>506</ele>
        <time>2019-09-06T09:11:18Z</time>
      </trkpt>
      <trkpt lat="43.095180" lon="11.714600">
        <ele>507</ele>
        <time>2019-09-06T09:11:20Z</time>
      </trkpt>
      <trkpt lat="43.095270" lon="11.714740">
        <ele>508</ele>
        <time>2019-09-06T09:11:23Z</time>
      </trkpt>
      <trkpt lat="43.095400" lon="11.715100">
        <ele>509</ele>
        <time>2019-09-06T09:11:28Z</time>
      </trkpt>
      <trkpt lat="43.095530" lon="11.715370">
        <ele>508</ele>
        <time>2019-09-06T09:11:32Z</time>
      </trkpt>
      <trkpt lat="43.095970" lon="11.715870">
        <ele>507</ele>
        <time>2019-09-06T09:11:43Z</time>
      </trkpt>
      <trkpt lat="43.096210" lon="11.716240">
        <ele>505</ele>
        <time>2019-09-06T09:11:49Z</time>
      </trkpt>
      <trkpt lat="43.096810" lon="11.717380">
        <ele>500</ele>
        <time>2019-09-06T09:12:07Z</time>
      </trkpt>
      <trkpt lat="43.097110" lon="11.718030">
        <ele>498</ele>
        <time>2019-09-06T09:12:17Z</time>
      </trkpt>
      <trkpt lat="43.097410" lon="11.718220">
        <ele>501</ele>
        <time>2019-09-06T09:12:23Z</time>
      </trkpt>
      <trkpt lat="43.097530" lon="11.718330">
        <ele>502</ele>
        <time>2019-09-06T09:12:26Z</time>
      </trkpt>
      <trkpt lat="43.098020" lon="11.719040">
        <ele>504</ele>
        <time>2019-09-06T09:12:38Z</time>
      </trkpt>
      <trkpt lat="43.098230" lon="11.719270">
        <ele>505</ele>
        <time>2019-09-06T09:12:43Z</time>
      </trkpt>
      <trkpt lat="43.098590" lon="11.719500">
        <ele>504</ele>
        <time>2019-09-06T09:12:50Z</time>
      </trkpt>
      <trkpt lat="43.098760" lon="11.719520">
        <ele>504</ele>
        <time>2019-09-06T09:12:53Z</time>
      </trkpt>
      <trkpt lat="43.099120" lon="11.719470">
        <ele>506</ele>
        <time>2019-09-06T09:13:00Z</time>
      </trkpt>
      <trkpt lat="43.099400" lon="11.719510">
        <ele>506</ele>
        <time>2019-09-06T09:13:05Z</time>
      </trkpt>
      <trkpt lat="43.100010" lon="11.720010">
        <ele>507</ele>
        <time>2019-09-06T09:13:17Z</time>
      </trkpt>
      <trkpt lat="43.100380" lon="11.720370">
        <ele>504</ele>
        <time>2019-09-06T09:13:25Z</time>
      </trkpt>
      <trkpt lat="43.100490" lon="11.720530">
        <ele>503</ele>
        <time>2019-09-06T09:13:28Z</time>
      </trkpt>
      <trkpt lat="43.100570" lon="11.720730">
        <ele>502</ele>
        <time>2019-09-06T09:13:31Z</time>
      </trkpt>
      <trkpt lat="43.100760" lon="11.721440">
        <ele>497</ele>
        <time>2019-09-06T09:13:41Z</time>
      </trkpt>
      <trkpt lat="43.100940" lon="11.721770">
        <ele>495</ele>
        <time>2019-09-06T09:13:46Z</time>
      </trkpt>
      <trkpt lat="43.101120" lon="11.722030">
        <ele>493</ele>
        <time>2019-09-06T09:13:51Z</time>
      </trkpt>
      <trkpt lat="43.101610" lon="11.722910">
        <ele>491</ele>
        <time>2019-09-06T09:14:05Z</time>
      </trkpt>
      <trkpt lat="43.101810" lon="11.723340">
        <ele>489</ele>
        <time>2019-09-06T09:14:12Z</time>
      </trkpt>
      <trkpt lat="43.101970" lon="11.723790">
        <ele>485</ele>
        <time>2019-09-06T09:14:19Z</time>
      </trkpt>
      <trkpt lat="43.102150" lon="11.723560">
        <ele>486</ele>
        <time>2019-09-06T09:14:23Z</time>
      </trkpt>
      <trkpt lat="43.102300" lon="11.723460">
        <ele>487</ele>
        <time>2019-09-06T09:14:26Z</time>
      </trkpt>
      <trkpt lat="43.103860" lon="11.723390">
        <ele>486</ele>
        <time>2019-09-06T09:14:54Z</time>
      </trkpt>
      <trkpt lat="43.104900" lon="11.723430">
        <ele>490</ele>
        <time>2019-09-06T09:15:12Z</time>
      </trkpt>
      <trkpt lat="43.105110" lon="11.723460">
        <ele>490</ele>
        <time>2019-09-06T09:15:16Z</time>
      </trkpt>
      <trkpt lat="43.106030" lon="11.723870">
        <ele>489</ele>
        <time>2019-09-06T09:15:33Z</time>
      </trkpt>
      <trkpt lat="43.106260" lon="11.723910">
        <ele>488</ele>
        <time>2019-09-06T09:15:37Z</time>
      </trkpt>
      <trkpt lat="43.107890" lon="11.723970">
        <ele>488</ele>
        <time>2019-09-06T09:16:06Z</time>
      </trkpt>
      <trkpt lat="43.108180" lon="11.723950">
        <ele>488</ele>
        <time>2019-09-06T09:16:11Z</time>
      </trkpt>
      <trkpt lat="43.108330" lon="11.723890">
        <ele>489</ele>
        <time>2019-09-06T09:16:14Z</time>
      </trkpt>
      <trkpt lat="43.108500" lon="11.723760">
        <ele>488</ele>
        <time>2019-09-06T09:16:18Z</time>
      </trkpt>
      <trkpt lat="43.108720" lon="11.723430">
        <ele>489</ele>
        <time>2019-09-06T09:16:23Z</time>
      </trkpt>
      <trkpt lat="43.108820" lon="11.723170">
        <ele>490</ele>
        <time>2019-09-06T09:16:27Z</time>
      </trkpt>
      <trkpt lat="43.108870" lon="11.722730">
        <ele>492</ele>
        <time>2019-09-06T09:16:33Z</time>
      </trkpt>
      <trkpt lat="43.108700" lon="11.721820">
        <ele>495</ele>
        <time>2019-09-06T09:16:45Z</time>
      </trkpt>
      <trkpt lat="43.108530" lon="11.721250">
        <ele>496</ele>
        <time>2019-09-06T09:16:53Z</time>
      </trkpt>
      <trkpt lat="43.108350" lon="11.720820">
        <ele>499</ele>
        <time>2019-09-06T09:17:00Z</time>
      </trkpt>
      <trkpt lat="43.107890" lon="11.719940">
        <ele>493</ele>
        <time>2019-09-06T09:17:14Z</time>
      </trkpt>
      <trkpt lat="43.107960" lon="11.719880">
        <ele>492</ele>
        <time>2019-09-06T09:17:15Z</time>
      </trkpt>
      <trkpt lat="43.108050" lon="11.719920">
        <ele>492</ele>
        <time>2019-09-06T09:17:17Z</time>
      </trkpt>
      <trkpt lat="43.108600" lon="11.720760">
        <ele>494</ele>
        <time>2019-09-06T09:17:32Z</time>
      </trkpt>
      <trkpt lat="43.108750" lon="11.720890">
        <ele>493</ele>
        <time>2019-09-06T09:17:35Z</time>
      </trkpt>
      <trkpt lat="43.109120" lon="11.721050">
        <ele>488</ele>
        <time>2019-09-06T09:17:42Z</time>
      </trkpt>
      <trkpt lat="43.109290" lon="11.721160">
        <ele>486</ele>
        <time>2019-09-06T09:17:45Z</time>
      </trkpt>
      <trkpt lat="43.109400" lon="11.721270">
        <ele>484</ele>
        <time>2019-09-06T09:17:47Z</time>
      </trkpt>
      <trkpt lat="43.109620" lon="11.721710">
        <ele>482</ele>
        <time>2019-09-06T09:17:54Z</time>
      </trkpt>
      <trkpt lat="43.110000" lon="11.722770">
        <ele>475</ele>
        <time>2019-09-06T09:18:10Z</time>
      </trkpt>
      <trkpt lat="43.110430" lon="11.723810">
        <ele>470</ele>
        <time>2019-09-06T09:18:25Z</time>
      </trkpt>
      <trkpt lat="43.110620" lon="11.724060">
        <ele>468</ele>
        <time>2019-09-06T09:18:30Z</time>
      </trkpt>
      <trkpt lat="43.110850" lon="11.724180">
        <ele>466</ele>
        <time>2019-09-06T09:18:34Z</time>
      </trkpt>
      <trkpt lat="43.111420" lon="11.724360">
        <ele>464</ele>
        <time>2019-09-06T09:18:45Z</time>
      </trkpt>
      <trkpt lat="43.111580" lon="11.724360">
        <ele>464</ele>
        <time>2019-09-06T09:18:48Z</time>
      </trkpt>
      <trkpt lat="43.111920" lon="11.724270">
        <ele>465</ele>
        <time>2019-09-06T09:18:54Z</time>
      </trkpt>
      <trkpt lat="43.112120" lon="11.724190">
        <ele>465</ele>
        <time>2019-09-06T09:18:57Z</time>
      </trkpt>
      <trkpt lat="43.112270" lon="11.724090">
        <ele>465</ele>
        <time>2019-09-06T09:19:00Z</time>
      </trkpt>
      <trkpt lat="43.112390" lon="11.723930">
        <ele>465</ele>
        <time>2019-09-06T09:19:03Z</time>
      </trkpt>
      <trkpt lat="43.112740" lon="11.723350">
        <ele>462</ele>
        <time>2019-09-06T09:19:13Z</time>
      </trkpt>
      <trkpt lat="43.113100" lon="11.722950">
        <ele>461</ele>
        <time>2019-09-06T09:19:21Z</time>
      </trkpt>
      <trkpt lat="43.113530" lon="11.722700">
        <ele>462</ele>
        <time>2019-09-06T09:19:30Z</time>
      </trkpt>
      <trkpt lat="43.113660" lon="11.722670">
        <ele>463</ele>
        <time>2019-09-06T09:19:32Z</time>
      </trkpt>
      <trkpt lat="43.113800" lon="11.722690">
        <ele>463</ele>
        <time>2019-09-06T09:19:35Z</time>
      </trkpt>
      <trkpt lat="43.115370" lon="11.723130">
        <ele>459</ele>
        <time>2019-09-06T09:20:03Z</time>
      </trkpt>
      <trkpt lat="43.116140" lon="11.723380">
        <ele>457</ele>
        <time>2019-09-06T09:20:17Z</time>
      </trkpt>
      <trkpt lat="43.116700" lon="11.723680">
        <ele>456</ele>
        <time>2019-09-06T09:20:28Z</time>
      </trkpt>
      <trkpt lat="43.116940" lon="11.723750">
        <ele>457</ele>
        <time>2019-09-06T09:20:32Z</time>
      </trkpt>
      <trkpt lat="43.117420" lon="11.723800">
        <ele>459</ele>
        <time>2019-09-06T09:20:41Z</time>
      </trkpt>
      <trkpt lat="43.118400" lon="11.723850">
        <ele>464</ele>
        <time>2019-09-06T09:20:58Z</time>
      </trkpt>
      <trkpt lat="43.118550" lon="11.723910">
        <ele>464</ele>
        <time>2019-09-06T09:21:01Z</time>
      </trkpt>
      <trkpt lat="43.119000" lon="11.724180">
        <ele>463</ele>
        <time>2019-09-06T09:21:10Z</time>
      </trkpt>
      <trkpt lat="43.119370" lon="11.724350">
        <ele>462</ele>
        <time>2019-09-06T09:21:17Z</time>
      </trkpt>
      <trkpt lat="43.119900" lon="11.724400">
        <ele>461</ele>
        <time>2019-09-06T09:21:26Z</time>
      </trkpt>
      <trkpt lat="43.120290" lon="11.724380">
        <ele>462</ele>
        <time>2019-09-06T09:21:33Z</time>
      </trkpt>
      <trkpt lat="43.120980" lon="11.724310">
        <ele>465</ele>
        <time>2019-09-06T09:21:45Z</time>
      </trkpt>
      <trkpt lat="43.123080" lon="11.723980">
        <ele>475</ele>
        <time>2019-09-06T09:22:23Z</time>
      </trkpt>
      <trkpt lat="43.123370" lon="11.723980">
        <ele>477</ele>
        <time>2019-09-06T09:22:28Z</time>
      </trkpt>
      <trkpt lat="43.125220" lon="11.724300">
        <ele>491</ele>
        <time>2019-09-06T09:23:01Z</time>
      </trkpt>
      <trkpt lat="43.125340" lon="11.724390">
        <ele>491</ele>
        <time>2019-09-06T09:23:04Z</time>
      </trkpt>
      <trkpt lat="43.125700" lon="11.724800">
        <ele>495</ele>
        <time>2019-09-06T09:23:12Z</time>
      </trkpt>
      <trkpt lat="43.126030" lon="11.725040">
        <ele>497</ele>
        <time>2019-09-06T09:23:19Z</time>
      </trkpt>
      <trkpt lat="43.127740" lon="11.726140">
        <ele>500</ele>
        <time>2019-09-06T09:23:52Z</time>
      </trkpt>
      <trkpt lat="43.127950" lon="11.726340">
        <ele>501</ele>
        <time>2019-09-06T09:23:57Z</time>
      </trkpt>
      <trkpt lat="43.128050" lon="11.726470">
        <ele>501</ele>
        <time>2019-09-06T09:23:59Z</time>
      </trkpt>
      <trkpt lat="43.128220" lon="11.726840">
        <ele>503</ele>
        <time>2019-09-06T09:24:05Z</time>
      </trkpt>
      <trkpt lat="43.128280" lon="11.727130">
        <ele>504</ele>
        <time>2019-09-06T09:24:09Z</time>
      </trkpt>
      <trkpt lat="43.128340" lon="11.727710">
        <ele>506</ele>
        <time>2019-09-06T09:24:17Z</time>
      </trkpt>
      <trkpt lat="43.128410" lon="11.727900">
        <ele>508</ele>
        <time>2019-09-06T09:24:19Z</time>
      </trkpt>
      <trkpt lat="43.128500" lon="11.728010">
        <ele>509</ele>
        <time>2019-09-06T09:24:21Z</time>
      </trkpt>
      <trkpt lat="43.128660" lon="11.728070">
        <ele>510</ele>
        <time>2019-09-06T09:24:24Z</time>
      </trkpt>
      <trkpt lat="43.128900" lon="11.728050">
        <ele>512</ele>
        <time>2019-09-06T09:24:29Z</time>
      </trkpt>
      <trkpt lat="43.129430" lon="11.727940">
        <ele>515</ele>
        <time>2019-09-06T09:24:38Z</time>
      </trkpt>
      <trkpt lat="43.129610" lon="11.727950">
        <ele>515</ele>
        <time>2019-09-06T09:24:41Z</time>
      </trkpt>
      <trkpt lat="43.130790" lon="11.728210">
        <ele>519</ele>
        <time>2019-09-06T09:25:03Z</time>
      </trkpt>
      <trkpt lat="43.131040" lon="11.728360">
        <ele>518</ele>
        <time>2019-09-06T09:25:08Z</time>
      </trkpt>
      <trkpt lat="43.131660" lon="11.729120">
        <ele>521</ele>
        <time>2019-09-06T09:25:22Z</time>
      </trkpt>
      <trkpt lat="43.132170" lon="11.729400">
        <ele>520</ele>
        <time>2019-09-06T09:25:32Z</time>
      </trkpt>
      <trkpt lat="43.132760" lon="11.729870">
        <ele>517</ele>
        <time>2019-09-06T09:25:44Z</time>
      </trkpt>
      <trkpt lat="43.132920" lon="11.729930">
        <ele>516</ele>
        <time>2019-09-06T09:25:47Z</time>
      </trkpt>
      <trkpt lat="43.133080" lon="11.729940">
        <ele>515</ele>
        <time>2019-09-06T09:25:50Z</time>
      </trkpt>
      <trkpt lat="43.133220" lon="11.729880">
        <ele>514</ele>
        <time>2019-09-06T09:25:53Z</time>
      </trkpt>
      <trkpt lat="43.133410" lon="11.729740">
        <ele>514</ele>
        <time>2019-09-06T09:25:57Z</time>
      </trkpt>
      <trkpt lat="43.133620" lon="11.729630">
        <ele>514</ele>
        <time>2019-09-06T09:26:01Z</time>
      </trkpt>
      <trkpt lat="43.133910" lon="11.729540">
        <ele>513</ele>
        <time>2019-09-06T09:26:06Z</time>
      </trkpt>
      <trkpt lat="43.134080" lon="11.729510">
        <ele>512</ele>
        <time>2019-09-06T09:26:09Z</time>
      </trkpt>
      <trkpt lat="43.134180" lon="11.729520">
        <ele>512</ele>
        <time>2019-09-06T09:26:11Z</time>
      </trkpt>
      <trkpt lat="43.134310" lon="11.729420">
        <ele>513</ele>
        <time>2019-09-06T09:26:13Z</time>
      </trkpt>
      <trkpt lat="43.135590" lon="11.729330">
        <ele>522</ele>
        <time>2019-09-06T09:26:36Z</time>
      </trkpt>
      <trkpt lat="43.136000" lon="11.729240">
        <ele>525</ele>
        <time>2019-09-06T09:26:44Z</time>
      </trkpt>
      <trkpt lat="43.137170" lon="11.728790">
        <ele>533</ele>
        <time>2019-09-06T09:27:05Z</time>
      </trkpt>
      <trkpt lat="43.137390" lon="11.728730">
        <ele>535</ele>
        <time>2019-09-06T09:27:09Z</time>
      </trkpt>
      <trkpt lat="43.137490" lon="11.728730">
        <ele>535</ele>
        <time>2019-09-06T09:27:11Z</time>
      </trkpt>
      <trkpt lat="43.137820" lon="11.728830">
        <ele>535</ele>
        <time>2019-09-06T09:27:17Z</time>
      </trkpt>
      <trkpt lat="43.138030" lon="11.728830">
        <ele>535</ele>
        <time>2019-09-06T09:27:21Z</time>
      </trkpt>
      <trkpt lat="43.138200" lon="11.728800">
        <ele>536</ele>
        <time>2019-09-06T09:27:24Z</time>
      </trkpt>
      <trkpt lat="43.139570" lon="11.728090">
        <ele>538</ele>
        <time>2019-09-06T09:27:50Z</time>
      </trkpt>
      <trkpt lat="43.139690" lon="11.728050">
        <ele>538</ele>
        <time>2019-09-06T09:27:52Z</time>
      </trkpt>
      <trkpt lat="43.140360" lon="11.727990">
        <ele>542</ele>
        <time>2019-09-06T09:28:04Z</time>
      </trkpt>
      <trkpt lat="43.140580" lon="11.727920">
        <ele>543</ele>
        <time>2019-09-06T09:28:08Z</time>
      </trkpt>
      <trkpt lat="43.141330" lon="11.727510">
        <ele>548</ele>
        <time>2019-09-06T09:28:22Z</time>
      </trkpt>
      <trkpt lat="43.142680" lon="11.726890">
        <ele>550</ele>
        <time>2019-09-06T09:28:48Z</time>
      </trkpt>
      <trkpt lat="43.143790" lon="11.726340">
        <ele>547</ele>
        <time>2019-09-06T09:29:09Z</time>
      </trkpt>
      <trkpt lat="43.144100" lon="11.726230">
        <ele>546</ele>
        <time>2019-09-06T09:29:14Z</time>
      </trkpt>
      <trkpt lat="43.144270" lon="11.726130">
        <ele>544</ele>
        <time>2019-09-06T09:29:18Z</time>
      </trkpt>
      <trkpt lat="43.144740" lon="11.726840">
        <ele>544</ele>
        <time>2019-09-06T09:29:30Z</time>
      </trkpt>
      <trkpt lat="43.144900" lon="11.727040">
        <ele>545</ele>
        <time>2019-09-06T09:29:34Z</time>
      </trkpt>
      <trkpt lat="43.145500" lon="11.727090">
        <ele>535</ele>
        <time>2019-09-06T09:29:45Z</time>
      </trkpt>
      <trkpt lat="43.145660" lon="11.727200">
        <ele>532</ele>
        <time>2019-09-06T09:29:48Z</time>
      </trkpt>
      <trkpt lat="43.146060" lon="11.727970">
        <ele>526</ele>
        <time>2019-09-06T09:30:00Z</time>
      </trkpt>
      <trkpt lat="43.146340" lon="11.728400">
        <ele>521</ele>
        <time>2019-09-06T09:30:08Z</time>
      </trkpt>
      <trkpt lat="43.146280" lon="11.728940">
        <ele>518</ele>
        <time>2019-09-06T09:30:15Z</time>
      </trkpt>
      <trkpt lat="43.146180" lon="11.729490">
        <ele>514</ele>
        <time>2019-09-06T09:30:22Z</time>
      </trkpt>
      <trkpt lat="43.145990" lon="11.729830">
        <ele>512</ele>
        <time>2019-09-06T09:30:28Z</time>
      </trkpt>
      <trkpt lat="43.145810" lon="11.730020">
        <ele>512</ele>
        <time>2019-09-06T09:30:32Z</time>
      </trkpt>
      <trkpt lat="43.145760" lon="11.730190">
        <ele>512</ele>
        <time>2019-09-06T09:30:34Z</time>
      </trkpt>
      <trkpt lat="43.145860" lon="11.730400">
        <ele>509</ele>
        <time>2019-09-06T09:30:37Z</time>
      </trkpt>
      <trkpt lat="43.146130" lon="11.730800">
        <ele>503</ele>
        <time>2019-09-06T09:30:44Z</time>
      </trkpt>
      <trkpt lat="43.147050" lon="11.731880">
        <ele>484</ele>
        <time>2019-09-06T09:31:06Z</time>
      </trkpt>
      <trkpt lat="43.147500" lon="11.732900">
        <ele>470</ele>
        <time>2019-09-06T09:31:21Z</time>
      </trkpt>
      <trkpt lat="43.148830" lon="11.735450">
        <ele>446</ele>
        <time>2019-09-06T09:32:02Z</time>
      </trkpt>
      <trkpt lat="43.149210" lon="11.735870">
        <ele>441</ele>
        <time>2019-09-06T09:32:11Z</time>
      </trkpt>
      <trkpt lat="43.149440" lon="11.736080">
        <ele>437</ele>
        <time>2019-09-06T09:32:16Z</time>
      </trkpt>
      <trkpt lat="43.149880" lon="11.736980">
        <ele>430</ele>
        <time>2019-09-06T09:32:30Z</time>
      </trkpt>
      <trkpt lat="43.149970" lon="11.737220">
        <ele>429</ele>
        <time>2019-09-06T09:32:33Z</time>
      </trkpt>
      <trkpt lat="43.150150" lon="11.737510">
        <ele>427</ele>
        <time>2019-09-06T09:32:38Z</time>
      </trkpt>
      <trkpt lat="43.151170" lon="11.737510">
        <ele>416</ele>
        <time>2019-09-06T09:32:56Z</time>
      </trkpt>
      <trkpt lat="43.151450" lon="11.737600">
        <ele>415</ele>
        <time>2019-09-06T09:33:01Z</time>
      </trkpt>
      <trkpt lat="43.151790" lon="11.738040">
        <ele>412</ele>
        <time>2019-09-06T09:33:10Z</time>
      </trkpt>
      <trkpt lat="43.152140" lon="11.739010">
        <ele>406</ele>
        <time>2019-09-06T09:33:24Z</time>
      </trkpt>
      <trkpt lat="43.152430" lon="11.739550">
        <ele>400</ele>
        <time>2019-09-06T09:33:32Z</time>
      </trkpt>
      <trkpt lat="43.152710" lon="11.739770">
        <ele>396</ele>
        <time>2019-09-06T09:33:38Z</time>
      </trkpt>
      <trkpt lat="43.153020" lon="11.740200">
        <ele>391</ele>
        <time>2019-09-06T09:33:46Z</time>
      </trkpt>
      <trkpt lat="43.152810" lon="11.740520">
        <ele>388</ele>
        <time>2019-09-06T09:33:52Z</time>
      </trkpt>
      <trkpt lat="43.153320" lon="11.740820">
        <ele>387</ele>
        <time>2019-09-06T09:34:02Z</time>
      </trkpt>
      <trkpt lat="43.153710" lon="11.741130">
        <ele>380</ele>
        <time>2019-09-06T09:34:10Z</time>
      </trkpt>
      <trkpt lat="43.153910" lon="11.741390">
        <ele>377</ele>
        <time>2019-09-06T09:34:14Z</time>
      </trkpt>
      <trkpt lat="43.154140" lon="11.741900">
        <ele>374</ele>
        <time>2019-09-06T09:34:22Z</time>
      </trkpt>
      <trkpt lat="43.154280" lon="11.742630">
        <ele>370</ele>
        <time>2019-09-06T09:34:32Z</time>
      </trkpt>
      <trkpt lat="43.154260" lon="11.742960">
        <ele>370</ele>
        <time>2019-09-06T09:34:36Z</time>
      </trkpt>
      <trkpt lat="43.154180" lon="11.743270">
        <ele>370</ele>
        <time>2019-09-06T09:34:41Z</time>
      </trkpt>
      <trkpt lat="43.153990" lon="11.744380">
        <ele>373</ele>
        <time>2019-09-06T09:34:55Z</time>
      </trkpt>
      <trkpt lat="43.154000" lon="11.744640">
        <ele>373</ele>
        <time>2019-09-06T09:34:59Z</time>
      </trkpt>
      <trkpt lat="43.154220" lon="11.745820">
        <ele>371</ele>
        <time>2019-09-06T09:35:15Z</time>
      </trkpt>
      <trkpt lat="43.154430" lon="11.747380">
        <ele>365</ele>
        <time>2019-09-06T09:35:35Z</time>
      </trkpt>
      <trkpt lat="43.154660" lon="11.748050">
        <ele>363</ele>
        <time>2019-09-06T09:35:45Z</time>
      </trkpt>
      <trkpt lat="43.154850" lon="11.748780">
        <ele>366</ele>
        <time>2019-09-06T09:35:55Z</time>
      </trkpt>
      <trkpt lat="43.155360" lon="11.749330">
        <ele>365</ele>
        <time>2019-09-06T09:36:06Z</time>
      </trkpt>
      <trkpt lat="43.155560" lon="11.749740">
        <ele>361</ele>
        <time>2019-09-06T09:36:13Z</time>
      </trkpt>
      <trkpt lat="43.156280" lon="11.751490">
        <ele>358</ele>
        <time>2019-09-06T09:36:39Z</time>
      </trkpt>
      <trkpt lat="43.156420" lon="11.751760">
        <ele>360</ele>
        <time>2019-09-06T09:36:43Z</time>
      </trkpt>
      <trkpt lat="43.156540" lon="11.751890">
        <ele>360</ele>
        <time>2019-09-06T09:36:46Z</time>
      </trkpt>
      <trkpt lat="43.157020" lon="11.752200">
        <ele>360</ele>
        <time>2019-09-06T09:36:55Z</time>
      </trkpt>
      <trkpt lat="43.157200" lon="11.752390">
        <ele>360</ele>
        <time>2019-09-06T09:36:59Z</time>
      </trkpt>
      <trkpt lat="43.157320" lon="11.752590">
        <ele>360</ele>
        <time>2019-09-06T09:37:03Z</time>
      </trkpt>
      <trkpt lat="43.157670" lon="11.753410">
        <ele>360</ele>
        <time>2019-09-06T09:37:15Z</time>
      </trkpt>
      <trkpt lat="43.157850" lon="11.753670">
        <ele>358</ele>
        <time>2019-09-06T09:37:20Z</time>
      </trkpt>
      <trkpt lat="43.158660" lon="11.754700">
        <ele>350</ele>
        <time>2019-09-06T09:37:39Z</time>
      </trkpt>
      <trkpt lat="43.158850" lon="11.754880">
        <ele>350</ele>
        <time>2019-09-06T09:37:43Z</time>
      </trkpt>
      <trkpt lat="43.159080" lon="11.755020">
        <ele>351</ele>
        <time>2019-09-06T09:37:48Z</time>
      </trkpt>
      <trkpt lat="43.159230" lon="11.755070">
        <ele>352</ele>
        <time>2019-09-06T09:37:51Z</time>
      </trkpt>
      <trkpt lat="43.160890" lon="11.755360">
        <ele>351</ele>
        <time>2019-09-06T09:38:20Z</time>
      </trkpt>
      <trkpt lat="43.161080" lon="11.755450">
        <ele>349</ele>
        <time>2019-09-06T09:38:24Z</time>
      </trkpt>
      <trkpt lat="43.161660" lon="11.756160">
        <ele>350</ele>
        <time>2019-09-06T09:38:38Z</time>
      </trkpt>
      <trkpt lat="43.162110" lon="11.756570">
        <ele>352</ele>
        <time>2019-09-06T09:38:48Z</time>
      </trkpt>
      <trkpt lat="43.162430" lon="11.756940">
        <ele>354</ele>
        <time>2019-09-06T09:38:55Z</time>
      </trkpt>
      <trkpt lat="43.162920" lon="11.757780">
        <ele>349</ele>
        <time>2019-09-06T09:39:09Z</time>
      </trkpt>
      <trkpt lat="43.163030" lon="11.758030">
        <ele>349</ele>
        <time>2019-09-06T09:39:13Z</time>
      </trkpt>
      <trkpt lat="43.163060" lon="11.758170">
        <ele>349</ele>
        <time>2019-09-06T09:39:15Z</time>
      </trkpt>
      <trkpt lat="43.163230" lon="11.758310">
        <ele>348</ele>
        <time>2019-09-06T09:39:18Z</time>
      </trkpt>
      <trkpt lat="43.163950" lon="11.759070">
        <ele>342</ele>
        <time>2019-09-06T09:39:34Z</time>
      </trkpt>
      <trkpt lat="43.164700" lon="11.759480">
        <ele>336</ele>
        <time>2019-09-06T09:39:49Z</time>
      </trkpt>
      <trkpt lat="43.165240" lon="11.759650">
        <ele>331</ele>
        <time>2019-09-06T09:39:59Z</time>
      </trkpt>
      <trkpt lat="43.165630" lon="11.759710">
        <ele>330</ele>
        <time>2019-09-06T09:40:06Z</time>
      </trkpt>
      <trkpt lat="43.165810" lon="11.759890">
        <ele>330</ele>
        <time>2019-09-06T09:40:09Z</time>
      </trkpt>
      <trkpt lat="43.166370" lon="11.760730">
        <ele>329</ele>
        <time>2019-09-06T09:40:24Z</time>
      </trkpt>
      <trkpt lat="43.166450" lon="11.760810">
        <ele>329</ele>
        <time>2019-09-06T09:40:26Z</time>
      </trkpt>
      <trkpt lat="43.166860" lon="11.760960">
        <ele>329</ele>
        <time>2019-09-06T09:40:34Z</time>
      </trkpt>
      <trkpt lat="43.167140" lon="11.761200">
        <ele>326</ele>
        <time>2019-09-06T09:40:39Z</time>
      </trkpt>
      <trkpt lat="43.167570" lon="11.761860">
        <ele>328</ele>
        <time>2019-09-06T09:40:51Z</time>
      </trkpt>
      <trkpt lat="43.167960" lon="11.762570">
        <ele>330</ele>
        <time>2019-09-06T09:41:02Z</time>
      </trkpt>
      <trkpt lat="43.168230" lon="11.763150">
        <ele>332</ele>
        <time>2019-09-06T09:41:11Z</time>
      </trkpt>
      <trkpt lat="43.168660" lon="11.763710">
        <ele>332</ele>
        <time>2019-09-06T09:41:22Z</time>
      </trkpt>
      <trkpt lat="43.168860" lon="11.763860">
        <ele>332</ele>
        <time>2019-09-06T09:41:26Z</time>
      </trkpt>
      <trkpt lat="43.169180" lon="11.763840">
        <ele>332</ele>
        <time>2019-09-06T09:41:32Z</time>
      </trkpt>
      <trkpt lat="43.169410" lon="11.763970">
        <ele>330</ele>
        <time>2019-09-06T09:41:36Z</time>
      </trkpt>
      <trkpt lat="43.169500" lon="11.764050">
        <ele>330</ele>
        <time>2019-09-06T09:41:38Z</time>
      </trkpt>
      <trkpt lat="43.170230" lon="11.765000">
        <ele>328</ele>
        <time>2019-09-06T09:41:56Z</time>
      </trkpt>
      <trkpt lat="43.170420" lon="11.765210">
        <ele>324</ele>
        <time>2019-09-06T09:42:00Z</time>
      </trkpt>
      <trkpt lat="43.171200" lon="11.765850">
        <ele>320</ele>
        <time>2019-09-06T09:42:16Z</time>
      </trkpt>
      <trkpt lat="43.171430" lon="11.766200">
        <ele>319</ele>
        <time>2019-09-06T09:42:23Z</time>
      </trkpt>
      <trkpt lat="43.171970" lon="11.766730">
        <ele>318</ele>
        <time>2019-09-06T09:42:34Z</time>
      </trkpt>
      <trkpt lat="43.172310" lon="11.767290">
        <ele>317</ele>
        <time>2019-09-06T09:42:44Z</time>
      </trkpt>
      <trkpt lat="43.172350" lon="11.767420">
        <ele>318</ele>
        <time>2019-09-06T09:42:46Z</time>
      </trkpt>
      <trkpt lat="43.172700" lon="11.767940">
        <ele>317</ele>
        <time>2019-09-06T09:42:55Z</time>
      </trkpt>
      <trkpt lat="43.172760" lon="11.768190">
        <ele>316</ele>
        <time>2019-09-06T09:42:58Z</time>
      </trkpt>
      <trkpt lat="43.172760" lon="11.768690">
        <ele>313</ele>
        <time>2019-09-06T09:43:05Z</time>
      </trkpt>
      <trkpt lat="43.173650" lon="11.769740">
        <ele>304</ele>
        <time>2019-09-06T09:43:26Z</time>
      </trkpt>
      <trkpt lat="43.174230" lon="11.771060">
        <ele>298</ele>
        <time>2019-09-06T09:43:46Z</time>
      </trkpt>
      <trkpt lat="43.174370" lon="11.771460">
        <ele>296</ele>
        <time>2019-09-06T09:43:51Z</time>
      </trkpt>
      <trkpt lat="43.174950" lon="11.772310">
        <ele>292</ele>
        <time>2019-09-06T09:44:06Z</time>
      </trkpt>
      <trkpt lat="43.175230" lon="11.773070">
        <ele>288</ele>
        <time>2019-09-06T09:44:18Z</time>
      </trkpt>
      <trkpt lat="43.175260" lon="11.773390">
        <ele>287</ele>
        <time>2019-09-06T09:44:22Z</time>
      </trkpt>
      <trkpt lat="43.174880" lon="11.773540">
        <ele>288</ele>
        <time>2019-09-06T09:44:29Z</time>
      </trkpt>
      <trkpt lat="43.174140" lon="11.773770">
        <ele>288</ele>
        <time>2019-09-06T09:44:42Z</time>
      </trkpt>
      <trkpt lat="43.174730" lon="11.775410">
        <ele>284</ele>
        <time>2019-09-06T09:45:06Z</time>
      </trkpt>
      <trkpt lat="43.174930" lon="11.775760">
        <ele>281</ele>
        <time>2019-09-06T09:45:12Z</time>
      </trkpt>
      <trkpt lat="43.175880" lon="11.776830">
        <ele>275</ele>
        <time>2019-09-06T09:45:34Z</time>
      </trkpt>
      <trkpt lat="43.176680" lon="11.777680">
        <ele>268</ele>
        <time>2019-09-06T09:45:52Z</time>
      </trkpt>
      <trkpt lat="43.176240" lon="11.778250">
        <ele>270</ele>
        <time>2019-09-06T09:46:02Z</time>
      </trkpt>
      <trkpt lat="43.176660" lon="11.778710">
        <ele>269</ele>
        <time>2019-09-06T09:46:12Z</time>
      </trkpt>
      <trkpt lat="43.177210" lon="11.779850">
        <ele>266</ele>
        <time>2019-09-06T09:46:30Z</time>
      </trkpt>
      <trkpt lat="43.177350" lon="11.780270">
        <ele>265</ele>
        <time>2019-09-06T09:46:36Z</time>
      </trkpt>
      <trkpt lat="43.177420" lon="11.780630">
        <ele>264</ele>
        <time>2019-09-06T09:46:41Z</time>
      </trkpt>
      <trkpt lat="43.177580" lon="11.780430">
        <ele>264</ele>
        <time>2019-09-06T09:46:44Z</time>
      </trkpt>
      <trkpt lat="43.177770" lon="11.780030">
        <ele>264</ele>
        <time>2019-09-06T09:46:51Z</time>
      </trkpt>
      <trkpt lat="43.178010" lon="11.780240">
        <ele>264</ele>
        <time>2019-09-06T09:46:56Z</time>
      </trkpt>
      <trkpt lat="43.177590" lon="11.781020">
        <ele>263</ele>
        <time>2019-09-06T09:47:08Z</time>
      </trkpt>
      <trkpt lat="43.177510" lon="11.781210">
        <ele>263</ele>
        <time>2019-09-06T09:47:11Z</time>
      </trkpt>
      <trkpt lat="43.177500" lon="11.781350">
        <ele>263</ele>
        <time>2019-09-06T09:47:13Z</time>
      </trkpt>
      <trkpt lat="43.177810" lon="11.782490">
        <ele>261</ele>
        <time>2019-09-06T09:47:29Z</time>
      </trkpt>
      <trkpt lat="43.177830" lon="11.782770">
        <ele>261</ele>
        <time>2019-09-06T09:47:32Z</time>
      </trkpt>
      <trkpt lat="43.178010" lon="11.783800">
        <ele>261</ele>
        <time>2019-09-06T09:47:46Z</time>
      </trkpt>
      <trkpt lat="43.178220" lon="11.784480">
        <ele>260</ele>
        <time>2019-09-06T09:47:56Z</time>
      </trkpt>
      <trkpt lat="43.178550" lon="11.785400">
        <ele>258</ele>
        <time>2019-09-06T09:48:09Z</time>
      </trkpt>
      <trkpt lat="43.178610" lon="11.785940">
        <ele>258</ele>
        <time>2019-09-06T09:48:16Z</time>
      </trkpt>
      <trkpt lat="43.178660" lon="11.786120">
        <ele>258</ele>
        <time>2019-09-06T09:48:19Z</time>
      </trkpt>
      <trkpt lat="43.178640" lon="11.786460">
        <ele>258</ele>
        <time>2019-09-06T09:48:23Z</time>
      </trkpt>
      <trkpt lat="43.178450" lon="11.787490">
        <ele>260</ele>
        <time>2019-09-06T09:48:37Z</time>
      </trkpt>
      <trkpt lat="43.178520" lon="11.787890">
        <ele>259</ele>
        <time>2019-09-06T09:48:42Z</time>
      </trkpt>
      <trkpt lat="43.178580" lon="11.788080">
        <ele>259</ele>
        <time>2019-09-06T09:48:45Z</time>
      </trkpt>
      <trkpt lat="43.178460" lon="11.788500">
        <ele>259</ele>
        <time>2019-09-06T09:48:51Z</time>
      </trkpt>
      <trkpt lat="43.179520" lon="11.789200">
        <ele>259</ele>
        <time>2019-09-06T09:49:12Z</time>
      </trkpt>
      <trkpt lat="43.180880" lon="11.792850">
        <ele>256</ele>
        <time>2019-09-06T09:50:05Z</time>
      </trkpt>
      <trkpt lat="43.181150" lon="11.793420">
        <ele>256</ele>
        <time>2019-09-06T09:50:14Z</time>
      </trkpt>
      <trkpt lat="43.182340" lon="11.794980">
        <ele>257</ele>
        <time>2019-09-06T09:50:43Z</time>
      </trkpt>
      <trkpt lat="43.182310" lon="11.795080">
        <ele>257</ele>
        <time>2019-09-06T09:50:44Z</time>
      </trkpt>
      <trkpt lat="43.182240" lon="11.795910">
        <ele>256</ele>
        <time>2019-09-06T09:50:55Z</time>
      </trkpt>
      <trkpt lat="43.182320" lon="11.796490">
        <ele>255</ele>
        <time>2019-09-06T09:51:03Z</time>
      </trkpt>
      <trkpt lat="43.182260" lon="11.797430">
        <ele>255</ele>
        <time>2019-09-06T09:51:15Z</time>
      </trkpt>
      <trkpt lat="43.182390" lon="11.798880">
        <ele>255</ele>
        <time>2019-09-06T09:51:34Z</time>
      </trkpt>
      <trkpt lat="43.182410" lon="11.799500">
        <ele>255</ele>
        <time>2019-09-06T09:51:42Z</time>
      </trkpt>
      <trkpt lat="43.183180" lon="11.800360">
        <ele>252</ele>
        <time>2019-09-06T09:52:00Z</time>
      </trkpt>
      <trkpt lat="43.184330" lon="11.801100">
        <ele>250</ele>
        <time>2019-09-06T09:52:22Z</time>
      </trkpt>
      <trkpt lat="43.184670" lon="11.801500">
        <ele>250</ele>
        <time>2019-09-06T09:52:30Z</time>
      </trkpt>
      <trkpt lat="43.185740" lon="11.803040">
        <ele>252</ele>
        <time>2019-09-06T09:52:58Z</time>
      </trkpt>
      <trkpt lat="43.186060" lon="11.803460">
        <ele>251</ele>
        <time>2019-09-06T09:53:06Z</time>
      </trkpt>
      <trkpt lat="43.186360" lon="11.804210">
        <ele>251</ele>
        <time>2019-09-06T09:53:17Z</time>
      </trkpt>
      <trkpt lat="43.186590" lon="11.805000">
        <ele>249</ele>
        <time>2019-09-06T09:53:28Z</time>
      </trkpt>
      <trkpt lat="43.187130" lon="11.806240">
        <ele>251</ele>
        <time>2019-09-06T09:53:47Z</time>
      </trkpt>
      <trkpt lat="43.187370" lon="11.806500">
        <ele>252</ele>
        <time>2019-09-06T09:53:52Z</time>
      </trkpt>
      <trkpt lat="43.189240" lon="11.807760">
        <ele>253</ele>
        <time>2019-09-06T09:54:29Z</time>
      </trkpt>
      <trkpt lat="43.189770" lon="11.808000">
        <ele>252</ele>
        <time>2019-09-06T09:54:39Z</time>
      </trkpt>
      <trkpt lat="43.190400" lon="11.807690">
        <ele>253</ele>
        <time>2019-09-06T09:54:51Z</time>
      </trkpt>
      <trkpt lat="43.191090" lon="11.811640">
        <ele>252</ele>
        <time>2019-09-06T09:55:44Z</time>
      </trkpt>
      <trkpt lat="43.191260" lon="11.812220">
        <ele>252</ele>
        <time>2019-09-06T09:55:52Z</time>
      </trkpt>
      <trkpt lat="43.191630" lon="11.813110">
        <ele>252</ele>
        <time>2019-09-06T09:56:05Z</time>
      </trkpt>
      <trkpt lat="43.191890" lon="11.814260">
        <ele>249</ele>
        <time>2019-09-06T09:56:21Z</time>
      </trkpt>
      <trkpt lat="43.191860" lon="11.814320">
        <ele>250</ele>
        <time>2019-09-06T09:56:22Z</time>
      </trkpt>
      <trkpt lat="43.191810" lon="11.814350">
        <ele>250</ele>
        <time>2019-09-06T09:56:23Z</time>
      </trkpt>
      <trkpt lat="43.191750" lon="11.814350">
        <ele>250</ele>
        <time>2019-09-06T09:56:24Z</time>
      </trkpt>
      <trkpt lat="43.191640" lon="11.814300">
        <ele>250</ele>
        <time>2019-09-06T09:56:26Z</time>
      </trkpt>
      <trkpt lat="43.191600" lon="11.814310">
        <ele>250</ele>
        <time>2019-09-06T09:56:26Z</time>
      </trkpt>
      <trkpt lat="43.191570" lon="11.814370">
        <ele>250</ele>
        <time>2019-09-06T09:56:27Z</time>
      </trkpt>
      <trkpt lat="43.191560" lon="11.814660">
        <ele>250</ele>
        <time>2019-09-06T09:56:31Z</time>
      </trkpt>
      <trkpt lat="43.191520" lon="11.814940">
        <ele>250</ele>
        <time>2019-09-06T09:56:35Z</time>
      </trkpt>
      <trkpt lat="43.191440" lon="11.816660">
        <ele>249</ele>
        <time>2019-09-06T09:56:57Z</time>
      </trkpt>
      <trkpt lat="43.191490" lon="11.817370">
        <ele>250</ele>
        <time>2019-09-06T09:57:06Z</time>
      </trkpt>
      <trkpt lat="43.191510" lon="11.818370">
        <ele>251</ele>
        <time>2019-09-06T09:57:19Z</time>
      </trkpt>
      <trkpt lat="43.191580" lon="11.819180">
        <ele>249</ele>
        <time>2019-09-06T09:57:30Z</time>
      </trkpt>
      <trkpt lat="43.191660" lon="11.820930">
        <ele>249</ele>
        <time>2019-09-06T09:57:53Z</time>
      </trkpt>
      <trkpt lat="43.191730" lon="11.821560">
        <ele>249</ele>
        <time>2019-09-06T09:58:01Z</time>
      </trkpt>
      <trkpt lat="43.191810" lon="11.821910">
        <ele>250</ele>
        <time>2019-09-06T09:58:06Z</time>
      </trkpt>
      <trkpt lat="43.192290" lon="11.823410">
        <ele>252</ele>
        <time>2019-09-06T09:58:27Z</time>
      </trkpt>
      <trkpt lat="43.192340" lon="11.823750">
        <ele>252</ele>
        <time>2019-09-06T09:58:32Z</time>
      </trkpt>
      <trkpt lat="43.192320" lon="11.824610">
        <ele>249</ele>
        <time>2019-09-06T09:58:43Z</time>
      </trkpt>
      <trkpt lat="43.192360" lon="11.825000">
        <ele>248</ele>
        <time>2019-09-06T09:58:48Z</time>
      </trkpt>
      <trkpt lat="43.192720" lon="11.826890">
        <ele>248</ele>
        <time>2019-09-06T09:59:13Z</time>
      </trkpt>
      <trkpt lat="43.192810" lon="11.827560">
        <ele>249</ele>
        <time>2019-09-06T09:59:22Z</time>
      </trkpt>
      <trkpt lat="43.192900" lon="11.827750">
        <ele>249</ele>
        <time>2019-09-06T09:59:25Z</time>
      </trkpt>
      <trkpt lat="43.193610" lon="11.826980">
        <ele>247</ele>
        <time>2019-09-06T09:59:41Z</time>
      </trkpt>
      <trkpt lat="43.195420" lon="11.825150">
        <ele>252</ele>
        <time>2019-09-06T10:00:21Z</time>
      </trkpt>
      <trkpt lat="43.195600" lon="11.825000">
        <ele>252</ele>
        <time>2019-09-06T10:00:25Z</time>
      </trkpt>
      <trkpt lat="43.195760" lon="11.825370">
        <ele>252</ele>
        <time>2019-09-06T10:00:30Z</time>
      </trkpt>
      <trkpt lat="43.197360" lon="11.829980">
        <ele>247</ele>
        <time>2019-09-06T10:01:37Z</time>
      </trkpt>
      <trkpt lat="43.197920" lon="11.831680">
        <ele>247</ele>
        <time>2019-09-06T10:02:01Z</time>
      </trkpt>
      <trkpt lat="43.199040" lon="11.835350">
        <ele>249</ele>
        <time>2019-09-06T10:02:52Z</time>
      </trkpt>
      <trkpt lat="43.199890" lon="11.838560">
        <ele>248</ele>
        <time>2019-09-06T10:03:37Z</time>
      </trkpt>
      <trkpt lat="43.200630" lon="11.841630">
        <ele>245</ele>
        <time>2019-09-06T10:04:19Z</time>
      </trkpt>
      <trkpt lat="43.200820" lon="11.843090">
        <ele>245</ele>
        <time>2019-09-06T10:04:38Z</time>
      </trkpt>
      <trkpt lat="43.201900" lon="11.847410">
        <ele>247</ele>
        <time>2019-09-06T10:05:37Z</time>
      </trkpt>
      <trkpt lat="43.202190" lon="11.848740">
        <ele>249</ele>
        <time>2019-09-06T10:05:55Z</time>
      </trkpt>
      <trkpt lat="43.202390" lon="11.849400">
        <ele>249</ele>
        <time>2019-09-06T10:06:04Z</time>
      </trkpt>
      <trkpt lat="43.202680" lon="11.850600">
        <ele>253</ele>
        <time>2019-09-06T10:06:21Z</time>
      </trkpt>
      <trkpt lat="43.202720" lon="11.850700">
        <ele>254</ele>
        <time>2019-09-06T10:06:22Z</time>
      </trkpt>
      <trkpt lat="43.202840" lon="11.850840">
        <ele>254</ele>
        <time>2019-09-06T10:06:25Z</time>
      </trkpt>
      <trkpt lat="43.203170" lon="11.851150">
        <ele>255</ele>
        <time>2019-09-06T10:06:32Z</time>
      </trkpt>
      <trkpt lat="43.204600" lon="11.852660">
        <ele>259</ele>
        <time>2019-09-06T10:07:04Z</time>
      </trkpt>
      <trkpt lat="43.204870" lon="11.853040">
        <ele>260</ele>
        <time>2019-09-06T10:07:11Z</time>
      </trkpt>
      <trkpt lat="43.205470" lon="11.854070">
        <ele>262</ele>
        <time>2019-09-06T10:07:28Z</time>
      </trkpt>
      <trkpt lat="43.205710" lon="11.854560">
        <ele>261</ele>
        <time>2019-09-06T10:07:36Z</time>
      </trkpt>
      <trkpt lat="43.205830" lon="11.854950">
        <ele>262</ele>
        <time>2019-09-06T10:07:41Z</time>
      </trkpt>
      <trkpt lat="43.206380" lon="11.858070">
        <ele>268</ele>
        <time>2019-09-06T10:08:23Z</time>
      </trkpt>
      <trkpt lat="43.207520" lon="11.858590">
        <ele>272</ele>
        <time>2019-09-06T10:08:44Z</time>
      </trkpt>
      <trkpt lat="43.207950" lon="11.858700">
        <ele>272</ele>
        <time>2019-09-06T10:08:52Z</time>
      </trkpt>
      <trkpt lat="43.208630" lon="11.858740">
        <ele>273</ele>
        <time>2019-09-06T10:09:04Z</time>
      </trkpt>
      <trkpt lat="43.209940" lon="11.859020">
        <ele>273</ele>
        <time>2019-09-06T10:09:28Z</time>
      </trkpt>
      <trkpt lat="43.211100" lon="11.859170">
        <ele>277</ele>
        <time>2019-09-06T10:09:49Z</time>
      </trkpt>
      <trkpt lat="43.211580" lon="11.859080">
        <ele>277</ele>
        <time>2019-09-06T10:09:57Z</time>
      </trkpt>
      <trkpt lat="43.212130" lon="11.858940">
        <ele>280</ele>
        <time>2019-09-06T10:10:07Z</time>
      </trkpt>
      <trkpt lat="43.212510" lon="11.858900">
        <ele>282</ele>
        <time>2019-09-06T10:10:14Z</time>
      </trkpt>
      <trkpt lat="43.212800" lon="11.858950">
        <ele>284</ele>
        <time>2019-09-06T10:10:19Z</time>
      </trkpt>
      <trkpt lat="43.213020" lon="11.859060">
        <ele>286</ele>
        <time>2019-09-06T10:10:23Z</time>
      </trkpt>
      <trkpt lat="43.213240" lon="11.859250">
        <ele>288</ele>
        <time>2019-09-06T10:10:28Z</time>
      </trkpt>
      <trkpt lat="43.213810" lon="11.859860">
        <ele>294</ele>
        <time>2019-09-06T10:10:41Z</time>
      </trkpt>
      <trkpt lat="43.214650" lon="11.860550">
        <ele>299</ele>
        <time>2019-09-06T10:10:58Z</time>
      </trkpt>
      <trkpt lat="43.214900" lon="11.860810">
        <ele>302</ele>
        <time>2019-09-06T10:11:04Z</time>
      </trkpt>
      <trkpt lat="43.216070" lon="11.862720">
        <ele>307</ele>
        <time>2019-09-06T10:11:36Z</time>
      </trkpt>
      <trkpt lat="43.216310" lon="11.862970">
        <ele>308</ele>
        <time>2019-09-06T10:11:42Z</time>
      </trkpt>
      <trkpt lat="43.217200" lon="11.863480">
        <ele>309</ele>
        <time>2019-09-06T10:11:59Z</time>
      </trkpt>
      <trkpt lat="43.217810" lon="11.863800">
        <ele>311</ele>
        <time>2019-09-06T10:12:10Z</time>
      </trkpt>
      <trkpt lat="43.218280" lon="11.863970">
        <ele>312</ele>
        <time>2019-09-06T10:12:19Z</time>
      </trkpt>
      <trkpt lat="43.218440" lon="11.864060">
        <ele>313</ele>
        <time>2019-09-06T10:12:22Z</time>
      </trkpt>
      <trkpt lat="43.218570" lon="11.864170">
        <ele>315</ele>
        <time>2019-09-06T10:12:25Z</time>
      </trkpt>
      <trkpt lat="43.218910" lon="11.864740">
        <ele>316</ele>
        <time>2019-09-06T10:12:34Z</time>
      </trkpt>
      <trkpt lat="43.219600" lon="11.865550">
        <ele>316</ele>
        <time>2019-09-06T10:12:50Z</time>
      </trkpt>
      <trkpt lat="43.220180" lon="11.866280">
        <ele>316</ele>
        <time>2019-09-06T10:13:04Z</time>
      </trkpt>
      <trkpt lat="43.220320" lon="11.866410">
        <ele>317</ele>
        <time>2019-09-06T10:13:08Z</time>
      </trkpt>
      <trkpt lat="43.220510" lon="11.866560">
        <ele>318</ele>
        <time>2019-09-06T10:13:11Z</time>
      </trkpt>
      <trkpt lat="43.220860" lon="11.866720">
        <ele>321</ele>
        <time>2019-09-06T10:13:18Z</time>
      </trkpt>
      <trkpt lat="43.221450" lon="11.867200">
        <ele>320</ele>
        <time>2019-09-06T10:13:30Z</time>
      </trkpt>
      <trkpt lat="43.221700" lon="11.867360">
        <ele>322</ele>
        <time>2019-09-06T10:13:35Z</time>
      </trkpt>
      <trkpt lat="43.222090" lon="11.867580">
        <ele>325</ele>
        <time>2019-09-06T10:13:43Z</time>
      </trkpt>
      <trkpt lat="43.222320" lon="11.867630">
        <ele>325</ele>
        <time>2019-09-06T10:13:47Z</time>
      </trkpt>
      <trkpt lat="43.222700" lon="11.867770">
        <ele>325</ele>
        <time>2019-09-06T10:13:54Z</time>
      </trkpt>
      <trkpt lat="43.223260" lon="11.868150">
        <ele>321</ele>
        <time>2019-09-06T10:14:05Z</time>
      </trkpt>
      <trkpt lat="43.223700" lon="11.868610">
        <ele>315</ele>
        <time>2019-09-06T10:14:15Z</time>
      </trkpt>
      <trkpt lat="43.224670" lon="11.869220">
        <ele>309</ele>
        <time>2019-09-06T10:14:34Z</time>
      </trkpt>
      <trkpt lat="43.225540" lon="11.869610">
        <ele>308</ele>
        <time>2019-09-06T10:14:50Z</time>
      </trkpt>
      <trkpt lat="43.225800" lon="11.869770">
        <ele>308</ele>
        <time>2019-09-06T10:14:55Z</time>
      </trkpt>
      <trkpt lat="43.225990" lon="11.869930">
        <ele>308</ele>
        <time>2019-09-06T10:14:59Z</time>
      </trkpt>
      <trkpt lat="43.225890" lon="11.870090">
        <ele>309</ele>
        <time>2019-09-06T10:15:02Z</time>
      </trkpt>
      <trkpt lat="43.225620" lon="11.870770">
        <ele>311</ele>
        <time>2019-09-06T10:15:12Z</time>
      </trkpt>
      <trkpt lat="43.225330" lon="11.872560">
        <ele>301</ele>
        <time>2019-09-06T10:15:36Z</time>
      </trkpt>
      <trkpt lat="43.225430" lon="11.873360">
        <ele>299</ele>
        <time>2019-09-06T10:15:46Z</time>
      </trkpt>
      <trkpt lat="43.225660" lon="11.874780">
        <ele>300</ele>
        <time>2019-09-06T10:16:05Z</time>
      </trkpt>
      <trkpt lat="43.226240" lon="11.877890">
        <ele>305</ele>
        <time>2019-09-06T10:16:47Z</time>
      </trkpt>
      <trkpt lat="43.226380" lon="11.878380">
        <ele>306</ele>
        <time>2019-09-06T10:16:53Z</time>
      </trkpt>
      <trkpt lat="43.226590" lon="11.878830">
        <ele>307</ele>
        <time>2019-09-06T10:17:00Z</time>
      </trkpt>
      <trkpt lat="43.227400" lon="11.880160">
        <ele>310</ele>
        <time>2019-09-06T10:17:23Z</time>
      </trkpt>
      <trkpt lat="43.228680" lon="11.882400">
        <ele>304</ele>
        <time>2019-09-06T10:18:00Z</time>
      </trkpt>
      <trkpt lat="43.228850" lon="11.882770">
        <ele>304</ele>
        <time>2019-09-06T10:18:05Z</time>
      </trkpt>
      <trkpt lat="43.228960" lon="11.883160">
        <ele>303</ele>
        <time>2019-09-06T10:18:11Z</time>
      </trkpt>
      <trkpt lat="43.229010" lon="11.883810">
        <ele>304</ele>
        <time>2019-09-06T10:18:19Z</time>
      </trkpt>
      <trkpt lat="43.229090" lon="11.885610">
        <ele>300</ele>
        <time>2019-09-06T10:18:43Z</time>
      </trkpt>
      <trkpt lat="43.229180" lon="11.886060">
        <ele>298</ele>
        <time>2019-09-06T10:18:49Z</time>
      </trkpt>
      <trkpt lat="43.229610" lon="11.887600">
        <ele>299</ele>
        <time>2019-09-06T10:19:10Z</time>
      </trkpt>
      <trkpt lat="43.230010" lon="11.888880">
        <ele>303</ele>
        <time>2019-09-06T10:19:28Z</time>
      </trkpt>
      <trkpt lat="43.230880" lon="11.891350">
        <ele>304</ele>
        <time>2019-09-06T10:20:04Z</time>
      </trkpt>
      <trkpt lat="43.230970" lon="11.891980">
        <ele>305</ele>
        <time>2019-09-06T10:20:12Z</time>
      </trkpt>
      <trkpt lat="43.230940" lon="11.892480">
        <ele>306</ele>
        <time>2019-09-06T10:20:18Z</time>
      </trkpt>
      <trkpt lat="43.230830" lon="11.892920">
        <ele>307</ele>
        <time>2019-09-06T10:20:25Z</time>
      </trkpt>
      <trkpt lat="43.231420" lon="11.893120">
        <ele>308</ele>
        <time>2019-09-06T10:20:35Z</time>
      </trkpt>
      <trkpt lat="43.231640" lon="11.893160">
        <ele>307</ele>
        <time>2019-09-06T10:20:39Z</time>
      </trkpt>
      <trkpt lat="43.232070" lon="11.893070">
        <ele>305</ele>
        <time>2019-09-06T10:20:47Z</time>
      </trkpt>
      <trkpt lat="43.232690" lon="11.892570">
        <ele>305</ele>
        <time>2019-09-06T10:21:00Z</time>
      </trkpt>
      <trkpt lat="43.232950" lon="11.892450">
        <ele>304</ele>
        <time>2019-09-06T10:21:05Z</time>
      </trkpt>
      <trkpt lat="43.233170" lon="11.892400">
        <ele>302</ele>
        <time>2019-09-06T10:21:09Z</time>
      </trkpt>
      <trkpt lat="43.234390" lon="11.892820">
        <ele>296</ele>
        <time>2019-09-06T10:21:31Z</time>
      </trkpt>
      <trkpt lat="43.235150" lon="11.893180">
        <ele>297</ele>
        <time>2019-09-06T10:21:45Z</time>
      </trkpt>
      <trkpt lat="43.235300" lon="11.893290">
        <ele>298</ele>
        <time>2019-09-06T10:21:48Z</time>
      </trkpt>
      <trkpt lat="43.235670" lon="11.893850">
        <ele>299</ele>
        <time>2019-09-06T10:21:58Z</time>
      </trkpt>
      <trkpt lat="43.235810" lon="11.894030">
        <ele>300</ele>
        <time>2019-09-06T10:22:02Z</time>
      </trkpt>
      <trkpt lat="43.235910" lon="11.894090">
        <ele>300</ele>
        <time>2019-09-06T10:22:04Z</time>
      </trkpt>
      <trkpt lat="43.236040" lon="11.894110">
        <ele>301</ele>
        <time>2019-09-06T10:22:06Z</time>
      </trkpt>
      <trkpt lat="43.236200" lon="11.894070">
        <ele>301</ele>
        <time>2019-09-06T10:22:09Z</time>
      </trkpt>
      <trkpt lat="43.236910" lon="11.893560">
        <ele>303</ele>
        <time>2019-09-06T10:22:23Z</time>
      </trkpt>
      <trkpt lat="43.236980" lon="11.893530">
        <ele>303</ele>
        <time>2019-09-06T10:22:24Z</time>
      </trkpt>
      <trkpt lat="43.237060" lon="11.893550">
        <ele>302</ele>
        <time>2019-09-06T10:22:26Z</time>
      </trkpt>
      <trkpt lat="43.237300" lon="11.893960">
        <ele>302</ele>
        <time>2019-09-06T10:22:33Z</time>
      </trkpt>
      <trkpt lat="43.238830" lon="11.897050">
        <ele>288</ele>
        <time>2019-09-06T10:23:21Z</time>
      </trkpt>
      <trkpt lat="43.238910" lon="11.897150">
        <ele>288</ele>
        <time>2019-09-06T10:23:23Z</time>
      </trkpt>
      <trkpt lat="43.239110" lon="11.897310">
        <ele>288</ele>
        <time>2019-09-06T10:23:27Z</time>
      </trkpt>
      <trkpt lat="43.239310" lon="11.897550">
        <ele>287</ele>
        <time>2019-09-06T10:23:32Z</time>
      </trkpt>
      <trkpt lat="43.240030" lon="11.899470">
        <ele>277</ele>
        <time>2019-09-06T10:24:00Z</time>
      </trkpt>
      <trkpt lat="43.240110" lon="11.899540">
        <ele>276</ele>
        <time>2019-09-06T10:24:01Z</time>
      </trkpt>
      <trkpt lat="43.241240" lon="11.899780">
        <ele>267</ele>
        <time>2019-09-06T10:24:22Z</time>
      </trkpt>
      <trkpt lat="43.241490" lon="11.899880">
        <ele>266</ele>
        <time>2019-09-06T10:24:26Z</time>
      </trkpt>
      <trkpt lat="43.242500" lon="11.901080">
        <ele>268</ele>
        <time>2019-09-06T10:24:50Z</time>
      </trkpt>
      <trkpt lat="43.243170" lon="11.901940">
        <ele>276</ele>
        <time>2019-09-06T10:25:07Z</time>
      </trkpt>
      <trkpt lat="43.243320" lon="11.902000">
        <ele>278</ele>
        <time>2019-09-06T10:25:09Z</time>
      </trkpt>
      <trkpt lat="43.243410" lon="11.901970">
        <ele>279</ele>
        <time>2019-09-06T10:25:11Z</time>
      </trkpt>
      <trkpt lat="43.243870" lon="11.901340">
        <ele>281</ele>
        <time>2019-09-06T10:25:23Z</time>
      </trkpt>
      <trkpt lat="43.244080" lon="11.901190">
        <ele>283</ele>
        <time>2019-09-06T10:25:27Z</time>
      </trkpt>
      <trkpt lat="43.244240" lon="11.901150">
        <ele>283</ele>
        <time>2019-09-06T10:25:30Z</time>
      </trkpt>
      <trkpt lat="43.244290" lon="11.901170">
        <ele>283</ele>
        <time>2019-09-06T10:25:31Z</time>
      </trkpt>
      <trkpt lat="43.244350" lon="11.901230">
        <ele>283</ele>
        <time>2019-09-06T10:25:32Z</time>
      </trkpt>
      <trkpt lat="43.244380" lon="11.901330">
        <ele>283</ele>
        <time>2019-09-06T10:25:33Z</time>
      </trkpt>
      <trkpt lat="43.244410" lon="11.901860">
        <ele>283</ele>
        <time>2019-09-06T10:25:40Z</time>
      </trkpt>
      <trkpt lat="43.244500" lon="11.902100">
        <ele>283</ele>
        <time>2019-09-06T10:25:44Z</time>
      </trkpt>
      <trkpt lat="43.245080" lon="11.902920">
        <ele>283</ele>
        <time>2019-09-06T10:25:58Z</time>
      </trkpt>
      <trkpt lat="43.245330" lon="11.903220">
        <ele>282</ele>
        <time>2019-09-06T10:26:04Z</time>
      </trkpt>
      <trkpt lat="43.245510" lon="11.903560">
        <ele>281</ele>
        <time>2019-09-06T10:26:10Z</time>
      </trkpt>
      <trkpt lat="43.245650" lon="11.903770">
        <ele>280</ele>
        <time>2019-09-06T10:26:14Z</time>
      </trkpt>
      <trkpt lat="43.246960" lon="11.904770">
        <ele>273</ele>
        <time>2019-09-06T10:26:40Z</time>
      </trkpt>
      <trkpt lat="43.247470" lon="11.905370">
        <ele>272</ele>
        <time>2019-09-06T10:26:52Z</time>
      </trkpt>
      <trkpt lat="43.247840" lon="11.905700">
        <ele>271</ele>
        <time>2019-09-06T10:27:00Z</time>
      </trkpt>
      <trkpt lat="43.248030" lon="11.905930">
        <ele>270</ele>
        <time>2019-09-06T10:27:04Z</time>
      </trkpt>
      <trkpt lat="43.248170" lon="11.906220">
        <ele>269</ele>
        <time>2019-09-06T10:27:09Z</time>
      </trkpt>
      <trkpt lat="43.248250" lon="11.906470">
        <ele>269</ele>
        <time>2019-09-06T10:27:13Z</time>
      </trkpt>
      <trkpt lat="43.248360" lon="11.906660">
        <ele>268</ele>
        <time>2019-09-06T10:27:16Z</time>
      </trkpt>
      <trkpt lat="43.249350" lon="11.907360">
        <ele>258</ele>
        <time>2019-09-06T10:27:36Z</time>
      </trkpt>
      <trkpt lat="43.249590" lon="11.907460">
        <ele>256</ele>
        <time>2019-09-06T10:27:40Z</time>
      </trkpt>
      <trkpt lat="43.251430" lon="11.907990">
        <ele>264</ele>
        <time>2019-09-06T10:28:13Z</time>
      </trkpt>
      <trkpt lat="43.252640" lon="11.908060">
        <ele>272</ele>
        <time>2019-09-06T10:28:35Z</time>
      </trkpt>
      <trkpt lat="43.252820" lon="11.908100">
        <ele>272</ele>
        <time>2019-09-06T10:28:38Z</time>
      </trkpt>
      <trkpt lat="43.252930" lon="11.907880">
        <ele>272</ele>
        <time>2019-09-06T10:28:42Z</time>
      </trkpt>
      <trkpt lat="43.253100" lon="11.907710">
        <ele>273</ele>
        <time>2019-09-06T10:28:45Z</time>
      </trkpt>
      <trkpt lat="43.253300" lon="11.907380">
        <ele>275</ele>
        <time>2019-09-06T10:28:51Z</time>
      </trkpt>
      <trkpt lat="43.253570" lon="11.906560">
        <ele>276</ele>
        <time>2019-09-06T10:29:03Z</time>
      </trkpt>
      <trkpt lat="43.253670" lon="11.906140">
        <ele>274</ele>
        <time>2019-09-06T10:29:08Z</time>
      </trkpt>
      <trkpt lat="43.253730" lon="11.906200">
        <ele>274</ele>
        <time>2019-09-06T10:29:10Z</time>
      </trkpt>
      <trkpt lat="43.253800" lon="11.906200">
        <ele>274</ele>
        <time>2019-09-06T10:29:11Z</time>
      </trkpt>
      <trkpt lat="43.253910" lon="11.906260">
        <ele>274</ele>
        <time>2019-09-06T10:29:13Z</time>
      </trkpt>
      <trkpt lat="43.254530" lon="11.906360">
        <ele>269</ele>
        <time>2019-09-06T10:29:24Z</time>
      </trkpt>
      <trkpt lat="43.255020" lon="11.906540">
        <ele>265</ele>
        <time>2019-09-06T10:29:33Z</time>
      </trkpt>
      <trkpt lat="43.255260" lon="11.906720">
        <ele>264</ele>
        <time>2019-09-06T10:29:38Z</time>
      </trkpt>
      <trkpt lat="43.255450" lon="11.907020">
        <ele>262</ele>
        <time>2019-09-06T10:29:43Z</time>
      </trkpt>
      <trkpt lat="43.255960" lon="11.908110">
        <ele>258</ele>
        <time>2019-09-06T10:30:00Z</time>
      </trkpt>
      <trkpt lat="43.256240" lon="11.908310">
        <ele>255</ele>
        <time>2019-09-06T10:30:06Z</time>
      </trkpt>
      <trkpt lat="43.256770" lon="11.908530">
        <ele>251</ele>
        <time>2019-09-06T10:30:15Z</time>
      </trkpt>
      <trkpt lat="43.257100" lon="11.908640">
        <ele>250</ele>
        <time>2019-09-06T10:30:21Z</time>
      </trkpt>
      <trkpt lat="43.257310" lon="11.908660">
        <ele>250</ele>
        <time>2019-09-06T10:30:25Z</time>
      </trkpt>
      <trkpt lat="43.257610" lon="11.908610">
        <ele>250</ele>
        <time>2019-09-06T10:30:31Z</time>
      </trkpt>
      <trkpt lat="43.257970" lon="11.908510">
        <ele>250</ele>
        <time>2019-09-06T10:30:37Z</time>
      </trkpt>
      <trkpt lat="43.258470" lon="11.908320">
        <ele>251</ele>
        <time>2019-09-06T10:30:46Z</time>
      </trkpt>
      <trkpt lat="43.258690" lon="11.908260">
        <ele>250</ele>
        <time>2019-09-06T10:30:50Z</time>
      </trkpt>
      <trkpt lat="43.259160" lon="11.908280">
        <ele>250</ele>
        <time>2019-09-06T10:30:59Z</time>
      </trkpt>
      <trkpt lat="43.259770" lon="11.908360">
        <ele>250</ele>
        <time>2019-09-06T10:31:10Z</time>
      </trkpt>
      <trkpt lat="43.259950" lon="11.908440">
        <ele>250</ele>
        <time>2019-09-06T10:31:13Z</time>
      </trkpt>
      <trkpt lat="43.260110" lon="11.908550">
        <ele>249</ele>
        <time>2019-09-06T10:31:16Z</time>
      </trkpt>
      <trkpt lat="43.260280" lon="11.908760">
        <ele>249</ele>
        <time>2019-09-06T10:31:20Z</time>
      </trkpt>
      <trkpt lat="43.261060" lon="11.910160">
        <ele>248</ele>
        <time>2019-09-06T10:31:43Z</time>
      </trkpt>
      <trkpt lat="43.262110" lon="11.911790">
        <ele>246</ele>
        <time>2019-09-06T10:32:11Z</time>
      </trkpt>
      <trkpt lat="43.262920" lon="11.912930">
        <ele>246</ele>
        <time>2019-09-06T10:32:32Z</time>
      </trkpt>
      <trkpt lat="43.263220" lon="11.913220">
        <ele>247</ele>
        <time>2019-09-06T10:32:38Z</time>
      </trkpt>
      <trkpt lat="43.264660" lon="11.914190">
        <ele>248</ele>
        <time>2019-09-06T10:33:07Z</time>
      </trkpt>
      <trkpt lat="43.264520" lon="11.914620">
        <ele>248</ele>
        <time>2019-09-06T10:33:13Z</time>
      </trkpt>
      <trkpt lat="43.264430" lon="11.915160">
        <ele>247</ele>
        <time>2019-09-06T10:33:20Z</time>
      </trkpt>
      <trkpt lat="43.264410" lon="11.915440">
        <ele>247</ele>
        <time>2019-09-06T10:33:24Z</time>
      </trkpt>
      <trkpt lat="43.264430" lon="11.915840">
        <ele>247</ele>
        <time>2019-09-06T10:33:29Z</time>
      </trkpt>
      <trkpt lat="43.264490" lon="11.916360">
        <ele>247</ele>
        <time>2019-09-06T10:33:36Z</time>
      </trkpt>
      <trkpt lat="43.265270" lon="11.919480">
        <ele>248</ele>
        <time>2019-09-06T10:34:19Z</time>
      </trkpt>
      <trkpt lat="43.265530" lon="11.920420">
        <ele>247</ele>
        <time>2019-09-06T10:34:32Z</time>
      </trkpt>
      <trkpt lat="43.265280" lon="11.920540">
        <ele>247</ele>
        <time>2019-09-06T10:34:36Z</time>
      </trkpt>
      <trkpt lat="43.265630" lon="11.921940">
        <ele>250</ele>
        <time>2019-09-06T10:34:56Z</time>
      </trkpt>
      <trkpt lat="43.265910" lon="11.922950">
        <ele>251</ele>
        <time>2019-09-06T10:35:10Z</time>
      </trkpt>
      <trkpt lat="43.266370" lon="11.924930">
        <ele>251</ele>
        <time>2019-09-06T10:35:37Z</time>
      </trkpt>
      <trkpt lat="43.267510" lon="11.929460">
        <ele>250</ele>
        <time>2019-09-06T10:36:39Z</time>
      </trkpt>
      <trkpt lat="43.267640" lon="11.929870">
        <ele>250</ele>
        <time>2019-09-06T10:36:44Z</time>
      </trkpt>
      <trkpt lat="43.267960" lon="11.930590">
        <ele>250</ele>
        <time>2019-09-06T10:36:55Z</time>
      </trkpt>
      <trkpt lat="43.268180" lon="11.930950">
        <ele>251</ele>
        <time>2019-09-06T10:37:01Z</time>
      </trkpt>
      <trkpt lat="43.271440" lon="11.935360">
        <ele>255</ele>
        <time>2019-09-06T10:38:23Z</time>
      </trkpt>
      <trkpt lat="43.273260" lon="11.937730">
        <ele>252</ele>
        <time>2019-09-06T10:39:07Z</time>
      </trkpt>
      <trkpt lat="43.275960" lon="11.941340">
        <ele>251</ele>
        <time>2019-09-06T10:40:15Z</time>
      </trkpt>
      <trkpt lat="43.276770" lon="11.942470">
        <ele>251</ele>
        <time>2019-09-06T10:40:35Z</time>
      </trkpt>
      <trkpt lat="43.276880" lon="11.942580">
        <ele>251</ele>
        <time>2019-09-06T10:40:37Z</time>
      </trkpt>
      <trkpt lat="43.280430" lon="11.947350">
        <ele>250</ele>
        <time>2019-09-06T10:42:06Z</time>
      </trkpt>
      <trkpt lat="43.280880" lon="11.948040">
        <ele>251</ele>
        <time>2019-09-06T10:42:18Z</time>
      </trkpt>
      <trkpt lat="43.281130" lon="11.948560">
        <ele>251</ele>
        <time>2019-09-06T10:42:26Z</time>
      </trkpt>
      <trkpt lat="43.281340" lon="11.949240">
        <ele>251</ele>
        <time>2019-09-06T10:42:35Z</time>
      </trkpt>
      <trkpt lat="43.281460" lon="11.949840">
        <ele>251</ele>
        <time>2019-09-06T10:42:44Z</time>
      </trkpt>
      <trkpt lat="43.281520" lon="11.950420">
        <ele>251</ele>
        <time>2019-09-06T10:42:51Z</time>
      </trkpt>
      <trkpt lat="43.281530" lon="11.951050">
        <ele>252</ele>
        <time>2019-09-06T10:42:59Z</time>
      </trkpt>
      <trkpt lat="43.281500" lon="11.951550">
        <ele>253</ele>
        <time>2019-09-06T10:43:06Z</time>
      </trkpt>
      <trkpt lat="43.281010" lon="11.954490">
        <ele>254</ele>
        <time>2019-09-06T10:43:45Z</time>
      </trkpt>
      <trkpt lat="43.281000" lon="11.954510">
        <ele>254</ele>
        <time>2019-09-06T10:43:45Z</time>
      </trkpt>
      <trkpt lat="43.280980" lon="11.954460">
        <ele>254</ele>
        <time>2019-09-06T10:43:46Z</time>
      </trkpt>
      <trkpt lat="43.280970" lon="11.954270">
        <ele>254</ele>
        <time>2019-09-06T10:43:48Z</time>
      </trkpt>
      <trkpt lat="43.280830" lon="11.953490">
        <ele>252</ele>
        <time>2019-09-06T10:43:59Z</time>
      </trkpt>
      <trkpt lat="43.280740" lon="11.953150">
        <ele>252</ele>
        <time>2019-09-06T10:44:03Z</time>
      </trkpt>
      <trkpt lat="43.280680" lon="11.953030">
        <ele>252</ele>
        <time>2019-09-06T10:44:05Z</time>
      </trkpt>
      <trkpt lat="43.280600" lon="11.953530">
        <ele>252</ele>
        <time>2019-09-06T10:44:12Z</time>
      </trkpt>
      <trkpt lat="43.280430" lon="11.954220">
        <ele>253</ele>
        <time>2019-09-06T10:44:21Z</time>
      </trkpt>
      <trkpt lat="43.280400" lon="11.954600">
        <ele>254</ele>
        <time>2019-09-06T10:44:26Z</time>
      </trkpt>
      <trkpt lat="43.280410" lon="11.955020">
        <ele>255</ele>
        <time>2019-09-06T10:44:32Z</time>
      </trkpt>
      <trkpt lat="43.280540" lon="11.956540">
        <ele>255</ele>
        <time>2019-09-06T10:44:52Z</time>
      </trkpt>
      <trkpt lat="43.280680" lon="11.957200">
        <ele>255</ele>
        <time>2019-09-06T10:45:01Z</time>
      </trkpt>
      <trkpt lat="43.280720" lon="11.957560">
        <ele>255</ele>
        <time>2019-09-06T10:45:05Z</time>
      </trkpt>
      <trkpt lat="43.280740" lon="11.958150">
        <ele>256</ele>
        <time>2019-09-06T10:45:13Z</time>
      </trkpt>
      <trkpt lat="43.280680" lon="11.960620">
        <ele>257</ele>
        <time>2019-09-06T10:45:45Z</time>
      </trkpt>
      <trkpt lat="43.280600" lon="11.961030">
        <ele>258</ele>
        <time>2019-09-06T10:45:50Z</time>
      </trkpt>
      <trkpt lat="43.280490" lon="11.961360">
        <ele>257</ele>
        <time>2019-09-06T10:45:55Z</time>
      </trkpt>
      <trkpt lat="43.280350" lon="11.961630">
        <ele>257</ele>
        <time>2019-09-06T10:45:59Z</time>
      </trkpt>
      <trkpt lat="43.280610" lon="11.961910">
        <ele>257</ele>
        <time>2019-09-06T10:46:05Z</time>
      </trkpt>
      <trkpt lat="43.280680" lon="11.962070">
        <ele>257</ele>
        <time>2019-09-06T10:46:08Z</time>
      </trkpt>
      <trkpt lat="43.280670" lon="11.966040">
        <ele>262</ele>
        <time>2019-09-06T10:46:59Z</time>
      </trkpt>
      <trkpt lat="43.280720" lon="11.966320">
        <ele>262</ele>
        <time>2019-09-06T10:47:03Z</time>
      </trkpt>
      <trkpt lat="43.281660" lon="11.969510">
        <ele>267</ele>
        <time>2019-09-06T10:47:47Z</time>
      </trkpt>
      <trkpt lat="43.281690" lon="11.969700">
        <ele>267</ele>
        <time>2019-09-06T10:47:50Z</time>
      </trkpt>
      <trkpt lat="43.281660" lon="11.970230">
        <ele>267</ele>
        <time>2019-09-06T10:47:57Z</time>
      </trkpt>
      <trkpt lat="43.281620" lon="11.970250">
        <ele>267</ele>
        <time>2019-09-06T10:47:58Z</time>
      </trkpt>
      <trkpt lat="43.281570" lon="11.970340">
        <ele>267</ele>
        <time>2019-09-06T10:47:59Z</time>
      </trkpt>
      <trkpt lat="43.281570" lon="11.970440">
        <ele>267</ele>
        <time>2019-09-06T10:48:00Z</time>
      </trkpt>
      <trkpt lat="43.281610" lon="11.970530">
        <ele>267</ele>
        <time>2019-09-06T10:48:02Z</time>
      </trkpt>
      <trkpt lat="43.281680" lon="11.970580">
        <ele>267</ele>
        <time>2019-09-06T10:48:03Z</time>
      </trkpt>
      <trkpt lat="43.281780" lon="11.970530">
        <ele>267</ele>
        <time>2019-09-06T10:48:05Z</time>
      </trkpt>
      <trkpt lat="43.281920" lon="11.970680">
        <ele>267</ele>
        <time>2019-09-06T10:48:08Z</time>
      </trkpt>
      <trkpt lat="43.282100" lon="11.971000">
        <ele>268</ele>
        <time>2019-09-06T10:48:13Z</time>
      </trkpt>
      <trkpt lat="43.282130" lon="11.971100">
        <ele>268</ele>
        <time>2019-09-06T10:48:15Z</time>
      </trkpt>
      <trkpt lat="43.282120" lon="11.971230">
        <ele>268</ele>
        <time>2019-09-06T10:48:17Z</time>
      </trkpt>
      <trkpt lat="43.281390" lon="11.973380">
        <ele>272</ele>
        <time>2019-09-06T10:48:47Z</time>
      </trkpt>
      <trkpt lat="43.281230" lon="11.973470">
        <ele>275</ele>
        <time>2019-09-06T10:48:50Z</time>
      </trkpt>
      <trkpt lat="43.280960" lon="11.973450">
        <ele>278</ele>
        <time>2019-09-06T10:48:55Z</time>
      </trkpt>
      <trkpt lat="43.279730" lon="11.972990">
        <ele>282</ele>
        <time>2019-09-06T10:49:18Z</time>
      </trkpt>
      <trkpt lat="43.279350" lon="11.972960">
        <ele>284</ele>
        <time>2019-09-06T10:49:25Z</time>
      </trkpt>
      <trkpt lat="43.278880" lon="11.973110">
        <ele>286</ele>
        <time>2019-09-06T10:49:33Z</time>
      </trkpt>
      <trkpt lat="43.278050" lon="11.973710">
        <ele>292</ele>
        <time>2019-09-06T10:49:50Z</time>
      </trkpt>
      <trkpt lat="43.278880" lon="11.973110">
        <ele>286</ele>
        <time>2019-09-06T10:50:07Z</time>
      </trkpt>
      <trkpt lat="43.279350" lon="11.972960">
        <ele>284</ele>
        <time>2019-09-06T10:50:15Z</time>
      </trkpt>
      <trkpt lat="43.279730" lon="11.972990">
        <ele>282</ele>
        <time>2019-09-06T10:50:22Z</time>
      </trkpt>
      <trkpt lat="43.280960" lon="11.973450">
        <ele>278</ele>
        <time>2019-09-06T10:50:45Z</time>
      </trkpt>
      <trkpt lat="43.281230" lon="11.973470">
        <ele>275</ele>
        <time>2019-09-06T10:50:49Z</time>
      </trkpt>
      <trkpt lat="43.281390" lon="11.973380">
        <ele>272</ele>
        <time>2019-09-06T10:50:52Z</time>
      </trkpt>
      <trkpt lat="43.282120" lon="11.971230">
        <ele>268</ele>
        <time>2019-09-06T10:51:23Z</time>
      </trkpt>
      <trkpt lat="43.282130" lon="11.971100">
        <ele>268</ele>
        <time>2019-09-06T10:51:25Z</time>
      </trkpt>
      <trkpt lat="43.282100" lon="11.971000">
        <ele>268</ele>
        <time>2019-09-06T10:51:26Z</time>
      </trkpt>
      <trkpt lat="43.281920" lon="11.970680">
        <ele>267</ele>
        <time>2019-09-06T10:51:32Z</time>
      </trkpt>
      <trkpt lat="43.281780" lon="11.970530">
        <ele>267</ele>
        <time>2019-09-06T10:51:35Z</time>
      </trkpt>
      <trkpt lat="43.281810" lon="11.970490">
        <ele>267</ele>
        <time>2019-09-06T10:51:35Z</time>
      </trkpt>
      <trkpt lat="43.281810" lon="11.970310">
        <ele>267</ele>
        <time>2019-09-06T10:51:38Z</time>
      </trkpt>
      <trkpt lat="43.282570" lon="11.969650">
        <ele>267</ele>
        <time>2019-09-06T10:51:54Z</time>
      </trkpt>
      <trkpt lat="43.282800" lon="11.969280">
        <ele>267</ele>
        <time>2019-09-06T10:52:00Z</time>
      </trkpt>
      <trkpt lat="43.282960" lon="11.968910">
        <ele>266</ele>
        <time>2019-09-06T10:52:06Z</time>
      </trkpt>
      <trkpt lat="43.285340" lon="11.962110">
        <ele>262</ele>
        <time>2019-09-06T10:53:43Z</time>
      </trkpt>
      <trkpt lat="43.285650" lon="11.961160">
        <ele>262</ele>
        <time>2019-09-06T10:53:57Z</time>
      </trkpt>
      <trkpt lat="43.287470" lon="11.956010">
        <ele>259</ele>
        <time>2019-09-06T10:55:11Z</time>
      </trkpt>
      <trkpt lat="43.287590" lon="11.955480">
        <ele>260</ele>
        <time>2019-09-06T10:55:18Z</time>
      </trkpt>
      <trkpt lat="43.287690" lon="11.955360">
        <ele>261</ele>
        <time>2019-09-06T10:55:21Z</time>
      </trkpt>
      <trkpt lat="43.289260" lon="11.950730">
        <ele>286</ele>
        <time>2019-09-06T10:56:27Z</time>
      </trkpt>
      <trkpt lat="43.289480" lon="11.950280">
        <ele>283</ele>
        <time>2019-09-06T10:56:34Z</time>
      </trkpt>
      <trkpt lat="43.290330" lon="11.949640">
        <ele>278</ele>
        <time>2019-09-06T10:56:51Z</time>
      </trkpt>
      <trkpt lat="43.290480" lon="11.949470">
        <ele>276</ele>
        <time>2019-09-06T10:56:54Z</time>
      </trkpt>
      <trkpt lat="43.290510" lon="11.949280">
        <ele>274</ele>
        <time>2019-09-06T10:56:57Z</time>
      </trkpt>
      <trkpt lat="43.290690" lon="11.949000">
        <ele>272</ele>
        <time>2019-09-06T10:57:02Z</time>
      </trkpt>
      <trkpt lat="43.291140" lon="11.948450">
        <ele>268</ele>
        <time>2019-09-06T10:57:13Z</time>
      </trkpt>
      <trkpt lat="43.291520" lon="11.947900">
        <ele>265</ele>
        <time>2019-09-06T10:57:22Z</time>
      </trkpt>
      <trkpt lat="43.291550" lon="11.947750">
        <ele>264</ele>
        <time>2019-09-06T10:57:24Z</time>
      </trkpt>
      <trkpt lat="43.291780" lon="11.947480">
        <ele>262</ele>
        <time>2019-09-06T10:57:30Z</time>
      </trkpt>
      <trkpt lat="43.294990" lon="11.942610">
        <ele>253</ele>
        <time>2019-09-06T10:58:55Z</time>
      </trkpt>
      <trkpt lat="43.296610" lon="11.940060">
        <ele>258</ele>
        <time>2019-09-06T10:59:39Z</time>
      </trkpt>
      <trkpt lat="43.296900" lon="11.939720">
        <ele>258</ele>
        <time>2019-09-06T10:59:45Z</time>
      </trkpt>
      <trkpt lat="43.297270" lon="11.939340">
        <ele>259</ele>
        <time>2019-09-06T10:59:54Z</time>
      </trkpt>
      <trkpt lat="43.297650" lon="11.939030">
        <ele>260</ele>
        <time>2019-09-06T11:00:02Z</time>
      </trkpt>
      <trkpt lat="43.297980" lon="11.938820">
        <ele>261</ele>
        <time>2019-09-06T11:00:08Z</time>
      </trkpt>
      <trkpt lat="43.298420" lon="11.938490">
        <ele>262</ele>
        <time>2019-09-06T11:00:17Z</time>
      </trkpt>
      <trkpt lat="43.298760" lon="11.938190">
        <ele>264</ele>
        <time>2019-09-06T11:00:24Z</time>
      </trkpt>
      <trkpt lat="43.299210" lon="11.937520">
        <ele>265</ele>
        <time>2019-09-06T11:00:36Z</time>
      </trkpt>
      <trkpt lat="43.300120" lon="11.935820">
        <ele>267</ele>
        <time>2019-09-06T11:01:03Z</time>
      </trkpt>
      <trkpt lat="43.300440" lon="11.935160">
        <ele>266</ele>
        <time>2019-09-06T11:01:14Z</time>
      </trkpt>
      <trkpt lat="43.300850" lon="11.934560">
        <ele>266</ele>
        <time>2019-09-06T11:01:24Z</time>
      </trkpt>
      <trkpt lat="43.302620" lon="11.932540">
        <ele>265</ele>
        <time>2019-09-06T11:02:05Z</time>
      </trkpt>
      <trkpt lat="43.303320" lon="11.931850">
        <ele>263</ele>
        <time>2019-09-06T11:02:20Z</time>
      </trkpt>
      <trkpt lat="43.306460" lon="11.929210">
        <ele>263</ele>
        <time>2019-09-06T11:03:26Z</time>
      </trkpt>
      <trkpt lat="43.307870" lon="11.927980">
        <ele>263</ele>
        <time>2019-09-06T11:03:56Z</time>
      </trkpt>
      <trkpt lat="43.309270" lon="11.926810">
        <ele>266</ele>
        <time>2019-09-06T11:04:25Z</time>
      </trkpt>
      <trkpt lat="43.309930" lon="11.926290">
        <ele>269</ele>
        <time>2019-09-06T11:04:38Z</time>
      </trkpt>
      <trkpt lat="43.311450" lon="11.925430">
        <ele>268</ele>
        <time>2019-09-06T11:05:08Z</time>
      </trkpt>
      <trkpt lat="43.312360" lon="11.924970">
        <ele>269</ele>
        <time>2019-09-06T11:05:25Z</time>
      </trkpt>
      <trkpt lat="43.312440" lon="11.925170">
        <ele>271</ele>
        <time>2019-09-06T11:05:28Z</time>
      </trkpt>
      <trkpt lat="43.313080" lon="11.925290">
        <ele>272</ele>
        <time>2019-09-06T11:05:39Z</time>
      </trkpt>
      <trkpt lat="43.313930" lon="11.925520">
        <ele>274</ele>
        <time>2019-09-06T11:05:55Z</time>
      </trkpt>
      <trkpt lat="43.314270" lon="11.925530">
        <ele>274</ele>
        <time>2019-09-06T11:06:01Z</time>
      </trkpt>
      <trkpt lat="43.315500" lon="11.925480">
        <ele>280</ele>
        <time>2019-09-06T11:06:23Z</time>
      </trkpt>
      <trkpt lat="43.315610" lon="11.925410">
        <ele>279</ele>
        <time>2019-09-06T11:06:25Z</time>
      </trkpt>
      <trkpt lat="43.315730" lon="11.925470">
        <ele>281</ele>
        <time>2019-09-06T11:06:27Z</time>
      </trkpt>
      <trkpt lat="43.316420" lon="11.925500">
        <ele>282</ele>
        <time>2019-09-06T11:06:39Z</time>
      </trkpt>
      <trkpt lat="43.316950" lon="11.925570">
        <ele>288</ele>
        <time>2019-09-06T11:06:49Z</time>
      </trkpt>
      <trkpt lat="43.317140" lon="11.925570">
        <ele>291</ele>
        <time>2019-09-06T11:06:52Z</time>
      </trkpt>
      <trkpt lat="43.317270" lon="11.925540">
        <ele>293</ele>
        <time>2019-09-06T11:06:55Z</time>
      </trkpt>
      <trkpt lat="43.317410" lon="11.925470">
        <ele>294</ele>
        <time>2019-09-06T11:06:57Z</time>
      </trkpt>
      <trkpt lat="43.317540" lon="11.925340">
        <ele>293</ele>
        <time>2019-09-06T11:07:00Z</time>
      </trkpt>
      <trkpt lat="43.317800" lon="11.925150">
        <ele>293</ele>
        <time>2019-09-06T11:07:05Z</time>
      </trkpt>
      <trkpt lat="43.317900" lon="11.925130">
        <ele>294</ele>
        <time>2019-09-06T11:07:07Z</time>
      </trkpt>
      <trkpt lat="43.317990" lon="11.925030">
        <ele>294</ele>
        <time>2019-09-06T11:07:09Z</time>
      </trkpt>
      <trkpt lat="43.318300" lon="11.924960">
        <ele>297</ele>
        <time>2019-09-06T11:07:15Z</time>
      </trkpt>
      <trkpt lat="43.318370" lon="11.925020">
        <ele>298</ele>
        <time>2019-09-06T11:07:16Z</time>
      </trkpt>
      <trkpt lat="43.318430" lon="11.924990">
        <ele>298</ele>
        <time>2019-09-06T11:07:17Z</time>
      </trkpt>
      <trkpt lat="43.318570" lon="11.924850">
        <ele>295</ele>
        <time>2019-09-06T11:07:20Z</time>
      </trkpt>
      <trkpt lat="43.318680" lon="11.924790">
        <ele>294</ele>
        <time>2019-09-06T11:07:23Z</time>
      </trkpt>
      <trkpt lat="43.318850" lon="11.924780">
        <ele>294</ele>
        <time>2019-09-06T11:07:26Z</time>
      </trkpt>
      <trkpt lat="43.319200" lon="11.924700">
        <ele>292</ele>
        <time>2019-09-06T11:07:32Z</time>
      </trkpt>
      <trkpt lat="43.319830" lon="11.924290">
        <ele>286</ele>
        <time>2019-09-06T11:07:44Z</time>
      </trkpt>
      <trkpt lat="43.321350" lon="11.923950">
        <ele>269</ele>
        <time>2019-09-06T11:08:12Z</time>
      </trkpt>
      <trkpt lat="43.321860" lon="11.923800">
        <ele>263</ele>
        <time>2019-09-06T11:08:21Z</time>
      </trkpt>
      <trkpt lat="43.322340" lon="11.923590">
        <ele>258</ele>
        <time>2019-09-06T11:08:30Z</time>
      </trkpt>
      <trkpt lat="43.322470" lon="11.923700">
        <ele>258</ele>
        <time>2019-09-06T11:08:33Z</time>
      </trkpt>
      <trkpt lat="43.322990" lon="11.923500">
        <ele>255</ele>
        <time>2019-09-06T11:08:42Z</time>
      </trkpt>
      <trkpt lat="43.323420" lon="11.923290">
        <ele>254</ele>
        <time>2019-09-06T11:08:50Z</time>
      </trkpt>
      <trkpt lat="43.323520" lon="11.923200">
        <ele>254</ele>
        <time>2019-09-06T11:08:53Z</time>
      </trkpt>
      <trkpt lat="43.323980" lon="11.922530">
        <ele>254</ele>
        <time>2019-09-06T11:09:04Z</time>
      </trkpt>
      <trkpt lat="43.324370" lon="11.922020">
        <ele>253</ele>
        <time>2019-09-06T11:09:14Z</time>
      </trkpt>
      <trkpt lat="43.331440" lon="11.922430">
        <ele>255</ele>
        <time>2019-09-06T11:11:20Z</time>
      </trkpt>
      <trkpt lat="43.331700" lon="11.922470">
        <ele>255</ele>
        <time>2019-09-06T11:11:25Z</time>
      </trkpt>
      <trkpt lat="43.335840" lon="11.923550">
        <ele>254</ele>
        <time>2019-09-06T11:12:40Z</time>
      </trkpt>
      <trkpt lat="43.336260" lon="11.923600">
        <ele>255</ele>
        <time>2019-09-06T11:12:47Z</time>
      </trkpt>
      <trkpt lat="43.336580" lon="11.923560">
        <ele>255</ele>
        <time>2019-09-06T11:12:53Z</time>
      </trkpt>
      <trkpt lat="43.336820" lon="11.923460">
        <ele>256</ele>
        <time>2019-09-06T11:12:57Z</time>
      </trkpt>
      <trkpt lat="43.337150" lon="11.923220">
        <ele>258</ele>
        <time>2019-09-06T11:13:04Z</time>
      </trkpt>
      <trkpt lat="43.337510" lon="11.922760">
        <ele>259</ele>
        <time>2019-09-06T11:13:13Z</time>
      </trkpt>
      <trkpt lat="43.338910" lon="11.920630">
        <ele>266</ele>
        <time>2019-09-06T11:13:50Z</time>
      </trkpt>
      <trkpt lat="43.339450" lon="11.920550">
        <ele>271</ele>
        <time>2019-09-06T11:13:59Z</time>
      </trkpt>
      <trkpt lat="43.339820" lon="11.920430">
        <ele>274</ele>
        <time>2019-09-06T11:14:06Z</time>
      </trkpt>
      <trkpt lat="43.341110" lon="11.919020">
        <ele>270</ele>
        <time>2019-09-06T11:14:36Z</time>
      </trkpt>
      <trkpt lat="43.341290" lon="11.918850">
        <ele>270</ele>
        <time>2019-09-06T11:14:39Z</time>
      </trkpt>
      <trkpt lat="43.341520" lon="11.918700">
        <ele>270</ele>
        <time>2019-09-06T11:14:44Z</time>
      </trkpt>
      <trkpt lat="43.341720" lon="11.918630">
        <ele>270</ele>
        <time>2019-09-06T11:14:48Z</time>
      </trkpt>
      <trkpt lat="43.341860" lon="11.918790">
        <ele>272</ele>
        <time>2019-09-06T11:14:51Z</time>
      </trkpt>
      <trkpt lat="43.342160" lon="11.918860">
        <ele>274</ele>
        <time>2019-09-06T11:14:56Z</time>
      </trkpt>
      <trkpt lat="43.342400" lon="11.918960">
        <ele>275</ele>
        <time>2019-09-06T11:15:01Z</time>
      </trkpt>
      <trkpt lat="43.342850" lon="11.919320">
        <ele>281</ele>
        <time>2019-09-06T11:15:10Z</time>
      </trkpt>
      <trkpt lat="43.343020" lon="11.919350">
        <ele>282</ele>
        <time>2019-09-06T11:15:13Z</time>
      </trkpt>
      <trkpt lat="43.343910" lon="11.919350">
        <ele>292</ele>
        <time>2019-09-06T11:15:29Z</time>
      </trkpt>
      <trkpt lat="43.344520" lon="11.918900">
        <ele>296</ele>
        <time>2019-09-06T11:15:41Z</time>
      </trkpt>
      <trkpt lat="43.344690" lon="11.918720">
        <ele>296</ele>
        <time>2019-09-06T11:15:45Z</time>
      </trkpt>
      <trkpt lat="43.344930" lon="11.918250">
        <ele>292</ele>
        <time>2019-09-06T11:15:52Z</time>
      </trkpt>
      <trkpt lat="43.345170" lon="11.917920">
        <ele>292</ele>
        <time>2019-09-06T11:15:58Z</time>
      </trkpt>
      <trkpt lat="43.345250" lon="11.917690">
        <ele>291</ele>
        <time>2019-09-06T11:16:02Z</time>
      </trkpt>
      <trkpt lat="43.345480" lon="11.917520">
        <ele>291</ele>
        <time>2019-09-06T11:16:06Z</time>
      </trkpt>
      <trkpt lat="43.346130" lon="11.916590">
        <ele>295</ele>
        <time>2019-09-06T11:16:23Z</time>
      </trkpt>
      <trkpt lat="43.346520" lon="11.915940">
        <ele>297</ele>
        <time>2019-09-06T11:16:34Z</time>
      </trkpt>
      <trkpt lat="43.346640" lon="11.915620">
        <ele>297</ele>
        <time>2019-09-06T11:16:39Z</time>
      </trkpt>
      <trkpt lat="43.346690" lon="11.915350">
        <ele>297</ele>
        <time>2019-09-06T11:16:42Z</time>
      </trkpt>
      <trkpt lat="43.346670" lon="11.915040">
        <ele>296</ele>
        <time>2019-09-06T11:16:46Z</time>
      </trkpt>
      <trkpt lat="43.346580" lon="11.914590">
        <ele>296</ele>
        <time>2019-09-06T11:16:52Z</time>
      </trkpt>
      <trkpt lat="43.346580" lon="11.914320">
        <ele>297</ele>
        <time>2019-09-06T11:16:56Z</time>
      </trkpt>
      <trkpt lat="43.346630" lon="11.913960">
        <ele>298</ele>
        <time>2019-09-06T11:17:01Z</time>
      </trkpt>
      <trkpt lat="43.346700" lon="11.913620">
        <ele>297</ele>
        <time>2019-09-06T11:17:05Z</time>
      </trkpt>
      <trkpt lat="43.346830" lon="11.913220">
        <ele>296</ele>
        <time>2019-09-06T11:17:11Z</time>
      </trkpt>
      <trkpt lat="43.346970" lon="11.912950">
        <ele>293</ele>
        <time>2019-09-06T11:17:15Z</time>
      </trkpt>
      <trkpt lat="43.347130" lon="11.912720">
        <ele>291</ele>
        <time>2019-09-06T11:17:19Z</time>
      </trkpt>
      <trkpt lat="43.347780" lon="11.912050">
        <ele>284</ele>
        <time>2019-09-06T11:17:34Z</time>
      </trkpt>
      <trkpt lat="43.348390" lon="11.911100">
        <ele>279</ele>
        <time>2019-09-06T11:17:50Z</time>
      </trkpt>
      <trkpt lat="43.348390" lon="11.910980">
        <ele>279</ele>
        <time>2019-09-06T11:17:52Z</time>
      </trkpt>
      <trkpt lat="43.348510" lon="11.910860">
        <ele>278</ele>
        <time>2019-09-06T11:17:54Z</time>
      </trkpt>
      <trkpt lat="43.348650" lon="11.910660">
        <ele>278</ele>
        <time>2019-09-06T11:17:58Z</time>
      </trkpt>
      <trkpt lat="43.349750" lon="11.909000">
        <ele>278</ele>
        <time>2019-09-06T11:18:27Z</time>
      </trkpt>
      <trkpt lat="43.349800" lon="11.909020">
        <ele>278</ele>
        <time>2019-09-06T11:18:28Z</time>
      </trkpt>
      <trkpt lat="43.349860" lon="11.908980">
        <ele>278</ele>
        <time>2019-09-06T11:18:29Z</time>
      </trkpt>
      <trkpt lat="43.349880" lon="11.908890">
        <ele>278</ele>
        <time>2019-09-06T11:18:30Z</time>
      </trkpt>
      <trkpt lat="43.349860" lon="11.908830">
        <ele>277</ele>
        <time>2019-09-06T11:18:31Z</time>
      </trkpt>
      <trkpt lat="43.352630" lon="11.904520">
        <ele>280</ele>
        <time>2019-09-06T11:19:46Z</time>
      </trkpt>
      <trkpt lat="43.353880" lon="11.902630">
        <ele>283</ele>
        <time>2019-09-06T11:20:19Z</time>
      </trkpt>
      <trkpt lat="43.354970" lon="11.901290">
        <ele>281</ele>
        <time>2019-09-06T11:20:45Z</time>
      </trkpt>
      <trkpt lat="43.358110" lon="11.897540">
        <ele>278</ele>
        <time>2019-09-06T11:21:59Z</time>
      </trkpt>
      <trkpt lat="43.359040" lon="11.896570">
        <ele>280</ele>
        <time>2019-09-06T11:22:19Z</time>
      </trkpt>
      <trkpt lat="43.360640" lon="11.894810">
        <ele>286</ele>
        <time>2019-09-06T11:22:56Z</time>
      </trkpt>
      <trkpt lat="43.361180" lon="11.894260">
        <ele>289</ele>
        <time>2019-09-06T11:23:08Z</time>
      </trkpt>
      <trkpt lat="43.362390" lon="11.892950">
        <ele>296</ele>
        <time>2019-09-06T11:23:35Z</time>
      </trkpt>
      <trkpt lat="43.362580" lon="11.892690">
        <ele>297</ele>
        <time>2019-09-06T11:23:40Z</time>
      </trkpt>
      <trkpt lat="43.363210" lon="11.891410">
        <ele>295</ele>
        <time>2019-09-06T11:24:00Z</time>
      </trkpt>
      <trkpt lat="43.363560" lon="11.890840">
        <ele>293</ele>
        <time>2019-09-06T11:24:10Z</time>
      </trkpt>
      <trkpt lat="43.364870" lon="11.889260">
        <ele>292</ele>
        <time>2019-09-06T11:24:41Z</time>
      </trkpt>
      <trkpt lat="43.364970" lon="11.889080">
        <ele>292</ele>
        <time>2019-09-06T11:24:44Z</time>
      </trkpt>
      <trkpt lat="43.365140" lon="11.888580">
        <ele>290</ele>
        <time>2019-09-06T11:24:51Z</time>
      </trkpt>
      <trkpt lat="43.365310" lon="11.887810">
        <ele>288</ele>
        <time>2019-09-06T11:25:01Z</time>
      </trkpt>
      <trkpt lat="43.365560" lon="11.887270">
        <ele>288</ele>
        <time>2019-09-06T11:25:09Z</time>
      </trkpt>
      <trkpt lat="43.365700" lon="11.886820">
        <ele>288</ele>
        <time>2019-09-06T11:25:16Z</time>
      </trkpt>
      <trkpt lat="43.365890" lon="11.885610">
        <ele>286</ele>
        <time>2019-09-06T11:25:32Z</time>
      </trkpt>
      <trkpt lat="43.365990" lon="11.884550">
        <ele>282</ele>
        <time>2019-09-06T11:25:46Z</time>
      </trkpt>
      <trkpt lat="43.366070" lon="11.884230">
        <ele>281</ele>
        <time>2019-09-06T11:25:50Z</time>
      </trkpt>
      <trkpt lat="43.366220" lon="11.883890">
        <ele>280</ele>
        <time>2019-09-06T11:25:55Z</time>
      </trkpt>
      <trkpt lat="43.369050" lon="11.879070">
        <ele>276</ele>
        <time>2019-09-06T11:27:15Z</time>
      </trkpt>
      <trkpt lat="43.370600" lon="11.876140">
        <ele>282</ele>
        <time>2019-09-06T11:28:02Z</time>
      </trkpt>
      <trkpt lat="43.371660" lon="11.874310">
        <ele>281</ele>
        <time>2019-09-06T11:28:32Z</time>
      </trkpt>
      <trkpt lat="43.372990" lon="11.871770">
        <ele>284</ele>
        <time>2019-09-06T11:29:13Z</time>
      </trkpt>
      <trkpt lat="43.373530" lon="11.870930">
        <ele>283</ele>
        <time>2019-09-06T11:29:27Z</time>
      </trkpt>
      <trkpt lat="43.374020" lon="11.870230">
        <ele>283</ele>
        <time>2019-09-06T11:29:40Z</time>
      </trkpt>
      <trkpt lat="43.377620" lon="11.865730">
        <ele>282</ele>
        <time>2019-09-06T11:31:06Z</time>
      </trkpt>
      <trkpt lat="43.377710" lon="11.865680">
        <ele>282</ele>
        <time>2019-09-06T11:31:08Z</time>
      </trkpt>
      <trkpt lat="43.377800" lon="11.865670">
        <ele>282</ele>
        <time>2019-09-06T11:31:10Z</time>
      </trkpt>
      <trkpt lat="43.377890" lon="11.865700">
        <ele>282</ele>
        <time>2019-09-06T11:31:11Z</time>
      </trkpt>
      <trkpt lat="43.377990" lon="11.865680">
        <ele>282</ele>
        <time>2019-09-06T11:31:13Z</time>
      </trkpt>
      <trkpt lat="43.378090" lon="11.865570">
        <ele>282</ele>
        <time>2019-09-06T11:31:15Z</time>
      </trkpt>
      <trkpt lat="43.378130" lon="11.865450">
        <ele>281</ele>
        <time>2019-09-06T11:31:17Z</time>
      </trkpt>
      <trkpt lat="43.378150" lon="11.865170">
        <ele>280</ele>
        <time>2019-09-06T11:31:21Z</time>
      </trkpt>
      <trkpt lat="43.378200" lon="11.865060">
        <ele>280</ele>
        <time>2019-09-06T11:31:22Z</time>
      </trkpt>
      <trkpt lat="43.380910" lon="11.861770">
        <ele>285</ele>
        <time>2019-09-06T11:32:27Z</time>
      </trkpt>
      <trkpt lat="43.381090" lon="11.861620">
        <ele>285</ele>
        <time>2019-09-06T11:32:31Z</time>
      </trkpt>
      <trkpt lat="43.384320" lon="11.860070">
        <ele>288</ele>
        <time>2019-09-06T11:33:31Z</time>
      </trkpt>
      <trkpt lat="43.386280" lon="11.858660">
        <ele>284</ele>
        <time>2019-09-06T11:34:11Z</time>
      </trkpt>
      <trkpt lat="43.387690" lon="11.857940">
        <ele>287</ele>
        <time>2019-09-06T11:34:38Z</time>
      </trkpt>
      <trkpt lat="43.388950" lon="11.857230">
        <ele>291</ele>
        <time>2019-09-06T11:35:02Z</time>
      </trkpt>
      <trkpt lat="43.389480" lon="11.856870">
        <ele>292</ele>
        <time>2019-09-06T11:35:12Z</time>
      </trkpt>
      <trkpt lat="43.390470" lon="11.856130">
        <ele>291</ele>
        <time>2019-09-06T11:35:32Z</time>
      </trkpt>
      <trkpt lat="43.391660" lon="11.855040">
        <ele>287</ele>
        <time>2019-09-06T11:35:58Z</time>
      </trkpt>
      <trkpt lat="43.391860" lon="11.854880">
        <ele>287</ele>
        <time>2019-09-06T11:36:02Z</time>
      </trkpt>
      <trkpt lat="43.392170" lon="11.854700">
        <ele>288</ele>
        <time>2019-09-06T11:36:08Z</time>
      </trkpt>
      <trkpt lat="43.395240" lon="11.853650">
        <ele>284</ele>
        <time>2019-09-06T11:37:04Z</time>
      </trkpt>
      <trkpt lat="43.395570" lon="11.853500">
        <ele>283</ele>
        <time>2019-09-06T11:37:10Z</time>
      </trkpt>
      <trkpt lat="43.398310" lon="11.852030">
        <ele>279</ele>
        <time>2019-09-06T11:38:03Z</time>
      </trkpt>
      <trkpt lat="43.398010" lon="11.850730">
        <ele>275</ele>
        <time>2019-09-06T11:38:20Z</time>
      </trkpt>
      <trkpt lat="43.397980" lon="11.850000">
        <ele>274</ele>
        <time>2019-09-06T11:38:30Z</time>
      </trkpt>
      <trkpt lat="43.398070" lon="11.849400">
        <ele>272</ele>
        <time>2019-09-06T11:38:38Z</time>
      </trkpt>
      <trkpt lat="43.398030" lon="11.848250">
        <ele>268</ele>
        <time>2019-09-06T11:38:53Z</time>
      </trkpt>
      <trkpt lat="43.398070" lon="11.848050">
        <ele>267</ele>
        <time>2019-09-06T11:38:55Z</time>
      </trkpt>
      <trkpt lat="43.399680" lon="11.845950">
        <ele>265</ele>
        <time>2019-09-06T11:39:35Z</time>
      </trkpt>
      <trkpt lat="43.399690" lon="11.845850">
        <ele>265</ele>
        <time>2019-09-06T11:39:36Z</time>
      </trkpt>
      <trkpt lat="43.398920" lon="11.844940">
        <ele>262</ele>
        <time>2019-09-06T11:39:54Z</time>
      </trkpt>
      <trkpt lat="43.398590" lon="11.844340">
        <ele>259</ele>
        <time>2019-09-06T11:40:04Z</time>
      </trkpt>
      <trkpt lat="43.398560" lon="11.844260">
        <ele>259</ele>
        <time>2019-09-06T11:40:05Z</time>
      </trkpt>
      <trkpt lat="43.398570" lon="11.844120">
        <ele>259</ele>
        <time>2019-09-06T11:40:07Z</time>
      </trkpt>
      <trkpt lat="43.398920" lon="11.844240">
        <ele>260</ele>
        <time>2019-09-06T11:40:13Z</time>
      </trkpt>
      <trkpt lat="43.400630" lon="11.844170">
        <ele>265</ele>
        <time>2019-09-06T11:40:44Z</time>
      </trkpt>
      <trkpt lat="43.401780" lon="11.844090">
        <ele>266</ele>
        <time>2019-09-06T11:41:04Z</time>
      </trkpt>
      <trkpt lat="43.417290" lon="11.843350">
        <ele>256</ele>
        <time>2019-09-06T11:45:40Z</time>
      </trkpt>
      <trkpt lat="43.422270" lon="11.843160">
        <ele>259</ele>
        <time>2019-09-06T11:47:09Z</time>
      </trkpt>
      <trkpt lat="43.424410" lon="11.843010">
        <ele>258</ele>
        <time>2019-09-06T11:47:47Z</time>
      </trkpt>
      <trkpt lat="43.426880" lon="11.842900">
        <ele>261</ele>
        <time>2019-09-06T11:48:31Z</time>
      </trkpt>
      <trkpt lat="43.430040" lon="11.842690">
        <ele>266</ele>
        <time>2019-09-06T11:49:27Z</time>
      </trkpt>
      <trkpt lat="43.430320" lon="11.842760">
        <ele>267</ele>
        <time>2019-09-06T11:49:32Z</time>
      </trkpt>
      <trkpt lat="43.430440" lon="11.842860">
        <ele>268</ele>
        <time>2019-09-06T11:49:35Z</time>
      </trkpt>
      <trkpt lat="43.430550" lon="11.843000">
        <ele>270</ele>
        <time>2019-09-06T11:49:37Z</time>
      </trkpt>
      <trkpt lat="43.430710" lon="11.842980">
        <ele>270</ele>
        <time>2019-09-06T11:49:40Z</time>
      </trkpt>
      <trkpt lat="43.431660" lon="11.843580">
        <ele>272</ele>
        <time>2019-09-06T11:49:59Z</time>
      </trkpt>
      <trkpt lat="43.432480" lon="11.844400">
        <ele>272</ele>
        <time>2019-09-06T11:50:17Z</time>
      </trkpt>
      <trkpt lat="43.433370" lon="11.846010">
        <ele>276</ele>
        <time>2019-09-06T11:50:43Z</time>
      </trkpt>
      <trkpt lat="43.434490" lon="11.848290">
        <ele>279</ele>
        <time>2019-09-06T11:51:19Z</time>
      </trkpt>
      <trkpt lat="43.435000" lon="11.849230">
        <ele>280</ele>
        <time>2019-09-06T11:51:34Z</time>
      </trkpt>
      <trkpt lat="43.435300" lon="11.849720">
        <ele>282</ele>
        <time>2019-09-06T11:51:42Z</time>
      </trkpt>
      <trkpt lat="43.435430" lon="11.849780">
        <ele>281</ele>
        <time>2019-09-06T11:51:45Z</time>
      </trkpt>
      <trkpt lat="43.435550" lon="11.849800">
        <ele>281</ele>
        <time>2019-09-06T11:51:47Z</time>
      </trkpt>
      <trkpt lat="43.435800" lon="11.850120">
        <ele>282</ele>
        <time>2019-09-06T11:51:53Z</time>
      </trkpt>
      <trkpt lat="43.435870" lon="11.850150">
        <ele>282</ele>
        <time>2019-09-06T11:51:54Z</time>
      </trkpt>
      <trkpt lat="43.435950" lon="11.850150">
        <ele>282</ele>
        <time>2019-09-06T11:51:56Z</time>
      </trkpt>
      <trkpt lat="43.436050" lon="11.850090">
        <ele>282</ele>
        <time>2019-09-06T11:51:57Z</time>
      </trkpt>
      <trkpt lat="43.436120" lon="11.850090">
        <ele>282</ele>
        <time>2019-09-06T11:51:59Z</time>
      </trkpt>
      <trkpt lat="43.436200" lon="11.850140">
        <ele>283</ele>
        <time>2019-09-06T11:52:00Z</time>
      </trkpt>
      <trkpt lat="43.436260" lon="11.850260">
        <ele>283</ele>
        <time>2019-09-06T11:52:02Z</time>
      </trkpt>
      <trkpt lat="43.436370" lon="11.850680">
        <ele>283</ele>
        <time>2019-09-06T11:52:08Z</time>
      </trkpt>
      <trkpt lat="43.436560" lon="11.851000">
        <ele>284</ele>
        <time>2019-09-06T11:52:13Z</time>
      </trkpt>
      <trkpt lat="43.436730" lon="11.851150">
        <ele>284</ele>
        <time>2019-09-06T11:52:17Z</time>
      </trkpt>
      <trkpt lat="43.437240" lon="11.851490">
        <ele>284</ele>
        <time>2019-09-06T11:52:27Z</time>
      </trkpt>
      <trkpt lat="43.437630" lon="11.851700">
        <ele>283</ele>
        <time>2019-09-06T11:52:34Z</time>
      </trkpt>
      <trkpt lat="43.439130" lon="11.852790">
        <ele>279</ele>
        <time>2019-09-06T11:53:05Z</time>
      </trkpt>
      <trkpt lat="43.439510" lon="11.852990">
        <ele>275</ele>
        <time>2019-09-06T11:53:12Z</time>
      </trkpt>
      <trkpt lat="43.439760" lon="11.853090">
        <ele>272</ele>
        <time>2019-09-06T11:53:16Z</time>
      </trkpt>
      <trkpt lat="43.440260" lon="11.853230">
        <ele>268</ele>
        <time>2019-09-06T11:53:26Z</time>
      </trkpt>
      <trkpt lat="43.440640" lon="11.853390">
        <ele>265</ele>
        <time>2019-09-06T11:53:33Z</time>
      </trkpt>
      <trkpt lat="43.441020" lon="11.853570">
        <ele>263</ele>
        <time>2019-09-06T11:53:40Z</time>
      </trkpt>
      <trkpt lat="43.441390" lon="11.853800">
        <ele>262</ele>
        <time>2019-09-06T11:53:47Z</time>
      </trkpt>
      <trkpt lat="43.441820" lon="11.854210">
        <ele>259</ele>
        <time>2019-09-06T11:53:56Z</time>
      </trkpt>
      <trkpt lat="43.445030" lon="11.858180">
        <ele>253</ele>
        <time>2019-09-06T11:55:13Z</time>
      </trkpt>
      <trkpt lat="43.445920" lon="11.859210">
        <ele>254</ele>
        <time>2019-09-06T11:55:34Z</time>
      </trkpt>
      <trkpt lat="43.447260" lon="11.860880">
        <ele>254</ele>
        <time>2019-09-06T11:56:06Z</time>
      </trkpt>
      <trkpt lat="43.447390" lon="11.860970">
        <ele>254</ele>
        <time>2019-09-06T11:56:08Z</time>
      </trkpt>
      <trkpt lat="43.447500" lon="11.861010">
        <ele>254</ele>
        <time>2019-09-06T11:56:10Z</time>
      </trkpt>
      <trkpt lat="43.447720" lon="11.860990">
        <ele>254</ele>
        <time>2019-09-06T11:56:14Z</time>
      </trkpt>
      <trkpt lat="43.448160" lon="11.860790">
        <ele>255</ele>
        <time>2019-09-06T11:56:23Z</time>
      </trkpt>
      <trkpt lat="43.448250" lon="11.860710">
        <ele>255</ele>
        <time>2019-09-06T11:56:25Z</time>
      </trkpt>
      <trkpt lat="43.448840" lon="11.860420">
        <ele>256</ele>
        <time>2019-09-06T11:56:36Z</time>
      </trkpt>
      <trkpt lat="43.449400" lon="11.860110">
        <ele>256</ele>
        <time>2019-09-06T11:56:46Z</time>
      </trkpt>
      <trkpt lat="43.449630" lon="11.860050">
        <ele>256</ele>
        <time>2019-09-06T11:56:51Z</time>
      </trkpt>
      <trkpt lat="43.449700" lon="11.860040">
        <ele>256</ele>
        <time>2019-09-06T11:56:52Z</time>
      </trkpt>
      <trkpt lat="43.450020" lon="11.860140">
        <ele>255</ele>
        <time>2019-09-06T11:56:58Z</time>
      </trkpt>
      <trkpt lat="43.450280" lon="11.860370">
        <ele>255</ele>
        <time>2019-09-06T11:57:03Z</time>
      </trkpt>
      <trkpt lat="43.450360" lon="11.860510">
        <ele>255</ele>
        <time>2019-09-06T11:57:05Z</time>
      </trkpt>
      <trkpt lat="43.450600" lon="11.861210">
        <ele>255</ele>
        <time>2019-09-06T11:57:15Z</time>
      </trkpt>
      <trkpt lat="43.450730" lon="11.861490">
        <ele>254</ele>
        <time>2019-09-06T11:57:20Z</time>
      </trkpt>
      <trkpt lat="43.450910" lon="11.861780">
        <ele>254</ele>
        <time>2019-09-06T11:57:25Z</time>
      </trkpt>
      <trkpt lat="43.451720" lon="11.862610">
        <ele>253</ele>
        <time>2019-09-06T11:57:43Z</time>
      </trkpt>
      <trkpt lat="43.452460" lon="11.863620">
        <ele>253</ele>
        <time>2019-09-06T11:58:01Z</time>
      </trkpt>
      <trkpt lat="43.452800" lon="11.864450">
        <ele>252</ele>
        <time>2019-09-06T11:58:14Z</time>
      </trkpt>
      <trkpt lat="43.453020" lon="11.865090">
        <ele>252</ele>
        <time>2019-09-06T11:58:23Z</time>
      </trkpt>
      <trkpt lat="43.453040" lon="11.865240">
        <ele>252</ele>
        <time>2019-09-06T11:58:25Z</time>
      </trkpt>
      <trkpt lat="43.453030" lon="11.865400">
        <ele>252</ele>
        <time>2019-09-06T11:58:27Z</time>
      </trkpt>
      <trkpt lat="43.453070" lon="11.865560">
        <ele>252</ele>
        <time>2019-09-06T11:58:29Z</time>
      </trkpt>
      <trkpt lat="43.453180" lon="11.865670">
        <ele>252</ele>
        <time>2019-09-06T11:58:31Z</time>
      </trkpt>
      <trkpt lat="43.453370" lon="11.865720">
        <ele>252</ele>
        <time>2019-09-06T11:58:35Z</time>
      </trkpt>
      <trkpt lat="43.453490" lon="11.865790">
        <ele>252</ele>
        <time>2019-09-06T11:58:37Z</time>
      </trkpt>
      <trkpt lat="43.453750" lon="11.866100">
        <ele>253</ele>
        <time>2019-09-06T11:58:43Z</time>
      </trkpt>
      <trkpt lat="43.454340" lon="11.866840">
        <ele>252</ele>
        <time>2019-09-06T11:58:57Z</time>
      </trkpt>
      <trkpt lat="43.454660" lon="11.867300">
        <ele>252</ele>
        <time>2019-09-06T11:59:06Z</time>
      </trkpt>
      <trkpt lat="43.455520" lon="11.868420">
        <ele>254</ele>
        <time>2019-09-06T11:59:27Z</time>
      </trkpt>
      <trkpt lat="43.459140" lon="11.873090">
        <ele>258</ele>
        <time>2019-09-06T12:00:55Z</time>
      </trkpt>
      <trkpt lat="43.458160" lon="11.874580">
        <ele>259</ele>
        <time>2019-09-06T12:01:21Z</time>
      </trkpt>
      <trkpt lat="43.459960" lon="11.876730">
        <ele>258</ele>
        <time>2019-09-06T12:02:03Z</time>
      </trkpt>
      <trkpt lat="43.460660" lon="11.877620">
        <ele>260</ele>
        <time>2019-09-06T12:02:20Z</time>
      </trkpt>
      <trkpt lat="43.461490" lon="11.876210">
        <ele>260</ele>
        <time>2019-09-06T12:02:44Z</time>
      </trkpt>
      <trkpt lat="43.461680" lon="11.876440">
        <ele>262</ele>
        <time>2019-09-06T12:02:48Z</time>
      </trkpt>
      <trkpt lat="43.461730" lon="11.876410">
        <ele>263</ele>
        <time>2019-09-06T12:02:49Z</time>
      </trkpt>
      <trkpt lat="43.462350" lon="11.877220">
        <ele>267</ele>
        <time>2019-09-06T12:03:04Z</time>
      </trkpt>
      <trkpt lat="43.462720" lon="11.877650">
        <ele>266</ele>
        <time>2019-09-06T12:03:13Z</time>
      </trkpt>
      <trkpt lat="43.462350" lon="11.877220">
        <ele>267</ele>
        <time>2019-09-06T12:03:22Z</time>
      </trkpt>
      <trkpt lat="43.462780" lon="11.876590">
        <ele>268</ele>
        <time>2019-09-06T12:03:33Z</time>
      </trkpt>
      <trkpt lat="43.463160" lon="11.876900">
        <ele>267</ele>
        <time>2019-09-06T12:03:41Z</time>
      </trkpt>
      <trkpt lat="43.463610" lon="11.877490">
        <ele>263</ele>
        <time>2019-09-06T12:03:52Z</time>
      </trkpt>
      <trkpt lat="43.465190" lon="11.875040">
        <ele>257</ele>
        <time>2019-09-06T12:04:34Z</time>
      </trkpt>
      <trkpt lat="43.465260" lon="11.874800">
        <ele>256</ele>
        <time>2019-09-06T12:04:37Z</time>
      </trkpt>
      <trkpt lat="43.465380" lon="11.874600">
        <ele>256</ele>
        <time>2019-09-06T12:04:41Z</time>
      </trkpt>
      <trkpt lat="43.465470" lon="11.874500">
        <ele>255</ele>
        <time>2019-09-06T12:04:43Z</time>
      </trkpt>
      <trkpt lat="43.465530" lon="11.874470">
        <ele>255</ele>
        <time>2019-09-06T12:04:44Z</time>
      </trkpt>
      <trkpt lat="43.465860" lon="11.874520">
        <ele>254</ele>
        <time>2019-09-06T12:04:50Z</time>
      </trkpt>
      <trkpt lat="43.466990" lon="11.874960">
        <ele>255</ele>
        <time>2019-09-06T12:05:11Z</time>
      </trkpt>
      <trkpt lat="43.467220" lon="11.874940">
        <ele>254</ele>
        <time>2019-09-06T12:05:15Z</time>
      </trkpt>
      <trkpt lat="43.467450" lon="11.875170">
        <ele>255</ele>
        <time>2019-09-06T12:05:20Z</time>
      </trkpt>
      <trkpt lat="43.468180" lon="11.875310">
        <ele>256</ele>
        <time>2019-09-06T12:05:33Z</time>
      </trkpt>
      <trkpt lat="43.468610" lon="11.875340">
        <ele>256</ele>
        <time>2019-09-06T12:05:41Z</time>
      </trkpt>
      <trkpt lat="43.469470" lon="11.875350">
        <ele>254</ele>
        <time>2019-09-06T12:05:56Z</time>
      </trkpt>
      <trkpt lat="43.472510" lon="11.874260">
        <ele>252</ele>
        <time>2019-09-06T12:06:52Z</time>
      </trkpt>
      <trkpt lat="43.473250" lon="11.873870">
        <ele>252</ele>
        <time>2019-09-06T12:07:06Z</time>
      </trkpt>
      <trkpt lat="43.475250" lon="11.872540">
        <ele>250</ele>
        <time>2019-09-06T12:07:45Z</time>
      </trkpt>
      <trkpt lat="43.475550" lon="11.872290">
        <ele>250</ele>
        <time>2019-09-06T12:07:52Z</time>
      </trkpt>
      <trkpt lat="43.476710" lon="11.870000">
        <ele>249</ele>
        <time>2019-09-06T12:08:28Z</time>
      </trkpt>
      <trkpt lat="43.476760" lon="11.869950">
        <ele>249</ele>
        <time>2019-09-06T12:08:29Z</time>
      </trkpt>
      <trkpt lat="43.477050" lon="11.869400">
        <ele>248</ele>
        <time>2019-09-06T12:08:38Z</time>
      </trkpt>
      <trkpt lat="43.477060" lon="11.869320">
        <ele>248</ele>
        <time>2019-09-06T12:08:39Z</time>
      </trkpt>
      <trkpt lat="43.477820" lon="11.867860">
        <ele>247</ele>
        <time>2019-09-06T12:09:02Z</time>
      </trkpt>
      <trkpt lat="43.477970" lon="11.867500">
        <ele>248</ele>
        <time>2019-09-06T12:09:07Z</time>
      </trkpt>
      <trkpt lat="43.478080" lon="11.867590">
        <ele>248</ele>
        <time>2019-09-06T12:09:09Z</time>
      </trkpt>
      <trkpt lat="43.478190" lon="11.867630">
        <ele>248</ele>
        <time>2019-09-06T12:09:11Z</time>
      </trkpt>
      <trkpt lat="43.478320" lon="11.867620">
        <ele>248</ele>
        <time>2019-09-06T12:09:14Z</time>
      </trkpt>
      <trkpt lat="43.478430" lon="11.867550">
        <ele>248</ele>
        <time>2019-09-06T12:09:16Z</time>
      </trkpt>
      <trkpt lat="43.478520" lon="11.867440">
        <ele>248</ele>
        <time>2019-09-06T12:09:18Z</time>
      </trkpt>
      <trkpt lat="43.478580" lon="11.867300">
        <ele>248</ele>
        <time>2019-09-06T12:09:20Z</time>
      </trkpt>
      <trkpt lat="43.478610" lon="11.867000">
        <ele>249</ele>
        <time>2019-09-06T12:09:24Z</time>
      </trkpt>
      <trkpt lat="43.478520" lon="11.866750">
        <ele>249</ele>
        <time>2019-09-06T12:09:28Z</time>
      </trkpt>
      <trkpt lat="43.478440" lon="11.866660">
        <ele>249</ele>
        <time>2019-09-06T12:09:30Z</time>
      </trkpt>
      <trkpt lat="43.479520" lon="11.864570">
        <ele>248</ele>
        <time>2019-09-06T12:10:03Z</time>
      </trkpt>
      <trkpt lat="43.480490" lon="11.862620">
        <ele>249</ele>
        <time>2019-09-06T12:10:33Z</time>
      </trkpt>
      <trkpt lat="43.481530" lon="11.860640">
        <ele>245</ele>
        <time>2019-09-06T12:11:05Z</time>
      </trkpt>
      <trkpt lat="43.485950" lon="11.851920">
        <ele>246</ele>
        <time>2019-09-06T12:13:22Z</time>
      </trkpt>
      <trkpt lat="43.486270" lon="11.851060">
        <ele>246</ele>
        <time>2019-09-06T12:13:35Z</time>
      </trkpt>
      <trkpt lat="43.486420" lon="11.850830">
        <ele>247</ele>
        <time>2019-09-06T12:13:39Z</time>
      </trkpt>
      <trkpt lat="43.486640" lon="11.850620">
        <ele>248</ele>
        <time>2019-09-06T12:13:43Z</time>
      </trkpt>
      <trkpt lat="43.486750" lon="11.850560">
        <ele>247</ele>
        <time>2019-09-06T12:13:45Z</time>
      </trkpt>
      <trkpt lat="43.486800" lon="11.850480">
        <ele>248</ele>
        <time>2019-09-06T12:13:47Z</time>
      </trkpt>
      <trkpt lat="43.486800" lon="11.850480">
        <ele>248</ele>
        <time>2019-09-05T12:30:04Z</time>
      </trkpt>
      <trkpt lat="43.486850" lon="11.850370">
        <ele>248</ele>
        <time>2019-09-05T12:30:06Z</time>
      </trkpt>
      <trkpt lat="43.486890" lon="11.849880">
        <ele>249</ele>
        <time>2019-09-05T12:30:12Z</time>
      </trkpt>
      <trkpt lat="43.486990" lon="11.849610">
        <ele>248</ele>
        <time>2019-09-05T12:30:16Z</time>
      </trkpt>
      <trkpt lat="43.487450" lon="11.848970">
        <ele>248</ele>
        <time>2019-09-05T12:30:28Z</time>
      </trkpt>
      <trkpt lat="43.487760" lon="11.848380">
        <ele>248</ele>
        <time>2019-09-05T12:30:37Z</time>
      </trkpt>
      <trkpt lat="43.493250" lon="11.837550">
        <ele>246</ele>
        <time>2019-09-05T12:33:28Z</time>
      </trkpt>
      <trkpt lat="43.497160" lon="11.829940">
        <ele>251</ele>
        <time>2019-09-05T12:35:28Z</time>
      </trkpt>
      <trkpt lat="43.497920" lon="11.828380">
        <ele>250</ele>
        <time>2019-09-05T12:35:52Z</time>
      </trkpt>
      <trkpt lat="43.497990" lon="11.828110">
        <ele>249</ele>
        <time>2019-09-05T12:35:56Z</time>
      </trkpt>
      <trkpt lat="43.498110" lon="11.827590">
        <ele>248</ele>
        <time>2019-09-05T12:36:03Z</time>
      </trkpt>
      <trkpt lat="43.498160" lon="11.827140">
        <ele>248</ele>
        <time>2019-09-05T12:36:09Z</time>
      </trkpt>
      <trkpt lat="43.498110" lon="11.826760">
        <ele>248</ele>
        <time>2019-09-05T12:36:14Z</time>
      </trkpt>
      <trkpt lat="43.498030" lon="11.826360">
        <ele>248</ele>
        <time>2019-09-05T12:36:19Z</time>
      </trkpt>
      <trkpt lat="43.498030" lon="11.826060">
        <ele>248</ele>
        <time>2019-09-05T12:36:23Z</time>
      </trkpt>
      <trkpt lat="43.498060" lon="11.825790">
        <ele>248</ele>
        <time>2019-09-05T12:36:27Z</time>
      </trkpt>
      <trkpt lat="43.498180" lon="11.825480">
        <ele>247</ele>
        <time>2019-09-05T12:36:31Z</time>
      </trkpt>
      <trkpt lat="43.499010" lon="11.823940">
        <ele>247</ele>
        <time>2019-09-05T12:36:56Z</time>
      </trkpt>
      <trkpt lat="43.499130" lon="11.823690">
        <ele>247</ele>
        <time>2019-09-05T12:37:00Z</time>
      </trkpt>
      <trkpt lat="43.499200" lon="11.823500">
        <ele>247</ele>
        <time>2019-09-05T12:37:03Z</time>
      </trkpt>
      <trkpt lat="43.499250" lon="11.823250">
        <ele>246</ele>
        <time>2019-09-05T12:37:06Z</time>
      </trkpt>
      <trkpt lat="43.499290" lon="11.822730">
        <ele>243</ele>
        <time>2019-09-05T12:37:13Z</time>
      </trkpt>
      <trkpt lat="43.499260" lon="11.822360">
        <ele>242</ele>
        <time>2019-09-05T12:37:18Z</time>
      </trkpt>
      <trkpt lat="43.498470" lon="11.818840">
        <ele>240</ele>
        <time>2019-09-05T12:38:05Z</time>
      </trkpt>
      <trkpt lat="43.498040" lon="11.817320">
        <ele>234</ele>
        <time>2019-09-05T12:38:26Z</time>
      </trkpt>
      <trkpt lat="43.497920" lon="11.816560">
        <ele>233</ele>
        <time>2019-09-05T12:38:36Z</time>
      </trkpt>
      <trkpt lat="43.497930" lon="11.815000">
        <ele>229</ele>
        <time>2019-09-05T12:38:56Z</time>
      </trkpt>
      <trkpt lat="43.497980" lon="11.813930">
        <ele>229</ele>
        <time>2019-09-05T12:39:10Z</time>
      </trkpt>
      <trkpt lat="43.498120" lon="11.813360">
        <ele>228</ele>
        <time>2019-09-05T12:39:18Z</time>
      </trkpt>
      <trkpt lat="43.498300" lon="11.812810">
        <ele>225</ele>
        <time>2019-09-05T12:39:26Z</time>
      </trkpt>
      <trkpt lat="43.498550" lon="11.812320">
        <ele>223</ele>
        <time>2019-09-05T12:39:33Z</time>
      </trkpt>
      <trkpt lat="43.498920" lon="11.811870">
        <ele>221</ele>
        <time>2019-09-05T12:39:42Z</time>
      </trkpt>
      <trkpt lat="43.499270" lon="11.811550">
        <ele>220</ele>
        <time>2019-09-05T12:39:50Z</time>
      </trkpt>
      <trkpt lat="43.499620" lon="11.811200">
        <ele>218</ele>
        <time>2019-09-05T12:39:57Z</time>
      </trkpt>
      <trkpt lat="43.499870" lon="11.810620">
        <ele>217</ele>
        <time>2019-09-05T12:40:06Z</time>
      </trkpt>
      <trkpt lat="43.500470" lon="11.808010">
        <ele>214</ele>
        <time>2019-09-05T12:40:41Z</time>
      </trkpt>
      <trkpt lat="43.500680" lon="11.806890">
        <ele>212</ele>
        <time>2019-09-05T12:40:56Z</time>
      </trkpt>
      <trkpt lat="43.501070" lon="11.803810">
        <ele>206</ele>
        <time>2019-09-05T12:41:37Z</time>
      </trkpt>
      <trkpt lat="43.501190" lon="11.803330">
        <ele>206</ele>
        <time>2019-09-05T12:41:43Z</time>
      </trkpt>
      <trkpt lat="43.501340" lon="11.802950">
        <ele>205</ele>
        <time>2019-09-05T12:41:49Z</time>
      </trkpt>
      <trkpt lat="43.501550" lon="11.802640">
        <ele>205</ele>
        <time>2019-09-05T12:41:54Z</time>
      </trkpt>
      <trkpt lat="43.502330" lon="11.801870">
        <ele>205</ele>
        <time>2019-09-05T12:42:11Z</time>
      </trkpt>
      <trkpt lat="43.504180" lon="11.799960">
        <ele>205</ele>
        <time>2019-09-05T12:42:53Z</time>
      </trkpt>
      <trkpt lat="43.505200" lon="11.798990">
        <ele>205</ele>
        <time>2019-09-05T12:43:15Z</time>
      </trkpt>
      <trkpt lat="43.505320" lon="11.798980">
        <ele>205</ele>
        <time>2019-09-05T12:43:17Z</time>
      </trkpt>
      <trkpt lat="43.506030" lon="11.798530">
        <ele>207</ele>
        <time>2019-09-05T12:43:31Z</time>
      </trkpt>
      <trkpt lat="43.506340" lon="11.798410">
        <ele>207</ele>
        <time>2019-09-05T12:43:36Z</time>
      </trkpt>
      <trkpt lat="43.506500" lon="11.798390">
        <ele>207</ele>
        <time>2019-09-05T12:43:39Z</time>
      </trkpt>
      <trkpt lat="43.506710" lon="11.798400">
        <ele>207</ele>
        <time>2019-09-05T12:43:43Z</time>
      </trkpt>
      <trkpt lat="43.506830" lon="11.798390">
        <ele>207</ele>
        <time>2019-09-05T12:43:45Z</time>
      </trkpt>
      <trkpt lat="43.506930" lon="11.798350">
        <ele>207</ele>
        <time>2019-09-05T12:43:47Z</time>
      </trkpt>
      <trkpt lat="43.506990" lon="11.798250">
        <ele>207</ele>
        <time>2019-09-05T12:43:49Z</time>
      </trkpt>
      <trkpt lat="43.507020" lon="11.798120">
        <ele>207</ele>
        <time>2019-09-05T12:43:50Z</time>
      </trkpt>
      <trkpt lat="43.506890" lon="11.794500">
        <ele>207</ele>
        <time>2019-09-05T12:44:37Z</time>
      </trkpt>
      <trkpt lat="43.506900" lon="11.794240">
        <ele>207</ele>
        <time>2019-09-05T12:44:41Z</time>
      </trkpt>
      <trkpt lat="43.506970" lon="11.794000">
        <ele>207</ele>
        <time>2019-09-05T12:44:44Z</time>
      </trkpt>
      <trkpt lat="43.507040" lon="11.793560">
        <ele>208</ele>
        <time>2019-09-05T12:44:50Z</time>
      </trkpt>
      <trkpt lat="43.507680" lon="11.792320">
        <ele>219</ele>
        <time>2019-09-05T12:45:09Z</time>
      </trkpt>
      <trkpt lat="43.507850" lon="11.791940">
        <ele>224</ele>
        <time>2019-09-05T12:45:15Z</time>
      </trkpt>
      <trkpt lat="43.508040" lon="11.791650">
        <ele>229</ele>
        <time>2019-09-05T12:45:20Z</time>
      </trkpt>
      <trkpt lat="43.508350" lon="11.791350">
        <ele>232</ele>
        <time>2019-09-05T12:45:27Z</time>
      </trkpt>
      <trkpt lat="43.508430" lon="11.791220">
        <ele>233</ele>
        <time>2019-09-05T12:45:29Z</time>
      </trkpt>
      <trkpt lat="43.508460" lon="11.791070">
        <ele>234</ele>
        <time>2019-09-05T12:45:31Z</time>
      </trkpt>
      <trkpt lat="43.508430" lon="11.790930">
        <ele>234</ele>
        <time>2019-09-05T12:45:33Z</time>
      </trkpt>
      <trkpt lat="43.508450" lon="11.790800">
        <ele>235</ele>
        <time>2019-09-05T12:45:35Z</time>
      </trkpt>
      <trkpt lat="43.508510" lon="11.790720">
        <ele>235</ele>
        <time>2019-09-05T12:45:36Z</time>
      </trkpt>
      <trkpt lat="43.508770" lon="11.790560">
        <ele>236</ele>
        <time>2019-09-05T12:45:41Z</time>
      </trkpt>
      <trkpt lat="43.509950" lon="11.790080">
        <ele>241</ele>
        <time>2019-09-05T12:46:03Z</time>
      </trkpt>
      <trkpt lat="43.511210" lon="11.789790">
        <ele>246</ele>
        <time>2019-09-05T12:46:26Z</time>
      </trkpt>
      <trkpt lat="43.513860" lon="11.789450">
        <ele>249</ele>
        <time>2019-09-05T12:47:13Z</time>
      </trkpt>
      <trkpt lat="43.514540" lon="11.789390">
        <ele>250</ele>
        <time>2019-09-05T12:47:25Z</time>
      </trkpt>
      <trkpt lat="43.516190" lon="11.789510">
        <ele>251</ele>
        <time>2019-09-05T12:47:55Z</time>
      </trkpt>
      <trkpt lat="43.517580" lon="11.789690">
        <ele>252</ele>
        <time>2019-09-05T12:48:20Z</time>
      </trkpt>
      <trkpt lat="43.518650" lon="11.789930">
        <ele>252</ele>
        <time>2019-09-05T12:48:39Z</time>
      </trkpt>
      <trkpt lat="43.519130" lon="11.790000">
        <ele>253</ele>
        <time>2019-09-05T12:48:47Z</time>
      </trkpt>
      <trkpt lat="43.519700" lon="11.789980">
        <ele>253</ele>
        <time>2019-09-05T12:48:58Z</time>
      </trkpt>
      <trkpt lat="43.520440" lon="11.789870">
        <ele>253</ele>
        <time>2019-09-05T12:49:11Z</time>
      </trkpt>
      <trkpt lat="43.520640" lon="11.789720">
        <ele>254</ele>
        <time>2019-09-05T12:49:15Z</time>
      </trkpt>
      <trkpt lat="43.521430" lon="11.789000">
        <ele>256</ele>
        <time>2019-09-05T12:49:32Z</time>
      </trkpt>
      <trkpt lat="43.521760" lon="11.788530">
        <ele>255</ele>
        <time>2019-09-05T12:49:40Z</time>
      </trkpt>
      <trkpt lat="43.522090" lon="11.788170">
        <ele>256</ele>
        <time>2019-09-05T12:49:48Z</time>
      </trkpt>
      <trkpt lat="43.522570" lon="11.787910">
        <ele>258</ele>
        <time>2019-09-05T12:49:57Z</time>
      </trkpt>
      <trkpt lat="43.523080" lon="11.788000">
        <ele>261</ele>
        <time>2019-09-05T12:50:06Z</time>
      </trkpt>
      <trkpt lat="43.523590" lon="11.787970">
        <ele>262</ele>
        <time>2019-09-05T12:50:15Z</time>
      </trkpt>
      <trkpt lat="43.523810" lon="11.787890">
        <ele>263</ele>
        <time>2019-09-05T12:50:19Z</time>
      </trkpt>
      <trkpt lat="43.523840" lon="11.787850">
        <ele>263</ele>
        <time>2019-09-05T12:50:20Z</time>
      </trkpt>
      <trkpt lat="43.523870" lon="11.787680">
        <ele>263</ele>
        <time>2019-09-05T12:50:22Z</time>
      </trkpt>
      <trkpt lat="43.523950" lon="11.786820">
        <ele>262</ele>
        <time>2019-09-05T12:50:33Z</time>
      </trkpt>
      <trkpt lat="43.524040" lon="11.786420">
        <ele>263</ele>
        <time>2019-09-05T12:50:39Z</time>
      </trkpt>
      <trkpt lat="43.524220" lon="11.786050">
        <ele>265</ele>
        <time>2019-09-05T12:50:44Z</time>
      </trkpt>
      <trkpt lat="43.524590" lon="11.785440">
        <ele>267</ele>
        <time>2019-09-05T12:50:55Z</time>
      </trkpt>
      <trkpt lat="43.525000" lon="11.784960">
        <ele>270</ele>
        <time>2019-09-05T12:51:04Z</time>
      </trkpt>
      <trkpt lat="43.525180" lon="11.784720">
        <ele>270</ele>
        <time>2019-09-05T12:51:09Z</time>
      </trkpt>
      <trkpt lat="43.525540" lon="11.784310">
        <ele>269</ele>
        <time>2019-09-05T12:51:17Z</time>
      </trkpt>
      <trkpt lat="43.525950" lon="11.783770">
        <ele>270</ele>
        <time>2019-09-05T12:51:27Z</time>
      </trkpt>
      <trkpt lat="43.526450" lon="11.783000">
        <ele>274</ele>
        <time>2019-09-05T12:51:40Z</time>
      </trkpt>
      <trkpt lat="43.526660" lon="11.782610">
        <ele>277</ele>
        <time>2019-09-05T12:51:47Z</time>
      </trkpt>
      <trkpt lat="43.526850" lon="11.782200">
        <ele>279</ele>
        <time>2019-09-05T12:51:53Z</time>
      </trkpt>
      <trkpt lat="43.527210" lon="11.781530">
        <ele>283</ele>
        <time>2019-09-05T12:52:04Z</time>
      </trkpt>
      <trkpt lat="43.527350" lon="11.781100">
        <ele>283</ele>
        <time>2019-09-05T12:52:10Z</time>
      </trkpt>
      <trkpt lat="43.527800" lon="11.780000">
        <ele>285</ele>
        <time>2019-09-05T12:52:26Z</time>
      </trkpt>
      <trkpt lat="43.528010" lon="11.779260">
        <ele>285</ele>
        <time>2019-09-05T12:52:36Z</time>
      </trkpt>
      <trkpt lat="43.528200" lon="11.778700">
        <ele>284</ele>
        <time>2019-09-05T12:52:44Z</time>
      </trkpt>
      <trkpt lat="43.528490" lon="11.778170">
        <ele>281</ele>
        <time>2019-09-05T12:52:53Z</time>
      </trkpt>
      <trkpt lat="43.529030" lon="11.776950">
        <ele>276</ele>
        <time>2019-09-05T12:53:11Z</time>
      </trkpt>
      <trkpt lat="43.529250" lon="11.776420">
        <ele>277</ele>
        <time>2019-09-05T12:53:19Z</time>
      </trkpt>
      <trkpt lat="43.529310" lon="11.776100">
        <ele>278</ele>
        <time>2019-09-05T12:53:24Z</time>
      </trkpt>
      <trkpt lat="43.529360" lon="11.774630">
        <ele>280</ele>
        <time>2019-09-05T12:53:43Z</time>
      </trkpt>
      <trkpt lat="43.529330" lon="11.774300">
        <ele>279</ele>
        <time>2019-09-05T12:53:47Z</time>
      </trkpt>
      <trkpt lat="43.529340" lon="11.773750">
        <ele>280</ele>
        <time>2019-09-05T12:53:54Z</time>
      </trkpt>
      <trkpt lat="43.529470" lon="11.773160">
        <ele>282</ele>
        <time>2019-09-05T12:54:02Z</time>
      </trkpt>
      <trkpt lat="43.529510" lon="11.772700">
        <ele>281</ele>
        <time>2019-09-05T12:54:08Z</time>
      </trkpt>
      <trkpt lat="43.529600" lon="11.772130">
        <ele>279</ele>
        <time>2019-09-05T12:54:15Z</time>
      </trkpt>
      <trkpt lat="43.529680" lon="11.771800">
        <ele>278</ele>
        <time>2019-09-05T12:54:20Z</time>
      </trkpt>
      <trkpt lat="43.529820" lon="11.771530">
        <ele>277</ele>
        <time>2019-09-05T12:54:24Z</time>
      </trkpt>
      <trkpt lat="43.530090" lon="11.771200">
        <ele>276</ele>
        <time>2019-09-05T12:54:31Z</time>
      </trkpt>
      <trkpt lat="43.530400" lon="11.770760">
        <ele>277</ele>
        <time>2019-09-05T12:54:38Z</time>
      </trkpt>
      <trkpt lat="43.530470" lon="11.770560">
        <ele>277</ele>
        <time>2019-09-05T12:54:41Z</time>
      </trkpt>
      <trkpt lat="43.530550" lon="11.769760">
        <ele>277</ele>
        <time>2019-09-05T12:54:52Z</time>
      </trkpt>
      <trkpt lat="43.530610" lon="11.769590">
        <ele>277</ele>
        <time>2019-09-05T12:54:54Z</time>
      </trkpt>
      <trkpt lat="43.530790" lon="11.769170">
        <ele>278</ele>
        <time>2019-09-05T12:55:00Z</time>
      </trkpt>
      <trkpt lat="43.530840" lon="11.768950">
        <ele>278</ele>
        <time>2019-09-05T12:55:03Z</time>
      </trkpt>
      <trkpt lat="43.530810" lon="11.768610">
        <ele>278</ele>
        <time>2019-09-05T12:55:08Z</time>
      </trkpt>
      <trkpt lat="43.530720" lon="11.768360">
        <ele>277</ele>
        <time>2019-09-05T12:55:11Z</time>
      </trkpt>
      <trkpt lat="43.530600" lon="11.768060">
        <ele>278</ele>
        <time>2019-09-05T12:55:16Z</time>
      </trkpt>
      <trkpt lat="43.530390" lon="11.767840">
        <ele>279</ele>
        <time>2019-09-05T12:55:21Z</time>
      </trkpt>
      <trkpt lat="43.530080" lon="11.767090">
        <ele>284</ele>
        <time>2019-09-05T12:55:32Z</time>
      </trkpt>
      <trkpt lat="43.529920" lon="11.766640">
        <ele>287</ele>
        <time>2019-09-05T12:55:38Z</time>
      </trkpt>
      <trkpt lat="43.529870" lon="11.766310">
        <ele>287</ele>
        <time>2019-09-05T12:55:43Z</time>
      </trkpt>
      <trkpt lat="43.529860" lon="11.765780">
        <ele>289</ele>
        <time>2019-09-05T12:55:49Z</time>
      </trkpt>
      <trkpt lat="43.529820" lon="11.765510">
        <ele>289</ele>
        <time>2019-09-05T12:55:53Z</time>
      </trkpt>
      <trkpt lat="43.529730" lon="11.765290">
        <ele>290</ele>
        <time>2019-09-05T12:55:56Z</time>
      </trkpt>
      <trkpt lat="43.529590" lon="11.765100">
        <ele>292</ele>
        <time>2019-09-05T12:56:00Z</time>
      </trkpt>
      <trkpt lat="43.528440" lon="11.764030">
        <ele>296</ele>
        <time>2019-09-05T12:56:24Z</time>
      </trkpt>
      <trkpt lat="43.528470" lon="11.763760">
        <ele>296</ele>
        <time>2019-09-05T12:56:28Z</time>
      </trkpt>
      <trkpt lat="43.528520" lon="11.763560">
        <ele>295</ele>
        <time>2019-09-05T12:56:31Z</time>
      </trkpt>
      <trkpt lat="43.528490" lon="11.763290">
        <ele>294</ele>
        <time>2019-09-05T12:56:34Z</time>
      </trkpt>
      <trkpt lat="43.528430" lon="11.762970">
        <ele>290</ele>
        <time>2019-09-05T12:56:38Z</time>
      </trkpt>
      <trkpt lat="43.528370" lon="11.762820">
        <ele>289</ele>
        <time>2019-09-05T12:56:41Z</time>
      </trkpt>
      <trkpt lat="43.528510" lon="11.762800">
        <ele>287</ele>
        <time>2019-09-05T12:56:43Z</time>
      </trkpt>
      <trkpt lat="43.528570" lon="11.762710">
        <ele>286</ele>
        <time>2019-09-05T12:56:45Z</time>
      </trkpt>
      <trkpt lat="43.528860" lon="11.761890">
        <ele>277</ele>
        <time>2019-09-05T12:56:56Z</time>
      </trkpt>
      <trkpt lat="43.528980" lon="11.761370">
        <ele>275</ele>
        <time>2019-09-05T12:57:04Z</time>
      </trkpt>
      <trkpt lat="43.528990" lon="11.761120">
        <ele>275</ele>
        <time>2019-09-05T12:57:07Z</time>
      </trkpt>
      <trkpt lat="43.529020" lon="11.760940">
        <ele>275</ele>
        <time>2019-09-05T12:57:09Z</time>
      </trkpt>
      <trkpt lat="43.529220" lon="11.760250">
        <ele>275</ele>
        <time>2019-09-05T12:57:19Z</time>
      </trkpt>
      <trkpt lat="43.529200" lon="11.760090">
        <ele>275</ele>
        <time>2019-09-05T12:57:21Z</time>
      </trkpt>
      <trkpt lat="43.529130" lon="11.760100">
        <ele>275</ele>
        <time>2019-09-05T12:57:22Z</time>
      </trkpt>
      <trkpt lat="43.528930" lon="11.760100">
        <ele>274</ele>
        <time>2019-09-05T12:57:26Z</time>
      </trkpt>
      <trkpt lat="43.528590" lon="11.760040">
        <ele>274</ele>
        <time>2019-09-05T12:57:32Z</time>
      </trkpt>
      <trkpt lat="43.528430" lon="11.759990">
        <ele>273</ele>
        <time>2019-09-05T12:57:35Z</time>
      </trkpt>
      <trkpt lat="43.527940" lon="11.759750">
        <ele>272</ele>
        <time>2019-09-05T12:57:44Z</time>
      </trkpt>
      <trkpt lat="43.528160" lon="11.758830">
        <ele>272</ele>
        <time>2019-09-05T12:57:56Z</time>
      </trkpt>
      <trkpt lat="43.528090" lon="11.758580">
        <ele>271</ele>
        <time>2019-09-05T12:58:00Z</time>
      </trkpt>
      <trkpt lat="43.528150" lon="11.758470">
        <ele>271</ele>
        <time>2019-09-05T12:58:02Z</time>
      </trkpt>
      <trkpt lat="43.528170" lon="11.758330">
        <ele>271</ele>
        <time>2019-09-05T12:58:03Z</time>
      </trkpt>
      <trkpt lat="43.528150" lon="11.758260">
        <ele>270</ele>
        <time>2019-09-05T12:58:04Z</time>
      </trkpt>
      <trkpt lat="43.528110" lon="11.758190">
        <ele>270</ele>
        <time>2019-09-05T12:58:06Z</time>
      </trkpt>
      <trkpt lat="43.528060" lon="11.758140">
        <ele>270</ele>
        <time>2019-09-05T12:58:07Z</time>
      </trkpt>
      <trkpt lat="43.527960" lon="11.758120">
        <ele>270</ele>
        <time>2019-09-05T12:58:08Z</time>
      </trkpt>
      <trkpt lat="43.527370" lon="11.757770">
        <ele>268</ele>
        <time>2019-09-05T12:58:20Z</time>
      </trkpt>
      <trkpt lat="43.526830" lon="11.757380">
        <ele>268</ele>
        <time>2019-09-05T12:58:31Z</time>
      </trkpt>
      <trkpt lat="43.525610" lon="11.756610">
        <ele>268</ele>
        <time>2019-09-05T12:58:55Z</time>
      </trkpt>
      <trkpt lat="43.523850" lon="11.755450">
        <ele>265</ele>
        <time>2019-09-05T12:59:29Z</time>
      </trkpt>
      <trkpt lat="43.522690" lon="11.754660">
        <ele>261</ele>
        <time>2019-09-05T12:59:52Z</time>
      </trkpt>
      <trkpt lat="43.522150" lon="11.754330">
        <ele>259</ele>
        <time>2019-09-05T13:00:03Z</time>
      </trkpt>
      <trkpt lat="43.520060" lon="11.752960">
        <ele>254</ele>
        <time>2019-09-05T13:00:44Z</time>
      </trkpt>
      <trkpt lat="43.519640" lon="11.752710">
        <ele>253</ele>
        <time>2019-09-05T13:00:52Z</time>
      </trkpt>
      <trkpt lat="43.519130" lon="11.752470">
        <ele>254</ele>
        <time>2019-09-05T13:01:02Z</time>
      </trkpt>
      <trkpt lat="43.518650" lon="11.752290">
        <ele>254</ele>
        <time>2019-09-05T13:01:11Z</time>
      </trkpt>
      <trkpt lat="43.518460" lon="11.752190">
        <ele>255</ele>
        <time>2019-09-05T13:01:14Z</time>
      </trkpt>
      <trkpt lat="43.518050" lon="11.751760">
        <ele>258</ele>
        <time>2019-09-05T13:01:23Z</time>
      </trkpt>
      <trkpt lat="43.517160" lon="11.750580">
        <ele>258</ele>
        <time>2019-09-05T13:01:45Z</time>
      </trkpt>
      <trkpt lat="43.515390" lon="11.748100">
        <ele>257</ele>
        <time>2019-09-05T13:02:30Z</time>
      </trkpt>
      <trkpt lat="43.514350" lon="11.746600">
        <ele>258</ele>
        <time>2019-09-05T13:02:57Z</time>
      </trkpt>
      <trkpt lat="43.513220" lon="11.744310">
        <ele>257</ele>
        <time>2019-09-05T13:03:33Z</time>
      </trkpt>
      <trkpt lat="43.512630" lon="11.743290">
        <ele>260</ele>
        <time>2019-09-05T13:03:50Z</time>
      </trkpt>
      <trkpt lat="43.512300" lon="11.742850">
        <ele>264</ele>
        <time>2019-09-05T13:03:58Z</time>
      </trkpt>
      <trkpt lat="43.512040" lon="11.742560">
        <ele>267</ele>
        <time>2019-09-05T13:04:04Z</time>
      </trkpt>
      <trkpt lat="43.511740" lon="11.742170">
        <ele>269</ele>
        <time>2019-09-05T13:04:11Z</time>
      </trkpt>
      <trkpt lat="43.511500" lon="11.741780">
        <ele>269</ele>
        <time>2019-09-05T13:04:18Z</time>
      </trkpt>
      <trkpt lat="43.510930" lon="11.740650">
        <ele>269</ele>
        <time>2019-09-05T13:04:35Z</time>
      </trkpt>
      <trkpt lat="43.510650" lon="11.740220">
        <ele>269</ele>
        <time>2019-09-05T13:04:43Z</time>
      </trkpt>
      <trkpt lat="43.510210" lon="11.739780">
        <ele>267</ele>
        <time>2019-09-05T13:04:53Z</time>
      </trkpt>
      <trkpt lat="43.509420" lon="11.738890">
        <ele>265</ele>
        <time>2019-09-05T13:05:11Z</time>
      </trkpt>
      <trkpt lat="43.509330" lon="11.738760">
        <ele>265</ele>
        <time>2019-09-05T13:05:13Z</time>
      </trkpt>
      <trkpt lat="43.509250" lon="11.738570">
        <ele>265</ele>
        <time>2019-09-05T13:05:16Z</time>
      </trkpt>
      <trkpt lat="43.509200" lon="11.738370">
        <ele>265</ele>
        <time>2019-09-05T13:05:19Z</time>
      </trkpt>
      <trkpt lat="43.509150" lon="11.737370">
        <ele>260</ele>
        <time>2019-09-05T13:05:32Z</time>
      </trkpt>
      <trkpt lat="43.509040" lon="11.736390">
        <ele>254</ele>
        <time>2019-09-05T13:05:44Z</time>
      </trkpt>
      <trkpt lat="43.508940" lon="11.736170">
        <ele>252</ele>
        <time>2019-09-05T13:05:48Z</time>
      </trkpt>
      <trkpt lat="43.508690" lon="11.735700">
        <ele>250</ele>
        <time>2019-09-05T13:05:55Z</time>
      </trkpt>
      <trkpt lat="43.508450" lon="11.735000">
        <ele>246</ele>
        <time>2019-09-05T13:06:05Z</time>
      </trkpt>
      <trkpt lat="43.508100" lon="11.733610">
        <ele>237</ele>
        <time>2019-09-05T13:06:24Z</time>
      </trkpt>
      <trkpt lat="43.508110" lon="11.733230">
        <ele>234</ele>
        <time>2019-09-05T13:06:29Z</time>
      </trkpt>
      <trkpt lat="43.508320" lon="11.732340">
        <ele>219</ele>
        <time>2019-09-05T13:06:41Z</time>
      </trkpt>
      <trkpt lat="43.508570" lon="11.732010">
        <ele>212</ele>
        <time>2019-09-05T13:06:47Z</time>
      </trkpt>
      <trkpt lat="43.508850" lon="11.731980">
        <ele>211</ele>
        <time>2019-09-05T13:06:52Z</time>
      </trkpt>
      <trkpt lat="43.509380" lon="11.732230">
        <ele>209</ele>
        <time>2019-09-05T13:07:02Z</time>
      </trkpt>
      <trkpt lat="43.509570" lon="11.732200">
        <ele>206</ele>
        <time>2019-09-05T13:07:06Z</time>
      </trkpt>
      <trkpt lat="43.509730" lon="11.732010">
        <ele>203</ele>
        <time>2019-09-05T13:07:09Z</time>
      </trkpt>
      <trkpt lat="43.509690" lon="11.731720">
        <ele>202</ele>
        <time>2019-09-05T13:07:13Z</time>
      </trkpt>
      <trkpt lat="43.509410" lon="11.731510">
        <ele>203</ele>
        <time>2019-09-05T13:07:19Z</time>
      </trkpt>
      <trkpt lat="43.509060" lon="11.731420">
        <ele>204</ele>
        <time>2019-09-05T13:07:25Z</time>
      </trkpt>
      <trkpt lat="43.508640" lon="11.731240">
        <ele>202</ele>
        <time>2019-09-05T13:07:33Z</time>
      </trkpt>
      <trkpt lat="43.508320" lon="11.730860">
        <ele>198</ele>
        <time>2019-09-05T13:07:41Z</time>
      </trkpt>
      <trkpt lat="43.508240" lon="11.730500">
        <ele>198</ele>
        <time>2019-09-05T13:07:45Z</time>
      </trkpt>
      <trkpt lat="43.508380" lon="11.729660">
        <ele>191</ele>
        <time>2019-09-05T13:07:57Z</time>
      </trkpt>
      <trkpt lat="43.508550" lon="11.728820">
        <ele>187</ele>
        <time>2019-09-05T13:08:08Z</time>
      </trkpt>
      <trkpt lat="43.508560" lon="11.728500">
        <ele>186</ele>
        <time>2019-09-05T13:08:12Z</time>
      </trkpt>
      <trkpt lat="43.508490" lon="11.728060">
        <ele>186</ele>
        <time>2019-09-05T13:08:18Z</time>
      </trkpt>
      <trkpt lat="43.508400" lon="11.727850">
        <ele>185</ele>
        <time>2019-09-05T13:08:21Z</time>
      </trkpt>
      <trkpt lat="43.508130" lon="11.727380">
        <ele>185</ele>
        <time>2019-09-05T13:08:29Z</time>
      </trkpt>
      <trkpt lat="43.507730" lon="11.726790">
        <ele>184</ele>
        <time>2019-09-05T13:08:39Z</time>
      </trkpt>
      <trkpt lat="43.507600" lon="11.726420">
        <ele>184</ele>
        <time>2019-09-05T13:08:44Z</time>
      </trkpt>
      <trkpt lat="43.507560" lon="11.726140">
        <ele>184</ele>
        <time>2019-09-05T13:08:48Z</time>
      </trkpt>
      <trkpt lat="43.507660" lon="11.724270">
        <ele>186</ele>
        <time>2019-09-05T13:09:12Z</time>
      </trkpt>
      <trkpt lat="43.507760" lon="11.721740">
        <ele>186</ele>
        <time>2019-09-05T13:09:45Z</time>
      </trkpt>
      <trkpt lat="43.507810" lon="11.721310">
        <ele>187</ele>
        <time>2019-09-05T13:09:51Z</time>
      </trkpt>
      <trkpt lat="43.508060" lon="11.720300">
        <ele>189</ele>
        <time>2019-09-05T13:10:04Z</time>
      </trkpt>
      <trkpt lat="43.508010" lon="11.719820">
        <ele>189</ele>
        <time>2019-09-05T13:10:11Z</time>
      </trkpt>
      <trkpt lat="43.507860" lon="11.718630">
        <ele>189</ele>
        <time>2019-09-05T13:10:26Z</time>
      </trkpt>
      <trkpt lat="43.507770" lon="11.718250">
        <ele>190</ele>
        <time>2019-09-05T13:10:31Z</time>
      </trkpt>
      <trkpt lat="43.507360" lon="11.717070">
        <ele>190</ele>
        <time>2019-09-05T13:10:48Z</time>
      </trkpt>
      <trkpt lat="43.507090" lon="11.716320">
        <ele>190</ele>
        <time>2019-09-05T13:10:59Z</time>
      </trkpt>
      <trkpt lat="43.506800" lon="11.715680">
        <ele>187</ele>
        <time>2019-09-05T13:11:09Z</time>
      </trkpt>
      <trkpt lat="43.506560" lon="11.714900">
        <ele>183</ele>
        <time>2019-09-05T13:11:20Z</time>
      </trkpt>
      <trkpt lat="43.506210" lon="11.713650">
        <ele>180</ele>
        <time>2019-09-05T13:11:37Z</time>
      </trkpt>
      <trkpt lat="43.505060" lon="11.709820">
        <ele>174</ele>
        <time>2019-09-05T13:12:31Z</time>
      </trkpt>
      <trkpt lat="43.504640" lon="11.707710">
        <ele>174</ele>
        <time>2019-09-05T13:12:59Z</time>
      </trkpt>
      <trkpt lat="43.503630" lon="11.703790">
        <ele>173</ele>
        <time>2019-09-05T13:13:52Z</time>
      </trkpt>
      <trkpt lat="43.503580" lon="11.703360">
        <ele>174</ele>
        <time>2019-09-05T13:13:58Z</time>
      </trkpt>
      <trkpt lat="43.503630" lon="11.702980">
        <ele>174</ele>
        <time>2019-09-05T13:14:03Z</time>
      </trkpt>
      <trkpt lat="43.503770" lon="11.702680">
        <ele>174</ele>
        <time>2019-09-05T13:14:08Z</time>
      </trkpt>
      <trkpt lat="43.504000" lon="11.702450">
        <ele>174</ele>
        <time>2019-09-05T13:14:13Z</time>
      </trkpt>
      <trkpt lat="43.504480" lon="11.702150">
        <ele>174</ele>
        <time>2019-09-05T13:14:22Z</time>
      </trkpt>
      <trkpt lat="43.504600" lon="11.702000">
        <ele>174</ele>
        <time>2019-09-05T13:14:25Z</time>
      </trkpt>
      <trkpt lat="43.504620" lon="11.701900">
        <ele>174</ele>
        <time>2019-09-05T13:14:26Z</time>
      </trkpt>
      <trkpt lat="43.504600" lon="11.701420">
        <ele>175</ele>
        <time>2019-09-05T13:14:33Z</time>
      </trkpt>
      <trkpt lat="43.504300" lon="11.698450">
        <ele>176</ele>
        <time>2019-09-05T13:15:11Z</time>
      </trkpt>
      <trkpt lat="43.504300" lon="11.698130">
        <ele>176</ele>
        <time>2019-09-05T13:15:15Z</time>
      </trkpt>
      <trkpt lat="43.504370" lon="11.696770">
        <ele>176</ele>
        <time>2019-09-05T13:15:33Z</time>
      </trkpt>
      <trkpt lat="43.504350" lon="11.695990">
        <ele>176</ele>
        <time>2019-09-05T13:15:43Z</time>
      </trkpt>
      <trkpt lat="43.504240" lon="11.694060">
        <ele>177</ele>
        <time>2019-09-05T13:16:08Z</time>
      </trkpt>
      <trkpt lat="43.504190" lon="11.692780">
        <ele>180</ele>
        <time>2019-09-05T13:16:25Z</time>
      </trkpt>
      <trkpt lat="43.504200" lon="11.692360">
        <ele>182</ele>
        <time>2019-09-05T13:16:30Z</time>
      </trkpt>
      <trkpt lat="43.504340" lon="11.691340">
        <ele>187</ele>
        <time>2019-09-05T13:16:43Z</time>
      </trkpt>
      <trkpt lat="43.504340" lon="11.691080">
        <ele>187</ele>
        <time>2019-09-05T13:16:47Z</time>
      </trkpt>
      <trkpt lat="43.504290" lon="11.690640">
        <ele>187</ele>
        <time>2019-09-05T13:16:52Z</time>
      </trkpt>
      <trkpt lat="43.504210" lon="11.690400">
        <ele>187</ele>
        <time>2019-09-05T13:16:56Z</time>
      </trkpt>
      <trkpt lat="43.504090" lon="11.690200">
        <ele>188</ele>
        <time>2019-09-05T13:16:59Z</time>
      </trkpt>
      <trkpt lat="43.503820" lon="11.689890">
        <ele>188</ele>
        <time>2019-09-05T13:17:05Z</time>
      </trkpt>
      <trkpt lat="43.503540" lon="11.689630">
        <ele>187</ele>
        <time>2019-09-05T13:17:11Z</time>
      </trkpt>
      <trkpt lat="43.503410" lon="11.689460">
        <ele>187</ele>
        <time>2019-09-05T13:17:15Z</time>
      </trkpt>
      <trkpt lat="43.503360" lon="11.689290">
        <ele>188</ele>
        <time>2019-09-05T13:17:17Z</time>
      </trkpt>
      <trkpt lat="43.503360" lon="11.689110">
        <ele>188</ele>
        <time>2019-09-05T13:17:19Z</time>
      </trkpt>
      <trkpt lat="43.503370" lon="11.689030">
        <ele>188</ele>
        <time>2019-09-05T13:17:20Z</time>
      </trkpt>
      <trkpt lat="43.503450" lon="11.688740">
        <ele>187</ele>
        <time>2019-09-05T13:17:24Z</time>
      </trkpt>
      <trkpt lat="43.503460" lon="11.688570">
        <ele>187</ele>
        <time>2019-09-05T13:17:27Z</time>
      </trkpt>
      <trkpt lat="43.503460" lon="11.688430">
        <ele>187</ele>
        <time>2019-09-05T13:17:28Z</time>
      </trkpt>
      <trkpt lat="43.503330" lon="11.688000">
        <ele>188</ele>
        <time>2019-09-05T13:17:34Z</time>
      </trkpt>
      <trkpt lat="43.502950" lon="11.687220">
        <ele>186</ele>
        <time>2019-09-05T13:17:47Z</time>
      </trkpt>
      <trkpt lat="43.502820" lon="11.687050">
        <ele>185</ele>
        <time>2019-09-05T13:17:50Z</time>
      </trkpt>
      <trkpt lat="43.502590" lon="11.686800">
        <ele>183</ele>
        <time>2019-09-05T13:17:55Z</time>
      </trkpt>
      <trkpt lat="43.502350" lon="11.686520">
        <ele>181</ele>
        <time>2019-09-05T13:18:01Z</time>
      </trkpt>
      <trkpt lat="43.502210" lon="11.686290">
        <ele>180</ele>
        <time>2019-09-05T13:18:04Z</time>
      </trkpt>
      <trkpt lat="43.502120" lon="11.686010">
        <ele>179</ele>
        <time>2019-09-05T13:18:08Z</time>
      </trkpt>
      <trkpt lat="43.502060" lon="11.685700">
        <ele>179</ele>
        <time>2019-09-05T13:18:13Z</time>
      </trkpt>
      <trkpt lat="43.501930" lon="11.683950">
        <ele>178</ele>
        <time>2019-09-05T13:18:35Z</time>
      </trkpt>
      <trkpt lat="43.501950" lon="11.683250">
        <ele>178</ele>
        <time>2019-09-05T13:18:44Z</time>
      </trkpt>
      <trkpt lat="43.501930" lon="11.683020">
        <ele>179</ele>
        <time>2019-09-05T13:18:47Z</time>
      </trkpt>
      <trkpt lat="43.501760" lon="11.682430">
        <ele>178</ele>
        <time>2019-09-05T13:18:55Z</time>
      </trkpt>
      <trkpt lat="43.501740" lon="11.682150">
        <ele>178</ele>
        <time>2019-09-05T13:18:59Z</time>
      </trkpt>
      <trkpt lat="43.501760" lon="11.681870">
        <ele>178</ele>
        <time>2019-09-05T13:19:03Z</time>
      </trkpt>
      <trkpt lat="43.501920" lon="11.681240">
        <ele>181</ele>
        <time>2019-09-05T13:19:11Z</time>
      </trkpt>
      <trkpt lat="43.501930" lon="11.680840">
        <ele>181</ele>
        <time>2019-09-05T13:19:16Z</time>
      </trkpt>
      <trkpt lat="43.501850" lon="11.680230">
        <ele>181</ele>
        <time>2019-09-05T13:19:24Z</time>
      </trkpt>
      <trkpt lat="43.501830" lon="11.679900">
        <ele>182</ele>
        <time>2019-09-05T13:19:29Z</time>
      </trkpt>
      <trkpt lat="43.501870" lon="11.679570">
        <ele>183</ele>
        <time>2019-09-05T13:19:33Z</time>
      </trkpt>
      <trkpt lat="43.502250" lon="11.677610">
        <ele>180</ele>
        <time>2019-09-05T13:19:59Z</time>
      </trkpt>
      <trkpt lat="43.502670" lon="11.676220">
        <ele>178</ele>
        <time>2019-09-05T13:20:19Z</time>
      </trkpt>
      <trkpt lat="43.502670" lon="11.675990">
        <ele>177</ele>
        <time>2019-09-05T13:20:22Z</time>
      </trkpt>
      <trkpt lat="43.502640" lon="11.675840">
        <ele>175</ele>
        <time>2019-09-05T13:20:24Z</time>
      </trkpt>
      <trkpt lat="43.502090" lon="11.675150">
        <ele>172</ele>
        <time>2019-09-05T13:20:37Z</time>
      </trkpt>
      <trkpt lat="43.501950" lon="11.674910">
        <ele>172</ele>
        <time>2019-09-05T13:20:41Z</time>
      </trkpt>
      <trkpt lat="43.501520" lon="11.673700">
        <ele>183</ele>
        <time>2019-09-05T13:20:58Z</time>
      </trkpt>
      <trkpt lat="43.501420" lon="11.673580">
        <ele>187</ele>
        <time>2019-09-05T13:21:01Z</time>
      </trkpt>
      <trkpt lat="43.501300" lon="11.673520">
        <ele>190</ele>
        <time>2019-09-05T13:21:03Z</time>
      </trkpt>
      <trkpt lat="43.501180" lon="11.673530">
        <ele>193</ele>
        <time>2019-09-05T13:21:05Z</time>
      </trkpt>
      <trkpt lat="43.501060" lon="11.673590">
        <ele>196</ele>
        <time>2019-09-05T13:21:07Z</time>
      </trkpt>
      <trkpt lat="43.501000" lon="11.673730">
        <ele>196</ele>
        <time>2019-09-05T13:21:09Z</time>
      </trkpt>
      <trkpt lat="43.500980" lon="11.673930">
        <ele>194</ele>
        <time>2019-09-05T13:21:12Z</time>
      </trkpt>
      <trkpt lat="43.501000" lon="11.674600">
        <ele>187</ele>
        <time>2019-09-05T13:21:21Z</time>
      </trkpt>
      <trkpt lat="43.500950" lon="11.674810">
        <ele>186</ele>
        <time>2019-09-05T13:21:24Z</time>
      </trkpt>
      <trkpt lat="43.500860" lon="11.674960">
        <ele>186</ele>
        <time>2019-09-05T13:21:26Z</time>
      </trkpt>
      <trkpt lat="43.500690" lon="11.675030">
        <ele>187</ele>
        <time>2019-09-05T13:21:29Z</time>
      </trkpt>
      <trkpt lat="43.500500" lon="11.674970">
        <ele>189</ele>
        <time>2019-09-05T13:21:33Z</time>
      </trkpt>
      <trkpt lat="43.500390" lon="11.674810">
        <ele>191</ele>
        <time>2019-09-05T13:21:35Z</time>
      </trkpt>
      <trkpt lat="43.500350" lon="11.674580">
        <ele>193</ele>
        <time>2019-09-05T13:21:39Z</time>
      </trkpt>
      <trkpt lat="43.500400" lon="11.674310">
        <ele>194</ele>
        <time>2019-09-05T13:21:42Z</time>
      </trkpt>
      <trkpt lat="43.500680" lon="11.673620">
        <ele>201</ele>
        <time>2019-09-05T13:21:52Z</time>
      </trkpt>
      <trkpt lat="43.500760" lon="11.673260">
        <ele>205</ele>
        <time>2019-09-05T13:21:57Z</time>
      </trkpt>
      <trkpt lat="43.500910" lon="11.672380">
        <ele>213</ele>
        <time>2019-09-05T13:22:09Z</time>
      </trkpt>
      <trkpt lat="43.500840" lon="11.671550">
        <ele>217</ele>
        <time>2019-09-05T13:22:20Z</time>
      </trkpt>
      <trkpt lat="43.500840" lon="11.671290">
        <ele>218</ele>
        <time>2019-09-05T13:22:23Z</time>
      </trkpt>
      <trkpt lat="43.500930" lon="11.671070">
        <ele>217</ele>
        <time>2019-09-05T13:22:26Z</time>
      </trkpt>
      <trkpt lat="43.501280" lon="11.670550">
        <ele>216</ele>
        <time>2019-09-05T13:22:35Z</time>
      </trkpt>
      <trkpt lat="43.501260" lon="11.670320">
        <ele>219</ele>
        <time>2019-09-05T13:22:38Z</time>
      </trkpt>
      <trkpt lat="43.501180" lon="11.670180">
        <ele>222</ele>
        <time>2019-09-05T13:22:41Z</time>
      </trkpt>
      <trkpt lat="43.501030" lon="11.670110">
        <ele>224</ele>
        <time>2019-09-05T13:22:44Z</time>
      </trkpt>
      <trkpt lat="43.500850" lon="11.670200">
        <ele>226</ele>
        <time>2019-09-05T13:22:47Z</time>
      </trkpt>
      <trkpt lat="43.500510" lon="11.670560">
        <ele>227</ele>
        <time>2019-09-05T13:22:55Z</time>
      </trkpt>
      <trkpt lat="43.500090" lon="11.671310">
        <ele>228</ele>
        <time>2019-09-05T13:23:07Z</time>
      </trkpt>
      <trkpt lat="43.499970" lon="11.671460">
        <ele>228</ele>
        <time>2019-09-05T13:23:10Z</time>
      </trkpt>
      <trkpt lat="43.499850" lon="11.671510">
        <ele>226</ele>
        <time>2019-09-05T13:23:12Z</time>
      </trkpt>
      <trkpt lat="43.499660" lon="11.671420">
        <ele>225</ele>
        <time>2019-09-05T13:23:15Z</time>
      </trkpt>
      <trkpt lat="43.499540" lon="11.671230">
        <ele>226</ele>
        <time>2019-09-05T13:23:19Z</time>
      </trkpt>
      <trkpt lat="43.499590" lon="11.670910">
        <ele>230</ele>
        <time>2019-09-05T13:23:23Z</time>
      </trkpt>
      <trkpt lat="43.499930" lon="11.670160">
        <ele>238</ele>
        <time>2019-09-05T13:23:34Z</time>
      </trkpt>
      <trkpt lat="43.500110" lon="11.669380">
        <ele>243</ele>
        <time>2019-09-05T13:23:45Z</time>
      </trkpt>
      <trkpt lat="43.500210" lon="11.668880">
        <ele>245</ele>
        <time>2019-09-05T13:23:52Z</time>
      </trkpt>
      <trkpt lat="43.500190" lon="11.668500">
        <ele>247</ele>
        <time>2019-09-05T13:23:57Z</time>
      </trkpt>
      <trkpt lat="43.500030" lon="11.668110">
        <ele>248</ele>
        <time>2019-09-05T13:24:02Z</time>
      </trkpt>
      <trkpt lat="43.499830" lon="11.667860">
        <ele>248</ele>
        <time>2019-09-05T13:24:07Z</time>
      </trkpt>
      <trkpt lat="43.499470" lon="11.667530">
        <ele>248</ele>
        <time>2019-09-05T13:24:15Z</time>
      </trkpt>
      <trkpt lat="43.499290" lon="11.667320">
        <ele>248</ele>
        <time>2019-09-05T13:24:19Z</time>
      </trkpt>
      <trkpt lat="43.499010" lon="11.666910">
        <ele>248</ele>
        <time>2019-09-05T13:24:26Z</time>
      </trkpt>
      <trkpt lat="43.497840" lon="11.665350">
        <ele>250</ele>
        <time>2019-09-05T13:24:55Z</time>
      </trkpt>
      <trkpt lat="43.497170" lon="11.664260">
        <ele>246</ele>
        <time>2019-09-05T13:25:14Z</time>
      </trkpt>
      <trkpt lat="43.497110" lon="11.664140">
        <ele>245</ele>
        <time>2019-09-05T13:25:16Z</time>
      </trkpt>
      <trkpt lat="43.496940" lon="11.663540">
        <ele>245</ele>
        <time>2019-09-05T13:25:24Z</time>
      </trkpt>
      <trkpt lat="43.496880" lon="11.663210">
        <ele>245</ele>
        <time>2019-09-05T13:25:28Z</time>
      </trkpt>
      <trkpt lat="43.496860" lon="11.662900">
        <ele>245</ele>
        <time>2019-09-05T13:25:32Z</time>
      </trkpt>
      <trkpt lat="43.496980" lon="11.662120">
        <ele>247</ele>
        <time>2019-09-05T13:25:43Z</time>
      </trkpt>
      <trkpt lat="43.497030" lon="11.661690">
        <ele>249</ele>
        <time>2019-09-05T13:25:48Z</time>
      </trkpt>
      <trkpt lat="43.497110" lon="11.661270">
        <ele>249</ele>
        <time>2019-09-05T13:25:54Z</time>
      </trkpt>
      <trkpt lat="43.497200" lon="11.660540">
        <ele>250</ele>
        <time>2019-09-05T13:26:03Z</time>
      </trkpt>
      <trkpt lat="43.497220" lon="11.660330">
        <ele>249</ele>
        <time>2019-09-05T13:26:06Z</time>
      </trkpt>
      <trkpt lat="43.497200" lon="11.660180">
        <ele>249</ele>
        <time>2019-09-05T13:26:08Z</time>
      </trkpt>
      <trkpt lat="43.497130" lon="11.660020">
        <ele>249</ele>
        <time>2019-09-05T13:26:10Z</time>
      </trkpt>
      <trkpt lat="43.496800" lon="11.659500">
        <ele>248</ele>
        <time>2019-09-05T13:26:19Z</time>
      </trkpt>
      <trkpt lat="43.496210" lon="11.659040">
        <ele>251</ele>
        <time>2019-09-05T13:26:31Z</time>
      </trkpt>
      <trkpt lat="43.496060" lon="11.658820">
        <ele>253</ele>
        <time>2019-09-05T13:26:35Z</time>
      </trkpt>
      <trkpt lat="43.496010" lon="11.658510">
        <ele>254</ele>
        <time>2019-09-05T13:26:39Z</time>
      </trkpt>
      <trkpt lat="43.496560" lon="11.656950">
        <ele>251</ele>
        <time>2019-09-05T13:27:02Z</time>
      </trkpt>
      <trkpt lat="43.496870" lon="11.655620">
        <ele>254</ele>
        <time>2019-09-05T13:27:20Z</time>
      </trkpt>
      <trkpt lat="43.496900" lon="11.655190">
        <ele>256</ele>
        <time>2019-09-05T13:27:25Z</time>
      </trkpt>
      <trkpt lat="43.496880" lon="11.654860">
        <ele>256</ele>
        <time>2019-09-05T13:27:30Z</time>
      </trkpt>
      <trkpt lat="43.496810" lon="11.654210">
        <ele>256</ele>
        <time>2019-09-05T13:27:38Z</time>
      </trkpt>
      <trkpt lat="43.496670" lon="11.653840">
        <ele>256</ele>
        <time>2019-09-05T13:27:44Z</time>
      </trkpt>
      <trkpt lat="43.496630" lon="11.653620">
        <ele>255</ele>
        <time>2019-09-05T13:27:47Z</time>
      </trkpt>
      <trkpt lat="43.496620" lon="11.653280">
        <ele>254</ele>
        <time>2019-09-05T13:27:51Z</time>
      </trkpt>
      <trkpt lat="43.496730" lon="11.652790">
        <ele>250</ele>
        <time>2019-09-05T13:27:58Z</time>
      </trkpt>
      <trkpt lat="43.496850" lon="11.652460">
        <ele>248</ele>
        <time>2019-09-05T13:28:02Z</time>
      </trkpt>
      <trkpt lat="43.497010" lon="11.652230">
        <ele>248</ele>
        <time>2019-09-05T13:28:06Z</time>
      </trkpt>
      <trkpt lat="43.497490" lon="11.651830">
        <ele>245</ele>
        <time>2019-09-05T13:28:16Z</time>
      </trkpt>
      <trkpt lat="43.497680" lon="11.651500">
        <ele>242</ele>
        <time>2019-09-05T13:28:22Z</time>
      </trkpt>
      <trkpt lat="43.498200" lon="11.650770">
        <ele>236</ele>
        <time>2019-09-05T13:28:35Z</time>
      </trkpt>
      <trkpt lat="43.498440" lon="11.650260">
        <ele>236</ele>
        <time>2019-09-05T13:28:43Z</time>
      </trkpt>
      <trkpt lat="43.498380" lon="11.647690">
        <ele>240</ele>
        <time>2019-09-05T13:29:16Z</time>
      </trkpt>
      <trkpt lat="43.498340" lon="11.647360">
        <ele>241</ele>
        <time>2019-09-05T13:29:20Z</time>
      </trkpt>
      <trkpt lat="43.498260" lon="11.647050">
        <ele>241</ele>
        <time>2019-09-05T13:29:25Z</time>
      </trkpt>
      <trkpt lat="43.497800" lon="11.645600">
        <ele>243</ele>
        <time>2019-09-05T13:29:45Z</time>
      </trkpt>
      <trkpt lat="43.496760" lon="11.642530">
        <ele>251</ele>
        <time>2019-09-05T13:30:29Z</time>
      </trkpt>
      <trkpt lat="43.496160" lon="11.641030">
        <ele>252</ele>
        <time>2019-09-05T13:30:51Z</time>
      </trkpt>
      <trkpt lat="43.496010" lon="11.640580">
        <ele>252</ele>
        <time>2019-09-05T13:30:57Z</time>
      </trkpt>
      <trkpt lat="43.495940" lon="11.640220">
        <ele>251</ele>
        <time>2019-09-05T13:31:02Z</time>
      </trkpt>
      <trkpt lat="43.495890" lon="11.639810">
        <ele>251</ele>
        <time>2019-09-05T13:31:07Z</time>
      </trkpt>
      <trkpt lat="43.495770" lon="11.638490">
        <ele>250</ele>
        <time>2019-09-05T13:31:25Z</time>
      </trkpt>
      <trkpt lat="43.495700" lon="11.638060">
        <ele>250</ele>
        <time>2019-09-05T13:31:30Z</time>
      </trkpt>
      <trkpt lat="43.495570" lon="11.637630">
        <ele>249</ele>
        <time>2019-09-05T13:31:36Z</time>
      </trkpt>
      <trkpt lat="43.494070" lon="11.633630">
        <ele>241</ele>
        <time>2019-09-05T13:32:34Z</time>
      </trkpt>
      <trkpt lat="43.493290" lon="11.632010">
        <ele>234</ele>
        <time>2019-09-05T13:33:00Z</time>
      </trkpt>
      <trkpt lat="43.492850" lon="11.631110">
        <ele>238</ele>
        <time>2019-09-05T13:33:14Z</time>
      </trkpt>
      <trkpt lat="43.493020" lon="11.631030">
        <ele>237</ele>
        <time>2019-09-05T13:33:17Z</time>
      </trkpt>
      <trkpt lat="43.494200" lon="11.630720">
        <ele>235</ele>
        <time>2019-09-05T13:33:38Z</time>
      </trkpt>
      <trkpt lat="43.494980" lon="11.631020">
        <ele>232</ele>
        <time>2019-09-05T13:33:53Z</time>
      </trkpt>
      <trkpt lat="43.495280" lon="11.631160">
        <ele>231</ele>
        <time>2019-09-05T13:33:58Z</time>
      </trkpt>
      <trkpt lat="43.495730" lon="11.631430">
        <ele>230</ele>
        <time>2019-09-05T13:34:07Z</time>
      </trkpt>
      <trkpt lat="43.496260" lon="11.631830">
        <ele>228</ele>
        <time>2019-09-05T13:34:18Z</time>
      </trkpt>
      <trkpt lat="43.496300" lon="11.631840">
        <ele>228</ele>
        <time>2019-09-05T13:34:18Z</time>
      </trkpt>
      <trkpt lat="43.496350" lon="11.631820">
        <ele>228</ele>
        <time>2019-09-05T13:34:19Z</time>
      </trkpt>
      <trkpt lat="43.496410" lon="11.631760">
        <ele>228</ele>
        <time>2019-09-05T13:34:21Z</time>
      </trkpt>
      <trkpt lat="43.496490" lon="11.631640">
        <ele>229</ele>
        <time>2019-09-05T13:34:23Z</time>
      </trkpt>
      <trkpt lat="43.496870" lon="11.630910">
        <ele>233</ele>
        <time>2019-09-05T13:34:34Z</time>
      </trkpt>
      <trkpt lat="43.497120" lon="11.630290">
        <ele>234</ele>
        <time>2019-09-05T13:34:43Z</time>
      </trkpt>
      <trkpt lat="43.497240" lon="11.629890">
        <ele>235</ele>
        <time>2019-09-05T13:34:49Z</time>
      </trkpt>
      <trkpt lat="43.497270" lon="11.629530">
        <ele>235</ele>
        <time>2019-09-05T13:34:54Z</time>
      </trkpt>
      <trkpt lat="43.497250" lon="11.628710">
        <ele>231</ele>
        <time>2019-09-05T13:35:04Z</time>
      </trkpt>
      <trkpt lat="43.497130" lon="11.627800">
        <ele>221</ele>
        <time>2019-09-05T13:35:16Z</time>
      </trkpt>
      <trkpt lat="43.497020" lon="11.627430">
        <ele>216</ele>
        <time>2019-09-05T13:35:21Z</time>
      </trkpt>
      <trkpt lat="43.496830" lon="11.627040">
        <ele>212</ele>
        <time>2019-09-05T13:35:28Z</time>
      </trkpt>
      <trkpt lat="43.496650" lon="11.626590">
        <ele>208</ele>
        <time>2019-09-05T13:35:34Z</time>
      </trkpt>
      <trkpt lat="43.496510" lon="11.625860">
        <ele>201</ele>
        <time>2019-09-05T13:35:44Z</time>
      </trkpt>
      <trkpt lat="43.496460" lon="11.625450">
        <ele>197</ele>
        <time>2019-09-05T13:35:49Z</time>
      </trkpt>
      <trkpt lat="43.496480" lon="11.624680">
        <ele>190</ele>
        <time>2019-09-05T13:35:59Z</time>
      </trkpt>
      <trkpt lat="43.496520" lon="11.624270">
        <ele>186</ele>
        <time>2019-09-05T13:36:05Z</time>
      </trkpt>
      <trkpt lat="43.496600" lon="11.623740">
        <ele>181</ele>
        <time>2019-09-05T13:36:12Z</time>
      </trkpt>
      <trkpt lat="43.496720" lon="11.623170">
        <ele>175</ele>
        <time>2019-09-05T13:36:19Z</time>
      </trkpt>
      <trkpt lat="43.496920" lon="11.621790">
        <ele>170</ele>
        <time>2019-09-05T13:36:37Z</time>
      </trkpt>
      <trkpt lat="43.496980" lon="11.621570">
        <ele>169</ele>
        <time>2019-09-05T13:36:40Z</time>
      </trkpt>
      <trkpt lat="43.497080" lon="11.621410">
        <ele>168</ele>
        <time>2019-09-05T13:36:43Z</time>
      </trkpt>
      <trkpt lat="43.497420" lon="11.620670">
        <ele>164</ele>
        <time>2019-09-05T13:36:54Z</time>
      </trkpt>
      <trkpt lat="43.497540" lon="11.620520">
        <ele>163</ele>
        <time>2019-09-05T13:36:57Z</time>
      </trkpt>
      <trkpt lat="43.498760" lon="11.618520">
        <ele>158</ele>
        <time>2019-09-05T13:37:31Z</time>
      </trkpt>
      <trkpt lat="43.499360" lon="11.617340">
        <ele>156</ele>
        <time>2019-09-05T13:37:50Z</time>
      </trkpt>
      <trkpt lat="43.499640" lon="11.616520">
        <ele>155</ele>
        <time>2019-09-05T13:38:01Z</time>
      </trkpt>
      <trkpt lat="43.499790" lon="11.616440">
        <ele>154</ele>
        <time>2019-09-05T13:38:04Z</time>
      </trkpt>
      <trkpt lat="43.499880" lon="11.616270">
        <ele>155</ele>
        <time>2019-09-05T13:38:07Z</time>
      </trkpt>
      <trkpt lat="43.500340" lon="11.615670">
        <ele>155</ele>
        <time>2019-09-05T13:38:18Z</time>
      </trkpt>
      <trkpt lat="43.502630" lon="11.612870">
        <ele>152</ele>
        <time>2019-09-05T13:39:13Z</time>
      </trkpt>
      <trkpt lat="43.503500" lon="11.611810">
        <ele>149</ele>
        <time>2019-09-05T13:39:33Z</time>
      </trkpt>
      <trkpt lat="43.503620" lon="11.611750">
        <ele>150</ele>
        <time>2019-09-05T13:39:36Z</time>
      </trkpt>
      <trkpt lat="43.503740" lon="11.611760">
        <ele>150</ele>
        <time>2019-09-05T13:39:38Z</time>
      </trkpt>
      <trkpt lat="43.503840" lon="11.611730">
        <ele>150</ele>
        <time>2019-09-05T13:39:40Z</time>
      </trkpt>
      <trkpt lat="43.503910" lon="11.611590">
        <ele>150</ele>
        <time>2019-09-05T13:39:42Z</time>
      </trkpt>
      <trkpt lat="43.503880" lon="11.611500">
        <ele>150</ele>
        <time>2019-09-05T13:39:43Z</time>
      </trkpt>
      <trkpt lat="43.503900" lon="11.611360">
        <ele>150</ele>
        <time>2019-09-05T13:39:45Z</time>
      </trkpt>
      <trkpt lat="43.503930" lon="11.610840">
        <ele>151</ele>
        <time>2019-09-05T13:39:52Z</time>
      </trkpt>
      <trkpt lat="43.504130" lon="11.610740">
        <ele>151</ele>
        <time>2019-09-05T13:39:55Z</time>
      </trkpt>
      <trkpt lat="43.504500" lon="11.610430">
        <ele>152</ele>
        <time>2019-09-05T13:40:03Z</time>
      </trkpt>
      <trkpt lat="43.505070" lon="11.609720">
        <ele>152</ele>
        <time>2019-09-05T13:40:17Z</time>
      </trkpt>
      <trkpt lat="43.505230" lon="11.609450">
        <ele>153</ele>
        <time>2019-09-05T13:40:21Z</time>
      </trkpt>
      <trkpt lat="43.505720" lon="11.608290">
        <ele>151</ele>
        <time>2019-09-05T13:40:39Z</time>
      </trkpt>
      <trkpt lat="43.505990" lon="11.607610">
        <ele>152</ele>
        <time>2019-09-05T13:40:49Z</time>
      </trkpt>
      <trkpt lat="43.506060" lon="11.607350">
        <ele>152</ele>
        <time>2019-09-05T13:40:52Z</time>
      </trkpt>
      <trkpt lat="43.506340" lon="11.605920">
        <ele>152</ele>
        <time>2019-09-05T13:41:11Z</time>
      </trkpt>
      <trkpt lat="43.506650" lon="11.604620">
        <ele>152</ele>
        <time>2019-09-05T13:41:29Z</time>
      </trkpt>
      <trkpt lat="43.507040" lon="11.603190">
        <ele>152</ele>
        <time>2019-09-05T13:41:49Z</time>
      </trkpt>
      <trkpt lat="43.507270" lon="11.602460">
        <ele>152</ele>
        <time>2019-09-05T13:41:59Z</time>
      </trkpt>
      <trkpt lat="43.507460" lon="11.601960">
        <ele>151</ele>
        <time>2019-09-05T13:42:06Z</time>
      </trkpt>
      <trkpt lat="43.508020" lon="11.600850">
        <ele>151</ele>
        <time>2019-09-05T13:42:24Z</time>
      </trkpt>
      <trkpt lat="43.508650" lon="11.599700">
        <ele>152</ele>
        <time>2019-09-05T13:42:42Z</time>
      </trkpt>
      <trkpt lat="43.509230" lon="11.598690">
        <ele>152</ele>
        <time>2019-09-05T13:42:59Z</time>
      </trkpt>
      <trkpt lat="43.509400" lon="11.598430">
        <ele>152</ele>
        <time>2019-09-05T13:43:03Z</time>
      </trkpt>
      <trkpt lat="43.510240" lon="11.597250">
        <ele>150</ele>
        <time>2019-09-05T13:43:25Z</time>
      </trkpt>
      <trkpt lat="43.510960" lon="11.596270">
        <ele>148</ele>
        <time>2019-09-05T13:43:43Z</time>
      </trkpt>
      <trkpt lat="43.511240" lon="11.595950">
        <ele>148</ele>
        <time>2019-09-05T13:43:49Z</time>
      </trkpt>
      <trkpt lat="43.512160" lon="11.594690">
        <ele>149</ele>
        <time>2019-09-05T13:44:12Z</time>
      </trkpt>
      <trkpt lat="43.513280" lon="11.593200">
        <ele>151</ele>
        <time>2019-09-05T13:44:40Z</time>
      </trkpt>
      <trkpt lat="43.513950" lon="11.592130">
        <ele>150</ele>
        <time>2019-09-05T13:44:58Z</time>
      </trkpt>
      <trkpt lat="43.514180" lon="11.591730">
        <ele>150</ele>
        <time>2019-09-05T13:45:05Z</time>
      </trkpt>
      <trkpt lat="43.515310" lon="11.590200">
        <ele>147</ele>
        <time>2019-09-05T13:45:33Z</time>
      </trkpt>
      <trkpt lat="43.515570" lon="11.589790">
        <ele>146</ele>
        <time>2019-09-05T13:45:40Z</time>
      </trkpt>
      <trkpt lat="43.515790" lon="11.589310">
        <ele>147</ele>
        <time>2019-09-05T13:45:47Z</time>
      </trkpt>
      <trkpt lat="43.516160" lon="11.588250">
        <ele>148</ele>
        <time>2019-09-05T13:46:02Z</time>
      </trkpt>
      <trkpt lat="43.517740" lon="11.583030">
        <ele>149</ele>
        <time>2019-09-05T13:47:15Z</time>
      </trkpt>
      <trkpt lat="43.518500" lon="11.580470">
        <ele>149</ele>
        <time>2019-09-05T13:47:51Z</time>
      </trkpt>
      <trkpt lat="43.519470" lon="11.577150">
        <ele>148</ele>
        <time>2019-09-05T13:48:37Z</time>
      </trkpt>
      <trkpt lat="43.519850" lon="11.575960">
        <ele>148</ele>
        <time>2019-09-05T13:48:54Z</time>
      </trkpt>
      <trkpt lat="43.520590" lon="11.573470">
        <ele>148</ele>
        <time>2019-09-05T13:49:29Z</time>
      </trkpt>
      <trkpt lat="43.521030" lon="11.573680">
        <ele>147</ele>
        <time>2019-09-05T13:49:37Z</time>
      </trkpt>
      <trkpt lat="43.520590" lon="11.573470">
        <ele>148</ele>
        <time>2019-09-05T13:49:45Z</time>
      </trkpt>
      <trkpt lat="43.520780" lon="11.572710">
        <ele>150</ele>
        <time>2019-09-05T13:49:56Z</time>
      </trkpt>
      <trkpt lat="43.520880" lon="11.572590">
        <ele>150</ele>
        <time>2019-09-05T13:49:58Z</time>
      </trkpt>
      <trkpt lat="43.521150" lon="11.572420">
        <ele>150</ele>
        <time>2019-09-05T13:50:03Z</time>
      </trkpt>
      <trkpt lat="43.521680" lon="11.572160">
        <ele>150</ele>
        <time>2019-09-05T13:50:13Z</time>
      </trkpt>
      <trkpt lat="43.522350" lon="11.571790">
        <ele>150</ele>
        <time>2019-09-05T13:50:26Z</time>
      </trkpt>
      <trkpt lat="43.522830" lon="11.571540">
        <ele>150</ele>
        <time>2019-09-05T13:50:35Z</time>
      </trkpt>
      <trkpt lat="43.522540" lon="11.570170">
        <ele>150</ele>
        <time>2019-09-05T13:50:54Z</time>
      </trkpt>
      <trkpt lat="43.522480" lon="11.570110">
        <ele>150</ele>
        <time>2019-09-05T13:50:55Z</time>
      </trkpt>
      <trkpt lat="43.521690" lon="11.569820">
        <ele>151</ele>
        <time>2019-09-05T13:51:10Z</time>
      </trkpt>
      <trkpt lat="43.521750" lon="11.569530">
        <ele>152</ele>
        <time>2019-09-05T13:51:14Z</time>
      </trkpt>
      <trkpt lat="43.521800" lon="11.569430">
        <ele>152</ele>
        <time>2019-09-05T13:51:15Z</time>
      </trkpt>
      <trkpt lat="43.521740" lon="11.569220">
        <ele>152</ele>
        <time>2019-09-05T13:51:18Z</time>
      </trkpt>
      <trkpt lat="43.521590" lon="11.569060">
        <ele>152</ele>
        <time>2019-09-05T13:51:21Z</time>
      </trkpt>
      <trkpt lat="43.521410" lon="11.568760">
        <ele>151</ele>
        <time>2019-09-05T13:51:26Z</time>
      </trkpt>
      <trkpt lat="43.521330" lon="11.568550">
        <ele>151</ele>
        <time>2019-09-05T13:51:30Z</time>
      </trkpt>
      <trkpt lat="43.521260" lon="11.568250">
        <ele>150</ele>
        <time>2019-09-05T13:51:34Z</time>
      </trkpt>
      <trkpt lat="43.521220" lon="11.568160">
        <ele>150</ele>
        <time>2019-09-05T13:51:35Z</time>
      </trkpt>
      <trkpt lat="43.520990" lon="11.567910">
        <ele>150</ele>
        <time>2019-09-05T13:51:40Z</time>
      </trkpt>
      <trkpt lat="43.520750" lon="11.567700">
        <ele>150</ele>
        <time>2019-09-05T13:51:45Z</time>
      </trkpt>
      <trkpt lat="43.520590" lon="11.567650">
        <ele>150</ele>
        <time>2019-09-05T13:51:48Z</time>
      </trkpt>
      <trkpt lat="43.520420" lon="11.567520">
        <ele>150</ele>
        <time>2019-09-05T13:51:52Z</time>
      </trkpt>
      <trkpt lat="43.520440" lon="11.567370">
        <ele>150</ele>
        <time>2019-09-05T13:51:54Z</time>
      </trkpt>
      <trkpt lat="43.520530" lon="11.567310">
        <ele>151</ele>
        <time>2019-09-05T13:51:55Z</time>
      </trkpt>
      <trkpt lat="43.520870" lon="11.567450">
        <ele>150</ele>
        <time>2019-09-05T13:52:02Z</time>
      </trkpt>
      <trkpt lat="43.521030" lon="11.567490">
        <ele>150</ele>
        <time>2019-09-05T13:52:05Z</time>
      </trkpt>
      <trkpt lat="43.521130" lon="11.567490">
        <ele>150</ele>
        <time>2019-09-05T13:52:06Z</time>
      </trkpt>
      <trkpt lat="43.521220" lon="11.567470">
        <ele>150</ele>
        <time>2019-09-05T13:52:08Z</time>
      </trkpt>
      <trkpt lat="43.521290" lon="11.567390">
        <ele>150</ele>
        <time>2019-09-05T13:52:10Z</time>
      </trkpt>
      <trkpt lat="43.521830" lon="11.566650">
        <ele>152</ele>
        <time>2019-09-05T13:52:23Z</time>
      </trkpt>
      <trkpt lat="43.522340" lon="11.566160">
        <ele>152</ele>
        <time>2019-09-05T13:52:34Z</time>
      </trkpt>
      <trkpt lat="43.522810" lon="11.565770">
        <ele>152</ele>
        <time>2019-09-05T13:52:44Z</time>
      </trkpt>
      <trkpt lat="43.522790" lon="11.565740">
        <ele>152</ele>
        <time>2019-09-05T13:52:44Z</time>
      </trkpt>
      <trkpt lat="43.524190" lon="11.564580">
        <ele>147</ele>
        <time>2019-09-05T13:53:13Z</time>
      </trkpt>
      <trkpt lat="43.524230" lon="11.564490">
        <ele>148</ele>
        <time>2019-09-05T13:53:15Z</time>
      </trkpt>
      <trkpt lat="43.524600" lon="11.564190">
        <ele>147</ele>
        <time>2019-09-05T13:53:22Z</time>
      </trkpt>
      <trkpt lat="43.524660" lon="11.564190">
        <ele>147</ele>
        <time>2019-09-05T13:53:24Z</time>
      </trkpt>
      <trkpt lat="43.525290" lon="11.563700">
        <ele>148</ele>
        <time>2019-09-05T13:53:36Z</time>
      </trkpt>
      <trkpt lat="43.525370" lon="11.563570">
        <ele>148</ele>
        <time>2019-09-05T13:53:39Z</time>
      </trkpt>
      <trkpt lat="43.525410" lon="11.563430">
        <ele>148</ele>
        <time>2019-09-05T13:53:41Z</time>
      </trkpt>
      <trkpt lat="43.525430" lon="11.563240">
        <ele>148</ele>
        <time>2019-09-05T13:53:43Z</time>
      </trkpt>
      <trkpt lat="43.525390" lon="11.563110">
        <ele>148</ele>
        <time>2019-09-05T13:53:45Z</time>
      </trkpt>
      <trkpt lat="43.524530" lon="11.561080">
        <ele>150</ele>
        <time>2019-09-05T13:54:15Z</time>
      </trkpt>
      <trkpt lat="43.524430" lon="11.560820">
        <ele>149</ele>
        <time>2019-09-05T13:54:19Z</time>
      </trkpt>
      <trkpt lat="43.524320" lon="11.560450">
        <ele>148</ele>
        <time>2019-09-05T13:54:24Z</time>
      </trkpt>
      <trkpt lat="43.524170" lon="11.559750">
        <ele>147</ele>
        <time>2019-09-05T13:54:34Z</time>
      </trkpt>
      <trkpt lat="43.524210" lon="11.559730">
        <ele>147</ele>
        <time>2019-09-05T13:54:34Z</time>
      </trkpt>
      <trkpt lat="43.524100" lon="11.559190">
        <ele>148</ele>
        <time>2019-09-05T13:54:42Z</time>
      </trkpt>
      <trkpt lat="43.523880" lon="11.558510">
        <ele>148</ele>
        <time>2019-09-05T13:54:51Z</time>
      </trkpt>
      <trkpt lat="43.523780" lon="11.558310">
        <ele>148</ele>
        <time>2019-09-05T13:54:54Z</time>
      </trkpt>
      <trkpt lat="43.523590" lon="11.557830">
        <ele>148</ele>
        <time>2019-09-05T13:55:01Z</time>
      </trkpt>
      <trkpt lat="43.523260" lon="11.557290">
        <ele>149</ele>
        <time>2019-09-05T13:55:10Z</time>
      </trkpt>
      <trkpt lat="43.523240" lon="11.557190">
        <ele>149</ele>
        <time>2019-09-05T13:55:12Z</time>
      </trkpt>
      <trkpt lat="43.523360" lon="11.557020">
        <ele>148</ele>
        <time>2019-09-05T13:55:15Z</time>
      </trkpt>
      <trkpt lat="43.524280" lon="11.556620">
        <ele>152</ele>
        <time>2019-09-05T13:55:32Z</time>
      </trkpt>
      <trkpt lat="43.522440" lon="11.548050">
        <ele>157</ele>
        <time>2019-09-05T13:57:27Z</time>
      </trkpt>
      <trkpt lat="43.522320" lon="11.547350">
        <ele>157</ele>
        <time>2019-09-05T13:57:37Z</time>
      </trkpt>
      <trkpt lat="43.522270" lon="11.546510">
        <ele>158</ele>
        <time>2019-09-05T13:57:48Z</time>
      </trkpt>
      <trkpt lat="43.522190" lon="11.544310">
        <ele>159</ele>
        <time>2019-09-05T13:58:16Z</time>
      </trkpt>
      <trkpt lat="43.522100" lon="11.543620">
        <ele>159</ele>
        <time>2019-09-05T13:58:25Z</time>
      </trkpt>
      <trkpt lat="43.521900" lon="11.542970">
        <ele>159</ele>
        <time>2019-09-05T13:58:34Z</time>
      </trkpt>
      <trkpt lat="43.520380" lon="11.537720">
        <ele>170</ele>
        <time>2019-09-05T13:59:47Z</time>
      </trkpt>
      <trkpt lat="43.520240" lon="11.537220">
        <ele>171</ele>
        <time>2019-09-05T13:59:54Z</time>
      </trkpt>
      <trkpt lat="43.520150" lon="11.536830">
        <ele>172</ele>
        <time>2019-09-05T13:59:59Z</time>
      </trkpt>
      <trkpt lat="43.520160" lon="11.536260">
        <ele>174</ele>
        <time>2019-09-05T14:00:07Z</time>
      </trkpt>
      <trkpt lat="43.520140" lon="11.535430">
        <ele>175</ele>
        <time>2019-09-05T14:00:17Z</time>
      </trkpt>
      <trkpt lat="43.520100" lon="11.534800">
        <ele>177</ele>
        <time>2019-09-05T14:00:25Z</time>
      </trkpt>
      <trkpt lat="43.519930" lon="11.533760">
        <ele>181</ele>
        <time>2019-09-05T14:00:39Z</time>
      </trkpt>
      <trkpt lat="43.519830" lon="11.533490">
        <ele>184</ele>
        <time>2019-09-05T14:00:43Z</time>
      </trkpt>
      <trkpt lat="43.519560" lon="11.533400">
        <ele>191</ele>
        <time>2019-09-05T14:00:48Z</time>
      </trkpt>
      <trkpt lat="43.519510" lon="11.533300">
        <ele>193</ele>
        <time>2019-09-05T14:00:50Z</time>
      </trkpt>
      <trkpt lat="43.519420" lon="11.532830">
        <ele>196</ele>
        <time>2019-09-05T14:00:56Z</time>
      </trkpt>
      <trkpt lat="43.519350" lon="11.532780">
        <ele>198</ele>
        <time>2019-09-05T14:00:57Z</time>
      </trkpt>
      <trkpt lat="43.519290" lon="11.532790">
        <ele>199</ele>
        <time>2019-09-05T14:00:58Z</time>
      </trkpt>
      <trkpt lat="43.519230" lon="11.532900">
        <ele>201</ele>
        <time>2019-09-05T14:01:00Z</time>
      </trkpt>
      <trkpt lat="43.519320" lon="11.533260">
        <ele>198</ele>
        <time>2019-09-05T14:01:05Z</time>
      </trkpt>
      <trkpt lat="43.519370" lon="11.533530">
        <ele>196</ele>
        <time>2019-09-05T14:01:09Z</time>
      </trkpt>
      <trkpt lat="43.519320" lon="11.533620">
        <ele>197</ele>
        <time>2019-09-05T14:01:10Z</time>
      </trkpt>
      <trkpt lat="43.519210" lon="11.533490">
        <ele>200</ele>
        <time>2019-09-05T14:01:13Z</time>
      </trkpt>
      <trkpt lat="43.518900" lon="11.533050">
        <ele>208</ele>
        <time>2019-09-05T14:01:21Z</time>
      </trkpt>
      <trkpt lat="43.518770" lon="11.533080">
        <ele>211</ele>
        <time>2019-09-05T14:01:23Z</time>
      </trkpt>
      <trkpt lat="43.518480" lon="11.533690">
        <ele>214</ele>
        <time>2019-09-05T14:01:32Z</time>
      </trkpt>
      <trkpt lat="43.518310" lon="11.533860">
        <ele>216</ele>
        <time>2019-09-05T14:01:36Z</time>
      </trkpt>
      <trkpt lat="43.518130" lon="11.533810">
        <ele>219</ele>
        <time>2019-09-05T14:01:39Z</time>
      </trkpt>
      <trkpt lat="43.518050" lon="11.533640">
        <ele>222</ele>
        <time>2019-09-05T14:01:42Z</time>
      </trkpt>
      <trkpt lat="43.518130" lon="11.533400">
        <ele>222</ele>
        <time>2019-09-05T14:01:45Z</time>
      </trkpt>
      <trkpt lat="43.518150" lon="11.533160">
        <ele>223</ele>
        <time>2019-09-05T14:01:49Z</time>
      </trkpt>
      <trkpt lat="43.518060" lon="11.532860">
        <ele>227</ele>
        <time>2019-09-05T14:01:53Z</time>
      </trkpt>
      <trkpt lat="43.517820" lon="11.532230">
        <ele>235</ele>
        <time>2019-09-05T14:02:02Z</time>
      </trkpt>
      <trkpt lat="43.517720" lon="11.532030">
        <ele>238</ele>
        <time>2019-09-05T14:02:05Z</time>
      </trkpt>
      <trkpt lat="43.517580" lon="11.531800">
        <ele>242</ele>
        <time>2019-09-05T14:02:09Z</time>
      </trkpt>
      <trkpt lat="43.517480" lon="11.531520">
        <ele>244</ele>
        <time>2019-09-05T14:02:13Z</time>
      </trkpt>
      <trkpt lat="43.517430" lon="11.530610">
        <ele>243</ele>
        <time>2019-09-05T14:02:25Z</time>
      </trkpt>
      <trkpt lat="43.517210" lon="11.530190">
        <ele>242</ele>
        <time>2019-09-05T14:02:31Z</time>
      </trkpt>
      <trkpt lat="43.517070" lon="11.529880">
        <ele>241</ele>
        <time>2019-09-05T14:02:36Z</time>
      </trkpt>
      <trkpt lat="43.517060" lon="11.529460">
        <ele>239</ele>
        <time>2019-09-05T14:02:42Z</time>
      </trkpt>
      <trkpt lat="43.517350" lon="11.527210">
        <ele>241</ele>
        <time>2019-09-05T14:03:11Z</time>
      </trkpt>
      <trkpt lat="43.517370" lon="11.526860">
        <ele>240</ele>
        <time>2019-09-05T14:03:16Z</time>
      </trkpt>
      <trkpt lat="43.516980" lon="11.526620">
        <ele>242</ele>
        <time>2019-09-05T14:03:23Z</time>
      </trkpt>
      <trkpt lat="43.516780" lon="11.526310">
        <ele>242</ele>
        <time>2019-09-05T14:03:28Z</time>
      </trkpt>
      <trkpt lat="43.516620" lon="11.525280">
        <ele>245</ele>
        <time>2019-09-05T14:03:42Z</time>
      </trkpt>
      <trkpt lat="43.516490" lon="11.524550">
        <ele>248</ele>
        <time>2019-09-05T14:03:52Z</time>
      </trkpt>
      <trkpt lat="43.516330" lon="11.524210">
        <ele>250</ele>
        <time>2019-09-05T14:03:57Z</time>
      </trkpt>
      <trkpt lat="43.515850" lon="11.523890">
        <ele>257</ele>
        <time>2019-09-05T14:04:06Z</time>
      </trkpt>
      <trkpt lat="43.515520" lon="11.523620">
        <ele>259</ele>
        <time>2019-09-05T14:04:13Z</time>
      </trkpt>
      <trkpt lat="43.515280" lon="11.523220">
        <ele>261</ele>
        <time>2019-09-05T14:04:20Z</time>
      </trkpt>
      <trkpt lat="43.514940" lon="11.522210">
        <ele>264</ele>
        <time>2019-09-05T14:04:34Z</time>
      </trkpt>
      <trkpt lat="43.514740" lon="11.521520">
        <ele>263</ele>
        <time>2019-09-05T14:04:44Z</time>
      </trkpt>
      <trkpt lat="43.514700" lon="11.521440">
        <ele>263</ele>
        <time>2019-09-05T14:04:45Z</time>
      </trkpt>
      <trkpt lat="43.514640" lon="11.521390">
        <ele>263</ele>
        <time>2019-09-05T14:04:46Z</time>
      </trkpt>
      <trkpt lat="43.514470" lon="11.521380">
        <ele>262</ele>
        <time>2019-09-05T14:04:49Z</time>
      </trkpt>
      <trkpt lat="43.514270" lon="11.521420">
        <ele>262</ele>
        <time>2019-09-05T14:04:53Z</time>
      </trkpt>
      <trkpt lat="43.513930" lon="11.521600">
        <ele>263</ele>
        <time>2019-09-05T14:05:00Z</time>
      </trkpt>
      <trkpt lat="43.513490" lon="11.521460">
        <ele>263</ele>
        <time>2019-09-05T14:05:08Z</time>
      </trkpt>
      <trkpt lat="43.513200" lon="11.521720">
        <ele>264</ele>
        <time>2019-09-05T14:05:14Z</time>
      </trkpt>
      <trkpt lat="43.512890" lon="11.521910">
        <ele>264</ele>
        <time>2019-09-05T14:05:20Z</time>
      </trkpt>
      <trkpt lat="43.512700" lon="11.521840">
        <ele>264</ele>
        <time>2019-09-05T14:05:23Z</time>
      </trkpt>
      <trkpt lat="43.511980" lon="11.521240">
        <ele>262</ele>
        <time>2019-09-05T14:05:38Z</time>
      </trkpt>
      <trkpt lat="43.511450" lon="11.521110">
        <ele>261</ele>
        <time>2019-09-05T14:05:48Z</time>
      </trkpt>
      <trkpt lat="43.511240" lon="11.521000">
        <ele>260</ele>
        <time>2019-09-05T14:05:52Z</time>
      </trkpt>
      <trkpt lat="43.510980" lon="11.520720">
        <ele>260</ele>
        <time>2019-09-05T14:05:58Z</time>
      </trkpt>
      <trkpt lat="43.510350" lon="11.519250">
        <ele>264</ele>
        <time>2019-09-05T14:06:20Z</time>
      </trkpt>
      <trkpt lat="43.509720" lon="11.518730">
        <ele>265</ele>
        <time>2019-09-05T14:06:33Z</time>
      </trkpt>
      <trkpt lat="43.509350" lon="11.518110">
        <ele>268</ele>
        <time>2019-09-05T14:06:43Z</time>
      </trkpt>
      <trkpt lat="43.509210" lon="11.517490">
        <ele>272</ele>
        <time>2019-09-05T14:06:52Z</time>
      </trkpt>
      <trkpt lat="43.509010" lon="11.517060">
        <ele>273</ele>
        <time>2019-09-05T14:06:58Z</time>
      </trkpt>
      <trkpt lat="43.508940" lon="11.516990">
        <ele>273</ele>
        <time>2019-09-05T14:07:00Z</time>
      </trkpt>
      <trkpt lat="43.509090" lon="11.515880">
        <ele>271</ele>
        <time>2019-09-05T14:07:14Z</time>
      </trkpt>
      <trkpt lat="43.509030" lon="11.515620">
        <ele>270</ele>
        <time>2019-09-05T14:07:18Z</time>
      </trkpt>
      <trkpt lat="43.508930" lon="11.514980">
        <ele>267</ele>
        <time>2019-09-05T14:07:26Z</time>
      </trkpt>
      <trkpt lat="43.508870" lon="11.514830">
        <ele>266</ele>
        <time>2019-09-05T14:07:28Z</time>
      </trkpt>
      <trkpt lat="43.508760" lon="11.514650">
        <ele>264</ele>
        <time>2019-09-05T14:07:31Z</time>
      </trkpt>
      <trkpt lat="43.508550" lon="11.514500">
        <ele>263</ele>
        <time>2019-09-05T14:07:36Z</time>
      </trkpt>
      <trkpt lat="43.507730" lon="11.513620">
        <ele>264</ele>
        <time>2019-09-05T14:07:54Z</time>
      </trkpt>
      <trkpt lat="43.507600" lon="11.513400">
        <ele>264</ele>
        <time>2019-09-05T14:07:58Z</time>
      </trkpt>
      <trkpt lat="43.507280" lon="11.512440">
        <ele>265</ele>
        <time>2019-09-05T14:08:11Z</time>
      </trkpt>
      <trkpt lat="43.507210" lon="11.512340">
        <ele>265</ele>
        <time>2019-09-05T14:08:13Z</time>
      </trkpt>
      <trkpt lat="43.507110" lon="11.512260">
        <ele>266</ele>
        <time>2019-09-05T14:08:15Z</time>
      </trkpt>
      <trkpt lat="43.507020" lon="11.512160">
        <ele>267</ele>
        <time>2019-09-05T14:08:17Z</time>
      </trkpt>
      <trkpt lat="43.506930" lon="11.512030">
        <ele>267</ele>
        <time>2019-09-05T14:08:20Z</time>
      </trkpt>
      <trkpt lat="43.506840" lon="11.511790">
        <ele>269</ele>
        <time>2019-09-05T14:08:23Z</time>
      </trkpt>
      <trkpt lat="43.506790" lon="11.511560">
        <ele>270</ele>
        <time>2019-09-05T14:08:26Z</time>
      </trkpt>
      <trkpt lat="43.506740" lon="11.511090">
        <ele>272</ele>
        <time>2019-09-05T14:08:32Z</time>
      </trkpt>
      <trkpt lat="43.506730" lon="11.509770">
        <ele>278</ele>
        <time>2019-09-05T14:08:49Z</time>
      </trkpt>
      <trkpt lat="43.506620" lon="11.508720">
        <ele>281</ele>
        <time>2019-09-05T14:09:03Z</time>
      </trkpt>
      <trkpt lat="43.506470" lon="11.508010">
        <ele>284</ele>
        <time>2019-09-05T14:09:13Z</time>
      </trkpt>
      <trkpt lat="43.506350" lon="11.507690">
        <ele>286</ele>
        <time>2019-09-05T14:09:17Z</time>
      </trkpt>
      <trkpt lat="43.506080" lon="11.507140">
        <ele>290</ele>
        <time>2019-09-05T14:09:26Z</time>
      </trkpt>
      <trkpt lat="43.505960" lon="11.506720">
        <ele>293</ele>
        <time>2019-09-05T14:09:32Z</time>
      </trkpt>
      <trkpt lat="43.505880" lon="11.506330">
        <ele>294</ele>
        <time>2019-09-05T14:09:37Z</time>
      </trkpt>
      <trkpt lat="43.505550" lon="11.505440">
        <ele>301</ele>
        <time>2019-09-05T14:09:50Z</time>
      </trkpt>
      <trkpt lat="43.505420" lon="11.505240">
        <ele>303</ele>
        <time>2019-09-05T14:09:53Z</time>
      </trkpt>
      <trkpt lat="43.505170" lon="11.504970">
        <ele>308</ele>
        <time>2019-09-05T14:09:59Z</time>
      </trkpt>
      <trkpt lat="43.505010" lon="11.504760">
        <ele>311</ele>
        <time>2019-09-05T14:10:03Z</time>
      </trkpt>
      <trkpt lat="43.504890" lon="11.504450">
        <ele>313</ele>
        <time>2019-09-05T14:10:07Z</time>
      </trkpt>
      <trkpt lat="43.504630" lon="11.502790">
        <ele>328</ele>
        <time>2019-09-05T14:10:29Z</time>
      </trkpt>
      <trkpt lat="43.504610" lon="11.502270">
        <ele>333</ele>
        <time>2019-09-05T14:10:36Z</time>
      </trkpt>
      <trkpt lat="43.504790" lon="11.500960">
        <ele>350</ele>
        <time>2019-09-05T14:10:53Z</time>
      </trkpt>
      <trkpt lat="43.504750" lon="11.500920">
        <ele>351</ele>
        <time>2019-09-05T14:10:54Z</time>
      </trkpt>
      <trkpt lat="43.504680" lon="11.500900">
        <ele>352</ele>
        <time>2019-09-05T14:10:55Z</time>
      </trkpt>
      <trkpt lat="43.504560" lon="11.500920">
        <ele>353</ele>
        <time>2019-09-05T14:10:58Z</time>
      </trkpt>
      <trkpt lat="43.504370" lon="11.501050">
        <ele>353</ele>
        <time>2019-09-05T14:11:01Z</time>
      </trkpt>
      <trkpt lat="43.504240" lon="11.501070">
        <ele>354</ele>
        <time>2019-09-05T14:11:04Z</time>
      </trkpt>
      <trkpt lat="43.504130" lon="11.501030">
        <ele>355</ele>
        <time>2019-09-05T14:11:06Z</time>
      </trkpt>
      <trkpt lat="43.504020" lon="11.500930">
        <ele>356</ele>
        <time>2019-09-05T14:11:08Z</time>
      </trkpt>
      <trkpt lat="43.503920" lon="11.500780">
        <ele>357</ele>
        <time>2019-09-05T14:11:11Z</time>
      </trkpt>
      <trkpt lat="43.503820" lon="11.500340">
        <ele>362</ele>
        <time>2019-09-05T14:11:17Z</time>
      </trkpt>
      <trkpt lat="43.503720" lon="11.499430">
        <ele>371</ele>
        <time>2019-09-05T14:11:29Z</time>
      </trkpt>
      <trkpt lat="43.503570" lon="11.498710">
        <ele>371</ele>
        <time>2019-09-05T14:11:38Z</time>
      </trkpt>
      <trkpt lat="43.503320" lon="11.498620">
        <ele>370</ele>
        <time>2019-09-05T14:11:43Z</time>
      </trkpt>
      <trkpt lat="43.503120" lon="11.498610">
        <ele>370</ele>
        <time>2019-09-05T14:11:46Z</time>
      </trkpt>
      <trkpt lat="43.502720" lon="11.498660">
        <ele>370</ele>
        <time>2019-09-05T14:11:53Z</time>
      </trkpt>
      <trkpt lat="43.502620" lon="11.498650">
        <ele>370</ele>
        <time>2019-09-05T14:11:55Z</time>
      </trkpt>
      <trkpt lat="43.502550" lon="11.498600">
        <ele>370</ele>
        <time>2019-09-05T14:11:57Z</time>
      </trkpt>
      <trkpt lat="43.502470" lon="11.498460">
        <ele>371</ele>
        <time>2019-09-05T14:11:59Z</time>
      </trkpt>
      <trkpt lat="43.502320" lon="11.497910">
        <ele>369</ele>
        <time>2019-09-05T14:12:07Z</time>
      </trkpt>
      <trkpt lat="43.502200" lon="11.497610">
        <ele>370</ele>
        <time>2019-09-05T14:12:11Z</time>
      </trkpt>
      <trkpt lat="43.502100" lon="11.497470">
        <ele>371</ele>
        <time>2019-09-05T14:12:14Z</time>
      </trkpt>
      <trkpt lat="43.502010" lon="11.497380">
        <ele>373</ele>
        <time>2019-09-05T14:12:15Z</time>
      </trkpt>
      <trkpt lat="43.501730" lon="11.497200">
        <ele>380</ele>
        <time>2019-09-05T14:12:21Z</time>
      </trkpt>
      <trkpt lat="43.501620" lon="11.497070">
        <ele>384</ele>
        <time>2019-09-05T14:12:24Z</time>
      </trkpt>
      <trkpt lat="43.501560" lon="11.496960">
        <ele>386</ele>
        <time>2019-09-05T14:12:25Z</time>
      </trkpt>
      <trkpt lat="43.501600" lon="11.496920">
        <ele>386</ele>
        <time>2019-09-05T14:12:26Z</time>
      </trkpt>
      <trkpt lat="43.501550" lon="11.496840">
        <ele>388</ele>
        <time>2019-09-05T14:12:28Z</time>
      </trkpt>
      <trkpt lat="43.501560" lon="11.496520">
        <ele>393</ele>
        <time>2019-09-05T14:12:32Z</time>
      </trkpt>
      <trkpt lat="43.501590" lon="11.496280">
        <ele>396</ele>
        <time>2019-09-05T14:12:35Z</time>
      </trkpt>
      <trkpt lat="43.501550" lon="11.496210">
        <ele>399</ele>
        <time>2019-09-05T14:12:36Z</time>
      </trkpt>
      <trkpt lat="43.501460" lon="11.496260">
        <ele>401</ele>
        <time>2019-09-05T14:12:38Z</time>
      </trkpt>
      <trkpt lat="43.501370" lon="11.496450">
        <ele>399</ele>
        <time>2019-09-05T14:12:41Z</time>
      </trkpt>
      <trkpt lat="43.501190" lon="11.496630">
        <ele>400</ele>
        <time>2019-09-05T14:12:45Z</time>
      </trkpt>
      <trkpt lat="43.501080" lon="11.496660">
        <ele>402</ele>
        <time>2019-09-05T14:12:47Z</time>
      </trkpt>
      <trkpt lat="43.501010" lon="11.496590">
        <ele>406</ele>
        <time>2019-09-05T14:12:48Z</time>
      </trkpt>
      <trkpt lat="43.501040" lon="11.496420">
        <ele>409</ele>
        <time>2019-09-05T14:12:50Z</time>
      </trkpt>
      <trkpt lat="43.501040" lon="11.496120">
        <ele>417</ele>
        <time>2019-09-05T14:12:54Z</time>
      </trkpt>
      <trkpt lat="43.501060" lon="11.495890">
        <ele>421</ele>
        <time>2019-09-05T14:12:57Z</time>
      </trkpt>
      <trkpt lat="43.501040" lon="11.495690">
        <ele>424</ele>
        <time>2019-09-05T14:13:00Z</time>
      </trkpt>
      <trkpt lat="43.501000" lon="11.495540">
        <ele>427</ele>
        <time>2019-09-05T14:13:02Z</time>
      </trkpt>
      <trkpt lat="43.500850" lon="11.495330">
        <ele>432</ele>
        <time>2019-09-05T14:13:06Z</time>
      </trkpt>
      <trkpt lat="43.500730" lon="11.495050">
        <ele>432</ele>
        <time>2019-09-05T14:13:10Z</time>
      </trkpt>
      <trkpt lat="43.500600" lon="11.494850">
        <ele>432</ele>
        <time>2019-09-05T14:13:13Z</time>
      </trkpt>
      <trkpt lat="43.500480" lon="11.494720">
        <ele>432</ele>
        <time>2019-09-05T14:13:16Z</time>
      </trkpt>
      <trkpt lat="43.500430" lon="11.494590">
        <ele>432</ele>
        <time>2019-09-05T14:13:18Z</time>
      </trkpt>
      <trkpt lat="43.500410" lon="11.493310">
        <ele>441</ele>
        <time>2019-09-05T14:13:35Z</time>
      </trkpt>
      <trkpt lat="43.500360" lon="11.492640">
        <ele>448</ele>
        <time>2019-09-05T14:13:43Z</time>
      </trkpt>
      <trkpt lat="43.500320" lon="11.492380">
        <ele>451</ele>
        <time>2019-09-05T14:13:47Z</time>
      </trkpt>
      <trkpt lat="43.500170" lon="11.491970">
        <ele>456</ele>
        <time>2019-09-05T14:13:53Z</time>
      </trkpt>
      <trkpt lat="43.500110" lon="11.491850">
        <ele>457</ele>
        <time>2019-09-05T14:13:54Z</time>
      </trkpt>
      <trkpt lat="43.500080" lon="11.491810">
        <ele>457</ele>
        <time>2019-09-05T14:13:55Z</time>
      </trkpt>
      <trkpt lat="43.500010" lon="11.491820">
        <ele>456</ele>
        <time>2019-09-05T14:13:56Z</time>
      </trkpt>
      <trkpt lat="43.499910" lon="11.491940">
        <ele>456</ele>
        <time>2019-09-05T14:13:59Z</time>
      </trkpt>
      <trkpt lat="43.499720" lon="11.490940">
        <ele>469</ele>
        <time>2019-09-05T14:14:12Z</time>
      </trkpt>
      <trkpt lat="43.499630" lon="11.490640">
        <ele>473</ele>
        <time>2019-09-05T14:14:16Z</time>
      </trkpt>
      <trkpt lat="43.499520" lon="11.490380">
        <ele>475</ele>
        <time>2019-09-05T14:14:20Z</time>
      </trkpt>
      <trkpt lat="43.499430" lon="11.490250">
        <ele>477</ele>
        <time>2019-09-05T14:14:23Z</time>
      </trkpt>
      <trkpt lat="43.499350" lon="11.490180">
        <ele>477</ele>
        <time>2019-09-05T14:14:24Z</time>
      </trkpt>
      <trkpt lat="43.499130" lon="11.490100">
        <ele>479</ele>
        <time>2019-09-05T14:14:28Z</time>
      </trkpt>
      <trkpt lat="43.498940" lon="11.490080">
        <ele>482</ele>
        <time>2019-09-05T14:14:32Z</time>
      </trkpt>
      <trkpt lat="43.498880" lon="11.490040">
        <ele>483</ele>
        <time>2019-09-05T14:14:33Z</time>
      </trkpt>
      <trkpt lat="43.498520" lon="11.489600">
        <ele>488</ele>
        <time>2019-09-05T14:14:41Z</time>
      </trkpt>
      <trkpt lat="43.498410" lon="11.489490">
        <ele>489</ele>
        <time>2019-09-05T14:14:44Z</time>
      </trkpt>
      <trkpt lat="43.498120" lon="11.489240">
        <ele>492</ele>
        <time>2019-09-05T14:14:50Z</time>
      </trkpt>
      <trkpt lat="43.497690" lon="11.489080">
        <ele>498</ele>
        <time>2019-09-05T14:14:58Z</time>
      </trkpt>
      <trkpt lat="43.497530" lon="11.489060">
        <ele>500</ele>
        <time>2019-09-05T14:15:01Z</time>
      </trkpt>
      <trkpt lat="43.497160" lon="11.489070">
        <ele>504</ele>
        <time>2019-09-05T14:15:07Z</time>
      </trkpt>
      <trkpt lat="43.497050" lon="11.489010">
        <ele>505</ele>
        <time>2019-09-05T14:15:09Z</time>
      </trkpt>
      <trkpt lat="43.496890" lon="11.488790">
        <ele>508</ele>
        <time>2019-09-05T14:15:13Z</time>
      </trkpt>
      <trkpt lat="43.496510" lon="11.488330">
        <ele>516</ele>
        <time>2019-09-05T14:15:22Z</time>
      </trkpt>
      <trkpt lat="43.496280" lon="11.487970">
        <ele>523</ele>
        <time>2019-09-05T14:15:29Z</time>
      </trkpt>
      <trkpt lat="43.495780" lon="11.487060">
        <ele>537</ele>
        <time>2019-09-05T14:15:43Z</time>
      </trkpt>
      <trkpt lat="43.495680" lon="11.486940">
        <ele>538</ele>
        <time>2019-09-05T14:15:46Z</time>
      </trkpt>
      <trkpt lat="43.495320" lon="11.486660">
        <ele>545</ele>
        <time>2019-09-05T14:15:53Z</time>
      </trkpt>
      <trkpt lat="43.495020" lon="11.486370">
        <ele>550</ele>
        <time>2019-09-05T14:16:00Z</time>
      </trkpt>
      <trkpt lat="43.494910" lon="11.486020">
        <ele>552</ele>
        <time>2019-09-05T14:16:05Z</time>
      </trkpt>
      <trkpt lat="43.494840" lon="11.485920">
        <ele>553</ele>
        <time>2019-09-05T14:16:06Z</time>
      </trkpt>
      <trkpt lat="43.494750" lon="11.485860">
        <ele>555</ele>
        <time>2019-09-05T14:16:08Z</time>
      </trkpt>
      <trkpt lat="43.494690" lon="11.485840">
        <ele>556</ele>
        <time>2019-09-05T14:16:09Z</time>
      </trkpt>
      <trkpt lat="43.494590" lon="11.485820">
        <ele>558</ele>
        <time>2019-09-05T14:16:11Z</time>
      </trkpt>
      <trkpt lat="43.494500" lon="11.485700">
        <ele>560</ele>
        <time>2019-09-05T14:16:13Z</time>
      </trkpt>
      <trkpt lat="43.494480" lon="11.485620">
        <ele>560</ele>
        <time>2019-09-05T14:16:14Z</time>
      </trkpt>
      <trkpt lat="43.494460" lon="11.485260">
        <ele>559</ele>
        <time>2019-09-05T14:16:19Z</time>
      </trkpt>
      <trkpt lat="43.494440" lon="11.485170">
        <ele>559</ele>
        <time>2019-09-05T14:16:20Z</time>
      </trkpt>
      <trkpt lat="43.494230" lon="11.484810">
        <ele>563</ele>
        <time>2019-09-05T14:16:26Z</time>
      </trkpt>
      <trkpt lat="43.494020" lon="11.484270">
        <ele>560</ele>
        <time>2019-09-05T14:16:34Z</time>
      </trkpt>
      <trkpt lat="43.493910" lon="11.484070">
        <ele>559</ele>
        <time>2019-09-05T14:16:37Z</time>
      </trkpt>
      <trkpt lat="43.493610" lon="11.483640">
        <ele>561</ele>
        <time>2019-09-05T14:16:45Z</time>
      </trkpt>
      <trkpt lat="43.493240" lon="11.483050">
        <ele>568</ele>
        <time>2019-09-05T14:16:55Z</time>
      </trkpt>
      <trkpt lat="43.492910" lon="11.482230">
        <ele>577</ele>
        <time>2019-09-05T14:17:07Z</time>
      </trkpt>
      <trkpt lat="43.492850" lon="11.481990">
        <ele>581</ele>
        <time>2019-09-05T14:17:10Z</time>
      </trkpt>
      <trkpt lat="43.492800" lon="11.481600">
        <ele>585</ele>
        <time>2019-09-05T14:17:16Z</time>
      </trkpt>
      <trkpt lat="43.492510" lon="11.481330">
        <ele>595</ele>
        <time>2019-09-05T14:17:22Z</time>
      </trkpt>
      <trkpt lat="43.492200" lon="11.480830">
        <ele>597</ele>
        <time>2019-09-05T14:17:30Z</time>
      </trkpt>
      <trkpt lat="43.492130" lon="11.480750">
        <ele>596</ele>
        <time>2019-09-05T14:17:32Z</time>
      </trkpt>
      <trkpt lat="43.491910" lon="11.480590">
        <ele>595</ele>
        <time>2019-09-05T14:17:36Z</time>
      </trkpt>
      <trkpt lat="43.491650" lon="11.480450">
        <ele>595</ele>
        <time>2019-09-05T14:17:41Z</time>
      </trkpt>
      <trkpt lat="43.491100" lon="11.480000">
        <ele>593</ele>
        <time>2019-09-05T14:17:53Z</time>
      </trkpt>
      <trkpt lat="43.490530" lon="11.479310">
        <ele>599</ele>
        <time>2019-09-05T14:18:06Z</time>
      </trkpt>
      <trkpt lat="43.490080" lon="11.479010">
        <ele>605</ele>
        <time>2019-09-05T14:18:15Z</time>
      </trkpt>
      <trkpt lat="43.489430" lon="11.478340">
        <ele>614</ele>
        <time>2019-09-05T14:18:29Z</time>
      </trkpt>
      <trkpt lat="43.488630" lon="11.477780">
        <ele>607</ele>
        <time>2019-09-05T14:18:45Z</time>
      </trkpt>
      <trkpt lat="43.487550" lon="11.477730">
        <ele>597</ele>
        <time>2019-09-05T14:19:05Z</time>
      </trkpt>
      <trkpt lat="43.486440" lon="11.477700">
        <ele>604</ele>
        <time>2019-09-05T14:19:24Z</time>
      </trkpt>
      <trkpt lat="43.485760" lon="11.477430">
        <ele>608</ele>
        <time>2019-09-05T14:19:37Z</time>
      </trkpt>
      <trkpt lat="43.485490" lon="11.477550">
        <ele>609</ele>
        <time>2019-09-05T14:19:42Z</time>
      </trkpt>
      <trkpt lat="43.485240" lon="11.477600">
        <ele>610</ele>
        <time>2019-09-05T14:19:47Z</time>
      </trkpt>
      <trkpt lat="43.484380" lon="11.477430">
        <ele>606</ele>
        <time>2019-09-05T14:20:02Z</time>
      </trkpt>
      <trkpt lat="43.483980" lon="11.477230">
        <ele>604</ele>
        <time>2019-09-05T14:20:10Z</time>
      </trkpt>
      <trkpt lat="43.483260" lon="11.476940">
        <ele>605</ele>
        <time>2019-09-05T14:20:23Z</time>
      </trkpt>
      <trkpt lat="43.482080" lon="11.476300">
        <ele>611</ele>
        <time>2019-09-05T14:20:46Z</time>
      </trkpt>
      <trkpt lat="43.481880" lon="11.476080">
        <ele>613</ele>
        <time>2019-09-05T14:20:50Z</time>
      </trkpt>
      <trkpt lat="43.481680" lon="11.475990">
        <ele>615</ele>
        <time>2019-09-05T14:20:54Z</time>
      </trkpt>
      <trkpt lat="43.481650" lon="11.475910">
        <ele>616</ele>
        <time>2019-09-05T14:20:55Z</time>
      </trkpt>
      <trkpt lat="43.481630" lon="11.475790">
        <ele>617</ele>
        <time>2019-09-05T14:20:57Z</time>
      </trkpt>
      <trkpt lat="43.481450" lon="11.475300">
        <ele>621</ele>
        <time>2019-09-05T14:21:04Z</time>
      </trkpt>
      <trkpt lat="43.481440" lon="11.475100">
        <ele>623</ele>
        <time>2019-09-05T14:21:06Z</time>
      </trkpt>
      <trkpt lat="43.481470" lon="11.474890">
        <ele>626</ele>
        <time>2019-09-05T14:21:09Z</time>
      </trkpt>
      <trkpt lat="43.481600" lon="11.474660">
        <ele>631</ele>
        <time>2019-09-05T14:21:13Z</time>
      </trkpt>
      <trkpt lat="43.481970" lon="11.474370">
        <ele>630</ele>
        <time>2019-09-05T14:21:20Z</time>
      </trkpt>
      <trkpt lat="43.482110" lon="11.474170">
        <ele>630</ele>
        <time>2019-09-05T14:21:24Z</time>
      </trkpt>
      <trkpt lat="43.482120" lon="11.473960">
        <ele>631</ele>
        <time>2019-09-05T14:21:27Z</time>
      </trkpt>
      <trkpt lat="43.482010" lon="11.473620">
        <ele>634</ele>
        <time>2019-09-05T14:21:31Z</time>
      </trkpt>
      <trkpt lat="43.481780" lon="11.473030">
        <ele>639</ele>
        <time>2019-09-05T14:21:40Z</time>
      </trkpt>
      <trkpt lat="43.481540" lon="11.472740">
        <ele>642</ele>
        <time>2019-09-05T14:21:46Z</time>
      </trkpt>
      <trkpt lat="43.481490" lon="11.472400">
        <ele>641</ele>
        <time>2019-09-05T14:21:50Z</time>
      </trkpt>
      <trkpt lat="43.481520" lon="11.472230">
        <ele>640</ele>
        <time>2019-09-05T14:21:53Z</time>
      </trkpt>
      <trkpt lat="43.481770" lon="11.471690">
        <ele>636</ele>
        <time>2019-09-05T14:22:01Z</time>
      </trkpt>
      <trkpt lat="43.481920" lon="11.471070">
        <ele>632</ele>
        <time>2019-09-05T14:22:09Z</time>
      </trkpt>
      <trkpt lat="43.482100" lon="11.470760">
        <ele>632</ele>
        <time>2019-09-05T14:22:14Z</time>
      </trkpt>
      <trkpt lat="43.482310" lon="11.470530">
        <ele>632</ele>
        <time>2019-09-05T14:22:19Z</time>
      </trkpt>
      <trkpt lat="43.482850" lon="11.470230">
        <ele>634</ele>
        <time>2019-09-05T14:22:29Z</time>
      </trkpt>
      <trkpt lat="43.483900" lon="11.470100">
        <ele>640</ele>
        <time>2019-09-05T14:22:48Z</time>
      </trkpt>
      <trkpt lat="43.484090" lon="11.469910">
        <ele>640</ele>
        <time>2019-09-05T14:22:52Z</time>
      </trkpt>
      <trkpt lat="43.484240" lon="11.469630">
        <ele>637</ele>
        <time>2019-09-05T14:22:57Z</time>
      </trkpt>
      <trkpt lat="43.484260" lon="11.469390">
        <ele>635</ele>
        <time>2019-09-05T14:23:00Z</time>
      </trkpt>
      <trkpt lat="43.484110" lon="11.468790">
        <ele>635</ele>
        <time>2019-09-05T14:23:08Z</time>
      </trkpt>
      <trkpt lat="43.483980" lon="11.468430">
        <ele>633</ele>
        <time>2019-09-05T14:23:13Z</time>
      </trkpt>
      <trkpt lat="43.483760" lon="11.468030">
        <ele>631</ele>
        <time>2019-09-05T14:23:20Z</time>
      </trkpt>
      <trkpt lat="43.483690" lon="11.467680">
        <ele>632</ele>
        <time>2019-09-05T14:23:25Z</time>
      </trkpt>
      <trkpt lat="43.483730" lon="11.467240">
        <ele>636</ele>
        <time>2019-09-05T14:23:30Z</time>
      </trkpt>
      <trkpt lat="43.483810" lon="11.467040">
        <ele>639</ele>
        <time>2019-09-05T14:23:33Z</time>
      </trkpt>
      <trkpt lat="43.483920" lon="11.466890">
        <ele>641</ele>
        <time>2019-09-05T14:23:36Z</time>
      </trkpt>
      <trkpt lat="43.484350" lon="11.466590">
        <ele>640</ele>
        <time>2019-09-05T14:23:45Z</time>
      </trkpt>
      <trkpt lat="43.484450" lon="11.466430">
        <ele>638</ele>
        <time>2019-09-05T14:23:47Z</time>
      </trkpt>
      <trkpt lat="43.484480" lon="11.466260">
        <ele>637</ele>
        <time>2019-09-05T14:23:50Z</time>
      </trkpt>
      <trkpt lat="43.484460" lon="11.466130">
        <ele>637</ele>
        <time>2019-09-05T14:23:51Z</time>
      </trkpt>
      <trkpt lat="43.483980" lon="11.465270">
        <ele>637</ele>
        <time>2019-09-05T14:24:05Z</time>
      </trkpt>
      <trkpt lat="43.483960" lon="11.465090">
        <ele>635</ele>
        <time>2019-09-05T14:24:08Z</time>
      </trkpt>
      <trkpt lat="43.484070" lon="11.464890">
        <ele>635</ele>
        <time>2019-09-05T14:24:11Z</time>
      </trkpt>
      <trkpt lat="43.484680" lon="11.464480">
        <ele>632</ele>
        <time>2019-09-05T14:24:23Z</time>
      </trkpt>
      <trkpt lat="43.484840" lon="11.463990">
        <ele>637</ele>
        <time>2019-09-05T14:24:30Z</time>
      </trkpt>
      <trkpt lat="43.484880" lon="11.463530">
        <ele>643</ele>
        <time>2019-09-05T14:24:36Z</time>
      </trkpt>
      <trkpt lat="43.484950" lon="11.463280">
        <ele>645</ele>
        <time>2019-09-05T14:24:39Z</time>
      </trkpt>
      <trkpt lat="43.485300" lon="11.462550">
        <ele>643</ele>
        <time>2019-09-05T14:24:51Z</time>
      </trkpt>
      <trkpt lat="43.485320" lon="11.462240">
        <ele>640</ele>
        <time>2019-09-05T14:24:55Z</time>
      </trkpt>
      <trkpt lat="43.485230" lon="11.461970">
        <ele>640</ele>
        <time>2019-09-05T14:24:58Z</time>
      </trkpt>
      <trkpt lat="43.485000" lon="11.461500">
        <ele>638</ele>
        <time>2019-09-05T14:25:06Z</time>
      </trkpt>
      <trkpt lat="43.484520" lon="11.460990">
        <ele>637</ele>
        <time>2019-09-05T14:25:17Z</time>
      </trkpt>
      <trkpt lat="43.482550" lon="11.459850">
        <ele>640</ele>
        <time>2019-09-05T14:25:55Z</time>
      </trkpt>
      <trkpt lat="43.482350" lon="11.459550">
        <ele>637</ele>
        <time>2019-09-05T14:26:00Z</time>
      </trkpt>
      <trkpt lat="43.482320" lon="11.459410">
        <ele>637</ele>
        <time>2019-09-05T14:26:02Z</time>
      </trkpt>
      <trkpt lat="43.482380" lon="11.458930">
        <ele>634</ele>
        <time>2019-09-05T14:26:08Z</time>
      </trkpt>
      <trkpt lat="43.482350" lon="11.458730">
        <ele>633</ele>
        <time>2019-09-05T14:26:11Z</time>
      </trkpt>
      <trkpt lat="43.482130" lon="11.458360">
        <ele>634</ele>
        <time>2019-09-05T14:26:17Z</time>
      </trkpt>
      <trkpt lat="43.482080" lon="11.458170">
        <ele>633</ele>
        <time>2019-09-05T14:26:19Z</time>
      </trkpt>
      <trkpt lat="43.482070" lon="11.457970">
        <ele>632</ele>
        <time>2019-09-05T14:26:22Z</time>
      </trkpt>
      <trkpt lat="43.482100" lon="11.457650">
        <ele>630</ele>
        <time>2019-09-05T14:26:26Z</time>
      </trkpt>
      <trkpt lat="43.482070" lon="11.457420">
        <ele>629</ele>
        <time>2019-09-05T14:26:29Z</time>
      </trkpt>
      <trkpt lat="43.481830" lon="11.456540">
        <ele>629</ele>
        <time>2019-09-05T14:26:41Z</time>
      </trkpt>
      <trkpt lat="43.481800" lon="11.456310">
        <ele>629</ele>
        <time>2019-09-05T14:26:44Z</time>
      </trkpt>
      <trkpt lat="43.481800" lon="11.456080">
        <ele>629</ele>
        <time>2019-09-05T14:26:47Z</time>
      </trkpt>
      <trkpt lat="43.481840" lon="11.455930">
        <ele>629</ele>
        <time>2019-09-05T14:26:49Z</time>
      </trkpt>
      <trkpt lat="43.481920" lon="11.455780">
        <ele>628</ele>
        <time>2019-09-05T14:26:52Z</time>
      </trkpt>
      <trkpt lat="43.482000" lon="11.455360">
        <ele>627</ele>
        <time>2019-09-05T14:26:57Z</time>
      </trkpt>
      <trkpt lat="43.481930" lon="11.455150">
        <ele>628</ele>
        <time>2019-09-05T14:27:00Z</time>
      </trkpt>
      <trkpt lat="43.481770" lon="11.454750">
        <ele>631</ele>
        <time>2019-09-05T14:27:06Z</time>
      </trkpt>
      <trkpt lat="43.481690" lon="11.454410">
        <ele>632</ele>
        <time>2019-09-05T14:27:11Z</time>
      </trkpt>
      <trkpt lat="43.481660" lon="11.453990">
        <ele>635</ele>
        <time>2019-09-05T14:27:16Z</time>
      </trkpt>
      <trkpt lat="43.481680" lon="11.453790">
        <ele>638</ele>
        <time>2019-09-05T14:27:19Z</time>
      </trkpt>
      <trkpt lat="43.481670" lon="11.453650">
        <ele>641</ele>
        <time>2019-09-05T14:27:21Z</time>
      </trkpt>
      <trkpt lat="43.481510" lon="11.453470">
        <ele>642</ele>
        <time>2019-09-05T14:27:24Z</time>
      </trkpt>
      <trkpt lat="43.481300" lon="11.453340">
        <ele>643</ele>
        <time>2019-09-05T14:27:29Z</time>
      </trkpt>
      <trkpt lat="43.480920" lon="11.453250">
        <ele>641</ele>
        <time>2019-09-05T14:27:35Z</time>
      </trkpt>
      <trkpt lat="43.480740" lon="11.453170">
        <ele>639</ele>
        <time>2019-09-05T14:27:39Z</time>
      </trkpt>
      <trkpt lat="43.480640" lon="11.452970">
        <ele>640</ele>
        <time>2019-09-05T14:27:42Z</time>
      </trkpt>
      <trkpt lat="43.480630" lon="11.452150">
        <ele>636</ele>
        <time>2019-09-05T14:27:53Z</time>
      </trkpt>
      <trkpt lat="43.480770" lon="11.452010">
        <ele>636</ele>
        <time>2019-09-05T14:27:56Z</time>
      </trkpt>
      <trkpt lat="43.481860" lon="11.451630">
        <ele>646</ele>
        <time>2019-09-05T14:28:16Z</time>
      </trkpt>
      <trkpt lat="43.482620" lon="11.451040">
        <ele>648</ele>
        <time>2019-09-05T14:28:31Z</time>
      </trkpt>
      <trkpt lat="43.482840" lon="11.450830">
        <ele>646</ele>
        <time>2019-09-05T14:28:36Z</time>
      </trkpt>
      <trkpt lat="43.483220" lon="11.450620">
        <ele>649</ele>
        <time>2019-09-05T14:28:43Z</time>
      </trkpt>
      <trkpt lat="43.484230" lon="11.450680">
        <ele>647</ele>
        <time>2019-09-05T14:29:01Z</time>
      </trkpt>
      <trkpt lat="43.484740" lon="11.450900">
        <ele>639</ele>
        <time>2019-09-05T14:29:11Z</time>
      </trkpt>
      <trkpt lat="43.485500" lon="11.451090">
        <ele>627</ele>
        <time>2019-09-05T14:29:24Z</time>
      </trkpt>
      <trkpt lat="43.486470" lon="11.451280">
        <ele>615</ele>
        <time>2019-09-05T14:29:42Z</time>
      </trkpt>
      <trkpt lat="43.486760" lon="11.451290">
        <ele>613</ele>
        <time>2019-09-05T14:29:47Z</time>
      </trkpt>
      <trkpt lat="43.487190" lon="11.451440">
        <ele>611</ele>
        <time>2019-09-05T14:29:55Z</time>
      </trkpt>
      <trkpt lat="43.487690" lon="11.451740">
        <ele>613</ele>
        <time>2019-09-05T14:30:05Z</time>
      </trkpt>
      <trkpt lat="43.488080" lon="11.451790">
        <ele>612</ele>
        <time>2019-09-05T14:30:12Z</time>
      </trkpt>
      <trkpt lat="43.488230" lon="11.451680">
        <ele>609</ele>
        <time>2019-09-05T14:30:15Z</time>
      </trkpt>
      <trkpt lat="43.488420" lon="11.451430">
        <ele>606</ele>
        <time>2019-09-05T14:30:19Z</time>
      </trkpt>
      <trkpt lat="43.488680" lon="11.451180">
        <ele>602</ele>
        <time>2019-09-05T14:30:25Z</time>
      </trkpt>
      <trkpt lat="43.489270" lon="11.450860">
        <ele>593</ele>
        <time>2019-09-05T14:30:36Z</time>
      </trkpt>
      <trkpt lat="43.489410" lon="11.450730">
        <ele>594</ele>
        <time>2019-09-05T14:30:39Z</time>
      </trkpt>
      <trkpt lat="43.489380" lon="11.450600">
        <ele>594</ele>
        <time>2019-09-05T14:30:41Z</time>
      </trkpt>
      <trkpt lat="43.489550" lon="11.450460">
        <ele>596</ele>
        <time>2019-09-05T14:30:44Z</time>
      </trkpt>
      <trkpt lat="43.489690" lon="11.450410">
        <ele>598</ele>
        <time>2019-09-05T14:30:47Z</time>
      </trkpt>
      <trkpt lat="43.489840" lon="11.450390">
        <ele>599</ele>
        <time>2019-09-05T14:30:50Z</time>
      </trkpt>
      <trkpt lat="43.490270" lon="11.450500">
        <ele>601</ele>
        <time>2019-09-05T14:30:57Z</time>
      </trkpt>
      <trkpt lat="43.490510" lon="11.450470">
        <ele>604</ele>
        <time>2019-09-05T14:31:02Z</time>
      </trkpt>
      <trkpt lat="43.490700" lon="11.450410">
        <ele>608</ele>
        <time>2019-09-05T14:31:05Z</time>
      </trkpt>
      <trkpt lat="43.490790" lon="11.450330">
        <ele>610</ele>
        <time>2019-09-05T14:31:07Z</time>
      </trkpt>
      <trkpt lat="43.490830" lon="11.450180">
        <ele>614</ele>
        <time>2019-09-05T14:31:09Z</time>
      </trkpt>
      <trkpt lat="43.490800" lon="11.450040">
        <ele>617</ele>
        <time>2019-09-05T14:31:11Z</time>
      </trkpt>
      <trkpt lat="43.490700" lon="11.449930">
        <ele>618</ele>
        <time>2019-09-05T14:31:13Z</time>
      </trkpt>
      <trkpt lat="43.490560" lon="11.449910">
        <ele>616</ele>
        <time>2019-09-05T14:31:16Z</time>
      </trkpt>
      <trkpt lat="43.490370" lon="11.449960">
        <ele>613</ele>
        <time>2019-09-05T14:31:19Z</time>
      </trkpt>
      <trkpt lat="43.490210" lon="11.449910">
        <ele>611</ele>
        <time>2019-09-05T14:31:22Z</time>
      </trkpt>
      <trkpt lat="43.490000" lon="11.449720">
        <ele>611</ele>
        <time>2019-09-05T14:31:27Z</time>
      </trkpt>
      <trkpt lat="43.489870" lon="11.449450">
        <ele>612</ele>
        <time>2019-09-05T14:31:31Z</time>
      </trkpt>
      <trkpt lat="43.489820" lon="11.449200">
        <ele>614</ele>
        <time>2019-09-05T14:31:34Z</time>
      </trkpt>
      <trkpt lat="43.489840" lon="11.448570">
        <ele>624</ele>
        <time>2019-09-05T14:31:42Z</time>
      </trkpt>
      <trkpt lat="43.489810" lon="11.448380">
        <ele>626</ele>
        <time>2019-09-05T14:31:45Z</time>
      </trkpt>
      <trkpt lat="43.489750" lon="11.448200">
        <ele>629</ele>
        <time>2019-09-05T14:31:47Z</time>
      </trkpt>
      <trkpt lat="43.489650" lon="11.448060">
        <ele>631</ele>
        <time>2019-09-05T14:31:50Z</time>
      </trkpt>
      <trkpt lat="43.489350" lon="11.447850">
        <ele>631</ele>
        <time>2019-09-05T14:31:56Z</time>
      </trkpt>
      <trkpt lat="43.489050" lon="11.447690">
        <ele>629</ele>
        <time>2019-09-05T14:32:02Z</time>
      </trkpt>
      <trkpt lat="43.488830" lon="11.447490">
        <ele>629</ele>
        <time>2019-09-05T14:32:06Z</time>
      </trkpt>
      <trkpt lat="43.488580" lon="11.447190">
        <ele>630</ele>
        <time>2019-09-05T14:32:12Z</time>
      </trkpt>
      <trkpt lat="43.488380" lon="11.446830">
        <ele>632</ele>
        <time>2019-09-05T14:32:18Z</time>
      </trkpt>
      <trkpt lat="43.488190" lon="11.446240">
        <ele>635</ele>
        <time>2019-09-05T14:32:26Z</time>
      </trkpt>
      <trkpt lat="43.488010" lon="11.445900">
        <ele>634</ele>
        <time>2019-09-05T14:32:32Z</time>
      </trkpt>
      <trkpt lat="43.487900" lon="11.445420">
        <ele>634</ele>
        <time>2019-09-05T14:32:38Z</time>
      </trkpt>
      <trkpt lat="43.487860" lon="11.445090">
        <ele>636</ele>
        <time>2019-09-05T14:32:43Z</time>
      </trkpt>
      <trkpt lat="43.487960" lon="11.444440">
        <ele>638</ele>
        <time>2019-09-05T14:32:51Z</time>
      </trkpt>
      <trkpt lat="43.488120" lon="11.444280">
        <ele>641</ele>
        <time>2019-09-05T14:32:55Z</time>
      </trkpt>
      <trkpt lat="43.488290" lon="11.444190">
        <ele>643</ele>
        <time>2019-09-05T14:32:58Z</time>
      </trkpt>
      <trkpt lat="43.488830" lon="11.444240">
        <ele>654</ele>
        <time>2019-09-05T14:33:08Z</time>
      </trkpt>
      <trkpt lat="43.488930" lon="11.444190">
        <ele>656</ele>
        <time>2019-09-05T14:33:10Z</time>
      </trkpt>
      <trkpt lat="43.489000" lon="11.444070">
        <ele>655</ele>
        <time>2019-09-05T14:33:12Z</time>
      </trkpt>
      <trkpt lat="43.489030" lon="11.443890">
        <ele>651</ele>
        <time>2019-09-05T14:33:14Z</time>
      </trkpt>
      <trkpt lat="43.489270" lon="11.443540">
        <ele>648</ele>
        <time>2019-09-05T14:33:20Z</time>
      </trkpt>
      <trkpt lat="43.489620" lon="11.443310">
        <ele>652</ele>
        <time>2019-09-05T14:33:27Z</time>
      </trkpt>
      <trkpt lat="43.490130" lon="11.443220">
        <ele>661</ele>
        <time>2019-09-05T14:33:36Z</time>
      </trkpt>
      <trkpt lat="43.490580" lon="11.443020">
        <ele>664</ele>
        <time>2019-09-05T14:33:45Z</time>
      </trkpt>
      <trkpt lat="43.490750" lon="11.442980">
        <ele>665</ele>
        <time>2019-09-05T14:33:48Z</time>
      </trkpt>
      <trkpt lat="43.491100" lon="11.443020">
        <ele>667</ele>
        <time>2019-09-05T14:33:54Z</time>
      </trkpt>
      <trkpt lat="43.491350" lon="11.443130">
        <ele>670</ele>
        <time>2019-09-05T14:33:59Z</time>
      </trkpt>
      <trkpt lat="43.491550" lon="11.443400">
        <ele>677</ele>
        <time>2019-09-05T14:34:04Z</time>
      </trkpt>
      <trkpt lat="43.491950" lon="11.443880">
        <ele>691</ele>
        <time>2019-09-05T14:34:13Z</time>
      </trkpt>
      <trkpt lat="43.492120" lon="11.443990">
        <ele>693</ele>
        <time>2019-09-05T14:34:16Z</time>
      </trkpt>
      <trkpt lat="43.492230" lon="11.443950">
        <ele>693</ele>
        <time>2019-09-05T14:34:18Z</time>
      </trkpt>
      <trkpt lat="43.492380" lon="11.443750">
        <ele>691</ele>
        <time>2019-09-05T14:34:22Z</time>
      </trkpt>
      <trkpt lat="43.492510" lon="11.443290">
        <ele>687</ele>
        <time>2019-09-05T14:34:28Z</time>
      </trkpt>
      <trkpt lat="43.492610" lon="11.442760">
        <ele>684</ele>
        <time>2019-09-05T14:34:36Z</time>
      </trkpt>
      <trkpt lat="43.492840" lon="11.442400">
        <ele>685</ele>
        <time>2019-09-05T14:34:42Z</time>
      </trkpt>
      <trkpt lat="43.492970" lon="11.442290">
        <ele>686</ele>
        <time>2019-09-05T14:34:44Z</time>
      </trkpt>
      <trkpt lat="43.493260" lon="11.442110">
        <ele>689</ele>
        <time>2019-09-05T14:34:50Z</time>
      </trkpt>
      <trkpt lat="43.493380" lon="11.442070">
        <ele>691</ele>
        <time>2019-09-05T14:34:52Z</time>
      </trkpt>
      <trkpt lat="43.494070" lon="11.442080">
        <ele>702</ele>
        <time>2019-09-05T14:35:05Z</time>
      </trkpt>
      <trkpt lat="43.494210" lon="11.442000">
        <ele>703</ele>
        <time>2019-09-05T14:35:07Z</time>
      </trkpt>
      <trkpt lat="43.494290" lon="11.441790">
        <ele>700</ele>
        <time>2019-09-05T14:35:10Z</time>
      </trkpt>
      <trkpt lat="43.494300" lon="11.441300">
        <ele>689</ele>
        <time>2019-09-05T14:35:17Z</time>
      </trkpt>
      <trkpt lat="43.494390" lon="11.441080">
        <ele>688</ele>
        <time>2019-09-05T14:35:20Z</time>
      </trkpt>
      <trkpt lat="43.494490" lon="11.440920">
        <ele>688</ele>
        <time>2019-09-05T14:35:23Z</time>
      </trkpt>
      <trkpt lat="43.494600" lon="11.440680">
        <ele>688</ele>
        <time>2019-09-05T14:35:26Z</time>
      </trkpt>
      <trkpt lat="43.494610" lon="11.440570">
        <ele>686</ele>
        <time>2019-09-05T14:35:28Z</time>
      </trkpt>
      <trkpt lat="43.494540" lon="11.440200">
        <ele>679</ele>
        <time>2019-09-05T14:35:33Z</time>
      </trkpt>
      <trkpt lat="43.494550" lon="11.439860">
        <ele>676</ele>
        <time>2019-09-05T14:35:37Z</time>
      </trkpt>
      <trkpt lat="43.494590" lon="11.439670">
        <ele>676</ele>
        <time>2019-09-05T14:35:40Z</time>
      </trkpt>
      <trkpt lat="43.494650" lon="11.439530">
        <ele>677</ele>
        <time>2019-09-05T14:35:42Z</time>
      </trkpt>
      <trkpt lat="43.494820" lon="11.439370">
        <ele>682</ele>
        <time>2019-09-05T14:35:45Z</time>
      </trkpt>
      <trkpt lat="43.494840" lon="11.439220">
        <ele>682</ele>
        <time>2019-09-05T14:35:47Z</time>
      </trkpt>
      <trkpt lat="43.494790" lon="11.439080">
        <ele>681</ele>
        <time>2019-09-05T14:35:49Z</time>
      </trkpt>
      <trkpt lat="43.494700" lon="11.438930">
        <ele>679</ele>
        <time>2019-09-05T14:35:52Z</time>
      </trkpt>
      <trkpt lat="43.493980" lon="11.438290">
        <ele>658</ele>
        <time>2019-09-05T14:36:07Z</time>
      </trkpt>
      <trkpt lat="43.493930" lon="11.438100">
        <ele>656</ele>
        <time>2019-09-05T14:36:10Z</time>
      </trkpt>
      <trkpt lat="43.493920" lon="11.437910">
        <ele>656</ele>
        <time>2019-09-05T14:36:12Z</time>
      </trkpt>
      <trkpt lat="43.493990" lon="11.437700">
        <ele>658</ele>
        <time>2019-09-05T14:36:15Z</time>
      </trkpt>
      <trkpt lat="43.494160" lon="11.437500">
        <ele>665</ele>
        <time>2019-09-05T14:36:19Z</time>
      </trkpt>
      <trkpt lat="43.494190" lon="11.437240">
        <ele>664</ele>
        <time>2019-09-05T14:36:23Z</time>
      </trkpt>
      <trkpt lat="43.494150" lon="11.436950">
        <ele>660</ele>
        <time>2019-09-05T14:36:26Z</time>
      </trkpt>
      <trkpt lat="43.494160" lon="11.436660">
        <ele>658</ele>
        <time>2019-09-05T14:36:30Z</time>
      </trkpt>
      <trkpt lat="43.494210" lon="11.436140">
        <ele>654</ele>
        <time>2019-09-05T14:36:37Z</time>
      </trkpt>
      <trkpt lat="43.494510" lon="11.435210">
        <ele>654</ele>
        <time>2019-09-05T14:36:50Z</time>
      </trkpt>
      <trkpt lat="43.494600" lon="11.435040">
        <ele>653</ele>
        <time>2019-09-05T14:36:53Z</time>
      </trkpt>
      <trkpt lat="43.494610" lon="11.434920">
        <ele>652</ele>
        <time>2019-09-05T14:36:54Z</time>
      </trkpt>
      <trkpt lat="43.494540" lon="11.434790">
        <ele>650</ele>
        <time>2019-09-05T14:36:56Z</time>
      </trkpt>
      <trkpt lat="43.494340" lon="11.434570">
        <ele>648</ele>
        <time>2019-09-05T14:37:01Z</time>
      </trkpt>
      <trkpt lat="43.494310" lon="11.434410">
        <ele>648</ele>
        <time>2019-09-05T14:37:03Z</time>
      </trkpt>
      <trkpt lat="43.494320" lon="11.434010">
        <ele>649</ele>
        <time>2019-09-05T14:37:08Z</time>
      </trkpt>
      <trkpt lat="43.494450" lon="11.433640">
        <ele>652</ele>
        <time>2019-09-05T14:37:14Z</time>
      </trkpt>
      <trkpt lat="43.494650" lon="11.433370">
        <ele>649</ele>
        <time>2019-09-05T14:37:19Z</time>
      </trkpt>
      <trkpt lat="43.494920" lon="11.432800">
        <ele>643</ele>
        <time>2019-09-05T14:37:27Z</time>
      </trkpt>
      <trkpt lat="43.495050" lon="11.432480">
        <ele>638</ele>
        <time>2019-09-05T14:37:32Z</time>
      </trkpt>
      <trkpt lat="43.495090" lon="11.432310">
        <ele>635</ele>
        <time>2019-09-05T14:37:34Z</time>
      </trkpt>
      <trkpt lat="43.495080" lon="11.432070">
        <ele>634</ele>
        <time>2019-09-05T14:37:37Z</time>
      </trkpt>
      <trkpt lat="43.494850" lon="11.431410">
        <ele>637</ele>
        <time>2019-09-05T14:37:47Z</time>
      </trkpt>
      <trkpt lat="43.494730" lon="11.430680">
        <ele>629</ele>
        <time>2019-09-05T14:37:57Z</time>
      </trkpt>
      <trkpt lat="43.494430" lon="11.429730">
        <ele>616</ele>
        <time>2019-09-05T14:38:10Z</time>
      </trkpt>
      <trkpt lat="43.494310" lon="11.429700">
        <ele>618</ele>
        <time>2019-09-05T14:38:12Z</time>
      </trkpt>
      <trkpt lat="43.494150" lon="11.429760">
        <ele>624</ele>
        <time>2019-09-05T14:38:15Z</time>
      </trkpt>
      <trkpt lat="43.494000" lon="11.429870">
        <ele>629</ele>
        <time>2019-09-05T14:38:18Z</time>
      </trkpt>
      <trkpt lat="43.493810" lon="11.429930">
        <ele>633</ele>
        <time>2019-09-05T14:38:22Z</time>
      </trkpt>
      <trkpt lat="43.493700" lon="11.429830">
        <ele>633</ele>
        <time>2019-09-05T14:38:24Z</time>
      </trkpt>
      <trkpt lat="43.493620" lon="11.429640">
        <ele>629</ele>
        <time>2019-09-05T14:38:27Z</time>
      </trkpt>
      <trkpt lat="43.493500" lon="11.429480">
        <ele>628</ele>
        <time>2019-09-05T14:38:30Z</time>
      </trkpt>
      <trkpt lat="43.493340" lon="11.429430">
        <ele>630</ele>
        <time>2019-09-05T14:38:33Z</time>
      </trkpt>
      <trkpt lat="43.493220" lon="11.429340">
        <ele>632</ele>
        <time>2019-09-05T14:38:35Z</time>
      </trkpt>
      <trkpt lat="43.493090" lon="11.429160">
        <ele>634</ele>
        <time>2019-09-05T14:38:38Z</time>
      </trkpt>
      <trkpt lat="43.493090" lon="11.429010">
        <ele>634</ele>
        <time>2019-09-05T14:38:40Z</time>
      </trkpt>
      <trkpt lat="43.493450" lon="11.428450">
        <ele>622</ele>
        <time>2019-09-05T14:38:50Z</time>
      </trkpt>
      <trkpt lat="43.493700" lon="11.427960">
        <ele>610</ele>
        <time>2019-09-05T14:38:58Z</time>
      </trkpt>
      <trkpt lat="43.493810" lon="11.427520">
        <ele>603</ele>
        <time>2019-09-05T14:39:04Z</time>
      </trkpt>
      <trkpt lat="43.493750" lon="11.427360">
        <ele>604</ele>
        <time>2019-09-05T14:39:06Z</time>
      </trkpt>
      <trkpt lat="43.493500" lon="11.427130">
        <ele>612</ele>
        <time>2019-09-05T14:39:11Z</time>
      </trkpt>
      <trkpt lat="43.493440" lon="11.426970">
        <ele>613</ele>
        <time>2019-09-05T14:39:14Z</time>
      </trkpt>
      <trkpt lat="43.493450" lon="11.426510">
        <ele>605</ele>
        <time>2019-09-05T14:39:20Z</time>
      </trkpt>
      <trkpt lat="43.493020" lon="11.425990">
        <ele>614</ele>
        <time>2019-09-05T14:39:30Z</time>
      </trkpt>
      <trkpt lat="43.493140" lon="11.425150">
        <ele>608</ele>
        <time>2019-09-05T14:39:41Z</time>
      </trkpt>
      <trkpt lat="43.493110" lon="11.424740">
        <ele>607</ele>
        <time>2019-09-05T14:39:46Z</time>
      </trkpt>
      <trkpt lat="43.492860" lon="11.424010">
        <ele>602</ele>
        <time>2019-09-05T14:39:57Z</time>
      </trkpt>
      <trkpt lat="43.492450" lon="11.423510">
        <ele>594</ele>
        <time>2019-09-05T14:40:06Z</time>
      </trkpt>
      <trkpt lat="43.492000" lon="11.423160">
        <ele>595</ele>
        <time>2019-09-05T14:40:16Z</time>
      </trkpt>
      <trkpt lat="43.491820" lon="11.422920">
        <ele>594</ele>
        <time>2019-09-05T14:40:20Z</time>
      </trkpt>
      <trkpt lat="43.491560" lon="11.422280">
        <ele>585</ele>
        <time>2019-09-05T14:40:29Z</time>
      </trkpt>
      <trkpt lat="43.491490" lon="11.422070">
        <ele>580</ele>
        <time>2019-09-05T14:40:32Z</time>
      </trkpt>
      <trkpt lat="43.491330" lon="11.421830">
        <ele>576</ele>
        <time>2019-09-05T14:40:37Z</time>
      </trkpt>
      <trkpt lat="43.491180" lon="11.421710">
        <ele>574</ele>
        <time>2019-09-05T14:40:40Z</time>
      </trkpt>
      <trkpt lat="43.491030" lon="11.421650">
        <ele>574</ele>
        <time>2019-09-05T14:40:42Z</time>
      </trkpt>
      <trkpt lat="43.490930" lon="11.421660">
        <ele>575</ele>
        <time>2019-09-05T14:40:44Z</time>
      </trkpt>
      <trkpt lat="43.490790" lon="11.421730">
        <ele>577</ele>
        <time>2019-09-05T14:40:47Z</time>
      </trkpt>
      <trkpt lat="43.490640" lon="11.421760">
        <ele>576</ele>
        <time>2019-09-05T14:40:50Z</time>
      </trkpt>
      <trkpt lat="43.490590" lon="11.421720">
        <ele>575</ele>
        <time>2019-09-05T14:40:51Z</time>
      </trkpt>
      <trkpt lat="43.490560" lon="11.421620">
        <ele>572</ele>
        <time>2019-09-05T14:40:52Z</time>
      </trkpt>
      <trkpt lat="43.490600" lon="11.421500">
        <ele>570</ele>
        <time>2019-09-05T14:40:54Z</time>
      </trkpt>
      <trkpt lat="43.490660" lon="11.421440">
        <ele>570</ele>
        <time>2019-09-05T14:40:55Z</time>
      </trkpt>
      <trkpt lat="43.491170" lon="11.421310">
        <ele>568</ele>
        <time>2019-09-05T14:41:04Z</time>
      </trkpt>
      <trkpt lat="43.491250" lon="11.421240">
        <ele>566</ele>
        <time>2019-09-05T14:41:06Z</time>
      </trkpt>
      <trkpt lat="43.491320" lon="11.421080">
        <ele>564</ele>
        <time>2019-09-05T14:41:08Z</time>
      </trkpt>
      <trkpt lat="43.491320" lon="11.420920">
        <ele>561</ele>
        <time>2019-09-05T14:41:10Z</time>
      </trkpt>
      <trkpt lat="43.491100" lon="11.419570">
        <ele>559</ele>
        <time>2019-09-05T14:41:28Z</time>
      </trkpt>
      <trkpt lat="43.490960" lon="11.418930">
        <ele>564</ele>
        <time>2019-09-05T14:41:37Z</time>
      </trkpt>
      <trkpt lat="43.490970" lon="11.418480">
        <ele>566</ele>
        <time>2019-09-05T14:41:43Z</time>
      </trkpt>
      <trkpt lat="43.490940" lon="11.418310">
        <ele>567</ele>
        <time>2019-09-05T14:41:45Z</time>
      </trkpt>
      <trkpt lat="43.490860" lon="11.418160">
        <ele>566</ele>
        <time>2019-09-05T14:41:47Z</time>
      </trkpt>
      <trkpt lat="43.490410" lon="11.417870">
        <ele>564</ele>
        <time>2019-09-05T14:41:56Z</time>
      </trkpt>
      <trkpt lat="43.490340" lon="11.417750">
        <ele>564</ele>
        <time>2019-09-05T14:41:58Z</time>
      </trkpt>
      <trkpt lat="43.490230" lon="11.417490">
        <ele>564</ele>
        <time>2019-09-05T14:42:02Z</time>
      </trkpt>
      <trkpt lat="43.490080" lon="11.416840">
        <ele>562</ele>
        <time>2019-09-05T14:42:11Z</time>
      </trkpt>
      <trkpt lat="43.490070" lon="11.416590">
        <ele>560</ele>
        <time>2019-09-05T14:42:14Z</time>
      </trkpt>
      <trkpt lat="43.490080" lon="11.416340">
        <ele>558</ele>
        <time>2019-09-05T14:42:17Z</time>
      </trkpt>
      <trkpt lat="43.490280" lon="11.415520">
        <ele>553</ele>
        <time>2019-09-05T14:42:29Z</time>
      </trkpt>
      <trkpt lat="43.490610" lon="11.413470">
        <ele>549</ele>
        <time>2019-09-05T14:42:56Z</time>
      </trkpt>
      <trkpt lat="43.490540" lon="11.413160">
        <ele>549</ele>
        <time>2019-09-05T14:43:00Z</time>
      </trkpt>
      <trkpt lat="43.490400" lon="11.412850">
        <ele>551</ele>
        <time>2019-09-05T14:43:05Z</time>
      </trkpt>
      <trkpt lat="43.489580" lon="11.411910">
        <ele>555</ele>
        <time>2019-09-05T14:43:24Z</time>
      </trkpt>
      <trkpt lat="43.489460" lon="11.411620">
        <ele>555</ele>
        <time>2019-09-05T14:43:28Z</time>
      </trkpt>
      <trkpt lat="43.489400" lon="11.411250">
        <ele>553</ele>
        <time>2019-09-05T14:43:33Z</time>
      </trkpt>
      <trkpt lat="43.489430" lon="11.411030">
        <ele>552</ele>
        <time>2019-09-05T14:43:36Z</time>
      </trkpt>
      <trkpt lat="43.489480" lon="11.410870">
        <ele>551</ele>
        <time>2019-09-05T14:43:38Z</time>
      </trkpt>
      <trkpt lat="43.489680" lon="11.410580">
        <ele>550</ele>
        <time>2019-09-05T14:43:43Z</time>
      </trkpt>
      <trkpt lat="43.489920" lon="11.410020">
        <ele>547</ele>
        <time>2019-09-05T14:43:51Z</time>
      </trkpt>
      <trkpt lat="43.489980" lon="11.409720">
        <ele>547</ele>
        <time>2019-09-05T14:43:55Z</time>
      </trkpt>
      <trkpt lat="43.490030" lon="11.408680">
        <ele>543</ele>
        <time>2019-09-05T14:44:09Z</time>
      </trkpt>
      <trkpt lat="43.490000" lon="11.408100">
        <ele>541</ele>
        <time>2019-09-05T14:44:16Z</time>
      </trkpt>
      <trkpt lat="43.489920" lon="11.407510">
        <ele>540</ele>
        <time>2019-09-05T14:44:24Z</time>
      </trkpt>
      <trkpt lat="43.489810" lon="11.407300">
        <ele>538</ele>
        <time>2019-09-05T14:44:28Z</time>
      </trkpt>
      <trkpt lat="43.489320" lon="11.406580">
        <ele>534</ele>
        <time>2019-09-05T14:44:40Z</time>
      </trkpt>
      <trkpt lat="43.489150" lon="11.406200">
        <ele>534</ele>
        <time>2019-09-05T14:44:46Z</time>
      </trkpt>
      <trkpt lat="43.489050" lon="11.405810">
        <ele>533</ele>
        <time>2019-09-05T14:44:51Z</time>
      </trkpt>
      <trkpt lat="43.488930" lon="11.405150">
        <ele>530</ele>
        <time>2019-09-05T14:45:00Z</time>
      </trkpt>
      <trkpt lat="43.488710" lon="11.404540">
        <ele>532</ele>
        <time>2019-09-05T14:45:09Z</time>
      </trkpt>
      <trkpt lat="43.488680" lon="11.404290">
        <ele>532</ele>
        <time>2019-09-05T14:45:12Z</time>
      </trkpt>
      <trkpt lat="43.488690" lon="11.404020">
        <ele>531</ele>
        <time>2019-09-05T14:45:16Z</time>
      </trkpt>
      <trkpt lat="43.488750" lon="11.403600">
        <ele>527</ele>
        <time>2019-09-05T14:45:21Z</time>
      </trkpt>
      <trkpt lat="43.488750" lon="11.403390">
        <ele>527</ele>
        <time>2019-09-05T14:45:24Z</time>
      </trkpt>
      <trkpt lat="43.488720" lon="11.402990">
        <ele>526</ele>
        <time>2019-09-05T14:45:29Z</time>
      </trkpt>
      <trkpt lat="43.488770" lon="11.402570">
        <ele>524</ele>
        <time>2019-09-05T14:45:35Z</time>
      </trkpt>
      <trkpt lat="43.488780" lon="11.402190">
        <ele>521</ele>
        <time>2019-09-05T14:45:40Z</time>
      </trkpt>
      <trkpt lat="43.488880" lon="11.401810">
        <ele>517</ele>
        <time>2019-09-05T14:45:45Z</time>
      </trkpt>
      <trkpt lat="43.488920" lon="11.401530">
        <ele>515</ele>
        <time>2019-09-05T14:45:48Z</time>
      </trkpt>
      <trkpt lat="43.488870" lon="11.401270">
        <ele>513</ele>
        <time>2019-09-05T14:45:52Z</time>
      </trkpt>
      <trkpt lat="43.488560" lon="11.400980">
        <ele>513</ele>
        <time>2019-09-05T14:45:59Z</time>
      </trkpt>
      <trkpt lat="43.488160" lon="11.400690">
        <ele>510</ele>
        <time>2019-09-05T14:46:07Z</time>
      </trkpt>
      <trkpt lat="43.488050" lon="11.400670">
        <ele>509</ele>
        <time>2019-09-05T14:46:09Z</time>
      </trkpt>
      <trkpt lat="43.487940" lon="11.400720">
        <ele>508</ele>
        <time>2019-09-05T14:46:11Z</time>
      </trkpt>
      <trkpt lat="43.487840" lon="11.400860">
        <ele>509</ele>
        <time>2019-09-05T14:46:13Z</time>
      </trkpt>
      <trkpt lat="43.487660" lon="11.401200">
        <ele>512</ele>
        <time>2019-09-05T14:46:19Z</time>
      </trkpt>
      <trkpt lat="43.487580" lon="11.401260">
        <ele>512</ele>
        <time>2019-09-05T14:46:20Z</time>
      </trkpt>
      <trkpt lat="43.487500" lon="11.401240">
        <ele>511</ele>
        <time>2019-09-05T14:46:22Z</time>
      </trkpt>
      <trkpt lat="43.487470" lon="11.401060">
        <ele>508</ele>
        <time>2019-09-05T14:46:24Z</time>
      </trkpt>
      <trkpt lat="43.487520" lon="11.400880">
        <ele>506</ele>
        <time>2019-09-05T14:46:27Z</time>
      </trkpt>
      <trkpt lat="43.487560" lon="11.400560">
        <ele>504</ele>
        <time>2019-09-05T14:46:31Z</time>
      </trkpt>
      <trkpt lat="43.487560" lon="11.400110">
        <ele>502</ele>
        <time>2019-09-05T14:46:37Z</time>
      </trkpt>
      <trkpt lat="43.487590" lon="11.399840">
        <ele>502</ele>
        <time>2019-09-05T14:46:40Z</time>
      </trkpt>
      <trkpt lat="43.487670" lon="11.399730">
        <ele>503</ele>
        <time>2019-09-05T14:46:42Z</time>
      </trkpt>
      <trkpt lat="43.487580" lon="11.399700">
        <ele>503</ele>
        <time>2019-09-05T14:46:44Z</time>
      </trkpt>
      <trkpt lat="43.486990" lon="11.399580">
        <ele>498</ele>
        <time>2019-09-05T14:46:54Z</time>
      </trkpt>
      <trkpt lat="43.487690" lon="11.399710">
        <ele>503</ele>
        <time>2019-09-05T13:05:16Z</time>
      </trkpt>
      <trkpt lat="43.488080" lon="11.399710">
        <ele>502</ele>
        <time>2019-09-05T13:05:23Z</time>
      </trkpt>
      <trkpt lat="43.488320" lon="11.399590">
        <ele>501</ele>
        <time>2019-09-05T13:05:27Z</time>
      </trkpt>
      <trkpt lat="43.488480" lon="11.399350">
        <ele>498</ele>
        <time>2019-09-05T13:05:32Z</time>
      </trkpt>
      <trkpt lat="43.489590" lon="11.397020">
        <ele>479</ele>
        <time>2019-09-05T13:06:08Z</time>
      </trkpt>
      <trkpt lat="43.489930" lon="11.396520">
        <ele>474</ele>
        <time>2019-09-05T13:06:17Z</time>
      </trkpt>
      <trkpt lat="43.490030" lon="11.396220">
        <ele>472</ele>
        <time>2019-09-05T13:06:21Z</time>
      </trkpt>
      <trkpt lat="43.490090" lon="11.395850">
        <ele>471</ele>
        <time>2019-09-05T13:06:26Z</time>
      </trkpt>
      <trkpt lat="43.490110" lon="11.395510">
        <ele>469</ele>
        <time>2019-09-05T13:06:30Z</time>
      </trkpt>
      <trkpt lat="43.490070" lon="11.394510">
        <ele>466</ele>
        <time>2019-09-05T13:06:43Z</time>
      </trkpt>
      <trkpt lat="43.490110" lon="11.394300">
        <ele>465</ele>
        <time>2019-09-05T13:06:46Z</time>
      </trkpt>
      <trkpt lat="43.490300" lon="11.393820">
        <ele>464</ele>
        <time>2019-09-05T13:06:53Z</time>
      </trkpt>
      <trkpt lat="43.490400" lon="11.393460">
        <ele>464</ele>
        <time>2019-09-05T13:06:58Z</time>
      </trkpt>
      <trkpt lat="43.490400" lon="11.393130">
        <ele>463</ele>
        <time>2019-09-05T13:07:02Z</time>
      </trkpt>
      <trkpt lat="43.490250" lon="11.392640">
        <ele>461</ele>
        <time>2019-09-05T13:07:09Z</time>
      </trkpt>
      <trkpt lat="43.490180" lon="11.392300">
        <ele>459</ele>
        <time>2019-09-05T13:07:14Z</time>
      </trkpt>
      <trkpt lat="43.490190" lon="11.391440">
        <ele>459</ele>
        <time>2019-09-05T13:07:25Z</time>
      </trkpt>
      <trkpt lat="43.490150" lon="11.391290">
        <ele>459</ele>
        <time>2019-09-05T13:07:27Z</time>
      </trkpt>
      <trkpt lat="43.490090" lon="11.391130">
        <ele>459</ele>
        <time>2019-09-05T13:07:29Z</time>
      </trkpt>
      <trkpt lat="43.489870" lon="11.390870">
        <ele>457</ele>
        <time>2019-09-05T13:07:34Z</time>
      </trkpt>
      <trkpt lat="43.489770" lon="11.390710">
        <ele>457</ele>
        <time>2019-09-05T13:07:37Z</time>
      </trkpt>
      <trkpt lat="43.489260" lon="11.389290">
        <ele>456</ele>
        <time>2019-09-05T13:07:57Z</time>
      </trkpt>
      <trkpt lat="43.489250" lon="11.389130">
        <ele>456</ele>
        <time>2019-09-05T13:07:59Z</time>
      </trkpt>
      <trkpt lat="43.489360" lon="11.388630">
        <ele>455</ele>
        <time>2019-09-05T13:08:06Z</time>
      </trkpt>
      <trkpt lat="43.489550" lon="11.386920">
        <ele>455</ele>
        <time>2019-09-05T13:08:29Z</time>
      </trkpt>
      <trkpt lat="43.489600" lon="11.386650">
        <ele>455</ele>
        <time>2019-09-05T13:08:32Z</time>
      </trkpt>
      <trkpt lat="43.489680" lon="11.386390">
        <ele>456</ele>
        <time>2019-09-05T13:08:36Z</time>
      </trkpt>
      <trkpt lat="43.489640" lon="11.386310">
        <ele>455</ele>
        <time>2019-09-05T13:08:37Z</time>
      </trkpt>
      <trkpt lat="43.489680" lon="11.386180">
        <ele>455</ele>
        <time>2019-09-05T13:08:39Z</time>
      </trkpt>
      <trkpt lat="43.489760" lon="11.386160">
        <ele>456</ele>
        <time>2019-09-05T13:08:40Z</time>
      </trkpt>
      <trkpt lat="43.489800" lon="11.385850">
        <ele>456</ele>
        <time>2019-09-05T13:08:44Z</time>
      </trkpt>
      <trkpt lat="43.489960" lon="11.385260">
        <ele>458</ele>
        <time>2019-09-05T13:08:52Z</time>
      </trkpt>
      <trkpt lat="43.490460" lon="11.384670">
        <ele>459</ele>
        <time>2019-09-05T13:09:04Z</time>
      </trkpt>
      <trkpt lat="43.490870" lon="11.384240">
        <ele>456</ele>
        <time>2019-09-05T13:09:13Z</time>
      </trkpt>
      <trkpt lat="43.491070" lon="11.383960">
        <ele>450</ele>
        <time>2019-09-05T13:09:18Z</time>
      </trkpt>
      <trkpt lat="43.491190" lon="11.383710">
        <ele>447</ele>
        <time>2019-09-05T13:09:22Z</time>
      </trkpt>
      <trkpt lat="43.491310" lon="11.383020">
        <ele>441</ele>
        <time>2019-09-05T13:09:31Z</time>
      </trkpt>
      <trkpt lat="43.491220" lon="11.382630">
        <ele>439</ele>
        <time>2019-09-05T13:09:37Z</time>
      </trkpt>
      <trkpt lat="43.491120" lon="11.382520">
        <ele>440</ele>
        <time>2019-09-05T13:09:39Z</time>
      </trkpt>
      <trkpt lat="43.490830" lon="11.382300">
        <ele>442</ele>
        <time>2019-09-05T13:09:45Z</time>
      </trkpt>
      <trkpt lat="43.490700" lon="11.382130">
        <ele>442</ele>
        <time>2019-09-05T13:09:48Z</time>
      </trkpt>
      <trkpt lat="43.490620" lon="11.381940">
        <ele>442</ele>
        <time>2019-09-05T13:09:51Z</time>
      </trkpt>
      <trkpt lat="43.490500" lon="11.381510">
        <ele>439</ele>
        <time>2019-09-05T13:09:57Z</time>
      </trkpt>
      <trkpt lat="43.490240" lon="11.380970">
        <ele>439</ele>
        <time>2019-09-05T13:10:05Z</time>
      </trkpt>
      <trkpt lat="43.490170" lon="11.380700">
        <ele>439</ele>
        <time>2019-09-05T13:10:09Z</time>
      </trkpt>
      <trkpt lat="43.490160" lon="11.380490">
        <ele>438</ele>
        <time>2019-09-05T13:10:12Z</time>
      </trkpt>
      <trkpt lat="43.490280" lon="11.380040">
        <ele>433</ele>
        <time>2019-09-05T13:10:18Z</time>
      </trkpt>
      <trkpt lat="43.490670" lon="11.379320">
        <ele>428</ele>
        <time>2019-09-05T13:10:29Z</time>
      </trkpt>
      <trkpt lat="43.490780" lon="11.379000">
        <ele>427</ele>
        <time>2019-09-05T13:10:34Z</time>
      </trkpt>
      <trkpt lat="43.490800" lon="11.378840">
        <ele>426</ele>
        <time>2019-09-05T13:10:36Z</time>
      </trkpt>
      <trkpt lat="43.490790" lon="11.378510">
        <ele>426</ele>
        <time>2019-09-05T13:10:40Z</time>
      </trkpt>
      <trkpt lat="43.490720" lon="11.378270">
        <ele>427</ele>
        <time>2019-09-05T13:10:44Z</time>
      </trkpt>
      <trkpt lat="43.490460" lon="11.376090">
        <ele>420</ele>
        <time>2019-09-05T13:11:12Z</time>
      </trkpt>
      <trkpt lat="43.490390" lon="11.375130">
        <ele>419</ele>
        <time>2019-09-05T13:11:25Z</time>
      </trkpt>
      <trkpt lat="43.490410" lon="11.374860">
        <ele>419</ele>
        <time>2019-09-05T13:11:28Z</time>
      </trkpt>
      <trkpt lat="43.490510" lon="11.374220">
        <ele>418</ele>
        <time>2019-09-05T13:11:37Z</time>
      </trkpt>
      <trkpt lat="43.490580" lon="11.373930">
        <ele>416</ele>
        <time>2019-09-05T13:11:41Z</time>
      </trkpt>
      <trkpt lat="43.490790" lon="11.373380">
        <ele>410</ele>
        <time>2019-09-05T13:11:49Z</time>
      </trkpt>
      <trkpt lat="43.490820" lon="11.373170">
        <ele>407</ele>
        <time>2019-09-05T13:11:51Z</time>
      </trkpt>
      <trkpt lat="43.490800" lon="11.372980">
        <ele>407</ele>
        <time>2019-09-05T13:11:54Z</time>
      </trkpt>
      <trkpt lat="43.490400" lon="11.371860">
        <ele>411</ele>
        <time>2019-09-05T13:12:10Z</time>
      </trkpt>
      <trkpt lat="43.490380" lon="11.371700">
        <ele>410</ele>
        <time>2019-09-05T13:12:12Z</time>
      </trkpt>
      <trkpt lat="43.490400" lon="11.371530">
        <ele>410</ele>
        <time>2019-09-05T13:12:14Z</time>
      </trkpt>
      <trkpt lat="43.490480" lon="11.371410">
        <ele>409</ele>
        <time>2019-09-05T13:12:16Z</time>
      </trkpt>
      <trkpt lat="43.490580" lon="11.371360">
        <ele>407</ele>
        <time>2019-09-05T13:12:18Z</time>
      </trkpt>
      <trkpt lat="43.491010" lon="11.371350">
        <ele>400</ele>
        <time>2019-09-05T13:12:26Z</time>
      </trkpt>
      <trkpt lat="43.491160" lon="11.371300">
        <ele>398</ele>
        <time>2019-09-05T13:12:29Z</time>
      </trkpt>
      <trkpt lat="43.491370" lon="11.371170">
        <ele>396</ele>
        <time>2019-09-05T13:12:33Z</time>
      </trkpt>
      <trkpt lat="43.491490" lon="11.371030">
        <ele>396</ele>
        <time>2019-09-05T13:12:36Z</time>
      </trkpt>
      <trkpt lat="43.491710" lon="11.370590">
        <ele>396</ele>
        <time>2019-09-05T13:12:42Z</time>
      </trkpt>
      <trkpt lat="43.491850" lon="11.370060">
        <ele>395</ele>
        <time>2019-09-05T13:12:50Z</time>
      </trkpt>
      <trkpt lat="43.491860" lon="11.369850">
        <ele>394</ele>
        <time>2019-09-05T13:12:52Z</time>
      </trkpt>
      <trkpt lat="43.491840" lon="11.369580">
        <ele>393</ele>
        <time>2019-09-05T13:12:56Z</time>
      </trkpt>
      <trkpt lat="43.491760" lon="11.369300">
        <ele>395</ele>
        <time>2019-09-05T13:13:00Z</time>
      </trkpt>
      <trkpt lat="43.491480" lon="11.368740">
        <ele>394</ele>
        <time>2019-09-05T13:13:09Z</time>
      </trkpt>
      <trkpt lat="43.491280" lon="11.368440">
        <ele>392</ele>
        <time>2019-09-05T13:13:14Z</time>
      </trkpt>
      <trkpt lat="43.491110" lon="11.368260">
        <ele>393</ele>
        <time>2019-09-05T13:13:18Z</time>
      </trkpt>
      <trkpt lat="43.490930" lon="11.368130">
        <ele>395</ele>
        <time>2019-09-05T13:13:21Z</time>
      </trkpt>
      <trkpt lat="43.490570" lon="11.367990">
        <ele>399</ele>
        <time>2019-09-05T13:13:28Z</time>
      </trkpt>
      <trkpt lat="43.490500" lon="11.367830">
        <ele>399</ele>
        <time>2019-09-05T13:13:30Z</time>
      </trkpt>
      <trkpt lat="43.490490" lon="11.367720">
        <ele>399</ele>
        <time>2019-09-05T13:13:32Z</time>
      </trkpt>
      <trkpt lat="43.490530" lon="11.367580">
        <ele>399</ele>
        <time>2019-09-05T13:13:34Z</time>
      </trkpt>
      <trkpt lat="43.490980" lon="11.367550">
        <ele>397</ele>
        <time>2019-09-05T13:13:42Z</time>
      </trkpt>
      <trkpt lat="43.491200" lon="11.367590">
        <ele>396</ele>
        <time>2019-09-05T13:13:46Z</time>
      </trkpt>
      <trkpt lat="43.491620" lon="11.367920">
        <ele>391</ele>
        <time>2019-09-05T13:13:54Z</time>
      </trkpt>
      <trkpt lat="43.492210" lon="11.368560">
        <ele>379</ele>
        <time>2019-09-05T13:14:08Z</time>
      </trkpt>
      <trkpt lat="43.492430" lon="11.368730">
        <ele>375</ele>
        <time>2019-09-05T13:14:12Z</time>
      </trkpt>
      <trkpt lat="43.492770" lon="11.368900">
        <ele>369</ele>
        <time>2019-09-05T13:14:19Z</time>
      </trkpt>
      <trkpt lat="43.493200" lon="11.369050">
        <ele>362</ele>
        <time>2019-09-05T13:14:26Z</time>
      </trkpt>
      <trkpt lat="43.494660" lon="11.369420">
        <ele>344</ele>
        <time>2019-09-05T13:14:53Z</time>
      </trkpt>
      <trkpt lat="43.494930" lon="11.369540">
        <ele>343</ele>
        <time>2019-09-05T13:14:58Z</time>
      </trkpt>
      <trkpt lat="43.495510" lon="11.370160">
        <ele>349</ele>
        <time>2019-09-05T13:15:11Z</time>
      </trkpt>
      <trkpt lat="43.495660" lon="11.370290">
        <ele>351</ele>
        <time>2019-09-05T13:15:14Z</time>
      </trkpt>
      <trkpt lat="43.495820" lon="11.370580">
        <ele>353</ele>
        <time>2019-09-05T13:15:19Z</time>
      </trkpt>
      <trkpt lat="43.495820" lon="11.370850">
        <ele>354</ele>
        <time>2019-09-05T13:15:22Z</time>
      </trkpt>
      <trkpt lat="43.495890" lon="11.370950">
        <ele>355</ele>
        <time>2019-09-05T13:15:24Z</time>
      </trkpt>
      <trkpt lat="43.496190" lon="11.371090">
        <ele>358</ele>
        <time>2019-09-05T13:15:30Z</time>
      </trkpt>
      <trkpt lat="43.496400" lon="11.371260">
        <ele>359</ele>
        <time>2019-09-05T13:15:34Z</time>
      </trkpt>
      <trkpt lat="43.496910" lon="11.371590">
        <ele>362</ele>
        <time>2019-09-05T13:15:44Z</time>
      </trkpt>
      <trkpt lat="43.497470" lon="11.371830">
        <ele>366</ele>
        <time>2019-09-05T13:15:55Z</time>
      </trkpt>
      <trkpt lat="43.497660" lon="11.371860">
        <ele>368</ele>
        <time>2019-09-05T13:15:58Z</time>
      </trkpt>
      <trkpt lat="43.497920" lon="11.371840">
        <ele>370</ele>
        <time>2019-09-05T13:16:03Z</time>
      </trkpt>
      <trkpt lat="43.499300" lon="11.371590">
        <ele>383</ele>
        <time>2019-09-05T13:16:27Z</time>
      </trkpt>
      <trkpt lat="43.499470" lon="11.371520">
        <ele>385</ele>
        <time>2019-09-05T13:16:31Z</time>
      </trkpt>
      <trkpt lat="43.499810" lon="11.371300">
        <ele>393</ele>
        <time>2019-09-05T13:16:37Z</time>
      </trkpt>
      <trkpt lat="43.500090" lon="11.371240">
        <ele>396</ele>
        <time>2019-09-05T13:16:42Z</time>
      </trkpt>
      <trkpt lat="43.500330" lon="11.371300">
        <ele>397</ele>
        <time>2019-09-05T13:16:47Z</time>
      </trkpt>
      <trkpt lat="43.500700" lon="11.371500">
        <ele>395</ele>
        <time>2019-09-05T13:16:54Z</time>
      </trkpt>
      <trkpt lat="43.500820" lon="11.371530">
        <ele>396</ele>
        <time>2019-09-05T13:16:56Z</time>
      </trkpt>
      <trkpt lat="43.500970" lon="11.371480">
        <ele>396</ele>
        <time>2019-09-05T13:16:59Z</time>
      </trkpt>
      <trkpt lat="43.501080" lon="11.371400">
        <ele>397</ele>
        <time>2019-09-05T13:17:01Z</time>
      </trkpt>
      <trkpt lat="43.501250" lon="11.371160">
        <ele>401</ele>
        <time>2019-09-05T13:17:05Z</time>
      </trkpt>
      <trkpt lat="43.501650" lon="11.370790">
        <ele>404</ele>
        <time>2019-09-05T13:17:14Z</time>
      </trkpt>
      <trkpt lat="43.501870" lon="11.370690">
        <ele>406</ele>
        <time>2019-09-05T13:17:18Z</time>
      </trkpt>
      <trkpt lat="43.502510" lon="11.370520">
        <ele>412</ele>
        <time>2019-09-05T13:17:29Z</time>
      </trkpt>
      <trkpt lat="43.502720" lon="11.370410">
        <ele>415</ele>
        <time>2019-09-05T13:17:33Z</time>
      </trkpt>
      <trkpt lat="43.503030" lon="11.370120">
        <ele>422</ele>
        <time>2019-09-05T13:17:40Z</time>
      </trkpt>
      <trkpt lat="43.503350" lon="11.369980">
        <ele>426</ele>
        <time>2019-09-05T13:17:46Z</time>
      </trkpt>
      <trkpt lat="43.503590" lon="11.369920">
        <ele>429</ele>
        <time>2019-09-05T13:17:50Z</time>
      </trkpt>
      <trkpt lat="43.503870" lon="11.369940">
        <ele>431</ele>
        <time>2019-09-05T13:17:55Z</time>
      </trkpt>
      <trkpt lat="43.504050" lon="11.369900">
        <ele>433</ele>
        <time>2019-09-05T13:17:59Z</time>
      </trkpt>
      <trkpt lat="43.504220" lon="11.369780">
        <ele>436</ele>
        <time>2019-09-05T13:18:02Z</time>
      </trkpt>
      <trkpt lat="43.504640" lon="11.369390">
        <ele>444</ele>
        <time>2019-09-05T13:18:11Z</time>
      </trkpt>
      <trkpt lat="43.504790" lon="11.369320">
        <ele>445</ele>
        <time>2019-09-05T13:18:14Z</time>
      </trkpt>
      <trkpt lat="43.505010" lon="11.369360">
        <ele>444</ele>
        <time>2019-09-05T13:18:18Z</time>
      </trkpt>
      <trkpt lat="43.505370" lon="11.369550">
        <ele>443</ele>
        <time>2019-09-05T13:18:25Z</time>
      </trkpt>
      <trkpt lat="43.505620" lon="11.369490">
        <ele>444</ele>
        <time>2019-09-05T13:18:29Z</time>
      </trkpt>
      <trkpt lat="43.505790" lon="11.369370">
        <ele>446</ele>
        <time>2019-09-05T13:18:33Z</time>
      </trkpt>
      <trkpt lat="43.506250" lon="11.368930">
        <ele>452</ele>
        <time>2019-09-05T13:18:43Z</time>
      </trkpt>
      <trkpt lat="43.506410" lon="11.368630">
        <ele>456</ele>
        <time>2019-09-05T13:18:47Z</time>
      </trkpt>
      <trkpt lat="43.506580" lon="11.368430">
        <ele>460</ele>
        <time>2019-09-05T13:18:51Z</time>
      </trkpt>
      <trkpt lat="43.507000" lon="11.368270">
        <ele>469</ele>
        <time>2019-09-05T13:18:59Z</time>
      </trkpt>
      <trkpt lat="43.507140" lon="11.368240">
        <ele>472</ele>
        <time>2019-09-05T13:19:02Z</time>
      </trkpt>
      <trkpt lat="43.507240" lon="11.368260">
        <ele>473</ele>
        <time>2019-09-05T13:19:03Z</time>
      </trkpt>
      <trkpt lat="43.507370" lon="11.368340">
        <ele>475</ele>
        <time>2019-09-05T13:19:06Z</time>
      </trkpt>
      <trkpt lat="43.507410" lon="11.368400">
        <ele>474</ele>
        <time>2019-09-05T13:19:07Z</time>
      </trkpt>
      <trkpt lat="43.507360" lon="11.368140">
        <ele>476</ele>
        <time>2019-09-05T13:19:10Z</time>
      </trkpt>
      <trkpt lat="43.507290" lon="11.368030">
        <ele>476</ele>
        <time>2019-09-05T13:19:12Z</time>
      </trkpt>
      <trkpt lat="43.507290" lon="11.367970">
        <ele>477</ele>
        <time>2019-09-05T13:19:13Z</time>
      </trkpt>
      <trkpt lat="43.507350" lon="11.367930">
        <ele>478</ele>
        <time>2019-09-05T13:19:14Z</time>
      </trkpt>
      <trkpt lat="43.507440" lon="11.368020">
        <ele>479</ele>
        <time>2019-09-05T13:19:16Z</time>
      </trkpt>
      <trkpt lat="43.507770" lon="11.368190">
        <ele>483</ele>
        <time>2019-09-05T13:19:23Z</time>
      </trkpt>
      <trkpt lat="43.508100" lon="11.368200">
        <ele>488</ele>
        <time>2019-09-05T13:19:28Z</time>
      </trkpt>
      <trkpt lat="43.507950" lon="11.368080">
        <ele>487</ele>
        <time>2019-09-05T13:19:31Z</time>
      </trkpt>
      <trkpt lat="43.507910" lon="11.367920">
        <ele>488</ele>
        <time>2019-09-05T13:19:34Z</time>
      </trkpt>
      <trkpt lat="43.507930" lon="11.367850">
        <ele>490</ele>
        <time>2019-09-05T13:19:35Z</time>
      </trkpt>
      <trkpt lat="43.508010" lon="11.367780">
        <ele>492</ele>
        <time>2019-09-05T13:19:36Z</time>
      </trkpt>
      <trkpt lat="43.508060" lon="11.367790">
        <ele>493</ele>
        <time>2019-09-05T13:19:37Z</time>
      </trkpt>
      <trkpt lat="43.508120" lon="11.367850">
        <ele>493</ele>
        <time>2019-09-05T13:19:39Z</time>
      </trkpt>
      <trkpt lat="43.508220" lon="11.367820">
        <ele>495</ele>
        <time>2019-09-05T13:19:40Z</time>
      </trkpt>
      <trkpt lat="43.508240" lon="11.367760">
        <ele>497</ele>
        <time>2019-09-05T13:19:41Z</time>
      </trkpt>
      <trkpt lat="43.508250" lon="11.367670">
        <ele>498</ele>
        <time>2019-09-05T13:19:42Z</time>
      </trkpt>
      <trkpt lat="43.508140" lon="11.367400">
        <ele>499</ele>
        <time>2019-09-05T13:19:46Z</time>
      </trkpt>
      <trkpt lat="43.508120" lon="11.367220">
        <ele>500</ele>
        <time>2019-09-05T13:19:49Z</time>
      </trkpt>
      <trkpt lat="43.508160" lon="11.367100">
        <ele>501</ele>
        <time>2019-09-05T13:19:50Z</time>
      </trkpt>
      <trkpt lat="43.508240" lon="11.367070">
        <ele>503</ele>
        <time>2019-09-05T13:19:52Z</time>
      </trkpt>
      <trkpt lat="43.508320" lon="11.367100">
        <ele>505</ele>
        <time>2019-09-05T13:19:53Z</time>
      </trkpt>
      <trkpt lat="43.508450" lon="11.367240">
        <ele>507</ele>
        <time>2019-09-05T13:19:56Z</time>
      </trkpt>
      <trkpt lat="43.508590" lon="11.367320">
        <ele>508</ele>
        <time>2019-09-05T13:19:59Z</time>
      </trkpt>
      <trkpt lat="43.508930" lon="11.367400">
        <ele>513</ele>
        <time>2019-09-05T13:20:05Z</time>
      </trkpt>
      <trkpt lat="43.509350" lon="11.367580">
        <ele>513</ele>
        <time>2019-09-05T13:20:13Z</time>
      </trkpt>
      <trkpt lat="43.509520" lon="11.367550">
        <ele>513</ele>
        <time>2019-09-05T13:20:16Z</time>
      </trkpt>
      <trkpt lat="43.509800" lon="11.367310">
        <ele>517</ele>
        <time>2019-09-05T13:20:22Z</time>
      </trkpt>
      <trkpt lat="43.509960" lon="11.367230">
        <ele>519</ele>
        <time>2019-09-05T13:20:25Z</time>
      </trkpt>
      <trkpt lat="43.510100" lon="11.367120">
        <ele>520</ele>
        <time>2019-09-05T13:20:28Z</time>
      </trkpt>
      <trkpt lat="43.510130" lon="11.366940">
        <ele>524</ele>
        <time>2019-09-05T13:20:30Z</time>
      </trkpt>
      <trkpt lat="43.510030" lon="11.366800">
        <ele>528</ele>
        <time>2019-09-05T13:20:33Z</time>
      </trkpt>
      <trkpt lat="43.509910" lon="11.366720">
        <ele>529</ele>
        <time>2019-09-05T13:20:35Z</time>
      </trkpt>
      <trkpt lat="43.509840" lon="11.366610">
        <ele>530</ele>
        <time>2019-09-05T13:20:37Z</time>
      </trkpt>
      <trkpt lat="43.509870" lon="11.366470">
        <ele>531</ele>
        <time>2019-09-05T13:20:39Z</time>
      </trkpt>
      <trkpt lat="43.509980" lon="11.366340">
        <ele>533</ele>
        <time>2019-09-05T13:20:41Z</time>
      </trkpt>
      <trkpt lat="43.510900" lon="11.365690">
        <ele>543</ele>
        <time>2019-09-05T13:21:00Z</time>
      </trkpt>
      <trkpt lat="43.511210" lon="11.365620">
        <ele>544</ele>
        <time>2019-09-05T13:21:05Z</time>
      </trkpt>
      <trkpt lat="43.511330" lon="11.365570">
        <ele>545</ele>
        <time>2019-09-05T13:21:08Z</time>
      </trkpt>
      <trkpt lat="43.511450" lon="11.365470">
        <ele>546</ele>
        <time>2019-09-05T13:21:10Z</time>
      </trkpt>
      <trkpt lat="43.511840" lon="11.365010">
        <ele>550</ele>
        <time>2019-09-05T13:21:19Z</time>
      </trkpt>
      <trkpt lat="43.512120" lon="11.364560">
        <ele>546</ele>
        <time>2019-09-05T13:21:27Z</time>
      </trkpt>
      <trkpt lat="43.512410" lon="11.364180">
        <ele>545</ele>
        <time>2019-09-05T13:21:34Z</time>
      </trkpt>
      <trkpt lat="43.512670" lon="11.363910">
        <ele>545</ele>
        <time>2019-09-05T13:21:40Z</time>
      </trkpt>
      <trkpt lat="43.512990" lon="11.363740">
        <ele>548</ele>
        <time>2019-09-05T13:21:46Z</time>
      </trkpt>
      <trkpt lat="43.513120" lon="11.363610">
        <ele>551</ele>
        <time>2019-09-05T13:21:49Z</time>
      </trkpt>
      <trkpt lat="43.513160" lon="11.363510">
        <ele>552</ele>
        <time>2019-09-05T13:21:50Z</time>
      </trkpt>
      <trkpt lat="43.513150" lon="11.363120">
        <ele>553</ele>
        <time>2019-09-05T13:21:55Z</time>
      </trkpt>
      <trkpt lat="43.513180" lon="11.362940">
        <ele>553</ele>
        <time>2019-09-05T13:21:58Z</time>
      </trkpt>
      <trkpt lat="43.513290" lon="11.362710">
        <ele>554</ele>
        <time>2019-09-05T13:22:01Z</time>
      </trkpt>
      <trkpt lat="43.513470" lon="11.362520">
        <ele>556</ele>
        <time>2019-09-05T13:22:05Z</time>
      </trkpt>
      <trkpt lat="43.513770" lon="11.362290">
        <ele>554</ele>
        <time>2019-09-05T13:22:11Z</time>
      </trkpt>
      <trkpt lat="43.514130" lon="11.361930">
        <ele>550</ele>
        <time>2019-09-05T13:22:19Z</time>
      </trkpt>
      <trkpt lat="43.514770" lon="11.361500">
        <ele>550</ele>
        <time>2019-09-05T13:22:32Z</time>
      </trkpt>
      <trkpt lat="43.515130" lon="11.361370">
        <ele>552</ele>
        <time>2019-09-05T13:22:39Z</time>
      </trkpt>
      <trkpt lat="43.515530" lon="11.361340">
        <ele>558</ele>
        <time>2019-09-05T13:22:46Z</time>
      </trkpt>
      <trkpt lat="43.515660" lon="11.361290">
        <ele>558</ele>
        <time>2019-09-05T13:22:48Z</time>
      </trkpt>
      <trkpt lat="43.515760" lon="11.361200">
        <ele>557</ele>
        <time>2019-09-05T13:22:50Z</time>
      </trkpt>
      <trkpt lat="43.516050" lon="11.360760">
        <ele>549</ele>
        <time>2019-09-05T13:22:58Z</time>
      </trkpt>
      <trkpt lat="43.516170" lon="11.360640">
        <ele>547</ele>
        <time>2019-09-05T13:23:01Z</time>
      </trkpt>
      <trkpt lat="43.516310" lon="11.360570">
        <ele>546</ele>
        <time>2019-09-05T13:23:03Z</time>
      </trkpt>
      <trkpt lat="43.516440" lon="11.360550">
        <ele>546</ele>
        <time>2019-09-05T13:23:06Z</time>
      </trkpt>
      <trkpt lat="43.516560" lon="11.360580">
        <ele>548</ele>
        <time>2019-09-05T13:23:08Z</time>
      </trkpt>
      <trkpt lat="43.516700" lon="11.360660">
        <ele>552</ele>
        <time>2019-09-05T13:23:10Z</time>
      </trkpt>
      <trkpt lat="43.516950" lon="11.360910">
        <ele>556</ele>
        <time>2019-09-05T13:23:16Z</time>
      </trkpt>
      <trkpt lat="43.517180" lon="11.361200">
        <ele>559</ele>
        <time>2019-09-05T13:23:21Z</time>
      </trkpt>
      <trkpt lat="43.517340" lon="11.361540">
        <ele>564</ele>
        <time>2019-09-05T13:23:27Z</time>
      </trkpt>
      <trkpt lat="43.517420" lon="11.361870">
        <ele>571</ele>
        <time>2019-09-05T13:23:31Z</time>
      </trkpt>
      <trkpt lat="43.517480" lon="11.361980">
        <ele>573</ele>
        <time>2019-09-05T13:23:33Z</time>
      </trkpt>
      <trkpt lat="43.517580" lon="11.362040">
        <ele>574</ele>
        <time>2019-09-05T13:23:35Z</time>
      </trkpt>
      <trkpt lat="43.518010" lon="11.361740">
        <ele>567</ele>
        <time>2019-09-05T13:23:43Z</time>
      </trkpt>
      <trkpt lat="43.518150" lon="11.361770">
        <ele>568</ele>
        <time>2019-09-05T13:23:46Z</time>
      </trkpt>
      <trkpt lat="43.518260" lon="11.361850">
        <ele>570</ele>
        <time>2019-09-05T13:23:48Z</time>
      </trkpt>
      <trkpt lat="43.518480" lon="11.362040">
        <ele>575</ele>
        <time>2019-09-05T13:23:53Z</time>
      </trkpt>
      <trkpt lat="43.518690" lon="11.362270">
        <ele>581</ele>
        <time>2019-09-05T13:23:58Z</time>
      </trkpt>
      <trkpt lat="43.518810" lon="11.362280">
        <ele>581</ele>
        <time>2019-09-05T13:24:00Z</time>
      </trkpt>
      <trkpt lat="43.518870" lon="11.362150">
        <ele>579</ele>
        <time>2019-09-05T13:24:02Z</time>
      </trkpt>
      <trkpt lat="43.518860" lon="11.362020">
        <ele>577</ele>
        <time>2019-09-05T13:24:03Z</time>
      </trkpt>
      <trkpt lat="43.518760" lon="11.361740">
        <ele>571</ele>
        <time>2019-09-05T13:24:07Z</time>
      </trkpt>
      <trkpt lat="43.518750" lon="11.361570">
        <ele>567</ele>
        <time>2019-09-05T13:24:10Z</time>
      </trkpt>
      <trkpt lat="43.518830" lon="11.361480">
        <ele>566</ele>
        <time>2019-09-05T13:24:11Z</time>
      </trkpt>
      <trkpt lat="43.519060" lon="11.361550">
        <ele>570</ele>
        <time>2019-09-05T13:24:16Z</time>
      </trkpt>
      <trkpt lat="43.519430" lon="11.361380">
        <ele>568</ele>
        <time>2019-09-05T13:24:23Z</time>
      </trkpt>
      <trkpt lat="43.519670" lon="11.361430">
        <ele>569</ele>
        <time>2019-09-05T13:24:27Z</time>
      </trkpt>
      <trkpt lat="43.519790" lon="11.361490">
        <ele>570</ele>
        <time>2019-09-05T13:24:29Z</time>
      </trkpt>
      <trkpt lat="43.520180" lon="11.361780">
        <ele>577</ele>
        <time>2019-09-05T13:24:37Z</time>
      </trkpt>
      <trkpt lat="43.520480" lon="11.361880">
        <ele>580</ele>
        <time>2019-09-05T13:24:43Z</time>
      </trkpt>
      <trkpt lat="43.521100" lon="11.361990">
        <ele>589</ele>
        <time>2019-09-05T13:24:54Z</time>
      </trkpt>
      <trkpt lat="43.521270" lon="11.361990">
        <ele>591</ele>
        <time>2019-09-05T13:24:57Z</time>
      </trkpt>
      <trkpt lat="43.521400" lon="11.361930">
        <ele>592</ele>
        <time>2019-09-05T13:24:59Z</time>
      </trkpt>
      <trkpt lat="43.521550" lon="11.361910">
        <ele>595</ele>
        <time>2019-09-05T13:25:02Z</time>
      </trkpt>
      <trkpt lat="43.521670" lon="11.361930">
        <ele>597</ele>
        <time>2019-09-05T13:25:04Z</time>
      </trkpt>
      <trkpt lat="43.521910" lon="11.362020">
        <ele>603</ele>
        <time>2019-09-05T13:25:08Z</time>
      </trkpt>
      <trkpt lat="43.522020" lon="11.362020">
        <ele>605</ele>
        <time>2019-09-05T13:25:10Z</time>
      </trkpt>
      <trkpt lat="43.522090" lon="11.361930">
        <ele>607</ele>
        <time>2019-09-05T13:25:12Z</time>
      </trkpt>
      <trkpt lat="43.522000" lon="11.361780">
        <ele>604</ele>
        <time>2019-09-05T13:25:15Z</time>
      </trkpt>
      <trkpt lat="43.521690" lon="11.361450">
        <ele>598</ele>
        <time>2019-09-05T13:25:22Z</time>
      </trkpt>
      <trkpt lat="43.521490" lon="11.360980">
        <ele>598</ele>
        <time>2019-09-05T13:25:29Z</time>
      </trkpt>
      <trkpt lat="43.521250" lon="11.360750">
        <ele>591</ele>
        <time>2019-09-05T13:25:34Z</time>
      </trkpt>
      <trkpt lat="43.521150" lon="11.360610">
        <ele>589</ele>
        <time>2019-09-05T13:25:36Z</time>
      </trkpt>
      <trkpt lat="43.521070" lon="11.360440">
        <ele>588</ele>
        <time>2019-09-05T13:25:39Z</time>
      </trkpt>
      <trkpt lat="43.521010" lon="11.360060">
        <ele>591</ele>
        <time>2019-09-05T13:25:44Z</time>
      </trkpt>
      <trkpt lat="43.521030" lon="11.359900">
        <ele>594</ele>
        <time>2019-09-05T13:25:46Z</time>
      </trkpt>
      <trkpt lat="43.521150" lon="11.359600">
        <ele>603</ele>
        <time>2019-09-05T13:25:50Z</time>
      </trkpt>
      <trkpt lat="43.521160" lon="11.359440">
        <ele>605</ele>
        <time>2019-09-05T13:25:53Z</time>
      </trkpt>
      <trkpt lat="43.521130" lon="11.359280">
        <ele>605</ele>
        <time>2019-09-05T13:25:55Z</time>
      </trkpt>
      <trkpt lat="43.521080" lon="11.359120">
        <ele>605</ele>
        <time>2019-09-05T13:25:57Z</time>
      </trkpt>
      <trkpt lat="43.520750" lon="11.358650">
        <ele>598</ele>
        <time>2019-09-05T13:26:05Z</time>
      </trkpt>
      <trkpt lat="43.520570" lon="11.358340">
        <ele>594</ele>
        <time>2019-09-05T13:26:10Z</time>
      </trkpt>
      <trkpt lat="43.520520" lon="11.358180">
        <ele>591</ele>
        <time>2019-09-05T13:26:13Z</time>
      </trkpt>
      <trkpt lat="43.520520" lon="11.358010">
        <ele>590</ele>
        <time>2019-09-05T13:26:15Z</time>
      </trkpt>
      <trkpt lat="43.520570" lon="11.357900">
        <ele>591</ele>
        <time>2019-09-05T13:26:17Z</time>
      </trkpt>
      <trkpt lat="43.521160" lon="11.357610">
        <ele>606</ele>
        <time>2019-09-05T13:26:28Z</time>
      </trkpt>
      <trkpt lat="43.521550" lon="11.357320">
        <ele>612</ele>
        <time>2019-09-05T13:26:36Z</time>
      </trkpt>
      <trkpt lat="43.521650" lon="11.357280">
        <ele>614</ele>
        <time>2019-09-05T13:26:37Z</time>
      </trkpt>
      <trkpt lat="43.521860" lon="11.357370">
        <ele>621</ele>
        <time>2019-09-05T13:26:41Z</time>
      </trkpt>
      <trkpt lat="43.521970" lon="11.357350">
        <ele>624</ele>
        <time>2019-09-05T13:26:43Z</time>
      </trkpt>
      <trkpt lat="43.521970" lon="11.357180">
        <ele>623</ele>
        <time>2019-09-05T13:26:46Z</time>
      </trkpt>
      <trkpt lat="43.521870" lon="11.356690">
        <ele>615</ele>
        <time>2019-09-05T13:26:52Z</time>
      </trkpt>
      <trkpt lat="43.521850" lon="11.356070">
        <ele>616</ele>
        <time>2019-09-05T13:27:00Z</time>
      </trkpt>
      <trkpt lat="43.521810" lon="11.355880">
        <ele>615</ele>
        <time>2019-09-05T13:27:03Z</time>
      </trkpt>
      <trkpt lat="43.521510" lon="11.355220">
        <ele>609</ele>
        <time>2019-09-05T13:27:13Z</time>
      </trkpt>
      <trkpt lat="43.521500" lon="11.354870">
        <ele>612</ele>
        <time>2019-09-05T13:27:17Z</time>
      </trkpt>
      <trkpt lat="43.521600" lon="11.354390">
        <ele>617</ele>
        <time>2019-09-05T13:27:24Z</time>
      </trkpt>
      <trkpt lat="43.521660" lon="11.354260">
        <ele>620</ele>
        <time>2019-09-05T13:27:26Z</time>
      </trkpt>
      <trkpt lat="43.521740" lon="11.354140">
        <ele>621</ele>
        <time>2019-09-05T13:27:28Z</time>
      </trkpt>
      <trkpt lat="43.521990" lon="11.353940">
        <ele>623</ele>
        <time>2019-09-05T13:27:33Z</time>
      </trkpt>
      <trkpt lat="43.522060" lon="11.353830">
        <ele>622</ele>
        <time>2019-09-05T13:27:35Z</time>
      </trkpt>
      <trkpt lat="43.522160" lon="11.353830">
        <ele>623</ele>
        <time>2019-09-05T13:27:37Z</time>
      </trkpt>
      <trkpt lat="43.522330" lon="11.353880">
        <ele>625</ele>
        <time>2019-09-05T13:27:40Z</time>
      </trkpt>
      <trkpt lat="43.522440" lon="11.354000">
        <ele>627</ele>
        <time>2019-09-05T13:27:42Z</time>
      </trkpt>
      <trkpt lat="43.522560" lon="11.354050">
        <ele>629</ele>
        <time>2019-09-05T13:27:44Z</time>
      </trkpt>
      <trkpt lat="43.522850" lon="11.354040">
        <ele>631</ele>
        <time>2019-09-05T13:27:50Z</time>
      </trkpt>
      <trkpt lat="43.523050" lon="11.353960">
        <ele>631</ele>
        <time>2019-09-05T13:27:53Z</time>
      </trkpt>
      <trkpt lat="43.523580" lon="11.353530">
        <ele>624</ele>
        <time>2019-09-05T13:28:04Z</time>
      </trkpt>
      <trkpt lat="43.523740" lon="11.353480">
        <ele>623</ele>
        <time>2019-09-05T13:28:07Z</time>
      </trkpt>
      <trkpt lat="43.523850" lon="11.353500">
        <ele>624</ele>
        <time>2019-09-05T13:28:09Z</time>
      </trkpt>
      <trkpt lat="43.523950" lon="11.353570">
        <ele>625</ele>
        <time>2019-09-05T13:28:11Z</time>
      </trkpt>
      <trkpt lat="43.524010" lon="11.353730">
        <ele>628</ele>
        <time>2019-09-05T13:28:13Z</time>
      </trkpt>
      <trkpt lat="43.524060" lon="11.353920">
        <ele>632</ele>
        <time>2019-09-05T13:28:16Z</time>
      </trkpt>
      <trkpt lat="43.524140" lon="11.354480">
        <ele>641</ele>
        <time>2019-09-05T13:28:23Z</time>
      </trkpt>
      <trkpt lat="43.524190" lon="11.354600">
        <ele>643</ele>
        <time>2019-09-05T13:28:25Z</time>
      </trkpt>
      <trkpt lat="43.524300" lon="11.354670">
        <ele>643</ele>
        <time>2019-09-05T13:28:27Z</time>
      </trkpt>
      <trkpt lat="43.524830" lon="11.354850">
        <ele>643</ele>
        <time>2019-09-05T13:28:37Z</time>
      </trkpt>
      <trkpt lat="43.525040" lon="11.354900">
        <ele>643</ele>
        <time>2019-09-05T13:28:41Z</time>
      </trkpt>
      <trkpt lat="43.525230" lon="11.354900">
        <ele>643</ele>
        <time>2019-09-05T13:28:44Z</time>
      </trkpt>
      <trkpt lat="43.525390" lon="11.354940">
        <ele>644</ele>
        <time>2019-09-05T13:28:47Z</time>
      </trkpt>
      <trkpt lat="43.526210" lon="11.355340">
        <ele>652</ele>
        <time>2019-09-05T13:29:03Z</time>
      </trkpt>
      <trkpt lat="43.526780" lon="11.355660">
        <ele>657</ele>
        <time>2019-09-05T13:29:14Z</time>
      </trkpt>
      <trkpt lat="43.526890" lon="11.355680">
        <ele>658</ele>
        <time>2019-09-05T13:29:16Z</time>
      </trkpt>
      <trkpt lat="43.527100" lon="11.355630">
        <ele>656</ele>
        <time>2019-09-05T13:29:19Z</time>
      </trkpt>
      <trkpt lat="43.527340" lon="11.355610">
        <ele>656</ele>
        <time>2019-09-05T13:29:24Z</time>
      </trkpt>
      <trkpt lat="43.528110" lon="11.355770">
        <ele>662</ele>
        <time>2019-09-05T13:29:37Z</time>
      </trkpt>
      <trkpt lat="43.528210" lon="11.355770">
        <ele>662</ele>
        <time>2019-09-05T13:29:39Z</time>
      </trkpt>
      <trkpt lat="43.528280" lon="11.355700">
        <ele>661</ele>
        <time>2019-09-05T13:29:41Z</time>
      </trkpt>
      <trkpt lat="43.528770" lon="11.355380">
        <ele>659</ele>
        <time>2019-09-05T13:29:50Z</time>
      </trkpt>
      <trkpt lat="43.528910" lon="11.355320">
        <ele>659</ele>
        <time>2019-09-05T13:29:53Z</time>
      </trkpt>
      <trkpt lat="43.529050" lon="11.355300">
        <ele>660</ele>
        <time>2019-09-05T13:29:56Z</time>
      </trkpt>
      <trkpt lat="43.529210" lon="11.355320">
        <ele>661</ele>
        <time>2019-09-05T13:29:58Z</time>
      </trkpt>
      <trkpt lat="43.529820" lon="11.355490">
        <ele>662</ele>
        <time>2019-09-05T13:30:09Z</time>
      </trkpt>
      <trkpt lat="43.530210" lon="11.355740">
        <ele>665</ele>
        <time>2019-09-05T13:30:17Z</time>
      </trkpt>
      <trkpt lat="43.530430" lon="11.355840">
        <ele>665</ele>
        <time>2019-09-05T13:30:21Z</time>
      </trkpt>
      <trkpt lat="43.530600" lon="11.355880">
        <ele>664</ele>
        <time>2019-09-05T13:30:24Z</time>
      </trkpt>
      <trkpt lat="43.530760" lon="11.355770">
        <ele>664</ele>
        <time>2019-09-05T13:30:27Z</time>
      </trkpt>
      <trkpt lat="43.530860" lon="11.355650">
        <ele>664</ele>
        <time>2019-09-05T13:30:30Z</time>
      </trkpt>
      <trkpt lat="43.531030" lon="11.355320">
        <ele>663</ele>
        <time>2019-09-05T13:30:35Z</time>
      </trkpt>
      <trkpt lat="43.531280" lon="11.354550">
        <ele>662</ele>
        <time>2019-09-05T13:30:46Z</time>
      </trkpt>
      <trkpt lat="43.531420" lon="11.354030">
        <ele>662</ele>
        <time>2019-09-05T13:30:53Z</time>
      </trkpt>
      <trkpt lat="43.531730" lon="11.351410">
        <ele>666</ele>
        <time>2019-09-05T13:31:27Z</time>
      </trkpt>
      <trkpt lat="43.531770" lon="11.350710">
        <ele>662</ele>
        <time>2019-09-05T13:31:36Z</time>
      </trkpt>
      <trkpt lat="43.531940" lon="11.350340">
        <ele>660</ele>
        <time>2019-09-05T13:31:42Z</time>
      </trkpt>
      <trkpt lat="43.532170" lon="11.350000">
        <ele>660</ele>
        <time>2019-09-05T13:31:48Z</time>
      </trkpt>
      <trkpt lat="43.533910" lon="11.348530">
        <ele>652</ele>
        <time>2019-09-05T13:32:24Z</time>
      </trkpt>
      <trkpt lat="43.534660" lon="11.347940">
        <ele>652</ele>
        <time>2019-09-05T13:32:40Z</time>
      </trkpt>
      <trkpt lat="43.535820" lon="11.346870">
        <ele>646</ele>
        <time>2019-09-05T13:33:05Z</time>
      </trkpt>
      <trkpt lat="43.535960" lon="11.346610">
        <ele>644</ele>
        <time>2019-09-05T13:33:09Z</time>
      </trkpt>
      <trkpt lat="43.536060" lon="11.346260">
        <ele>642</ele>
        <time>2019-09-05T13:33:14Z</time>
      </trkpt>
      <trkpt lat="43.536560" lon="11.344860">
        <ele>637</ele>
        <time>2019-09-05T13:33:34Z</time>
      </trkpt>
      <trkpt lat="43.536930" lon="11.343590">
        <ele>630</ele>
        <time>2019-09-05T13:33:51Z</time>
      </trkpt>
      <trkpt lat="43.536990" lon="11.343280">
        <ele>628</ele>
        <time>2019-09-05T13:33:55Z</time>
      </trkpt>
      <trkpt lat="43.537000" lon="11.342330">
        <ele>618</ele>
        <time>2019-09-05T13:34:08Z</time>
      </trkpt>
      <trkpt lat="43.536980" lon="11.341680">
        <ele>611</ele>
        <time>2019-09-05T13:34:16Z</time>
      </trkpt>
      <trkpt lat="43.536920" lon="11.341400">
        <ele>611</ele>
        <time>2019-09-05T13:34:20Z</time>
      </trkpt>
      <trkpt lat="43.536840" lon="11.341290">
        <ele>610</ele>
        <time>2019-09-05T13:34:22Z</time>
      </trkpt>
      <trkpt lat="43.536550" lon="11.341160">
        <ele>604</ele>
        <time>2019-09-05T13:34:27Z</time>
      </trkpt>
      <trkpt lat="43.536200" lon="11.340870">
        <ele>597</ele>
        <time>2019-09-05T13:34:35Z</time>
      </trkpt>
      <trkpt lat="43.535560" lon="11.340450">
        <ele>586</ele>
        <time>2019-09-05T13:34:47Z</time>
      </trkpt>
      <trkpt lat="43.535350" lon="11.340280">
        <ele>583</ele>
        <time>2019-09-05T13:34:52Z</time>
      </trkpt>
      <trkpt lat="43.535160" lon="11.340060">
        <ele>580</ele>
        <time>2019-09-05T13:34:56Z</time>
      </trkpt>
      <trkpt lat="43.535080" lon="11.339930">
        <ele>579</ele>
        <time>2019-09-05T13:34:58Z</time>
      </trkpt>
      <trkpt lat="43.534720" lon="11.339070">
        <ele>572</ele>
        <time>2019-09-05T13:35:11Z</time>
      </trkpt>
      <trkpt lat="43.534370" lon="11.338370">
        <ele>561</ele>
        <time>2019-09-05T13:35:22Z</time>
      </trkpt>
      <trkpt lat="43.534320" lon="11.338220">
        <ele>559</ele>
        <time>2019-09-05T13:35:24Z</time>
      </trkpt>
      <trkpt lat="43.534330" lon="11.337930">
        <ele>555</ele>
        <time>2019-09-05T13:35:28Z</time>
      </trkpt>
      <trkpt lat="43.534420" lon="11.337790">
        <ele>554</ele>
        <time>2019-09-05T13:35:30Z</time>
      </trkpt>
      <trkpt lat="43.535660" lon="11.336730">
        <ele>545</ele>
        <time>2019-09-05T13:35:56Z</time>
      </trkpt>
      <trkpt lat="43.535720" lon="11.336620">
        <ele>543</ele>
        <time>2019-09-05T13:35:58Z</time>
      </trkpt>
      <trkpt lat="43.535770" lon="11.336200">
        <ele>535</ele>
        <time>2019-09-05T13:36:03Z</time>
      </trkpt>
      <trkpt lat="43.535820" lon="11.336090">
        <ele>534</ele>
        <time>2019-09-05T13:36:05Z</time>
      </trkpt>
      <trkpt lat="43.535940" lon="11.336020">
        <ele>533</ele>
        <time>2019-09-05T13:36:07Z</time>
      </trkpt>
      <trkpt lat="43.536260" lon="11.336100">
        <ele>534</ele>
        <time>2019-09-05T13:36:13Z</time>
      </trkpt>
      <trkpt lat="43.536370" lon="11.336070">
        <ele>534</ele>
        <time>2019-09-05T13:36:15Z</time>
      </trkpt>
      <trkpt lat="43.536830" lon="11.335850">
        <ele>528</ele>
        <time>2019-09-05T13:36:24Z</time>
      </trkpt>
      <trkpt lat="43.537000" lon="11.335700">
        <ele>525</ele>
        <time>2019-09-05T13:36:27Z</time>
      </trkpt>
      <trkpt lat="43.537080" lon="11.335560">
        <ele>523</ele>
        <time>2019-09-05T13:36:30Z</time>
      </trkpt>
      <trkpt lat="43.537180" lon="11.335270">
        <ele>519</ele>
        <time>2019-09-05T13:36:34Z</time>
      </trkpt>
      <trkpt lat="43.537400" lon="11.334260">
        <ele>510</ele>
        <time>2019-09-05T13:36:48Z</time>
      </trkpt>
      <trkpt lat="43.537440" lon="11.333920">
        <ele>509</ele>
        <time>2019-09-05T13:36:52Z</time>
      </trkpt>
      <trkpt lat="43.537410" lon="11.333430">
        <ele>507</ele>
        <time>2019-09-05T13:36:58Z</time>
      </trkpt>
      <trkpt lat="43.537440" lon="11.333140">
        <ele>507</ele>
        <time>2019-09-05T13:37:02Z</time>
      </trkpt>
      <trkpt lat="43.537500" lon="11.332860">
        <ele>509</ele>
        <time>2019-09-05T13:37:06Z</time>
      </trkpt>
      <trkpt lat="43.537640" lon="11.332420">
        <ele>509</ele>
        <time>2019-09-05T13:37:12Z</time>
      </trkpt>
      <trkpt lat="43.538030" lon="11.331750">
        <ele>511</ele>
        <time>2019-09-05T13:37:23Z</time>
      </trkpt>
      <trkpt lat="43.538120" lon="11.331410">
        <ele>513</ele>
        <time>2019-09-05T13:37:28Z</time>
      </trkpt>
      <trkpt lat="43.538130" lon="11.331220">
        <ele>513</ele>
        <time>2019-09-05T13:37:30Z</time>
      </trkpt>
      <trkpt lat="43.538030" lon="11.330130">
        <ele>516</ele>
        <time>2019-09-05T13:37:44Z</time>
      </trkpt>
      <trkpt lat="43.537980" lon="11.329140">
        <ele>518</ele>
        <time>2019-09-05T13:37:57Z</time>
      </trkpt>
      <trkpt lat="43.538040" lon="11.328670">
        <ele>518</ele>
        <time>2019-09-05T13:38:03Z</time>
      </trkpt>
      <trkpt lat="43.538090" lon="11.328520">
        <ele>519</ele>
        <time>2019-09-05T13:38:06Z</time>
      </trkpt>
      <trkpt lat="43.538620" lon="11.327640">
        <ele>517</ele>
        <time>2019-09-05T13:38:20Z</time>
      </trkpt>
      <trkpt lat="43.538790" lon="11.327150">
        <ele>516</ele>
        <time>2019-09-05T13:38:27Z</time>
      </trkpt>
      <trkpt lat="43.538800" lon="11.326810">
        <ele>514</ele>
        <time>2019-09-05T13:38:32Z</time>
      </trkpt>
      <trkpt lat="43.538670" lon="11.326170">
        <ele>509</ele>
        <time>2019-09-05T13:38:40Z</time>
      </trkpt>
      <trkpt lat="43.538650" lon="11.325850">
        <ele>508</ele>
        <time>2019-09-05T13:38:44Z</time>
      </trkpt>
      <trkpt lat="43.538730" lon="11.325400">
        <ele>507</ele>
        <time>2019-09-05T13:38:50Z</time>
      </trkpt>
      <trkpt lat="43.538960" lon="11.324730">
        <ele>505</ele>
        <time>2019-09-05T13:39:00Z</time>
      </trkpt>
      <trkpt lat="43.539200" lon="11.324170">
        <ele>504</ele>
        <time>2019-09-05T13:39:08Z</time>
      </trkpt>
      <trkpt lat="43.539700" lon="11.323160">
        <ele>504</ele>
        <time>2019-09-05T13:39:24Z</time>
      </trkpt>
      <trkpt lat="43.539850" lon="11.322930">
        <ele>507</ele>
        <time>2019-09-05T13:39:28Z</time>
      </trkpt>
      <trkpt lat="43.540120" lon="11.322660">
        <ele>508</ele>
        <time>2019-09-05T13:39:34Z</time>
      </trkpt>
      <trkpt lat="43.540180" lon="11.322540">
        <ele>508</ele>
        <time>2019-09-05T13:39:36Z</time>
      </trkpt>
      <trkpt lat="43.540250" lon="11.322110">
        <ele>508</ele>
        <time>2019-09-05T13:39:42Z</time>
      </trkpt>
      <trkpt lat="43.540350" lon="11.321790">
        <ele>508</ele>
        <time>2019-09-05T13:39:46Z</time>
      </trkpt>
      <trkpt lat="43.540970" lon="11.320500">
        <ele>501</ele>
        <time>2019-09-05T13:40:06Z</time>
      </trkpt>
      <trkpt lat="43.541270" lon="11.320140">
        <ele>497</ele>
        <time>2019-09-05T13:40:13Z</time>
      </trkpt>
      <trkpt lat="43.541400" lon="11.320040">
        <ele>496</ele>
        <time>2019-09-05T13:40:16Z</time>
      </trkpt>
      <trkpt lat="43.542510" lon="11.318910">
        <ele>489</ele>
        <time>2019-09-05T13:40:40Z</time>
      </trkpt>
      <trkpt lat="43.542970" lon="11.318360">
        <ele>488</ele>
        <time>2019-09-05T13:40:51Z</time>
      </trkpt>
      <trkpt lat="43.543800" lon="11.317080">
        <ele>487</ele>
        <time>2019-09-05T13:41:13Z</time>
      </trkpt>
      <trkpt lat="43.543970" lon="11.317000">
        <ele>486</ele>
        <time>2019-09-05T13:41:16Z</time>
      </trkpt>
      <trkpt lat="43.544110" lon="11.316850">
        <ele>485</ele>
        <time>2019-09-05T13:41:20Z</time>
      </trkpt>
      <trkpt lat="43.544370" lon="11.316500">
        <ele>479</ele>
        <time>2019-09-05T13:41:26Z</time>
      </trkpt>
      <trkpt lat="43.544610" lon="11.316110">
        <ele>475</ele>
        <time>2019-09-05T13:41:33Z</time>
      </trkpt>
      <trkpt lat="43.544850" lon="11.316040">
        <ele>475</ele>
        <time>2019-09-05T13:41:37Z</time>
      </trkpt>
      <trkpt lat="43.544910" lon="11.316060">
        <ele>475</ele>
        <time>2019-09-05T13:41:38Z</time>
      </trkpt>
      <trkpt lat="43.545060" lon="11.316180">
        <ele>474</ele>
        <time>2019-09-05T13:41:41Z</time>
      </trkpt>
      <trkpt lat="43.545090" lon="11.316280">
        <ele>473</ele>
        <time>2019-09-05T13:41:43Z</time>
      </trkpt>
      <trkpt lat="43.545090" lon="11.316870">
        <ele>476</ele>
        <time>2019-09-05T13:41:50Z</time>
      </trkpt>
      <trkpt lat="43.545120" lon="11.317160">
        <ele>478</ele>
        <time>2019-09-05T13:41:54Z</time>
      </trkpt>
      <trkpt lat="43.545010" lon="11.317150">
        <ele>480</ele>
        <time>2019-09-05T13:41:56Z</time>
      </trkpt>
      <trkpt lat="43.544960" lon="11.317010">
        <ele>479</ele>
        <time>2019-09-05T13:41:58Z</time>
      </trkpt>
      <trkpt lat="43.544920" lon="11.316560">
        <ele>477</ele>
        <time>2019-09-05T13:42:04Z</time>
      </trkpt>
      <trkpt lat="43.544820" lon="11.316520">
        <ele>478</ele>
        <time>2019-09-05T13:42:06Z</time>
      </trkpt>
      <trkpt lat="43.544950" lon="11.317600">
        <ele>483</ele>
        <time>2019-09-05T13:42:20Z</time>
      </trkpt>
      <trkpt lat="43.544920" lon="11.317650">
        <ele>484</ele>
        <time>2019-09-05T13:42:21Z</time>
      </trkpt>
      <trkpt lat="43.544880" lon="11.317660">
        <ele>485</ele>
        <time>2019-09-05T13:42:21Z</time>
      </trkpt>
      <trkpt lat="43.544840" lon="11.317630">
        <ele>485</ele>
        <time>2019-09-05T13:42:22Z</time>
      </trkpt>
      <trkpt lat="43.544700" lon="11.316620">
        <ele>479</ele>
        <time>2019-09-05T13:42:35Z</time>
      </trkpt>
      <trkpt lat="43.544760" lon="11.316530">
        <ele>478</ele>
        <time>2019-09-05T13:42:37Z</time>
      </trkpt>
      <trkpt lat="43.544820" lon="11.316520">
        <ele>478</ele>
        <time>2019-09-05T13:42:38Z</time>
      </trkpt>
      <trkpt lat="43.544920" lon="11.316560">
        <ele>477</ele>
        <time>2019-09-05T13:42:40Z</time>
      </trkpt>
      <trkpt lat="43.544960" lon="11.317010">
        <ele>479</ele>
        <time>2019-09-05T13:42:46Z</time>
      </trkpt>
      <trkpt lat="43.545010" lon="11.317150">
        <ele>480</ele>
        <time>2019-09-05T13:42:48Z</time>
      </trkpt>
      <trkpt lat="43.545120" lon="11.317160">
        <ele>478</ele>
        <time>2019-09-05T13:42:50Z</time>
      </trkpt>
      <trkpt lat="43.545210" lon="11.317380">
        <ele>478</ele>
        <time>2019-09-05T13:42:53Z</time>
      </trkpt>
      <trkpt lat="43.545360" lon="11.317560">
        <ele>477</ele>
        <time>2019-09-05T13:42:57Z</time>
      </trkpt>
      <trkpt lat="43.545560" lon="11.317670">
        <ele>475</ele>
        <time>2019-09-05T13:43:00Z</time>
      </trkpt>
      <trkpt lat="43.546130" lon="11.317780">
        <ele>467</ele>
        <time>2019-09-05T13:43:11Z</time>
      </trkpt>
      <trkpt lat="43.546280" lon="11.317840">
        <ele>465</ele>
        <time>2019-09-05T13:43:13Z</time>
      </trkpt>
      <trkpt lat="43.546380" lon="11.317920">
        <ele>463</ele>
        <time>2019-09-05T13:43:15Z</time>
      </trkpt>
      <trkpt lat="43.546450" lon="11.318040">
        <ele>463</ele>
        <time>2019-09-05T13:43:17Z</time>
      </trkpt>
      <trkpt lat="43.546490" lon="11.318240">
        <ele>463</ele>
        <time>2019-09-05T13:43:20Z</time>
      </trkpt>
      <trkpt lat="43.546480" lon="11.318730">
        <ele>465</ele>
        <time>2019-09-05T13:43:26Z</time>
      </trkpt>
      <trkpt lat="43.546510" lon="11.318960">
        <ele>465</ele>
        <time>2019-09-05T13:43:29Z</time>
      </trkpt>
      <trkpt lat="43.546600" lon="11.319170">
        <ele>463</ele>
        <time>2019-09-05T13:43:33Z</time>
      </trkpt>
      <trkpt lat="43.546700" lon="11.319350">
        <ele>463</ele>
        <time>2019-09-05T13:43:36Z</time>
      </trkpt>
      <trkpt lat="43.547450" lon="11.320040">
        <ele>455</ele>
        <time>2019-09-05T13:43:52Z</time>
      </trkpt>
      <trkpt lat="43.547570" lon="11.320230">
        <ele>452</ele>
        <time>2019-09-05T13:43:55Z</time>
      </trkpt>
      <trkpt lat="43.547610" lon="11.320400">
        <ele>450</ele>
        <time>2019-09-05T13:43:57Z</time>
      </trkpt>
      <trkpt lat="43.548800" lon="11.320190">
        <ele>434</ele>
        <time>2019-09-05T13:44:18Z</time>
      </trkpt>
      <trkpt lat="43.548920" lon="11.320220">
        <ele>432</ele>
        <time>2019-09-05T13:44:21Z</time>
      </trkpt>
      <trkpt lat="43.550090" lon="11.320750">
        <ele>420</ele>
        <time>2019-09-05T13:44:43Z</time>
      </trkpt>
      <trkpt lat="43.551220" lon="11.321570">
        <ele>421</ele>
        <time>2019-09-05T13:45:05Z</time>
      </trkpt>
      <trkpt lat="43.551420" lon="11.321690">
        <ele>422</ele>
        <time>2019-09-05T13:45:09Z</time>
      </trkpt>
      <trkpt lat="43.551890" lon="11.321910">
        <ele>421</ele>
        <time>2019-09-05T13:45:18Z</time>
      </trkpt>
      <trkpt lat="43.552510" lon="11.322010">
        <ele>419</ele>
        <time>2019-09-05T13:45:29Z</time>
      </trkpt>
      <trkpt lat="43.552970" lon="11.321930">
        <ele>415</ele>
        <time>2019-09-05T13:45:37Z</time>
      </trkpt>
      <trkpt lat="43.554330" lon="11.322040">
        <ele>405</ele>
        <time>2019-09-05T13:46:02Z</time>
      </trkpt>
      <trkpt lat="43.554730" lon="11.322370">
        <ele>400</ele>
        <time>2019-09-05T13:46:10Z</time>
      </trkpt>
      <trkpt lat="43.554960" lon="11.322460">
        <ele>397</ele>
        <time>2019-09-05T13:46:14Z</time>
      </trkpt>
      <trkpt lat="43.555190" lon="11.322460">
        <ele>393</ele>
        <time>2019-09-05T13:46:18Z</time>
      </trkpt>
      <trkpt lat="43.555270" lon="11.322450">
        <ele>392</ele>
        <time>2019-09-05T13:46:20Z</time>
      </trkpt>
      <trkpt lat="43.555390" lon="11.322370">
        <ele>389</ele>
        <time>2019-09-05T13:46:22Z</time>
      </trkpt>
      <trkpt lat="43.555450" lon="11.322290">
        <ele>388</ele>
        <time>2019-09-05T13:46:24Z</time>
      </trkpt>
      <trkpt lat="43.555570" lon="11.321900">
        <ele>387</ele>
        <time>2019-09-05T13:46:29Z</time>
      </trkpt>
      <trkpt lat="43.555670" lon="11.321780">
        <ele>385</ele>
        <time>2019-09-05T13:46:31Z</time>
      </trkpt>
      <trkpt lat="43.556230" lon="11.321760">
        <ele>374</ele>
        <time>2019-09-05T13:46:41Z</time>
      </trkpt>
      <trkpt lat="43.557660" lon="11.321990">
        <ele>358</ele>
        <time>2019-09-05T13:47:07Z</time>
      </trkpt>
      <trkpt lat="43.559060" lon="11.321800">
        <ele>345</ele>
        <time>2019-09-05T13:47:32Z</time>
      </trkpt>
      <trkpt lat="43.559160" lon="11.321660">
        <ele>345</ele>
        <time>2019-09-05T13:47:34Z</time>
      </trkpt>
      <trkpt lat="43.559920" lon="11.321650">
        <ele>343</ele>
        <time>2019-09-05T13:47:48Z</time>
      </trkpt>
      <trkpt lat="43.560040" lon="11.321770">
        <ele>342</ele>
        <time>2019-09-05T13:47:51Z</time>
      </trkpt>
      <trkpt lat="43.560300" lon="11.321900">
        <ele>340</ele>
        <time>2019-09-05T13:47:56Z</time>
      </trkpt>
      <trkpt lat="43.561940" lon="11.322610">
        <ele>331</ele>
        <time>2019-09-05T13:48:26Z</time>
      </trkpt>
      <trkpt lat="43.562510" lon="11.322690">
        <ele>324</ele>
        <time>2019-09-05T13:48:36Z</time>
      </trkpt>
      <trkpt lat="43.563000" lon="11.322720">
        <ele>319</ele>
        <time>2019-09-05T13:48:45Z</time>
      </trkpt>
      <trkpt lat="43.563670" lon="11.322700">
        <ele>311</ele>
        <time>2019-09-05T13:48:57Z</time>
      </trkpt>
      <trkpt lat="43.564520" lon="11.322590">
        <ele>300</ele>
        <time>2019-09-05T13:49:12Z</time>
      </trkpt>
      <trkpt lat="43.564700" lon="11.322590">
        <ele>298</ele>
        <time>2019-09-05T13:49:15Z</time>
      </trkpt>
      <trkpt lat="43.564850" lon="11.322640">
        <ele>295</ele>
        <time>2019-09-05T13:49:18Z</time>
      </trkpt>
      <trkpt lat="43.564910" lon="11.322700">
        <ele>294</ele>
        <time>2019-09-05T13:49:19Z</time>
      </trkpt>
      <trkpt lat="43.565090" lon="11.322580">
        <ele>293</ele>
        <time>2019-09-05T13:49:23Z</time>
      </trkpt>
      <trkpt lat="43.565570" lon="11.322520">
        <ele>288</ele>
        <time>2019-09-05T13:49:32Z</time>
      </trkpt>
      <trkpt lat="43.566270" lon="11.322350">
        <ele>287</ele>
        <time>2019-09-05T13:49:44Z</time>
      </trkpt>
      <trkpt lat="43.566410" lon="11.322350">
        <ele>287</ele>
        <time>2019-09-05T13:49:47Z</time>
      </trkpt>
      <trkpt lat="43.566770" lon="11.322420">
        <ele>285</ele>
        <time>2019-09-05T13:49:53Z</time>
      </trkpt>
      <trkpt lat="43.566980" lon="11.322510">
        <ele>283</ele>
        <time>2019-09-05T13:49:57Z</time>
      </trkpt>
      <trkpt lat="43.567220" lon="11.322680">
        <ele>279</ele>
        <time>2019-09-05T13:50:02Z</time>
      </trkpt>
      <trkpt lat="43.567430" lon="11.322740">
        <ele>278</ele>
        <time>2019-09-05T13:50:06Z</time>
      </trkpt>
      <trkpt lat="43.567660" lon="11.322720">
        <ele>278</ele>
        <time>2019-09-05T13:50:10Z</time>
      </trkpt>
      <trkpt lat="43.568490" lon="11.322540">
        <ele>274</ele>
        <time>2019-09-05T13:50:25Z</time>
      </trkpt>
      <trkpt lat="43.568630" lon="11.322470">
        <ele>271</ele>
        <time>2019-09-05T13:50:27Z</time>
      </trkpt>
      <trkpt lat="43.568790" lon="11.322290">
        <ele>269</ele>
        <time>2019-09-05T13:50:31Z</time>
      </trkpt>
      <trkpt lat="43.569060" lon="11.321810">
        <ele>266</ele>
        <time>2019-09-05T13:50:39Z</time>
      </trkpt>
      <trkpt lat="43.569180" lon="11.321430">
        <ele>264</ele>
        <time>2019-09-05T13:50:44Z</time>
      </trkpt>
      <trkpt lat="43.569220" lon="11.321050">
        <ele>265</ele>
        <time>2019-09-05T13:50:49Z</time>
      </trkpt>
      <trkpt lat="43.569300" lon="11.320710">
        <ele>265</ele>
        <time>2019-09-05T13:50:54Z</time>
      </trkpt>
      <trkpt lat="43.569410" lon="11.320600">
        <ele>263</ele>
        <time>2019-09-05T13:50:56Z</time>
      </trkpt>
      <trkpt lat="43.570640" lon="11.320220">
        <ele>256</ele>
        <time>2019-09-05T13:51:19Z</time>
      </trkpt>
      <trkpt lat="43.571880" lon="11.319600">
        <ele>256</ele>
        <time>2019-09-05T13:51:42Z</time>
      </trkpt>
      <trkpt lat="43.572840" lon="11.319050">
        <ele>258</ele>
        <time>2019-09-05T13:52:01Z</time>
      </trkpt>
      <trkpt lat="43.574520" lon="11.318230">
        <ele>254</ele>
        <time>2019-09-05T13:52:32Z</time>
      </trkpt>
      <trkpt lat="43.575690" lon="11.317690">
        <ele>245</ele>
        <time>2019-09-05T13:52:54Z</time>
      </trkpt>
      <trkpt lat="43.577090" lon="11.316940">
        <ele>245</ele>
        <time>2019-09-05T13:53:21Z</time>
      </trkpt>
      <trkpt lat="43.578220" lon="11.316570">
        <ele>242</ele>
        <time>2019-09-05T13:53:42Z</time>
      </trkpt>
      <trkpt lat="43.578540" lon="11.316530">
        <ele>242</ele>
        <time>2019-09-05T13:53:47Z</time>
      </trkpt>
      <trkpt lat="43.578760" lon="11.316560">
        <ele>241</ele>
        <time>2019-09-05T13:53:51Z</time>
      </trkpt>
      <trkpt lat="43.579250" lon="11.316760">
        <ele>239</ele>
        <time>2019-09-05T13:54:00Z</time>
      </trkpt>
      <trkpt lat="43.579330" lon="11.316350">
        <ele>244</ele>
        <time>2019-09-05T13:54:06Z</time>
      </trkpt>
      <trkpt lat="43.580400" lon="11.316250">
        <ele>250</ele>
        <time>2019-09-05T13:54:25Z</time>
      </trkpt>
      <trkpt lat="43.580580" lon="11.316270">
        <ele>251</ele>
        <time>2019-09-05T13:54:28Z</time>
      </trkpt>
      <trkpt lat="43.581480" lon="11.316650">
        <ele>245</ele>
        <time>2019-09-05T13:54:45Z</time>
      </trkpt>
      <trkpt lat="43.581550" lon="11.316650">
        <ele>245</ele>
        <time>2019-09-05T13:54:46Z</time>
      </trkpt>
      <trkpt lat="43.582210" lon="11.315820">
        <ele>243</ele>
        <time>2019-09-05T13:55:02Z</time>
      </trkpt>
      <trkpt lat="43.582460" lon="11.316010">
        <ele>238</ele>
        <time>2019-09-05T13:55:07Z</time>
      </trkpt>
      <trkpt lat="43.582470" lon="11.316080">
        <ele>238</ele>
        <time>2019-09-05T13:55:08Z</time>
      </trkpt>
      <trkpt lat="43.582440" lon="11.316140">
        <ele>238</ele>
        <time>2019-09-05T13:55:09Z</time>
      </trkpt>
      <trkpt lat="43.582730" lon="11.316620">
        <ele>236</ele>
        <time>2019-09-05T13:55:17Z</time>
      </trkpt>
      <trkpt lat="43.583010" lon="11.316330">
        <ele>236</ele>
        <time>2019-09-05T13:55:23Z</time>
      </trkpt>
      <trkpt lat="43.583470" lon="11.315970">
        <ele>236</ele>
        <time>2019-09-05T13:55:33Z</time>
      </trkpt>
      <trkpt lat="43.584100" lon="11.315420">
        <ele>235</ele>
        <time>2019-09-05T13:55:46Z</time>
      </trkpt>
      <trkpt lat="43.584170" lon="11.315450">
        <ele>234</ele>
        <time>2019-09-05T13:55:47Z</time>
      </trkpt>
      <trkpt lat="43.584210" lon="11.315580">
        <ele>233</ele>
        <time>2019-09-05T12:20:01Z</time>
      </trkpt>
      <trkpt lat="43.584170" lon="11.315450">
        <ele>234</ele>
        <time>2019-09-05T12:20:03Z</time>
      </trkpt>
      <trkpt lat="43.584160" lon="11.315650">
        <ele>233</ele>
        <time>2019-09-05T12:20:05Z</time>
      </trkpt>
      <trkpt lat="43.584180" lon="11.315730">
        <ele>232</ele>
        <time>2019-09-05T12:20:06Z</time>
      </trkpt>
      <trkpt lat="43.584280" lon="11.315650">
        <ele>232</ele>
        <time>2019-09-05T12:20:09Z</time>
      </trkpt>
      <trkpt lat="43.584880" lon="11.315400">
        <ele>230</ele>
        <time>2019-09-05T12:20:20Z</time>
      </trkpt>
      <trkpt lat="43.586240" lon="11.315130">
        <ele>229</ele>
        <time>2019-09-05T12:20:44Z</time>
      </trkpt>
      <trkpt lat="43.586330" lon="11.315820">
        <ele>232</ele>
        <time>2019-09-05T12:20:53Z</time>
      </trkpt>
      <trkpt lat="43.587480" lon="11.315600">
        <ele>232</ele>
        <time>2019-09-05T12:21:14Z</time>
      </trkpt>
      <trkpt lat="43.588340" lon="11.315460">
        <ele>230</ele>
        <time>2019-09-05T12:21:29Z</time>
      </trkpt>
      <trkpt lat="43.588470" lon="11.315100">
        <ele>227</ele>
        <time>2019-09-05T12:21:34Z</time>
      </trkpt>
      <trkpt lat="43.588560" lon="11.314890">
        <ele>227</ele>
        <time>2019-09-05T12:21:38Z</time>
      </trkpt>
      <trkpt lat="43.588720" lon="11.314680">
        <ele>226</ele>
        <time>2019-09-05T12:21:42Z</time>
      </trkpt>
      <trkpt lat="43.589650" lon="11.314490">
        <ele>225</ele>
        <time>2019-09-05T12:21:58Z</time>
      </trkpt>
      <trkpt lat="43.590450" lon="11.314390">
        <ele>224</ele>
        <time>2019-09-05T12:22:13Z</time>
      </trkpt>
      <trkpt lat="43.590730" lon="11.314410">
        <ele>224</ele>
        <time>2019-09-05T12:22:18Z</time>
      </trkpt>
      <trkpt lat="43.591010" lon="11.314510">
        <ele>224</ele>
        <time>2019-09-05T12:22:23Z</time>
      </trkpt>
      <trkpt lat="43.591320" lon="11.314640">
        <ele>223</ele>
        <time>2019-09-05T12:22:28Z</time>
      </trkpt>
      <trkpt lat="43.592010" lon="11.315090">
        <ele>222</ele>
        <time>2019-09-05T12:22:42Z</time>
      </trkpt>
      <trkpt lat="43.592240" lon="11.315270">
        <ele>223</ele>
        <time>2019-09-05T12:22:47Z</time>
      </trkpt>
      <trkpt lat="43.592700" lon="11.315550">
        <ele>224</ele>
        <time>2019-09-05T12:22:56Z</time>
      </trkpt>
      <trkpt lat="43.593260" lon="11.315780">
        <ele>224</ele>
        <time>2019-09-05T12:23:06Z</time>
      </trkpt>
      <trkpt lat="43.594530" lon="11.316630">
        <ele>226</ele>
        <time>2019-09-05T12:23:31Z</time>
      </trkpt>
      <trkpt lat="43.594650" lon="11.316660">
        <ele>225</ele>
        <time>2019-09-05T12:23:33Z</time>
      </trkpt>
      <trkpt lat="43.594760" lon="11.316670">
        <ele>224</ele>
        <time>2019-09-05T12:23:35Z</time>
      </trkpt>
      <trkpt lat="43.595090" lon="11.316630">
        <ele>221</ele>
        <time>2019-09-05T12:23:41Z</time>
      </trkpt>
      <trkpt lat="43.595490" lon="11.316650">
        <ele>220</ele>
        <time>2019-09-05T12:23:48Z</time>
      </trkpt>
      <trkpt lat="43.595870" lon="11.316750">
        <ele>219</ele>
        <time>2019-09-05T12:23:55Z</time>
      </trkpt>
      <trkpt lat="43.596190" lon="11.316870">
        <ele>220</ele>
        <time>2019-09-05T12:24:01Z</time>
      </trkpt>
      <trkpt lat="43.596420" lon="11.316930">
        <ele>221</ele>
        <time>2019-09-05T12:24:05Z</time>
      </trkpt>
      <trkpt lat="43.596680" lon="11.316910">
        <ele>221</ele>
        <time>2019-09-05T12:24:10Z</time>
      </trkpt>
      <trkpt lat="43.596820" lon="11.316870">
        <ele>221</ele>
        <time>2019-09-05T12:24:12Z</time>
      </trkpt>
      <trkpt lat="43.597540" lon="11.316460">
        <ele>219</ele>
        <time>2019-09-05T12:24:26Z</time>
      </trkpt>
      <trkpt lat="43.597810" lon="11.316260">
        <ele>220</ele>
        <time>2019-09-05T12:24:32Z</time>
      </trkpt>
      <trkpt lat="43.598040" lon="11.316000">
        <ele>220</ele>
        <time>2019-09-05T12:24:37Z</time>
      </trkpt>
      <trkpt lat="43.600700" lon="11.311140">
        <ele>216</ele>
        <time>2019-09-05T12:25:56Z</time>
      </trkpt>
      <trkpt lat="43.600940" lon="11.310830">
        <ele>216</ele>
        <time>2019-09-05T12:26:01Z</time>
      </trkpt>
      <trkpt lat="43.601230" lon="11.310640">
        <ele>217</ele>
        <time>2019-09-05T12:26:07Z</time>
      </trkpt>
      <trkpt lat="43.602820" lon="11.309750">
        <ele>214</ele>
        <time>2019-09-05T12:26:38Z</time>
      </trkpt>
      <trkpt lat="43.603730" lon="11.309220">
        <ele>215</ele>
        <time>2019-09-05T12:26:55Z</time>
      </trkpt>
      <trkpt lat="43.603900" lon="11.308980">
        <ele>215</ele>
        <time>2019-09-05T12:27:00Z</time>
      </trkpt>
      <trkpt lat="43.604050" lon="11.308660">
        <ele>215</ele>
        <time>2019-09-05T12:27:04Z</time>
      </trkpt>
      <trkpt lat="43.604130" lon="11.308430">
        <ele>216</ele>
        <time>2019-09-05T12:27:08Z</time>
      </trkpt>
      <trkpt lat="43.604210" lon="11.308360">
        <ele>216</ele>
        <time>2019-09-05T12:27:09Z</time>
      </trkpt>
      <trkpt lat="43.604240" lon="11.308250">
        <ele>217</ele>
        <time>2019-09-05T12:27:11Z</time>
      </trkpt>
      <trkpt lat="43.604260" lon="11.308010">
        <ele>216</ele>
        <time>2019-09-05T12:27:14Z</time>
      </trkpt>
      <trkpt lat="43.604290" lon="11.307900">
        <ele>216</ele>
        <time>2019-09-05T12:27:16Z</time>
      </trkpt>
      <trkpt lat="43.604260" lon="11.307860">
        <ele>216</ele>
        <time>2019-09-05T12:27:16Z</time>
      </trkpt>
      <trkpt lat="43.604220" lon="11.307670">
        <ele>215</ele>
        <time>2019-09-05T12:27:19Z</time>
      </trkpt>
      <trkpt lat="43.604220" lon="11.307460">
        <ele>214</ele>
        <time>2019-09-05T12:27:22Z</time>
      </trkpt>
      <trkpt lat="43.604160" lon="11.307250">
        <ele>212</ele>
        <time>2019-09-05T12:27:24Z</time>
      </trkpt>
      <trkpt lat="43.604170" lon="11.307040">
        <ele>211</ele>
        <time>2019-09-05T12:27:27Z</time>
      </trkpt>
      <trkpt lat="43.604230" lon="11.306800">
        <ele>210</ele>
        <time>2019-09-05T12:27:30Z</time>
      </trkpt>
      <trkpt lat="43.604360" lon="11.306620">
        <ele>210</ele>
        <time>2019-09-05T12:27:34Z</time>
      </trkpt>
      <trkpt lat="43.604640" lon="11.306350">
        <ele>211</ele>
        <time>2019-09-05T12:27:40Z</time>
      </trkpt>
      <trkpt lat="43.606630" lon="11.304670">
        <ele>213</ele>
        <time>2019-09-05T12:28:21Z</time>
      </trkpt>
      <trkpt lat="43.606740" lon="11.304560">
        <ele>213</ele>
        <time>2019-09-05T12:28:24Z</time>
      </trkpt>
      <trkpt lat="43.606830" lon="11.304420">
        <ele>213</ele>
        <time>2019-09-05T12:28:26Z</time>
      </trkpt>
      <trkpt lat="43.607800" lon="11.302530">
        <ele>208</ele>
        <time>2019-09-05T12:28:56Z</time>
      </trkpt>
      <trkpt lat="43.607870" lon="11.302290">
        <ele>209</ele>
        <time>2019-09-05T12:28:59Z</time>
      </trkpt>
      <trkpt lat="43.607930" lon="11.301660">
        <ele>210</ele>
        <time>2019-09-05T12:29:07Z</time>
      </trkpt>
      <trkpt lat="43.607980" lon="11.301380">
        <ele>209</ele>
        <time>2019-09-05T12:29:11Z</time>
      </trkpt>
      <trkpt lat="43.608080" lon="11.301030">
        <ele>208</ele>
        <time>2019-09-05T12:29:16Z</time>
      </trkpt>
      <trkpt lat="43.608390" lon="11.300370">
        <ele>205</ele>
        <time>2019-09-05T12:29:26Z</time>
      </trkpt>
      <trkpt lat="43.608660" lon="11.299870">
        <ele>204</ele>
        <time>2019-09-05T12:29:34Z</time>
      </trkpt>
      <trkpt lat="43.608760" lon="11.299760">
        <ele>205</ele>
        <time>2019-09-05T12:29:36Z</time>
      </trkpt>
      <trkpt lat="43.608850" lon="11.299720">
        <ele>206</ele>
        <time>2019-09-05T12:29:38Z</time>
      </trkpt>
      <trkpt lat="43.609000" lon="11.299700">
        <ele>208</ele>
        <time>2019-09-05T12:29:41Z</time>
      </trkpt>
      <trkpt lat="43.609640" lon="11.299930">
        <ele>210</ele>
        <time>2019-09-05T12:29:53Z</time>
      </trkpt>
      <trkpt lat="43.609890" lon="11.299920">
        <ele>211</ele>
        <time>2019-09-05T12:29:57Z</time>
      </trkpt>
      <trkpt lat="43.610090" lon="11.299830">
        <ele>214</ele>
        <time>2019-09-05T12:30:01Z</time>
      </trkpt>
      <trkpt lat="43.610770" lon="11.299410">
        <ele>219</ele>
        <time>2019-09-05T12:30:14Z</time>
      </trkpt>
      <trkpt lat="43.610870" lon="11.299380">
        <ele>220</ele>
        <time>2019-09-05T12:30:16Z</time>
      </trkpt>
      <trkpt lat="43.610970" lon="11.299380">
        <ele>220</ele>
        <time>2019-09-05T12:30:18Z</time>
      </trkpt>
      <trkpt lat="43.611060" lon="11.299410">
        <ele>220</ele>
        <time>2019-09-05T12:30:19Z</time>
      </trkpt>
      <trkpt lat="43.611310" lon="11.299550">
        <ele>220</ele>
        <time>2019-09-05T12:30:24Z</time>
      </trkpt>
      <trkpt lat="43.611400" lon="11.299560">
        <ele>220</ele>
        <time>2019-09-05T12:30:26Z</time>
      </trkpt>
      <trkpt lat="43.611600" lon="11.299470">
        <ele>223</ele>
        <time>2019-09-05T12:30:29Z</time>
      </trkpt>
      <trkpt lat="43.611850" lon="11.299270">
        <ele>226</ele>
        <time>2019-09-05T12:30:35Z</time>
      </trkpt>
      <trkpt lat="43.611950" lon="11.299240">
        <ele>227</ele>
        <time>2019-09-05T12:30:36Z</time>
      </trkpt>
      <trkpt lat="43.612050" lon="11.299240">
        <ele>227</ele>
        <time>2019-09-05T12:30:38Z</time>
      </trkpt>
      <trkpt lat="43.612290" lon="11.299330">
        <ele>227</ele>
        <time>2019-09-05T12:30:43Z</time>
      </trkpt>
      <trkpt lat="43.612970" lon="11.299670">
        <ele>229</ele>
        <time>2019-09-05T12:30:55Z</time>
      </trkpt>
      <trkpt lat="43.614130" lon="11.300310">
        <ele>234</ele>
        <time>2019-09-05T12:31:18Z</time>
      </trkpt>
      <trkpt lat="43.614230" lon="11.300310">
        <ele>235</ele>
        <time>2019-09-05T12:31:19Z</time>
      </trkpt>
      <trkpt lat="43.614290" lon="11.300270">
        <ele>236</ele>
        <time>2019-09-05T12:31:21Z</time>
      </trkpt>
      <trkpt lat="43.614330" lon="11.300190">
        <ele>238</ele>
        <time>2019-09-05T12:31:22Z</time>
      </trkpt>
      <trkpt lat="43.614340" lon="11.300120">
        <ele>239</ele>
        <time>2019-09-05T12:31:23Z</time>
      </trkpt>
      <trkpt lat="43.614310" lon="11.299960">
        <ele>240</ele>
        <time>2019-09-05T12:31:25Z</time>
      </trkpt>
      <trkpt lat="43.614220" lon="11.299860">
        <ele>240</ele>
        <time>2019-09-05T12:31:27Z</time>
      </trkpt>
      <trkpt lat="43.613750" lon="11.299540">
        <ele>239</ele>
        <time>2019-09-05T12:31:36Z</time>
      </trkpt>
      <trkpt lat="43.613610" lon="11.299410">
        <ele>239</ele>
        <time>2019-09-05T12:31:39Z</time>
      </trkpt>
      <trkpt lat="43.613540" lon="11.299300">
        <ele>240</ele>
        <time>2019-09-05T12:31:41Z</time>
      </trkpt>
      <trkpt lat="43.613080" lon="11.298440">
        <ele>244</ele>
        <time>2019-09-05T12:31:55Z</time>
      </trkpt>
      <trkpt lat="43.613050" lon="11.298290">
        <ele>245</ele>
        <time>2019-09-05T12:31:57Z</time>
      </trkpt>
      <trkpt lat="43.613030" lon="11.298160">
        <ele>245</ele>
        <time>2019-09-05T12:31:59Z</time>
      </trkpt>
      <trkpt lat="43.613050" lon="11.298040">
        <ele>245</ele>
        <time>2019-09-05T12:32:00Z</time>
      </trkpt>
      <trkpt lat="43.613100" lon="11.297930">
        <ele>244</ele>
        <time>2019-09-05T12:32:02Z</time>
      </trkpt>
      <trkpt lat="43.613150" lon="11.297840">
        <ele>244</ele>
        <time>2019-09-05T12:32:03Z</time>
      </trkpt>
      <trkpt lat="43.613250" lon="11.297770">
        <ele>243</ele>
        <time>2019-09-05T12:32:05Z</time>
      </trkpt>
      <trkpt lat="43.613320" lon="11.297750">
        <ele>243</ele>
        <time>2019-09-05T12:32:07Z</time>
      </trkpt>
      <trkpt lat="43.613420" lon="11.297750">
        <ele>243</ele>
        <time>2019-09-05T12:32:08Z</time>
      </trkpt>
      <trkpt lat="43.613500" lon="11.297790">
        <ele>242</ele>
        <time>2019-09-05T12:32:10Z</time>
      </trkpt>
      <trkpt lat="43.613570" lon="11.297870">
        <ele>243</ele>
        <time>2019-09-05T12:32:12Z</time>
      </trkpt>
      <trkpt lat="43.613870" lon="11.298360">
        <ele>247</ele>
        <time>2019-09-05T12:32:20Z</time>
      </trkpt>
      <trkpt lat="43.614070" lon="11.298640">
        <ele>247</ele>
        <time>2019-09-05T12:32:25Z</time>
      </trkpt>
      <trkpt lat="43.614170" lon="11.298750">
        <ele>248</ele>
        <time>2019-09-05T12:32:27Z</time>
      </trkpt>
      <trkpt lat="43.614330" lon="11.298850">
        <ele>248</ele>
        <time>2019-09-05T12:32:30Z</time>
      </trkpt>
      <trkpt lat="43.615480" lon="11.299390">
        <ele>255</ele>
        <time>2019-09-05T12:32:52Z</time>
      </trkpt>
      <trkpt lat="43.616590" lon="11.299740">
        <ele>263</ele>
        <time>2019-09-05T12:33:12Z</time>
      </trkpt>
      <trkpt lat="43.616760" lon="11.299830">
        <ele>263</ele>
        <time>2019-09-05T12:33:15Z</time>
      </trkpt>
      <trkpt lat="43.617570" lon="11.300660">
        <ele>265</ele>
        <time>2019-09-05T12:33:33Z</time>
      </trkpt>
      <trkpt lat="43.617830" lon="11.300950">
        <ele>265</ele>
        <time>2019-09-05T12:33:39Z</time>
      </trkpt>
      <trkpt lat="43.618000" lon="11.301170">
        <ele>264</ele>
        <time>2019-09-05T12:33:44Z</time>
      </trkpt>
      <trkpt lat="43.618590" lon="11.302060">
        <ele>264</ele>
        <time>2019-09-05T12:33:59Z</time>
      </trkpt>
      <trkpt lat="43.618830" lon="11.302400">
        <ele>265</ele>
        <time>2019-09-05T12:34:05Z</time>
      </trkpt>
      <trkpt lat="43.618990" lon="11.302570">
        <ele>266</ele>
        <time>2019-09-05T12:34:09Z</time>
      </trkpt>
      <trkpt lat="43.619240" lon="11.302710">
        <ele>267</ele>
        <time>2019-09-05T12:34:14Z</time>
      </trkpt>
      <trkpt lat="43.619890" lon="11.303050">
        <ele>272</ele>
        <time>2019-09-05T12:34:26Z</time>
      </trkpt>
      <trkpt lat="43.620880" lon="11.303940">
        <ele>281</ele>
        <time>2019-09-05T12:34:47Z</time>
      </trkpt>
      <trkpt lat="43.621600" lon="11.304520">
        <ele>288</ele>
        <time>2019-09-05T12:35:02Z</time>
      </trkpt>
      <trkpt lat="43.621750" lon="11.304680">
        <ele>288</ele>
        <time>2019-09-05T12:35:05Z</time>
      </trkpt>
      <trkpt lat="43.621800" lon="11.304780">
        <ele>288</ele>
        <time>2019-09-05T12:35:07Z</time>
      </trkpt>
      <trkpt lat="43.621850" lon="11.304930">
        <ele>288</ele>
        <time>2019-09-05T12:35:09Z</time>
      </trkpt>
      <trkpt lat="43.622220" lon="11.306200">
        <ele>286</ele>
        <time>2019-09-05T12:35:26Z</time>
      </trkpt>
      <trkpt lat="43.622310" lon="11.306420">
        <ele>286</ele>
        <time>2019-09-05T12:35:30Z</time>
      </trkpt>
      <trkpt lat="43.622820" lon="11.307620">
        <ele>285</ele>
        <time>2019-09-05T12:35:48Z</time>
      </trkpt>
      <trkpt lat="43.622920" lon="11.307760">
        <ele>285</ele>
        <time>2019-09-05T12:35:50Z</time>
      </trkpt>
      <trkpt lat="43.623610" lon="11.308540">
        <ele>291</ele>
        <time>2019-09-05T12:36:06Z</time>
      </trkpt>
      <trkpt lat="43.623750" lon="11.308640">
        <ele>292</ele>
        <time>2019-09-05T12:36:09Z</time>
      </trkpt>
      <trkpt lat="43.623920" lon="11.308730">
        <ele>293</ele>
        <time>2019-09-05T12:36:12Z</time>
      </trkpt>
      <trkpt lat="43.625080" lon="11.309190">
        <ele>308</ele>
        <time>2019-09-05T12:36:34Z</time>
      </trkpt>
      <trkpt lat="43.625970" lon="11.309470">
        <ele>316</ele>
        <time>2019-09-05T12:36:50Z</time>
      </trkpt>
      <trkpt lat="43.626620" lon="11.309780">
        <ele>321</ele>
        <time>2019-09-05T12:37:02Z</time>
      </trkpt>
      <trkpt lat="43.626930" lon="11.309880">
        <ele>324</ele>
        <time>2019-09-05T12:37:08Z</time>
      </trkpt>
      <trkpt lat="43.627040" lon="11.309940">
        <ele>325</ele>
        <time>2019-09-05T12:37:10Z</time>
      </trkpt>
      <trkpt lat="43.627130" lon="11.309990">
        <ele>326</ele>
        <time>2019-09-05T12:37:12Z</time>
      </trkpt>
      <trkpt lat="43.627210" lon="11.310090">
        <ele>326</ele>
        <time>2019-09-05T12:37:13Z</time>
      </trkpt>
      <trkpt lat="43.627530" lon="11.310710">
        <ele>331</ele>
        <time>2019-09-05T12:37:23Z</time>
      </trkpt>
      <trkpt lat="43.627700" lon="11.310950">
        <ele>333</ele>
        <time>2019-09-05T12:37:28Z</time>
      </trkpt>
      <trkpt lat="43.627830" lon="11.311110">
        <ele>336</ele>
        <time>2019-09-05T12:37:31Z</time>
      </trkpt>
      <trkpt lat="43.628250" lon="11.311410">
        <ele>342</ele>
        <time>2019-09-05T12:37:39Z</time>
      </trkpt>
      <trkpt lat="43.629250" lon="11.311590">
        <ele>337</ele>
        <time>2019-09-05T12:37:57Z</time>
      </trkpt>
      <trkpt lat="43.629390" lon="11.311650">
        <ele>335</ele>
        <time>2019-09-05T12:38:00Z</time>
      </trkpt>
      <trkpt lat="43.629790" lon="11.312020">
        <ele>330</ele>
        <time>2019-09-05T12:38:08Z</time>
      </trkpt>
      <trkpt lat="43.630970" lon="11.312620">
        <ele>320</ele>
        <time>2019-09-05T12:38:31Z</time>
      </trkpt>
      <trkpt lat="43.631180" lon="11.312800">
        <ele>318</ele>
        <time>2019-09-05T12:38:35Z</time>
      </trkpt>
      <trkpt lat="43.631340" lon="11.313020">
        <ele>318</ele>
        <time>2019-09-05T12:38:39Z</time>
      </trkpt>
      <trkpt lat="43.631530" lon="11.313120">
        <ele>316</ele>
        <time>2019-09-05T12:38:43Z</time>
      </trkpt>
      <trkpt lat="43.631890" lon="11.313260">
        <ele>313</ele>
        <time>2019-09-05T12:38:49Z</time>
      </trkpt>
      <trkpt lat="43.632270" lon="11.313470">
        <ele>312</ele>
        <time>2019-09-05T12:38:57Z</time>
      </trkpt>
      <trkpt lat="43.632670" lon="11.313770">
        <ele>312</ele>
        <time>2019-09-05T12:39:05Z</time>
      </trkpt>
      <trkpt lat="43.632820" lon="11.313840">
        <ele>312</ele>
        <time>2019-09-05T12:39:07Z</time>
      </trkpt>
      <trkpt lat="43.633030" lon="11.313860">
        <ele>311</ele>
        <time>2019-09-05T12:39:11Z</time>
      </trkpt>
      <trkpt lat="43.633460" lon="11.313740">
        <ele>306</ele>
        <time>2019-09-05T12:39:19Z</time>
      </trkpt>
      <trkpt lat="43.633670" lon="11.313760">
        <ele>304</ele>
        <time>2019-09-05T12:39:23Z</time>
      </trkpt>
      <trkpt lat="43.633860" lon="11.313850">
        <ele>304</ele>
        <time>2019-09-05T12:39:26Z</time>
      </trkpt>
      <trkpt lat="43.634020" lon="11.313960">
        <ele>304</ele>
        <time>2019-09-05T12:39:30Z</time>
      </trkpt>
      <trkpt lat="43.634200" lon="11.314030">
        <ele>304</ele>
        <time>2019-09-05T12:39:33Z</time>
      </trkpt>
      <trkpt lat="43.634390" lon="11.314010">
        <ele>304</ele>
        <time>2019-09-05T12:39:36Z</time>
      </trkpt>
      <trkpt lat="43.635170" lon="11.313460">
        <ele>301</ele>
        <time>2019-09-05T12:39:52Z</time>
      </trkpt>
      <trkpt lat="43.635460" lon="11.313420">
        <ele>301</ele>
        <time>2019-09-05T12:39:57Z</time>
      </trkpt>
      <trkpt lat="43.636180" lon="11.313580">
        <ele>297</ele>
        <time>2019-09-05T12:40:10Z</time>
      </trkpt>
      <trkpt lat="43.636340" lon="11.313660">
        <ele>296</ele>
        <time>2019-09-05T12:40:13Z</time>
      </trkpt>
      <trkpt lat="43.636840" lon="11.313960">
        <ele>293</ele>
        <time>2019-09-05T12:40:23Z</time>
      </trkpt>
      <trkpt lat="43.637060" lon="11.314040">
        <ele>291</ele>
        <time>2019-09-05T12:40:27Z</time>
      </trkpt>
      <trkpt lat="43.637180" lon="11.314050">
        <ele>290</ele>
        <time>2019-09-05T12:40:29Z</time>
      </trkpt>
      <trkpt lat="43.638230" lon="11.313930">
        <ele>281</ele>
        <time>2019-09-05T12:40:48Z</time>
      </trkpt>
      <trkpt lat="43.638520" lon="11.313810">
        <ele>279</ele>
        <time>2019-09-05T12:40:53Z</time>
      </trkpt>
      <trkpt lat="43.639050" lon="11.313530">
        <ele>278</ele>
        <time>2019-09-05T12:41:03Z</time>
      </trkpt>
      <trkpt lat="43.639250" lon="11.313470">
        <ele>278</ele>
        <time>2019-09-05T12:41:07Z</time>
      </trkpt>
      <trkpt lat="43.639620" lon="11.313390">
        <ele>278</ele>
        <time>2019-09-05T12:41:13Z</time>
      </trkpt>
      <trkpt lat="43.640400" lon="11.313300">
        <ele>274</ele>
        <time>2019-09-05T12:41:27Z</time>
      </trkpt>
      <trkpt lat="43.640520" lon="11.313250">
        <ele>273</ele>
        <time>2019-09-05T12:41:30Z</time>
      </trkpt>
      <trkpt lat="43.641210" lon="11.312860">
        <ele>268</ele>
        <time>2019-09-05T12:41:43Z</time>
      </trkpt>
      <trkpt lat="43.641500" lon="11.312780">
        <ele>266</ele>
        <time>2019-09-05T12:41:48Z</time>
      </trkpt>
      <trkpt lat="43.642240" lon="11.312640">
        <ele>260</ele>
        <time>2019-09-05T12:42:01Z</time>
      </trkpt>
      <trkpt lat="43.645360" lon="11.312140">
        <ele>245</ele>
        <time>2019-09-05T12:42:57Z</time>
      </trkpt>
      <trkpt lat="43.645570" lon="11.312070">
        <ele>244</ele>
        <time>2019-09-05T12:43:01Z</time>
      </trkpt>
      <trkpt lat="43.646220" lon="11.311730">
        <ele>244</ele>
        <time>2019-09-05T12:43:13Z</time>
      </trkpt>
      <trkpt lat="43.646940" lon="11.311470">
        <ele>244</ele>
        <time>2019-09-05T12:43:27Z</time>
      </trkpt>
      <trkpt lat="43.649350" lon="11.310890">
        <ele>228</ele>
        <time>2019-09-05T12:44:10Z</time>
      </trkpt>
      <trkpt lat="43.649540" lon="11.310800">
        <ele>227</ele>
        <time>2019-09-05T12:44:14Z</time>
      </trkpt>
      <trkpt lat="43.651650" lon="11.308840">
        <ele>215</ele>
        <time>2019-09-05T12:44:59Z</time>
      </trkpt>
      <trkpt lat="43.652550" lon="11.308190">
        <ele>214</ele>
        <time>2019-09-05T12:45:17Z</time>
      </trkpt>
      <trkpt lat="43.652850" lon="11.308070">
        <ele>214</ele>
        <time>2019-09-05T12:45:23Z</time>
      </trkpt>
      <trkpt lat="43.652960" lon="11.307990">
        <ele>214</ele>
        <time>2019-09-05T12:45:25Z</time>
      </trkpt>
      <trkpt lat="43.653890" lon="11.307540">
        <ele>220</ele>
        <time>2019-09-05T12:45:42Z</time>
      </trkpt>
      <trkpt lat="43.654310" lon="11.307400">
        <ele>222</ele>
        <time>2019-09-05T12:45:50Z</time>
      </trkpt>
      <trkpt lat="43.654600" lon="11.307240">
        <ele>223</ele>
        <time>2019-09-05T12:45:56Z</time>
      </trkpt>
      <trkpt lat="43.654670" lon="11.307120">
        <ele>224</ele>
        <time>2019-09-05T12:45:58Z</time>
      </trkpt>
      <trkpt lat="43.654920" lon="11.306600">
        <ele>226</ele>
        <time>2019-09-05T12:46:06Z</time>
      </trkpt>
      <trkpt lat="43.655220" lon="11.305870">
        <ele>226</ele>
        <time>2019-09-05T12:46:17Z</time>
      </trkpt>
      <trkpt lat="43.655450" lon="11.305240">
        <ele>226</ele>
        <time>2019-09-05T12:46:26Z</time>
      </trkpt>
      <trkpt lat="43.655690" lon="11.304560">
        <ele>229</ele>
        <time>2019-09-05T12:46:35Z</time>
      </trkpt>
      <trkpt lat="43.655990" lon="11.303430">
        <ele>237</ele>
        <time>2019-09-05T12:46:51Z</time>
      </trkpt>
      <trkpt lat="43.656290" lon="11.302470">
        <ele>241</ele>
        <time>2019-09-05T12:47:04Z</time>
      </trkpt>
      <trkpt lat="43.657380" lon="11.300020">
        <ele>237</ele>
        <time>2019-09-05T12:47:41Z</time>
      </trkpt>
      <trkpt lat="43.658440" lon="11.297500">
        <ele>245</ele>
        <time>2019-09-05T12:48:19Z</time>
      </trkpt>
      <trkpt lat="43.658530" lon="11.297400">
        <ele>245</ele>
        <time>2019-09-05T12:48:21Z</time>
      </trkpt>
      <trkpt lat="43.658950" lon="11.297030">
        <ele>242</ele>
        <time>2019-09-05T12:48:30Z</time>
      </trkpt>
      <trkpt lat="43.660100" lon="11.295870">
        <ele>240</ele>
        <time>2019-09-05T12:48:55Z</time>
      </trkpt>
      <trkpt lat="43.660360" lon="11.295580">
        <ele>239</ele>
        <time>2019-09-05T12:49:01Z</time>
      </trkpt>
      <trkpt lat="43.660500" lon="11.295490">
        <ele>239</ele>
        <time>2019-09-05T12:49:04Z</time>
      </trkpt>
      <trkpt lat="43.660530" lon="11.295330">
        <ele>240</ele>
        <time>2019-09-05T12:49:06Z</time>
      </trkpt>
      <trkpt lat="43.660510" lon="11.295250">
        <ele>240</ele>
        <time>2019-09-05T12:49:07Z</time>
      </trkpt>
      <trkpt lat="43.660460" lon="11.295190">
        <ele>240</ele>
        <time>2019-09-05T12:49:08Z</time>
      </trkpt>
      <trkpt lat="43.660400" lon="11.295160">
        <ele>240</ele>
        <time>2019-09-05T12:49:09Z</time>
      </trkpt>
      <trkpt lat="43.660210" lon="11.294880">
        <ele>239</ele>
        <time>2019-09-05T12:49:14Z</time>
      </trkpt>
      <trkpt lat="43.660000" lon="11.294440">
        <ele>238</ele>
        <time>2019-09-05T12:49:21Z</time>
      </trkpt>
      <trkpt lat="43.659580" lon="11.293900">
        <ele>232</ele>
        <time>2019-09-05T12:49:31Z</time>
      </trkpt>
      <trkpt lat="43.659480" lon="11.293700">
        <ele>230</ele>
        <time>2019-09-05T12:49:34Z</time>
      </trkpt>
      <trkpt lat="43.659460" lon="11.293600">
        <ele>229</ele>
        <time>2019-09-05T12:49:36Z</time>
      </trkpt>
      <trkpt lat="43.659460" lon="11.293460">
        <ele>228</ele>
        <time>2019-09-05T12:49:38Z</time>
      </trkpt>
      <trkpt lat="43.659480" lon="11.293310">
        <ele>227</ele>
        <time>2019-09-05T12:49:39Z</time>
      </trkpt>
      <trkpt lat="43.659560" lon="11.293170">
        <ele>226</ele>
        <time>2019-09-05T12:49:42Z</time>
      </trkpt>
      <trkpt lat="43.659770" lon="11.292890">
        <ele>224</ele>
        <time>2019-09-05T12:49:47Z</time>
      </trkpt>
      <trkpt lat="43.660020" lon="11.292630">
        <ele>222</ele>
        <time>2019-09-05T12:49:53Z</time>
      </trkpt>
      <trkpt lat="43.660240" lon="11.292480">
        <ele>221</ele>
        <time>2019-09-05T12:49:57Z</time>
      </trkpt>
      <trkpt lat="43.660490" lon="11.292400">
        <ele>222</ele>
        <time>2019-09-05T12:50:01Z</time>
      </trkpt>
      <trkpt lat="43.660710" lon="11.292390">
        <ele>223</ele>
        <time>2019-09-05T12:50:05Z</time>
      </trkpt>
      <trkpt lat="43.660960" lon="11.292440">
        <ele>224</ele>
        <time>2019-09-05T12:50:10Z</time>
      </trkpt>
      <trkpt lat="43.661310" lon="11.292630">
        <ele>227</ele>
        <time>2019-09-05T12:50:17Z</time>
      </trkpt>
      <trkpt lat="43.661920" lon="11.293030">
        <ele>232</ele>
        <time>2019-09-05T12:50:29Z</time>
      </trkpt>
      <trkpt lat="43.662210" lon="11.293170">
        <ele>232</ele>
        <time>2019-09-05T12:50:34Z</time>
      </trkpt>
      <trkpt lat="43.662550" lon="11.293270">
        <ele>232</ele>
        <time>2019-09-05T12:50:40Z</time>
      </trkpt>
      <trkpt lat="43.662890" lon="11.293280">
        <ele>234</ele>
        <time>2019-09-05T12:50:46Z</time>
      </trkpt>
      <trkpt lat="43.663530" lon="11.293240">
        <ele>239</ele>
        <time>2019-09-05T12:50:58Z</time>
      </trkpt>
      <trkpt lat="43.663790" lon="11.293350">
        <ele>241</ele>
        <time>2019-09-05T12:51:03Z</time>
      </trkpt>
      <trkpt lat="43.663990" lon="11.293480">
        <ele>243</ele>
        <time>2019-09-05T12:51:06Z</time>
      </trkpt>
      <trkpt lat="43.664070" lon="11.293560">
        <ele>243</ele>
        <time>2019-09-05T12:51:08Z</time>
      </trkpt>
      <trkpt lat="43.664100" lon="11.293650">
        <ele>243</ele>
        <time>2019-09-05T12:51:09Z</time>
      </trkpt>
      <trkpt lat="43.664150" lon="11.293710">
        <ele>243</ele>
        <time>2019-09-05T12:51:11Z</time>
      </trkpt>
      <trkpt lat="43.664220" lon="11.293740">
        <ele>243</ele>
        <time>2019-09-05T12:51:12Z</time>
      </trkpt>
      <trkpt lat="43.664300" lon="11.293710">
        <ele>243</ele>
        <time>2019-09-05T12:51:13Z</time>
      </trkpt>
      <trkpt lat="43.664350" lon="11.293640">
        <ele>243</ele>
        <time>2019-09-05T12:51:15Z</time>
      </trkpt>
      <trkpt lat="43.664500" lon="11.293550">
        <ele>243</ele>
        <time>2019-09-05T12:51:18Z</time>
      </trkpt>
      <trkpt lat="43.664820" lon="11.293430">
        <ele>243</ele>
        <time>2019-09-05T12:51:24Z</time>
      </trkpt>
      <trkpt lat="43.665830" lon="11.293290">
        <ele>239</ele>
        <time>2019-09-05T12:51:42Z</time>
      </trkpt>
      <trkpt lat="43.666530" lon="11.293060">
        <ele>239</ele>
        <time>2019-09-05T12:51:54Z</time>
      </trkpt>
      <trkpt lat="43.667470" lon="11.292650">
        <ele>239</ele>
        <time>2019-09-05T12:52:12Z</time>
      </trkpt>
      <trkpt lat="43.667970" lon="11.292500">
        <ele>238</ele>
        <time>2019-09-05T12:52:21Z</time>
      </trkpt>
      <trkpt lat="43.668300" lon="11.292420">
        <ele>237</ele>
        <time>2019-09-05T12:52:27Z</time>
      </trkpt>
      <trkpt lat="43.669180" lon="11.292270">
        <ele>242</ele>
        <time>2019-09-05T12:52:43Z</time>
      </trkpt>
      <trkpt lat="43.670780" lon="11.291970">
        <ele>247</ele>
        <time>2019-09-05T12:53:11Z</time>
      </trkpt>
      <trkpt lat="43.671310" lon="11.292100">
        <ele>248</ele>
        <time>2019-09-05T12:53:21Z</time>
      </trkpt>
      <trkpt lat="43.671960" lon="11.292160">
        <ele>251</ele>
        <time>2019-09-05T12:53:33Z</time>
      </trkpt>
      <trkpt lat="43.672130" lon="11.292130">
        <ele>252</ele>
        <time>2019-09-05T12:53:36Z</time>
      </trkpt>
      <trkpt lat="43.672730" lon="11.291910">
        <ele>253</ele>
        <time>2019-09-05T12:53:47Z</time>
      </trkpt>
      <trkpt lat="43.672950" lon="11.291900">
        <ele>253</ele>
        <time>2019-09-05T12:53:51Z</time>
      </trkpt>
      <trkpt lat="43.673620" lon="11.291940">
        <ele>254</ele>
        <time>2019-09-05T12:54:03Z</time>
      </trkpt>
      <trkpt lat="43.675030" lon="11.292110">
        <ele>251</ele>
        <time>2019-09-05T12:54:28Z</time>
      </trkpt>
      <trkpt lat="43.675490" lon="11.292150">
        <ele>248</ele>
        <time>2019-09-05T12:54:36Z</time>
      </trkpt>
      <trkpt lat="43.675720" lon="11.292210">
        <ele>248</ele>
        <time>2019-09-05T12:54:40Z</time>
      </trkpt>
      <trkpt lat="43.675930" lon="11.292310">
        <ele>247</ele>
        <time>2019-09-05T12:54:44Z</time>
      </trkpt>
      <trkpt lat="43.676400" lon="11.292620">
        <ele>244</ele>
        <time>2019-09-05T12:54:53Z</time>
      </trkpt>
      <trkpt lat="43.676630" lon="11.292750">
        <ele>243</ele>
        <time>2019-09-05T12:54:58Z</time>
      </trkpt>
      <trkpt lat="43.676890" lon="11.292800">
        <ele>242</ele>
        <time>2019-09-05T12:55:02Z</time>
      </trkpt>
      <trkpt lat="43.679910" lon="11.292830">
        <ele>233</ele>
        <time>2019-09-05T12:55:56Z</time>
      </trkpt>
      <trkpt lat="43.681130" lon="11.292890">
        <ele>232</ele>
        <time>2019-09-05T12:56:18Z</time>
      </trkpt>
      <trkpt lat="43.682130" lon="11.293130">
        <ele>230</ele>
        <time>2019-09-05T12:56:36Z</time>
      </trkpt>
      <trkpt lat="43.683310" lon="11.293630">
        <ele>224</ele>
        <time>2019-09-05T12:56:58Z</time>
      </trkpt>
      <trkpt lat="43.683730" lon="11.293780">
        <ele>223</ele>
        <time>2019-09-05T12:57:06Z</time>
      </trkpt>
      <trkpt lat="43.684090" lon="11.294020">
        <ele>225</ele>
        <time>2019-09-05T12:57:13Z</time>
      </trkpt>
      <trkpt lat="43.684200" lon="11.294170">
        <ele>226</ele>
        <time>2019-09-05T12:57:16Z</time>
      </trkpt>
      <trkpt lat="43.683910" lon="11.294700">
        <ele>221</ele>
        <time>2019-09-05T12:57:24Z</time>
      </trkpt>
      <trkpt lat="43.683220" lon="11.294680">
        <ele>215</ele>
        <time>2019-09-05T12:57:36Z</time>
      </trkpt>
      <trkpt lat="43.683080" lon="11.295000">
        <ele>211</ele>
        <time>2019-09-05T12:57:41Z</time>
      </trkpt>
      <trkpt lat="43.682900" lon="11.295480">
        <ele>203</ele>
        <time>2019-09-05T12:57:48Z</time>
      </trkpt>
      <trkpt lat="43.682570" lon="11.295170">
        <ele>204</ele>
        <time>2019-09-05T12:57:55Z</time>
      </trkpt>
      <trkpt lat="43.682300" lon="11.294930">
        <ele>208</ele>
        <time>2019-09-05T12:58:01Z</time>
      </trkpt>
      <trkpt lat="43.682570" lon="11.295170">
        <ele>204</ele>
        <time>2019-09-05T12:58:07Z</time>
      </trkpt>
      <trkpt lat="43.682900" lon="11.295480">
        <ele>203</ele>
        <time>2019-09-05T12:58:14Z</time>
      </trkpt>
      <trkpt lat="43.683080" lon="11.295000">
        <ele>211</ele>
        <time>2019-09-05T12:58:21Z</time>
      </trkpt>
      <trkpt lat="43.683220" lon="11.294680">
        <ele>215</ele>
        <time>2019-09-05T12:58:25Z</time>
      </trkpt>
      <trkpt lat="43.683910" lon="11.294700">
        <ele>221</ele>
        <time>2019-09-05T12:58:38Z</time>
      </trkpt>
      <trkpt lat="43.684200" lon="11.294170">
        <ele>226</ele>
        <time>2019-09-05T12:58:46Z</time>
      </trkpt>
      <trkpt lat="43.684250" lon="11.294280">
        <ele>225</ele>
        <time>2019-09-05T12:58:48Z</time>
      </trkpt>
      <trkpt lat="43.684380" lon="11.294690">
        <ele>224</ele>
        <time>2019-09-05T12:58:54Z</time>
      </trkpt>
      <trkpt lat="43.684530" lon="11.295060">
        <ele>223</ele>
        <time>2019-09-05T12:58:59Z</time>
      </trkpt>
      <trkpt lat="43.684710" lon="11.295370">
        <ele>221</ele>
        <time>2019-09-05T12:59:04Z</time>
      </trkpt>
      <trkpt lat="43.684880" lon="11.295550">
        <ele>221</ele>
        <time>2019-09-05T12:59:08Z</time>
      </trkpt>
      <trkpt lat="43.685670" lon="11.296150">
        <ele>213</ele>
        <time>2019-09-05T12:59:24Z</time>
      </trkpt>
      <trkpt lat="43.685800" lon="11.296220">
        <ele>212</ele>
        <time>2019-09-05T12:59:27Z</time>
      </trkpt>
      <trkpt lat="43.685990" lon="11.296260">
        <ele>211</ele>
        <time>2019-09-05T12:59:30Z</time>
      </trkpt>
      <trkpt lat="43.686740" lon="11.296330">
        <ele>206</ele>
        <time>2019-09-05T12:59:43Z</time>
      </trkpt>
      <trkpt lat="43.686920" lon="11.296320">
        <ele>205</ele>
        <time>2019-09-05T12:59:47Z</time>
      </trkpt>
      <trkpt lat="43.688510" lon="11.295970">
        <ele>205</ele>
        <time>2019-09-05T13:00:15Z</time>
      </trkpt>
      <trkpt lat="43.689410" lon="11.296010">
        <ele>208</ele>
        <time>2019-09-05T13:00:31Z</time>
      </trkpt>
      <trkpt lat="43.689710" lon="11.295980">
        <ele>208</ele>
        <time>2019-09-05T13:00:37Z</time>
      </trkpt>
      <trkpt lat="43.690040" lon="11.295860">
        <ele>208</ele>
        <time>2019-09-05T13:00:43Z</time>
      </trkpt>
      <trkpt lat="43.691210" lon="11.295300">
        <ele>202</ele>
        <time>2019-09-05T13:01:05Z</time>
      </trkpt>
      <trkpt lat="43.691640" lon="11.295000">
        <ele>202</ele>
        <time>2019-09-05T13:01:13Z</time>
      </trkpt>
      <trkpt lat="43.691870" lon="11.294800">
        <ele>203</ele>
        <time>2019-09-05T13:01:18Z</time>
      </trkpt>
      <trkpt lat="43.692020" lon="11.294730">
        <ele>204</ele>
        <time>2019-09-05T13:01:21Z</time>
      </trkpt>
      <trkpt lat="43.692160" lon="11.294740">
        <ele>204</ele>
        <time>2019-09-05T13:01:23Z</time>
      </trkpt>
      <trkpt lat="43.692640" lon="11.294930">
        <ele>201</ele>
        <time>2019-09-05T13:01:32Z</time>
      </trkpt>
      <trkpt lat="43.692710" lon="11.294940">
        <ele>200</ele>
        <time>2019-09-05T13:01:34Z</time>
      </trkpt>
      <trkpt lat="43.692780" lon="11.294910">
        <ele>200</ele>
        <time>2019-09-05T13:01:35Z</time>
      </trkpt>
      <trkpt lat="43.692860" lon="11.294840">
        <ele>200</ele>
        <time>2019-09-05T13:01:37Z</time>
      </trkpt>
      <trkpt lat="43.692900" lon="11.294770">
        <ele>200</ele>
        <time>2019-09-05T13:01:38Z</time>
      </trkpt>
      <trkpt lat="43.692960" lon="11.294610">
        <ele>201</ele>
        <time>2019-09-05T13:01:40Z</time>
      </trkpt>
      <trkpt lat="43.693040" lon="11.294060">
        <ele>203</ele>
        <time>2019-09-05T13:01:47Z</time>
      </trkpt>
      <trkpt lat="43.693180" lon="11.293750">
        <ele>204</ele>
        <time>2019-09-05T13:01:52Z</time>
      </trkpt>
      <trkpt lat="43.693300" lon="11.293610">
        <ele>203</ele>
        <time>2019-09-05T13:01:55Z</time>
      </trkpt>
      <trkpt lat="43.693640" lon="11.293440">
        <ele>203</ele>
        <time>2019-09-05T13:02:01Z</time>
      </trkpt>
      <trkpt lat="43.693720" lon="11.293360">
        <ele>203</ele>
        <time>2019-09-05T13:02:03Z</time>
      </trkpt>
      <trkpt lat="43.693930" lon="11.293000">
        <ele>205</ele>
        <time>2019-09-05T13:02:09Z</time>
      </trkpt>
      <trkpt lat="43.694030" lon="11.292900">
        <ele>206</ele>
        <time>2019-09-05T13:02:11Z</time>
      </trkpt>
      <trkpt lat="43.694190" lon="11.292830">
        <ele>206</ele>
        <time>2019-09-05T13:02:14Z</time>
      </trkpt>
      <trkpt lat="43.694600" lon="11.292820">
        <ele>205</ele>
        <time>2019-09-05T13:02:21Z</time>
      </trkpt>
      <trkpt lat="43.695180" lon="11.292860">
        <ele>204</ele>
        <time>2019-09-05T13:02:32Z</time>
      </trkpt>
      <trkpt lat="43.696640" lon="11.293280">
        <ele>203</ele>
        <time>2019-09-05T13:02:58Z</time>
      </trkpt>
      <trkpt lat="43.697190" lon="11.293390">
        <ele>202</ele>
        <time>2019-09-05T13:03:08Z</time>
      </trkpt>
      <trkpt lat="43.697610" lon="11.293410">
        <ele>202</ele>
        <time>2019-09-05T13:03:16Z</time>
      </trkpt>
      <trkpt lat="43.698120" lon="11.293400">
        <ele>204</ele>
        <time>2019-09-05T13:03:25Z</time>
      </trkpt>
      <trkpt lat="43.698660" lon="11.293330">
        <ele>204</ele>
        <time>2019-09-05T13:03:34Z</time>
      </trkpt>
      <trkpt lat="43.699480" lon="11.293080">
        <ele>202</ele>
        <time>2019-09-05T13:03:49Z</time>
      </trkpt>
      <trkpt lat="43.699920" lon="11.292970">
        <ele>202</ele>
        <time>2019-09-05T13:03:57Z</time>
      </trkpt>
      <trkpt lat="43.700200" lon="11.292950">
        <ele>201</ele>
        <time>2019-09-05T13:04:02Z</time>
      </trkpt>
      <trkpt lat="43.702590" lon="11.293230">
        <ele>198</ele>
        <time>2019-09-05T13:04:45Z</time>
      </trkpt>
      <trkpt lat="43.702980" lon="11.293190">
        <ele>198</ele>
        <time>2019-09-05T13:04:52Z</time>
      </trkpt>
      <trkpt lat="43.703590" lon="11.293100">
        <ele>198</ele>
        <time>2019-09-05T13:05:03Z</time>
      </trkpt>
      <trkpt lat="43.703820" lon="11.292970">
        <ele>198</ele>
        <time>2019-09-05T13:05:07Z</time>
      </trkpt>
      <trkpt lat="43.703970" lon="11.292850">
        <ele>198</ele>
        <time>2019-09-05T13:05:10Z</time>
      </trkpt>
      <trkpt lat="43.704230" lon="11.292590">
        <ele>199</ele>
        <time>2019-09-05T13:05:16Z</time>
      </trkpt>
      <trkpt lat="43.704520" lon="11.292360">
        <ele>198</ele>
        <time>2019-09-05T13:05:22Z</time>
      </trkpt>
      <trkpt lat="43.704740" lon="11.292130">
        <ele>197</ele>
        <time>2019-09-05T13:05:27Z</time>
      </trkpt>
      <trkpt lat="43.706530" lon="11.289880">
        <ele>192</ele>
        <time>2019-09-05T13:06:10Z</time>
      </trkpt>
      <trkpt lat="43.706740" lon="11.289670">
        <ele>190</ele>
        <time>2019-09-05T13:06:15Z</time>
      </trkpt>
      <trkpt lat="43.706890" lon="11.289610">
        <ele>189</ele>
        <time>2019-09-05T13:06:17Z</time>
      </trkpt>
      <trkpt lat="43.708530" lon="11.289390">
        <ele>187</ele>
        <time>2019-09-05T13:06:47Z</time>
      </trkpt>
      <trkpt lat="43.708950" lon="11.289590">
        <ele>186</ele>
        <time>2019-09-05T13:06:55Z</time>
      </trkpt>
      <trkpt lat="43.709410" lon="11.289990">
        <ele>185</ele>
        <time>2019-09-05T13:07:04Z</time>
      </trkpt>
      <trkpt lat="43.709910" lon="11.290340">
        <ele>181</ele>
        <time>2019-09-05T13:07:14Z</time>
      </trkpt>
      <trkpt lat="43.710580" lon="11.290570">
        <ele>180</ele>
        <time>2019-09-05T13:07:26Z</time>
      </trkpt>
      <trkpt lat="43.710970" lon="11.290640">
        <ele>181</ele>
        <time>2019-09-05T13:07:33Z</time>
      </trkpt>
      <trkpt lat="43.711190" lon="11.290640">
        <ele>181</ele>
        <time>2019-09-05T13:07:37Z</time>
      </trkpt>
      <trkpt lat="43.711440" lon="11.290600">
        <ele>181</ele>
        <time>2019-09-05T13:07:42Z</time>
      </trkpt>
      <trkpt lat="43.712270" lon="11.290260">
        <ele>179</ele>
        <time>2019-09-05T13:07:57Z</time>
      </trkpt>
      <trkpt lat="43.712640" lon="11.290230">
        <ele>179</ele>
        <time>2019-09-05T13:08:04Z</time>
      </trkpt>
      <trkpt lat="43.713000" lon="11.290380">
        <ele>179</ele>
        <time>2019-09-05T13:08:11Z</time>
      </trkpt>
      <trkpt lat="43.713800" lon="11.291000">
        <ele>177</ele>
        <time>2019-09-05T13:08:27Z</time>
      </trkpt>
      <trkpt lat="43.714320" lon="11.291230">
        <ele>177</ele>
        <time>2019-09-05T13:08:37Z</time>
      </trkpt>
      <trkpt lat="43.714430" lon="11.291260">
        <ele>177</ele>
        <time>2019-09-05T13:08:39Z</time>
      </trkpt>
      <trkpt lat="43.714620" lon="11.290310">
        <ele>177</ele>
        <time>2019-09-05T13:08:51Z</time>
      </trkpt>
      <trkpt lat="43.714660" lon="11.290210">
        <ele>177</ele>
        <time>2019-09-05T13:08:53Z</time>
      </trkpt>
      <trkpt lat="43.715750" lon="11.289410">
        <ele>173</ele>
        <time>2019-09-05T13:09:15Z</time>
      </trkpt>
      <trkpt lat="43.715710" lon="11.288620">
        <ele>167</ele>
        <time>2019-09-05T13:09:25Z</time>
      </trkpt>
      <trkpt lat="43.716100" lon="11.287310">
        <ele>153</ele>
        <time>2019-09-05T13:09:43Z</time>
      </trkpt>
      <trkpt lat="43.716180" lon="11.286970">
        <ele>149</ele>
        <time>2019-09-05T13:09:48Z</time>
      </trkpt>
      <trkpt lat="43.716370" lon="11.286600">
        <ele>145</ele>
        <time>2019-09-05T13:09:53Z</time>
      </trkpt>
      <trkpt lat="43.716510" lon="11.286240">
        <ele>144</ele>
        <time>2019-09-05T13:09:59Z</time>
      </trkpt>
      <trkpt lat="43.716680" lon="11.286110">
        <ele>144</ele>
        <time>2019-09-05T13:10:02Z</time>
      </trkpt>
      <trkpt lat="43.717020" lon="11.286240">
        <ele>140</ele>
        <time>2019-09-05T13:10:08Z</time>
      </trkpt>
      <trkpt lat="43.717920" lon="11.286090">
        <ele>125</ele>
        <time>2019-09-05T13:10:25Z</time>
      </trkpt>
      <trkpt lat="43.718520" lon="11.285890">
        <ele>113</ele>
        <time>2019-09-05T13:10:36Z</time>
      </trkpt>
      <trkpt lat="43.719550" lon="11.285700">
        <ele>100</ele>
        <time>2019-09-05T13:10:54Z</time>
      </trkpt>
      <trkpt lat="43.719900" lon="11.285650">
        <ele>95</ele>
        <time>2019-09-05T13:11:00Z</time>
      </trkpt>
      <trkpt lat="43.720010" lon="11.286590">
        <ele>95</ele>
        <time>2019-09-05T13:11:13Z</time>
      </trkpt>
      <trkpt lat="43.720070" lon="11.286850">
        <ele>95</ele>
        <time>2019-09-05T13:11:16Z</time>
      </trkpt>
      <trkpt lat="43.720540" lon="11.287940">
        <ele>95</ele>
        <time>2019-09-05T13:11:32Z</time>
      </trkpt>
      <trkpt lat="43.720850" lon="11.288570">
        <ele>95</ele>
        <time>2019-09-05T13:11:42Z</time>
      </trkpt>
      <trkpt lat="43.720920" lon="11.288640">
        <ele>95</ele>
        <time>2019-09-05T13:11:44Z</time>
      </trkpt>
      <trkpt lat="43.720970" lon="11.288670">
        <ele>95</ele>
        <time>2019-09-05T13:11:45Z</time>
      </trkpt>
      <trkpt lat="43.721300" lon="11.288710">
        <ele>95</ele>
        <time>2019-09-05T13:11:51Z</time>
      </trkpt>
      <trkpt lat="43.721740" lon="11.288970">
        <ele>94</ele>
        <time>2019-09-05T13:11:59Z</time>
      </trkpt>
      <trkpt lat="43.721850" lon="11.289010">
        <ele>95</ele>
        <time>2019-09-05T13:12:01Z</time>
      </trkpt>
      <trkpt lat="43.722130" lon="11.289030">
        <ele>97</ele>
        <time>2019-09-05T13:12:06Z</time>
      </trkpt>
      <trkpt lat="43.722340" lon="11.289830">
        <ele>95</ele>
        <time>2019-09-05T13:12:17Z</time>
      </trkpt>
      <trkpt lat="43.722420" lon="11.290290">
        <ele>94</ele>
        <time>2019-09-05T13:12:23Z</time>
      </trkpt>
      <trkpt lat="43.722520" lon="11.291010">
        <ele>92</ele>
        <time>2019-09-05T13:12:33Z</time>
      </trkpt>
      <trkpt lat="43.722670" lon="11.291360">
        <ele>93</ele>
        <time>2019-09-05T13:12:38Z</time>
      </trkpt>
      <trkpt lat="43.722980" lon="11.291780">
        <ele>91</ele>
        <time>2019-09-05T13:12:46Z</time>
      </trkpt>
      <trkpt lat="43.723090" lon="11.292100">
        <ele>91</ele>
        <time>2019-09-05T13:12:50Z</time>
      </trkpt>
      <trkpt lat="43.723520" lon="11.292060">
        <ele>90</ele>
        <time>2019-09-05T13:12:58Z</time>
      </trkpt>
      <trkpt lat="43.724100" lon="11.292130">
        <ele>91</ele>
        <time>2019-09-05T13:13:08Z</time>
      </trkpt>
      <trkpt lat="43.724580" lon="11.292020">
        <ele>92</ele>
        <time>2019-09-05T13:13:17Z</time>
      </trkpt>
      <trkpt lat="43.724800" lon="11.292000">
        <ele>92</ele>
        <time>2019-09-05T13:13:21Z</time>
      </trkpt>
      <trkpt lat="43.725180" lon="11.292040">
        <ele>92</ele>
        <time>2019-09-05T13:13:27Z</time>
      </trkpt>
      <trkpt lat="43.725300" lon="11.292090">
        <ele>92</ele>
        <time>2019-09-05T13:13:30Z</time>
      </trkpt>
      <trkpt lat="43.725430" lon="11.292200">
        <ele>92</ele>
        <time>2019-09-05T13:13:32Z</time>
      </trkpt>
      <trkpt lat="43.725740" lon="11.292690">
        <ele>89</ele>
        <time>2019-09-05T13:13:41Z</time>
      </trkpt>
      <trkpt lat="43.726250" lon="11.292980">
        <ele>90</ele>
        <time>2019-09-05T13:13:51Z</time>
      </trkpt>
      <trkpt lat="43.726690" lon="11.293280">
        <ele>89</ele>
        <time>2019-09-05T13:13:59Z</time>
      </trkpt>
      <trkpt lat="43.726890" lon="11.293480">
        <ele>90</ele>
        <time>2019-09-05T13:14:04Z</time>
      </trkpt>
      <trkpt lat="43.726930" lon="11.293260">
        <ele>91</ele>
        <time>2019-09-05T13:14:07Z</time>
      </trkpt>
      <trkpt lat="43.727380" lon="11.292920">
        <ele>97</ele>
        <time>2019-09-05T13:14:16Z</time>
      </trkpt>
      <trkpt lat="43.727600" lon="11.292820">
        <ele>99</ele>
        <time>2019-09-05T13:14:20Z</time>
      </trkpt>
      <trkpt lat="43.727820" lon="11.293050">
        <ele>96</ele>
        <time>2019-09-05T13:14:25Z</time>
      </trkpt>
      <trkpt lat="43.727910" lon="11.293110">
        <ele>95</ele>
        <time>2019-09-05T13:14:27Z</time>
      </trkpt>
      <trkpt lat="43.728420" lon="11.294030">
        <ele>89</ele>
        <time>2019-09-05T13:14:41Z</time>
      </trkpt>
      <trkpt lat="43.728620" lon="11.293840">
        <ele>89</ele>
        <time>2019-09-05T13:14:46Z</time>
      </trkpt>
      <trkpt lat="43.729050" lon="11.293320">
        <ele>90</ele>
        <time>2019-09-05T13:14:56Z</time>
      </trkpt>
      <trkpt lat="43.729300" lon="11.293200">
        <ele>92</ele>
        <time>2019-09-05T13:15:01Z</time>
      </trkpt>
      <trkpt lat="43.729460" lon="11.293180">
        <ele>91</ele>
        <time>2019-09-05T13:15:04Z</time>
      </trkpt>
      <trkpt lat="43.729780" lon="11.293270">
        <ele>89</ele>
        <time>2019-09-05T13:15:09Z</time>
      </trkpt>
      <trkpt lat="43.730060" lon="11.293470">
        <ele>88</ele>
        <time>2019-09-05T13:15:15Z</time>
      </trkpt>
      <trkpt lat="43.730490" lon="11.293690">
        <ele>89</ele>
        <time>2019-09-05T13:15:23Z</time>
      </trkpt>
      <trkpt lat="43.730490" lon="11.293910">
        <ele>88</ele>
        <time>2019-09-05T13:15:26Z</time>
      </trkpt>
      <trkpt lat="43.730520" lon="11.294120">
        <ele>87</ele>
        <time>2019-09-05T13:15:29Z</time>
      </trkpt>
      <trkpt lat="43.731350" lon="11.294170">
        <ele>89</ele>
        <time>2019-09-05T13:15:43Z</time>
      </trkpt>
      <trkpt lat="43.731740" lon="11.293990">
        <ele>91</ele>
        <time>2019-09-05T13:15:51Z</time>
      </trkpt>
      <trkpt lat="43.732220" lon="11.293980">
        <ele>90</ele>
        <time>2019-09-05T13:15:59Z</time>
      </trkpt>
      <trkpt lat="43.732910" lon="11.293920">
        <ele>90</ele>
        <time>2019-09-05T13:16:12Z</time>
      </trkpt>
      <trkpt lat="43.733300" lon="11.293840">
        <ele>90</ele>
        <time>2019-09-05T13:16:19Z</time>
      </trkpt>
      <trkpt lat="43.733470" lon="11.293730">
        <ele>91</ele>
        <time>2019-09-05T13:16:22Z</time>
      </trkpt>
      <trkpt lat="43.733700" lon="11.294340">
        <ele>85</ele>
        <time>2019-09-05T13:16:31Z</time>
      </trkpt>
      <trkpt lat="43.733780" lon="11.294460">
        <ele>84</ele>
        <time>2019-09-05T13:16:33Z</time>
      </trkpt>
      <trkpt lat="43.733830" lon="11.294510">
        <ele>84</ele>
        <time>2019-09-05T13:16:34Z</time>
      </trkpt>
      <trkpt lat="43.733880" lon="11.294500">
        <ele>84</ele>
        <time>2019-09-05T13:16:35Z</time>
      </trkpt>
      <trkpt lat="43.734880" lon="11.293820">
        <ele>84</ele>
        <time>2019-09-05T13:16:55Z</time>
      </trkpt>
      <trkpt lat="43.735110" lon="11.293460">
        <ele>84</ele>
        <time>2019-09-05T13:17:01Z</time>
      </trkpt>
      <trkpt lat="43.735390" lon="11.293180">
        <ele>84</ele>
        <time>2019-09-05T13:17:07Z</time>
      </trkpt>
      <trkpt lat="43.736110" lon="11.293340">
        <ele>83</ele>
        <time>2019-09-05T13:17:20Z</time>
      </trkpt>
      <trkpt lat="43.736740" lon="11.292540">
        <ele>88</ele>
        <time>2019-09-05T13:17:35Z</time>
      </trkpt>
      <trkpt lat="43.736870" lon="11.292670">
        <ele>87</ele>
        <time>2019-09-05T13:17:38Z</time>
      </trkpt>
      <trkpt lat="43.737010" lon="11.292860">
        <ele>85</ele>
        <time>2019-09-05T13:17:42Z</time>
      </trkpt>
      <trkpt lat="43.737230" lon="11.293090">
        <ele>82</ele>
        <time>2019-09-05T13:17:46Z</time>
      </trkpt>
      <trkpt lat="43.737450" lon="11.293280">
        <ele>81</ele>
        <time>2019-09-05T13:17:51Z</time>
      </trkpt>
      <trkpt lat="43.737560" lon="11.293340">
        <ele>80</ele>
        <time>2019-09-05T13:17:53Z</time>
      </trkpt>
      <trkpt lat="43.737830" lon="11.293350">
        <ele>80</ele>
        <time>2019-09-05T13:17:58Z</time>
      </trkpt>
      <trkpt lat="43.738000" lon="11.293420">
        <ele>80</ele>
        <time>2019-09-05T13:18:01Z</time>
      </trkpt>
      <trkpt lat="43.738050" lon="11.293400">
        <ele>80</ele>
        <time>2019-09-05T13:18:02Z</time>
      </trkpt>
      <trkpt lat="43.738080" lon="11.293370">
        <ele>80</ele>
        <time>2019-09-05T13:18:03Z</time>
      </trkpt>
      <trkpt lat="43.738100" lon="11.293290">
        <ele>80</ele>
        <time>2019-09-05T13:18:04Z</time>
      </trkpt>
      <trkpt lat="43.738070" lon="11.293200">
        <ele>80</ele>
        <time>2019-09-05T13:18:05Z</time>
      </trkpt>
      <trkpt lat="43.738100" lon="11.292940">
        <ele>81</ele>
        <time>2019-09-05T13:18:09Z</time>
      </trkpt>
      <trkpt lat="43.738330" lon="11.291720">
        <ele>82</ele>
        <time>2019-09-05T13:18:25Z</time>
      </trkpt>
      <trkpt lat="43.738490" lon="11.291100">
        <ele>84</ele>
        <time>2019-09-05T13:18:33Z</time>
      </trkpt>
      <trkpt lat="43.738820" lon="11.290410">
        <ele>86</ele>
        <time>2019-09-05T13:18:44Z</time>
      </trkpt>
      <trkpt lat="43.738870" lon="11.290360">
        <ele>85</ele>
        <time>2019-09-05T13:18:45Z</time>
      </trkpt>
      <trkpt lat="43.738970" lon="11.290370">
        <ele>84</ele>
        <time>2019-09-05T13:18:47Z</time>
      </trkpt>
      <trkpt lat="43.739080" lon="11.290580">
        <ele>82</ele>
        <time>2019-09-05T13:18:50Z</time>
      </trkpt>
      <trkpt lat="43.739550" lon="11.291170">
        <ele>78</ele>
        <time>2019-09-05T13:19:01Z</time>
      </trkpt>
      <trkpt lat="43.739580" lon="11.291260">
        <ele>78</ele>
        <time>2019-09-05T13:19:03Z</time>
      </trkpt>
      <trkpt lat="43.739640" lon="11.292660">
        <ele>80</ele>
        <time>2019-09-05T13:19:21Z</time>
      </trkpt>
      <trkpt lat="43.739630" lon="11.292810">
        <ele>80</ele>
        <time>2019-09-05T13:19:23Z</time>
      </trkpt>
      <trkpt lat="43.739600" lon="11.292870">
        <ele>80</ele>
        <time>2019-09-05T13:19:23Z</time>
      </trkpt>
      <trkpt lat="43.740340" lon="11.292820">
        <ele>86</ele>
        <time>2019-09-05T13:19:37Z</time>
      </trkpt>
      <trkpt lat="43.740370" lon="11.291790">
        <ele>80</ele>
        <time>2019-09-05T13:19:50Z</time>
      </trkpt>
      <trkpt lat="43.740770" lon="11.291630">
        <ele>80</ele>
        <time>2019-09-05T13:19:57Z</time>
      </trkpt>
      <trkpt lat="43.741520" lon="11.291250">
        <ele>83</ele>
        <time>2019-09-05T13:20:12Z</time>
      </trkpt>
      <trkpt lat="43.742250" lon="11.290980">
        <ele>83</ele>
        <time>2019-09-05T13:20:25Z</time>
      </trkpt>
      <trkpt lat="43.742640" lon="11.290910">
        <ele>82</ele>
        <time>2019-09-05T13:20:32Z</time>
      </trkpt>
      <trkpt lat="43.742890" lon="11.290920">
        <ele>83</ele>
        <time>2019-09-05T13:20:36Z</time>
      </trkpt>
      <trkpt lat="43.743210" lon="11.290980">
        <ele>84</ele>
        <time>2019-09-05T13:20:42Z</time>
      </trkpt>
      <trkpt lat="43.743580" lon="11.291180">
        <ele>89</ele>
        <time>2019-09-05T13:20:49Z</time>
      </trkpt>
      <trkpt lat="43.743960" lon="11.291480">
        <ele>92</ele>
        <time>2019-09-05T13:20:57Z</time>
      </trkpt>
      <trkpt lat="43.744120" lon="11.291570">
        <ele>92</ele>
        <time>2019-09-05T13:21:00Z</time>
      </trkpt>
      <trkpt lat="43.744730" lon="11.292090">
        <ele>97</ele>
        <time>2019-09-05T13:21:13Z</time>
      </trkpt>
      <trkpt lat="43.745310" lon="11.292530">
        <ele>97</ele>
        <time>2019-09-05T13:21:25Z</time>
      </trkpt>
      <trkpt lat="43.747640" lon="11.294460">
        <ele>84</ele>
        <time>2019-09-05T13:22:13Z</time>
      </trkpt>
      <trkpt lat="43.747850" lon="11.294570">
        <ele>81</ele>
        <time>2019-09-05T13:22:17Z</time>
      </trkpt>
      <trkpt lat="43.747910" lon="11.294570">
        <ele>80</ele>
        <time>2019-09-05T13:22:18Z</time>
      </trkpt>
      <trkpt lat="43.749000" lon="11.294260">
        <ele>65</ele>
        <time>2019-09-05T13:22:38Z</time>
      </trkpt>
      <trkpt lat="43.749280" lon="11.294210">
        <ele>62</ele>
        <time>2019-09-05T13:22:43Z</time>
      </trkpt>
      <trkpt lat="43.749390" lon="11.294240">
        <ele>62</ele>
        <time>2019-09-05T13:22:45Z</time>
      </trkpt>
      <trkpt lat="43.749470" lon="11.294290">
        <ele>62</ele>
        <time>2019-09-05T13:22:46Z</time>
      </trkpt>
      <trkpt lat="43.750730" lon="11.295250">
        <ele>60</ele>
        <time>2019-09-05T13:23:12Z</time>
      </trkpt>
      <trkpt lat="43.751050" lon="11.295590">
        <ele>59</ele>
        <time>2019-09-05T13:23:19Z</time>
      </trkpt>
      <trkpt lat="43.751580" lon="11.296110">
        <ele>58</ele>
        <time>2019-09-05T13:23:31Z</time>
      </trkpt>
      <trkpt lat="43.752090" lon="11.296540">
        <ele>58</ele>
        <time>2019-09-05T13:23:41Z</time>
      </trkpt>
      <trkpt lat="43.752470" lon="11.296980">
        <ele>57</ele>
        <time>2019-09-05T13:23:50Z</time>
      </trkpt>
      <trkpt lat="43.752780" lon="11.297260">
        <ele>57</ele>
        <time>2019-09-05T13:23:57Z</time>
      </trkpt>
      <trkpt lat="43.753620" lon="11.297910">
        <ele>57</ele>
        <time>2019-09-05T13:24:14Z</time>
      </trkpt>
      <trkpt lat="43.754960" lon="11.298540">
        <ele>59</ele>
        <time>2019-09-05T13:24:39Z</time>
      </trkpt>
      <trkpt lat="43.755110" lon="11.298690">
        <ele>59</ele>
        <time>2019-09-05T13:24:42Z</time>
      </trkpt>
      <trkpt lat="43.755130" lon="11.298760">
        <ele>59</ele>
        <time>2019-09-05T13:24:43Z</time>
      </trkpt>
      <trkpt lat="43.755200" lon="11.298830">
        <ele>59</ele>
        <time>2019-09-05T13:24:45Z</time>
      </trkpt>
      <trkpt lat="43.755300" lon="11.298840">
        <ele>59</ele>
        <time>2019-09-05T13:24:47Z</time>
      </trkpt>
      <trkpt lat="43.755360" lon="11.298780">
        <ele>59</ele>
        <time>2019-09-05T13:24:48Z</time>
      </trkpt>
      <trkpt lat="43.755450" lon="11.298770">
        <ele>59</ele>
        <time>2019-09-05T13:24:50Z</time>
      </trkpt>
      <trkpt lat="43.755570" lon="11.298780">
        <ele>59</ele>
        <time>2019-09-05T13:24:52Z</time>
      </trkpt>
      <trkpt lat="43.756810" lon="11.299410">
        <ele>56</ele>
        <time>2019-09-05T13:25:15Z</time>
      </trkpt>
      <trkpt lat="43.756910" lon="11.298930">
        <ele>57</ele>
        <time>2019-09-05T13:25:22Z</time>
      </trkpt>
      <trkpt lat="43.757720" lon="11.299310">
        <ele>57</ele>
        <time>2019-09-05T13:25:37Z</time>
      </trkpt>
      <trkpt lat="43.757910" lon="11.299370">
        <ele>57</ele>
        <time>2019-09-05T13:25:40Z</time>
      </trkpt>
      <trkpt lat="43.758440" lon="11.299340">
        <ele>58</ele>
        <time>2019-09-05T13:25:50Z</time>
      </trkpt>
      <trkpt lat="43.758450" lon="11.299280">
        <ele>58</ele>
        <time>2019-09-05T13:25:51Z</time>
      </trkpt>
      <trkpt lat="43.759600" lon="11.299680">
        <ele>56</ele>
        <time>2019-09-05T13:26:12Z</time>
      </trkpt>
      <trkpt lat="43.759640" lon="11.299790">
        <ele>56</ele>
        <time>2019-09-05T13:26:13Z</time>
      </trkpt>
      <trkpt lat="43.760060" lon="11.299960">
        <ele>56</ele>
        <time>2019-09-05T13:26:21Z</time>
      </trkpt>
      <trkpt lat="43.760270" lon="11.299970">
        <ele>56</ele>
        <time>2019-09-05T13:26:25Z</time>
      </trkpt>
      <trkpt lat="43.760380" lon="11.299950">
        <ele>56</ele>
        <time>2019-09-05T13:26:27Z</time>
      </trkpt>
      <trkpt lat="43.760480" lon="11.300630">
        <ele>56</ele>
        <time>2019-09-05T13:26:36Z</time>
      </trkpt>
      <trkpt lat="43.760490" lon="11.300980">
        <ele>55</ele>
        <time>2019-09-05T13:26:40Z</time>
      </trkpt>
      <trkpt lat="43.760670" lon="11.302320">
        <ele>53</ele>
        <time>2019-09-05T13:26:58Z</time>
      </trkpt>
      <trkpt lat="43.760260" lon="11.302180">
        <ele>54</ele>
        <time>2019-09-05T13:27:05Z</time>
      </trkpt>
      <trkpt lat="43.760180" lon="11.302480">
        <ele>55</ele>
        <time>2019-09-05T13:27:09Z</time>
      </trkpt>
      <trkpt lat="43.759920" lon="11.302970">
        <ele>56</ele>
        <time>2019-09-05T13:27:17Z</time>
      </trkpt>
      <trkpt lat="43.759860" lon="11.303850">
        <ele>55</ele>
        <time>2019-09-05T13:27:28Z</time>
      </trkpt>
      <trkpt lat="43.759600" lon="11.304720">
        <ele>54</ele>
        <time>2019-09-05T13:27:41Z</time>
      </trkpt>
      <trkpt lat="43.759560" lon="11.304880">
        <ele>55</ele>
        <time>2019-09-05T13:27:43Z</time>
      </trkpt>
      <trkpt lat="43.759560" lon="11.304990">
        <ele>55</ele>
        <time>2019-09-05T13:27:44Z</time>
      </trkpt>
      <trkpt lat="43.759570" lon="11.305140">
        <ele>55</ele>
        <time>2019-09-05T13:27:46Z</time>
      </trkpt>
      <trkpt lat="43.759670" lon="11.305550">
        <ele>55</ele>
        <time>2019-09-05T13:27:52Z</time>
      </trkpt>
      <trkpt lat="43.759800" lon="11.305840">
        <ele>54</ele>
        <time>2019-09-05T13:27:56Z</time>
      </trkpt>
      <trkpt lat="43.759880" lon="11.306160">
        <ele>55</ele>
        <time>2019-09-05T13:28:00Z</time>
      </trkpt>
      <trkpt lat="43.760030" lon="11.306830">
        <ele>55</ele>
        <time>2019-09-05T13:28:09Z</time>
      </trkpt>
      <trkpt lat="43.760220" lon="11.307460">
        <ele>54</ele>
        <time>2019-09-05T13:28:18Z</time>
      </trkpt>
      <trkpt lat="43.760380" lon="11.307860">
        <ele>55</ele>
        <time>2019-09-05T13:28:24Z</time>
      </trkpt>
      <trkpt lat="43.761570" lon="11.307490">
        <ele>54</ele>
        <time>2019-09-05T13:28:46Z</time>
      </trkpt>
      <trkpt lat="43.761610" lon="11.306680">
        <ele>53</ele>
        <time>2019-09-05T13:28:56Z</time>
      </trkpt>
      <trkpt lat="43.761670" lon="11.306130">
        <ele>52</ele>
        <time>2019-09-05T13:29:03Z</time>
      </trkpt>
      <trkpt lat="43.761710" lon="11.305650">
        <ele>51</ele>
        <time>2019-09-05T13:29:10Z</time>
      </trkpt>
      <trkpt lat="43.761660" lon="11.304960">
        <ele>50</ele>
        <time>2019-09-05T13:29:18Z</time>
      </trkpt>
      <trkpt lat="43.761660" lon="11.304620">
        <ele>52</ele>
        <time>2019-09-05T13:29:23Z</time>
      </trkpt>
      <trkpt lat="43.761680" lon="11.304350">
        <ele>53</ele>
        <time>2019-09-05T13:29:26Z</time>
      </trkpt>
      <trkpt lat="43.761780" lon="11.303810">
        <ele>56</ele>
        <time>2019-09-05T13:29:33Z</time>
      </trkpt>
      <trkpt lat="43.761900" lon="11.303430">
        <ele>57</ele>
        <time>2019-09-05T13:29:39Z</time>
      </trkpt>
      <trkpt lat="43.762010" lon="11.303200">
        <ele>56</ele>
        <time>2019-09-05T13:29:42Z</time>
      </trkpt>
      <trkpt lat="43.762090" lon="11.303150">
        <ele>55</ele>
        <time>2019-09-05T13:29:44Z</time>
      </trkpt>
      <trkpt lat="43.762150" lon="11.303080">
        <ele>55</ele>
        <time>2019-09-05T13:29:45Z</time>
      </trkpt>
      <trkpt lat="43.762160" lon="11.303030">
        <ele>54</ele>
        <time>2019-09-05T13:29:46Z</time>
      </trkpt>
      <trkpt lat="43.762160" lon="11.302790">
        <ele>54</ele>
        <time>2019-09-05T13:29:49Z</time>
      </trkpt>
      <trkpt lat="43.762220" lon="11.302460">
        <ele>53</ele>
        <time>2019-09-05T13:29:53Z</time>
      </trkpt>
      <trkpt lat="43.762290" lon="11.301840">
        <ele>52</ele>
        <time>2019-09-05T13:30:01Z</time>
      </trkpt>
      <trkpt lat="43.762370" lon="11.300870">
        <ele>52</ele>
        <time>2019-09-05T13:30:14Z</time>
      </trkpt>
      <trkpt lat="43.762320" lon="11.300850">
        <ele>52</ele>
        <time>2019-09-05T13:30:15Z</time>
      </trkpt>
      <trkpt lat="43.762630" lon="11.296420">
        <ele>54</ele>
        <time>2019-09-05T13:31:12Z</time>
      </trkpt>
      <trkpt lat="43.762710" lon="11.296420">
        <ele>54</ele>
        <time>2019-09-05T13:31:14Z</time>
      </trkpt>
      <trkpt lat="43.762990" lon="11.292240">
        <ele>51</ele>
        <time>2019-09-05T13:32:07Z</time>
      </trkpt>
      <trkpt lat="43.763030" lon="11.292160">
        <ele>51</ele>
        <time>2019-09-05T13:32:09Z</time>
      </trkpt>
      <trkpt lat="43.763200" lon="11.289900">
        <ele>51</ele>
        <time>2019-09-05T13:32:38Z</time>
      </trkpt>
      <trkpt lat="43.763390" lon="11.287020">
        <ele>54</ele>
        <time>2019-09-05T13:33:15Z</time>
      </trkpt>
      <trkpt lat="43.763370" lon="11.286890">
        <ele>54</ele>
        <time>2019-09-05T13:33:17Z</time>
      </trkpt>
      <trkpt lat="43.763690" lon="11.282290">
        <ele>51</ele>
        <time>2019-09-05T13:34:16Z</time>
      </trkpt>
      <trkpt lat="43.763710" lon="11.282200">
        <ele>51</ele>
        <time>2019-09-05T13:34:17Z</time>
      </trkpt>
      <trkpt lat="43.763890" lon="11.282060">
        <ele>51</ele>
        <time>2019-09-05T13:34:21Z</time>
      </trkpt>
      <trkpt lat="43.763900" lon="11.281930">
        <ele>52</ele>
        <time>2019-09-05T13:34:23Z</time>
      </trkpt>
      <trkpt lat="43.763970" lon="11.281890">
        <ele>52</ele>
        <time>2019-09-05T13:34:24Z</time>
      </trkpt>
      <trkpt lat="43.764020" lon="11.281830">
        <ele>52</ele>
        <time>2019-09-05T13:34:25Z</time>
      </trkpt>
      <trkpt lat="43.764050" lon="11.281740">
        <ele>53</ele>
        <time>2019-09-05T13:34:27Z</time>
      </trkpt>
      <trkpt lat="43.764060" lon="11.281670">
        <ele>53</ele>
        <time>2019-09-05T13:34:27Z</time>
      </trkpt>
      <trkpt lat="43.764050" lon="11.281560">
        <ele>53</ele>
        <time>2019-09-05T13:34:29Z</time>
      </trkpt>
      <trkpt lat="43.764010" lon="11.281480">
        <ele>53</ele>
        <time>2019-09-05T13:34:30Z</time>
      </trkpt>
      <trkpt lat="43.763960" lon="11.281430">
        <ele>53</ele>
        <time>2019-09-05T13:34:31Z</time>
      </trkpt>
      <trkpt lat="43.763930" lon="11.281260">
        <ele>53</ele>
        <time>2019-09-05T13:34:33Z</time>
      </trkpt>
      <trkpt lat="43.763910" lon="11.280610">
        <ele>52</ele>
        <time>2019-09-05T13:34:42Z</time>
      </trkpt>
      <trkpt lat="43.763890" lon="11.276940">
        <ele>50</ele>
        <time>2019-09-05T13:35:29Z</time>
      </trkpt>
      <trkpt lat="43.763940" lon="11.272360">
        <ele>53</ele>
        <time>2019-09-05T13:36:28Z</time>
      </trkpt>
      <trkpt lat="43.763920" lon="11.272230">
        <ele>52</ele>
        <time>2019-09-05T13:36:30Z</time>
      </trkpt>
      <trkpt lat="43.763890" lon="11.272160">
        <ele>52</ele>
        <time>2019-09-05T13:36:31Z</time>
      </trkpt>
      <trkpt lat="43.763860" lon="11.272140">
        <ele>52</ele>
        <time>2019-09-05T13:36:31Z</time>
      </trkpt>
      <trkpt lat="43.763540" lon="11.272120">
        <ele>53</ele>
        <time>2019-09-05T13:36:37Z</time>
      </trkpt>
      <trkpt lat="43.763580" lon="11.272040">
        <ele>52</ele>
        <time>2019-09-05T13:36:38Z</time>
      </trkpt>
      <trkpt lat="43.763680" lon="11.271620">
        <ele>51</ele>
        <time>2019-09-05T13:36:44Z</time>
      </trkpt>
      <trkpt lat="43.763750" lon="11.271490">
        <ele>51</ele>
        <time>2019-09-05T13:36:46Z</time>
      </trkpt>
      <trkpt lat="43.763950" lon="11.271040">
        <ele>50</ele>
        <time>2019-09-05T13:36:53Z</time>
      </trkpt>
      <trkpt lat="43.764070" lon="11.270740">
        <ele>50</ele>
        <time>2019-09-05T13:36:57Z</time>
      </trkpt>
      <trkpt lat="43.764170" lon="11.270410">
        <ele>50</ele>
        <time>2019-09-05T13:37:02Z</time>
      </trkpt>
      <trkpt lat="43.764280" lon="11.269890">
        <ele>50</ele>
        <time>2019-09-05T13:37:09Z</time>
      </trkpt>
      <trkpt lat="43.764420" lon="11.268970">
        <ele>52</ele>
        <time>2019-09-05T13:37:21Z</time>
      </trkpt>
      <trkpt lat="43.764620" lon="11.267330">
        <ele>58</ele>
        <time>2019-09-05T13:37:42Z</time>
      </trkpt>
      <trkpt lat="43.765490" lon="11.258390">
        <ele>51</ele>
        <time>2019-09-05T13:39:38Z</time>
      </trkpt>
      <trkpt lat="43.766960" lon="11.254370">
        <ele>63</ele>
        <time>2019-09-05T13:40:36Z</time>
      </trkpt>
      <trkpt lat="43.766990" lon="11.254260">
        <ele>63</ele>
        <time>2019-09-05T13:40:37Z</time>
      </trkpt>
      <trkpt lat="43.767000" lon="11.254120">
        <ele>63</ele>
        <time>2019-09-05T13:40:39Z</time>
      </trkpt>
      <trkpt lat="43.767330" lon="11.252930">
        <ele>61</ele>
        <time>2019-09-05T13:40:56Z</time>
      </trkpt>
      <trkpt lat="43.767360" lon="11.252650">
        <ele>61</ele>
        <time>2019-09-05T13:40:59Z</time>
      </trkpt>
      <trkpt lat="43.767490" lon="11.252760">
        <ele>61</ele>
        <time>2019-09-05T13:41:02Z</time>
      </trkpt>
      <trkpt lat="43.767550" lon="11.252590">
        <ele>61</ele>
        <time>2019-09-05T13:41:04Z</time>
      </trkpt>
      <trkpt lat="43.767870" lon="11.251220">
        <ele>60</ele>
        <time>2019-09-05T13:41:23Z</time>
      </trkpt>
    </trkseg>
  </trk>
</gpx>
